<?xml version="1.0" encoding="UTF-8"?>
<gpx xmlns="http://www.topografix.com/GPX/1/1" version="1.1" creator="GPSBabel - http://www.gpsbabel.org">
	<metadata>
		<author>
			<name>Airwolf</name>
		</author>
	</metadata>
	<wpt lat="30.230333" lon="120.093767">
		<speed>0.000000</speed>
		<ele>104.000000</ele>
		<time>2025-05-30T03:53:31Z</time>
		<name><![CDATA[CP1云山竺院]]></name>
		<desc><![CDATA[6.2KM，累计海报爬升294m]]></desc>
	</wpt>
	<wpt lat="30.257742" lon="120.092727">
		<speed>0.000000</speed>
		<ele>0.000000</ele>
		<time>2026-08-18T05:07:29Z</time>
		<name><![CDATA[CP2新凉亭]]></name>
		<desc><![CDATA[区间6KM，区间累计海拔爬升384m
累计距离12.2KM 累计海拔爬升678m
距离终点5KM，区间累计海拔爬升244m]]></desc>
	</wpt>
	<trk>
		<trkseg>
			<trkpt lat="30.260338" lon="120.119379">
				<speed>0.000000</speed>
				<ele>30.000000</ele>
				<time>2026-08-17T02:13:33Z</time>
			</trkpt>
			<trkpt lat="30.260340" lon="120.119372">
				<speed>0.000000</speed>
				<ele>30.000000</ele>
				<time>2026-08-17T02:13:34Z</time>
			</trkpt>
			<trkpt lat="30.260341" lon="120.119366">
				<speed>0.000000</speed>
				<ele>30.000000</ele>
				<time>2026-08-17T02:13:35Z</time>
			</trkpt>
			<trkpt lat="30.260342" lon="120.119360">
				<speed>0.000000</speed>
				<ele>30.000000</ele>
				<time>2026-08-17T02:13:36Z</time>
			</trkpt>
			<trkpt lat="30.260343" lon="120.119353">
				<speed>0.000000</speed>
				<ele>30.000000</ele>
				<time>2026-08-17T02:13:37Z</time>
			</trkpt>
			<trkpt lat="30.260345" lon="120.119325">
				<speed>0.000000</speed>
				<ele>30.000000</ele>
				<time>2026-08-17T02:13:38Z</time>
			</trkpt>
			<trkpt lat="30.260346" lon="120.119314">
				<speed>0.000000</speed>
				<ele>30.000000</ele>
				<time>2026-08-17T02:13:39Z</time>
			</trkpt>
			<trkpt lat="30.260347" lon="120.119302">
				<speed>0.000000</speed>
				<ele>30.000000</ele>
				<time>2026-08-17T02:13:40Z</time>
			</trkpt>
			<trkpt lat="30.260348" lon="120.119291">
				<speed>0.000000</speed>
				<ele>30.000000</ele>
				<time>2026-08-17T02:13:41Z</time>
			</trkpt>
			<trkpt lat="30.260352" lon="120.119258">
				<speed>0.000000</speed>
				<ele>30.000000</ele>
				<time>2026-08-17T02:13:42Z</time>
			</trkpt>
			<trkpt lat="30.260353" lon="120.119248">
				<speed>0.000000</speed>
				<ele>30.000000</ele>
				<time>2026-08-17T02:13:43Z</time>
			</trkpt>
			<trkpt lat="30.260354" lon="120.119238">
				<speed>0.000000</speed>
				<ele>30.000000</ele>
				<time>2026-08-17T02:13:44Z</time>
			</trkpt>
			<trkpt lat="30.260355" lon="120.119229">
				<speed>0.000000</speed>
				<ele>30.000000</ele>
				<time>2026-08-17T02:13:45Z</time>
			</trkpt>
			<trkpt lat="30.260359" lon="120.119201">
				<speed>0.000000</speed>
				<ele>30.000000</ele>
				<time>2026-08-17T02:13:46Z</time>
			</trkpt>
			<trkpt lat="30.260360" lon="120.119193">
				<speed>0.000000</speed>
				<ele>30.000000</ele>
				<time>2026-08-17T02:13:47Z</time>
			</trkpt>
			<trkpt lat="30.260361" lon="120.119185">
				<speed>0.000000</speed>
				<ele>30.000000</ele>
				<time>2026-08-17T02:13:48Z</time>
			</trkpt>
			<trkpt lat="30.260363" lon="120.119176">
				<speed>0.000000</speed>
				<ele>30.000000</ele>
				<time>2026-08-17T02:13:49Z</time>
			</trkpt>
			<trkpt lat="30.260362" lon="120.119156">
				<speed>0.000000</speed>
				<ele>30.000000</ele>
				<time>2026-08-17T02:13:50Z</time>
			</trkpt>
			<trkpt lat="30.260360" lon="120.119151">
				<speed>0.000000</speed>
				<ele>30.000000</ele>
				<time>2026-08-17T02:13:51Z</time>
			</trkpt>
			<trkpt lat="30.260359" lon="120.119146">
				<speed>0.000000</speed>
				<ele>30.000000</ele>
				<time>2026-08-17T02:13:52Z</time>
			</trkpt>
			<trkpt lat="30.260357" lon="120.119141">
				<speed>0.000000</speed>
				<ele>30.000000</ele>
				<time>2026-08-17T02:13:53Z</time>
			</trkpt>
			<trkpt lat="30.260351" lon="120.119126">
				<speed>0.000000</speed>
				<ele>30.000000</ele>
				<time>2026-08-17T02:13:54Z</time>
			</trkpt>
			<trkpt lat="30.260349" lon="120.119119">
				<speed>0.000000</speed>
				<ele>30.000000</ele>
				<time>2026-08-17T02:13:55Z</time>
			</trkpt>
			<trkpt lat="30.260347" lon="120.119113">
				<speed>0.000000</speed>
				<ele>30.000000</ele>
				<time>2026-08-17T02:13:56Z</time>
			</trkpt>
			<trkpt lat="30.260345" lon="120.119106">
				<speed>0.000000</speed>
				<ele>30.000000</ele>
				<time>2026-08-17T02:13:57Z</time>
			</trkpt>
			<trkpt lat="30.260337" lon="120.119076">
				<speed>0.000000</speed>
				<ele>30.000000</ele>
				<time>2026-08-17T02:13:58Z</time>
			</trkpt>
			<trkpt lat="30.260333" lon="120.119063">
				<speed>0.000000</speed>
				<ele>30.000000</ele>
				<time>2026-08-17T02:13:59Z</time>
			</trkpt>
			<trkpt lat="30.260329" lon="120.119049">
				<speed>0.000000</speed>
				<ele>30.000000</ele>
				<time>2026-08-17T02:14:00Z</time>
			</trkpt>
			<trkpt lat="30.260325" lon="120.119036">
				<speed>0.000000</speed>
				<ele>30.000000</ele>
				<time>2026-08-17T02:14:01Z</time>
			</trkpt>
			<trkpt lat="30.260313" lon="120.118991">
				<speed>0.000000</speed>
				<ele>30.000000</ele>
				<time>2026-08-17T02:14:02Z</time>
			</trkpt>
			<trkpt lat="30.260311" lon="120.118977">
				<speed>0.000000</speed>
				<ele>30.000000</ele>
				<time>2026-08-17T02:14:03Z</time>
			</trkpt>
			<trkpt lat="30.260308" lon="120.118962">
				<speed>0.000000</speed>
				<ele>30.000000</ele>
				<time>2026-08-17T02:14:04Z</time>
			</trkpt>
			<trkpt lat="30.260306" lon="120.118948">
				<speed>0.000000</speed>
				<ele>30.000000</ele>
				<time>2026-08-17T02:14:05Z</time>
			</trkpt>
			<trkpt lat="30.260303" lon="120.118902">
				<speed>0.000000</speed>
				<ele>30.000000</ele>
				<time>2026-08-17T02:14:06Z</time>
			</trkpt>
			<trkpt lat="30.260304" lon="120.118886">
				<speed>0.000000</speed>
				<ele>30.000000</ele>
				<time>2026-08-17T02:14:07Z</time>
			</trkpt>
			<trkpt lat="30.260304" lon="120.118869">
				<speed>0.000000</speed>
				<ele>30.000000</ele>
				<time>2026-08-17T02:14:08Z</time>
			</trkpt>
			<trkpt lat="30.260305" lon="120.118853">
				<speed>0.000000</speed>
				<ele>30.000000</ele>
				<time>2026-08-17T02:14:09Z</time>
			</trkpt>
			<trkpt lat="30.260308" lon="120.118798">
				<speed>0.000000</speed>
				<ele>30.000000</ele>
				<time>2026-08-17T02:14:10Z</time>
			</trkpt>
			<trkpt lat="30.260310" lon="120.118779">
				<speed>0.000000</speed>
				<ele>30.000000</ele>
				<time>2026-08-17T02:14:11Z</time>
			</trkpt>
			<trkpt lat="30.260312" lon="120.118760">
				<speed>0.000000</speed>
				<ele>30.000000</ele>
				<time>2026-08-17T02:14:12Z</time>
			</trkpt>
			<trkpt lat="30.260314" lon="120.118742">
				<speed>0.000000</speed>
				<ele>30.000000</ele>
				<time>2026-08-17T02:14:13Z</time>
			</trkpt>
			<trkpt lat="30.260319" lon="120.118686">
				<speed>0.000000</speed>
				<ele>30.000000</ele>
				<time>2026-08-17T02:14:14Z</time>
			</trkpt>
			<trkpt lat="30.260321" lon="120.118668">
				<speed>0.000000</speed>
				<ele>30.000000</ele>
				<time>2026-08-17T02:14:15Z</time>
			</trkpt>
			<trkpt lat="30.260322" lon="120.118649">
				<speed>0.000000</speed>
				<ele>30.000000</ele>
				<time>2026-08-17T02:14:16Z</time>
			</trkpt>
			<trkpt lat="30.260324" lon="120.118631">
				<speed>0.000000</speed>
				<ele>31.000000</ele>
				<time>2026-08-17T02:14:17Z</time>
			</trkpt>
			<trkpt lat="30.260328" lon="120.118577">
				<speed>0.000000</speed>
				<ele>31.000000</ele>
				<time>2026-08-17T02:14:18Z</time>
			</trkpt>
			<trkpt lat="30.260329" lon="120.118560">
				<speed>0.000000</speed>
				<ele>31.000000</ele>
				<time>2026-08-17T02:14:19Z</time>
			</trkpt>
			<trkpt lat="30.260331" lon="120.118542">
				<speed>0.000000</speed>
				<ele>31.000000</ele>
				<time>2026-08-17T02:14:20Z</time>
			</trkpt>
			<trkpt lat="30.260332" lon="120.118525">
				<speed>0.000000</speed>
				<ele>31.000000</ele>
				<time>2026-08-17T02:14:21Z</time>
			</trkpt>
			<trkpt lat="30.260338" lon="120.118473">
				<speed>0.000000</speed>
				<ele>31.000000</ele>
				<time>2026-08-17T02:14:22Z</time>
			</trkpt>
			<trkpt lat="30.260341" lon="120.118456">
				<speed>0.000000</speed>
				<ele>31.000000</ele>
				<time>2026-08-17T02:14:23Z</time>
			</trkpt>
			<trkpt lat="30.260343" lon="120.118439">
				<speed>0.000000</speed>
				<ele>31.000000</ele>
				<time>2026-08-17T02:14:24Z</time>
			</trkpt>
			<trkpt lat="30.260346" lon="120.118422">
				<speed>0.000000</speed>
				<ele>31.000000</ele>
				<time>2026-08-17T02:14:25Z</time>
			</trkpt>
			<trkpt lat="30.260351" lon="120.118374">
				<speed>0.000000</speed>
				<ele>31.000000</ele>
				<time>2026-08-17T02:14:26Z</time>
			</trkpt>
			<trkpt lat="30.260351" lon="120.118358">
				<speed>0.000000</speed>
				<ele>31.000000</ele>
				<time>2026-08-17T02:14:27Z</time>
			</trkpt>
			<trkpt lat="30.260352" lon="120.118342">
				<speed>0.000000</speed>
				<ele>31.000000</ele>
				<time>2026-08-17T02:14:28Z</time>
			</trkpt>
			<trkpt lat="30.260352" lon="120.118326">
				<speed>0.000000</speed>
				<ele>31.000000</ele>
				<time>2026-08-17T02:14:29Z</time>
			</trkpt>
			<trkpt lat="30.260352" lon="120.118277">
				<speed>0.000000</speed>
				<ele>31.000000</ele>
				<time>2026-08-17T02:14:30Z</time>
			</trkpt>
			<trkpt lat="30.260353" lon="120.118262">
				<speed>0.000000</speed>
				<ele>31.000000</ele>
				<time>2026-08-17T02:14:31Z</time>
			</trkpt>
			<trkpt lat="30.260354" lon="120.118246">
				<speed>0.000000</speed>
				<ele>31.000000</ele>
				<time>2026-08-17T02:14:32Z</time>
			</trkpt>
			<trkpt lat="30.260355" lon="120.118231">
				<speed>0.000000</speed>
				<ele>31.000000</ele>
				<time>2026-08-17T02:14:33Z</time>
			</trkpt>
			<trkpt lat="30.260361" lon="120.118188">
				<speed>0.000000</speed>
				<ele>31.000000</ele>
				<time>2026-08-17T02:14:34Z</time>
			</trkpt>
			<trkpt lat="30.260364" lon="120.118175">
				<speed>0.000000</speed>
				<ele>31.000000</ele>
				<time>2026-08-17T02:14:35Z</time>
			</trkpt>
			<trkpt lat="30.260367" lon="120.118161">
				<speed>0.000000</speed>
				<ele>31.000000</ele>
				<time>2026-08-17T02:14:36Z</time>
			</trkpt>
			<trkpt lat="30.260370" lon="120.118148">
				<speed>0.000000</speed>
				<ele>32.000000</ele>
				<time>2026-08-17T02:14:37Z</time>
			</trkpt>
			<trkpt lat="30.260382" lon="120.118108">
				<speed>0.000000</speed>
				<ele>32.000000</ele>
				<time>2026-08-17T02:14:38Z</time>
			</trkpt>
			<trkpt lat="30.260386" lon="120.118094">
				<speed>0.000000</speed>
				<ele>32.000000</ele>
				<time>2026-08-17T02:14:39Z</time>
			</trkpt>
			<trkpt lat="30.260391" lon="120.118081">
				<speed>0.000000</speed>
				<ele>32.000000</ele>
				<time>2026-08-17T02:14:40Z</time>
			</trkpt>
			<trkpt lat="30.260396" lon="120.118067">
				<speed>0.000000</speed>
				<ele>32.000000</ele>
				<time>2026-08-17T02:14:41Z</time>
			</trkpt>
			<trkpt lat="30.260406" lon="120.118024">
				<speed>0.000000</speed>
				<ele>32.000000</ele>
				<time>2026-08-17T02:14:42Z</time>
			</trkpt>
			<trkpt lat="30.260408" lon="120.118009">
				<speed>0.000000</speed>
				<ele>32.000000</ele>
				<time>2026-08-17T02:14:43Z</time>
			</trkpt>
			<trkpt lat="30.260410" lon="120.117994">
				<speed>0.000000</speed>
				<ele>32.000000</ele>
				<time>2026-08-17T02:14:44Z</time>
			</trkpt>
			<trkpt lat="30.260412" lon="120.117979">
				<speed>0.000000</speed>
				<ele>32.000000</ele>
				<time>2026-08-17T02:14:45Z</time>
			</trkpt>
			<trkpt lat="30.260415" lon="120.117934">
				<speed>0.000000</speed>
				<ele>32.000000</ele>
				<time>2026-08-17T02:14:46Z</time>
			</trkpt>
			<trkpt lat="30.260415" lon="120.117919">
				<speed>0.000000</speed>
				<ele>32.000000</ele>
				<time>2026-08-17T02:14:47Z</time>
			</trkpt>
			<trkpt lat="30.260415" lon="120.117904">
				<speed>0.000000</speed>
				<ele>32.000000</ele>
				<time>2026-08-17T02:14:48Z</time>
			</trkpt>
			<trkpt lat="30.260416" lon="120.117888">
				<speed>0.000000</speed>
				<ele>32.000000</ele>
				<time>2026-08-17T02:14:49Z</time>
			</trkpt>
			<trkpt lat="30.260417" lon="120.117842">
				<speed>0.000000</speed>
				<ele>32.000000</ele>
				<time>2026-08-17T02:14:50Z</time>
			</trkpt>
			<trkpt lat="30.260417" lon="120.117827">
				<speed>0.000000</speed>
				<ele>32.000000</ele>
				<time>2026-08-17T02:14:51Z</time>
			</trkpt>
			<trkpt lat="30.260418" lon="120.117811">
				<speed>0.000000</speed>
				<ele>32.000000</ele>
				<time>2026-08-17T02:14:52Z</time>
			</trkpt>
			<trkpt lat="30.260419" lon="120.117796">
				<speed>0.000000</speed>
				<ele>32.000000</ele>
				<time>2026-08-17T02:14:53Z</time>
			</trkpt>
			<trkpt lat="30.260422" lon="120.117750">
				<speed>0.000000</speed>
				<ele>32.000000</ele>
				<time>2026-08-17T02:14:54Z</time>
			</trkpt>
			<trkpt lat="30.260423" lon="120.117735">
				<speed>0.000000</speed>
				<ele>32.000000</ele>
				<time>2026-08-17T02:14:55Z</time>
			</trkpt>
			<trkpt lat="30.260425" lon="120.117721">
				<speed>0.000000</speed>
				<ele>32.000000</ele>
				<time>2026-08-17T02:14:56Z</time>
			</trkpt>
			<trkpt lat="30.260427" lon="120.117706">
				<speed>0.000000</speed>
				<ele>32.000000</ele>
				<time>2026-08-17T02:14:57Z</time>
			</trkpt>
			<trkpt lat="30.260432" lon="120.117663">
				<speed>0.000000</speed>
				<ele>32.000000</ele>
				<time>2026-08-17T02:14:58Z</time>
			</trkpt>
			<trkpt lat="30.260432" lon="120.117649">
				<speed>0.000000</speed>
				<ele>32.000000</ele>
				<time>2026-08-17T02:14:59Z</time>
			</trkpt>
			<trkpt lat="30.260433" lon="120.117634">
				<speed>0.000000</speed>
				<ele>32.000000</ele>
				<time>2026-08-17T02:15:00Z</time>
			</trkpt>
			<trkpt lat="30.260434" lon="120.117620">
				<speed>0.000000</speed>
				<ele>32.000000</ele>
				<time>2026-08-17T02:15:01Z</time>
			</trkpt>
			<trkpt lat="30.260434" lon="120.117576">
				<speed>0.000000</speed>
				<ele>32.000000</ele>
				<time>2026-08-17T02:15:02Z</time>
			</trkpt>
			<trkpt lat="30.260434" lon="120.117560">
				<speed>0.000000</speed>
				<ele>32.000000</ele>
				<time>2026-08-17T02:15:03Z</time>
			</trkpt>
			<trkpt lat="30.260435" lon="120.117545">
				<speed>0.000000</speed>
				<ele>32.000000</ele>
				<time>2026-08-17T02:15:04Z</time>
			</trkpt>
			<trkpt lat="30.260435" lon="120.117530">
				<speed>0.000000</speed>
				<ele>33.000000</ele>
				<time>2026-08-17T02:15:05Z</time>
			</trkpt>
			<trkpt lat="30.260436" lon="120.117483">
				<speed>0.000000</speed>
				<ele>33.000000</ele>
				<time>2026-08-17T02:15:06Z</time>
			</trkpt>
			<trkpt lat="30.260436" lon="120.117467">
				<speed>0.000000</speed>
				<ele>33.000000</ele>
				<time>2026-08-17T02:15:07Z</time>
			</trkpt>
			<trkpt lat="30.260437" lon="120.117451">
				<speed>0.000000</speed>
				<ele>33.000000</ele>
				<time>2026-08-17T02:15:08Z</time>
			</trkpt>
			<trkpt lat="30.260437" lon="120.117435">
				<speed>0.000000</speed>
				<ele>33.000000</ele>
				<time>2026-08-17T02:15:09Z</time>
			</trkpt>
			<trkpt lat="30.260440" lon="120.117388">
				<speed>0.000000</speed>
				<ele>33.000000</ele>
				<time>2026-08-17T02:15:10Z</time>
			</trkpt>
			<trkpt lat="30.260441" lon="120.117373">
				<speed>0.000000</speed>
				<ele>33.000000</ele>
				<time>2026-08-17T02:15:11Z</time>
			</trkpt>
			<trkpt lat="30.260443" lon="120.117357">
				<speed>0.000000</speed>
				<ele>33.000000</ele>
				<time>2026-08-17T02:15:12Z</time>
			</trkpt>
			<trkpt lat="30.260444" lon="120.117342">
				<speed>0.000000</speed>
				<ele>33.000000</ele>
				<time>2026-08-17T02:15:13Z</time>
			</trkpt>
			<trkpt lat="30.260447" lon="120.117295">
				<speed>0.000000</speed>
				<ele>33.000000</ele>
				<time>2026-08-17T02:15:14Z</time>
			</trkpt>
			<trkpt lat="30.260448" lon="120.117280">
				<speed>0.000000</speed>
				<ele>33.000000</ele>
				<time>2026-08-17T02:15:15Z</time>
			</trkpt>
			<trkpt lat="30.260448" lon="120.117265">
				<speed>0.000000</speed>
				<ele>33.000000</ele>
				<time>2026-08-17T02:15:16Z</time>
			</trkpt>
			<trkpt lat="30.260449" lon="120.117249">
				<speed>0.000000</speed>
				<ele>33.000000</ele>
				<time>2026-08-17T02:15:17Z</time>
			</trkpt>
			<trkpt lat="30.260452" lon="120.117203">
				<speed>0.000000</speed>
				<ele>33.000000</ele>
				<time>2026-08-17T02:15:18Z</time>
			</trkpt>
			<trkpt lat="30.260453" lon="120.117188">
				<speed>0.000000</speed>
				<ele>33.000000</ele>
				<time>2026-08-17T02:15:19Z</time>
			</trkpt>
			<trkpt lat="30.260453" lon="120.117173">
				<speed>0.000000</speed>
				<ele>33.000000</ele>
				<time>2026-08-17T02:15:20Z</time>
			</trkpt>
			<trkpt lat="30.260454" lon="120.117158">
				<speed>0.000000</speed>
				<ele>33.000000</ele>
				<time>2026-08-17T02:15:21Z</time>
			</trkpt>
			<trkpt lat="30.260455" lon="120.117112">
				<speed>0.000000</speed>
				<ele>33.000000</ele>
				<time>2026-08-17T02:15:22Z</time>
			</trkpt>
			<trkpt lat="30.260456" lon="120.117096">
				<speed>0.000000</speed>
				<ele>33.000000</ele>
				<time>2026-08-17T02:15:23Z</time>
			</trkpt>
			<trkpt lat="30.260457" lon="120.117080">
				<speed>0.000000</speed>
				<ele>33.000000</ele>
				<time>2026-08-17T02:15:24Z</time>
			</trkpt>
			<trkpt lat="30.260457" lon="120.117065">
				<speed>0.000000</speed>
				<ele>34.000000</ele>
				<time>2026-08-17T02:15:25Z</time>
			</trkpt>
			<trkpt lat="30.260459" lon="120.117017">
				<speed>0.000000</speed>
				<ele>34.000000</ele>
				<time>2026-08-17T02:15:26Z</time>
			</trkpt>
			<trkpt lat="30.260459" lon="120.117001">
				<speed>0.000000</speed>
				<ele>34.000000</ele>
				<time>2026-08-17T02:15:27Z</time>
			</trkpt>
			<trkpt lat="30.260460" lon="120.116985">
				<speed>0.000000</speed>
				<ele>34.000000</ele>
				<time>2026-08-17T02:15:28Z</time>
			</trkpt>
			<trkpt lat="30.260460" lon="120.116969">
				<speed>0.000000</speed>
				<ele>34.000000</ele>
				<time>2026-08-17T02:15:29Z</time>
			</trkpt>
			<trkpt lat="30.260463" lon="120.116920">
				<speed>0.000000</speed>
				<ele>34.000000</ele>
				<time>2026-08-17T02:15:30Z</time>
			</trkpt>
			<trkpt lat="30.260463" lon="120.116904">
				<speed>0.000000</speed>
				<ele>34.000000</ele>
				<time>2026-08-17T02:15:31Z</time>
			</trkpt>
			<trkpt lat="30.260464" lon="120.116888">
				<speed>0.000000</speed>
				<ele>34.000000</ele>
				<time>2026-08-17T02:15:32Z</time>
			</trkpt>
			<trkpt lat="30.260464" lon="120.116872">
				<speed>0.000000</speed>
				<ele>34.000000</ele>
				<time>2026-08-17T02:15:33Z</time>
			</trkpt>
			<trkpt lat="30.260465" lon="120.116823">
				<speed>0.000000</speed>
				<ele>34.000000</ele>
				<time>2026-08-17T02:15:34Z</time>
			</trkpt>
			<trkpt lat="30.260466" lon="120.116806">
				<speed>0.000000</speed>
				<ele>34.000000</ele>
				<time>2026-08-17T02:15:35Z</time>
			</trkpt>
			<trkpt lat="30.260468" lon="120.116790">
				<speed>0.000000</speed>
				<ele>34.000000</ele>
				<time>2026-08-17T02:15:36Z</time>
			</trkpt>
			<trkpt lat="30.260469" lon="120.116773">
				<speed>0.000000</speed>
				<ele>34.000000</ele>
				<time>2026-08-17T02:15:37Z</time>
			</trkpt>
			<trkpt lat="30.260474" lon="120.116723">
				<speed>0.000000</speed>
				<ele>34.000000</ele>
				<time>2026-08-17T02:15:38Z</time>
			</trkpt>
			<trkpt lat="30.260476" lon="120.116707">
				<speed>0.000000</speed>
				<ele>34.000000</ele>
				<time>2026-08-17T02:15:39Z</time>
			</trkpt>
			<trkpt lat="30.260478" lon="120.116691">
				<speed>0.000000</speed>
				<ele>34.000000</ele>
				<time>2026-08-17T02:15:40Z</time>
			</trkpt>
			<trkpt lat="30.260481" lon="120.116675">
				<speed>0.000000</speed>
				<ele>34.000000</ele>
				<time>2026-08-17T02:15:41Z</time>
			</trkpt>
			<trkpt lat="30.260487" lon="120.116627">
				<speed>0.000000</speed>
				<ele>34.000000</ele>
				<time>2026-08-17T02:15:42Z</time>
			</trkpt>
			<trkpt lat="30.260489" lon="120.116612">
				<speed>0.000000</speed>
				<ele>34.000000</ele>
				<time>2026-08-17T02:15:43Z</time>
			</trkpt>
			<trkpt lat="30.260491" lon="120.116597">
				<speed>0.000000</speed>
				<ele>34.000000</ele>
				<time>2026-08-17T02:15:44Z</time>
			</trkpt>
			<trkpt lat="30.260493" lon="120.116582">
				<speed>0.000000</speed>
				<ele>35.000000</ele>
				<time>2026-08-17T02:15:45Z</time>
			</trkpt>
			<trkpt lat="30.260500" lon="120.116537">
				<speed>0.000000</speed>
				<ele>35.000000</ele>
				<time>2026-08-17T02:15:46Z</time>
			</trkpt>
			<trkpt lat="30.260501" lon="120.116522">
				<speed>0.000000</speed>
				<ele>35.000000</ele>
				<time>2026-08-17T02:15:47Z</time>
			</trkpt>
			<trkpt lat="30.260503" lon="120.116506">
				<speed>0.000000</speed>
				<ele>35.000000</ele>
				<time>2026-08-17T02:15:48Z</time>
			</trkpt>
			<trkpt lat="30.260504" lon="120.116491">
				<speed>0.000000</speed>
				<ele>35.000000</ele>
				<time>2026-08-17T02:15:49Z</time>
			</trkpt>
			<trkpt lat="30.260508" lon="120.116443">
				<speed>0.000000</speed>
				<ele>35.000000</ele>
				<time>2026-08-17T02:15:50Z</time>
			</trkpt>
			<trkpt lat="30.260509" lon="120.116426">
				<speed>0.000000</speed>
				<ele>35.000000</ele>
				<time>2026-08-17T02:15:51Z</time>
			</trkpt>
			<trkpt lat="30.260510" lon="120.116410">
				<speed>0.000000</speed>
				<ele>35.000000</ele>
				<time>2026-08-17T02:15:52Z</time>
			</trkpt>
			<trkpt lat="30.260511" lon="120.116394">
				<speed>0.000000</speed>
				<ele>35.000000</ele>
				<time>2026-08-17T02:15:53Z</time>
			</trkpt>
			<trkpt lat="30.260511" lon="120.116344">
				<speed>0.000000</speed>
				<ele>35.000000</ele>
				<time>2026-08-17T02:15:54Z</time>
			</trkpt>
			<trkpt lat="30.260512" lon="120.116328">
				<speed>0.000000</speed>
				<ele>35.000000</ele>
				<time>2026-08-17T02:15:55Z</time>
			</trkpt>
			<trkpt lat="30.260512" lon="120.116312">
				<speed>0.000000</speed>
				<ele>35.000000</ele>
				<time>2026-08-17T02:15:56Z</time>
			</trkpt>
			<trkpt lat="30.260512" lon="120.116296">
				<speed>0.000000</speed>
				<ele>35.000000</ele>
				<time>2026-08-17T02:15:57Z</time>
			</trkpt>
			<trkpt lat="30.260513" lon="120.116247">
				<speed>0.000000</speed>
				<ele>35.000000</ele>
				<time>2026-08-17T02:15:58Z</time>
			</trkpt>
			<trkpt lat="30.260514" lon="120.116230">
				<speed>0.000000</speed>
				<ele>35.000000</ele>
				<time>2026-08-17T02:15:59Z</time>
			</trkpt>
			<trkpt lat="30.260515" lon="120.116213">
				<speed>0.000000</speed>
				<ele>35.000000</ele>
				<time>2026-08-17T02:16:00Z</time>
			</trkpt>
			<trkpt lat="30.260516" lon="120.116196">
				<speed>0.000000</speed>
				<ele>35.000000</ele>
				<time>2026-08-17T02:16:01Z</time>
			</trkpt>
			<trkpt lat="30.260519" lon="120.116146">
				<speed>0.000000</speed>
				<ele>35.000000</ele>
				<time>2026-08-17T02:16:02Z</time>
			</trkpt>
			<trkpt lat="30.260520" lon="120.116130">
				<speed>0.000000</speed>
				<ele>35.000000</ele>
				<time>2026-08-17T02:16:03Z</time>
			</trkpt>
			<trkpt lat="30.260521" lon="120.116114">
				<speed>0.000000</speed>
				<ele>35.000000</ele>
				<time>2026-08-17T02:16:04Z</time>
			</trkpt>
			<trkpt lat="30.260522" lon="120.116099">
				<speed>0.000000</speed>
				<ele>35.000000</ele>
				<time>2026-08-17T02:16:05Z</time>
			</trkpt>
			<trkpt lat="30.260526" lon="120.116053">
				<speed>0.000000</speed>
				<ele>35.000000</ele>
				<time>2026-08-17T02:16:06Z</time>
			</trkpt>
			<trkpt lat="30.260527" lon="120.116039">
				<speed>0.000000</speed>
				<ele>35.000000</ele>
				<time>2026-08-17T02:16:07Z</time>
			</trkpt>
			<trkpt lat="30.260529" lon="120.116025">
				<speed>0.000000</speed>
				<ele>35.000000</ele>
				<time>2026-08-17T02:16:08Z</time>
			</trkpt>
			<trkpt lat="30.260530" lon="120.116010">
				<speed>0.000000</speed>
				<ele>36.000000</ele>
				<time>2026-08-17T02:16:09Z</time>
			</trkpt>
			<trkpt lat="30.260533" lon="120.115966">
				<speed>0.000000</speed>
				<ele>36.000000</ele>
				<time>2026-08-17T02:16:10Z</time>
			</trkpt>
			<trkpt lat="30.260533" lon="120.115952">
				<speed>0.000000</speed>
				<ele>36.000000</ele>
				<time>2026-08-17T02:16:11Z</time>
			</trkpt>
			<trkpt lat="30.260533" lon="120.115937">
				<speed>0.000000</speed>
				<ele>36.000000</ele>
				<time>2026-08-17T02:16:12Z</time>
			</trkpt>
			<trkpt lat="30.260534" lon="120.115922">
				<speed>0.000000</speed>
				<ele>36.000000</ele>
				<time>2026-08-17T02:16:13Z</time>
			</trkpt>
			<trkpt lat="30.260533" lon="120.115878">
				<speed>0.000000</speed>
				<ele>36.000000</ele>
				<time>2026-08-17T02:16:14Z</time>
			</trkpt>
			<trkpt lat="30.260533" lon="120.115863">
				<speed>0.000000</speed>
				<ele>36.000000</ele>
				<time>2026-08-17T02:16:15Z</time>
			</trkpt>
			<trkpt lat="30.260532" lon="120.115848">
				<speed>0.000000</speed>
				<ele>36.000000</ele>
				<time>2026-08-17T02:16:16Z</time>
			</trkpt>
			<trkpt lat="30.260532" lon="120.115834">
				<speed>0.000000</speed>
				<ele>36.000000</ele>
				<time>2026-08-17T02:16:17Z</time>
			</trkpt>
			<trkpt lat="30.260531" lon="120.115789">
				<speed>0.000000</speed>
				<ele>36.000000</ele>
				<time>2026-08-17T02:16:18Z</time>
			</trkpt>
			<trkpt lat="30.260531" lon="120.115774">
				<speed>0.000000</speed>
				<ele>36.000000</ele>
				<time>2026-08-17T02:16:19Z</time>
			</trkpt>
			<trkpt lat="30.260532" lon="120.115759">
				<speed>0.000000</speed>
				<ele>36.000000</ele>
				<time>2026-08-17T02:16:20Z</time>
			</trkpt>
			<trkpt lat="30.260532" lon="120.115744">
				<speed>0.000000</speed>
				<ele>37.000000</ele>
				<time>2026-08-17T02:16:21Z</time>
			</trkpt>
			<trkpt lat="30.260535" lon="120.115698">
				<speed>0.000000</speed>
				<ele>37.000000</ele>
				<time>2026-08-17T02:16:22Z</time>
			</trkpt>
			<trkpt lat="30.260536" lon="120.115683">
				<speed>0.000000</speed>
				<ele>37.000000</ele>
				<time>2026-08-17T02:16:23Z</time>
			</trkpt>
			<trkpt lat="30.260537" lon="120.115668">
				<speed>0.000000</speed>
				<ele>37.000000</ele>
				<time>2026-08-17T02:16:24Z</time>
			</trkpt>
			<trkpt lat="30.260538" lon="120.115652">
				<speed>0.000000</speed>
				<ele>37.000000</ele>
				<time>2026-08-17T02:16:25Z</time>
			</trkpt>
			<trkpt lat="30.260541" lon="120.115607">
				<speed>0.000000</speed>
				<ele>37.000000</ele>
				<time>2026-08-17T02:16:26Z</time>
			</trkpt>
			<trkpt lat="30.260541" lon="120.115591">
				<speed>0.000000</speed>
				<ele>37.000000</ele>
				<time>2026-08-17T02:16:27Z</time>
			</trkpt>
			<trkpt lat="30.260541" lon="120.115576">
				<speed>0.000000</speed>
				<ele>37.000000</ele>
				<time>2026-08-17T02:16:28Z</time>
			</trkpt>
			<trkpt lat="30.260541" lon="120.115560">
				<speed>0.000000</speed>
				<ele>37.000000</ele>
				<time>2026-08-17T02:16:29Z</time>
			</trkpt>
			<trkpt lat="30.260538" lon="120.115515">
				<speed>0.000000</speed>
				<ele>37.000000</ele>
				<time>2026-08-17T02:16:30Z</time>
			</trkpt>
			<trkpt lat="30.260537" lon="120.115500">
				<speed>0.000000</speed>
				<ele>37.000000</ele>
				<time>2026-08-17T02:16:31Z</time>
			</trkpt>
			<trkpt lat="30.260536" lon="120.115485">
				<speed>0.000000</speed>
				<ele>37.000000</ele>
				<time>2026-08-17T02:16:32Z</time>
			</trkpt>
			<trkpt lat="30.260535" lon="120.115470">
				<speed>0.000000</speed>
				<ele>38.000000</ele>
				<time>2026-08-17T02:16:33Z</time>
			</trkpt>
			<trkpt lat="30.260534" lon="120.115427">
				<speed>0.000000</speed>
				<ele>38.000000</ele>
				<time>2026-08-17T02:16:34Z</time>
			</trkpt>
			<trkpt lat="30.260534" lon="120.115413">
				<speed>0.000000</speed>
				<ele>38.000000</ele>
				<time>2026-08-17T02:16:35Z</time>
			</trkpt>
			<trkpt lat="30.260535" lon="120.115399">
				<speed>0.000000</speed>
				<ele>38.000000</ele>
				<time>2026-08-17T02:16:36Z</time>
			</trkpt>
			<trkpt lat="30.260535" lon="120.115386">
				<speed>0.000000</speed>
				<ele>38.000000</ele>
				<time>2026-08-17T02:16:37Z</time>
			</trkpt>
			<trkpt lat="30.260533" lon="120.115346">
				<speed>0.000000</speed>
				<ele>38.000000</ele>
				<time>2026-08-17T02:16:38Z</time>
			</trkpt>
			<trkpt lat="30.260534" lon="120.115332">
				<speed>0.000000</speed>
				<ele>38.000000</ele>
				<time>2026-08-17T02:16:39Z</time>
			</trkpt>
			<trkpt lat="30.260534" lon="120.115318">
				<speed>0.000000</speed>
				<ele>38.000000</ele>
				<time>2026-08-17T02:16:40Z</time>
			</trkpt>
			<trkpt lat="30.260534" lon="120.115304">
				<speed>0.000000</speed>
				<ele>38.000000</ele>
				<time>2026-08-17T02:16:41Z</time>
			</trkpt>
			<trkpt lat="30.260535" lon="120.115263">
				<speed>0.000000</speed>
				<ele>38.000000</ele>
				<time>2026-08-17T02:16:42Z</time>
			</trkpt>
			<trkpt lat="30.260535" lon="120.115249">
				<speed>0.000000</speed>
				<ele>38.000000</ele>
				<time>2026-08-17T02:16:43Z</time>
			</trkpt>
			<trkpt lat="30.260534" lon="120.115235">
				<speed>0.000000</speed>
				<ele>38.000000</ele>
				<time>2026-08-17T02:16:44Z</time>
			</trkpt>
			<trkpt lat="30.260534" lon="120.115222">
				<speed>0.000000</speed>
				<ele>38.000000</ele>
				<time>2026-08-17T02:16:45Z</time>
			</trkpt>
			<trkpt lat="30.260531" lon="120.115180">
				<speed>0.000000</speed>
				<ele>38.000000</ele>
				<time>2026-08-17T02:16:46Z</time>
			</trkpt>
			<trkpt lat="30.260531" lon="120.115164">
				<speed>0.000000</speed>
				<ele>38.000000</ele>
				<time>2026-08-17T02:16:47Z</time>
			</trkpt>
			<trkpt lat="30.260531" lon="120.115149">
				<speed>0.000000</speed>
				<ele>38.000000</ele>
				<time>2026-08-17T02:16:48Z</time>
			</trkpt>
			<trkpt lat="30.260531" lon="120.115133">
				<speed>0.000000</speed>
				<ele>39.000000</ele>
				<time>2026-08-17T02:16:49Z</time>
			</trkpt>
			<trkpt lat="30.260535" lon="120.115084">
				<speed>0.000000</speed>
				<ele>39.000000</ele>
				<time>2026-08-17T02:16:50Z</time>
			</trkpt>
			<trkpt lat="30.260536" lon="120.115067">
				<speed>0.000000</speed>
				<ele>39.000000</ele>
				<time>2026-08-17T02:16:51Z</time>
			</trkpt>
			<trkpt lat="30.260536" lon="120.115051">
				<speed>0.000000</speed>
				<ele>39.000000</ele>
				<time>2026-08-17T02:16:52Z</time>
			</trkpt>
			<trkpt lat="30.260537" lon="120.115034">
				<speed>0.000000</speed>
				<ele>39.000000</ele>
				<time>2026-08-17T02:16:53Z</time>
			</trkpt>
			<trkpt lat="30.260536" lon="120.114983">
				<speed>0.000000</speed>
				<ele>39.000000</ele>
				<time>2026-08-17T02:16:54Z</time>
			</trkpt>
			<trkpt lat="30.260535" lon="120.114966">
				<speed>0.000000</speed>
				<ele>39.000000</ele>
				<time>2026-08-17T02:16:55Z</time>
			</trkpt>
			<trkpt lat="30.260534" lon="120.114948">
				<speed>0.000000</speed>
				<ele>39.000000</ele>
				<time>2026-08-17T02:16:56Z</time>
			</trkpt>
			<trkpt lat="30.260533" lon="120.114931">
				<speed>0.000000</speed>
				<ele>39.000000</ele>
				<time>2026-08-17T02:16:57Z</time>
			</trkpt>
			<trkpt lat="30.260531" lon="120.114881">
				<speed>0.000000</speed>
				<ele>39.000000</ele>
				<time>2026-08-17T02:16:58Z</time>
			</trkpt>
			<trkpt lat="30.260529" lon="120.114866">
				<speed>0.000000</speed>
				<ele>39.000000</ele>
				<time>2026-08-17T02:16:59Z</time>
			</trkpt>
			<trkpt lat="30.260528" lon="120.114850">
				<speed>0.000000</speed>
				<ele>39.000000</ele>
				<time>2026-08-17T02:17:00Z</time>
			</trkpt>
			<trkpt lat="30.260527" lon="120.114834">
				<speed>0.000000</speed>
				<ele>40.000000</ele>
				<time>2026-08-17T02:17:01Z</time>
			</trkpt>
			<trkpt lat="30.260519" lon="120.114789">
				<speed>0.000000</speed>
				<ele>40.000000</ele>
				<time>2026-08-17T02:17:02Z</time>
			</trkpt>
			<trkpt lat="30.260517" lon="120.114775">
				<speed>0.000000</speed>
				<ele>40.000000</ele>
				<time>2026-08-17T02:17:03Z</time>
			</trkpt>
			<trkpt lat="30.260514" lon="120.114760">
				<speed>0.000000</speed>
				<ele>40.000000</ele>
				<time>2026-08-17T02:17:04Z</time>
			</trkpt>
			<trkpt lat="30.260511" lon="120.114746">
				<speed>0.000000</speed>
				<ele>40.000000</ele>
				<time>2026-08-17T02:17:05Z</time>
			</trkpt>
			<trkpt lat="30.260504" lon="120.114704">
				<speed>0.000000</speed>
				<ele>40.000000</ele>
				<time>2026-08-17T02:17:06Z</time>
			</trkpt>
			<trkpt lat="30.260503" lon="120.114690">
				<speed>0.000000</speed>
				<ele>40.000000</ele>
				<time>2026-08-17T02:17:07Z</time>
			</trkpt>
			<trkpt lat="30.260501" lon="120.114677">
				<speed>0.000000</speed>
				<ele>40.000000</ele>
				<time>2026-08-17T02:17:08Z</time>
			</trkpt>
			<trkpt lat="30.260499" lon="120.114664">
				<speed>0.000000</speed>
				<ele>40.000000</ele>
				<time>2026-08-17T02:17:09Z</time>
			</trkpt>
			<trkpt lat="30.260495" lon="120.114626">
				<speed>0.000000</speed>
				<ele>40.000000</ele>
				<time>2026-08-17T02:17:10Z</time>
			</trkpt>
			<trkpt lat="30.260491" lon="120.114615">
				<speed>0.000000</speed>
				<ele>40.000000</ele>
				<time>2026-08-17T02:17:11Z</time>
			</trkpt>
			<trkpt lat="30.260487" lon="120.114603">
				<speed>0.000000</speed>
				<ele>40.000000</ele>
				<time>2026-08-17T02:17:12Z</time>
			</trkpt>
			<trkpt lat="30.260483" lon="120.114592">
				<speed>0.000000</speed>
				<ele>40.000000</ele>
				<time>2026-08-17T02:17:13Z</time>
			</trkpt>
			<trkpt lat="30.260464" lon="120.114562">
				<speed>0.000000</speed>
				<ele>40.000000</ele>
				<time>2026-08-17T02:17:14Z</time>
			</trkpt>
			<trkpt lat="30.260455" lon="120.114554">
				<speed>0.000000</speed>
				<ele>40.000000</ele>
				<time>2026-08-17T02:17:15Z</time>
			</trkpt>
			<trkpt lat="30.260447" lon="120.114545">
				<speed>0.000000</speed>
				<ele>40.000000</ele>
				<time>2026-08-17T02:17:16Z</time>
			</trkpt>
			<trkpt lat="30.260439" lon="120.114537">
				<speed>0.000000</speed>
				<ele>41.000000</ele>
				<time>2026-08-17T02:17:17Z</time>
			</trkpt>
			<trkpt lat="30.260414" lon="120.114513">
				<speed>0.000000</speed>
				<ele>41.000000</ele>
				<time>2026-08-17T02:17:18Z</time>
			</trkpt>
			<trkpt lat="30.260406" lon="120.114505">
				<speed>0.000000</speed>
				<ele>41.000000</ele>
				<time>2026-08-17T02:17:19Z</time>
			</trkpt>
			<trkpt lat="30.260398" lon="120.114496">
				<speed>0.000000</speed>
				<ele>41.000000</ele>
				<time>2026-08-17T02:17:20Z</time>
			</trkpt>
			<trkpt lat="30.260389" lon="120.114488">
				<speed>0.000000</speed>
				<ele>41.000000</ele>
				<time>2026-08-17T02:17:21Z</time>
			</trkpt>
			<trkpt lat="30.260366" lon="120.114459">
				<speed>0.000000</speed>
				<ele>41.000000</ele>
				<time>2026-08-17T02:17:22Z</time>
			</trkpt>
			<trkpt lat="30.260358" lon="120.114450">
				<speed>0.000000</speed>
				<ele>41.000000</ele>
				<time>2026-08-17T02:17:23Z</time>
			</trkpt>
			<trkpt lat="30.260350" lon="120.114440">
				<speed>0.000000</speed>
				<ele>41.000000</ele>
				<time>2026-08-17T02:17:24Z</time>
			</trkpt>
			<trkpt lat="30.260342" lon="120.114430">
				<speed>0.000000</speed>
				<ele>41.000000</ele>
				<time>2026-08-17T02:17:25Z</time>
			</trkpt>
			<trkpt lat="30.260317" lon="120.114401">
				<speed>0.000000</speed>
				<ele>41.000000</ele>
				<time>2026-08-17T02:17:26Z</time>
			</trkpt>
			<trkpt lat="30.260308" lon="120.114392">
				<speed>0.000000</speed>
				<ele>41.000000</ele>
				<time>2026-08-17T02:17:27Z</time>
			</trkpt>
			<trkpt lat="30.260299" lon="120.114383">
				<speed>0.000000</speed>
				<ele>41.000000</ele>
				<time>2026-08-17T02:17:28Z</time>
			</trkpt>
			<trkpt lat="30.260289" lon="120.114374">
				<speed>0.000000</speed>
				<ele>41.000000</ele>
				<time>2026-08-17T02:17:29Z</time>
			</trkpt>
			<trkpt lat="30.260263" lon="120.114348">
				<speed>0.000000</speed>
				<ele>41.000000</ele>
				<time>2026-08-17T02:17:30Z</time>
			</trkpt>
			<trkpt lat="30.260254" lon="120.114339">
				<speed>0.000000</speed>
				<ele>41.000000</ele>
				<time>2026-08-17T02:17:31Z</time>
			</trkpt>
			<trkpt lat="30.260245" lon="120.114330">
				<speed>0.000000</speed>
				<ele>41.000000</ele>
				<time>2026-08-17T02:17:32Z</time>
			</trkpt>
			<trkpt lat="30.260236" lon="120.114322">
				<speed>0.000000</speed>
				<ele>42.000000</ele>
				<time>2026-08-17T02:17:33Z</time>
			</trkpt>
			<trkpt lat="30.260207" lon="120.114299">
				<speed>0.000000</speed>
				<ele>42.000000</ele>
				<time>2026-08-17T02:17:34Z</time>
			</trkpt>
			<trkpt lat="30.260197" lon="120.114290">
				<speed>0.000000</speed>
				<ele>42.000000</ele>
				<time>2026-08-17T02:17:35Z</time>
			</trkpt>
			<trkpt lat="30.260187" lon="120.114282">
				<speed>0.000000</speed>
				<ele>42.000000</ele>
				<time>2026-08-17T02:17:36Z</time>
			</trkpt>
			<trkpt lat="30.260177" lon="120.114274">
				<speed>0.000000</speed>
				<ele>42.000000</ele>
				<time>2026-08-17T02:17:37Z</time>
			</trkpt>
			<trkpt lat="30.260148" lon="120.114244">
				<speed>0.000000</speed>
				<ele>42.000000</ele>
				<time>2026-08-17T02:17:38Z</time>
			</trkpt>
			<trkpt lat="30.260138" lon="120.114233">
				<speed>0.000000</speed>
				<ele>42.000000</ele>
				<time>2026-08-17T02:17:39Z</time>
			</trkpt>
			<trkpt lat="30.260128" lon="120.114223">
				<speed>0.000000</speed>
				<ele>42.000000</ele>
				<time>2026-08-17T02:17:40Z</time>
			</trkpt>
			<trkpt lat="30.260118" lon="120.114213">
				<speed>0.000000</speed>
				<ele>42.000000</ele>
				<time>2026-08-17T02:17:41Z</time>
			</trkpt>
			<trkpt lat="30.260088" lon="120.114181">
				<speed>0.000000</speed>
				<ele>42.000000</ele>
				<time>2026-08-17T02:17:42Z</time>
			</trkpt>
			<trkpt lat="30.260078" lon="120.114170">
				<speed>0.000000</speed>
				<ele>42.000000</ele>
				<time>2026-08-17T02:17:43Z</time>
			</trkpt>
			<trkpt lat="30.260068" lon="120.114159">
				<speed>0.000000</speed>
				<ele>42.000000</ele>
				<time>2026-08-17T02:17:44Z</time>
			</trkpt>
			<trkpt lat="30.260058" lon="120.114148">
				<speed>0.000000</speed>
				<ele>42.000000</ele>
				<time>2026-08-17T02:17:45Z</time>
			</trkpt>
			<trkpt lat="30.260028" lon="120.114114">
				<speed>0.000000</speed>
				<ele>42.000000</ele>
				<time>2026-08-17T02:17:46Z</time>
			</trkpt>
			<trkpt lat="30.260019" lon="120.114103">
				<speed>0.000000</speed>
				<ele>42.000000</ele>
				<time>2026-08-17T02:17:47Z</time>
			</trkpt>
			<trkpt lat="30.260010" lon="120.114091">
				<speed>0.000000</speed>
				<ele>42.000000</ele>
				<time>2026-08-17T02:17:48Z</time>
			</trkpt>
			<trkpt lat="30.260000" lon="120.114079">
				<speed>0.000000</speed>
				<ele>43.000000</ele>
				<time>2026-08-17T02:17:49Z</time>
			</trkpt>
			<trkpt lat="30.259977" lon="120.114042">
				<speed>0.000000</speed>
				<ele>43.000000</ele>
				<time>2026-08-17T02:17:50Z</time>
			</trkpt>
			<trkpt lat="30.259970" lon="120.114029">
				<speed>0.000000</speed>
				<ele>43.000000</ele>
				<time>2026-08-17T02:17:51Z</time>
			</trkpt>
			<trkpt lat="30.259963" lon="120.114016">
				<speed>0.000000</speed>
				<ele>43.000000</ele>
				<time>2026-08-17T02:17:52Z</time>
			</trkpt>
			<trkpt lat="30.259956" lon="120.114003">
				<speed>0.000000</speed>
				<ele>43.000000</ele>
				<time>2026-08-17T02:17:53Z</time>
			</trkpt>
			<trkpt lat="30.259935" lon="120.113963">
				<speed>0.000000</speed>
				<ele>43.000000</ele>
				<time>2026-08-17T02:17:54Z</time>
			</trkpt>
			<trkpt lat="30.259927" lon="120.113950">
				<speed>0.000000</speed>
				<ele>43.000000</ele>
				<time>2026-08-17T02:17:55Z</time>
			</trkpt>
			<trkpt lat="30.259920" lon="120.113936">
				<speed>0.000000</speed>
				<ele>43.000000</ele>
				<time>2026-08-17T02:17:56Z</time>
			</trkpt>
			<trkpt lat="30.259912" lon="120.113923">
				<speed>0.000000</speed>
				<ele>43.000000</ele>
				<time>2026-08-17T02:17:57Z</time>
			</trkpt>
			<trkpt lat="30.259890" lon="120.113882">
				<speed>0.000000</speed>
				<ele>43.000000</ele>
				<time>2026-08-17T02:17:58Z</time>
			</trkpt>
			<trkpt lat="30.259882" lon="120.113868">
				<speed>0.000000</speed>
				<ele>43.000000</ele>
				<time>2026-08-17T02:17:59Z</time>
			</trkpt>
			<trkpt lat="30.259874" lon="120.113855">
				<speed>0.000000</speed>
				<ele>43.000000</ele>
				<time>2026-08-17T02:18:00Z</time>
			</trkpt>
			<trkpt lat="30.259865" lon="120.113842">
				<speed>0.000000</speed>
				<ele>43.000000</ele>
				<time>2026-08-17T02:18:01Z</time>
			</trkpt>
			<trkpt lat="30.259836" lon="120.113804">
				<speed>0.000000</speed>
				<ele>43.000000</ele>
				<time>2026-08-17T02:18:02Z</time>
			</trkpt>
			<trkpt lat="30.259826" lon="120.113792">
				<speed>0.000000</speed>
				<ele>43.000000</ele>
				<time>2026-08-17T02:18:03Z</time>
			</trkpt>
			<trkpt lat="30.259815" lon="120.113779">
				<speed>0.000000</speed>
				<ele>43.000000</ele>
				<time>2026-08-17T02:18:04Z</time>
			</trkpt>
			<trkpt lat="30.259804" lon="120.113767">
				<speed>0.000000</speed>
				<ele>44.000000</ele>
				<time>2026-08-17T02:18:05Z</time>
			</trkpt>
			<trkpt lat="30.259776" lon="120.113729">
				<speed>0.000000</speed>
				<ele>44.000000</ele>
				<time>2026-08-17T02:18:06Z</time>
			</trkpt>
			<trkpt lat="30.259765" lon="120.113718">
				<speed>0.000000</speed>
				<ele>44.000000</ele>
				<time>2026-08-17T02:18:07Z</time>
			</trkpt>
			<trkpt lat="30.259755" lon="120.113707">
				<speed>0.000000</speed>
				<ele>44.000000</ele>
				<time>2026-08-17T02:18:08Z</time>
			</trkpt>
			<trkpt lat="30.259744" lon="120.113695">
				<speed>0.000000</speed>
				<ele>44.000000</ele>
				<time>2026-08-17T02:18:09Z</time>
			</trkpt>
			<trkpt lat="30.259711" lon="120.113666">
				<speed>0.000000</speed>
				<ele>44.000000</ele>
				<time>2026-08-17T02:18:10Z</time>
			</trkpt>
			<trkpt lat="30.259699" lon="120.113657">
				<speed>0.000000</speed>
				<ele>44.000000</ele>
				<time>2026-08-17T02:18:11Z</time>
			</trkpt>
			<trkpt lat="30.259688" lon="120.113648">
				<speed>0.000000</speed>
				<ele>44.000000</ele>
				<time>2026-08-17T02:18:12Z</time>
			</trkpt>
			<trkpt lat="30.259676" lon="120.113638">
				<speed>0.000000</speed>
				<ele>44.000000</ele>
				<time>2026-08-17T02:18:13Z</time>
			</trkpt>
			<trkpt lat="30.259640" lon="120.113608">
				<speed>0.000000</speed>
				<ele>44.000000</ele>
				<time>2026-08-17T02:18:14Z</time>
			</trkpt>
			<trkpt lat="30.259629" lon="120.113597">
				<speed>0.000000</speed>
				<ele>44.000000</ele>
				<time>2026-08-17T02:18:15Z</time>
			</trkpt>
			<trkpt lat="30.259618" lon="120.113585">
				<speed>0.000000</speed>
				<ele>44.000000</ele>
				<time>2026-08-17T02:18:16Z</time>
			</trkpt>
			<trkpt lat="30.259606" lon="120.113573">
				<speed>0.000000</speed>
				<ele>44.000000</ele>
				<time>2026-08-17T02:18:17Z</time>
			</trkpt>
			<trkpt lat="30.259590" lon="120.113542">
				<speed>0.000000</speed>
				<ele>44.000000</ele>
				<time>2026-08-17T02:18:18Z</time>
			</trkpt>
			<trkpt lat="30.259577" lon="120.113526">
				<speed>0.000000</speed>
				<ele>46.000000</ele>
				<time>2026-08-17T02:31:50Z</time>
			</trkpt>
			<trkpt lat="30.259565" lon="120.113510">
				<speed>0.000000</speed>
				<ele>46.000000</ele>
				<time>2026-08-17T02:31:51Z</time>
			</trkpt>
			<trkpt lat="30.259544" lon="120.113488">
				<speed>0.000000</speed>
				<ele>46.000000</ele>
				<time>2026-08-17T02:31:52Z</time>
			</trkpt>
			<trkpt lat="30.259532" lon="120.113470">
				<speed>0.000000</speed>
				<ele>46.000000</ele>
				<time>2026-08-17T02:31:53Z</time>
			</trkpt>
			<trkpt lat="30.259516" lon="120.113445">
				<speed>0.000000</speed>
				<ele>46.000000</ele>
				<time>2026-08-17T02:31:54Z</time>
			</trkpt>
			<trkpt lat="30.259495" lon="120.113427">
				<speed>0.000000</speed>
				<ele>46.000000</ele>
				<time>2026-08-17T02:31:55Z</time>
			</trkpt>
			<trkpt lat="30.259482" lon="120.113401">
				<speed>0.000000</speed>
				<ele>46.000000</ele>
				<time>2026-08-17T02:31:56Z</time>
			</trkpt>
			<trkpt lat="30.259469" lon="120.113383">
				<speed>0.000000</speed>
				<ele>46.000000</ele>
				<time>2026-08-17T02:31:57Z</time>
			</trkpt>
			<trkpt lat="30.259451" lon="120.113361">
				<speed>0.000000</speed>
				<ele>46.000000</ele>
				<time>2026-08-17T02:31:58Z</time>
			</trkpt>
			<trkpt lat="30.259436" lon="120.113341">
				<speed>0.000000</speed>
				<ele>46.000000</ele>
				<time>2026-08-17T02:31:59Z</time>
			</trkpt>
			<trkpt lat="30.259422" lon="120.113322">
				<speed>0.000000</speed>
				<ele>46.000000</ele>
				<time>2026-08-17T02:32:00Z</time>
			</trkpt>
			<trkpt lat="30.259411" lon="120.113311">
				<speed>0.000000</speed>
				<ele>46.000000</ele>
				<time>2026-08-17T02:32:01Z</time>
			</trkpt>
			<trkpt lat="30.259401" lon="120.113300">
				<speed>0.000000</speed>
				<ele>45.000000</ele>
				<time>2026-08-17T02:32:02Z</time>
			</trkpt>
			<trkpt lat="30.259390" lon="120.113289">
				<speed>0.000000</speed>
				<ele>45.000000</ele>
				<time>2026-08-17T02:32:03Z</time>
			</trkpt>
			<trkpt lat="30.259349" lon="120.113250">
				<speed>0.000000</speed>
				<ele>45.000000</ele>
				<time>2026-08-17T02:32:04Z</time>
			</trkpt>
			<trkpt lat="30.259334" lon="120.113238">
				<speed>0.000000</speed>
				<ele>45.000000</ele>
				<time>2026-08-17T02:32:05Z</time>
			</trkpt>
			<trkpt lat="30.259319" lon="120.113225">
				<speed>0.000000</speed>
				<ele>45.000000</ele>
				<time>2026-08-17T02:32:06Z</time>
			</trkpt>
			<trkpt lat="30.259304" lon="120.113212">
				<speed>0.000000</speed>
				<ele>45.000000</ele>
				<time>2026-08-17T02:32:07Z</time>
			</trkpt>
			<trkpt lat="30.259263" lon="120.113175">
				<speed>0.000000</speed>
				<ele>45.000000</ele>
				<time>2026-08-17T02:32:08Z</time>
			</trkpt>
			<trkpt lat="30.259252" lon="120.113163">
				<speed>0.000000</speed>
				<ele>45.000000</ele>
				<time>2026-08-17T02:32:09Z</time>
			</trkpt>
			<trkpt lat="30.259241" lon="120.113152">
				<speed>0.000000</speed>
				<ele>45.000000</ele>
				<time>2026-08-17T02:32:10Z</time>
			</trkpt>
			<trkpt lat="30.259231" lon="120.113140">
				<speed>0.000000</speed>
				<ele>45.000000</ele>
				<time>2026-08-17T02:32:11Z</time>
			</trkpt>
			<trkpt lat="30.259202" lon="120.113111">
				<speed>0.000000</speed>
				<ele>45.000000</ele>
				<time>2026-08-17T02:32:12Z</time>
			</trkpt>
			<trkpt lat="30.259191" lon="120.113102">
				<speed>0.000000</speed>
				<ele>45.000000</ele>
				<time>2026-08-17T02:32:13Z</time>
			</trkpt>
			<trkpt lat="30.259181" lon="120.113093">
				<speed>0.000000</speed>
				<ele>45.000000</ele>
				<time>2026-08-17T02:32:14Z</time>
			</trkpt>
			<trkpt lat="30.259171" lon="120.113085">
				<speed>0.000000</speed>
				<ele>45.000000</ele>
				<time>2026-08-17T02:32:15Z</time>
			</trkpt>
			<trkpt lat="30.259137" lon="120.113054">
				<speed>0.000000</speed>
				<ele>45.000000</ele>
				<time>2026-08-17T02:32:16Z</time>
			</trkpt>
			<trkpt lat="30.259125" lon="120.113042">
				<speed>0.000000</speed>
				<ele>45.000000</ele>
				<time>2026-08-17T02:32:17Z</time>
			</trkpt>
			<trkpt lat="30.259113" lon="120.113031">
				<speed>0.000000</speed>
				<ele>45.000000</ele>
				<time>2026-08-17T02:32:18Z</time>
			</trkpt>
			<trkpt lat="30.259102" lon="120.113019">
				<speed>0.000000</speed>
				<ele>45.000000</ele>
				<time>2026-08-17T02:32:19Z</time>
			</trkpt>
			<trkpt lat="30.259070" lon="120.112980">
				<speed>0.000000</speed>
				<ele>45.000000</ele>
				<time>2026-08-17T02:32:20Z</time>
			</trkpt>
			<trkpt lat="30.259060" lon="120.112965">
				<speed>0.000000</speed>
				<ele>46.000000</ele>
				<time>2026-08-17T02:32:21Z</time>
			</trkpt>
			<trkpt lat="30.259051" lon="120.112951">
				<speed>0.000000</speed>
				<ele>46.000000</ele>
				<time>2026-08-17T02:32:22Z</time>
			</trkpt>
			<trkpt lat="30.259042" lon="120.112937">
				<speed>0.000000</speed>
				<ele>46.000000</ele>
				<time>2026-08-17T02:32:23Z</time>
			</trkpt>
			<trkpt lat="30.259018" lon="120.112893">
				<speed>0.000000</speed>
				<ele>46.000000</ele>
				<time>2026-08-17T02:32:24Z</time>
			</trkpt>
			<trkpt lat="30.259012" lon="120.112877">
				<speed>0.000000</speed>
				<ele>46.000000</ele>
				<time>2026-08-17T02:32:25Z</time>
			</trkpt>
			<trkpt lat="30.259006" lon="120.112862">
				<speed>0.000000</speed>
				<ele>46.000000</ele>
				<time>2026-08-17T02:32:26Z</time>
			</trkpt>
			<trkpt lat="30.259000" lon="120.112847">
				<speed>0.000000</speed>
				<ele>46.000000</ele>
				<time>2026-08-17T02:32:27Z</time>
			</trkpt>
			<trkpt lat="30.258986" lon="120.112799">
				<speed>0.000000</speed>
				<ele>46.000000</ele>
				<time>2026-08-17T02:32:28Z</time>
			</trkpt>
			<trkpt lat="30.258983" lon="120.112783">
				<speed>0.000000</speed>
				<ele>46.000000</ele>
				<time>2026-08-17T02:32:29Z</time>
			</trkpt>
			<trkpt lat="30.258980" lon="120.112767">
				<speed>0.000000</speed>
				<ele>46.000000</ele>
				<time>2026-08-17T02:32:30Z</time>
			</trkpt>
			<trkpt lat="30.258977" lon="120.112750">
				<speed>0.000000</speed>
				<ele>46.000000</ele>
				<time>2026-08-17T02:32:31Z</time>
			</trkpt>
			<trkpt lat="30.258968" lon="120.112700">
				<speed>0.000000</speed>
				<ele>46.000000</ele>
				<time>2026-08-17T02:32:32Z</time>
			</trkpt>
			<trkpt lat="30.258963" lon="120.112683">
				<speed>0.000000</speed>
				<ele>46.000000</ele>
				<time>2026-08-17T02:32:33Z</time>
			</trkpt>
			<trkpt lat="30.258959" lon="120.112666">
				<speed>0.000000</speed>
				<ele>46.000000</ele>
				<time>2026-08-17T02:32:34Z</time>
			</trkpt>
			<trkpt lat="30.258955" lon="120.112648">
				<speed>0.000000</speed>
				<ele>46.000000</ele>
				<time>2026-08-17T02:32:35Z</time>
			</trkpt>
			<trkpt lat="30.258942" lon="120.112594">
				<speed>0.000000</speed>
				<ele>46.000000</ele>
				<time>2026-08-17T02:32:36Z</time>
			</trkpt>
			<trkpt lat="30.258939" lon="120.112573">
				<speed>0.000000</speed>
				<ele>47.000000</ele>
				<time>2026-08-17T02:32:37Z</time>
			</trkpt>
			<trkpt lat="30.258936" lon="120.112553">
				<speed>0.000000</speed>
				<ele>47.000000</ele>
				<time>2026-08-17T02:32:38Z</time>
			</trkpt>
			<trkpt lat="30.258933" lon="120.112533">
				<speed>0.000000</speed>
				<ele>47.000000</ele>
				<time>2026-08-17T02:32:39Z</time>
			</trkpt>
			<trkpt lat="30.258929" lon="120.112470">
				<speed>0.000000</speed>
				<ele>47.000000</ele>
				<time>2026-08-17T02:32:40Z</time>
			</trkpt>
			<trkpt lat="30.258928" lon="120.112449">
				<speed>0.000000</speed>
				<ele>47.000000</ele>
				<time>2026-08-17T02:32:41Z</time>
			</trkpt>
			<trkpt lat="30.258927" lon="120.112429">
				<speed>0.000000</speed>
				<ele>47.000000</ele>
				<time>2026-08-17T02:32:42Z</time>
			</trkpt>
			<trkpt lat="30.258926" lon="120.112409">
				<speed>0.000000</speed>
				<ele>47.000000</ele>
				<time>2026-08-17T02:32:43Z</time>
			</trkpt>
			<trkpt lat="30.258920" lon="120.112348">
				<speed>0.000000</speed>
				<ele>47.000000</ele>
				<time>2026-08-17T02:32:44Z</time>
			</trkpt>
			<trkpt lat="30.258916" lon="120.112329">
				<speed>0.000000</speed>
				<ele>47.000000</ele>
				<time>2026-08-17T02:32:45Z</time>
			</trkpt>
			<trkpt lat="30.258913" lon="120.112310">
				<speed>0.000000</speed>
				<ele>47.000000</ele>
				<time>2026-08-17T02:32:46Z</time>
			</trkpt>
			<trkpt lat="30.258910" lon="120.112291">
				<speed>0.000000</speed>
				<ele>47.000000</ele>
				<time>2026-08-17T02:32:47Z</time>
			</trkpt>
			<trkpt lat="30.258900" lon="120.112238">
				<speed>0.000000</speed>
				<ele>47.000000</ele>
				<time>2026-08-17T02:32:48Z</time>
			</trkpt>
			<trkpt lat="30.258897" lon="120.112222">
				<speed>0.000000</speed>
				<ele>47.000000</ele>
				<time>2026-08-17T02:32:49Z</time>
			</trkpt>
			<trkpt lat="30.258894" lon="120.112205">
				<speed>0.000000</speed>
				<ele>47.000000</ele>
				<time>2026-08-17T02:32:50Z</time>
			</trkpt>
			<trkpt lat="30.258890" lon="120.112189">
				<speed>0.000000</speed>
				<ele>47.000000</ele>
				<time>2026-08-17T02:32:51Z</time>
			</trkpt>
			<trkpt lat="30.258883" lon="120.112140">
				<speed>0.000000</speed>
				<ele>47.000000</ele>
				<time>2026-08-17T02:32:52Z</time>
			</trkpt>
			<trkpt lat="30.258880" lon="120.112123">
				<speed>0.000000</speed>
				<ele>48.000000</ele>
				<time>2026-08-17T02:32:53Z</time>
			</trkpt>
			<trkpt lat="30.258878" lon="120.112107">
				<speed>0.000000</speed>
				<ele>48.000000</ele>
				<time>2026-08-17T02:32:54Z</time>
			</trkpt>
			<trkpt lat="30.258876" lon="120.112090">
				<speed>0.000000</speed>
				<ele>48.000000</ele>
				<time>2026-08-17T02:32:55Z</time>
			</trkpt>
			<trkpt lat="30.258870" lon="120.112034">
				<speed>0.000000</speed>
				<ele>48.000000</ele>
				<time>2026-08-17T02:32:56Z</time>
			</trkpt>
			<trkpt lat="30.258867" lon="120.112014">
				<speed>0.000000</speed>
				<ele>48.000000</ele>
				<time>2026-08-17T02:32:57Z</time>
			</trkpt>
			<trkpt lat="30.258865" lon="120.111994">
				<speed>0.000000</speed>
				<ele>48.000000</ele>
				<time>2026-08-17T02:32:58Z</time>
			</trkpt>
			<trkpt lat="30.258863" lon="120.111973">
				<speed>0.000000</speed>
				<ele>48.000000</ele>
				<time>2026-08-17T02:32:59Z</time>
			</trkpt>
			<trkpt lat="30.258854" lon="120.111911">
				<speed>0.000000</speed>
				<ele>48.000000</ele>
				<time>2026-08-17T02:33:00Z</time>
			</trkpt>
			<trkpt lat="30.258850" lon="120.111891">
				<speed>0.000000</speed>
				<ele>48.000000</ele>
				<time>2026-08-17T02:33:01Z</time>
			</trkpt>
			<trkpt lat="30.258846" lon="120.111872">
				<speed>0.000000</speed>
				<ele>48.000000</ele>
				<time>2026-08-17T02:33:02Z</time>
			</trkpt>
			<trkpt lat="30.258843" lon="120.111852">
				<speed>0.000000</speed>
				<ele>48.000000</ele>
				<time>2026-08-17T02:33:03Z</time>
			</trkpt>
			<trkpt lat="30.258830" lon="120.111800">
				<speed>0.000000</speed>
				<ele>48.000000</ele>
				<time>2026-08-17T02:33:04Z</time>
			</trkpt>
			<trkpt lat="30.258825" lon="120.111784">
				<speed>0.000000</speed>
				<ele>49.000000</ele>
				<time>2026-08-17T02:33:05Z</time>
			</trkpt>
			<trkpt lat="30.258821" lon="120.111768">
				<speed>0.000000</speed>
				<ele>49.000000</ele>
				<time>2026-08-17T02:33:06Z</time>
			</trkpt>
			<trkpt lat="30.258816" lon="120.111753">
				<speed>0.000000</speed>
				<ele>49.000000</ele>
				<time>2026-08-17T02:33:07Z</time>
			</trkpt>
			<trkpt lat="30.258803" lon="120.111705">
				<speed>0.000000</speed>
				<ele>49.000000</ele>
				<time>2026-08-17T02:33:08Z</time>
			</trkpt>
			<trkpt lat="30.258798" lon="120.111688">
				<speed>0.000000</speed>
				<ele>49.000000</ele>
				<time>2026-08-17T02:33:09Z</time>
			</trkpt>
			<trkpt lat="30.258793" lon="120.111671">
				<speed>0.000000</speed>
				<ele>49.000000</ele>
				<time>2026-08-17T02:33:10Z</time>
			</trkpt>
			<trkpt lat="30.258789" lon="120.111655">
				<speed>0.000000</speed>
				<ele>49.000000</ele>
				<time>2026-08-17T02:33:11Z</time>
			</trkpt>
			<trkpt lat="30.258774" lon="120.111605">
				<speed>0.000000</speed>
				<ele>49.000000</ele>
				<time>2026-08-17T02:33:12Z</time>
			</trkpt>
			<trkpt lat="30.258768" lon="120.111589">
				<speed>0.000000</speed>
				<ele>50.000000</ele>
				<time>2026-08-17T02:33:13Z</time>
			</trkpt>
			<trkpt lat="30.258762" lon="120.111574">
				<speed>0.000000</speed>
				<ele>50.000000</ele>
				<time>2026-08-17T02:33:14Z</time>
			</trkpt>
			<trkpt lat="30.258756" lon="120.111559">
				<speed>0.000000</speed>
				<ele>50.000000</ele>
				<time>2026-08-17T02:33:15Z</time>
			</trkpt>
			<trkpt lat="30.258734" lon="120.111516">
				<speed>0.000000</speed>
				<ele>50.000000</ele>
				<time>2026-08-17T02:33:16Z</time>
			</trkpt>
			<trkpt lat="30.258727" lon="120.111502">
				<speed>0.000000</speed>
				<ele>50.000000</ele>
				<time>2026-08-17T02:33:17Z</time>
			</trkpt>
			<trkpt lat="30.258719" lon="120.111488">
				<speed>0.000000</speed>
				<ele>50.000000</ele>
				<time>2026-08-17T02:33:18Z</time>
			</trkpt>
			<trkpt lat="30.258712" lon="120.111474">
				<speed>0.000000</speed>
				<ele>50.000000</ele>
				<time>2026-08-17T02:33:19Z</time>
			</trkpt>
			<trkpt lat="30.258689" lon="120.111431">
				<speed>0.000000</speed>
				<ele>50.000000</ele>
				<time>2026-08-17T02:33:20Z</time>
			</trkpt>
			<trkpt lat="30.258682" lon="120.111417">
				<speed>0.000000</speed>
				<ele>51.000000</ele>
				<time>2026-08-17T02:33:21Z</time>
			</trkpt>
			<trkpt lat="30.258674" lon="120.111403">
				<speed>0.000000</speed>
				<ele>51.000000</ele>
				<time>2026-08-17T02:33:22Z</time>
			</trkpt>
			<trkpt lat="30.258666" lon="120.111388">
				<speed>0.000000</speed>
				<ele>51.000000</ele>
				<time>2026-08-17T02:33:23Z</time>
			</trkpt>
			<trkpt lat="30.258641" lon="120.111348">
				<speed>0.000000</speed>
				<ele>51.000000</ele>
				<time>2026-08-17T02:33:24Z</time>
			</trkpt>
			<trkpt lat="30.258631" lon="120.111337">
				<speed>0.000000</speed>
				<ele>51.000000</ele>
				<time>2026-08-17T02:33:25Z</time>
			</trkpt>
			<trkpt lat="30.258621" lon="120.111326">
				<speed>0.000000</speed>
				<ele>51.000000</ele>
				<time>2026-08-17T02:33:26Z</time>
			</trkpt>
			<trkpt lat="30.258612" lon="120.111314">
				<speed>0.000000</speed>
				<ele>51.000000</ele>
				<time>2026-08-17T02:33:27Z</time>
			</trkpt>
			<trkpt lat="30.258578" lon="120.111287">
				<speed>0.000000</speed>
				<ele>51.000000</ele>
				<time>2026-08-17T02:33:28Z</time>
			</trkpt>
			<trkpt lat="30.258566" lon="120.111279">
				<speed>0.000000</speed>
				<ele>52.000000</ele>
				<time>2026-08-17T02:33:29Z</time>
			</trkpt>
			<trkpt lat="30.258555" lon="120.111270">
				<speed>0.000000</speed>
				<ele>52.000000</ele>
				<time>2026-08-17T02:33:30Z</time>
			</trkpt>
			<trkpt lat="30.258543" lon="120.111262">
				<speed>0.000000</speed>
				<ele>52.000000</ele>
				<time>2026-08-17T02:33:31Z</time>
			</trkpt>
			<trkpt lat="30.258509" lon="120.111237">
				<speed>0.000000</speed>
				<ele>52.000000</ele>
				<time>2026-08-17T02:33:32Z</time>
			</trkpt>
			<trkpt lat="30.258497" lon="120.111229">
				<speed>0.000000</speed>
				<ele>52.000000</ele>
				<time>2026-08-17T02:33:33Z</time>
			</trkpt>
			<trkpt lat="30.258485" lon="120.111221">
				<speed>0.000000</speed>
				<ele>52.000000</ele>
				<time>2026-08-17T02:33:34Z</time>
			</trkpt>
			<trkpt lat="30.258473" lon="120.111213">
				<speed>0.000000</speed>
				<ele>52.000000</ele>
				<time>2026-08-17T02:33:35Z</time>
			</trkpt>
			<trkpt lat="30.258436" lon="120.111190">
				<speed>0.000000</speed>
				<ele>52.000000</ele>
				<time>2026-08-17T02:33:36Z</time>
			</trkpt>
			<trkpt lat="30.258424" lon="120.111183">
				<speed>0.000000</speed>
				<ele>52.000000</ele>
				<time>2026-08-17T02:33:37Z</time>
			</trkpt>
			<trkpt lat="30.258411" lon="120.111176">
				<speed>0.000000</speed>
				<ele>52.000000</ele>
				<time>2026-08-17T02:33:38Z</time>
			</trkpt>
			<trkpt lat="30.258399" lon="120.111168">
				<speed>0.000000</speed>
				<ele>52.000000</ele>
				<time>2026-08-17T02:33:39Z</time>
			</trkpt>
			<trkpt lat="30.258365" lon="120.111147">
				<speed>0.000000</speed>
				<ele>52.000000</ele>
				<time>2026-08-17T02:33:40Z</time>
			</trkpt>
			<trkpt lat="30.258354" lon="120.111139">
				<speed>0.000000</speed>
				<ele>53.000000</ele>
				<time>2026-08-17T02:33:41Z</time>
			</trkpt>
			<trkpt lat="30.258344" lon="120.111131">
				<speed>0.000000</speed>
				<ele>53.000000</ele>
				<time>2026-08-17T02:33:42Z</time>
			</trkpt>
			<trkpt lat="30.258334" lon="120.111124">
				<speed>0.000000</speed>
				<ele>53.000000</ele>
				<time>2026-08-17T02:33:43Z</time>
			</trkpt>
			<trkpt lat="30.258304" lon="120.111100">
				<speed>0.000000</speed>
				<ele>53.000000</ele>
				<time>2026-08-17T02:33:44Z</time>
			</trkpt>
			<trkpt lat="30.258293" lon="120.111093">
				<speed>0.000000</speed>
				<ele>53.000000</ele>
				<time>2026-08-17T02:33:45Z</time>
			</trkpt>
			<trkpt lat="30.258283" lon="120.111086">
				<speed>0.000000</speed>
				<ele>53.000000</ele>
				<time>2026-08-17T02:33:46Z</time>
			</trkpt>
			<trkpt lat="30.258272" lon="120.111079">
				<speed>0.000000</speed>
				<ele>53.000000</ele>
				<time>2026-08-17T02:33:47Z</time>
			</trkpt>
			<trkpt lat="30.258238" lon="120.111060">
				<speed>0.000000</speed>
				<ele>53.000000</ele>
				<time>2026-08-17T02:33:48Z</time>
			</trkpt>
			<trkpt lat="30.258226" lon="120.111052">
				<speed>0.000000</speed>
				<ele>53.000000</ele>
				<time>2026-08-17T02:33:49Z</time>
			</trkpt>
			<trkpt lat="30.258215" lon="120.111045">
				<speed>0.000000</speed>
				<ele>53.000000</ele>
				<time>2026-08-17T02:33:50Z</time>
			</trkpt>
			<trkpt lat="30.258203" lon="120.111038">
				<speed>0.000000</speed>
				<ele>53.000000</ele>
				<time>2026-08-17T02:33:51Z</time>
			</trkpt>
			<trkpt lat="30.258168" lon="120.111014">
				<speed>0.000000</speed>
				<ele>53.000000</ele>
				<time>2026-08-17T02:33:52Z</time>
			</trkpt>
			<trkpt lat="30.258156" lon="120.111007">
				<speed>0.000000</speed>
				<ele>53.000000</ele>
				<time>2026-08-17T02:33:53Z</time>
			</trkpt>
			<trkpt lat="30.258145" lon="120.111000">
				<speed>0.000000</speed>
				<ele>53.000000</ele>
				<time>2026-08-17T02:33:54Z</time>
			</trkpt>
			<trkpt lat="30.258133" lon="120.110993">
				<speed>0.000000</speed>
				<ele>53.000000</ele>
				<time>2026-08-17T02:33:55Z</time>
			</trkpt>
			<trkpt lat="30.258099" lon="120.110973">
				<speed>0.000000</speed>
				<ele>53.000000</ele>
				<time>2026-08-17T02:33:56Z</time>
			</trkpt>
			<trkpt lat="30.258088" lon="120.110966">
				<speed>0.000000</speed>
				<ele>53.000000</ele>
				<time>2026-08-17T02:33:57Z</time>
			</trkpt>
			<trkpt lat="30.258077" lon="120.110959">
				<speed>0.000000</speed>
				<ele>53.000000</ele>
				<time>2026-08-17T02:33:58Z</time>
			</trkpt>
			<trkpt lat="30.258066" lon="120.110951">
				<speed>0.000000</speed>
				<ele>53.000000</ele>
				<time>2026-08-17T02:33:59Z</time>
			</trkpt>
			<trkpt lat="30.258032" lon="120.110926">
				<speed>0.000000</speed>
				<ele>53.000000</ele>
				<time>2026-08-17T02:34:00Z</time>
			</trkpt>
			<trkpt lat="30.258022" lon="120.110918">
				<speed>0.000000</speed>
				<ele>53.000000</ele>
				<time>2026-08-17T02:34:01Z</time>
			</trkpt>
			<trkpt lat="30.258011" lon="120.110909">
				<speed>0.000000</speed>
				<ele>53.000000</ele>
				<time>2026-08-17T02:34:02Z</time>
			</trkpt>
			<trkpt lat="30.258000" lon="120.110900">
				<speed>0.000000</speed>
				<ele>53.000000</ele>
				<time>2026-08-17T02:34:03Z</time>
			</trkpt>
			<trkpt lat="30.257972" lon="120.110870">
				<speed>0.000000</speed>
				<ele>53.000000</ele>
				<time>2026-08-17T02:34:04Z</time>
			</trkpt>
			<trkpt lat="30.257964" lon="120.110858">
				<speed>0.000000</speed>
				<ele>53.000000</ele>
				<time>2026-08-17T02:34:05Z</time>
			</trkpt>
			<trkpt lat="30.257955" lon="120.110847">
				<speed>0.000000</speed>
				<ele>53.000000</ele>
				<time>2026-08-17T02:34:06Z</time>
			</trkpt>
			<trkpt lat="30.257946" lon="120.110836">
				<speed>0.000000</speed>
				<ele>53.000000</ele>
				<time>2026-08-17T02:34:07Z</time>
			</trkpt>
			<trkpt lat="30.257920" lon="120.110802">
				<speed>0.000000</speed>
				<ele>53.000000</ele>
				<time>2026-08-17T02:34:08Z</time>
			</trkpt>
			<trkpt lat="30.257910" lon="120.110790">
				<speed>0.000000</speed>
				<ele>54.000000</ele>
				<time>2026-08-17T02:34:09Z</time>
			</trkpt>
			<trkpt lat="30.257901" lon="120.110778">
				<speed>0.000000</speed>
				<ele>54.000000</ele>
				<time>2026-08-17T02:34:10Z</time>
			</trkpt>
			<trkpt lat="30.257891" lon="120.110767">
				<speed>0.000000</speed>
				<ele>54.000000</ele>
				<time>2026-08-17T02:34:11Z</time>
			</trkpt>
			<trkpt lat="30.257865" lon="120.110735">
				<speed>0.000000</speed>
				<ele>54.000000</ele>
				<time>2026-08-17T02:34:12Z</time>
			</trkpt>
			<trkpt lat="30.257856" lon="120.110725">
				<speed>0.000000</speed>
				<ele>54.000000</ele>
				<time>2026-08-17T02:34:13Z</time>
			</trkpt>
			<trkpt lat="30.257848" lon="120.110715">
				<speed>0.000000</speed>
				<ele>54.000000</ele>
				<time>2026-08-17T02:34:14Z</time>
			</trkpt>
			<trkpt lat="30.257839" lon="120.110705">
				<speed>0.000000</speed>
				<ele>54.000000</ele>
				<time>2026-08-17T02:34:15Z</time>
			</trkpt>
			<trkpt lat="30.257814" lon="120.110675">
				<speed>0.000000</speed>
				<ele>54.000000</ele>
				<time>2026-08-17T02:34:16Z</time>
			</trkpt>
			<trkpt lat="30.257805" lon="120.110663">
				<speed>0.000000</speed>
				<ele>54.000000</ele>
				<time>2026-08-17T02:34:17Z</time>
			</trkpt>
			<trkpt lat="30.257797" lon="120.110652">
				<speed>0.000000</speed>
				<ele>54.000000</ele>
				<time>2026-08-17T02:34:18Z</time>
			</trkpt>
			<trkpt lat="30.257789" lon="120.110641">
				<speed>0.000000</speed>
				<ele>54.000000</ele>
				<time>2026-08-17T02:34:19Z</time>
			</trkpt>
			<trkpt lat="30.257762" lon="120.110607">
				<speed>0.000000</speed>
				<ele>54.000000</ele>
				<time>2026-08-17T02:34:20Z</time>
			</trkpt>
			<trkpt lat="30.257754" lon="120.110596">
				<speed>0.000000</speed>
				<ele>54.000000</ele>
				<time>2026-08-17T02:34:21Z</time>
			</trkpt>
			<trkpt lat="30.257745" lon="120.110586">
				<speed>0.000000</speed>
				<ele>54.000000</ele>
				<time>2026-08-17T02:34:22Z</time>
			</trkpt>
			<trkpt lat="30.257736" lon="120.110575">
				<speed>0.000000</speed>
				<ele>54.000000</ele>
				<time>2026-08-17T02:34:23Z</time>
			</trkpt>
			<trkpt lat="30.257709" lon="120.110544">
				<speed>0.000000</speed>
				<ele>54.000000</ele>
				<time>2026-08-17T02:34:24Z</time>
			</trkpt>
			<trkpt lat="30.257700" lon="120.110534">
				<speed>0.000000</speed>
				<ele>54.000000</ele>
				<time>2026-08-17T02:34:25Z</time>
			</trkpt>
			<trkpt lat="30.257691" lon="120.110524">
				<speed>0.000000</speed>
				<ele>54.000000</ele>
				<time>2026-08-17T02:34:26Z</time>
			</trkpt>
			<trkpt lat="30.257681" lon="120.110514">
				<speed>0.000000</speed>
				<ele>54.000000</ele>
				<time>2026-08-17T02:34:27Z</time>
			</trkpt>
			<trkpt lat="30.257652" lon="120.110486">
				<speed>0.000000</speed>
				<ele>54.000000</ele>
				<time>2026-08-17T02:34:28Z</time>
			</trkpt>
			<trkpt lat="30.257641" lon="120.110477">
				<speed>0.000000</speed>
				<ele>54.000000</ele>
				<time>2026-08-17T02:34:29Z</time>
			</trkpt>
			<trkpt lat="30.257631" lon="120.110468">
				<speed>0.000000</speed>
				<ele>54.000000</ele>
				<time>2026-08-17T02:34:30Z</time>
			</trkpt>
			<trkpt lat="30.257621" lon="120.110459">
				<speed>0.000000</speed>
				<ele>54.000000</ele>
				<time>2026-08-17T02:34:31Z</time>
			</trkpt>
			<trkpt lat="30.257587" lon="120.110432">
				<speed>0.000000</speed>
				<ele>54.000000</ele>
				<time>2026-08-17T02:34:32Z</time>
			</trkpt>
			<trkpt lat="30.257575" lon="120.110423">
				<speed>0.000000</speed>
				<ele>55.000000</ele>
				<time>2026-08-17T02:34:33Z</time>
			</trkpt>
			<trkpt lat="30.257563" lon="120.110414">
				<speed>0.000000</speed>
				<ele>55.000000</ele>
				<time>2026-08-17T02:34:34Z</time>
			</trkpt>
			<trkpt lat="30.257551" lon="120.110405">
				<speed>0.000000</speed>
				<ele>55.000000</ele>
				<time>2026-08-17T02:34:35Z</time>
			</trkpt>
			<trkpt lat="30.257515" lon="120.110380">
				<speed>0.000000</speed>
				<ele>55.000000</ele>
				<time>2026-08-17T02:34:36Z</time>
			</trkpt>
			<trkpt lat="30.257503" lon="120.110372">
				<speed>0.000000</speed>
				<ele>55.000000</ele>
				<time>2026-08-17T02:34:37Z</time>
			</trkpt>
			<trkpt lat="30.257491" lon="120.110363">
				<speed>0.000000</speed>
				<ele>55.000000</ele>
				<time>2026-08-17T02:34:38Z</time>
			</trkpt>
			<trkpt lat="30.257478" lon="120.110355">
				<speed>0.000000</speed>
				<ele>55.000000</ele>
				<time>2026-08-17T02:34:39Z</time>
			</trkpt>
			<trkpt lat="30.257441" lon="120.110331">
				<speed>0.000000</speed>
				<ele>55.000000</ele>
				<time>2026-08-17T02:34:40Z</time>
			</trkpt>
			<trkpt lat="30.257429" lon="120.110322">
				<speed>0.000000</speed>
				<ele>55.000000</ele>
				<time>2026-08-17T02:34:41Z</time>
			</trkpt>
			<trkpt lat="30.257416" lon="120.110313">
				<speed>0.000000</speed>
				<ele>55.000000</ele>
				<time>2026-08-17T02:34:42Z</time>
			</trkpt>
			<trkpt lat="30.257403" lon="120.110305">
				<speed>0.000000</speed>
				<ele>55.000000</ele>
				<time>2026-08-17T02:34:43Z</time>
			</trkpt>
			<trkpt lat="30.257363" lon="120.110280">
				<speed>0.000000</speed>
				<ele>55.000000</ele>
				<time>2026-08-17T02:34:44Z</time>
			</trkpt>
			<trkpt lat="30.257349" lon="120.110273">
				<speed>0.000000</speed>
				<ele>55.000000</ele>
				<time>2026-08-17T02:34:45Z</time>
			</trkpt>
			<trkpt lat="30.257335" lon="120.110266">
				<speed>0.000000</speed>
				<ele>55.000000</ele>
				<time>2026-08-17T02:34:46Z</time>
			</trkpt>
			<trkpt lat="30.257322" lon="120.110259">
				<speed>0.000000</speed>
				<ele>55.000000</ele>
				<time>2026-08-17T02:34:47Z</time>
			</trkpt>
			<trkpt lat="30.257283" lon="120.110243">
				<speed>0.000000</speed>
				<ele>55.000000</ele>
				<time>2026-08-17T02:34:48Z</time>
			</trkpt>
			<trkpt lat="30.257270" lon="120.110238">
				<speed>0.000000</speed>
				<ele>55.000000</ele>
				<time>2026-08-17T02:34:49Z</time>
			</trkpt>
			<trkpt lat="30.257258" lon="120.110233">
				<speed>0.000000</speed>
				<ele>54.000000</ele>
				<time>2026-08-17T02:34:50Z</time>
			</trkpt>
			<trkpt lat="30.257245" lon="120.110229">
				<speed>0.000000</speed>
				<ele>54.000000</ele>
				<time>2026-08-17T02:34:51Z</time>
			</trkpt>
			<trkpt lat="30.257204" lon="120.110220">
				<speed>0.000000</speed>
				<ele>54.000000</ele>
				<time>2026-08-17T02:34:52Z</time>
			</trkpt>
			<trkpt lat="30.257189" lon="120.110219">
				<speed>0.000000</speed>
				<ele>54.000000</ele>
				<time>2026-08-17T02:34:53Z</time>
			</trkpt>
			<trkpt lat="30.257174" lon="120.110218">
				<speed>0.000000</speed>
				<ele>54.000000</ele>
				<time>2026-08-17T02:34:54Z</time>
			</trkpt>
			<trkpt lat="30.257160" lon="120.110218">
				<speed>0.000000</speed>
				<ele>54.000000</ele>
				<time>2026-08-17T02:34:55Z</time>
			</trkpt>
			<trkpt lat="30.257114" lon="120.110220">
				<speed>0.000000</speed>
				<ele>54.000000</ele>
				<time>2026-08-17T02:34:56Z</time>
			</trkpt>
			<trkpt lat="30.257099" lon="120.110222">
				<speed>0.000000</speed>
				<ele>54.000000</ele>
				<time>2026-08-17T02:34:57Z</time>
			</trkpt>
			<trkpt lat="30.257084" lon="120.110224">
				<speed>0.000000</speed>
				<ele>54.000000</ele>
				<time>2026-08-17T02:34:58Z</time>
			</trkpt>
			<trkpt lat="30.257069" lon="120.110226">
				<speed>0.000000</speed>
				<ele>54.000000</ele>
				<time>2026-08-17T02:34:59Z</time>
			</trkpt>
			<trkpt lat="30.257023" lon="120.110236">
				<speed>0.000000</speed>
				<ele>54.000000</ele>
				<time>2026-08-17T02:35:00Z</time>
			</trkpt>
			<trkpt lat="30.257008" lon="120.110240">
				<speed>0.000000</speed>
				<ele>54.000000</ele>
				<time>2026-08-17T02:35:01Z</time>
			</trkpt>
			<trkpt lat="30.256993" lon="120.110243">
				<speed>0.000000</speed>
				<ele>53.000000</ele>
				<time>2026-08-17T02:35:02Z</time>
			</trkpt>
			<trkpt lat="30.256978" lon="120.110247">
				<speed>0.000000</speed>
				<ele>53.000000</ele>
				<time>2026-08-17T02:35:03Z</time>
			</trkpt>
			<trkpt lat="30.256935" lon="120.110258">
				<speed>0.000000</speed>
				<ele>53.000000</ele>
				<time>2026-08-17T02:35:04Z</time>
			</trkpt>
			<trkpt lat="30.256921" lon="120.110262">
				<speed>0.000000</speed>
				<ele>53.000000</ele>
				<time>2026-08-17T02:35:05Z</time>
			</trkpt>
			<trkpt lat="30.256906" lon="120.110266">
				<speed>0.000000</speed>
				<ele>53.000000</ele>
				<time>2026-08-17T02:35:06Z</time>
			</trkpt>
			<trkpt lat="30.256892" lon="120.110270">
				<speed>0.000000</speed>
				<ele>53.000000</ele>
				<time>2026-08-17T02:35:07Z</time>
			</trkpt>
			<trkpt lat="30.256851" lon="120.110283">
				<speed>0.000000</speed>
				<ele>53.000000</ele>
				<time>2026-08-17T02:35:08Z</time>
			</trkpt>
			<trkpt lat="30.256838" lon="120.110286">
				<speed>0.000000</speed>
				<ele>53.000000</ele>
				<time>2026-08-17T02:35:09Z</time>
			</trkpt>
			<trkpt lat="30.256824" lon="120.110290">
				<speed>0.000000</speed>
				<ele>52.000000</ele>
				<time>2026-08-17T02:35:10Z</time>
			</trkpt>
			<trkpt lat="30.256810" lon="120.110293">
				<speed>0.000000</speed>
				<ele>52.000000</ele>
				<time>2026-08-17T02:35:11Z</time>
			</trkpt>
			<trkpt lat="30.256766" lon="120.110304">
				<speed>0.000000</speed>
				<ele>52.000000</ele>
				<time>2026-08-17T02:35:12Z</time>
			</trkpt>
			<trkpt lat="30.256750" lon="120.110309">
				<speed>0.000000</speed>
				<ele>52.000000</ele>
				<time>2026-08-17T02:35:13Z</time>
			</trkpt>
			<trkpt lat="30.256735" lon="120.110314">
				<speed>0.000000</speed>
				<ele>52.000000</ele>
				<time>2026-08-17T02:35:14Z</time>
			</trkpt>
			<trkpt lat="30.256720" lon="120.110319">
				<speed>0.000000</speed>
				<ele>52.000000</ele>
				<time>2026-08-17T02:35:15Z</time>
			</trkpt>
			<trkpt lat="30.256677" lon="120.110335">
				<speed>0.000000</speed>
				<ele>52.000000</ele>
				<time>2026-08-17T02:35:16Z</time>
			</trkpt>
			<trkpt lat="30.256663" lon="120.110342">
				<speed>0.000000</speed>
				<ele>52.000000</ele>
				<time>2026-08-17T02:35:17Z</time>
			</trkpt>
			<trkpt lat="30.256649" lon="120.110349">
				<speed>0.000000</speed>
				<ele>52.000000</ele>
				<time>2026-08-17T02:35:18Z</time>
			</trkpt>
			<trkpt lat="30.256636" lon="120.110356">
				<speed>0.000000</speed>
				<ele>52.000000</ele>
				<time>2026-08-17T02:35:19Z</time>
			</trkpt>
			<trkpt lat="30.256599" lon="120.110380">
				<speed>0.000000</speed>
				<ele>52.000000</ele>
				<time>2026-08-17T02:35:20Z</time>
			</trkpt>
			<trkpt lat="30.256588" lon="120.110388">
				<speed>0.000000</speed>
				<ele>52.000000</ele>
				<time>2026-08-17T02:35:21Z</time>
			</trkpt>
			<trkpt lat="30.256576" lon="120.110397">
				<speed>0.000000</speed>
				<ele>51.000000</ele>
				<time>2026-08-17T02:35:22Z</time>
			</trkpt>
			<trkpt lat="30.256565" lon="120.110406">
				<speed>0.000000</speed>
				<ele>51.000000</ele>
				<time>2026-08-17T02:35:23Z</time>
			</trkpt>
			<trkpt lat="30.256533" lon="120.110433">
				<speed>0.000000</speed>
				<ele>51.000000</ele>
				<time>2026-08-17T02:35:24Z</time>
			</trkpt>
			<trkpt lat="30.256522" lon="120.110443">
				<speed>0.000000</speed>
				<ele>51.000000</ele>
				<time>2026-08-17T02:35:25Z</time>
			</trkpt>
			<trkpt lat="30.256512" lon="120.110453">
				<speed>0.000000</speed>
				<ele>51.000000</ele>
				<time>2026-08-17T02:35:26Z</time>
			</trkpt>
			<trkpt lat="30.256502" lon="120.110462">
				<speed>0.000000</speed>
				<ele>51.000000</ele>
				<time>2026-08-17T02:35:27Z</time>
			</trkpt>
			<trkpt lat="30.256473" lon="120.110494">
				<speed>0.000000</speed>
				<ele>51.000000</ele>
				<time>2026-08-17T02:35:28Z</time>
			</trkpt>
			<trkpt lat="30.256464" lon="120.110506">
				<speed>0.000000</speed>
				<ele>51.000000</ele>
				<time>2026-08-17T02:35:29Z</time>
			</trkpt>
			<trkpt lat="30.256455" lon="120.110517">
				<speed>0.000000</speed>
				<ele>51.000000</ele>
				<time>2026-08-17T02:35:30Z</time>
			</trkpt>
			<trkpt lat="30.256447" lon="120.110529">
				<speed>0.000000</speed>
				<ele>51.000000</ele>
				<time>2026-08-17T02:35:31Z</time>
			</trkpt>
			<trkpt lat="30.256424" lon="120.110563">
				<speed>0.000000</speed>
				<ele>51.000000</ele>
				<time>2026-08-17T02:35:32Z</time>
			</trkpt>
			<trkpt lat="30.256417" lon="120.110574">
				<speed>0.000000</speed>
				<ele>51.000000</ele>
				<time>2026-08-17T02:35:33Z</time>
			</trkpt>
			<trkpt lat="30.256410" lon="120.110585">
				<speed>0.000000</speed>
				<ele>50.000000</ele>
				<time>2026-08-17T02:35:34Z</time>
			</trkpt>
			<trkpt lat="30.256402" lon="120.110597">
				<speed>0.000000</speed>
				<ele>50.000000</ele>
				<time>2026-08-17T02:35:35Z</time>
			</trkpt>
			<trkpt lat="30.256381" lon="120.110634">
				<speed>0.000000</speed>
				<ele>50.000000</ele>
				<time>2026-08-17T02:35:36Z</time>
			</trkpt>
			<trkpt lat="30.256372" lon="120.110648">
				<speed>0.000000</speed>
				<ele>50.000000</ele>
				<time>2026-08-17T02:35:37Z</time>
			</trkpt>
			<trkpt lat="30.256365" lon="120.110662">
				<speed>0.000000</speed>
				<ele>50.000000</ele>
				<time>2026-08-17T02:35:38Z</time>
			</trkpt>
			<trkpt lat="30.256357" lon="120.110675">
				<speed>0.000000</speed>
				<ele>50.000000</ele>
				<time>2026-08-17T02:35:39Z</time>
			</trkpt>
			<trkpt lat="30.256332" lon="120.110719">
				<speed>0.000000</speed>
				<ele>50.000000</ele>
				<time>2026-08-17T02:35:40Z</time>
			</trkpt>
			<trkpt lat="30.256324" lon="120.110733">
				<speed>0.000000</speed>
				<ele>50.000000</ele>
				<time>2026-08-17T02:35:41Z</time>
			</trkpt>
			<trkpt lat="30.256316" lon="120.110748">
				<speed>0.000000</speed>
				<ele>50.000000</ele>
				<time>2026-08-17T02:35:42Z</time>
			</trkpt>
			<trkpt lat="30.256308" lon="120.110762">
				<speed>0.000000</speed>
				<ele>50.000000</ele>
				<time>2026-08-17T02:35:43Z</time>
			</trkpt>
			<trkpt lat="30.256285" lon="120.110804">
				<speed>0.000000</speed>
				<ele>50.000000</ele>
				<time>2026-08-17T02:35:44Z</time>
			</trkpt>
			<trkpt lat="30.256277" lon="120.110817">
				<speed>0.000000</speed>
				<ele>50.000000</ele>
				<time>2026-08-17T02:35:45Z</time>
			</trkpt>
			<trkpt lat="30.256268" lon="120.110830">
				<speed>0.000000</speed>
				<ele>49.000000</ele>
				<time>2026-08-17T02:35:46Z</time>
			</trkpt>
			<trkpt lat="30.256260" lon="120.110844">
				<speed>0.000000</speed>
				<ele>49.000000</ele>
				<time>2026-08-17T02:35:47Z</time>
			</trkpt>
			<trkpt lat="30.256233" lon="120.110882">
				<speed>0.000000</speed>
				<ele>49.000000</ele>
				<time>2026-08-17T02:35:48Z</time>
			</trkpt>
			<trkpt lat="30.256222" lon="120.110894">
				<speed>0.000000</speed>
				<ele>49.000000</ele>
				<time>2026-08-17T02:35:49Z</time>
			</trkpt>
			<trkpt lat="30.256212" lon="120.110906">
				<speed>0.000000</speed>
				<ele>49.000000</ele>
				<time>2026-08-17T02:35:50Z</time>
			</trkpt>
			<trkpt lat="30.256201" lon="120.110919">
				<speed>0.000000</speed>
				<ele>49.000000</ele>
				<time>2026-08-17T02:35:51Z</time>
			</trkpt>
			<trkpt lat="30.256166" lon="120.110954">
				<speed>0.000000</speed>
				<ele>49.000000</ele>
				<time>2026-08-17T02:35:52Z</time>
			</trkpt>
			<trkpt lat="30.256153" lon="120.110965">
				<speed>0.000000</speed>
				<ele>49.000000</ele>
				<time>2026-08-17T02:35:53Z</time>
			</trkpt>
			<trkpt lat="30.256140" lon="120.110977">
				<speed>0.000000</speed>
				<ele>49.000000</ele>
				<time>2026-08-17T02:35:54Z</time>
			</trkpt>
			<trkpt lat="30.256127" lon="120.110988">
				<speed>0.000000</speed>
				<ele>49.000000</ele>
				<time>2026-08-17T02:35:55Z</time>
			</trkpt>
			<trkpt lat="30.256087" lon="120.111022">
				<speed>0.000000</speed>
				<ele>49.000000</ele>
				<time>2026-08-17T02:35:56Z</time>
			</trkpt>
			<trkpt lat="30.256074" lon="120.111033">
				<speed>0.000000</speed>
				<ele>49.000000</ele>
				<time>2026-08-17T02:35:57Z</time>
			</trkpt>
			<trkpt lat="30.256062" lon="120.111045">
				<speed>0.000000</speed>
				<ele>48.000000</ele>
				<time>2026-08-17T02:35:58Z</time>
			</trkpt>
			<trkpt lat="30.256050" lon="120.111056">
				<speed>0.000000</speed>
				<ele>48.000000</ele>
				<time>2026-08-17T02:35:59Z</time>
			</trkpt>
			<trkpt lat="30.256014" lon="120.111088">
				<speed>0.000000</speed>
				<ele>48.000000</ele>
				<time>2026-08-17T02:36:00Z</time>
			</trkpt>
			<trkpt lat="30.256002" lon="120.111097">
				<speed>0.000000</speed>
				<ele>48.000000</ele>
				<time>2026-08-17T02:36:01Z</time>
			</trkpt>
			<trkpt lat="30.255990" lon="120.111107">
				<speed>0.000000</speed>
				<ele>48.000000</ele>
				<time>2026-08-17T02:36:02Z</time>
			</trkpt>
			<trkpt lat="30.255979" lon="120.111116">
				<speed>0.000000</speed>
				<ele>48.000000</ele>
				<time>2026-08-17T02:36:03Z</time>
			</trkpt>
			<trkpt lat="30.255941" lon="120.111142">
				<speed>0.000000</speed>
				<ele>48.000000</ele>
				<time>2026-08-17T02:36:04Z</time>
			</trkpt>
			<trkpt lat="30.255928" lon="120.111150">
				<speed>0.000000</speed>
				<ele>48.000000</ele>
				<time>2026-08-17T02:36:05Z</time>
			</trkpt>
			<trkpt lat="30.255915" lon="120.111158">
				<speed>0.000000</speed>
				<ele>48.000000</ele>
				<time>2026-08-17T02:36:06Z</time>
			</trkpt>
			<trkpt lat="30.255902" lon="120.111166">
				<speed>0.000000</speed>
				<ele>48.000000</ele>
				<time>2026-08-17T02:36:07Z</time>
			</trkpt>
			<trkpt lat="30.255862" lon="120.111190">
				<speed>0.000000</speed>
				<ele>48.000000</ele>
				<time>2026-08-17T02:36:08Z</time>
			</trkpt>
			<trkpt lat="30.255849" lon="120.111199">
				<speed>0.000000</speed>
				<ele>48.000000</ele>
				<time>2026-08-17T02:36:09Z</time>
			</trkpt>
			<trkpt lat="30.255835" lon="120.111209">
				<speed>0.000000</speed>
				<ele>48.000000</ele>
				<time>2026-08-17T02:36:10Z</time>
			</trkpt>
			<trkpt lat="30.255822" lon="120.111219">
				<speed>0.000000</speed>
				<ele>48.000000</ele>
				<time>2026-08-17T02:36:11Z</time>
			</trkpt>
			<trkpt lat="30.255782" lon="120.111250">
				<speed>0.000000</speed>
				<ele>48.000000</ele>
				<time>2026-08-17T02:36:12Z</time>
			</trkpt>
			<trkpt lat="30.255767" lon="120.111259">
				<speed>0.000000</speed>
				<ele>48.000000</ele>
				<time>2026-08-17T02:36:13Z</time>
			</trkpt>
			<trkpt lat="30.255752" lon="120.111268">
				<speed>0.000000</speed>
				<ele>47.000000</ele>
				<time>2026-08-17T02:36:14Z</time>
			</trkpt>
			<trkpt lat="30.255738" lon="120.111278">
				<speed>0.000000</speed>
				<ele>47.000000</ele>
				<time>2026-08-17T02:36:15Z</time>
			</trkpt>
			<trkpt lat="30.255690" lon="120.111297">
				<speed>0.000000</speed>
				<ele>47.000000</ele>
				<time>2026-08-17T02:36:16Z</time>
			</trkpt>
			<trkpt lat="30.255674" lon="120.111300">
				<speed>0.000000</speed>
				<ele>47.000000</ele>
				<time>2026-08-17T02:36:17Z</time>
			</trkpt>
			<trkpt lat="30.255658" lon="120.111304">
				<speed>0.000000</speed>
				<ele>47.000000</ele>
				<time>2026-08-17T02:36:18Z</time>
			</trkpt>
			<trkpt lat="30.255642" lon="120.111307">
				<speed>0.000000</speed>
				<ele>47.000000</ele>
				<time>2026-08-17T02:36:19Z</time>
			</trkpt>
			<trkpt lat="30.255596" lon="120.111313">
				<speed>0.000000</speed>
				<ele>47.000000</ele>
				<time>2026-08-17T02:36:20Z</time>
			</trkpt>
			<trkpt lat="30.255581" lon="120.111315">
				<speed>0.000000</speed>
				<ele>47.000000</ele>
				<time>2026-08-17T02:36:21Z</time>
			</trkpt>
			<trkpt lat="30.255566" lon="120.111316">
				<speed>0.000000</speed>
				<ele>47.000000</ele>
				<time>2026-08-17T02:36:22Z</time>
			</trkpt>
			<trkpt lat="30.255551" lon="120.111318">
				<speed>0.000000</speed>
				<ele>47.000000</ele>
				<time>2026-08-17T02:36:23Z</time>
			</trkpt>
			<trkpt lat="30.255505" lon="120.111323">
				<speed>0.000000</speed>
				<ele>47.000000</ele>
				<time>2026-08-17T02:36:24Z</time>
			</trkpt>
			<trkpt lat="30.255490" lon="120.111326">
				<speed>0.000000</speed>
				<ele>47.000000</ele>
				<time>2026-08-17T02:36:25Z</time>
			</trkpt>
			<trkpt lat="30.255475" lon="120.111329">
				<speed>0.000000</speed>
				<ele>47.000000</ele>
				<time>2026-08-17T02:36:26Z</time>
			</trkpt>
			<trkpt lat="30.255459" lon="120.111331">
				<speed>0.000000</speed>
				<ele>47.000000</ele>
				<time>2026-08-17T02:36:27Z</time>
			</trkpt>
			<trkpt lat="30.255413" lon="120.111342">
				<speed>0.000000</speed>
				<ele>47.000000</ele>
				<time>2026-08-17T02:36:28Z</time>
			</trkpt>
			<trkpt lat="30.255397" lon="120.111346">
				<speed>0.000000</speed>
				<ele>47.000000</ele>
				<time>2026-08-17T02:36:29Z</time>
			</trkpt>
			<trkpt lat="30.255382" lon="120.111351">
				<speed>0.000000</speed>
				<ele>46.000000</ele>
				<time>2026-08-17T02:36:30Z</time>
			</trkpt>
			<trkpt lat="30.255366" lon="120.111355">
				<speed>0.000000</speed>
				<ele>46.000000</ele>
				<time>2026-08-17T02:36:31Z</time>
			</trkpt>
			<trkpt lat="30.255317" lon="120.111369">
				<speed>0.000000</speed>
				<ele>46.000000</ele>
				<time>2026-08-17T02:36:32Z</time>
			</trkpt>
			<trkpt lat="30.255300" lon="120.111374">
				<speed>0.000000</speed>
				<ele>46.000000</ele>
				<time>2026-08-17T02:36:33Z</time>
			</trkpt>
			<trkpt lat="30.255283" lon="120.111379">
				<speed>0.000000</speed>
				<ele>46.000000</ele>
				<time>2026-08-17T02:36:34Z</time>
			</trkpt>
			<trkpt lat="30.255266" lon="120.111384">
				<speed>0.000000</speed>
				<ele>46.000000</ele>
				<time>2026-08-17T02:36:35Z</time>
			</trkpt>
			<trkpt lat="30.255215" lon="120.111396">
				<speed>0.000000</speed>
				<ele>46.000000</ele>
				<time>2026-08-17T02:36:36Z</time>
			</trkpt>
			<trkpt lat="30.255199" lon="120.111399">
				<speed>0.000000</speed>
				<ele>46.000000</ele>
				<time>2026-08-17T02:36:37Z</time>
			</trkpt>
			<trkpt lat="30.255182" lon="120.111402">
				<speed>0.000000</speed>
				<ele>46.000000</ele>
				<time>2026-08-17T02:36:38Z</time>
			</trkpt>
			<trkpt lat="30.255166" lon="120.111405">
				<speed>0.000000</speed>
				<ele>46.000000</ele>
				<time>2026-08-17T02:36:39Z</time>
			</trkpt>
			<trkpt lat="30.255120" lon="120.111413">
				<speed>0.000000</speed>
				<ele>46.000000</ele>
				<time>2026-08-17T02:36:40Z</time>
			</trkpt>
			<trkpt lat="30.255105" lon="120.111415">
				<speed>0.000000</speed>
				<ele>46.000000</ele>
				<time>2026-08-17T02:36:41Z</time>
			</trkpt>
			<trkpt lat="30.255090" lon="120.111417">
				<speed>0.000000</speed>
				<ele>45.000000</ele>
				<time>2026-08-17T02:36:42Z</time>
			</trkpt>
			<trkpt lat="30.255076" lon="120.111420">
				<speed>0.000000</speed>
				<ele>45.000000</ele>
				<time>2026-08-17T02:36:43Z</time>
			</trkpt>
			<trkpt lat="30.255033" lon="120.111426">
				<speed>0.000000</speed>
				<ele>45.000000</ele>
				<time>2026-08-17T02:36:44Z</time>
			</trkpt>
			<trkpt lat="30.255018" lon="120.111429">
				<speed>0.000000</speed>
				<ele>45.000000</ele>
				<time>2026-08-17T02:36:45Z</time>
			</trkpt>
			<trkpt lat="30.255004" lon="120.111433">
				<speed>0.000000</speed>
				<ele>45.000000</ele>
				<time>2026-08-17T02:36:46Z</time>
			</trkpt>
			<trkpt lat="30.254989" lon="120.111437">
				<speed>0.000000</speed>
				<ele>45.000000</ele>
				<time>2026-08-17T02:36:47Z</time>
			</trkpt>
			<trkpt lat="30.254942" lon="120.111450">
				<speed>0.000000</speed>
				<ele>45.000000</ele>
				<time>2026-08-17T02:36:48Z</time>
			</trkpt>
			<trkpt lat="30.254927" lon="120.111454">
				<speed>0.000000</speed>
				<ele>45.000000</ele>
				<time>2026-08-17T02:36:49Z</time>
			</trkpt>
			<trkpt lat="30.254911" lon="120.111457">
				<speed>0.000000</speed>
				<ele>44.000000</ele>
				<time>2026-08-17T02:36:50Z</time>
			</trkpt>
			<trkpt lat="30.254895" lon="120.111461">
				<speed>0.000000</speed>
				<ele>44.000000</ele>
				<time>2026-08-17T02:36:51Z</time>
			</trkpt>
			<trkpt lat="30.254849" lon="120.111469">
				<speed>0.000000</speed>
				<ele>44.000000</ele>
				<time>2026-08-17T02:36:52Z</time>
			</trkpt>
			<trkpt lat="30.254834" lon="120.111470">
				<speed>0.000000</speed>
				<ele>44.000000</ele>
				<time>2026-08-17T02:36:53Z</time>
			</trkpt>
			<trkpt lat="30.254819" lon="120.111471">
				<speed>0.000000</speed>
				<ele>44.000000</ele>
				<time>2026-08-17T02:36:54Z</time>
			</trkpt>
			<trkpt lat="30.254805" lon="120.111472">
				<speed>0.000000</speed>
				<ele>44.000000</ele>
				<time>2026-08-17T02:36:55Z</time>
			</trkpt>
			<trkpt lat="30.254761" lon="120.111471">
				<speed>0.000000</speed>
				<ele>44.000000</ele>
				<time>2026-08-17T02:36:56Z</time>
			</trkpt>
			<trkpt lat="30.254747" lon="120.111470">
				<speed>0.000000</speed>
				<ele>44.000000</ele>
				<time>2026-08-17T02:36:57Z</time>
			</trkpt>
			<trkpt lat="30.254732" lon="120.111469">
				<speed>0.000000</speed>
				<ele>44.000000</ele>
				<time>2026-08-17T02:36:58Z</time>
			</trkpt>
			<trkpt lat="30.254718" lon="120.111468">
				<speed>0.000000</speed>
				<ele>44.000000</ele>
				<time>2026-08-17T02:36:59Z</time>
			</trkpt>
			<trkpt lat="30.254674" lon="120.111466">
				<speed>0.000000</speed>
				<ele>44.000000</ele>
				<time>2026-08-17T02:37:00Z</time>
			</trkpt>
			<trkpt lat="30.254660" lon="120.111466">
				<speed>0.000000</speed>
				<ele>44.000000</ele>
				<time>2026-08-17T02:37:01Z</time>
			</trkpt>
			<trkpt lat="30.254645" lon="120.111466">
				<speed>0.000000</speed>
				<ele>43.000000</ele>
				<time>2026-08-17T02:37:02Z</time>
			</trkpt>
			<trkpt lat="30.254630" lon="120.111465">
				<speed>0.000000</speed>
				<ele>43.000000</ele>
				<time>2026-08-17T02:37:03Z</time>
			</trkpt>
			<trkpt lat="30.254587" lon="120.111465">
				<speed>0.000000</speed>
				<ele>43.000000</ele>
				<time>2026-08-17T02:37:04Z</time>
			</trkpt>
			<trkpt lat="30.254573" lon="120.111466">
				<speed>0.000000</speed>
				<ele>43.000000</ele>
				<time>2026-08-17T02:37:05Z</time>
			</trkpt>
			<trkpt lat="30.254559" lon="120.111466">
				<speed>0.000000</speed>
				<ele>43.000000</ele>
				<time>2026-08-17T02:37:06Z</time>
			</trkpt>
			<trkpt lat="30.254545" lon="120.111467">
				<speed>0.000000</speed>
				<ele>43.000000</ele>
				<time>2026-08-17T02:37:07Z</time>
			</trkpt>
			<trkpt lat="30.254500" lon="120.111469">
				<speed>0.000000</speed>
				<ele>43.000000</ele>
				<time>2026-08-17T02:37:08Z</time>
			</trkpt>
			<trkpt lat="30.254485" lon="120.111470">
				<speed>0.000000</speed>
				<ele>43.000000</ele>
				<time>2026-08-17T02:37:09Z</time>
			</trkpt>
			<trkpt lat="30.254469" lon="120.111470">
				<speed>0.000000</speed>
				<ele>43.000000</ele>
				<time>2026-08-17T02:37:10Z</time>
			</trkpt>
			<trkpt lat="30.254454" lon="120.111471">
				<speed>0.000000</speed>
				<ele>43.000000</ele>
				<time>2026-08-17T02:37:11Z</time>
			</trkpt>
			<trkpt lat="30.254405" lon="120.111473">
				<speed>0.000000</speed>
				<ele>43.000000</ele>
				<time>2026-08-17T02:37:12Z</time>
			</trkpt>
			<trkpt lat="30.254389" lon="120.111474">
				<speed>0.000000</speed>
				<ele>43.000000</ele>
				<time>2026-08-17T02:37:13Z</time>
			</trkpt>
			<trkpt lat="30.254372" lon="120.111476">
				<speed>0.000000</speed>
				<ele>43.000000</ele>
				<time>2026-08-17T02:37:14Z</time>
			</trkpt>
			<trkpt lat="30.254356" lon="120.111477">
				<speed>0.000000</speed>
				<ele>43.000000</ele>
				<time>2026-08-17T02:37:15Z</time>
			</trkpt>
			<trkpt lat="30.254307" lon="120.111484">
				<speed>0.000000</speed>
				<ele>43.000000</ele>
				<time>2026-08-17T02:37:16Z</time>
			</trkpt>
			<trkpt lat="30.254291" lon="120.111487">
				<speed>0.000000</speed>
				<ele>43.000000</ele>
				<time>2026-08-17T02:37:17Z</time>
			</trkpt>
			<trkpt lat="30.254275" lon="120.111490">
				<speed>0.000000</speed>
				<ele>43.000000</ele>
				<time>2026-08-17T02:37:18Z</time>
			</trkpt>
			<trkpt lat="30.254259" lon="120.111493">
				<speed>0.000000</speed>
				<ele>43.000000</ele>
				<time>2026-08-17T02:37:19Z</time>
			</trkpt>
			<trkpt lat="30.254213" lon="120.111500">
				<speed>0.000000</speed>
				<ele>43.000000</ele>
				<time>2026-08-17T02:37:20Z</time>
			</trkpt>
			<trkpt lat="30.254197" lon="120.111502">
				<speed>0.000000</speed>
				<ele>43.000000</ele>
				<time>2026-08-17T02:37:21Z</time>
			</trkpt>
			<trkpt lat="30.254182" lon="120.111504">
				<speed>0.000000</speed>
				<ele>42.000000</ele>
				<time>2026-08-17T02:37:22Z</time>
			</trkpt>
			<trkpt lat="30.254166" lon="120.111506">
				<speed>0.000000</speed>
				<ele>42.000000</ele>
				<time>2026-08-17T02:37:23Z</time>
			</trkpt>
			<trkpt lat="30.254120" lon="120.111513">
				<speed>0.000000</speed>
				<ele>42.000000</ele>
				<time>2026-08-17T02:37:24Z</time>
			</trkpt>
			<trkpt lat="30.254105" lon="120.111516">
				<speed>0.000000</speed>
				<ele>42.000000</ele>
				<time>2026-08-17T02:37:25Z</time>
			</trkpt>
			<trkpt lat="30.254090" lon="120.111519">
				<speed>0.000000</speed>
				<ele>42.000000</ele>
				<time>2026-08-17T02:37:26Z</time>
			</trkpt>
			<trkpt lat="30.254075" lon="120.111522">
				<speed>0.000000</speed>
				<ele>42.000000</ele>
				<time>2026-08-17T02:37:27Z</time>
			</trkpt>
			<trkpt lat="30.254029" lon="120.111534">
				<speed>0.000000</speed>
				<ele>42.000000</ele>
				<time>2026-08-17T02:37:28Z</time>
			</trkpt>
			<trkpt lat="30.254014" lon="120.111540">
				<speed>0.000000</speed>
				<ele>42.000000</ele>
				<time>2026-08-17T02:37:29Z</time>
			</trkpt>
			<trkpt lat="30.253999" lon="120.111545">
				<speed>0.000000</speed>
				<ele>42.000000</ele>
				<time>2026-08-17T02:37:30Z</time>
			</trkpt>
			<trkpt lat="30.253984" lon="120.111550">
				<speed>0.000000</speed>
				<ele>42.000000</ele>
				<time>2026-08-17T02:37:31Z</time>
			</trkpt>
			<trkpt lat="30.253941" lon="120.111564">
				<speed>0.000000</speed>
				<ele>42.000000</ele>
				<time>2026-08-17T02:37:32Z</time>
			</trkpt>
			<trkpt lat="30.253927" lon="120.111570">
				<speed>0.000000</speed>
				<ele>42.000000</ele>
				<time>2026-08-17T02:37:33Z</time>
			</trkpt>
			<trkpt lat="30.253912" lon="120.111575">
				<speed>0.000000</speed>
				<ele>42.000000</ele>
				<time>2026-08-17T02:37:34Z</time>
			</trkpt>
			<trkpt lat="30.253898" lon="120.111581">
				<speed>0.000000</speed>
				<ele>42.000000</ele>
				<time>2026-08-17T02:37:35Z</time>
			</trkpt>
			<trkpt lat="30.253855" lon="120.111602">
				<speed>0.000000</speed>
				<ele>42.000000</ele>
				<time>2026-08-17T02:37:36Z</time>
			</trkpt>
			<trkpt lat="30.253841" lon="120.111611">
				<speed>0.000000</speed>
				<ele>42.000000</ele>
				<time>2026-08-17T02:37:37Z</time>
			</trkpt>
			<trkpt lat="30.253827" lon="120.111620">
				<speed>0.000000</speed>
				<ele>42.000000</ele>
				<time>2026-08-17T02:37:38Z</time>
			</trkpt>
			<trkpt lat="30.253813" lon="120.111628">
				<speed>0.000000</speed>
				<ele>42.000000</ele>
				<time>2026-08-17T02:37:39Z</time>
			</trkpt>
			<trkpt lat="30.253774" lon="120.111658">
				<speed>0.000000</speed>
				<ele>42.000000</ele>
				<time>2026-08-17T02:37:40Z</time>
			</trkpt>
			<trkpt lat="30.253762" lon="120.111668">
				<speed>0.000000</speed>
				<ele>42.000000</ele>
				<time>2026-08-17T02:37:41Z</time>
			</trkpt>
			<trkpt lat="30.253749" lon="120.111678">
				<speed>0.000000</speed>
				<ele>42.000000</ele>
				<time>2026-08-17T02:37:42Z</time>
			</trkpt>
			<trkpt lat="30.253736" lon="120.111688">
				<speed>0.000000</speed>
				<ele>42.000000</ele>
				<time>2026-08-17T02:37:43Z</time>
			</trkpt>
			<trkpt lat="30.253697" lon="120.111719">
				<speed>0.000000</speed>
				<ele>42.000000</ele>
				<time>2026-08-17T02:37:44Z</time>
			</trkpt>
			<trkpt lat="30.253685" lon="120.111730">
				<speed>0.000000</speed>
				<ele>42.000000</ele>
				<time>2026-08-17T02:37:45Z</time>
			</trkpt>
			<trkpt lat="30.253673" lon="120.111741">
				<speed>0.000000</speed>
				<ele>42.000000</ele>
				<time>2026-08-17T02:37:46Z</time>
			</trkpt>
			<trkpt lat="30.253660" lon="120.111752">
				<speed>0.000000</speed>
				<ele>42.000000</ele>
				<time>2026-08-17T02:37:47Z</time>
			</trkpt>
			<trkpt lat="30.253626" lon="120.111788">
				<speed>0.000000</speed>
				<ele>42.000000</ele>
				<time>2026-08-17T02:37:48Z</time>
			</trkpt>
			<trkpt lat="30.253615" lon="120.111801">
				<speed>0.000000</speed>
				<ele>42.000000</ele>
				<time>2026-08-17T02:37:49Z</time>
			</trkpt>
			<trkpt lat="30.253604" lon="120.111814">
				<speed>0.000000</speed>
				<ele>41.000000</ele>
				<time>2026-08-17T02:37:50Z</time>
			</trkpt>
			<trkpt lat="30.253594" lon="120.111827">
				<speed>0.000000</speed>
				<ele>41.000000</ele>
				<time>2026-08-17T02:37:51Z</time>
			</trkpt>
			<trkpt lat="30.253562" lon="120.111867">
				<speed>0.000000</speed>
				<ele>41.000000</ele>
				<time>2026-08-17T02:37:52Z</time>
			</trkpt>
			<trkpt lat="30.253552" lon="120.111881">
				<speed>0.000000</speed>
				<ele>41.000000</ele>
				<time>2026-08-17T02:37:53Z</time>
			</trkpt>
			<trkpt lat="30.253543" lon="120.111895">
				<speed>0.000000</speed>
				<ele>41.000000</ele>
				<time>2026-08-17T02:37:54Z</time>
			</trkpt>
			<trkpt lat="30.253533" lon="120.111909">
				<speed>0.000000</speed>
				<ele>41.000000</ele>
				<time>2026-08-17T02:37:55Z</time>
			</trkpt>
			<trkpt lat="30.253504" lon="120.111951">
				<speed>0.000000</speed>
				<ele>41.000000</ele>
				<time>2026-08-17T02:37:56Z</time>
			</trkpt>
			<trkpt lat="30.253495" lon="120.111964">
				<speed>0.000000</speed>
				<ele>41.000000</ele>
				<time>2026-08-17T02:37:57Z</time>
			</trkpt>
			<trkpt lat="30.253486" lon="120.111978">
				<speed>0.000000</speed>
				<ele>41.000000</ele>
				<time>2026-08-17T02:37:58Z</time>
			</trkpt>
			<trkpt lat="30.253477" lon="120.111992">
				<speed>0.000000</speed>
				<ele>41.000000</ele>
				<time>2026-08-17T02:37:59Z</time>
			</trkpt>
			<trkpt lat="30.253450" lon="120.112032">
				<speed>0.000000</speed>
				<ele>41.000000</ele>
				<time>2026-08-17T02:38:00Z</time>
			</trkpt>
			<trkpt lat="30.253440" lon="120.112045">
				<speed>0.000000</speed>
				<ele>41.000000</ele>
				<time>2026-08-17T02:38:01Z</time>
			</trkpt>
			<trkpt lat="30.253430" lon="120.112059">
				<speed>0.000000</speed>
				<ele>41.000000</ele>
				<time>2026-08-17T02:38:02Z</time>
			</trkpt>
			<trkpt lat="30.253421" lon="120.112072">
				<speed>0.000000</speed>
				<ele>41.000000</ele>
				<time>2026-08-17T02:38:03Z</time>
			</trkpt>
			<trkpt lat="30.253389" lon="120.112112">
				<speed>0.000000</speed>
				<ele>41.000000</ele>
				<time>2026-08-17T02:38:04Z</time>
			</trkpt>
			<trkpt lat="30.253379" lon="120.112125">
				<speed>0.000000</speed>
				<ele>41.000000</ele>
				<time>2026-08-17T02:38:05Z</time>
			</trkpt>
			<trkpt lat="30.253368" lon="120.112138">
				<speed>0.000000</speed>
				<ele>40.000000</ele>
				<time>2026-08-17T02:38:06Z</time>
			</trkpt>
			<trkpt lat="30.253357" lon="120.112151">
				<speed>0.000000</speed>
				<ele>40.000000</ele>
				<time>2026-08-17T02:38:07Z</time>
			</trkpt>
			<trkpt lat="30.253326" lon="120.112190">
				<speed>0.000000</speed>
				<ele>40.000000</ele>
				<time>2026-08-17T02:38:08Z</time>
			</trkpt>
			<trkpt lat="30.253318" lon="120.112204">
				<speed>0.000000</speed>
				<ele>40.000000</ele>
				<time>2026-08-17T02:38:09Z</time>
			</trkpt>
			<trkpt lat="30.253309" lon="120.112217">
				<speed>0.000000</speed>
				<ele>40.000000</ele>
				<time>2026-08-17T02:38:10Z</time>
			</trkpt>
			<trkpt lat="30.253300" lon="120.112231">
				<speed>0.000000</speed>
				<ele>40.000000</ele>
				<time>2026-08-17T02:38:11Z</time>
			</trkpt>
			<trkpt lat="30.253276" lon="120.112275">
				<speed>0.000000</speed>
				<ele>40.000000</ele>
				<time>2026-08-17T02:38:12Z</time>
			</trkpt>
			<trkpt lat="30.253269" lon="120.112290">
				<speed>0.000000</speed>
				<ele>40.000000</ele>
				<time>2026-08-17T02:38:13Z</time>
			</trkpt>
			<trkpt lat="30.253262" lon="120.112305">
				<speed>0.000000</speed>
				<ele>40.000000</ele>
				<time>2026-08-17T02:38:14Z</time>
			</trkpt>
			<trkpt lat="30.253254" lon="120.112319">
				<speed>0.000000</speed>
				<ele>40.000000</ele>
				<time>2026-08-17T02:38:15Z</time>
			</trkpt>
			<trkpt lat="30.253234" lon="120.112362">
				<speed>0.000000</speed>
				<ele>40.000000</ele>
				<time>2026-08-17T02:38:16Z</time>
			</trkpt>
			<trkpt lat="30.253228" lon="120.112376">
				<speed>0.000000</speed>
				<ele>40.000000</ele>
				<time>2026-08-17T02:38:17Z</time>
			</trkpt>
			<trkpt lat="30.253222" lon="120.112390">
				<speed>0.000000</speed>
				<ele>40.000000</ele>
				<time>2026-08-17T02:38:18Z</time>
			</trkpt>
			<trkpt lat="30.253216" lon="120.112404">
				<speed>0.000000</speed>
				<ele>40.000000</ele>
				<time>2026-08-17T02:38:19Z</time>
			</trkpt>
			<trkpt lat="30.253199" lon="120.112449">
				<speed>0.000000</speed>
				<ele>40.000000</ele>
				<time>2026-08-17T02:38:20Z</time>
			</trkpt>
			<trkpt lat="30.253194" lon="120.112466">
				<speed>0.000000</speed>
				<ele>40.000000</ele>
				<time>2026-08-17T02:38:21Z</time>
			</trkpt>
			<trkpt lat="30.253190" lon="120.112482">
				<speed>0.000000</speed>
				<ele>40.000000</ele>
				<time>2026-08-17T02:38:22Z</time>
			</trkpt>
			<trkpt lat="30.253185" lon="120.112499">
				<speed>0.000000</speed>
				<ele>40.000000</ele>
				<time>2026-08-17T02:38:23Z</time>
			</trkpt>
			<trkpt lat="30.253173" lon="120.112551">
				<speed>0.000000</speed>
				<ele>40.000000</ele>
				<time>2026-08-17T02:38:24Z</time>
			</trkpt>
			<trkpt lat="30.253168" lon="120.112568">
				<speed>0.000000</speed>
				<ele>40.000000</ele>
				<time>2026-08-17T02:38:25Z</time>
			</trkpt>
			<trkpt lat="30.253164" lon="120.112585">
				<speed>0.000000</speed>
				<ele>40.000000</ele>
				<time>2026-08-17T02:38:26Z</time>
			</trkpt>
			<trkpt lat="30.253160" lon="120.112602">
				<speed>0.000000</speed>
				<ele>40.000000</ele>
				<time>2026-08-17T02:38:27Z</time>
			</trkpt>
			<trkpt lat="30.253145" lon="120.112651">
				<speed>0.000000</speed>
				<ele>40.000000</ele>
				<time>2026-08-17T02:38:28Z</time>
			</trkpt>
			<trkpt lat="30.253141" lon="120.112667">
				<speed>0.000000</speed>
				<ele>40.000000</ele>
				<time>2026-08-17T02:38:29Z</time>
			</trkpt>
			<trkpt lat="30.253137" lon="120.112683">
				<speed>0.000000</speed>
				<ele>40.000000</ele>
				<time>2026-08-17T02:38:30Z</time>
			</trkpt>
			<trkpt lat="30.253133" lon="120.112699">
				<speed>0.000000</speed>
				<ele>40.000000</ele>
				<time>2026-08-17T02:38:31Z</time>
			</trkpt>
			<trkpt lat="30.253122" lon="120.112747">
				<speed>0.000000</speed>
				<ele>40.000000</ele>
				<time>2026-08-17T02:38:32Z</time>
			</trkpt>
			<trkpt lat="30.253119" lon="120.112763">
				<speed>0.000000</speed>
				<ele>40.000000</ele>
				<time>2026-08-17T02:38:33Z</time>
			</trkpt>
			<trkpt lat="30.253115" lon="120.112780">
				<speed>0.000000</speed>
				<ele>40.000000</ele>
				<time>2026-08-17T02:38:34Z</time>
			</trkpt>
			<trkpt lat="30.253112" lon="120.112796">
				<speed>0.000000</speed>
				<ele>40.000000</ele>
				<time>2026-08-17T02:38:35Z</time>
			</trkpt>
			<trkpt lat="30.253103" lon="120.112845">
				<speed>0.000000</speed>
				<ele>40.000000</ele>
				<time>2026-08-17T02:38:36Z</time>
			</trkpt>
			<trkpt lat="30.253099" lon="120.112862">
				<speed>0.000000</speed>
				<ele>40.000000</ele>
				<time>2026-08-17T02:38:37Z</time>
			</trkpt>
			<trkpt lat="30.253096" lon="120.112879">
				<speed>0.000000</speed>
				<ele>40.000000</ele>
				<time>2026-08-17T02:38:38Z</time>
			</trkpt>
			<trkpt lat="30.253092" lon="120.112895">
				<speed>0.000000</speed>
				<ele>40.000000</ele>
				<time>2026-08-17T02:38:39Z</time>
			</trkpt>
			<trkpt lat="30.253083" lon="120.112946">
				<speed>0.000000</speed>
				<ele>40.000000</ele>
				<time>2026-08-17T02:38:40Z</time>
			</trkpt>
			<trkpt lat="30.253080" lon="120.112963">
				<speed>0.000000</speed>
				<ele>40.000000</ele>
				<time>2026-08-17T02:38:41Z</time>
			</trkpt>
			<trkpt lat="30.253077" lon="120.112981">
				<speed>0.000000</speed>
				<ele>40.000000</ele>
				<time>2026-08-17T02:38:42Z</time>
			</trkpt>
			<trkpt lat="30.253074" lon="120.112998">
				<speed>0.000000</speed>
				<ele>40.000000</ele>
				<time>2026-08-17T02:38:43Z</time>
			</trkpt>
			<trkpt lat="30.253066" lon="120.113048">
				<speed>0.000000</speed>
				<ele>40.000000</ele>
				<time>2026-08-17T02:38:44Z</time>
			</trkpt>
			<trkpt lat="30.253063" lon="120.113065">
				<speed>0.000000</speed>
				<ele>40.000000</ele>
				<time>2026-08-17T02:38:45Z</time>
			</trkpt>
			<trkpt lat="30.253061" lon="120.113082">
				<speed>0.000000</speed>
				<ele>39.000000</ele>
				<time>2026-08-17T02:38:46Z</time>
			</trkpt>
			<trkpt lat="30.253059" lon="120.113099">
				<speed>0.000000</speed>
				<ele>39.000000</ele>
				<time>2026-08-17T02:38:47Z</time>
			</trkpt>
			<trkpt lat="30.253054" lon="120.113151">
				<speed>0.000000</speed>
				<ele>39.000000</ele>
				<time>2026-08-17T02:38:48Z</time>
			</trkpt>
			<trkpt lat="30.253053" lon="120.113169">
				<speed>0.000000</speed>
				<ele>39.000000</ele>
				<time>2026-08-17T02:38:49Z</time>
			</trkpt>
			<trkpt lat="30.253051" lon="120.113187">
				<speed>0.000000</speed>
				<ele>39.000000</ele>
				<time>2026-08-17T02:38:50Z</time>
			</trkpt>
			<trkpt lat="30.253050" lon="120.113205">
				<speed>0.000000</speed>
				<ele>39.000000</ele>
				<time>2026-08-17T02:38:51Z</time>
			</trkpt>
			<trkpt lat="30.253050" lon="120.113261">
				<speed>0.000000</speed>
				<ele>39.000000</ele>
				<time>2026-08-17T02:38:52Z</time>
			</trkpt>
			<trkpt lat="30.253051" lon="120.113280">
				<speed>0.000000</speed>
				<ele>39.000000</ele>
				<time>2026-08-17T02:38:53Z</time>
			</trkpt>
			<trkpt lat="30.253052" lon="120.113299">
				<speed>0.000000</speed>
				<ele>39.000000</ele>
				<time>2026-08-17T02:38:54Z</time>
			</trkpt>
			<trkpt lat="30.253053" lon="120.113319">
				<speed>0.000000</speed>
				<ele>39.000000</ele>
				<time>2026-08-17T02:38:55Z</time>
			</trkpt>
			<trkpt lat="30.253051" lon="120.113376">
				<speed>0.000000</speed>
				<ele>39.000000</ele>
				<time>2026-08-17T02:38:56Z</time>
			</trkpt>
			<trkpt lat="30.253045" lon="120.113392">
				<speed>0.000000</speed>
				<ele>39.000000</ele>
				<time>2026-08-17T02:38:57Z</time>
			</trkpt>
			<trkpt lat="30.253039" lon="120.113408">
				<speed>0.000000</speed>
				<ele>38.000000</ele>
				<time>2026-08-17T02:38:58Z</time>
			</trkpt>
			<trkpt lat="30.253034" lon="120.113425">
				<speed>0.000000</speed>
				<ele>38.000000</ele>
				<time>2026-08-17T02:38:59Z</time>
			</trkpt>
			<trkpt lat="30.252997" lon="120.113448">
				<speed>0.000000</speed>
				<ele>38.000000</ele>
				<time>2026-08-17T02:39:00Z</time>
			</trkpt>
			<trkpt lat="30.252983" lon="120.113446">
				<speed>0.000000</speed>
				<ele>38.000000</ele>
				<time>2026-08-17T02:39:01Z</time>
			</trkpt>
			<trkpt lat="30.252969" lon="120.113444">
				<speed>0.000000</speed>
				<ele>38.000000</ele>
				<time>2026-08-17T02:39:02Z</time>
			</trkpt>
			<trkpt lat="30.252954" lon="120.113442">
				<speed>0.000000</speed>
				<ele>38.000000</ele>
				<time>2026-08-17T02:39:03Z</time>
			</trkpt>
			<trkpt lat="30.252914" lon="120.113416">
				<speed>0.000000</speed>
				<ele>38.000000</ele>
				<time>2026-08-17T02:39:04Z</time>
			</trkpt>
			<trkpt lat="30.252902" lon="120.113404">
				<speed>0.000000</speed>
				<ele>38.000000</ele>
				<time>2026-08-17T02:39:05Z</time>
			</trkpt>
			<trkpt lat="30.252890" lon="120.113392">
				<speed>0.000000</speed>
				<ele>38.000000</ele>
				<time>2026-08-17T02:39:06Z</time>
			</trkpt>
			<trkpt lat="30.252879" lon="120.113380">
				<speed>0.000000</speed>
				<ele>38.000000</ele>
				<time>2026-08-17T02:39:07Z</time>
			</trkpt>
			<trkpt lat="30.252847" lon="120.113338">
				<speed>0.000000</speed>
				<ele>38.000000</ele>
				<time>2026-08-17T02:39:08Z</time>
			</trkpt>
			<trkpt lat="30.252837" lon="120.113324">
				<speed>0.000000</speed>
				<ele>38.000000</ele>
				<time>2026-08-17T02:39:09Z</time>
			</trkpt>
			<trkpt lat="30.252827" lon="120.113310">
				<speed>0.000000</speed>
				<ele>38.000000</ele>
				<time>2026-08-17T02:39:10Z</time>
			</trkpt>
			<trkpt lat="30.252817" lon="120.113296">
				<speed>0.000000</speed>
				<ele>38.000000</ele>
				<time>2026-08-17T02:39:11Z</time>
			</trkpt>
			<trkpt lat="30.252790" lon="120.113253">
				<speed>0.000000</speed>
				<ele>38.000000</ele>
				<time>2026-08-17T02:39:12Z</time>
			</trkpt>
			<trkpt lat="30.252781" lon="120.113239">
				<speed>0.000000</speed>
				<ele>38.000000</ele>
				<time>2026-08-17T02:39:13Z</time>
			</trkpt>
			<trkpt lat="30.252773" lon="120.113225">
				<speed>0.000000</speed>
				<ele>38.000000</ele>
				<time>2026-08-17T02:39:14Z</time>
			</trkpt>
			<trkpt lat="30.252764" lon="120.113211">
				<speed>0.000000</speed>
				<ele>38.000000</ele>
				<time>2026-08-17T02:39:15Z</time>
			</trkpt>
			<trkpt lat="30.252737" lon="120.113171">
				<speed>0.000000</speed>
				<ele>38.000000</ele>
				<time>2026-08-17T02:39:16Z</time>
			</trkpt>
			<trkpt lat="30.252728" lon="120.113158">
				<speed>0.000000</speed>
				<ele>38.000000</ele>
				<time>2026-08-17T02:39:17Z</time>
			</trkpt>
			<trkpt lat="30.252718" lon="120.113145">
				<speed>0.000000</speed>
				<ele>38.000000</ele>
				<time>2026-08-17T02:39:18Z</time>
			</trkpt>
			<trkpt lat="30.252708" lon="120.113132">
				<speed>0.000000</speed>
				<ele>38.000000</ele>
				<time>2026-08-17T02:39:19Z</time>
			</trkpt>
			<trkpt lat="30.252678" lon="120.113092">
				<speed>0.000000</speed>
				<ele>38.000000</ele>
				<time>2026-08-17T02:39:20Z</time>
			</trkpt>
			<trkpt lat="30.252668" lon="120.113078">
				<speed>0.000000</speed>
				<ele>38.000000</ele>
				<time>2026-08-17T02:39:21Z</time>
			</trkpt>
			<trkpt lat="30.252658" lon="120.113063">
				<speed>0.000000</speed>
				<ele>38.000000</ele>
				<time>2026-08-17T02:39:22Z</time>
			</trkpt>
			<trkpt lat="30.252647" lon="120.113049">
				<speed>0.000000</speed>
				<ele>38.000000</ele>
				<time>2026-08-17T02:39:23Z</time>
			</trkpt>
			<trkpt lat="30.252616" lon="120.113005">
				<speed>0.000000</speed>
				<ele>38.000000</ele>
				<time>2026-08-17T02:39:24Z</time>
			</trkpt>
			<trkpt lat="30.252606" lon="120.112990">
				<speed>0.000000</speed>
				<ele>38.000000</ele>
				<time>2026-08-17T02:39:25Z</time>
			</trkpt>
			<trkpt lat="30.252595" lon="120.112976">
				<speed>0.000000</speed>
				<ele>38.000000</ele>
				<time>2026-08-17T02:39:26Z</time>
			</trkpt>
			<trkpt lat="30.252585" lon="120.112962">
				<speed>0.000000</speed>
				<ele>38.000000</ele>
				<time>2026-08-17T02:39:27Z</time>
			</trkpt>
			<trkpt lat="30.252555" lon="120.112919">
				<speed>0.000000</speed>
				<ele>38.000000</ele>
				<time>2026-08-17T02:39:28Z</time>
			</trkpt>
			<trkpt lat="30.252545" lon="120.112905">
				<speed>0.000000</speed>
				<ele>38.000000</ele>
				<time>2026-08-17T02:39:29Z</time>
			</trkpt>
			<trkpt lat="30.252535" lon="120.112891">
				<speed>0.000000</speed>
				<ele>38.000000</ele>
				<time>2026-08-17T02:39:30Z</time>
			</trkpt>
			<trkpt lat="30.252525" lon="120.112877">
				<speed>0.000000</speed>
				<ele>38.000000</ele>
				<time>2026-08-17T02:39:31Z</time>
			</trkpt>
			<trkpt lat="30.252498" lon="120.112833">
				<speed>0.000000</speed>
				<ele>38.000000</ele>
				<time>2026-08-17T02:39:32Z</time>
			</trkpt>
			<trkpt lat="30.252488" lon="120.112819">
				<speed>0.000000</speed>
				<ele>38.000000</ele>
				<time>2026-08-17T02:39:33Z</time>
			</trkpt>
			<trkpt lat="30.252479" lon="120.112805">
				<speed>0.000000</speed>
				<ele>38.000000</ele>
				<time>2026-08-17T02:39:34Z</time>
			</trkpt>
			<trkpt lat="30.252471" lon="120.112790">
				<speed>0.000000</speed>
				<ele>38.000000</ele>
				<time>2026-08-17T02:39:35Z</time>
			</trkpt>
			<trkpt lat="30.252443" lon="120.112750">
				<speed>0.000000</speed>
				<ele>38.000000</ele>
				<time>2026-08-17T02:39:36Z</time>
			</trkpt>
			<trkpt lat="30.252432" lon="120.112737">
				<speed>0.000000</speed>
				<ele>38.000000</ele>
				<time>2026-08-17T02:39:37Z</time>
			</trkpt>
			<trkpt lat="30.252422" lon="120.112724">
				<speed>0.000000</speed>
				<ele>38.000000</ele>
				<time>2026-08-17T02:39:38Z</time>
			</trkpt>
			<trkpt lat="30.252412" lon="120.112711">
				<speed>0.000000</speed>
				<ele>38.000000</ele>
				<time>2026-08-17T02:39:39Z</time>
			</trkpt>
			<trkpt lat="30.252380" lon="120.112674">
				<speed>0.000000</speed>
				<ele>38.000000</ele>
				<time>2026-08-17T02:39:40Z</time>
			</trkpt>
			<trkpt lat="30.252368" lon="120.112663">
				<speed>0.000000</speed>
				<ele>38.000000</ele>
				<time>2026-08-17T02:39:41Z</time>
			</trkpt>
			<trkpt lat="30.252357" lon="120.112652">
				<speed>0.000000</speed>
				<ele>38.000000</ele>
				<time>2026-08-17T02:39:42Z</time>
			</trkpt>
			<trkpt lat="30.252346" lon="120.112641">
				<speed>0.000000</speed>
				<ele>38.000000</ele>
				<time>2026-08-17T02:39:43Z</time>
			</trkpt>
			<trkpt lat="30.252312" lon="120.112609">
				<speed>0.000000</speed>
				<ele>38.000000</ele>
				<time>2026-08-17T02:39:44Z</time>
			</trkpt>
			<trkpt lat="30.252301" lon="120.112598">
				<speed>0.000000</speed>
				<ele>38.000000</ele>
				<time>2026-08-17T02:39:45Z</time>
			</trkpt>
			<trkpt lat="30.252289" lon="120.112587">
				<speed>0.000000</speed>
				<ele>38.000000</ele>
				<time>2026-08-17T02:39:46Z</time>
			</trkpt>
			<trkpt lat="30.252278" lon="120.112577">
				<speed>0.000000</speed>
				<ele>38.000000</ele>
				<time>2026-08-17T02:39:47Z</time>
			</trkpt>
			<trkpt lat="30.252243" lon="120.112544">
				<speed>0.000000</speed>
				<ele>38.000000</ele>
				<time>2026-08-17T02:39:48Z</time>
			</trkpt>
			<trkpt lat="30.252231" lon="120.112532">
				<speed>0.000000</speed>
				<ele>38.000000</ele>
				<time>2026-08-17T02:39:49Z</time>
			</trkpt>
			<trkpt lat="30.252220" lon="120.112521">
				<speed>0.000000</speed>
				<ele>38.000000</ele>
				<time>2026-08-17T02:39:50Z</time>
			</trkpt>
			<trkpt lat="30.252208" lon="120.112511">
				<speed>0.000000</speed>
				<ele>38.000000</ele>
				<time>2026-08-17T02:39:51Z</time>
			</trkpt>
			<trkpt lat="30.252173" lon="120.112478">
				<speed>0.000000</speed>
				<ele>38.000000</ele>
				<time>2026-08-17T02:39:52Z</time>
			</trkpt>
			<trkpt lat="30.252161" lon="120.112468">
				<speed>0.000000</speed>
				<ele>38.000000</ele>
				<time>2026-08-17T02:39:53Z</time>
			</trkpt>
			<trkpt lat="30.252150" lon="120.112457">
				<speed>0.000000</speed>
				<ele>38.000000</ele>
				<time>2026-08-17T02:39:54Z</time>
			</trkpt>
			<trkpt lat="30.252138" lon="120.112446">
				<speed>0.000000</speed>
				<ele>38.000000</ele>
				<time>2026-08-17T02:39:55Z</time>
			</trkpt>
			<trkpt lat="30.252104" lon="120.112412">
				<speed>0.000000</speed>
				<ele>38.000000</ele>
				<time>2026-08-17T02:39:56Z</time>
			</trkpt>
			<trkpt lat="30.252093" lon="120.112400">
				<speed>0.000000</speed>
				<ele>38.000000</ele>
				<time>2026-08-17T02:39:57Z</time>
			</trkpt>
			<trkpt lat="30.252082" lon="120.112388">
				<speed>0.000000</speed>
				<ele>38.000000</ele>
				<time>2026-08-17T02:39:58Z</time>
			</trkpt>
			<trkpt lat="30.252071" lon="120.112377">
				<speed>0.000000</speed>
				<ele>38.000000</ele>
				<time>2026-08-17T02:39:59Z</time>
			</trkpt>
			<trkpt lat="30.252039" lon="120.112342">
				<speed>0.000000</speed>
				<ele>38.000000</ele>
				<time>2026-08-17T02:40:00Z</time>
			</trkpt>
			<trkpt lat="30.252029" lon="120.112330">
				<speed>0.000000</speed>
				<ele>38.000000</ele>
				<time>2026-08-17T02:40:01Z</time>
			</trkpt>
			<trkpt lat="30.252018" lon="120.112318">
				<speed>0.000000</speed>
				<ele>38.000000</ele>
				<time>2026-08-17T02:40:02Z</time>
			</trkpt>
			<trkpt lat="30.252008" lon="120.112305">
				<speed>0.000000</speed>
				<ele>38.000000</ele>
				<time>2026-08-17T02:40:03Z</time>
			</trkpt>
			<trkpt lat="30.251976" lon="120.112268">
				<speed>0.000000</speed>
				<ele>38.000000</ele>
				<time>2026-08-17T02:40:04Z</time>
			</trkpt>
			<trkpt lat="30.251966" lon="120.112257">
				<speed>0.000000</speed>
				<ele>38.000000</ele>
				<time>2026-08-17T02:40:05Z</time>
			</trkpt>
			<trkpt lat="30.251955" lon="120.112246">
				<speed>0.000000</speed>
				<ele>38.000000</ele>
				<time>2026-08-17T02:40:06Z</time>
			</trkpt>
			<trkpt lat="30.251944" lon="120.112235">
				<speed>0.000000</speed>
				<ele>38.000000</ele>
				<time>2026-08-17T02:40:07Z</time>
			</trkpt>
			<trkpt lat="30.251912" lon="120.112207">
				<speed>0.000000</speed>
				<ele>38.000000</ele>
				<time>2026-08-17T02:40:08Z</time>
			</trkpt>
			<trkpt lat="30.251901" lon="120.112199">
				<speed>0.000000</speed>
				<ele>38.000000</ele>
				<time>2026-08-17T02:40:09Z</time>
			</trkpt>
			<trkpt lat="30.251889" lon="120.112191">
				<speed>0.000000</speed>
				<ele>38.000000</ele>
				<time>2026-08-17T02:40:10Z</time>
			</trkpt>
			<trkpt lat="30.251878" lon="120.112183">
				<speed>0.000000</speed>
				<ele>38.000000</ele>
				<time>2026-08-17T02:40:11Z</time>
			</trkpt>
			<trkpt lat="30.251843" lon="120.112157">
				<speed>0.000000</speed>
				<ele>38.000000</ele>
				<time>2026-08-17T02:40:12Z</time>
			</trkpt>
			<trkpt lat="30.251831" lon="120.112148">
				<speed>0.000000</speed>
				<ele>38.000000</ele>
				<time>2026-08-17T02:40:13Z</time>
			</trkpt>
			<trkpt lat="30.251820" lon="120.112140">
				<speed>0.000000</speed>
				<ele>38.000000</ele>
				<time>2026-08-17T02:40:14Z</time>
			</trkpt>
			<trkpt lat="30.251808" lon="120.112131">
				<speed>0.000000</speed>
				<ele>38.000000</ele>
				<time>2026-08-17T02:40:15Z</time>
			</trkpt>
			<trkpt lat="30.251773" lon="120.112106">
				<speed>0.000000</speed>
				<ele>38.000000</ele>
				<time>2026-08-17T02:40:16Z</time>
			</trkpt>
			<trkpt lat="30.251761" lon="120.112098">
				<speed>0.000000</speed>
				<ele>38.000000</ele>
				<time>2026-08-17T02:40:17Z</time>
			</trkpt>
			<trkpt lat="30.251750" lon="120.112089">
				<speed>0.000000</speed>
				<ele>38.000000</ele>
				<time>2026-08-17T02:40:18Z</time>
			</trkpt>
			<trkpt lat="30.251739" lon="120.112081">
				<speed>0.000000</speed>
				<ele>38.000000</ele>
				<time>2026-08-17T02:40:19Z</time>
			</trkpt>
			<trkpt lat="30.251707" lon="120.112056">
				<speed>0.000000</speed>
				<ele>38.000000</ele>
				<time>2026-08-17T02:40:20Z</time>
			</trkpt>
			<trkpt lat="30.251696" lon="120.112047">
				<speed>0.000000</speed>
				<ele>38.000000</ele>
				<time>2026-08-17T02:40:21Z</time>
			</trkpt>
			<trkpt lat="30.251685" lon="120.112038">
				<speed>0.000000</speed>
				<ele>38.000000</ele>
				<time>2026-08-17T02:40:22Z</time>
			</trkpt>
			<trkpt lat="30.251675" lon="120.112028">
				<speed>0.000000</speed>
				<ele>38.000000</ele>
				<time>2026-08-17T02:40:23Z</time>
			</trkpt>
			<trkpt lat="30.251643" lon="120.111991">
				<speed>0.000000</speed>
				<ele>38.000000</ele>
				<time>2026-08-17T02:40:24Z</time>
			</trkpt>
			<trkpt lat="30.251634" lon="120.111976">
				<speed>0.000000</speed>
				<ele>38.000000</ele>
				<time>2026-08-17T02:40:25Z</time>
			</trkpt>
			<trkpt lat="30.251625" lon="120.111961">
				<speed>0.000000</speed>
				<ele>38.000000</ele>
				<time>2026-08-17T02:40:26Z</time>
			</trkpt>
			<trkpt lat="30.251616" lon="120.111945">
				<speed>0.000000</speed>
				<ele>38.000000</ele>
				<time>2026-08-17T02:40:27Z</time>
			</trkpt>
			<trkpt lat="30.251590" lon="120.111900">
				<speed>0.000000</speed>
				<ele>38.000000</ele>
				<time>2026-08-17T02:40:28Z</time>
			</trkpt>
			<trkpt lat="30.251581" lon="120.111885">
				<speed>0.000000</speed>
				<ele>38.000000</ele>
				<time>2026-08-17T02:40:29Z</time>
			</trkpt>
			<trkpt lat="30.251572" lon="120.111871">
				<speed>0.000000</speed>
				<ele>38.000000</ele>
				<time>2026-08-17T02:40:30Z</time>
			</trkpt>
			<trkpt lat="30.251563" lon="120.111857">
				<speed>0.000000</speed>
				<ele>38.000000</ele>
				<time>2026-08-17T02:40:31Z</time>
			</trkpt>
			<trkpt lat="30.251539" lon="120.111814">
				<speed>0.000000</speed>
				<ele>38.000000</ele>
				<time>2026-08-17T02:40:32Z</time>
			</trkpt>
			<trkpt lat="30.251532" lon="120.111799">
				<speed>0.000000</speed>
				<ele>38.000000</ele>
				<time>2026-08-17T02:40:33Z</time>
			</trkpt>
			<trkpt lat="30.251525" lon="120.111785">
				<speed>0.000000</speed>
				<ele>38.000000</ele>
				<time>2026-08-17T02:40:34Z</time>
			</trkpt>
			<trkpt lat="30.251518" lon="120.111771">
				<speed>0.000000</speed>
				<ele>38.000000</ele>
				<time>2026-08-17T02:40:35Z</time>
			</trkpt>
			<trkpt lat="30.251497" lon="120.111726">
				<speed>0.000000</speed>
				<ele>38.000000</ele>
				<time>2026-08-17T02:40:36Z</time>
			</trkpt>
			<trkpt lat="30.251491" lon="120.111711">
				<speed>0.000000</speed>
				<ele>38.000000</ele>
				<time>2026-08-17T02:40:37Z</time>
			</trkpt>
			<trkpt lat="30.251484" lon="120.111695">
				<speed>0.000000</speed>
				<ele>38.000000</ele>
				<time>2026-08-17T02:40:38Z</time>
			</trkpt>
			<trkpt lat="30.251478" lon="120.111679">
				<speed>0.000000</speed>
				<ele>38.000000</ele>
				<time>2026-08-17T02:40:39Z</time>
			</trkpt>
			<trkpt lat="30.251457" lon="120.111628">
				<speed>0.000000</speed>
				<ele>38.000000</ele>
				<time>2026-08-17T02:40:40Z</time>
			</trkpt>
			<trkpt lat="30.251450" lon="120.111612">
				<speed>0.000000</speed>
				<ele>38.000000</ele>
				<time>2026-08-17T02:40:41Z</time>
			</trkpt>
			<trkpt lat="30.251443" lon="120.111596">
				<speed>0.000000</speed>
				<ele>38.000000</ele>
				<time>2026-08-17T02:40:42Z</time>
			</trkpt>
			<trkpt lat="30.251437" lon="120.111579">
				<speed>0.000000</speed>
				<ele>38.000000</ele>
				<time>2026-08-17T02:40:43Z</time>
			</trkpt>
			<trkpt lat="30.251419" lon="120.111532">
				<speed>0.000000</speed>
				<ele>38.000000</ele>
				<time>2026-08-17T02:40:44Z</time>
			</trkpt>
			<trkpt lat="30.251413" lon="120.111517">
				<speed>0.000000</speed>
				<ele>38.000000</ele>
				<time>2026-08-17T02:40:45Z</time>
			</trkpt>
			<trkpt lat="30.251408" lon="120.111501">
				<speed>0.000000</speed>
				<ele>38.000000</ele>
				<time>2026-08-17T02:40:46Z</time>
			</trkpt>
			<trkpt lat="30.251403" lon="120.111486">
				<speed>0.000000</speed>
				<ele>38.000000</ele>
				<time>2026-08-17T02:40:47Z</time>
			</trkpt>
			<trkpt lat="30.251387" lon="120.111437">
				<speed>0.000000</speed>
				<ele>38.000000</ele>
				<time>2026-08-17T02:40:48Z</time>
			</trkpt>
			<trkpt lat="30.251381" lon="120.111420">
				<speed>0.000000</speed>
				<ele>38.000000</ele>
				<time>2026-08-17T02:40:49Z</time>
			</trkpt>
			<trkpt lat="30.251375" lon="120.111403">
				<speed>0.000000</speed>
				<ele>38.000000</ele>
				<time>2026-08-17T02:40:50Z</time>
			</trkpt>
			<trkpt lat="30.251370" lon="120.111386">
				<speed>0.000000</speed>
				<ele>38.000000</ele>
				<time>2026-08-17T02:40:51Z</time>
			</trkpt>
			<trkpt lat="30.251354" lon="120.111337">
				<speed>0.000000</speed>
				<ele>38.000000</ele>
				<time>2026-08-17T02:40:52Z</time>
			</trkpt>
			<trkpt lat="30.251349" lon="120.111321">
				<speed>0.000000</speed>
				<ele>39.000000</ele>
				<time>2026-08-17T02:40:53Z</time>
			</trkpt>
			<trkpt lat="30.251344" lon="120.111305">
				<speed>0.000000</speed>
				<ele>39.000000</ele>
				<time>2026-08-17T02:40:54Z</time>
			</trkpt>
			<trkpt lat="30.251339" lon="120.111290">
				<speed>0.000000</speed>
				<ele>39.000000</ele>
				<time>2026-08-17T02:40:55Z</time>
			</trkpt>
			<trkpt lat="30.251325" lon="120.111245">
				<speed>0.000000</speed>
				<ele>39.000000</ele>
				<time>2026-08-17T02:40:56Z</time>
			</trkpt>
			<trkpt lat="30.251321" lon="120.111230">
				<speed>0.000000</speed>
				<ele>39.000000</ele>
				<time>2026-08-17T02:40:57Z</time>
			</trkpt>
			<trkpt lat="30.251317" lon="120.111216">
				<speed>0.000000</speed>
				<ele>39.000000</ele>
				<time>2026-08-17T02:40:58Z</time>
			</trkpt>
			<trkpt lat="30.251313" lon="120.111201">
				<speed>0.000000</speed>
				<ele>39.000000</ele>
				<time>2026-08-17T02:40:59Z</time>
			</trkpt>
			<trkpt lat="30.251304" lon="120.111154">
				<speed>0.000000</speed>
				<ele>39.000000</ele>
				<time>2026-08-17T02:41:00Z</time>
			</trkpt>
			<trkpt lat="30.251302" lon="120.111138">
				<speed>0.000000</speed>
				<ele>39.000000</ele>
				<time>2026-08-17T02:41:01Z</time>
			</trkpt>
			<trkpt lat="30.251299" lon="120.111122">
				<speed>0.000000</speed>
				<ele>39.000000</ele>
				<time>2026-08-17T02:41:02Z</time>
			</trkpt>
			<trkpt lat="30.251296" lon="120.111105">
				<speed>0.000000</speed>
				<ele>39.000000</ele>
				<time>2026-08-17T02:41:03Z</time>
			</trkpt>
			<trkpt lat="30.251289" lon="120.111055">
				<speed>0.000000</speed>
				<ele>39.000000</ele>
				<time>2026-08-17T02:41:04Z</time>
			</trkpt>
			<trkpt lat="30.251286" lon="120.111037">
				<speed>0.000000</speed>
				<ele>39.000000</ele>
				<time>2026-08-17T02:41:05Z</time>
			</trkpt>
			<trkpt lat="30.251283" lon="120.111020">
				<speed>0.000000</speed>
				<ele>39.000000</ele>
				<time>2026-08-17T02:41:06Z</time>
			</trkpt>
			<trkpt lat="30.251281" lon="120.111002">
				<speed>0.000000</speed>
				<ele>39.000000</ele>
				<time>2026-08-17T02:41:07Z</time>
			</trkpt>
			<trkpt lat="30.251274" lon="120.110949">
				<speed>0.000000</speed>
				<ele>39.000000</ele>
				<time>2026-08-17T02:41:08Z</time>
			</trkpt>
			<trkpt lat="30.251273" lon="120.110931">
				<speed>0.000000</speed>
				<ele>39.000000</ele>
				<time>2026-08-17T02:41:09Z</time>
			</trkpt>
			<trkpt lat="30.251271" lon="120.110913">
				<speed>0.000000</speed>
				<ele>39.000000</ele>
				<time>2026-08-17T02:41:10Z</time>
			</trkpt>
			<trkpt lat="30.251269" lon="120.110895">
				<speed>0.000000</speed>
				<ele>39.000000</ele>
				<time>2026-08-17T02:41:11Z</time>
			</trkpt>
			<trkpt lat="30.251265" lon="120.110839">
				<speed>0.000000</speed>
				<ele>39.000000</ele>
				<time>2026-08-17T02:41:12Z</time>
			</trkpt>
			<trkpt lat="30.251263" lon="120.110820">
				<speed>0.000000</speed>
				<ele>40.000000</ele>
				<time>2026-08-17T02:41:13Z</time>
			</trkpt>
			<trkpt lat="30.251261" lon="120.110801">
				<speed>0.000000</speed>
				<ele>40.000000</ele>
				<time>2026-08-17T02:41:14Z</time>
			</trkpt>
			<trkpt lat="30.251259" lon="120.110783">
				<speed>0.000000</speed>
				<ele>40.000000</ele>
				<time>2026-08-17T02:41:15Z</time>
			</trkpt>
			<trkpt lat="30.251253" lon="120.110726">
				<speed>0.000000</speed>
				<ele>40.000000</ele>
				<time>2026-08-17T02:41:16Z</time>
			</trkpt>
			<trkpt lat="30.251250" lon="120.110708">
				<speed>0.000000</speed>
				<ele>40.000000</ele>
				<time>2026-08-17T02:41:17Z</time>
			</trkpt>
			<trkpt lat="30.251248" lon="120.110690">
				<speed>0.000000</speed>
				<ele>40.000000</ele>
				<time>2026-08-17T02:41:18Z</time>
			</trkpt>
			<trkpt lat="30.251245" lon="120.110671">
				<speed>0.000000</speed>
				<ele>40.000000</ele>
				<time>2026-08-17T02:41:19Z</time>
			</trkpt>
			<trkpt lat="30.251234" lon="120.110620">
				<speed>0.000000</speed>
				<ele>40.000000</ele>
				<time>2026-08-17T02:41:20Z</time>
			</trkpt>
			<trkpt lat="30.251230" lon="120.110604">
				<speed>0.000000</speed>
				<ele>40.000000</ele>
				<time>2026-08-17T02:41:21Z</time>
			</trkpt>
			<trkpt lat="30.251225" lon="120.110588">
				<speed>0.000000</speed>
				<ele>40.000000</ele>
				<time>2026-08-17T02:41:22Z</time>
			</trkpt>
			<trkpt lat="30.251221" lon="120.110572">
				<speed>0.000000</speed>
				<ele>40.000000</ele>
				<time>2026-08-17T02:41:23Z</time>
			</trkpt>
			<trkpt lat="30.251206" lon="120.110527">
				<speed>0.000000</speed>
				<ele>40.000000</ele>
				<time>2026-08-17T02:41:24Z</time>
			</trkpt>
			<trkpt lat="30.251199" lon="120.110514">
				<speed>0.000000</speed>
				<ele>40.000000</ele>
				<time>2026-08-17T02:41:25Z</time>
			</trkpt>
			<trkpt lat="30.251193" lon="120.110500">
				<speed>0.000000</speed>
				<ele>40.000000</ele>
				<time>2026-08-17T02:41:26Z</time>
			</trkpt>
			<trkpt lat="30.251186" lon="120.110487">
				<speed>0.000000</speed>
				<ele>40.000000</ele>
				<time>2026-08-17T02:41:27Z</time>
			</trkpt>
			<trkpt lat="30.251161" lon="120.110451">
				<speed>0.000000</speed>
				<ele>40.000000</ele>
				<time>2026-08-17T02:41:28Z</time>
			</trkpt>
			<trkpt lat="30.251150" lon="120.110441">
				<speed>0.000000</speed>
				<ele>40.000000</ele>
				<time>2026-08-17T02:41:29Z</time>
			</trkpt>
			<trkpt lat="30.251139" lon="120.110431">
				<speed>0.000000</speed>
				<ele>40.000000</ele>
				<time>2026-08-17T02:41:30Z</time>
			</trkpt>
			<trkpt lat="30.251128" lon="120.110421">
				<speed>0.000000</speed>
				<ele>40.000000</ele>
				<time>2026-08-17T02:41:31Z</time>
			</trkpt>
			<trkpt lat="30.251091" lon="120.110397">
				<speed>0.000000</speed>
				<ele>40.000000</ele>
				<time>2026-08-17T02:41:32Z</time>
			</trkpt>
			<trkpt lat="30.251077" lon="120.110390">
				<speed>0.000000</speed>
				<ele>41.000000</ele>
				<time>2026-08-17T02:41:33Z</time>
			</trkpt>
			<trkpt lat="30.251064" lon="120.110384">
				<speed>0.000000</speed>
				<ele>41.000000</ele>
				<time>2026-08-17T02:41:34Z</time>
			</trkpt>
			<trkpt lat="30.251050" lon="120.110377">
				<speed>0.000000</speed>
				<ele>41.000000</ele>
				<time>2026-08-17T02:41:35Z</time>
			</trkpt>
			<trkpt lat="30.251008" lon="120.110366">
				<speed>0.000000</speed>
				<ele>41.000000</ele>
				<time>2026-08-17T02:41:36Z</time>
			</trkpt>
			<trkpt lat="30.250993" lon="120.110364">
				<speed>0.000000</speed>
				<ele>41.000000</ele>
				<time>2026-08-17T02:41:37Z</time>
			</trkpt>
			<trkpt lat="30.250978" lon="120.110362">
				<speed>0.000000</speed>
				<ele>41.000000</ele>
				<time>2026-08-17T02:41:38Z</time>
			</trkpt>
			<trkpt lat="30.250964" lon="120.110361">
				<speed>0.000000</speed>
				<ele>41.000000</ele>
				<time>2026-08-17T02:41:39Z</time>
			</trkpt>
			<trkpt lat="30.250917" lon="120.110359">
				<speed>0.000000</speed>
				<ele>41.000000</ele>
				<time>2026-08-17T02:41:40Z</time>
			</trkpt>
			<trkpt lat="30.250901" lon="120.110360">
				<speed>0.000000</speed>
				<ele>41.000000</ele>
				<time>2026-08-17T02:41:41Z</time>
			</trkpt>
			<trkpt lat="30.250885" lon="120.110360">
				<speed>0.000000</speed>
				<ele>41.000000</ele>
				<time>2026-08-17T02:41:42Z</time>
			</trkpt>
			<trkpt lat="30.250868" lon="120.110361">
				<speed>0.000000</speed>
				<ele>41.000000</ele>
				<time>2026-08-17T02:41:43Z</time>
			</trkpt>
			<trkpt lat="30.250819" lon="120.110365">
				<speed>0.000000</speed>
				<ele>41.000000</ele>
				<time>2026-08-17T02:41:44Z</time>
			</trkpt>
			<trkpt lat="30.250803" lon="120.110366">
				<speed>0.000000</speed>
				<ele>41.000000</ele>
				<time>2026-08-17T02:41:45Z</time>
			</trkpt>
			<trkpt lat="30.250786" lon="120.110368">
				<speed>0.000000</speed>
				<ele>41.000000</ele>
				<time>2026-08-17T02:41:46Z</time>
			</trkpt>
			<trkpt lat="30.250770" lon="120.110369">
				<speed>0.000000</speed>
				<ele>41.000000</ele>
				<time>2026-08-17T02:41:47Z</time>
			</trkpt>
			<trkpt lat="30.250723" lon="120.110371">
				<speed>0.000000</speed>
				<ele>41.000000</ele>
				<time>2026-08-17T02:41:48Z</time>
			</trkpt>
			<trkpt lat="30.250707" lon="120.110370">
				<speed>0.000000</speed>
				<ele>41.000000</ele>
				<time>2026-08-17T02:41:49Z</time>
			</trkpt>
			<trkpt lat="30.250691" lon="120.110369">
				<speed>0.000000</speed>
				<ele>41.000000</ele>
				<time>2026-08-17T02:41:50Z</time>
			</trkpt>
			<trkpt lat="30.250675" lon="120.110368">
				<speed>0.000000</speed>
				<ele>41.000000</ele>
				<time>2026-08-17T02:41:51Z</time>
			</trkpt>
			<trkpt lat="30.250628" lon="120.110362">
				<speed>0.000000</speed>
				<ele>41.000000</ele>
				<time>2026-08-17T02:41:52Z</time>
			</trkpt>
			<trkpt lat="30.250613" lon="120.110359">
				<speed>0.000000</speed>
				<ele>41.000000</ele>
				<time>2026-08-17T02:41:53Z</time>
			</trkpt>
			<trkpt lat="30.250598" lon="120.110356">
				<speed>0.000000</speed>
				<ele>41.000000</ele>
				<time>2026-08-17T02:41:54Z</time>
			</trkpt>
			<trkpt lat="30.250582" lon="120.110354">
				<speed>0.000000</speed>
				<ele>41.000000</ele>
				<time>2026-08-17T02:41:55Z</time>
			</trkpt>
			<trkpt lat="30.250539" lon="120.110342">
				<speed>0.000000</speed>
				<ele>41.000000</ele>
				<time>2026-08-17T02:41:56Z</time>
			</trkpt>
			<trkpt lat="30.250525" lon="120.110336">
				<speed>0.000000</speed>
				<ele>41.000000</ele>
				<time>2026-08-17T02:41:57Z</time>
			</trkpt>
			<trkpt lat="30.250511" lon="120.110331">
				<speed>0.000000</speed>
				<ele>41.000000</ele>
				<time>2026-08-17T02:41:58Z</time>
			</trkpt>
			<trkpt lat="30.250497" lon="120.110326">
				<speed>0.000000</speed>
				<ele>41.000000</ele>
				<time>2026-08-17T02:41:59Z</time>
			</trkpt>
			<trkpt lat="30.250458" lon="120.110306">
				<speed>0.000000</speed>
				<ele>41.000000</ele>
				<time>2026-08-17T02:42:00Z</time>
			</trkpt>
			<trkpt lat="30.250446" lon="120.110298">
				<speed>0.000000</speed>
				<ele>41.000000</ele>
				<time>2026-08-17T02:42:01Z</time>
			</trkpt>
			<trkpt lat="30.250434" lon="120.110291">
				<speed>0.000000</speed>
				<ele>41.000000</ele>
				<time>2026-08-17T02:42:02Z</time>
			</trkpt>
			<trkpt lat="30.250421" lon="120.110284">
				<speed>0.000000</speed>
				<ele>41.000000</ele>
				<time>2026-08-17T02:42:03Z</time>
			</trkpt>
			<trkpt lat="30.250385" lon="120.110259">
				<speed>0.000000</speed>
				<ele>41.000000</ele>
				<time>2026-08-17T02:42:04Z</time>
			</trkpt>
			<trkpt lat="30.250374" lon="120.110251">
				<speed>0.000000</speed>
				<ele>41.000000</ele>
				<time>2026-08-17T02:42:05Z</time>
			</trkpt>
			<trkpt lat="30.250362" lon="120.110242">
				<speed>0.000000</speed>
				<ele>41.000000</ele>
				<time>2026-08-17T02:42:06Z</time>
			</trkpt>
			<trkpt lat="30.250350" lon="120.110234">
				<speed>0.000000</speed>
				<ele>41.000000</ele>
				<time>2026-08-17T02:42:07Z</time>
			</trkpt>
			<trkpt lat="30.250315" lon="120.110207">
				<speed>0.000000</speed>
				<ele>41.000000</ele>
				<time>2026-08-17T02:42:08Z</time>
			</trkpt>
			<trkpt lat="30.250302" lon="120.110198">
				<speed>0.000000</speed>
				<ele>41.000000</ele>
				<time>2026-08-17T02:42:09Z</time>
			</trkpt>
			<trkpt lat="30.250290" lon="120.110188">
				<speed>0.000000</speed>
				<ele>41.000000</ele>
				<time>2026-08-17T02:42:10Z</time>
			</trkpt>
			<trkpt lat="30.250278" lon="120.110179">
				<speed>0.000000</speed>
				<ele>41.000000</ele>
				<time>2026-08-17T02:42:11Z</time>
			</trkpt>
			<trkpt lat="30.250243" lon="120.110151">
				<speed>0.000000</speed>
				<ele>41.000000</ele>
				<time>2026-08-17T02:42:12Z</time>
			</trkpt>
			<trkpt lat="30.250231" lon="120.110142">
				<speed>0.000000</speed>
				<ele>41.000000</ele>
				<time>2026-08-17T02:42:13Z</time>
			</trkpt>
			<trkpt lat="30.250219" lon="120.110132">
				<speed>0.000000</speed>
				<ele>41.000000</ele>
				<time>2026-08-17T02:42:14Z</time>
			</trkpt>
			<trkpt lat="30.250207" lon="120.110122">
				<speed>0.000000</speed>
				<ele>41.000000</ele>
				<time>2026-08-17T02:42:15Z</time>
			</trkpt>
			<trkpt lat="30.250171" lon="120.110092">
				<speed>0.000000</speed>
				<ele>41.000000</ele>
				<time>2026-08-17T02:42:16Z</time>
			</trkpt>
			<trkpt lat="30.250159" lon="120.110083">
				<speed>0.000000</speed>
				<ele>41.000000</ele>
				<time>2026-08-17T02:42:17Z</time>
			</trkpt>
			<trkpt lat="30.250147" lon="120.110072">
				<speed>0.000000</speed>
				<ele>41.000000</ele>
				<time>2026-08-17T02:42:18Z</time>
			</trkpt>
			<trkpt lat="30.250135" lon="120.110062">
				<speed>0.000000</speed>
				<ele>41.000000</ele>
				<time>2026-08-17T02:42:19Z</time>
			</trkpt>
			<trkpt lat="30.250100" lon="120.110032">
				<speed>0.000000</speed>
				<ele>41.000000</ele>
				<time>2026-08-17T02:42:20Z</time>
			</trkpt>
			<trkpt lat="30.250089" lon="120.110022">
				<speed>0.000000</speed>
				<ele>41.000000</ele>
				<time>2026-08-17T02:42:21Z</time>
			</trkpt>
			<trkpt lat="30.250078" lon="120.110011">
				<speed>0.000000</speed>
				<ele>41.000000</ele>
				<time>2026-08-17T02:42:22Z</time>
			</trkpt>
			<trkpt lat="30.250067" lon="120.110000">
				<speed>0.000000</speed>
				<ele>41.000000</ele>
				<time>2026-08-17T02:42:23Z</time>
			</trkpt>
			<trkpt lat="30.250033" lon="120.109966">
				<speed>0.000000</speed>
				<ele>41.000000</ele>
				<time>2026-08-17T02:42:24Z</time>
			</trkpt>
			<trkpt lat="30.250022" lon="120.109955">
				<speed>0.000000</speed>
				<ele>41.000000</ele>
				<time>2026-08-17T02:42:25Z</time>
			</trkpt>
			<trkpt lat="30.250011" lon="120.109943">
				<speed>0.000000</speed>
				<ele>41.000000</ele>
				<time>2026-08-17T02:42:26Z</time>
			</trkpt>
			<trkpt lat="30.249999" lon="120.109931">
				<speed>0.000000</speed>
				<ele>41.000000</ele>
				<time>2026-08-17T02:42:27Z</time>
			</trkpt>
			<trkpt lat="30.249968" lon="120.109895">
				<speed>0.000000</speed>
				<ele>41.000000</ele>
				<time>2026-08-17T02:42:28Z</time>
			</trkpt>
			<trkpt lat="30.249958" lon="120.109882">
				<speed>0.000000</speed>
				<ele>41.000000</ele>
				<time>2026-08-17T02:42:29Z</time>
			</trkpt>
			<trkpt lat="30.249948" lon="120.109869">
				<speed>0.000000</speed>
				<ele>41.000000</ele>
				<time>2026-08-17T02:42:30Z</time>
			</trkpt>
			<trkpt lat="30.249938" lon="120.109855">
				<speed>0.000000</speed>
				<ele>41.000000</ele>
				<time>2026-08-17T02:42:31Z</time>
			</trkpt>
			<trkpt lat="30.249908" lon="120.109812">
				<speed>0.000000</speed>
				<ele>41.000000</ele>
				<time>2026-08-17T02:42:32Z</time>
			</trkpt>
			<trkpt lat="30.249899" lon="120.109796">
				<speed>0.000000</speed>
				<ele>41.000000</ele>
				<time>2026-08-17T02:42:33Z</time>
			</trkpt>
			<trkpt lat="30.249889" lon="120.109780">
				<speed>0.000000</speed>
				<ele>41.000000</ele>
				<time>2026-08-17T02:42:34Z</time>
			</trkpt>
			<trkpt lat="30.249880" lon="120.109764">
				<speed>0.000000</speed>
				<ele>41.000000</ele>
				<time>2026-08-17T02:42:35Z</time>
			</trkpt>
			<trkpt lat="30.249852" lon="120.109708">
				<speed>0.000000</speed>
				<ele>41.000000</ele>
				<time>2026-08-17T02:42:36Z</time>
			</trkpt>
			<trkpt lat="30.249843" lon="120.109689">
				<speed>0.000000</speed>
				<ele>41.000000</ele>
				<time>2026-08-17T02:42:37Z</time>
			</trkpt>
			<trkpt lat="30.249835" lon="120.109669">
				<speed>0.000000</speed>
				<ele>41.000000</ele>
				<time>2026-08-17T02:42:38Z</time>
			</trkpt>
			<trkpt lat="30.249826" lon="120.109650">
				<speed>0.000000</speed>
				<ele>41.000000</ele>
				<time>2026-08-17T02:42:39Z</time>
			</trkpt>
			<trkpt lat="30.249801" lon="120.109591">
				<speed>0.000000</speed>
				<ele>41.000000</ele>
				<time>2026-08-17T02:42:40Z</time>
			</trkpt>
			<trkpt lat="30.249793" lon="120.109571">
				<speed>0.000000</speed>
				<ele>41.000000</ele>
				<time>2026-08-17T02:42:41Z</time>
			</trkpt>
			<trkpt lat="30.249785" lon="120.109551">
				<speed>0.000000</speed>
				<ele>41.000000</ele>
				<time>2026-08-17T02:42:42Z</time>
			</trkpt>
			<trkpt lat="30.249777" lon="120.109531">
				<speed>0.000000</speed>
				<ele>41.000000</ele>
				<time>2026-08-17T02:42:43Z</time>
			</trkpt>
			<trkpt lat="30.249754" lon="120.109473">
				<speed>0.000000</speed>
				<ele>41.000000</ele>
				<time>2026-08-17T02:42:44Z</time>
			</trkpt>
			<trkpt lat="30.249746" lon="120.109454">
				<speed>0.000000</speed>
				<ele>41.000000</ele>
				<time>2026-08-17T02:42:45Z</time>
			</trkpt>
			<trkpt lat="30.249739" lon="120.109436">
				<speed>0.000000</speed>
				<ele>41.000000</ele>
				<time>2026-08-17T02:42:46Z</time>
			</trkpt>
			<trkpt lat="30.249732" lon="120.109417">
				<speed>0.000000</speed>
				<ele>41.000000</ele>
				<time>2026-08-17T02:42:47Z</time>
			</trkpt>
			<trkpt lat="30.249711" lon="120.109363">
				<speed>0.000000</speed>
				<ele>41.000000</ele>
				<time>2026-08-17T02:42:48Z</time>
			</trkpt>
			<trkpt lat="30.249703" lon="120.109346">
				<speed>0.000000</speed>
				<ele>41.000000</ele>
				<time>2026-08-17T02:42:49Z</time>
			</trkpt>
			<trkpt lat="30.249696" lon="120.109329">
				<speed>0.000000</speed>
				<ele>41.000000</ele>
				<time>2026-08-17T02:42:50Z</time>
			</trkpt>
			<trkpt lat="30.249688" lon="120.109312">
				<speed>0.000000</speed>
				<ele>41.000000</ele>
				<time>2026-08-17T02:42:51Z</time>
			</trkpt>
			<trkpt lat="30.249664" lon="120.109264">
				<speed>0.000000</speed>
				<ele>41.000000</ele>
				<time>2026-08-17T02:42:52Z</time>
			</trkpt>
			<trkpt lat="30.249656" lon="120.109249">
				<speed>0.000000</speed>
				<ele>41.000000</ele>
				<time>2026-08-17T02:42:53Z</time>
			</trkpt>
			<trkpt lat="30.249648" lon="120.109234">
				<speed>0.000000</speed>
				<ele>41.000000</ele>
				<time>2026-08-17T02:42:54Z</time>
			</trkpt>
			<trkpt lat="30.249640" lon="120.109219">
				<speed>0.000000</speed>
				<ele>41.000000</ele>
				<time>2026-08-17T02:42:55Z</time>
			</trkpt>
			<trkpt lat="30.249617" lon="120.109177">
				<speed>0.000000</speed>
				<ele>41.000000</ele>
				<time>2026-08-17T02:42:56Z</time>
			</trkpt>
			<trkpt lat="30.249610" lon="120.109164">
				<speed>0.000000</speed>
				<ele>41.000000</ele>
				<time>2026-08-17T02:42:57Z</time>
			</trkpt>
			<trkpt lat="30.249603" lon="120.109151">
				<speed>0.000000</speed>
				<ele>41.000000</ele>
				<time>2026-08-17T02:42:58Z</time>
			</trkpt>
			<trkpt lat="30.249596" lon="120.109138">
				<speed>0.000000</speed>
				<ele>41.000000</ele>
				<time>2026-08-17T02:42:59Z</time>
			</trkpt>
			<trkpt lat="30.249573" lon="120.109102">
				<speed>0.000000</speed>
				<ele>41.000000</ele>
				<time>2026-08-17T02:43:00Z</time>
			</trkpt>
			<trkpt lat="30.249566" lon="120.109090">
				<speed>0.000000</speed>
				<ele>41.000000</ele>
				<time>2026-08-17T02:43:01Z</time>
			</trkpt>
			<trkpt lat="30.249558" lon="120.109079">
				<speed>0.000000</speed>
				<ele>41.000000</ele>
				<time>2026-08-17T02:43:02Z</time>
			</trkpt>
			<trkpt lat="30.249550" lon="120.109067">
				<speed>0.000000</speed>
				<ele>41.000000</ele>
				<time>2026-08-17T02:43:03Z</time>
			</trkpt>
			<trkpt lat="30.249523" lon="120.109031">
				<speed>0.000000</speed>
				<ele>41.000000</ele>
				<time>2026-08-17T02:43:04Z</time>
			</trkpt>
			<trkpt lat="30.249512" lon="120.109020">
				<speed>0.000000</speed>
				<ele>41.000000</ele>
				<time>2026-08-17T02:43:05Z</time>
			</trkpt>
			<trkpt lat="30.249501" lon="120.109008">
				<speed>0.000000</speed>
				<ele>41.000000</ele>
				<time>2026-08-17T02:43:06Z</time>
			</trkpt>
			<trkpt lat="30.249490" lon="120.108997">
				<speed>0.000000</speed>
				<ele>41.000000</ele>
				<time>2026-08-17T02:43:07Z</time>
			</trkpt>
			<trkpt lat="30.249452" lon="120.108971">
				<speed>0.000000</speed>
				<ele>41.000000</ele>
				<time>2026-08-17T02:43:08Z</time>
			</trkpt>
			<trkpt lat="30.249438" lon="120.108967">
				<speed>0.000000</speed>
				<ele>41.000000</ele>
				<time>2026-08-17T02:43:09Z</time>
			</trkpt>
			<trkpt lat="30.249423" lon="120.108963">
				<speed>0.000000</speed>
				<ele>41.000000</ele>
				<time>2026-08-17T02:43:10Z</time>
			</trkpt>
			<trkpt lat="30.249409" lon="120.108959">
				<speed>0.000000</speed>
				<ele>41.000000</ele>
				<time>2026-08-17T02:43:11Z</time>
			</trkpt>
			<trkpt lat="30.249365" lon="120.108962">
				<speed>0.000000</speed>
				<ele>41.000000</ele>
				<time>2026-08-17T02:43:12Z</time>
			</trkpt>
			<trkpt lat="30.249351" lon="120.108966">
				<speed>0.000000</speed>
				<ele>41.000000</ele>
				<time>2026-08-17T02:43:13Z</time>
			</trkpt>
			<trkpt lat="30.249336" lon="120.108971">
				<speed>0.000000</speed>
				<ele>41.000000</ele>
				<time>2026-08-17T02:43:14Z</time>
			</trkpt>
			<trkpt lat="30.249322" lon="120.108976">
				<speed>0.000000</speed>
				<ele>41.000000</ele>
				<time>2026-08-17T02:43:15Z</time>
			</trkpt>
			<trkpt lat="30.249283" lon="120.108997">
				<speed>0.000000</speed>
				<ele>41.000000</ele>
				<time>2026-08-17T02:43:16Z</time>
			</trkpt>
			<trkpt lat="30.249273" lon="120.109007">
				<speed>0.000000</speed>
				<ele>41.000000</ele>
				<time>2026-08-17T02:43:17Z</time>
			</trkpt>
			<trkpt lat="30.249262" lon="120.109016">
				<speed>0.000000</speed>
				<ele>41.000000</ele>
				<time>2026-08-17T02:43:18Z</time>
			</trkpt>
			<trkpt lat="30.249252" lon="120.109025">
				<speed>0.000000</speed>
				<ele>41.000000</ele>
				<time>2026-08-17T02:43:19Z</time>
			</trkpt>
			<trkpt lat="30.249225" lon="120.109056">
				<speed>0.000000</speed>
				<ele>41.000000</ele>
				<time>2026-08-17T02:43:20Z</time>
			</trkpt>
			<trkpt lat="30.249214" lon="120.109064">
				<speed>0.000000</speed>
				<ele>41.000000</ele>
				<time>2026-08-17T02:43:21Z</time>
			</trkpt>
			<trkpt lat="30.249204" lon="120.109072">
				<speed>0.000000</speed>
				<ele>41.000000</ele>
				<time>2026-08-17T02:43:22Z</time>
			</trkpt>
			<trkpt lat="30.249194" lon="120.109080">
				<speed>0.000000</speed>
				<ele>41.000000</ele>
				<time>2026-08-17T02:43:23Z</time>
			</trkpt>
			<trkpt lat="30.249153" lon="120.109091">
				<speed>0.000000</speed>
				<ele>41.000000</ele>
				<time>2026-08-17T02:43:24Z</time>
			</trkpt>
			<trkpt lat="30.249137" lon="120.109093">
				<speed>0.000000</speed>
				<ele>41.000000</ele>
				<time>2026-08-17T02:43:25Z</time>
			</trkpt>
			<trkpt lat="30.249121" lon="120.109094">
				<speed>0.000000</speed>
				<ele>41.000000</ele>
				<time>2026-08-17T02:43:26Z</time>
			</trkpt>
			<trkpt lat="30.249105" lon="120.109095">
				<speed>0.000000</speed>
				<ele>41.000000</ele>
				<time>2026-08-17T02:43:27Z</time>
			</trkpt>
			<trkpt lat="30.249057" lon="120.109104">
				<speed>0.000000</speed>
				<ele>41.000000</ele>
				<time>2026-08-17T02:43:28Z</time>
			</trkpt>
			<trkpt lat="30.249043" lon="120.109110">
				<speed>0.000000</speed>
				<ele>41.000000</ele>
				<time>2026-08-17T02:43:29Z</time>
			</trkpt>
			<trkpt lat="30.249028" lon="120.109116">
				<speed>0.000000</speed>
				<ele>41.000000</ele>
				<time>2026-08-17T02:43:30Z</time>
			</trkpt>
			<trkpt lat="30.249014" lon="120.109123">
				<speed>0.000000</speed>
				<ele>41.000000</ele>
				<time>2026-08-17T02:43:31Z</time>
			</trkpt>
			<trkpt lat="30.248977" lon="120.109145">
				<speed>0.000000</speed>
				<ele>41.000000</ele>
				<time>2026-08-17T02:43:32Z</time>
			</trkpt>
			<trkpt lat="30.248965" lon="120.109152">
				<speed>0.000000</speed>
				<ele>41.000000</ele>
				<time>2026-08-17T02:43:33Z</time>
			</trkpt>
			<trkpt lat="30.248953" lon="120.109159">
				<speed>0.000000</speed>
				<ele>40.000000</ele>
				<time>2026-08-17T02:43:34Z</time>
			</trkpt>
			<trkpt lat="30.248940" lon="120.109165">
				<speed>0.000000</speed>
				<ele>40.000000</ele>
				<time>2026-08-17T02:43:35Z</time>
			</trkpt>
			<trkpt lat="30.248901" lon="120.109178">
				<speed>0.000000</speed>
				<ele>40.000000</ele>
				<time>2026-08-17T02:43:36Z</time>
			</trkpt>
			<trkpt lat="30.248886" lon="120.109180">
				<speed>0.000000</speed>
				<ele>40.000000</ele>
				<time>2026-08-17T02:43:37Z</time>
			</trkpt>
			<trkpt lat="30.248871" lon="120.109183">
				<speed>0.000000</speed>
				<ele>40.000000</ele>
				<time>2026-08-17T02:43:38Z</time>
			</trkpt>
			<trkpt lat="30.248857" lon="120.109185">
				<speed>0.000000</speed>
				<ele>40.000000</ele>
				<time>2026-08-17T02:43:39Z</time>
			</trkpt>
			<trkpt lat="30.248810" lon="120.109186">
				<speed>0.000000</speed>
				<ele>40.000000</ele>
				<time>2026-08-17T02:43:40Z</time>
			</trkpt>
			<trkpt lat="30.248794" lon="120.109184">
				<speed>0.000000</speed>
				<ele>40.000000</ele>
				<time>2026-08-17T02:43:41Z</time>
			</trkpt>
			<trkpt lat="30.248778" lon="120.109181">
				<speed>0.000000</speed>
				<ele>40.000000</ele>
				<time>2026-08-17T02:43:42Z</time>
			</trkpt>
			<trkpt lat="30.248763" lon="120.109179">
				<speed>0.000000</speed>
				<ele>40.000000</ele>
				<time>2026-08-17T02:43:43Z</time>
			</trkpt>
			<trkpt lat="30.248721" lon="120.109163">
				<speed>0.000000</speed>
				<ele>40.000000</ele>
				<time>2026-08-17T02:43:44Z</time>
			</trkpt>
			<trkpt lat="30.248711" lon="120.109155">
				<speed>0.000000</speed>
				<ele>40.000000</ele>
				<time>2026-08-17T02:43:45Z</time>
			</trkpt>
			<trkpt lat="30.248701" lon="120.109147">
				<speed>0.000000</speed>
				<ele>40.000000</ele>
				<time>2026-08-17T02:43:46Z</time>
			</trkpt>
			<trkpt lat="30.248691" lon="120.109139">
				<speed>0.000000</speed>
				<ele>40.000000</ele>
				<time>2026-08-17T02:43:47Z</time>
			</trkpt>
			<trkpt lat="30.248674" lon="120.109113">
				<speed>0.000000</speed>
				<ele>40.000000</ele>
				<time>2026-08-17T02:43:48Z</time>
			</trkpt>
			<trkpt lat="30.248670" lon="120.109105">
				<speed>0.000000</speed>
				<ele>40.000000</ele>
				<time>2026-08-17T02:43:49Z</time>
			</trkpt>
			<trkpt lat="30.248667" lon="120.109097">
				<speed>0.000000</speed>
				<ele>40.000000</ele>
				<time>2026-08-17T02:43:50Z</time>
			</trkpt>
			<trkpt lat="30.248664" lon="120.109089">
				<speed>0.000000</speed>
				<ele>40.000000</ele>
				<time>2026-08-17T02:43:51Z</time>
			</trkpt>
			<trkpt lat="30.248661" lon="120.109069">
				<speed>0.000000</speed>
				<ele>40.000000</ele>
				<time>2026-08-17T02:43:52Z</time>
			</trkpt>
			<trkpt lat="30.248660" lon="120.109063">
				<speed>0.000000</speed>
				<ele>40.000000</ele>
				<time>2026-08-17T02:43:53Z</time>
			</trkpt>
			<trkpt lat="30.248659" lon="120.109057">
				<speed>0.000000</speed>
				<ele>40.000000</ele>
				<time>2026-08-17T02:43:54Z</time>
			</trkpt>
			<trkpt lat="30.248659" lon="120.109050">
				<speed>0.000000</speed>
				<ele>40.000000</ele>
				<time>2026-08-17T02:43:55Z</time>
			</trkpt>
			<trkpt lat="30.248656" lon="120.109031">
				<speed>0.000000</speed>
				<ele>40.000000</ele>
				<time>2026-08-17T02:43:56Z</time>
			</trkpt>
			<trkpt lat="30.248653" lon="120.109024">
				<speed>0.000000</speed>
				<ele>40.000000</ele>
				<time>2026-08-17T02:43:57Z</time>
			</trkpt>
			<trkpt lat="30.248651" lon="120.109017">
				<speed>0.000000</speed>
				<ele>40.000000</ele>
				<time>2026-08-17T02:43:58Z</time>
			</trkpt>
			<trkpt lat="30.248648" lon="120.109010">
				<speed>0.000000</speed>
				<ele>40.000000</ele>
				<time>2026-08-17T02:43:59Z</time>
			</trkpt>
			<trkpt lat="30.248630" lon="120.108994">
				<speed>0.000000</speed>
				<ele>40.000000</ele>
				<time>2026-08-17T02:44:00Z</time>
			</trkpt>
			<trkpt lat="30.248619" lon="120.108992">
				<speed>0.000000</speed>
				<ele>40.000000</ele>
				<time>2026-08-17T02:44:01Z</time>
			</trkpt>
			<trkpt lat="30.248607" lon="120.108990">
				<speed>0.000000</speed>
				<ele>40.000000</ele>
				<time>2026-08-17T02:44:02Z</time>
			</trkpt>
			<trkpt lat="30.248596" lon="120.108987">
				<speed>0.000000</speed>
				<ele>40.000000</ele>
				<time>2026-08-17T02:44:03Z</time>
			</trkpt>
			<trkpt lat="30.248553" lon="120.108993">
				<speed>0.000000</speed>
				<ele>40.000000</ele>
				<time>2026-08-17T02:44:04Z</time>
			</trkpt>
			<trkpt lat="30.248538" lon="120.108998">
				<speed>0.000000</speed>
				<ele>40.000000</ele>
				<time>2026-08-17T02:44:05Z</time>
			</trkpt>
			<trkpt lat="30.248523" lon="120.109004">
				<speed>0.000000</speed>
				<ele>40.000000</ele>
				<time>2026-08-17T02:44:06Z</time>
			</trkpt>
			<trkpt lat="30.248508" lon="120.109010">
				<speed>0.000000</speed>
				<ele>40.000000</ele>
				<time>2026-08-17T02:44:07Z</time>
			</trkpt>
			<trkpt lat="30.248464" lon="120.109035">
				<speed>0.000000</speed>
				<ele>40.000000</ele>
				<time>2026-08-17T02:44:08Z</time>
			</trkpt>
			<trkpt lat="30.248450" lon="120.109045">
				<speed>0.000000</speed>
				<ele>40.000000</ele>
				<time>2026-08-17T02:44:09Z</time>
			</trkpt>
			<trkpt lat="30.248436" lon="120.109054">
				<speed>0.000000</speed>
				<ele>40.000000</ele>
				<time>2026-08-17T02:44:10Z</time>
			</trkpt>
			<trkpt lat="30.248423" lon="120.109063">
				<speed>0.000000</speed>
				<ele>40.000000</ele>
				<time>2026-08-17T02:44:11Z</time>
			</trkpt>
			<trkpt lat="30.248384" lon="120.109090">
				<speed>0.000000</speed>
				<ele>40.000000</ele>
				<time>2026-08-17T02:44:12Z</time>
			</trkpt>
			<trkpt lat="30.248371" lon="120.109099">
				<speed>0.000000</speed>
				<ele>40.000000</ele>
				<time>2026-08-17T02:44:13Z</time>
			</trkpt>
			<trkpt lat="30.248358" lon="120.109108">
				<speed>0.000000</speed>
				<ele>40.000000</ele>
				<time>2026-08-17T02:44:14Z</time>
			</trkpt>
			<trkpt lat="30.248345" lon="120.109116">
				<speed>0.000000</speed>
				<ele>40.000000</ele>
				<time>2026-08-17T02:44:15Z</time>
			</trkpt>
			<trkpt lat="30.248307" lon="120.109140">
				<speed>0.000000</speed>
				<ele>40.000000</ele>
				<time>2026-08-17T02:44:16Z</time>
			</trkpt>
			<trkpt lat="30.248293" lon="120.109147">
				<speed>0.000000</speed>
				<ele>41.000000</ele>
				<time>2026-08-17T02:44:17Z</time>
			</trkpt>
			<trkpt lat="30.248280" lon="120.109154">
				<speed>0.000000</speed>
				<ele>41.000000</ele>
				<time>2026-08-17T02:44:18Z</time>
			</trkpt>
			<trkpt lat="30.248267" lon="120.109161">
				<speed>0.000000</speed>
				<ele>41.000000</ele>
				<time>2026-08-17T02:44:19Z</time>
			</trkpt>
			<trkpt lat="30.248227" lon="120.109182">
				<speed>0.000000</speed>
				<ele>41.000000</ele>
				<time>2026-08-17T02:44:20Z</time>
			</trkpt>
			<trkpt lat="30.248214" lon="120.109188">
				<speed>0.000000</speed>
				<ele>41.000000</ele>
				<time>2026-08-17T02:44:21Z</time>
			</trkpt>
			<trkpt lat="30.248201" lon="120.109194">
				<speed>0.000000</speed>
				<ele>41.000000</ele>
				<time>2026-08-17T02:44:22Z</time>
			</trkpt>
			<trkpt lat="30.248188" lon="120.109201">
				<speed>0.000000</speed>
				<ele>41.000000</ele>
				<time>2026-08-17T02:44:23Z</time>
			</trkpt>
			<trkpt lat="30.248147" lon="120.109216">
				<speed>0.000000</speed>
				<ele>41.000000</ele>
				<time>2026-08-17T02:44:24Z</time>
			</trkpt>
			<trkpt lat="30.248132" lon="120.109221">
				<speed>0.000000</speed>
				<ele>41.000000</ele>
				<time>2026-08-17T02:44:25Z</time>
			</trkpt>
			<trkpt lat="30.248118" lon="120.109225">
				<speed>0.000000</speed>
				<ele>41.000000</ele>
				<time>2026-08-17T02:44:26Z</time>
			</trkpt>
			<trkpt lat="30.248103" lon="120.109229">
				<speed>0.000000</speed>
				<ele>41.000000</ele>
				<time>2026-08-17T02:44:27Z</time>
			</trkpt>
			<trkpt lat="30.248058" lon="120.109243">
				<speed>0.000000</speed>
				<ele>41.000000</ele>
				<time>2026-08-17T02:44:28Z</time>
			</trkpt>
			<trkpt lat="30.248042" lon="120.109247">
				<speed>0.000000</speed>
				<ele>41.000000</ele>
				<time>2026-08-17T02:44:29Z</time>
			</trkpt>
			<trkpt lat="30.248027" lon="120.109251">
				<speed>0.000000</speed>
				<ele>41.000000</ele>
				<time>2026-08-17T02:44:30Z</time>
			</trkpt>
			<trkpt lat="30.248012" lon="120.109255">
				<speed>0.000000</speed>
				<ele>41.000000</ele>
				<time>2026-08-17T02:44:31Z</time>
			</trkpt>
			<trkpt lat="30.247967" lon="120.109268">
				<speed>0.000000</speed>
				<ele>41.000000</ele>
				<time>2026-08-17T02:44:32Z</time>
			</trkpt>
			<trkpt lat="30.247952" lon="120.109273">
				<speed>0.000000</speed>
				<ele>41.000000</ele>
				<time>2026-08-17T02:44:33Z</time>
			</trkpt>
			<trkpt lat="30.247937" lon="120.109279">
				<speed>0.000000</speed>
				<ele>41.000000</ele>
				<time>2026-08-17T02:44:34Z</time>
			</trkpt>
			<trkpt lat="30.247923" lon="120.109284">
				<speed>0.000000</speed>
				<ele>41.000000</ele>
				<time>2026-08-17T02:44:35Z</time>
			</trkpt>
			<trkpt lat="30.247879" lon="120.109302">
				<speed>0.000000</speed>
				<ele>41.000000</ele>
				<time>2026-08-17T02:44:36Z</time>
			</trkpt>
			<trkpt lat="30.247864" lon="120.109308">
				<speed>0.000000</speed>
				<ele>41.000000</ele>
				<time>2026-08-17T02:44:37Z</time>
			</trkpt>
			<trkpt lat="30.247850" lon="120.109314">
				<speed>0.000000</speed>
				<ele>41.000000</ele>
				<time>2026-08-17T02:44:38Z</time>
			</trkpt>
			<trkpt lat="30.247835" lon="120.109320">
				<speed>0.000000</speed>
				<ele>41.000000</ele>
				<time>2026-08-17T02:44:39Z</time>
			</trkpt>
			<trkpt lat="30.247792" lon="120.109338">
				<speed>0.000000</speed>
				<ele>41.000000</ele>
				<time>2026-08-17T02:44:40Z</time>
			</trkpt>
			<trkpt lat="30.247778" lon="120.109344">
				<speed>0.000000</speed>
				<ele>41.000000</ele>
				<time>2026-08-17T02:44:41Z</time>
			</trkpt>
			<trkpt lat="30.247764" lon="120.109351">
				<speed>0.000000</speed>
				<ele>41.000000</ele>
				<time>2026-08-17T02:44:42Z</time>
			</trkpt>
			<trkpt lat="30.247750" lon="120.109357">
				<speed>0.000000</speed>
				<ele>41.000000</ele>
				<time>2026-08-17T02:44:43Z</time>
			</trkpt>
			<trkpt lat="30.247707" lon="120.109378">
				<speed>0.000000</speed>
				<ele>41.000000</ele>
				<time>2026-08-17T02:44:44Z</time>
			</trkpt>
			<trkpt lat="30.247693" lon="120.109386">
				<speed>0.000000</speed>
				<ele>41.000000</ele>
				<time>2026-08-17T02:44:45Z</time>
			</trkpt>
			<trkpt lat="30.247678" lon="120.109393">
				<speed>0.000000</speed>
				<ele>41.000000</ele>
				<time>2026-08-17T02:44:46Z</time>
			</trkpt>
			<trkpt lat="30.247664" lon="120.109401">
				<speed>0.000000</speed>
				<ele>41.000000</ele>
				<time>2026-08-17T02:44:47Z</time>
			</trkpt>
			<trkpt lat="30.247619" lon="120.109424">
				<speed>0.000000</speed>
				<ele>41.000000</ele>
				<time>2026-08-17T02:44:48Z</time>
			</trkpt>
			<trkpt lat="30.247604" lon="120.109432">
				<speed>0.000000</speed>
				<ele>41.000000</ele>
				<time>2026-08-17T02:44:49Z</time>
			</trkpt>
			<trkpt lat="30.247589" lon="120.109439">
				<speed>0.000000</speed>
				<ele>41.000000</ele>
				<time>2026-08-17T02:44:50Z</time>
			</trkpt>
			<trkpt lat="30.247575" lon="120.109447">
				<speed>0.000000</speed>
				<ele>41.000000</ele>
				<time>2026-08-17T02:44:51Z</time>
			</trkpt>
			<trkpt lat="30.247531" lon="120.109469">
				<speed>0.000000</speed>
				<ele>41.000000</ele>
				<time>2026-08-17T02:44:52Z</time>
			</trkpt>
			<trkpt lat="30.247516" lon="120.109476">
				<speed>0.000000</speed>
				<ele>41.000000</ele>
				<time>2026-08-17T02:44:53Z</time>
			</trkpt>
			<trkpt lat="30.247502" lon="120.109484">
				<speed>0.000000</speed>
				<ele>40.000000</ele>
				<time>2026-08-17T02:44:54Z</time>
			</trkpt>
			<trkpt lat="30.247488" lon="120.109491">
				<speed>0.000000</speed>
				<ele>40.000000</ele>
				<time>2026-08-17T02:44:55Z</time>
			</trkpt>
			<trkpt lat="30.247443" lon="120.109514">
				<speed>0.000000</speed>
				<ele>40.000000</ele>
				<time>2026-08-17T02:44:56Z</time>
			</trkpt>
			<trkpt lat="30.247428" lon="120.109522">
				<speed>0.000000</speed>
				<ele>40.000000</ele>
				<time>2026-08-17T02:44:57Z</time>
			</trkpt>
			<trkpt lat="30.247414" lon="120.109529">
				<speed>0.000000</speed>
				<ele>40.000000</ele>
				<time>2026-08-17T02:44:58Z</time>
			</trkpt>
			<trkpt lat="30.247399" lon="120.109537">
				<speed>0.000000</speed>
				<ele>40.000000</ele>
				<time>2026-08-17T02:44:59Z</time>
			</trkpt>
			<trkpt lat="30.247355" lon="120.109562">
				<speed>0.000000</speed>
				<ele>40.000000</ele>
				<time>2026-08-17T02:45:00Z</time>
			</trkpt>
			<trkpt lat="30.247341" lon="120.109571">
				<speed>0.000000</speed>
				<ele>40.000000</ele>
				<time>2026-08-17T02:45:01Z</time>
			</trkpt>
			<trkpt lat="30.247327" lon="120.109581">
				<speed>0.000000</speed>
				<ele>40.000000</ele>
				<time>2026-08-17T02:45:02Z</time>
			</trkpt>
			<trkpt lat="30.247312" lon="120.109591">
				<speed>0.000000</speed>
				<ele>40.000000</ele>
				<time>2026-08-17T02:45:03Z</time>
			</trkpt>
			<trkpt lat="30.247269" lon="120.109620">
				<speed>0.000000</speed>
				<ele>40.000000</ele>
				<time>2026-08-17T02:45:04Z</time>
			</trkpt>
			<trkpt lat="30.247254" lon="120.109628">
				<speed>0.000000</speed>
				<ele>40.000000</ele>
				<time>2026-08-17T02:45:05Z</time>
			</trkpt>
			<trkpt lat="30.247240" lon="120.109637">
				<speed>0.000000</speed>
				<ele>40.000000</ele>
				<time>2026-08-17T02:45:06Z</time>
			</trkpt>
			<trkpt lat="30.247225" lon="120.109645">
				<speed>0.000000</speed>
				<ele>40.000000</ele>
				<time>2026-08-17T02:45:07Z</time>
			</trkpt>
			<trkpt lat="30.247179" lon="120.109668">
				<speed>0.000000</speed>
				<ele>40.000000</ele>
				<time>2026-08-17T02:45:08Z</time>
			</trkpt>
			<trkpt lat="30.247164" lon="120.109676">
				<speed>0.000000</speed>
				<ele>40.000000</ele>
				<time>2026-08-17T02:45:09Z</time>
			</trkpt>
			<trkpt lat="30.247149" lon="120.109684">
				<speed>0.000000</speed>
				<ele>40.000000</ele>
				<time>2026-08-17T02:45:10Z</time>
			</trkpt>
			<trkpt lat="30.247134" lon="120.109692">
				<speed>0.000000</speed>
				<ele>40.000000</ele>
				<time>2026-08-17T02:45:11Z</time>
			</trkpt>
			<trkpt lat="30.247089" lon="120.109714">
				<speed>0.000000</speed>
				<ele>40.000000</ele>
				<time>2026-08-17T02:45:12Z</time>
			</trkpt>
			<trkpt lat="30.247074" lon="120.109722">
				<speed>0.000000</speed>
				<ele>40.000000</ele>
				<time>2026-08-17T02:45:13Z</time>
			</trkpt>
			<trkpt lat="30.247059" lon="120.109729">
				<speed>0.000000</speed>
				<ele>40.000000</ele>
				<time>2026-08-17T02:45:14Z</time>
			</trkpt>
			<trkpt lat="30.247044" lon="120.109737">
				<speed>0.000000</speed>
				<ele>40.000000</ele>
				<time>2026-08-17T02:45:15Z</time>
			</trkpt>
			<trkpt lat="30.246998" lon="120.109758">
				<speed>0.000000</speed>
				<ele>40.000000</ele>
				<time>2026-08-17T02:45:16Z</time>
			</trkpt>
			<trkpt lat="30.246983" lon="120.109765">
				<speed>0.000000</speed>
				<ele>40.000000</ele>
				<time>2026-08-17T02:45:17Z</time>
			</trkpt>
			<trkpt lat="30.246968" lon="120.109772">
				<speed>0.000000</speed>
				<ele>40.000000</ele>
				<time>2026-08-17T02:45:18Z</time>
			</trkpt>
			<trkpt lat="30.246953" lon="120.109779">
				<speed>0.000000</speed>
				<ele>40.000000</ele>
				<time>2026-08-17T02:45:19Z</time>
			</trkpt>
			<trkpt lat="30.246908" lon="120.109800">
				<speed>0.000000</speed>
				<ele>40.000000</ele>
				<time>2026-08-17T02:45:20Z</time>
			</trkpt>
			<trkpt lat="30.246894" lon="120.109808">
				<speed>0.000000</speed>
				<ele>40.000000</ele>
				<time>2026-08-17T02:45:21Z</time>
			</trkpt>
			<trkpt lat="30.246879" lon="120.109815">
				<speed>0.000000</speed>
				<ele>40.000000</ele>
				<time>2026-08-17T02:45:22Z</time>
			</trkpt>
			<trkpt lat="30.246865" lon="120.109822">
				<speed>0.000000</speed>
				<ele>40.000000</ele>
				<time>2026-08-17T02:45:23Z</time>
			</trkpt>
			<trkpt lat="30.246820" lon="120.109844">
				<speed>0.000000</speed>
				<ele>40.000000</ele>
				<time>2026-08-17T02:45:24Z</time>
			</trkpt>
			<trkpt lat="30.246804" lon="120.109851">
				<speed>0.000000</speed>
				<ele>40.000000</ele>
				<time>2026-08-17T02:45:25Z</time>
			</trkpt>
			<trkpt lat="30.246789" lon="120.109859">
				<speed>0.000000</speed>
				<ele>40.000000</ele>
				<time>2026-08-17T02:45:26Z</time>
			</trkpt>
			<trkpt lat="30.246774" lon="120.109866">
				<speed>0.000000</speed>
				<ele>40.000000</ele>
				<time>2026-08-17T02:45:27Z</time>
			</trkpt>
			<trkpt lat="30.246726" lon="120.109890">
				<speed>0.000000</speed>
				<ele>40.000000</ele>
				<time>2026-08-17T02:45:28Z</time>
			</trkpt>
			<trkpt lat="30.246711" lon="120.109898">
				<speed>0.000000</speed>
				<ele>40.000000</ele>
				<time>2026-08-17T02:45:29Z</time>
			</trkpt>
			<trkpt lat="30.246695" lon="120.109906">
				<speed>0.000000</speed>
				<ele>40.000000</ele>
				<time>2026-08-17T02:45:30Z</time>
			</trkpt>
			<trkpt lat="30.246679" lon="120.109914">
				<speed>0.000000</speed>
				<ele>40.000000</ele>
				<time>2026-08-17T02:45:31Z</time>
			</trkpt>
			<trkpt lat="30.246635" lon="120.109936">
				<speed>0.000000</speed>
				<ele>40.000000</ele>
				<time>2026-08-17T02:45:32Z</time>
			</trkpt>
			<trkpt lat="30.246621" lon="120.109943">
				<speed>0.000000</speed>
				<ele>40.000000</ele>
				<time>2026-08-17T02:45:33Z</time>
			</trkpt>
			<trkpt lat="30.246607" lon="120.109950">
				<speed>0.000000</speed>
				<ele>40.000000</ele>
				<time>2026-08-17T02:45:34Z</time>
			</trkpt>
			<trkpt lat="30.246593" lon="120.109957">
				<speed>0.000000</speed>
				<ele>40.000000</ele>
				<time>2026-08-17T02:45:35Z</time>
			</trkpt>
			<trkpt lat="30.246553" lon="120.109977">
				<speed>0.000000</speed>
				<ele>40.000000</ele>
				<time>2026-08-17T02:45:36Z</time>
			</trkpt>
			<trkpt lat="30.246539" lon="120.109984">
				<speed>0.000000</speed>
				<ele>40.000000</ele>
				<time>2026-08-17T02:45:37Z</time>
			</trkpt>
			<trkpt lat="30.246525" lon="120.109992">
				<speed>0.000000</speed>
				<ele>40.000000</ele>
				<time>2026-08-17T02:45:38Z</time>
			</trkpt>
			<trkpt lat="30.246511" lon="120.109999">
				<speed>0.000000</speed>
				<ele>40.000000</ele>
				<time>2026-08-17T02:45:39Z</time>
			</trkpt>
			<trkpt lat="30.246470" lon="120.110022">
				<speed>0.000000</speed>
				<ele>40.000000</ele>
				<time>2026-08-17T02:45:40Z</time>
			</trkpt>
			<trkpt lat="30.246458" lon="120.110028">
				<speed>0.000000</speed>
				<ele>40.000000</ele>
				<time>2026-08-17T02:45:41Z</time>
			</trkpt>
			<trkpt lat="30.246446" lon="120.110035">
				<speed>0.000000</speed>
				<ele>40.000000</ele>
				<time>2026-08-17T02:45:42Z</time>
			</trkpt>
			<trkpt lat="30.246434" lon="120.110042">
				<speed>0.000000</speed>
				<ele>40.000000</ele>
				<time>2026-08-17T02:45:43Z</time>
			</trkpt>
			<trkpt lat="30.246408" lon="120.110058">
				<speed>0.000000</speed>
				<ele>40.000000</ele>
				<time>2026-08-17T02:45:44Z</time>
			</trkpt>
			<trkpt lat="30.246402" lon="120.110062">
				<speed>0.000000</speed>
				<ele>40.000000</ele>
				<time>2026-08-17T02:45:45Z</time>
			</trkpt>
			<trkpt lat="30.246396" lon="120.110066">
				<speed>0.000000</speed>
				<ele>40.000000</ele>
				<time>2026-08-17T02:45:46Z</time>
			</trkpt>
			<trkpt lat="30.246390" lon="120.110070">
				<speed>0.000000</speed>
				<ele>40.000000</ele>
				<time>2026-08-17T02:45:47Z</time>
			</trkpt>
			<trkpt lat="30.246377" lon="120.110081">
				<speed>0.000000</speed>
				<ele>40.000000</ele>
				<time>2026-08-17T02:45:48Z</time>
			</trkpt>
			<trkpt lat="30.246372" lon="120.110086">
				<speed>0.000000</speed>
				<ele>40.000000</ele>
				<time>2026-08-17T02:45:49Z</time>
			</trkpt>
			<trkpt lat="30.246366" lon="120.110092">
				<speed>0.000000</speed>
				<ele>40.000000</ele>
				<time>2026-08-17T02:45:50Z</time>
			</trkpt>
			<trkpt lat="30.246360" lon="120.110098">
				<speed>0.000000</speed>
				<ele>40.000000</ele>
				<time>2026-08-17T02:45:51Z</time>
			</trkpt>
			<trkpt lat="30.246333" lon="120.110125">
				<speed>0.000000</speed>
				<ele>40.000000</ele>
				<time>2026-08-17T02:45:52Z</time>
			</trkpt>
			<trkpt lat="30.246321" lon="120.110137">
				<speed>0.000000</speed>
				<ele>40.000000</ele>
				<time>2026-08-17T02:45:53Z</time>
			</trkpt>
			<trkpt lat="30.246309" lon="120.110149">
				<speed>0.000000</speed>
				<ele>40.000000</ele>
				<time>2026-08-17T02:45:54Z</time>
			</trkpt>
			<trkpt lat="30.246297" lon="120.110162">
				<speed>0.000000</speed>
				<ele>40.000000</ele>
				<time>2026-08-17T02:45:55Z</time>
			</trkpt>
			<trkpt lat="30.246257" lon="120.110202">
				<speed>0.000000</speed>
				<ele>40.000000</ele>
				<time>2026-08-17T02:45:56Z</time>
			</trkpt>
			<trkpt lat="30.246245" lon="120.110215">
				<speed>0.000000</speed>
				<ele>40.000000</ele>
				<time>2026-08-17T02:45:57Z</time>
			</trkpt>
			<trkpt lat="30.246232" lon="120.110229">
				<speed>0.000000</speed>
				<ele>40.000000</ele>
				<time>2026-08-17T02:45:58Z</time>
			</trkpt>
			<trkpt lat="30.246220" lon="120.110243">
				<speed>0.000000</speed>
				<ele>40.000000</ele>
				<time>2026-08-17T02:45:59Z</time>
			</trkpt>
			<trkpt lat="30.246187" lon="120.110285">
				<speed>0.000000</speed>
				<ele>40.000000</ele>
				<time>2026-08-17T02:46:00Z</time>
			</trkpt>
			<trkpt lat="30.246176" lon="120.110299">
				<speed>0.000000</speed>
				<ele>40.000000</ele>
				<time>2026-08-17T02:46:01Z</time>
			</trkpt>
			<trkpt lat="30.246165" lon="120.110313">
				<speed>0.000000</speed>
				<ele>40.000000</ele>
				<time>2026-08-17T02:46:02Z</time>
			</trkpt>
			<trkpt lat="30.246154" lon="120.110327">
				<speed>0.000000</speed>
				<ele>40.000000</ele>
				<time>2026-08-17T02:46:03Z</time>
			</trkpt>
			<trkpt lat="30.246122" lon="120.110364">
				<speed>0.000000</speed>
				<ele>40.000000</ele>
				<time>2026-08-17T02:46:04Z</time>
			</trkpt>
			<trkpt lat="30.246112" lon="120.110376">
				<speed>0.000000</speed>
				<ele>40.000000</ele>
				<time>2026-08-17T02:46:05Z</time>
			</trkpt>
			<trkpt lat="30.246102" lon="120.110387">
				<speed>0.000000</speed>
				<ele>40.000000</ele>
				<time>2026-08-17T02:46:06Z</time>
			</trkpt>
			<trkpt lat="30.246092" lon="120.110399">
				<speed>0.000000</speed>
				<ele>40.000000</ele>
				<time>2026-08-17T02:46:07Z</time>
			</trkpt>
			<trkpt lat="30.246063" lon="120.110432">
				<speed>0.000000</speed>
				<ele>40.000000</ele>
				<time>2026-08-17T02:46:08Z</time>
			</trkpt>
			<trkpt lat="30.246053" lon="120.110444">
				<speed>0.000000</speed>
				<ele>40.000000</ele>
				<time>2026-08-17T02:46:09Z</time>
			</trkpt>
			<trkpt lat="30.246044" lon="120.110456">
				<speed>0.000000</speed>
				<ele>40.000000</ele>
				<time>2026-08-17T02:46:10Z</time>
			</trkpt>
			<trkpt lat="30.246034" lon="120.110467">
				<speed>0.000000</speed>
				<ele>40.000000</ele>
				<time>2026-08-17T02:46:11Z</time>
			</trkpt>
			<trkpt lat="30.246004" lon="120.110502">
				<speed>0.000000</speed>
				<ele>40.000000</ele>
				<time>2026-08-17T02:46:12Z</time>
			</trkpt>
			<trkpt lat="30.245995" lon="120.110514">
				<speed>0.000000</speed>
				<ele>40.000000</ele>
				<time>2026-08-17T02:46:13Z</time>
			</trkpt>
			<trkpt lat="30.245985" lon="120.110526">
				<speed>0.000000</speed>
				<ele>40.000000</ele>
				<time>2026-08-17T02:46:14Z</time>
			</trkpt>
			<trkpt lat="30.245976" lon="120.110538">
				<speed>0.000000</speed>
				<ele>40.000000</ele>
				<time>2026-08-17T02:46:15Z</time>
			</trkpt>
			<trkpt lat="30.245947" lon="120.110574">
				<speed>0.000000</speed>
				<ele>40.000000</ele>
				<time>2026-08-17T02:46:16Z</time>
			</trkpt>
			<trkpt lat="30.245937" lon="120.110585">
				<speed>0.000000</speed>
				<ele>40.000000</ele>
				<time>2026-08-17T02:46:17Z</time>
			</trkpt>
			<trkpt lat="30.245927" lon="120.110595">
				<speed>0.000000</speed>
				<ele>40.000000</ele>
				<time>2026-08-17T02:46:18Z</time>
			</trkpt>
			<trkpt lat="30.245917" lon="120.110606">
				<speed>0.000000</speed>
				<ele>40.000000</ele>
				<time>2026-08-17T02:46:19Z</time>
			</trkpt>
			<trkpt lat="30.245885" lon="120.110635">
				<speed>0.000000</speed>
				<ele>40.000000</ele>
				<time>2026-08-17T02:46:20Z</time>
			</trkpt>
			<trkpt lat="30.245873" lon="120.110644">
				<speed>0.000000</speed>
				<ele>40.000000</ele>
				<time>2026-08-17T02:46:21Z</time>
			</trkpt>
			<trkpt lat="30.245861" lon="120.110652">
				<speed>0.000000</speed>
				<ele>40.000000</ele>
				<time>2026-08-17T02:46:22Z</time>
			</trkpt>
			<trkpt lat="30.245850" lon="120.110661">
				<speed>0.000000</speed>
				<ele>40.000000</ele>
				<time>2026-08-17T02:46:23Z</time>
			</trkpt>
			<trkpt lat="30.245813" lon="120.110688">
				<speed>0.000000</speed>
				<ele>40.000000</ele>
				<time>2026-08-17T02:46:24Z</time>
			</trkpt>
			<trkpt lat="30.245800" lon="120.110697">
				<speed>0.000000</speed>
				<ele>40.000000</ele>
				<time>2026-08-17T02:46:25Z</time>
			</trkpt>
			<trkpt lat="30.245787" lon="120.110705">
				<speed>0.000000</speed>
				<ele>40.000000</ele>
				<time>2026-08-17T02:46:26Z</time>
			</trkpt>
			<trkpt lat="30.245774" lon="120.110714">
				<speed>0.000000</speed>
				<ele>40.000000</ele>
				<time>2026-08-17T02:46:27Z</time>
			</trkpt>
			<trkpt lat="30.245733" lon="120.110739">
				<speed>0.000000</speed>
				<ele>40.000000</ele>
				<time>2026-08-17T02:46:28Z</time>
			</trkpt>
			<trkpt lat="30.245719" lon="120.110747">
				<speed>0.000000</speed>
				<ele>41.000000</ele>
				<time>2026-08-17T02:46:29Z</time>
			</trkpt>
			<trkpt lat="30.245706" lon="120.110756">
				<speed>0.000000</speed>
				<ele>41.000000</ele>
				<time>2026-08-17T02:46:30Z</time>
			</trkpt>
			<trkpt lat="30.245692" lon="120.110764">
				<speed>0.000000</speed>
				<ele>41.000000</ele>
				<time>2026-08-17T02:46:31Z</time>
			</trkpt>
			<trkpt lat="30.245653" lon="120.110792">
				<speed>0.000000</speed>
				<ele>41.000000</ele>
				<time>2026-08-17T02:46:32Z</time>
			</trkpt>
			<trkpt lat="30.245640" lon="120.110802">
				<speed>0.000000</speed>
				<ele>41.000000</ele>
				<time>2026-08-17T02:46:33Z</time>
			</trkpt>
			<trkpt lat="30.245628" lon="120.110812">
				<speed>0.000000</speed>
				<ele>41.000000</ele>
				<time>2026-08-17T02:46:34Z</time>
			</trkpt>
			<trkpt lat="30.245615" lon="120.110821">
				<speed>0.000000</speed>
				<ele>41.000000</ele>
				<time>2026-08-17T02:46:35Z</time>
			</trkpt>
			<trkpt lat="30.245576" lon="120.110850">
				<speed>0.000000</speed>
				<ele>41.000000</ele>
				<time>2026-08-17T02:46:36Z</time>
			</trkpt>
			<trkpt lat="30.245563" lon="120.110858">
				<speed>0.000000</speed>
				<ele>41.000000</ele>
				<time>2026-08-17T02:46:37Z</time>
			</trkpt>
			<trkpt lat="30.245551" lon="120.110866">
				<speed>0.000000</speed>
				<ele>41.000000</ele>
				<time>2026-08-17T02:46:38Z</time>
			</trkpt>
			<trkpt lat="30.245538" lon="120.110874">
				<speed>0.000000</speed>
				<ele>41.000000</ele>
				<time>2026-08-17T02:46:39Z</time>
			</trkpt>
			<trkpt lat="30.245499" lon="120.110897">
				<speed>0.000000</speed>
				<ele>41.000000</ele>
				<time>2026-08-17T02:46:40Z</time>
			</trkpt>
			<trkpt lat="30.245485" lon="120.110905">
				<speed>0.000000</speed>
				<ele>42.000000</ele>
				<time>2026-08-17T02:46:41Z</time>
			</trkpt>
			<trkpt lat="30.245471" lon="120.110912">
				<speed>0.000000</speed>
				<ele>42.000000</ele>
				<time>2026-08-17T02:46:42Z</time>
			</trkpt>
			<trkpt lat="30.245458" lon="120.110919">
				<speed>0.000000</speed>
				<ele>42.000000</ele>
				<time>2026-08-17T02:46:43Z</time>
			</trkpt>
			<trkpt lat="30.245416" lon="120.110940">
				<speed>0.000000</speed>
				<ele>42.000000</ele>
				<time>2026-08-17T02:46:44Z</time>
			</trkpt>
			<trkpt lat="30.245402" lon="120.110947">
				<speed>0.000000</speed>
				<ele>42.000000</ele>
				<time>2026-08-17T02:46:45Z</time>
			</trkpt>
			<trkpt lat="30.245388" lon="120.110954">
				<speed>0.000000</speed>
				<ele>42.000000</ele>
				<time>2026-08-17T02:46:46Z</time>
			</trkpt>
			<trkpt lat="30.245375" lon="120.110962">
				<speed>0.000000</speed>
				<ele>42.000000</ele>
				<time>2026-08-17T02:46:47Z</time>
			</trkpt>
			<trkpt lat="30.245335" lon="120.110985">
				<speed>0.000000</speed>
				<ele>42.000000</ele>
				<time>2026-08-17T02:46:48Z</time>
			</trkpt>
			<trkpt lat="30.245322" lon="120.110992">
				<speed>0.000000</speed>
				<ele>42.000000</ele>
				<time>2026-08-17T02:46:49Z</time>
			</trkpt>
			<trkpt lat="30.245310" lon="120.111000">
				<speed>0.000000</speed>
				<ele>42.000000</ele>
				<time>2026-08-17T02:46:50Z</time>
			</trkpt>
			<trkpt lat="30.245297" lon="120.111007">
				<speed>0.000000</speed>
				<ele>42.000000</ele>
				<time>2026-08-17T02:46:51Z</time>
			</trkpt>
			<trkpt lat="30.245260" lon="120.111030">
				<speed>0.000000</speed>
				<ele>42.000000</ele>
				<time>2026-08-17T02:46:52Z</time>
			</trkpt>
			<trkpt lat="30.245247" lon="120.111037">
				<speed>0.000000</speed>
				<ele>43.000000</ele>
				<time>2026-08-17T02:46:53Z</time>
			</trkpt>
			<trkpt lat="30.245234" lon="120.111045">
				<speed>0.000000</speed>
				<ele>43.000000</ele>
				<time>2026-08-17T02:46:54Z</time>
			</trkpt>
			<trkpt lat="30.245222" lon="120.111052">
				<speed>0.000000</speed>
				<ele>43.000000</ele>
				<time>2026-08-17T02:46:55Z</time>
			</trkpt>
			<trkpt lat="30.245182" lon="120.111073">
				<speed>0.000000</speed>
				<ele>43.000000</ele>
				<time>2026-08-17T02:46:56Z</time>
			</trkpt>
			<trkpt lat="30.245168" lon="120.111079">
				<speed>0.000000</speed>
				<ele>43.000000</ele>
				<time>2026-08-17T02:46:57Z</time>
			</trkpt>
			<trkpt lat="30.245154" lon="120.111086">
				<speed>0.000000</speed>
				<ele>43.000000</ele>
				<time>2026-08-17T02:46:58Z</time>
			</trkpt>
			<trkpt lat="30.245139" lon="120.111093">
				<speed>0.000000</speed>
				<ele>43.000000</ele>
				<time>2026-08-17T02:46:59Z</time>
			</trkpt>
			<trkpt lat="30.245097" lon="120.111114">
				<speed>0.000000</speed>
				<ele>43.000000</ele>
				<time>2026-08-17T02:47:00Z</time>
			</trkpt>
			<trkpt lat="30.245084" lon="120.111121">
				<speed>0.000000</speed>
				<ele>43.000000</ele>
				<time>2026-08-17T02:47:01Z</time>
			</trkpt>
			<trkpt lat="30.245070" lon="120.111128">
				<speed>0.000000</speed>
				<ele>43.000000</ele>
				<time>2026-08-17T02:47:02Z</time>
			</trkpt>
			<trkpt lat="30.245057" lon="120.111135">
				<speed>0.000000</speed>
				<ele>43.000000</ele>
				<time>2026-08-17T02:47:03Z</time>
			</trkpt>
			<trkpt lat="30.245017" lon="120.111156">
				<speed>0.000000</speed>
				<ele>43.000000</ele>
				<time>2026-08-17T02:47:04Z</time>
			</trkpt>
			<trkpt lat="30.245004" lon="120.111162">
				<speed>0.000000</speed>
				<ele>44.000000</ele>
				<time>2026-08-17T02:47:05Z</time>
			</trkpt>
			<trkpt lat="30.244991" lon="120.111169">
				<speed>0.000000</speed>
				<ele>44.000000</ele>
				<time>2026-08-17T02:47:06Z</time>
			</trkpt>
			<trkpt lat="30.244979" lon="120.111176">
				<speed>0.000000</speed>
				<ele>44.000000</ele>
				<time>2026-08-17T02:47:07Z</time>
			</trkpt>
			<trkpt lat="30.244941" lon="120.111196">
				<speed>0.000000</speed>
				<ele>44.000000</ele>
				<time>2026-08-17T02:47:08Z</time>
			</trkpt>
			<trkpt lat="30.244928" lon="120.111204">
				<speed>0.000000</speed>
				<ele>44.000000</ele>
				<time>2026-08-17T02:47:09Z</time>
			</trkpt>
			<trkpt lat="30.244916" lon="120.111211">
				<speed>0.000000</speed>
				<ele>44.000000</ele>
				<time>2026-08-17T02:47:10Z</time>
			</trkpt>
			<trkpt lat="30.244904" lon="120.111218">
				<speed>0.000000</speed>
				<ele>44.000000</ele>
				<time>2026-08-17T02:47:11Z</time>
			</trkpt>
			<trkpt lat="30.244866" lon="120.111237">
				<speed>0.000000</speed>
				<ele>44.000000</ele>
				<time>2026-08-17T02:47:12Z</time>
			</trkpt>
			<trkpt lat="30.244852" lon="120.111243">
				<speed>0.000000</speed>
				<ele>44.000000</ele>
				<time>2026-08-17T02:47:13Z</time>
			</trkpt>
			<trkpt lat="30.244839" lon="120.111249">
				<speed>0.000000</speed>
				<ele>44.000000</ele>
				<time>2026-08-17T02:47:14Z</time>
			</trkpt>
			<trkpt lat="30.244826" lon="120.111255">
				<speed>0.000000</speed>
				<ele>44.000000</ele>
				<time>2026-08-17T02:47:15Z</time>
			</trkpt>
			<trkpt lat="30.244785" lon="120.111271">
				<speed>0.000000</speed>
				<ele>44.000000</ele>
				<time>2026-08-17T02:47:16Z</time>
			</trkpt>
			<trkpt lat="30.244771" lon="120.111276">
				<speed>0.000000</speed>
				<ele>45.000000</ele>
				<time>2026-08-17T02:47:17Z</time>
			</trkpt>
			<trkpt lat="30.244758" lon="120.111281">
				<speed>0.000000</speed>
				<ele>45.000000</ele>
				<time>2026-08-17T02:47:18Z</time>
			</trkpt>
			<trkpt lat="30.244744" lon="120.111286">
				<speed>0.000000</speed>
				<ele>45.000000</ele>
				<time>2026-08-17T02:47:19Z</time>
			</trkpt>
			<trkpt lat="30.244700" lon="120.111299">
				<speed>0.000000</speed>
				<ele>45.000000</ele>
				<time>2026-08-17T02:47:20Z</time>
			</trkpt>
			<trkpt lat="30.244685" lon="120.111304">
				<speed>0.000000</speed>
				<ele>45.000000</ele>
				<time>2026-08-17T02:47:21Z</time>
			</trkpt>
			<trkpt lat="30.244670" lon="120.111308">
				<speed>0.000000</speed>
				<ele>45.000000</ele>
				<time>2026-08-17T02:47:22Z</time>
			</trkpt>
			<trkpt lat="30.244655" lon="120.111313">
				<speed>0.000000</speed>
				<ele>45.000000</ele>
				<time>2026-08-17T02:47:23Z</time>
			</trkpt>
			<trkpt lat="30.244610" lon="120.111327">
				<speed>0.000000</speed>
				<ele>45.000000</ele>
				<time>2026-08-17T02:47:24Z</time>
			</trkpt>
			<trkpt lat="30.244596" lon="120.111332">
				<speed>0.000000</speed>
				<ele>45.000000</ele>
				<time>2026-08-17T02:47:25Z</time>
			</trkpt>
			<trkpt lat="30.244581" lon="120.111337">
				<speed>0.000000</speed>
				<ele>45.000000</ele>
				<time>2026-08-17T02:47:26Z</time>
			</trkpt>
			<trkpt lat="30.244567" lon="120.111342">
				<speed>0.000000</speed>
				<ele>45.000000</ele>
				<time>2026-08-17T02:47:27Z</time>
			</trkpt>
			<trkpt lat="30.244523" lon="120.111356">
				<speed>0.000000</speed>
				<ele>45.000000</ele>
				<time>2026-08-17T02:47:28Z</time>
			</trkpt>
			<trkpt lat="30.244509" lon="120.111359">
				<speed>0.000000</speed>
				<ele>45.000000</ele>
				<time>2026-08-17T02:47:29Z</time>
			</trkpt>
			<trkpt lat="30.244495" lon="120.111363">
				<speed>0.000000</speed>
				<ele>45.000000</ele>
				<time>2026-08-17T02:47:30Z</time>
			</trkpt>
			<trkpt lat="30.244480" lon="120.111367">
				<speed>0.000000</speed>
				<ele>45.000000</ele>
				<time>2026-08-17T02:47:31Z</time>
			</trkpt>
			<trkpt lat="30.244438" lon="120.111372">
				<speed>0.000000</speed>
				<ele>45.000000</ele>
				<time>2026-08-17T02:47:32Z</time>
			</trkpt>
			<trkpt lat="30.244424" lon="120.111374">
				<speed>0.000000</speed>
				<ele>46.000000</ele>
				<time>2026-08-17T02:47:33Z</time>
			</trkpt>
			<trkpt lat="30.244410" lon="120.111375">
				<speed>0.000000</speed>
				<ele>46.000000</ele>
				<time>2026-08-17T02:47:34Z</time>
			</trkpt>
			<trkpt lat="30.244397" lon="120.111377">
				<speed>0.000000</speed>
				<ele>46.000000</ele>
				<time>2026-08-17T02:47:35Z</time>
			</trkpt>
			<trkpt lat="30.244356" lon="120.111386">
				<speed>0.000000</speed>
				<ele>46.000000</ele>
				<time>2026-08-17T02:47:36Z</time>
			</trkpt>
			<trkpt lat="30.244341" lon="120.111389">
				<speed>0.000000</speed>
				<ele>46.000000</ele>
				<time>2026-08-17T02:47:37Z</time>
			</trkpt>
			<trkpt lat="30.244326" lon="120.111393">
				<speed>0.000000</speed>
				<ele>46.000000</ele>
				<time>2026-08-17T02:47:38Z</time>
			</trkpt>
			<trkpt lat="30.244312" lon="120.111396">
				<speed>0.000000</speed>
				<ele>46.000000</ele>
				<time>2026-08-17T02:47:39Z</time>
			</trkpt>
			<trkpt lat="30.244264" lon="120.111405">
				<speed>0.000000</speed>
				<ele>46.000000</ele>
				<time>2026-08-17T02:47:40Z</time>
			</trkpt>
			<trkpt lat="30.244248" lon="120.111408">
				<speed>0.000000</speed>
				<ele>46.000000</ele>
				<time>2026-08-17T02:47:41Z</time>
			</trkpt>
			<trkpt lat="30.244231" lon="120.111410">
				<speed>0.000000</speed>
				<ele>46.000000</ele>
				<time>2026-08-17T02:47:42Z</time>
			</trkpt>
			<trkpt lat="30.244215" lon="120.111413">
				<speed>0.000000</speed>
				<ele>46.000000</ele>
				<time>2026-08-17T02:47:43Z</time>
			</trkpt>
			<trkpt lat="30.244166" lon="120.111419">
				<speed>0.000000</speed>
				<ele>46.000000</ele>
				<time>2026-08-17T02:47:44Z</time>
			</trkpt>
			<trkpt lat="30.244150" lon="120.111419">
				<speed>0.000000</speed>
				<ele>46.000000</ele>
				<time>2026-08-17T02:47:45Z</time>
			</trkpt>
			<trkpt lat="30.244134" lon="120.111419">
				<speed>0.000000</speed>
				<ele>46.000000</ele>
				<time>2026-08-17T02:47:46Z</time>
			</trkpt>
			<trkpt lat="30.244117" lon="120.111419">
				<speed>0.000000</speed>
				<ele>46.000000</ele>
				<time>2026-08-17T02:47:47Z</time>
			</trkpt>
			<trkpt lat="30.244069" lon="120.111413">
				<speed>0.000000</speed>
				<ele>46.000000</ele>
				<time>2026-08-17T02:47:48Z</time>
			</trkpt>
			<trkpt lat="30.244053" lon="120.111411">
				<speed>0.000000</speed>
				<ele>46.000000</ele>
				<time>2026-08-17T02:47:49Z</time>
			</trkpt>
			<trkpt lat="30.244037" lon="120.111409">
				<speed>0.000000</speed>
				<ele>46.000000</ele>
				<time>2026-08-17T02:47:50Z</time>
			</trkpt>
			<trkpt lat="30.244021" lon="120.111407">
				<speed>0.000000</speed>
				<ele>46.000000</ele>
				<time>2026-08-17T02:47:51Z</time>
			</trkpt>
			<trkpt lat="30.243971" lon="120.111401">
				<speed>0.000000</speed>
				<ele>46.000000</ele>
				<time>2026-08-17T02:47:52Z</time>
			</trkpt>
			<trkpt lat="30.243955" lon="120.111399">
				<speed>0.000000</speed>
				<ele>46.000000</ele>
				<time>2026-08-17T02:47:53Z</time>
			</trkpt>
			<trkpt lat="30.243938" lon="120.111397">
				<speed>0.000000</speed>
				<ele>46.000000</ele>
				<time>2026-08-17T02:47:54Z</time>
			</trkpt>
			<trkpt lat="30.243922" lon="120.111395">
				<speed>0.000000</speed>
				<ele>46.000000</ele>
				<time>2026-08-17T02:47:55Z</time>
			</trkpt>
			<trkpt lat="30.243872" lon="120.111389">
				<speed>0.000000</speed>
				<ele>46.000000</ele>
				<time>2026-08-17T02:47:56Z</time>
			</trkpt>
			<trkpt lat="30.243855" lon="120.111388">
				<speed>0.000000</speed>
				<ele>46.000000</ele>
				<time>2026-08-17T02:47:57Z</time>
			</trkpt>
			<trkpt lat="30.243839" lon="120.111386">
				<speed>0.000000</speed>
				<ele>45.000000</ele>
				<time>2026-08-17T02:47:58Z</time>
			</trkpt>
			<trkpt lat="30.243822" lon="120.111384">
				<speed>0.000000</speed>
				<ele>45.000000</ele>
				<time>2026-08-17T02:47:59Z</time>
			</trkpt>
			<trkpt lat="30.243773" lon="120.111378">
				<speed>0.000000</speed>
				<ele>45.000000</ele>
				<time>2026-08-17T02:48:00Z</time>
			</trkpt>
			<trkpt lat="30.243756" lon="120.111374">
				<speed>0.000000</speed>
				<ele>45.000000</ele>
				<time>2026-08-17T02:48:01Z</time>
			</trkpt>
			<trkpt lat="30.243739" lon="120.111369">
				<speed>0.000000</speed>
				<ele>45.000000</ele>
				<time>2026-08-17T02:48:02Z</time>
			</trkpt>
			<trkpt lat="30.243722" lon="120.111365">
				<speed>0.000000</speed>
				<ele>45.000000</ele>
				<time>2026-08-17T02:48:03Z</time>
			</trkpt>
			<trkpt lat="30.243671" lon="120.111349">
				<speed>0.000000</speed>
				<ele>45.000000</ele>
				<time>2026-08-17T02:48:04Z</time>
			</trkpt>
			<trkpt lat="30.243653" lon="120.111343">
				<speed>0.000000</speed>
				<ele>45.000000</ele>
				<time>2026-08-17T02:48:05Z</time>
			</trkpt>
			<trkpt lat="30.243636" lon="120.111338">
				<speed>0.000000</speed>
				<ele>44.000000</ele>
				<time>2026-08-17T02:48:06Z</time>
			</trkpt>
			<trkpt lat="30.243619" lon="120.111332">
				<speed>0.000000</speed>
				<ele>44.000000</ele>
				<time>2026-08-17T02:48:07Z</time>
			</trkpt>
			<trkpt lat="30.243568" lon="120.111320">
				<speed>0.000000</speed>
				<ele>44.000000</ele>
				<time>2026-08-17T02:48:08Z</time>
			</trkpt>
			<trkpt lat="30.243552" lon="120.111317">
				<speed>0.000000</speed>
				<ele>44.000000</ele>
				<time>2026-08-17T02:48:09Z</time>
			</trkpt>
			<trkpt lat="30.243535" lon="120.111314">
				<speed>0.000000</speed>
				<ele>44.000000</ele>
				<time>2026-08-17T02:48:10Z</time>
			</trkpt>
			<trkpt lat="30.243519" lon="120.111311">
				<speed>0.000000</speed>
				<ele>44.000000</ele>
				<time>2026-08-17T02:48:11Z</time>
			</trkpt>
			<trkpt lat="30.243471" lon="120.111302">
				<speed>0.000000</speed>
				<ele>44.000000</ele>
				<time>2026-08-17T02:48:12Z</time>
			</trkpt>
			<trkpt lat="30.243454" lon="120.111300">
				<speed>0.000000</speed>
				<ele>44.000000</ele>
				<time>2026-08-17T02:48:13Z</time>
			</trkpt>
			<trkpt lat="30.243437" lon="120.111298">
				<speed>0.000000</speed>
				<ele>43.000000</ele>
				<time>2026-08-17T02:48:14Z</time>
			</trkpt>
			<trkpt lat="30.243421" lon="120.111295">
				<speed>0.000000</speed>
				<ele>43.000000</ele>
				<time>2026-08-17T02:48:15Z</time>
			</trkpt>
			<trkpt lat="30.243369" lon="120.111291">
				<speed>0.000000</speed>
				<ele>43.000000</ele>
				<time>2026-08-17T02:48:16Z</time>
			</trkpt>
			<trkpt lat="30.243352" lon="120.111290">
				<speed>0.000000</speed>
				<ele>43.000000</ele>
				<time>2026-08-17T02:48:17Z</time>
			</trkpt>
			<trkpt lat="30.243335" lon="120.111289">
				<speed>0.000000</speed>
				<ele>43.000000</ele>
				<time>2026-08-17T02:48:18Z</time>
			</trkpt>
			<trkpt lat="30.243318" lon="120.111287">
				<speed>0.000000</speed>
				<ele>43.000000</ele>
				<time>2026-08-17T02:48:19Z</time>
			</trkpt>
			<trkpt lat="30.243268" lon="120.111282">
				<speed>0.000000</speed>
				<ele>43.000000</ele>
				<time>2026-08-17T02:48:20Z</time>
			</trkpt>
			<trkpt lat="30.243251" lon="120.111280">
				<speed>0.000000</speed>
				<ele>43.000000</ele>
				<time>2026-08-17T02:48:21Z</time>
			</trkpt>
			<trkpt lat="30.243235" lon="120.111278">
				<speed>0.000000</speed>
				<ele>42.000000</ele>
				<time>2026-08-17T02:48:22Z</time>
			</trkpt>
			<trkpt lat="30.243218" lon="120.111276">
				<speed>0.000000</speed>
				<ele>42.000000</ele>
				<time>2026-08-17T02:48:23Z</time>
			</trkpt>
			<trkpt lat="30.243170" lon="120.111267">
				<speed>0.000000</speed>
				<ele>42.000000</ele>
				<time>2026-08-17T02:48:24Z</time>
			</trkpt>
			<trkpt lat="30.243155" lon="120.111264">
				<speed>0.000000</speed>
				<ele>42.000000</ele>
				<time>2026-08-17T02:48:25Z</time>
			</trkpt>
			<trkpt lat="30.243139" lon="120.111261">
				<speed>0.000000</speed>
				<ele>42.000000</ele>
				<time>2026-08-17T02:48:26Z</time>
			</trkpt>
			<trkpt lat="30.243123" lon="120.111257">
				<speed>0.000000</speed>
				<ele>42.000000</ele>
				<time>2026-08-17T02:48:27Z</time>
			</trkpt>
			<trkpt lat="30.243076" lon="120.111247">
				<speed>0.000000</speed>
				<ele>42.000000</ele>
				<time>2026-08-17T02:48:28Z</time>
			</trkpt>
			<trkpt lat="30.243059" lon="120.111244">
				<speed>0.000000</speed>
				<ele>42.000000</ele>
				<time>2026-08-17T02:48:29Z</time>
			</trkpt>
			<trkpt lat="30.243043" lon="120.111241">
				<speed>0.000000</speed>
				<ele>42.000000</ele>
				<time>2026-08-17T02:48:30Z</time>
			</trkpt>
			<trkpt lat="30.243026" lon="120.111238">
				<speed>0.000000</speed>
				<ele>42.000000</ele>
				<time>2026-08-17T02:48:31Z</time>
			</trkpt>
			<trkpt lat="30.242976" lon="120.111232">
				<speed>0.000000</speed>
				<ele>42.000000</ele>
				<time>2026-08-17T02:48:32Z</time>
			</trkpt>
			<trkpt lat="30.242959" lon="120.111229">
				<speed>0.000000</speed>
				<ele>42.000000</ele>
				<time>2026-08-17T02:48:33Z</time>
			</trkpt>
			<trkpt lat="30.242942" lon="120.111226">
				<speed>0.000000</speed>
				<ele>41.000000</ele>
				<time>2026-08-17T02:48:34Z</time>
			</trkpt>
			<trkpt lat="30.242925" lon="120.111223">
				<speed>0.000000</speed>
				<ele>41.000000</ele>
				<time>2026-08-17T02:48:35Z</time>
			</trkpt>
			<trkpt lat="30.242876" lon="120.111206">
				<speed>0.000000</speed>
				<ele>41.000000</ele>
				<time>2026-08-17T02:48:36Z</time>
			</trkpt>
			<trkpt lat="30.242861" lon="120.111199">
				<speed>0.000000</speed>
				<ele>41.000000</ele>
				<time>2026-08-17T02:48:37Z</time>
			</trkpt>
			<trkpt lat="30.242845" lon="120.111192">
				<speed>0.000000</speed>
				<ele>40.000000</ele>
				<time>2026-08-17T02:48:38Z</time>
			</trkpt>
			<trkpt lat="30.242829" lon="120.111185">
				<speed>0.000000</speed>
				<ele>40.000000</ele>
				<time>2026-08-17T02:48:39Z</time>
			</trkpt>
			<trkpt lat="30.242783" lon="120.111159">
				<speed>0.000000</speed>
				<ele>40.000000</ele>
				<time>2026-08-17T02:48:40Z</time>
			</trkpt>
			<trkpt lat="30.242768" lon="120.111147">
				<speed>0.000000</speed>
				<ele>40.000000</ele>
				<time>2026-08-17T02:48:41Z</time>
			</trkpt>
			<trkpt lat="30.242754" lon="120.111136">
				<speed>0.000000</speed>
				<ele>40.000000</ele>
				<time>2026-08-17T02:48:42Z</time>
			</trkpt>
			<trkpt lat="30.242739" lon="120.111124">
				<speed>0.000000</speed>
				<ele>40.000000</ele>
				<time>2026-08-17T02:48:43Z</time>
			</trkpt>
			<trkpt lat="30.242699" lon="120.111084">
				<speed>0.000000</speed>
				<ele>40.000000</ele>
				<time>2026-08-17T02:48:44Z</time>
			</trkpt>
			<trkpt lat="30.242688" lon="120.111070">
				<speed>0.000000</speed>
				<ele>40.000000</ele>
				<time>2026-08-17T02:48:45Z</time>
			</trkpt>
			<trkpt lat="30.242676" lon="120.111056">
				<speed>0.000000</speed>
				<ele>39.000000</ele>
				<time>2026-08-17T02:48:46Z</time>
			</trkpt>
			<trkpt lat="30.242664" lon="120.111043">
				<speed>0.000000</speed>
				<ele>39.000000</ele>
				<time>2026-08-17T02:48:47Z</time>
			</trkpt>
			<trkpt lat="30.242630" lon="120.111007">
				<speed>0.000000</speed>
				<ele>39.000000</ele>
				<time>2026-08-17T02:48:48Z</time>
			</trkpt>
			<trkpt lat="30.242618" lon="120.110997">
				<speed>0.000000</speed>
				<ele>39.000000</ele>
				<time>2026-08-17T02:48:49Z</time>
			</trkpt>
			<trkpt lat="30.242606" lon="120.110987">
				<speed>0.000000</speed>
				<ele>39.000000</ele>
				<time>2026-08-17T02:48:50Z</time>
			</trkpt>
			<trkpt lat="30.242594" lon="120.110977">
				<speed>0.000000</speed>
				<ele>39.000000</ele>
				<time>2026-08-17T02:48:51Z</time>
			</trkpt>
			<trkpt lat="30.242553" lon="120.110953">
				<speed>0.000000</speed>
				<ele>39.000000</ele>
				<time>2026-08-17T02:48:52Z</time>
			</trkpt>
			<trkpt lat="30.242537" lon="120.110949">
				<speed>0.000000</speed>
				<ele>39.000000</ele>
				<time>2026-08-17T02:48:53Z</time>
			</trkpt>
			<trkpt lat="30.242521" lon="120.110944">
				<speed>0.000000</speed>
				<ele>39.000000</ele>
				<time>2026-08-17T02:48:54Z</time>
			</trkpt>
			<trkpt lat="30.242505" lon="120.110940">
				<speed>0.000000</speed>
				<ele>39.000000</ele>
				<time>2026-08-17T02:48:55Z</time>
			</trkpt>
			<trkpt lat="30.242452" lon="120.110937">
				<speed>0.000000</speed>
				<ele>39.000000</ele>
				<time>2026-08-17T02:48:56Z</time>
			</trkpt>
			<trkpt lat="30.242435" lon="120.110938">
				<speed>0.000000</speed>
				<ele>39.000000</ele>
				<time>2026-08-17T02:48:57Z</time>
			</trkpt>
			<trkpt lat="30.242418" lon="120.110940">
				<speed>0.000000</speed>
				<ele>39.000000</ele>
				<time>2026-08-17T02:48:58Z</time>
			</trkpt>
			<trkpt lat="30.242401" lon="120.110942">
				<speed>0.000000</speed>
				<ele>39.000000</ele>
				<time>2026-08-17T02:48:59Z</time>
			</trkpt>
			<trkpt lat="30.242353" lon="120.110951">
				<speed>0.000000</speed>
				<ele>39.000000</ele>
				<time>2026-08-17T02:49:00Z</time>
			</trkpt>
			<trkpt lat="30.242337" lon="120.110955">
				<speed>0.000000</speed>
				<ele>39.000000</ele>
				<time>2026-08-17T02:49:01Z</time>
			</trkpt>
			<trkpt lat="30.242322" lon="120.110959">
				<speed>0.000000</speed>
				<ele>39.000000</ele>
				<time>2026-08-17T02:49:02Z</time>
			</trkpt>
			<trkpt lat="30.242306" lon="120.110962">
				<speed>0.000000</speed>
				<ele>39.000000</ele>
				<time>2026-08-17T02:49:03Z</time>
			</trkpt>
			<trkpt lat="30.242260" lon="120.110973">
				<speed>0.000000</speed>
				<ele>39.000000</ele>
				<time>2026-08-17T02:49:04Z</time>
			</trkpt>
			<trkpt lat="30.242244" lon="120.110975">
				<speed>0.000000</speed>
				<ele>39.000000</ele>
				<time>2026-08-17T02:49:05Z</time>
			</trkpt>
			<trkpt lat="30.242229" lon="120.110976">
				<speed>0.000000</speed>
				<ele>39.000000</ele>
				<time>2026-08-17T02:49:06Z</time>
			</trkpt>
			<trkpt lat="30.242213" lon="120.110977">
				<speed>0.000000</speed>
				<ele>39.000000</ele>
				<time>2026-08-17T02:49:07Z</time>
			</trkpt>
			<trkpt lat="30.242169" lon="120.110966">
				<speed>0.000000</speed>
				<ele>39.000000</ele>
				<time>2026-08-17T02:49:08Z</time>
			</trkpt>
			<trkpt lat="30.242157" lon="120.110958">
				<speed>0.000000</speed>
				<ele>39.000000</ele>
				<time>2026-08-17T02:49:09Z</time>
			</trkpt>
			<trkpt lat="30.242145" lon="120.110949">
				<speed>0.000000</speed>
				<ele>39.000000</ele>
				<time>2026-08-17T02:49:10Z</time>
			</trkpt>
			<trkpt lat="30.242134" lon="120.110941">
				<speed>0.000000</speed>
				<ele>39.000000</ele>
				<time>2026-08-17T02:49:11Z</time>
			</trkpt>
			<trkpt lat="30.242109" lon="120.110906">
				<speed>0.000000</speed>
				<ele>39.000000</ele>
				<time>2026-08-17T02:49:12Z</time>
			</trkpt>
			<trkpt lat="30.242103" lon="120.110892">
				<speed>0.000000</speed>
				<ele>39.000000</ele>
				<time>2026-08-17T02:49:13Z</time>
			</trkpt>
			<trkpt lat="30.242097" lon="120.110878">
				<speed>0.000000</speed>
				<ele>39.000000</ele>
				<time>2026-08-17T02:49:14Z</time>
			</trkpt>
			<trkpt lat="30.242092" lon="120.110864">
				<speed>0.000000</speed>
				<ele>39.000000</ele>
				<time>2026-08-17T02:49:15Z</time>
			</trkpt>
			<trkpt lat="30.242076" lon="120.110821">
				<speed>0.000000</speed>
				<ele>39.000000</ele>
				<time>2026-08-17T02:49:16Z</time>
			</trkpt>
			<trkpt lat="30.242070" lon="120.110808">
				<speed>0.000000</speed>
				<ele>39.000000</ele>
				<time>2026-08-17T02:49:17Z</time>
			</trkpt>
			<trkpt lat="30.242063" lon="120.110794">
				<speed>0.000000</speed>
				<ele>39.000000</ele>
				<time>2026-08-17T02:49:18Z</time>
			</trkpt>
			<trkpt lat="30.242057" lon="120.110781">
				<speed>0.000000</speed>
				<ele>39.000000</ele>
				<time>2026-08-17T02:49:19Z</time>
			</trkpt>
			<trkpt lat="30.242034" lon="120.110744">
				<speed>0.000000</speed>
				<ele>39.000000</ele>
				<time>2026-08-17T02:49:20Z</time>
			</trkpt>
			<trkpt lat="30.242026" lon="120.110732">
				<speed>0.000000</speed>
				<ele>39.000000</ele>
				<time>2026-08-17T02:49:21Z</time>
			</trkpt>
			<trkpt lat="30.242018" lon="120.110720">
				<speed>0.000000</speed>
				<ele>39.000000</ele>
				<time>2026-08-17T02:49:22Z</time>
			</trkpt>
			<trkpt lat="30.242009" lon="120.110708">
				<speed>0.000000</speed>
				<ele>39.000000</ele>
				<time>2026-08-17T02:49:23Z</time>
			</trkpt>
			<trkpt lat="30.241984" lon="120.110673">
				<speed>0.000000</speed>
				<ele>39.000000</ele>
				<time>2026-08-17T02:49:24Z</time>
			</trkpt>
			<trkpt lat="30.241975" lon="120.110662">
				<speed>0.000000</speed>
				<ele>39.000000</ele>
				<time>2026-08-17T02:49:25Z</time>
			</trkpt>
			<trkpt lat="30.241966" lon="120.110651">
				<speed>0.000000</speed>
				<ele>39.000000</ele>
				<time>2026-08-17T02:49:26Z</time>
			</trkpt>
			<trkpt lat="30.241957" lon="120.110640">
				<speed>0.000000</speed>
				<ele>39.000000</ele>
				<time>2026-08-17T02:49:27Z</time>
			</trkpt>
			<trkpt lat="30.241931" lon="120.110610">
				<speed>0.000000</speed>
				<ele>39.000000</ele>
				<time>2026-08-17T02:49:28Z</time>
			</trkpt>
			<trkpt lat="30.241922" lon="120.110600">
				<speed>0.000000</speed>
				<ele>39.000000</ele>
				<time>2026-08-17T02:49:29Z</time>
			</trkpt>
			<trkpt lat="30.241913" lon="120.110590">
				<speed>0.000000</speed>
				<ele>39.000000</ele>
				<time>2026-08-17T02:49:30Z</time>
			</trkpt>
			<trkpt lat="30.241904" lon="120.110580">
				<speed>0.000000</speed>
				<ele>39.000000</ele>
				<time>2026-08-17T02:49:31Z</time>
			</trkpt>
			<trkpt lat="30.241877" lon="120.110545">
				<speed>0.000000</speed>
				<ele>39.000000</ele>
				<time>2026-08-17T02:49:32Z</time>
			</trkpt>
			<trkpt lat="30.241867" lon="120.110532">
				<speed>0.000000</speed>
				<ele>40.000000</ele>
				<time>2026-08-17T02:49:33Z</time>
			</trkpt>
			<trkpt lat="30.241858" lon="120.110520">
				<speed>0.000000</speed>
				<ele>40.000000</ele>
				<time>2026-08-17T02:49:34Z</time>
			</trkpt>
			<trkpt lat="30.241848" lon="120.110508">
				<speed>0.000000</speed>
				<ele>40.000000</ele>
				<time>2026-08-17T02:49:35Z</time>
			</trkpt>
			<trkpt lat="30.241820" lon="120.110468">
				<speed>0.000000</speed>
				<ele>40.000000</ele>
				<time>2026-08-17T02:49:36Z</time>
			</trkpt>
			<trkpt lat="30.241811" lon="120.110455">
				<speed>0.000000</speed>
				<ele>41.000000</ele>
				<time>2026-08-17T02:49:37Z</time>
			</trkpt>
			<trkpt lat="30.241802" lon="120.110441">
				<speed>0.000000</speed>
				<ele>41.000000</ele>
				<time>2026-08-17T02:49:38Z</time>
			</trkpt>
			<trkpt lat="30.241793" lon="120.110428">
				<speed>0.000000</speed>
				<ele>41.000000</ele>
				<time>2026-08-17T02:49:39Z</time>
			</trkpt>
			<trkpt lat="30.241768" lon="120.110389">
				<speed>0.000000</speed>
				<ele>41.000000</ele>
				<time>2026-08-17T02:49:40Z</time>
			</trkpt>
			<trkpt lat="30.241759" lon="120.110376">
				<speed>0.000000</speed>
				<ele>41.000000</ele>
				<time>2026-08-17T02:49:41Z</time>
			</trkpt>
			<trkpt lat="30.241750" lon="120.110363">
				<speed>0.000000</speed>
				<ele>41.000000</ele>
				<time>2026-08-17T02:49:42Z</time>
			</trkpt>
			<trkpt lat="30.241741" lon="120.110351">
				<speed>0.000000</speed>
				<ele>41.000000</ele>
				<time>2026-08-17T02:49:43Z</time>
			</trkpt>
			<trkpt lat="30.241716" lon="120.110313">
				<speed>0.000000</speed>
				<ele>41.000000</ele>
				<time>2026-08-17T02:49:44Z</time>
			</trkpt>
			<trkpt lat="30.241708" lon="120.110300">
				<speed>0.000000</speed>
				<ele>42.000000</ele>
				<time>2026-08-17T02:49:45Z</time>
			</trkpt>
			<trkpt lat="30.241700" lon="120.110288">
				<speed>0.000000</speed>
				<ele>42.000000</ele>
				<time>2026-08-17T02:49:46Z</time>
			</trkpt>
			<trkpt lat="30.241692" lon="120.110275">
				<speed>0.000000</speed>
				<ele>42.000000</ele>
				<time>2026-08-17T02:49:47Z</time>
			</trkpt>
			<trkpt lat="30.241670" lon="120.110238">
				<speed>0.000000</speed>
				<ele>42.000000</ele>
				<time>2026-08-17T02:49:48Z</time>
			</trkpt>
			<trkpt lat="30.241662" lon="120.110227">
				<speed>0.000000</speed>
				<ele>42.000000</ele>
				<time>2026-08-17T02:49:49Z</time>
			</trkpt>
			<trkpt lat="30.241654" lon="120.110216">
				<speed>0.000000</speed>
				<ele>42.000000</ele>
				<time>2026-08-17T02:49:50Z</time>
			</trkpt>
			<trkpt lat="30.241646" lon="120.110205">
				<speed>0.000000</speed>
				<ele>42.000000</ele>
				<time>2026-08-17T02:49:51Z</time>
			</trkpt>
			<trkpt lat="30.241617" lon="120.110186">
				<speed>0.000000</speed>
				<ele>42.000000</ele>
				<time>2026-08-17T02:49:52Z</time>
			</trkpt>
			<trkpt lat="30.241606" lon="120.110186">
				<speed>0.000000</speed>
				<ele>42.000000</ele>
				<time>2026-08-17T02:49:53Z</time>
			</trkpt>
			<trkpt lat="30.241594" lon="120.110185">
				<speed>0.000000</speed>
				<ele>42.000000</ele>
				<time>2026-08-17T02:49:54Z</time>
			</trkpt>
			<trkpt lat="30.241583" lon="120.110185">
				<speed>0.000000</speed>
				<ele>42.000000</ele>
				<time>2026-08-17T02:49:55Z</time>
			</trkpt>
			<trkpt lat="30.241541" lon="120.110195">
				<speed>0.000000</speed>
				<ele>42.000000</ele>
				<time>2026-08-17T02:49:56Z</time>
			</trkpt>
			<trkpt lat="30.241527" lon="120.110199">
				<speed>0.000000</speed>
				<ele>43.000000</ele>
				<time>2026-08-17T02:49:57Z</time>
			</trkpt>
			<trkpt lat="30.241513" lon="120.110204">
				<speed>0.000000</speed>
				<ele>43.000000</ele>
				<time>2026-08-17T02:49:58Z</time>
			</trkpt>
			<trkpt lat="30.241499" lon="120.110209">
				<speed>0.000000</speed>
				<ele>43.000000</ele>
				<time>2026-08-17T02:49:59Z</time>
			</trkpt>
			<trkpt lat="30.241460" lon="120.110218">
				<speed>0.000000</speed>
				<ele>43.000000</ele>
				<time>2026-08-17T02:50:00Z</time>
			</trkpt>
			<trkpt lat="30.241448" lon="120.110218">
				<speed>0.000000</speed>
				<ele>43.000000</ele>
				<time>2026-08-17T02:50:01Z</time>
			</trkpt>
			<trkpt lat="30.241437" lon="120.110219">
				<speed>0.000000</speed>
				<ele>43.000000</ele>
				<time>2026-08-17T02:50:02Z</time>
			</trkpt>
			<trkpt lat="30.241426" lon="120.110220">
				<speed>0.000000</speed>
				<ele>43.000000</ele>
				<time>2026-08-17T02:50:03Z</time>
			</trkpt>
			<trkpt lat="30.241396" lon="120.110213">
				<speed>0.000000</speed>
				<ele>43.000000</ele>
				<time>2026-08-17T02:50:04Z</time>
			</trkpt>
			<trkpt lat="30.241387" lon="120.110209">
				<speed>0.000000</speed>
				<ele>44.000000</ele>
				<time>2026-08-17T02:50:05Z</time>
			</trkpt>
			<trkpt lat="30.241378" lon="120.110204">
				<speed>0.000000</speed>
				<ele>44.000000</ele>
				<time>2026-08-17T02:50:06Z</time>
			</trkpt>
			<trkpt lat="30.241370" lon="120.110200">
				<speed>0.000000</speed>
				<ele>44.000000</ele>
				<time>2026-08-17T02:50:07Z</time>
			</trkpt>
			<trkpt lat="30.241343" lon="120.110186">
				<speed>0.000000</speed>
				<ele>44.000000</ele>
				<time>2026-08-17T02:50:08Z</time>
			</trkpt>
			<trkpt lat="30.241333" lon="120.110183">
				<speed>0.000000</speed>
				<ele>44.000000</ele>
				<time>2026-08-17T02:50:09Z</time>
			</trkpt>
			<trkpt lat="30.241323" lon="120.110180">
				<speed>0.000000</speed>
				<ele>44.000000</ele>
				<time>2026-08-17T02:50:10Z</time>
			</trkpt>
			<trkpt lat="30.241313" lon="120.110177">
				<speed>0.000000</speed>
				<ele>44.000000</ele>
				<time>2026-08-17T02:50:11Z</time>
			</trkpt>
			<trkpt lat="30.241279" lon="120.110175">
				<speed>0.000000</speed>
				<ele>44.000000</ele>
				<time>2026-08-17T02:50:12Z</time>
			</trkpt>
			<trkpt lat="30.241267" lon="120.110176">
				<speed>0.000000</speed>
				<ele>45.000000</ele>
				<time>2026-08-17T02:50:13Z</time>
			</trkpt>
			<trkpt lat="30.241254" lon="120.110177">
				<speed>0.000000</speed>
				<ele>45.000000</ele>
				<time>2026-08-17T02:50:14Z</time>
			</trkpt>
			<trkpt lat="30.241241" lon="120.110177">
				<speed>0.000000</speed>
				<ele>45.000000</ele>
				<time>2026-08-17T02:50:15Z</time>
			</trkpt>
			<trkpt lat="30.241201" lon="120.110179">
				<speed>0.000000</speed>
				<ele>45.000000</ele>
				<time>2026-08-17T02:50:16Z</time>
			</trkpt>
			<trkpt lat="30.241187" lon="120.110178">
				<speed>0.000000</speed>
				<ele>46.000000</ele>
				<time>2026-08-17T02:50:17Z</time>
			</trkpt>
			<trkpt lat="30.241174" lon="120.110177">
				<speed>0.000000</speed>
				<ele>46.000000</ele>
				<time>2026-08-17T02:50:18Z</time>
			</trkpt>
			<trkpt lat="30.241160" lon="120.110176">
				<speed>0.000000</speed>
				<ele>46.000000</ele>
				<time>2026-08-17T02:50:19Z</time>
			</trkpt>
			<trkpt lat="30.241121" lon="120.110168">
				<speed>0.000000</speed>
				<ele>46.000000</ele>
				<time>2026-08-17T02:50:20Z</time>
			</trkpt>
			<trkpt lat="30.241110" lon="120.110163">
				<speed>0.000000</speed>
				<ele>46.000000</ele>
				<time>2026-08-17T02:50:21Z</time>
			</trkpt>
			<trkpt lat="30.241099" lon="120.110157">
				<speed>0.000000</speed>
				<ele>46.000000</ele>
				<time>2026-08-17T02:50:22Z</time>
			</trkpt>
			<trkpt lat="30.241089" lon="120.110152">
				<speed>0.000000</speed>
				<ele>46.000000</ele>
				<time>2026-08-17T02:50:23Z</time>
			</trkpt>
			<trkpt lat="30.241064" lon="120.110129">
				<speed>0.000000</speed>
				<ele>46.000000</ele>
				<time>2026-08-17T02:50:24Z</time>
			</trkpt>
			<trkpt lat="30.241057" lon="120.110119">
				<speed>0.000000</speed>
				<ele>46.000000</ele>
				<time>2026-08-17T02:50:25Z</time>
			</trkpt>
			<trkpt lat="30.241049" lon="120.110110">
				<speed>0.000000</speed>
				<ele>46.000000</ele>
				<time>2026-08-17T02:50:26Z</time>
			</trkpt>
			<trkpt lat="30.241042" lon="120.110101">
				<speed>0.000000</speed>
				<ele>46.000000</ele>
				<time>2026-08-17T02:50:27Z</time>
			</trkpt>
			<trkpt lat="30.241019" lon="120.110068">
				<speed>0.000000</speed>
				<ele>46.000000</ele>
				<time>2026-08-17T02:50:28Z</time>
			</trkpt>
			<trkpt lat="30.241012" lon="120.110056">
				<speed>0.000000</speed>
				<ele>47.000000</ele>
				<time>2026-08-17T02:50:29Z</time>
			</trkpt>
			<trkpt lat="30.241004" lon="120.110044">
				<speed>0.000000</speed>
				<ele>47.000000</ele>
				<time>2026-08-17T02:50:30Z</time>
			</trkpt>
			<trkpt lat="30.240996" lon="120.110033">
				<speed>0.000000</speed>
				<ele>47.000000</ele>
				<time>2026-08-17T02:50:31Z</time>
			</trkpt>
			<trkpt lat="30.240974" lon="120.109996">
				<speed>0.000000</speed>
				<ele>47.000000</ele>
				<time>2026-08-17T02:50:32Z</time>
			</trkpt>
			<trkpt lat="30.240968" lon="120.109982">
				<speed>0.000000</speed>
				<ele>48.000000</ele>
				<time>2026-08-17T02:50:33Z</time>
			</trkpt>
			<trkpt lat="30.240961" lon="120.109969">
				<speed>0.000000</speed>
				<ele>48.000000</ele>
				<time>2026-08-17T02:50:34Z</time>
			</trkpt>
			<trkpt lat="30.240955" lon="120.109955">
				<speed>0.000000</speed>
				<ele>48.000000</ele>
				<time>2026-08-17T02:50:35Z</time>
			</trkpt>
			<trkpt lat="30.240938" lon="120.109910">
				<speed>0.000000</speed>
				<ele>48.000000</ele>
				<time>2026-08-17T02:50:36Z</time>
			</trkpt>
			<trkpt lat="30.240933" lon="120.109894">
				<speed>0.000000</speed>
				<ele>48.000000</ele>
				<time>2026-08-17T02:50:37Z</time>
			</trkpt>
			<trkpt lat="30.240929" lon="120.109878">
				<speed>0.000000</speed>
				<ele>48.000000</ele>
				<time>2026-08-17T02:50:38Z</time>
			</trkpt>
			<trkpt lat="30.240924" lon="120.109862">
				<speed>0.000000</speed>
				<ele>48.000000</ele>
				<time>2026-08-17T02:50:39Z</time>
			</trkpt>
			<trkpt lat="30.240914" lon="120.109814">
				<speed>0.000000</speed>
				<ele>48.000000</ele>
				<time>2026-08-17T02:50:40Z</time>
			</trkpt>
			<trkpt lat="30.240911" lon="120.109798">
				<speed>0.000000</speed>
				<ele>49.000000</ele>
				<time>2026-08-17T02:50:41Z</time>
			</trkpt>
			<trkpt lat="30.240908" lon="120.109782">
				<speed>0.000000</speed>
				<ele>49.000000</ele>
				<time>2026-08-17T02:50:42Z</time>
			</trkpt>
			<trkpt lat="30.240904" lon="120.109766">
				<speed>0.000000</speed>
				<ele>49.000000</ele>
				<time>2026-08-17T02:50:43Z</time>
			</trkpt>
			<trkpt lat="30.240887" lon="120.109723">
				<speed>0.000000</speed>
				<ele>49.000000</ele>
				<time>2026-08-17T02:50:44Z</time>
			</trkpt>
			<trkpt lat="30.240879" lon="120.109710">
				<speed>0.000000</speed>
				<ele>49.000000</ele>
				<time>2026-08-17T02:50:45Z</time>
			</trkpt>
			<trkpt lat="30.240870" lon="120.109697">
				<speed>0.000000</speed>
				<ele>49.000000</ele>
				<time>2026-08-17T02:50:46Z</time>
			</trkpt>
			<trkpt lat="30.240861" lon="120.109685">
				<speed>0.000000</speed>
				<ele>49.000000</ele>
				<time>2026-08-17T02:50:47Z</time>
			</trkpt>
			<trkpt lat="30.240831" lon="120.109650">
				<speed>0.000000</speed>
				<ele>49.000000</ele>
				<time>2026-08-17T02:50:48Z</time>
			</trkpt>
			<trkpt lat="30.240821" lon="120.109641">
				<speed>0.000000</speed>
				<ele>50.000000</ele>
				<time>2026-08-17T02:50:49Z</time>
			</trkpt>
			<trkpt lat="30.240811" lon="120.109632">
				<speed>0.000000</speed>
				<ele>50.000000</ele>
				<time>2026-08-17T02:50:50Z</time>
			</trkpt>
			<trkpt lat="30.240802" lon="120.109622">
				<speed>0.000000</speed>
				<ele>50.000000</ele>
				<time>2026-08-17T02:50:51Z</time>
			</trkpt>
			<trkpt lat="30.240773" lon="120.109600">
				<speed>0.000000</speed>
				<ele>50.000000</ele>
				<time>2026-08-17T02:50:52Z</time>
			</trkpt>
			<trkpt lat="30.240764" lon="120.109592">
				<speed>0.000000</speed>
				<ele>50.000000</ele>
				<time>2026-08-17T02:50:53Z</time>
			</trkpt>
			<trkpt lat="30.240754" lon="120.109584">
				<speed>0.000000</speed>
				<ele>50.000000</ele>
				<time>2026-08-17T02:50:54Z</time>
			</trkpt>
			<trkpt lat="30.240745" lon="120.109577">
				<speed>0.000000</speed>
				<ele>50.000000</ele>
				<time>2026-08-17T02:50:55Z</time>
			</trkpt>
			<trkpt lat="30.240720" lon="120.109553">
				<speed>0.000000</speed>
				<ele>50.000000</ele>
				<time>2026-08-17T02:50:56Z</time>
			</trkpt>
			<trkpt lat="30.240711" lon="120.109543">
				<speed>0.000000</speed>
				<ele>50.000000</ele>
				<time>2026-08-17T02:50:57Z</time>
			</trkpt>
			<trkpt lat="30.240703" lon="120.109534">
				<speed>0.000000</speed>
				<ele>50.000000</ele>
				<time>2026-08-17T02:50:58Z</time>
			</trkpt>
			<trkpt lat="30.240695" lon="120.109525">
				<speed>0.000000</speed>
				<ele>50.000000</ele>
				<time>2026-08-17T02:50:59Z</time>
			</trkpt>
			<trkpt lat="30.240670" lon="120.109496">
				<speed>0.000000</speed>
				<ele>50.000000</ele>
				<time>2026-08-17T02:51:00Z</time>
			</trkpt>
			<trkpt lat="30.240662" lon="120.109486">
				<speed>0.000000</speed>
				<ele>50.000000</ele>
				<time>2026-08-17T02:51:01Z</time>
			</trkpt>
			<trkpt lat="30.240654" lon="120.109477">
				<speed>0.000000</speed>
				<ele>50.000000</ele>
				<time>2026-08-17T02:51:02Z</time>
			</trkpt>
			<trkpt lat="30.240646" lon="120.109467">
				<speed>0.000000</speed>
				<ele>50.000000</ele>
				<time>2026-08-17T02:51:03Z</time>
			</trkpt>
			<trkpt lat="30.240622" lon="120.109438">
				<speed>0.000000</speed>
				<ele>50.000000</ele>
				<time>2026-08-17T02:51:04Z</time>
			</trkpt>
			<trkpt lat="30.240613" lon="120.109428">
				<speed>0.000000</speed>
				<ele>51.000000</ele>
				<time>2026-08-17T02:51:05Z</time>
			</trkpt>
			<trkpt lat="30.240605" lon="120.109418">
				<speed>0.000000</speed>
				<ele>51.000000</ele>
				<time>2026-08-17T02:51:06Z</time>
			</trkpt>
			<trkpt lat="30.240597" lon="120.109407">
				<speed>0.000000</speed>
				<ele>51.000000</ele>
				<time>2026-08-17T02:51:07Z</time>
			</trkpt>
			<trkpt lat="30.240573" lon="120.109373">
				<speed>0.000000</speed>
				<ele>51.000000</ele>
				<time>2026-08-17T02:51:08Z</time>
			</trkpt>
			<trkpt lat="30.240565" lon="120.109363">
				<speed>0.000000</speed>
				<ele>51.000000</ele>
				<time>2026-08-17T02:51:09Z</time>
			</trkpt>
			<trkpt lat="30.240557" lon="120.109352">
				<speed>0.000000</speed>
				<ele>51.000000</ele>
				<time>2026-08-17T02:51:10Z</time>
			</trkpt>
			<trkpt lat="30.240549" lon="120.109342">
				<speed>0.000000</speed>
				<ele>51.000000</ele>
				<time>2026-08-17T02:51:11Z</time>
			</trkpt>
			<trkpt lat="30.240526" lon="120.109315">
				<speed>0.000000</speed>
				<ele>51.000000</ele>
				<time>2026-08-17T02:51:12Z</time>
			</trkpt>
			<trkpt lat="30.240519" lon="120.109307">
				<speed>0.000000</speed>
				<ele>52.000000</ele>
				<time>2026-08-17T02:51:13Z</time>
			</trkpt>
			<trkpt lat="30.240512" lon="120.109298">
				<speed>0.000000</speed>
				<ele>52.000000</ele>
				<time>2026-08-17T02:51:14Z</time>
			</trkpt>
			<trkpt lat="30.240505" lon="120.109290">
				<speed>0.000000</speed>
				<ele>52.000000</ele>
				<time>2026-08-17T02:51:15Z</time>
			</trkpt>
			<trkpt lat="30.240481" lon="120.109263">
				<speed>0.000000</speed>
				<ele>52.000000</ele>
				<time>2026-08-17T02:51:16Z</time>
			</trkpt>
			<trkpt lat="30.240472" lon="120.109254">
				<speed>0.000000</speed>
				<ele>52.000000</ele>
				<time>2026-08-17T02:51:17Z</time>
			</trkpt>
			<trkpt lat="30.240463" lon="120.109246">
				<speed>0.000000</speed>
				<ele>52.000000</ele>
				<time>2026-08-17T02:51:18Z</time>
			</trkpt>
			<trkpt lat="30.240454" lon="120.109237">
				<speed>0.000000</speed>
				<ele>52.000000</ele>
				<time>2026-08-17T02:51:19Z</time>
			</trkpt>
			<trkpt lat="30.240425" lon="120.109213">
				<speed>0.000000</speed>
				<ele>52.000000</ele>
				<time>2026-08-17T02:51:20Z</time>
			</trkpt>
			<trkpt lat="30.240414" lon="120.109206">
				<speed>0.000000</speed>
				<ele>53.000000</ele>
				<time>2026-08-17T02:51:21Z</time>
			</trkpt>
			<trkpt lat="30.240403" lon="120.109198">
				<speed>0.000000</speed>
				<ele>53.000000</ele>
				<time>2026-08-17T02:51:22Z</time>
			</trkpt>
			<trkpt lat="30.240392" lon="120.109191">
				<speed>0.000000</speed>
				<ele>53.000000</ele>
				<time>2026-08-17T02:51:23Z</time>
			</trkpt>
			<trkpt lat="30.240358" lon="120.109175">
				<speed>0.000000</speed>
				<ele>53.000000</ele>
				<time>2026-08-17T02:51:24Z</time>
			</trkpt>
			<trkpt lat="30.240347" lon="120.109172">
				<speed>0.000000</speed>
				<ele>54.000000</ele>
				<time>2026-08-17T02:51:25Z</time>
			</trkpt>
			<trkpt lat="30.240336" lon="120.109168">
				<speed>0.000000</speed>
				<ele>54.000000</ele>
				<time>2026-08-17T02:51:26Z</time>
			</trkpt>
			<trkpt lat="30.240325" lon="120.109165">
				<speed>0.000000</speed>
				<ele>54.000000</ele>
				<time>2026-08-17T02:51:27Z</time>
			</trkpt>
			<trkpt lat="30.240295" lon="120.109159">
				<speed>0.000000</speed>
				<ele>54.000000</ele>
				<time>2026-08-17T02:51:28Z</time>
			</trkpt>
			<trkpt lat="30.240286" lon="120.109157">
				<speed>0.000000</speed>
				<ele>54.000000</ele>
				<time>2026-08-17T02:51:29Z</time>
			</trkpt>
			<trkpt lat="30.240276" lon="120.109156">
				<speed>0.000000</speed>
				<ele>54.000000</ele>
				<time>2026-08-17T02:51:30Z</time>
			</trkpt>
			<trkpt lat="30.240266" lon="120.109154">
				<speed>0.000000</speed>
				<ele>54.000000</ele>
				<time>2026-08-17T02:51:31Z</time>
			</trkpt>
			<trkpt lat="30.240238" lon="120.109153">
				<speed>0.000000</speed>
				<ele>54.000000</ele>
				<time>2026-08-17T02:51:32Z</time>
			</trkpt>
			<trkpt lat="30.240231" lon="120.109155">
				<speed>0.000000</speed>
				<ele>55.000000</ele>
				<time>2026-08-17T02:51:33Z</time>
			</trkpt>
			<trkpt lat="30.240223" lon="120.109157">
				<speed>0.000000</speed>
				<ele>55.000000</ele>
				<time>2026-08-17T02:51:34Z</time>
			</trkpt>
			<trkpt lat="30.240215" lon="120.109159">
				<speed>0.000000</speed>
				<ele>55.000000</ele>
				<time>2026-08-17T02:51:35Z</time>
			</trkpt>
			<trkpt lat="30.240196" lon="120.109173">
				<speed>0.000000</speed>
				<ele>55.000000</ele>
				<time>2026-08-17T02:51:36Z</time>
			</trkpt>
			<trkpt lat="30.240193" lon="120.109176">
				<speed>0.000000</speed>
				<ele>55.000000</ele>
				<time>2026-08-17T02:51:37Z</time>
			</trkpt>
			<trkpt lat="30.240190" lon="120.109179">
				<speed>0.000000</speed>
				<ele>55.000000</ele>
				<time>2026-08-17T02:51:38Z</time>
			</trkpt>
			<trkpt lat="30.240187" lon="120.109182">
				<speed>0.000000</speed>
				<ele>55.000000</ele>
				<time>2026-08-17T02:51:39Z</time>
			</trkpt>
			<trkpt lat="30.240175" lon="120.109194">
				<speed>0.000000</speed>
				<ele>55.000000</ele>
				<time>2026-08-17T02:51:40Z</time>
			</trkpt>
			<trkpt lat="30.240171" lon="120.109196">
				<speed>0.000000</speed>
				<ele>56.000000</ele>
				<time>2026-08-17T02:51:41Z</time>
			</trkpt>
			<trkpt lat="30.240167" lon="120.109198">
				<speed>0.000000</speed>
				<ele>56.000000</ele>
				<time>2026-08-17T02:51:42Z</time>
			</trkpt>
			<trkpt lat="30.240163" lon="120.109200">
				<speed>0.000000</speed>
				<ele>56.000000</ele>
				<time>2026-08-17T02:51:43Z</time>
			</trkpt>
			<trkpt lat="30.240150" lon="120.109206">
				<speed>0.000000</speed>
				<ele>56.000000</ele>
				<time>2026-08-17T02:51:44Z</time>
			</trkpt>
			<trkpt lat="30.240146" lon="120.109208">
				<speed>0.000000</speed>
				<ele>56.000000</ele>
				<time>2026-08-17T02:51:45Z</time>
			</trkpt>
			<trkpt lat="30.240142" lon="120.109210">
				<speed>0.000000</speed>
				<ele>56.000000</ele>
				<time>2026-08-17T02:51:46Z</time>
			</trkpt>
			<trkpt lat="30.240138" lon="120.109211">
				<speed>0.000000</speed>
				<ele>56.000000</ele>
				<time>2026-08-17T02:51:47Z</time>
			</trkpt>
			<trkpt lat="30.240124" lon="120.109216">
				<speed>0.000000</speed>
				<ele>56.000000</ele>
				<time>2026-08-17T02:51:48Z</time>
			</trkpt>
			<trkpt lat="30.240120" lon="120.109218">
				<speed>0.000000</speed>
				<ele>57.000000</ele>
				<time>2026-08-17T02:51:49Z</time>
			</trkpt>
			<trkpt lat="30.240115" lon="120.109219">
				<speed>0.000000</speed>
				<ele>57.000000</ele>
				<time>2026-08-17T02:51:50Z</time>
			</trkpt>
			<trkpt lat="30.240110" lon="120.109221">
				<speed>0.000000</speed>
				<ele>57.000000</ele>
				<time>2026-08-17T02:51:51Z</time>
			</trkpt>
			<trkpt lat="30.240096" lon="120.109226">
				<speed>0.000000</speed>
				<ele>57.000000</ele>
				<time>2026-08-17T02:51:52Z</time>
			</trkpt>
			<trkpt lat="30.240091" lon="120.109229">
				<speed>0.000000</speed>
				<ele>58.000000</ele>
				<time>2026-08-17T02:51:53Z</time>
			</trkpt>
			<trkpt lat="30.240086" lon="120.109231">
				<speed>0.000000</speed>
				<ele>58.000000</ele>
				<time>2026-08-17T02:51:54Z</time>
			</trkpt>
			<trkpt lat="30.240082" lon="120.109233">
				<speed>0.000000</speed>
				<ele>58.000000</ele>
				<time>2026-08-17T02:51:55Z</time>
			</trkpt>
			<trkpt lat="30.240068" lon="120.109241">
				<speed>0.000000</speed>
				<ele>58.000000</ele>
				<time>2026-08-17T02:51:56Z</time>
			</trkpt>
			<trkpt lat="30.240063" lon="120.109244">
				<speed>0.000000</speed>
				<ele>58.000000</ele>
				<time>2026-08-17T02:51:57Z</time>
			</trkpt>
			<trkpt lat="30.240059" lon="120.109247">
				<speed>0.000000</speed>
				<ele>58.000000</ele>
				<time>2026-08-17T02:51:58Z</time>
			</trkpt>
			<trkpt lat="30.240054" lon="120.109250">
				<speed>0.000000</speed>
				<ele>58.000000</ele>
				<time>2026-08-17T02:51:59Z</time>
			</trkpt>
			<trkpt lat="30.240037" lon="120.109259">
				<speed>0.000000</speed>
				<ele>58.000000</ele>
				<time>2026-08-17T02:52:00Z</time>
			</trkpt>
			<trkpt lat="30.240031" lon="120.109263">
				<speed>0.000000</speed>
				<ele>59.000000</ele>
				<time>2026-08-17T02:52:01Z</time>
			</trkpt>
			<trkpt lat="30.240025" lon="120.109268">
				<speed>0.000000</speed>
				<ele>59.000000</ele>
				<time>2026-08-17T02:52:02Z</time>
			</trkpt>
			<trkpt lat="30.240020" lon="120.109272">
				<speed>0.000000</speed>
				<ele>59.000000</ele>
				<time>2026-08-17T02:52:03Z</time>
			</trkpt>
			<trkpt lat="30.240002" lon="120.109287">
				<speed>0.000000</speed>
				<ele>59.000000</ele>
				<time>2026-08-17T02:52:04Z</time>
			</trkpt>
			<trkpt lat="30.239996" lon="120.109292">
				<speed>0.000000</speed>
				<ele>59.000000</ele>
				<time>2026-08-17T02:52:05Z</time>
			</trkpt>
			<trkpt lat="30.239990" lon="120.109297">
				<speed>0.000000</speed>
				<ele>59.000000</ele>
				<time>2026-08-17T02:52:06Z</time>
			</trkpt>
			<trkpt lat="30.239985" lon="120.109303">
				<speed>0.000000</speed>
				<ele>59.000000</ele>
				<time>2026-08-17T02:52:07Z</time>
			</trkpt>
			<trkpt lat="30.239967" lon="120.109317">
				<speed>0.000000</speed>
				<ele>59.000000</ele>
				<time>2026-08-17T02:52:08Z</time>
			</trkpt>
			<trkpt lat="30.239961" lon="120.109321">
				<speed>0.000000</speed>
				<ele>59.000000</ele>
				<time>2026-08-17T02:52:09Z</time>
			</trkpt>
			<trkpt lat="30.239955" lon="120.109326">
				<speed>0.000000</speed>
				<ele>59.000000</ele>
				<time>2026-08-17T02:52:10Z</time>
			</trkpt>
			<trkpt lat="30.239949" lon="120.109331">
				<speed>0.000000</speed>
				<ele>59.000000</ele>
				<time>2026-08-17T02:52:11Z</time>
			</trkpt>
			<trkpt lat="30.239929" lon="120.109343">
				<speed>0.000000</speed>
				<ele>59.000000</ele>
				<time>2026-08-17T02:52:12Z</time>
			</trkpt>
			<trkpt lat="30.239922" lon="120.109347">
				<speed>0.000000</speed>
				<ele>59.000000</ele>
				<time>2026-08-17T02:52:13Z</time>
			</trkpt>
			<trkpt lat="30.239915" lon="120.109351">
				<speed>0.000000</speed>
				<ele>59.000000</ele>
				<time>2026-08-17T02:52:14Z</time>
			</trkpt>
			<trkpt lat="30.239907" lon="120.109355">
				<speed>0.000000</speed>
				<ele>59.000000</ele>
				<time>2026-08-17T02:52:15Z</time>
			</trkpt>
			<trkpt lat="30.239888" lon="120.109367">
				<speed>0.000000</speed>
				<ele>59.000000</ele>
				<time>2026-08-17T02:52:16Z</time>
			</trkpt>
			<trkpt lat="30.239881" lon="120.109371">
				<speed>0.000000</speed>
				<ele>60.000000</ele>
				<time>2026-08-17T02:52:17Z</time>
			</trkpt>
			<trkpt lat="30.239875" lon="120.109376">
				<speed>0.000000</speed>
				<ele>60.000000</ele>
				<time>2026-08-17T02:52:18Z</time>
			</trkpt>
			<trkpt lat="30.239869" lon="120.109380">
				<speed>0.000000</speed>
				<ele>60.000000</ele>
				<time>2026-08-17T02:52:19Z</time>
			</trkpt>
			<trkpt lat="30.239851" lon="120.109393">
				<speed>0.000000</speed>
				<ele>60.000000</ele>
				<time>2026-08-17T02:52:20Z</time>
			</trkpt>
			<trkpt lat="30.239846" lon="120.109396">
				<speed>0.000000</speed>
				<ele>60.000000</ele>
				<time>2026-08-17T02:52:21Z</time>
			</trkpt>
			<trkpt lat="30.239840" lon="120.109400">
				<speed>0.000000</speed>
				<ele>60.000000</ele>
				<time>2026-08-17T02:52:22Z</time>
			</trkpt>
			<trkpt lat="30.239834" lon="120.109404">
				<speed>0.000000</speed>
				<ele>60.000000</ele>
				<time>2026-08-17T02:52:23Z</time>
			</trkpt>
			<trkpt lat="30.239817" lon="120.109414">
				<speed>0.000000</speed>
				<ele>60.000000</ele>
				<time>2026-08-17T02:52:24Z</time>
			</trkpt>
			<trkpt lat="30.239812" lon="120.109418">
				<speed>0.000000</speed>
				<ele>61.000000</ele>
				<time>2026-08-17T02:52:25Z</time>
			</trkpt>
			<trkpt lat="30.239807" lon="120.109422">
				<speed>0.000000</speed>
				<ele>61.000000</ele>
				<time>2026-08-17T02:52:26Z</time>
			</trkpt>
			<trkpt lat="30.239802" lon="120.109426">
				<speed>0.000000</speed>
				<ele>61.000000</ele>
				<time>2026-08-17T02:52:27Z</time>
			</trkpt>
			<trkpt lat="30.239787" lon="120.109435">
				<speed>0.000000</speed>
				<ele>61.000000</ele>
				<time>2026-08-17T02:52:28Z</time>
			</trkpt>
			<trkpt lat="30.239771" lon="120.109441">
				<speed>0.000000</speed>
				<ele>62.000000</ele>
				<time>2026-08-17T02:52:34Z</time>
			</trkpt>
			<trkpt lat="30.239759" lon="120.109447">
				<speed>0.000000</speed>
				<ele>62.000000</ele>
				<time>2026-08-17T02:52:35Z</time>
			</trkpt>
			<trkpt lat="30.239755" lon="120.109449">
				<speed>0.000000</speed>
				<ele>62.000000</ele>
				<time>2026-08-17T02:52:36Z</time>
			</trkpt>
			<trkpt lat="30.239752" lon="120.109452">
				<speed>0.000000</speed>
				<ele>63.000000</ele>
				<time>2026-08-17T02:52:37Z</time>
			</trkpt>
			<trkpt lat="30.239749" lon="120.109454">
				<speed>0.000000</speed>
				<ele>63.000000</ele>
				<time>2026-08-17T02:52:38Z</time>
			</trkpt>
			<trkpt lat="30.239738" lon="120.109464">
				<speed>0.000000</speed>
				<ele>63.000000</ele>
				<time>2026-08-17T02:52:39Z</time>
			</trkpt>
			<trkpt lat="30.239732" lon="120.109467">
				<speed>0.000000</speed>
				<ele>63.000000</ele>
				<time>2026-08-17T02:52:40Z</time>
			</trkpt>
			<trkpt lat="30.239727" lon="120.109470">
				<speed>0.000000</speed>
				<ele>63.000000</ele>
				<time>2026-08-17T02:52:41Z</time>
			</trkpt>
			<trkpt lat="30.239722" lon="120.109473">
				<speed>0.000000</speed>
				<ele>63.000000</ele>
				<time>2026-08-17T02:52:42Z</time>
			</trkpt>
			<trkpt lat="30.239704" lon="120.109483">
				<speed>0.000000</speed>
				<ele>63.000000</ele>
				<time>2026-08-17T02:52:43Z</time>
			</trkpt>
			<trkpt lat="30.239699" lon="120.109486">
				<speed>0.000000</speed>
				<ele>63.000000</ele>
				<time>2026-08-17T02:52:44Z</time>
			</trkpt>
			<trkpt lat="30.239693" lon="120.109490">
				<speed>0.000000</speed>
				<ele>64.000000</ele>
				<time>2026-08-17T02:52:45Z</time>
			</trkpt>
			<trkpt lat="30.239687" lon="120.109493">
				<speed>0.000000</speed>
				<ele>64.000000</ele>
				<time>2026-08-17T02:52:46Z</time>
			</trkpt>
			<trkpt lat="30.239668" lon="120.109503">
				<speed>0.000000</speed>
				<ele>64.000000</ele>
				<time>2026-08-17T02:52:47Z</time>
			</trkpt>
			<trkpt lat="30.239661" lon="120.109506">
				<speed>0.000000</speed>
				<ele>64.000000</ele>
				<time>2026-08-17T02:52:48Z</time>
			</trkpt>
			<trkpt lat="30.239655" lon="120.109509">
				<speed>0.000000</speed>
				<ele>64.000000</ele>
				<time>2026-08-17T02:52:49Z</time>
			</trkpt>
			<trkpt lat="30.239649" lon="120.109512">
				<speed>0.000000</speed>
				<ele>64.000000</ele>
				<time>2026-08-17T02:52:50Z</time>
			</trkpt>
			<trkpt lat="30.239631" lon="120.109521">
				<speed>0.000000</speed>
				<ele>64.000000</ele>
				<time>2026-08-17T02:52:51Z</time>
			</trkpt>
			<trkpt lat="30.239625" lon="120.109524">
				<speed>0.000000</speed>
				<ele>64.000000</ele>
				<time>2026-08-17T02:52:52Z</time>
			</trkpt>
			<trkpt lat="30.239619" lon="120.109527">
				<speed>0.000000</speed>
				<ele>65.000000</ele>
				<time>2026-08-17T02:52:53Z</time>
			</trkpt>
			<trkpt lat="30.239614" lon="120.109530">
				<speed>0.000000</speed>
				<ele>65.000000</ele>
				<time>2026-08-17T02:52:54Z</time>
			</trkpt>
			<trkpt lat="30.239598" lon="120.109536">
				<speed>0.000000</speed>
				<ele>65.000000</ele>
				<time>2026-08-17T02:52:55Z</time>
			</trkpt>
			<trkpt lat="30.239593" lon="120.109537">
				<speed>0.000000</speed>
				<ele>65.000000</ele>
				<time>2026-08-17T02:52:56Z</time>
			</trkpt>
			<trkpt lat="30.239589" lon="120.109538">
				<speed>0.000000</speed>
				<ele>66.000000</ele>
				<time>2026-08-17T02:52:57Z</time>
			</trkpt>
			<trkpt lat="30.239584" lon="120.109539">
				<speed>0.000000</speed>
				<ele>66.000000</ele>
				<time>2026-08-17T02:52:58Z</time>
			</trkpt>
			<trkpt lat="30.239571" lon="120.109543">
				<speed>0.000000</speed>
				<ele>66.000000</ele>
				<time>2026-08-17T02:52:59Z</time>
			</trkpt>
			<trkpt lat="30.239566" lon="120.109543">
				<speed>0.000000</speed>
				<ele>66.000000</ele>
				<time>2026-08-17T02:53:00Z</time>
			</trkpt>
			<trkpt lat="30.239562" lon="120.109544">
				<speed>0.000000</speed>
				<ele>67.000000</ele>
				<time>2026-08-17T02:53:01Z</time>
			</trkpt>
			<trkpt lat="30.239557" lon="120.109545">
				<speed>0.000000</speed>
				<ele>67.000000</ele>
				<time>2026-08-17T02:53:02Z</time>
			</trkpt>
			<trkpt lat="30.239542" lon="120.109546">
				<speed>0.000000</speed>
				<ele>67.000000</ele>
				<time>2026-08-17T02:53:03Z</time>
			</trkpt>
			<trkpt lat="30.239536" lon="120.109546">
				<speed>0.000000</speed>
				<ele>67.000000</ele>
				<time>2026-08-17T02:53:04Z</time>
			</trkpt>
			<trkpt lat="30.239531" lon="120.109546">
				<speed>0.000000</speed>
				<ele>67.000000</ele>
				<time>2026-08-17T02:53:05Z</time>
			</trkpt>
			<trkpt lat="30.239525" lon="120.109546">
				<speed>0.000000</speed>
				<ele>67.000000</ele>
				<time>2026-08-17T02:53:06Z</time>
			</trkpt>
			<trkpt lat="30.239506" lon="120.109547">
				<speed>0.000000</speed>
				<ele>67.000000</ele>
				<time>2026-08-17T02:53:07Z</time>
			</trkpt>
			<trkpt lat="30.239499" lon="120.109547">
				<speed>0.000000</speed>
				<ele>67.000000</ele>
				<time>2026-08-17T02:53:08Z</time>
			</trkpt>
			<trkpt lat="30.239493" lon="120.109546">
				<speed>0.000000</speed>
				<ele>68.000000</ele>
				<time>2026-08-17T02:53:09Z</time>
			</trkpt>
			<trkpt lat="30.239486" lon="120.109546">
				<speed>0.000000</speed>
				<ele>68.000000</ele>
				<time>2026-08-17T02:53:10Z</time>
			</trkpt>
			<trkpt lat="30.239466" lon="120.109542">
				<speed>0.000000</speed>
				<ele>68.000000</ele>
				<time>2026-08-17T02:53:11Z</time>
			</trkpt>
			<trkpt lat="30.239460" lon="120.109540">
				<speed>0.000000</speed>
				<ele>68.000000</ele>
				<time>2026-08-17T02:53:12Z</time>
			</trkpt>
			<trkpt lat="30.239454" lon="120.109539">
				<speed>0.000000</speed>
				<ele>68.000000</ele>
				<time>2026-08-17T02:53:13Z</time>
			</trkpt>
			<trkpt lat="30.239448" lon="120.109537">
				<speed>0.000000</speed>
				<ele>68.000000</ele>
				<time>2026-08-17T02:53:14Z</time>
			</trkpt>
			<trkpt lat="30.239434" lon="120.109526">
				<speed>0.000000</speed>
				<ele>68.000000</ele>
				<time>2026-08-17T02:53:15Z</time>
			</trkpt>
			<trkpt lat="30.239429" lon="120.109521">
				<speed>0.000000</speed>
				<ele>68.000000</ele>
				<time>2026-08-17T02:53:16Z</time>
			</trkpt>
			<trkpt lat="30.239425" lon="120.109516">
				<speed>0.000000</speed>
				<ele>68.000000</ele>
				<time>2026-08-17T02:53:17Z</time>
			</trkpt>
			<trkpt lat="30.239421" lon="120.109511">
				<speed>0.000000</speed>
				<ele>68.000000</ele>
				<time>2026-08-17T02:53:18Z</time>
			</trkpt>
			<trkpt lat="30.239416" lon="120.109507">
				<speed>0.000000</speed>
				<ele>68.000000</ele>
				<time>2026-08-17T02:53:19Z</time>
			</trkpt>
			<trkpt lat="30.239411" lon="120.109503">
				<speed>0.000000</speed>
				<ele>68.000000</ele>
				<time>2026-08-17T02:53:20Z</time>
			</trkpt>
			<trkpt lat="30.239406" lon="120.109498">
				<speed>0.000000</speed>
				<ele>69.000000</ele>
				<time>2026-08-17T02:53:21Z</time>
			</trkpt>
			<trkpt lat="30.239394" lon="120.109494">
				<speed>0.000000</speed>
				<ele>69.000000</ele>
				<time>2026-08-17T02:53:22Z</time>
			</trkpt>
			<trkpt lat="30.239390" lon="120.109494">
				<speed>0.000000</speed>
				<ele>69.000000</ele>
				<time>2026-08-17T02:53:23Z</time>
			</trkpt>
			<trkpt lat="30.239386" lon="120.109493">
				<speed>0.000000</speed>
				<ele>69.000000</ele>
				<time>2026-08-17T02:53:24Z</time>
			</trkpt>
			<trkpt lat="30.239382" lon="120.109492">
				<speed>0.000000</speed>
				<ele>69.000000</ele>
				<time>2026-08-17T02:53:25Z</time>
			</trkpt>
			<trkpt lat="30.239373" lon="120.109487">
				<speed>0.000000</speed>
				<ele>69.000000</ele>
				<time>2026-08-17T02:53:26Z</time>
			</trkpt>
			<trkpt lat="30.239371" lon="120.109486">
				<speed>0.000000</speed>
				<ele>69.000000</ele>
				<time>2026-08-17T02:53:27Z</time>
			</trkpt>
			<trkpt lat="30.239369" lon="120.109485">
				<speed>0.000000</speed>
				<ele>69.000000</ele>
				<time>2026-08-17T02:53:28Z</time>
			</trkpt>
			<trkpt lat="30.239368" lon="120.109484">
				<speed>0.000000</speed>
				<ele>70.000000</ele>
				<time>2026-08-17T02:53:29Z</time>
			</trkpt>
			<trkpt lat="30.239358" lon="120.109481">
				<speed>0.000000</speed>
				<ele>70.000000</ele>
				<time>2026-08-17T02:53:30Z</time>
			</trkpt>
			<trkpt lat="30.239355" lon="120.109481">
				<speed>0.000000</speed>
				<ele>70.000000</ele>
				<time>2026-08-17T02:53:31Z</time>
			</trkpt>
			<trkpt lat="30.239351" lon="120.109481">
				<speed>0.000000</speed>
				<ele>70.000000</ele>
				<time>2026-08-17T02:53:32Z</time>
			</trkpt>
			<trkpt lat="30.239348" lon="120.109481">
				<speed>0.000000</speed>
				<ele>71.000000</ele>
				<time>2026-08-17T02:53:33Z</time>
			</trkpt>
			<trkpt lat="30.239335" lon="120.109479">
				<speed>0.000000</speed>
				<ele>71.000000</ele>
				<time>2026-08-17T02:53:34Z</time>
			</trkpt>
			<trkpt lat="30.239331" lon="120.109477">
				<speed>0.000000</speed>
				<ele>71.000000</ele>
				<time>2026-08-17T02:53:35Z</time>
			</trkpt>
			<trkpt lat="30.239328" lon="120.109474">
				<speed>0.000000</speed>
				<ele>71.000000</ele>
				<time>2026-08-17T02:53:36Z</time>
			</trkpt>
			<trkpt lat="30.239324" lon="120.109472">
				<speed>0.000000</speed>
				<ele>72.000000</ele>
				<time>2026-08-17T02:53:37Z</time>
			</trkpt>
			<trkpt lat="30.239313" lon="120.109460">
				<speed>0.000000</speed>
				<ele>72.000000</ele>
				<time>2026-08-17T02:53:38Z</time>
			</trkpt>
			<trkpt lat="30.239309" lon="120.109456">
				<speed>0.000000</speed>
				<ele>72.000000</ele>
				<time>2026-08-17T02:53:39Z</time>
			</trkpt>
			<trkpt lat="30.239305" lon="120.109451">
				<speed>0.000000</speed>
				<ele>72.000000</ele>
				<time>2026-08-17T02:53:40Z</time>
			</trkpt>
			<trkpt lat="30.239302" lon="120.109447">
				<speed>0.000000</speed>
				<ele>72.000000</ele>
				<time>2026-08-17T02:53:41Z</time>
			</trkpt>
			<trkpt lat="30.239291" lon="120.109437">
				<speed>0.000000</speed>
				<ele>72.000000</ele>
				<time>2026-08-17T02:53:42Z</time>
			</trkpt>
			<trkpt lat="30.239287" lon="120.109434">
				<speed>0.000000</speed>
				<ele>72.000000</ele>
				<time>2026-08-17T02:53:43Z</time>
			</trkpt>
			<trkpt lat="30.239283" lon="120.109432">
				<speed>0.000000</speed>
				<ele>72.000000</ele>
				<time>2026-08-17T02:53:44Z</time>
			</trkpt>
			<trkpt lat="30.239279" lon="120.109430">
				<speed>0.000000</speed>
				<ele>73.000000</ele>
				<time>2026-08-17T02:53:45Z</time>
			</trkpt>
			<trkpt lat="30.239266" lon="120.109425">
				<speed>0.000000</speed>
				<ele>73.000000</ele>
				<time>2026-08-17T02:53:46Z</time>
			</trkpt>
			<trkpt lat="30.239261" lon="120.109423">
				<speed>0.000000</speed>
				<ele>73.000000</ele>
				<time>2026-08-17T02:53:47Z</time>
			</trkpt>
			<trkpt lat="30.239256" lon="120.109421">
				<speed>0.000000</speed>
				<ele>73.000000</ele>
				<time>2026-08-17T02:53:48Z</time>
			</trkpt>
			<trkpt lat="30.239252" lon="120.109419">
				<speed>0.000000</speed>
				<ele>73.000000</ele>
				<time>2026-08-17T02:53:49Z</time>
			</trkpt>
			<trkpt lat="30.239235" lon="120.109411">
				<speed>0.000000</speed>
				<ele>73.000000</ele>
				<time>2026-08-17T02:53:50Z</time>
			</trkpt>
			<trkpt lat="30.239229" lon="120.109408">
				<speed>0.000000</speed>
				<ele>73.000000</ele>
				<time>2026-08-17T02:53:51Z</time>
			</trkpt>
			<trkpt lat="30.239224" lon="120.109404">
				<speed>0.000000</speed>
				<ele>73.000000</ele>
				<time>2026-08-17T02:53:52Z</time>
			</trkpt>
			<trkpt lat="30.239218" lon="120.109401">
				<speed>0.000000</speed>
				<ele>74.000000</ele>
				<time>2026-08-17T02:53:53Z</time>
			</trkpt>
			<trkpt lat="30.239201" lon="120.109392">
				<speed>0.000000</speed>
				<ele>74.000000</ele>
				<time>2026-08-17T02:53:54Z</time>
			</trkpt>
			<trkpt lat="30.239195" lon="120.109388">
				<speed>0.000000</speed>
				<ele>74.000000</ele>
				<time>2026-08-17T02:53:55Z</time>
			</trkpt>
			<trkpt lat="30.239190" lon="120.109384">
				<speed>0.000000</speed>
				<ele>74.000000</ele>
				<time>2026-08-17T02:53:56Z</time>
			</trkpt>
			<trkpt lat="30.239184" lon="120.109380">
				<speed>0.000000</speed>
				<ele>75.000000</ele>
				<time>2026-08-17T02:53:57Z</time>
			</trkpt>
			<trkpt lat="30.239169" lon="120.109368">
				<speed>0.000000</speed>
				<ele>75.000000</ele>
				<time>2026-08-17T02:53:58Z</time>
			</trkpt>
			<trkpt lat="30.239163" lon="120.109364">
				<speed>0.000000</speed>
				<ele>75.000000</ele>
				<time>2026-08-17T02:53:59Z</time>
			</trkpt>
			<trkpt lat="30.239158" lon="120.109360">
				<speed>0.000000</speed>
				<ele>75.000000</ele>
				<time>2026-08-17T02:54:00Z</time>
			</trkpt>
			<trkpt lat="30.239153" lon="120.109356">
				<speed>0.000000</speed>
				<ele>76.000000</ele>
				<time>2026-08-17T02:54:01Z</time>
			</trkpt>
			<trkpt lat="30.239139" lon="120.109341">
				<speed>0.000000</speed>
				<ele>76.000000</ele>
				<time>2026-08-17T02:54:02Z</time>
			</trkpt>
			<trkpt lat="30.239134" lon="120.109335">
				<speed>0.000000</speed>
				<ele>76.000000</ele>
				<time>2026-08-17T02:54:03Z</time>
			</trkpt>
			<trkpt lat="30.239130" lon="120.109329">
				<speed>0.000000</speed>
				<ele>76.000000</ele>
				<time>2026-08-17T02:54:04Z</time>
			</trkpt>
			<trkpt lat="30.239126" lon="120.109323">
				<speed>0.000000</speed>
				<ele>76.000000</ele>
				<time>2026-08-17T02:54:05Z</time>
			</trkpt>
			<trkpt lat="30.239113" lon="120.109303">
				<speed>0.000000</speed>
				<ele>76.000000</ele>
				<time>2026-08-17T02:54:06Z</time>
			</trkpt>
			<trkpt lat="30.239109" lon="120.109295">
				<speed>0.000000</speed>
				<ele>76.000000</ele>
				<time>2026-08-17T02:54:07Z</time>
			</trkpt>
			<trkpt lat="30.239105" lon="120.109288">
				<speed>0.000000</speed>
				<ele>76.000000</ele>
				<time>2026-08-17T02:54:08Z</time>
			</trkpt>
			<trkpt lat="30.239101" lon="120.109281">
				<speed>0.000000</speed>
				<ele>77.000000</ele>
				<time>2026-08-17T02:54:09Z</time>
			</trkpt>
			<trkpt lat="30.239092" lon="120.109258">
				<speed>0.000000</speed>
				<ele>77.000000</ele>
				<time>2026-08-17T02:54:10Z</time>
			</trkpt>
			<trkpt lat="30.239089" lon="120.109250">
				<speed>0.000000</speed>
				<ele>77.000000</ele>
				<time>2026-08-17T02:54:11Z</time>
			</trkpt>
			<trkpt lat="30.239086" lon="120.109243">
				<speed>0.000000</speed>
				<ele>77.000000</ele>
				<time>2026-08-17T02:54:12Z</time>
			</trkpt>
			<trkpt lat="30.239084" lon="120.109236">
				<speed>0.000000</speed>
				<ele>77.000000</ele>
				<time>2026-08-17T02:54:13Z</time>
			</trkpt>
			<trkpt lat="30.239074" lon="120.109217">
				<speed>0.000000</speed>
				<ele>77.000000</ele>
				<time>2026-08-17T02:54:14Z</time>
			</trkpt>
			<trkpt lat="30.239072" lon="120.109211">
				<speed>0.000000</speed>
				<ele>77.000000</ele>
				<time>2026-08-17T02:54:15Z</time>
			</trkpt>
			<trkpt lat="30.239069" lon="120.109205">
				<speed>0.000000</speed>
				<ele>77.000000</ele>
				<time>2026-08-17T02:54:16Z</time>
			</trkpt>
			<trkpt lat="30.239066" lon="120.109200">
				<speed>0.000000</speed>
				<ele>78.000000</ele>
				<time>2026-08-17T02:54:17Z</time>
			</trkpt>
			<trkpt lat="30.239057" lon="120.109186">
				<speed>0.000000</speed>
				<ele>78.000000</ele>
				<time>2026-08-17T02:54:18Z</time>
			</trkpt>
			<trkpt lat="30.239053" lon="120.109181">
				<speed>0.000000</speed>
				<ele>78.000000</ele>
				<time>2026-08-17T02:54:19Z</time>
			</trkpt>
			<trkpt lat="30.239050" lon="120.109176">
				<speed>0.000000</speed>
				<ele>78.000000</ele>
				<time>2026-08-17T02:54:20Z</time>
			</trkpt>
			<trkpt lat="30.239046" lon="120.109171">
				<speed>0.000000</speed>
				<ele>79.000000</ele>
				<time>2026-08-17T02:54:21Z</time>
			</trkpt>
			<trkpt lat="30.239033" lon="120.109154">
				<speed>0.000000</speed>
				<ele>79.000000</ele>
				<time>2026-08-17T02:54:22Z</time>
			</trkpt>
			<trkpt lat="30.239029" lon="120.109148">
				<speed>0.000000</speed>
				<ele>79.000000</ele>
				<time>2026-08-17T02:54:23Z</time>
			</trkpt>
			<trkpt lat="30.239024" lon="120.109142">
				<speed>0.000000</speed>
				<ele>79.000000</ele>
				<time>2026-08-17T02:54:24Z</time>
			</trkpt>
			<trkpt lat="30.239019" lon="120.109136">
				<speed>0.000000</speed>
				<ele>79.000000</ele>
				<time>2026-08-17T02:54:25Z</time>
			</trkpt>
			<trkpt lat="30.239005" lon="120.109120">
				<speed>0.000000</speed>
				<ele>79.000000</ele>
				<time>2026-08-17T02:54:26Z</time>
			</trkpt>
			<trkpt lat="30.239000" lon="120.109114">
				<speed>0.000000</speed>
				<ele>79.000000</ele>
				<time>2026-08-17T02:54:27Z</time>
			</trkpt>
			<trkpt lat="30.238995" lon="120.109109">
				<speed>0.000000</speed>
				<ele>79.000000</ele>
				<time>2026-08-17T02:54:28Z</time>
			</trkpt>
			<trkpt lat="30.238990" lon="120.109103">
				<speed>0.000000</speed>
				<ele>80.000000</ele>
				<time>2026-08-17T02:54:29Z</time>
			</trkpt>
			<trkpt lat="30.238977" lon="120.109086">
				<speed>0.000000</speed>
				<ele>80.000000</ele>
				<time>2026-08-17T02:54:30Z</time>
			</trkpt>
			<trkpt lat="30.238975" lon="120.109079">
				<speed>0.000000</speed>
				<ele>80.000000</ele>
				<time>2026-08-17T02:54:31Z</time>
			</trkpt>
			<trkpt lat="30.238972" lon="120.109073">
				<speed>0.000000</speed>
				<ele>80.000000</ele>
				<time>2026-08-17T02:54:32Z</time>
			</trkpt>
			<trkpt lat="30.238969" lon="120.109067">
				<speed>0.000000</speed>
				<ele>81.000000</ele>
				<time>2026-08-17T02:54:33Z</time>
			</trkpt>
			<trkpt lat="30.238963" lon="120.109048">
				<speed>0.000000</speed>
				<ele>81.000000</ele>
				<time>2026-08-17T02:54:34Z</time>
			</trkpt>
			<trkpt lat="30.238960" lon="120.109041">
				<speed>0.000000</speed>
				<ele>81.000000</ele>
				<time>2026-08-17T02:54:35Z</time>
			</trkpt>
			<trkpt lat="30.238958" lon="120.109034">
				<speed>0.000000</speed>
				<ele>81.000000</ele>
				<time>2026-08-17T02:54:36Z</time>
			</trkpt>
			<trkpt lat="30.238955" lon="120.109027">
				<speed>0.000000</speed>
				<ele>81.000000</ele>
				<time>2026-08-17T02:54:37Z</time>
			</trkpt>
			<trkpt lat="30.238943" lon="120.109009">
				<speed>0.000000</speed>
				<ele>81.000000</ele>
				<time>2026-08-17T02:54:38Z</time>
			</trkpt>
			<trkpt lat="30.238938" lon="120.109004">
				<speed>0.000000</speed>
				<ele>81.000000</ele>
				<time>2026-08-17T02:54:39Z</time>
			</trkpt>
			<trkpt lat="30.238934" lon="120.108999">
				<speed>0.000000</speed>
				<ele>81.000000</ele>
				<time>2026-08-17T02:54:40Z</time>
			</trkpt>
			<trkpt lat="30.238929" lon="120.108994">
				<speed>0.000000</speed>
				<ele>82.000000</ele>
				<time>2026-08-17T02:54:41Z</time>
			</trkpt>
			<trkpt lat="30.238915" lon="120.108983">
				<speed>0.000000</speed>
				<ele>82.000000</ele>
				<time>2026-08-17T02:54:42Z</time>
			</trkpt>
			<trkpt lat="30.238910" lon="120.108980">
				<speed>0.000000</speed>
				<ele>82.000000</ele>
				<time>2026-08-17T02:54:43Z</time>
			</trkpt>
			<trkpt lat="30.238905" lon="120.108976">
				<speed>0.000000</speed>
				<ele>82.000000</ele>
				<time>2026-08-17T02:54:44Z</time>
			</trkpt>
			<trkpt lat="30.238900" lon="120.108973">
				<speed>0.000000</speed>
				<ele>83.000000</ele>
				<time>2026-08-17T02:54:45Z</time>
			</trkpt>
			<trkpt lat="30.238885" lon="120.108964">
				<speed>0.000000</speed>
				<ele>83.000000</ele>
				<time>2026-08-17T02:54:46Z</time>
			</trkpt>
			<trkpt lat="30.238880" lon="120.108960">
				<speed>0.000000</speed>
				<ele>83.000000</ele>
				<time>2026-08-17T02:54:47Z</time>
			</trkpt>
			<trkpt lat="30.238875" lon="120.108956">
				<speed>0.000000</speed>
				<ele>83.000000</ele>
				<time>2026-08-17T02:54:48Z</time>
			</trkpt>
			<trkpt lat="30.238870" lon="120.108952">
				<speed>0.000000</speed>
				<ele>84.000000</ele>
				<time>2026-08-17T02:54:49Z</time>
			</trkpt>
			<trkpt lat="30.238855" lon="120.108939">
				<speed>0.000000</speed>
				<ele>84.000000</ele>
				<time>2026-08-17T02:54:50Z</time>
			</trkpt>
			<trkpt lat="30.238851" lon="120.108934">
				<speed>0.000000</speed>
				<ele>84.000000</ele>
				<time>2026-08-17T02:54:51Z</time>
			</trkpt>
			<trkpt lat="30.238846" lon="120.108929">
				<speed>0.000000</speed>
				<ele>84.000000</ele>
				<time>2026-08-17T02:54:52Z</time>
			</trkpt>
			<trkpt lat="30.238841" lon="120.108924">
				<speed>0.000000</speed>
				<ele>84.000000</ele>
				<time>2026-08-17T02:54:53Z</time>
			</trkpt>
			<trkpt lat="30.238828" lon="120.108908">
				<speed>0.000000</speed>
				<ele>84.000000</ele>
				<time>2026-08-17T02:54:54Z</time>
			</trkpt>
			<trkpt lat="30.238824" lon="120.108903">
				<speed>0.000000</speed>
				<ele>84.000000</ele>
				<time>2026-08-17T02:54:55Z</time>
			</trkpt>
			<trkpt lat="30.238819" lon="120.108898">
				<speed>0.000000</speed>
				<ele>84.000000</ele>
				<time>2026-08-17T02:54:56Z</time>
			</trkpt>
			<trkpt lat="30.238815" lon="120.108893">
				<speed>0.000000</speed>
				<ele>85.000000</ele>
				<time>2026-08-17T02:54:57Z</time>
			</trkpt>
			<trkpt lat="30.238803" lon="120.108879">
				<speed>0.000000</speed>
				<ele>85.000000</ele>
				<time>2026-08-17T02:54:58Z</time>
			</trkpt>
			<trkpt lat="30.238799" lon="120.108875">
				<speed>0.000000</speed>
				<ele>85.000000</ele>
				<time>2026-08-17T02:54:59Z</time>
			</trkpt>
			<trkpt lat="30.238795" lon="120.108871">
				<speed>0.000000</speed>
				<ele>85.000000</ele>
				<time>2026-08-17T02:55:00Z</time>
			</trkpt>
			<trkpt lat="30.238792" lon="120.108866">
				<speed>0.000000</speed>
				<ele>86.000000</ele>
				<time>2026-08-17T02:55:01Z</time>
			</trkpt>
			<trkpt lat="30.238779" lon="120.108856">
				<speed>0.000000</speed>
				<ele>86.000000</ele>
				<time>2026-08-17T02:55:02Z</time>
			</trkpt>
			<trkpt lat="30.238774" lon="120.108853">
				<speed>0.000000</speed>
				<ele>86.000000</ele>
				<time>2026-08-17T02:55:03Z</time>
			</trkpt>
			<trkpt lat="30.238769" lon="120.108850">
				<speed>0.000000</speed>
				<ele>86.000000</ele>
				<time>2026-08-17T02:55:04Z</time>
			</trkpt>
			<trkpt lat="30.238765" lon="120.108848">
				<speed>0.000000</speed>
				<ele>86.000000</ele>
				<time>2026-08-17T02:55:05Z</time>
			</trkpt>
			<trkpt lat="30.238750" lon="120.108837">
				<speed>0.000000</speed>
				<ele>86.000000</ele>
				<time>2026-08-17T02:55:06Z</time>
			</trkpt>
			<trkpt lat="30.238744" lon="120.108833">
				<speed>0.000000</speed>
				<ele>86.000000</ele>
				<time>2026-08-17T02:55:07Z</time>
			</trkpt>
			<trkpt lat="30.238739" lon="120.108828">
				<speed>0.000000</speed>
				<ele>86.000000</ele>
				<time>2026-08-17T02:55:08Z</time>
			</trkpt>
			<trkpt lat="30.238733" lon="120.108824">
				<speed>0.000000</speed>
				<ele>87.000000</ele>
				<time>2026-08-17T02:55:09Z</time>
			</trkpt>
			<trkpt lat="30.238718" lon="120.108810">
				<speed>0.000000</speed>
				<ele>87.000000</ele>
				<time>2026-08-17T02:55:10Z</time>
			</trkpt>
			<trkpt lat="30.238713" lon="120.108805">
				<speed>0.000000</speed>
				<ele>87.000000</ele>
				<time>2026-08-17T02:55:11Z</time>
			</trkpt>
			<trkpt lat="30.238708" lon="120.108800">
				<speed>0.000000</speed>
				<ele>87.000000</ele>
				<time>2026-08-17T02:55:12Z</time>
			</trkpt>
			<trkpt lat="30.238702" lon="120.108795">
				<speed>0.000000</speed>
				<ele>88.000000</ele>
				<time>2026-08-17T02:55:13Z</time>
			</trkpt>
			<trkpt lat="30.238687" lon="120.108780">
				<speed>0.000000</speed>
				<ele>88.000000</ele>
				<time>2026-08-17T02:55:14Z</time>
			</trkpt>
			<trkpt lat="30.238682" lon="120.108774">
				<speed>0.000000</speed>
				<ele>88.000000</ele>
				<time>2026-08-17T02:55:15Z</time>
			</trkpt>
			<trkpt lat="30.238678" lon="120.108768">
				<speed>0.000000</speed>
				<ele>88.000000</ele>
				<time>2026-08-17T02:55:16Z</time>
			</trkpt>
			<trkpt lat="30.238673" lon="120.108763">
				<speed>0.000000</speed>
				<ele>88.000000</ele>
				<time>2026-08-17T02:55:17Z</time>
			</trkpt>
			<trkpt lat="30.238658" lon="120.108747">
				<speed>0.000000</speed>
				<ele>88.000000</ele>
				<time>2026-08-17T02:55:18Z</time>
			</trkpt>
			<trkpt lat="30.238652" lon="120.108743">
				<speed>0.000000</speed>
				<ele>88.000000</ele>
				<time>2026-08-17T02:55:19Z</time>
			</trkpt>
			<trkpt lat="30.238647" lon="120.108738">
				<speed>0.000000</speed>
				<ele>88.000000</ele>
				<time>2026-08-17T02:55:20Z</time>
			</trkpt>
			<trkpt lat="30.238642" lon="120.108734">
				<speed>0.000000</speed>
				<ele>89.000000</ele>
				<time>2026-08-17T02:55:21Z</time>
			</trkpt>
			<trkpt lat="30.238625" lon="120.108722">
				<speed>0.000000</speed>
				<ele>89.000000</ele>
				<time>2026-08-17T02:55:22Z</time>
			</trkpt>
			<trkpt lat="30.238619" lon="120.108718">
				<speed>0.000000</speed>
				<ele>89.000000</ele>
				<time>2026-08-17T02:55:23Z</time>
			</trkpt>
			<trkpt lat="30.238613" lon="120.108714">
				<speed>0.000000</speed>
				<ele>89.000000</ele>
				<time>2026-08-17T02:55:24Z</time>
			</trkpt>
			<trkpt lat="30.238607" lon="120.108710">
				<speed>0.000000</speed>
				<ele>90.000000</ele>
				<time>2026-08-17T02:55:25Z</time>
			</trkpt>
			<trkpt lat="30.238591" lon="120.108698">
				<speed>0.000000</speed>
				<ele>90.000000</ele>
				<time>2026-08-17T02:55:26Z</time>
			</trkpt>
			<trkpt lat="30.238585" lon="120.108694">
				<speed>0.000000</speed>
				<ele>90.000000</ele>
				<time>2026-08-17T02:55:27Z</time>
			</trkpt>
			<trkpt lat="30.238581" lon="120.108690">
				<speed>0.000000</speed>
				<ele>90.000000</ele>
				<time>2026-08-17T02:55:28Z</time>
			</trkpt>
			<trkpt lat="30.238576" lon="120.108686">
				<speed>0.000000</speed>
				<ele>91.000000</ele>
				<time>2026-08-17T02:55:29Z</time>
			</trkpt>
			<trkpt lat="30.238562" lon="120.108673">
				<speed>0.000000</speed>
				<ele>91.000000</ele>
				<time>2026-08-17T02:55:30Z</time>
			</trkpt>
			<trkpt lat="30.238558" lon="120.108668">
				<speed>0.000000</speed>
				<ele>91.000000</ele>
				<time>2026-08-17T02:55:31Z</time>
			</trkpt>
			<trkpt lat="30.238554" lon="120.108663">
				<speed>0.000000</speed>
				<ele>91.000000</ele>
				<time>2026-08-17T02:55:32Z</time>
			</trkpt>
			<trkpt lat="30.238550" lon="120.108659">
				<speed>0.000000</speed>
				<ele>92.000000</ele>
				<time>2026-08-17T02:55:33Z</time>
			</trkpt>
			<trkpt lat="30.238540" lon="120.108646">
				<speed>0.000000</speed>
				<ele>92.000000</ele>
				<time>2026-08-17T02:55:34Z</time>
			</trkpt>
			<trkpt lat="30.238537" lon="120.108643">
				<speed>0.000000</speed>
				<ele>92.000000</ele>
				<time>2026-08-17T02:55:35Z</time>
			</trkpt>
			<trkpt lat="30.238534" lon="120.108639">
				<speed>0.000000</speed>
				<ele>92.000000</ele>
				<time>2026-08-17T02:55:36Z</time>
			</trkpt>
			<trkpt lat="30.238530" lon="120.108636">
				<speed>0.000000</speed>
				<ele>93.000000</ele>
				<time>2026-08-17T02:55:37Z</time>
			</trkpt>
			<trkpt lat="30.238519" lon="120.108628">
				<speed>0.000000</speed>
				<ele>93.000000</ele>
				<time>2026-08-17T02:55:38Z</time>
			</trkpt>
			<trkpt lat="30.238515" lon="120.108625">
				<speed>0.000000</speed>
				<ele>93.000000</ele>
				<time>2026-08-17T02:55:39Z</time>
			</trkpt>
			<trkpt lat="30.238511" lon="120.108623">
				<speed>0.000000</speed>
				<ele>93.000000</ele>
				<time>2026-08-17T02:55:40Z</time>
			</trkpt>
			<trkpt lat="30.238507" lon="120.108620">
				<speed>0.000000</speed>
				<ele>94.000000</ele>
				<time>2026-08-17T02:55:41Z</time>
			</trkpt>
			<trkpt lat="30.238494" lon="120.108613">
				<speed>0.000000</speed>
				<ele>94.000000</ele>
				<time>2026-08-17T02:55:42Z</time>
			</trkpt>
			<trkpt lat="30.238490" lon="120.108611">
				<speed>0.000000</speed>
				<ele>94.000000</ele>
				<time>2026-08-17T02:55:43Z</time>
			</trkpt>
			<trkpt lat="30.238486" lon="120.108609">
				<speed>0.000000</speed>
				<ele>94.000000</ele>
				<time>2026-08-17T02:55:44Z</time>
			</trkpt>
			<trkpt lat="30.238482" lon="120.108607">
				<speed>0.000000</speed>
				<ele>95.000000</ele>
				<time>2026-08-17T02:55:45Z</time>
			</trkpt>
			<trkpt lat="30.238470" lon="120.108601">
				<speed>0.000000</speed>
				<ele>95.000000</ele>
				<time>2026-08-17T02:55:46Z</time>
			</trkpt>
			<trkpt lat="30.238465" lon="120.108599">
				<speed>0.000000</speed>
				<ele>95.000000</ele>
				<time>2026-08-17T02:55:47Z</time>
			</trkpt>
			<trkpt lat="30.238461" lon="120.108596">
				<speed>0.000000</speed>
				<ele>95.000000</ele>
				<time>2026-08-17T02:55:48Z</time>
			</trkpt>
			<trkpt lat="30.238456" lon="120.108594">
				<speed>0.000000</speed>
				<ele>96.000000</ele>
				<time>2026-08-17T02:55:49Z</time>
			</trkpt>
			<trkpt lat="30.238440" lon="120.108588">
				<speed>0.000000</speed>
				<ele>96.000000</ele>
				<time>2026-08-17T02:55:50Z</time>
			</trkpt>
			<trkpt lat="30.238435" lon="120.108587">
				<speed>0.000000</speed>
				<ele>96.000000</ele>
				<time>2026-08-17T02:55:51Z</time>
			</trkpt>
			<trkpt lat="30.238430" lon="120.108586">
				<speed>0.000000</speed>
				<ele>96.000000</ele>
				<time>2026-08-17T02:55:52Z</time>
			</trkpt>
			<trkpt lat="30.238424" lon="120.108584">
				<speed>0.000000</speed>
				<ele>97.000000</ele>
				<time>2026-08-17T02:55:53Z</time>
			</trkpt>
			<trkpt lat="30.238409" lon="120.108583">
				<speed>0.000000</speed>
				<ele>97.000000</ele>
				<time>2026-08-17T02:55:54Z</time>
			</trkpt>
			<trkpt lat="30.238404" lon="120.108584">
				<speed>0.000000</speed>
				<ele>97.000000</ele>
				<time>2026-08-17T02:55:55Z</time>
			</trkpt>
			<trkpt lat="30.238398" lon="120.108584">
				<speed>0.000000</speed>
				<ele>97.000000</ele>
				<time>2026-08-17T02:55:56Z</time>
			</trkpt>
			<trkpt lat="30.238393" lon="120.108585">
				<speed>0.000000</speed>
				<ele>98.000000</ele>
				<time>2026-08-17T02:55:57Z</time>
			</trkpt>
			<trkpt lat="30.238378" lon="120.108585">
				<speed>0.000000</speed>
				<ele>98.000000</ele>
				<time>2026-08-17T02:55:58Z</time>
			</trkpt>
			<trkpt lat="30.238373" lon="120.108586">
				<speed>0.000000</speed>
				<ele>98.000000</ele>
				<time>2026-08-17T02:55:59Z</time>
			</trkpt>
			<trkpt lat="30.238368" lon="120.108586">
				<speed>0.000000</speed>
				<ele>98.000000</ele>
				<time>2026-08-17T02:56:00Z</time>
			</trkpt>
			<trkpt lat="30.238363" lon="120.108587">
				<speed>0.000000</speed>
				<ele>99.000000</ele>
				<time>2026-08-17T02:56:01Z</time>
			</trkpt>
			<trkpt lat="30.238348" lon="120.108589">
				<speed>0.000000</speed>
				<ele>99.000000</ele>
				<time>2026-08-17T02:56:02Z</time>
			</trkpt>
			<trkpt lat="30.238342" lon="120.108588">
				<speed>0.000000</speed>
				<ele>99.000000</ele>
				<time>2026-08-17T02:56:03Z</time>
			</trkpt>
			<trkpt lat="30.238336" lon="120.108588">
				<speed>0.000000</speed>
				<ele>99.000000</ele>
				<time>2026-08-17T02:56:04Z</time>
			</trkpt>
			<trkpt lat="30.238331" lon="120.108588">
				<speed>0.000000</speed>
				<ele>100.000000</ele>
				<time>2026-08-17T02:56:05Z</time>
			</trkpt>
			<trkpt lat="30.238313" lon="120.108586">
				<speed>0.000000</speed>
				<ele>100.000000</ele>
				<time>2026-08-17T02:56:06Z</time>
			</trkpt>
			<trkpt lat="30.238307" lon="120.108585">
				<speed>0.000000</speed>
				<ele>100.000000</ele>
				<time>2026-08-17T02:56:07Z</time>
			</trkpt>
			<trkpt lat="30.238301" lon="120.108583">
				<speed>0.000000</speed>
				<ele>100.000000</ele>
				<time>2026-08-17T02:56:08Z</time>
			</trkpt>
			<trkpt lat="30.238296" lon="120.108582">
				<speed>0.000000</speed>
				<ele>100.000000</ele>
				<time>2026-08-17T02:56:09Z</time>
			</trkpt>
			<trkpt lat="30.238279" lon="120.108580">
				<speed>0.000000</speed>
				<ele>100.000000</ele>
				<time>2026-08-17T02:56:10Z</time>
			</trkpt>
			<trkpt lat="30.238274" lon="120.108579">
				<speed>0.000000</speed>
				<ele>100.000000</ele>
				<time>2026-08-17T02:56:11Z</time>
			</trkpt>
			<trkpt lat="30.238269" lon="120.108579">
				<speed>0.000000</speed>
				<ele>100.000000</ele>
				<time>2026-08-17T02:56:12Z</time>
			</trkpt>
			<trkpt lat="30.238263" lon="120.108579">
				<speed>0.000000</speed>
				<ele>101.000000</ele>
				<time>2026-08-17T02:56:13Z</time>
			</trkpt>
			<trkpt lat="30.238248" lon="120.108578">
				<speed>0.000000</speed>
				<ele>101.000000</ele>
				<time>2026-08-17T02:56:14Z</time>
			</trkpt>
			<trkpt lat="30.238244" lon="120.108577">
				<speed>0.000000</speed>
				<ele>101.000000</ele>
				<time>2026-08-17T02:56:15Z</time>
			</trkpt>
			<trkpt lat="30.238239" lon="120.108576">
				<speed>0.000000</speed>
				<ele>101.000000</ele>
				<time>2026-08-17T02:56:16Z</time>
			</trkpt>
			<trkpt lat="30.238234" lon="120.108576">
				<speed>0.000000</speed>
				<ele>102.000000</ele>
				<time>2026-08-17T02:56:17Z</time>
			</trkpt>
			<trkpt lat="30.238220" lon="120.108574">
				<speed>0.000000</speed>
				<ele>102.000000</ele>
				<time>2026-08-17T02:56:18Z</time>
			</trkpt>
			<trkpt lat="30.238216" lon="120.108573">
				<speed>0.000000</speed>
				<ele>102.000000</ele>
				<time>2026-08-17T02:56:19Z</time>
			</trkpt>
			<trkpt lat="30.238211" lon="120.108573">
				<speed>0.000000</speed>
				<ele>102.000000</ele>
				<time>2026-08-17T02:56:20Z</time>
			</trkpt>
			<trkpt lat="30.238206" lon="120.108573">
				<speed>0.000000</speed>
				<ele>103.000000</ele>
				<time>2026-08-17T02:56:21Z</time>
			</trkpt>
			<trkpt lat="30.238191" lon="120.108574">
				<speed>0.000000</speed>
				<ele>103.000000</ele>
				<time>2026-08-17T02:56:22Z</time>
			</trkpt>
			<trkpt lat="30.238185" lon="120.108573">
				<speed>0.000000</speed>
				<ele>103.000000</ele>
				<time>2026-08-17T02:56:23Z</time>
			</trkpt>
			<trkpt lat="30.238179" lon="120.108573">
				<speed>0.000000</speed>
				<ele>103.000000</ele>
				<time>2026-08-17T02:56:24Z</time>
			</trkpt>
			<trkpt lat="30.238174" lon="120.108573">
				<speed>0.000000</speed>
				<ele>104.000000</ele>
				<time>2026-08-17T02:56:25Z</time>
			</trkpt>
			<trkpt lat="30.238156" lon="120.108573">
				<speed>0.000000</speed>
				<ele>104.000000</ele>
				<time>2026-08-17T02:56:26Z</time>
			</trkpt>
			<trkpt lat="30.238150" lon="120.108573">
				<speed>0.000000</speed>
				<ele>104.000000</ele>
				<time>2026-08-17T02:56:27Z</time>
			</trkpt>
			<trkpt lat="30.238145" lon="120.108572">
				<speed>0.000000</speed>
				<ele>104.000000</ele>
				<time>2026-08-17T02:56:28Z</time>
			</trkpt>
			<trkpt lat="30.238140" lon="120.108572">
				<speed>0.000000</speed>
				<ele>105.000000</ele>
				<time>2026-08-17T02:56:29Z</time>
			</trkpt>
			<trkpt lat="30.238125" lon="120.108572">
				<speed>0.000000</speed>
				<ele>105.000000</ele>
				<time>2026-08-17T02:56:30Z</time>
			</trkpt>
			<trkpt lat="30.238121" lon="120.108572">
				<speed>0.000000</speed>
				<ele>105.000000</ele>
				<time>2026-08-17T02:56:31Z</time>
			</trkpt>
			<trkpt lat="30.238116" lon="120.108572">
				<speed>0.000000</speed>
				<ele>105.000000</ele>
				<time>2026-08-17T02:56:32Z</time>
			</trkpt>
			<trkpt lat="30.238111" lon="120.108572">
				<speed>0.000000</speed>
				<ele>106.000000</ele>
				<time>2026-08-17T02:56:33Z</time>
			</trkpt>
			<trkpt lat="30.238098" lon="120.108571">
				<speed>0.000000</speed>
				<ele>106.000000</ele>
				<time>2026-08-17T02:56:34Z</time>
			</trkpt>
			<trkpt lat="30.238093" lon="120.108570">
				<speed>0.000000</speed>
				<ele>106.000000</ele>
				<time>2026-08-17T02:56:35Z</time>
			</trkpt>
			<trkpt lat="30.238088" lon="120.108569">
				<speed>0.000000</speed>
				<ele>106.000000</ele>
				<time>2026-08-17T02:56:36Z</time>
			</trkpt>
			<trkpt lat="30.238084" lon="120.108568">
				<speed>0.000000</speed>
				<ele>107.000000</ele>
				<time>2026-08-17T02:56:37Z</time>
			</trkpt>
			<trkpt lat="30.238069" lon="120.108562">
				<speed>0.000000</speed>
				<ele>107.000000</ele>
				<time>2026-08-17T02:56:38Z</time>
			</trkpt>
			<trkpt lat="30.238065" lon="120.108559">
				<speed>0.000000</speed>
				<ele>107.000000</ele>
				<time>2026-08-17T02:56:39Z</time>
			</trkpt>
			<trkpt lat="30.238060" lon="120.108556">
				<speed>0.000000</speed>
				<ele>107.000000</ele>
				<time>2026-08-17T02:56:40Z</time>
			</trkpt>
			<trkpt lat="30.238056" lon="120.108553">
				<speed>0.000000</speed>
				<ele>107.000000</ele>
				<time>2026-08-17T02:56:41Z</time>
			</trkpt>
			<trkpt lat="30.238043" lon="120.108545">
				<speed>0.000000</speed>
				<ele>107.000000</ele>
				<time>2026-08-17T02:56:42Z</time>
			</trkpt>
			<trkpt lat="30.238039" lon="120.108541">
				<speed>0.000000</speed>
				<ele>107.000000</ele>
				<time>2026-08-17T02:56:43Z</time>
			</trkpt>
			<trkpt lat="30.238035" lon="120.108538">
				<speed>0.000000</speed>
				<ele>107.000000</ele>
				<time>2026-08-17T02:56:44Z</time>
			</trkpt>
			<trkpt lat="30.238031" lon="120.108535">
				<speed>0.000000</speed>
				<ele>108.000000</ele>
				<time>2026-08-17T02:56:45Z</time>
			</trkpt>
			<trkpt lat="30.238024" lon="120.108529">
				<speed>0.000000</speed>
				<ele>108.000000</ele>
				<time>2026-08-17T02:56:46Z</time>
			</trkpt>
			<trkpt lat="30.238021" lon="120.108526">
				<speed>0.000000</speed>
				<ele>108.000000</ele>
				<time>2026-08-17T02:56:47Z</time>
			</trkpt>
			<trkpt lat="30.238017" lon="120.108523">
				<speed>0.000000</speed>
				<ele>108.000000</ele>
				<time>2026-08-17T02:56:48Z</time>
			</trkpt>
			<trkpt lat="30.238013" lon="120.108521">
				<speed>0.000000</speed>
				<ele>109.000000</ele>
				<time>2026-08-17T02:56:49Z</time>
			</trkpt>
			<trkpt lat="30.238003" lon="120.108515">
				<speed>0.000000</speed>
				<ele>109.000000</ele>
				<time>2026-08-17T02:56:50Z</time>
			</trkpt>
			<trkpt lat="30.238000" lon="120.108514">
				<speed>0.000000</speed>
				<ele>109.000000</ele>
				<time>2026-08-17T02:56:51Z</time>
			</trkpt>
			<trkpt lat="30.237996" lon="120.108512">
				<speed>0.000000</speed>
				<ele>109.000000</ele>
				<time>2026-08-17T02:56:52Z</time>
			</trkpt>
			<trkpt lat="30.237992" lon="120.108510">
				<speed>0.000000</speed>
				<ele>109.000000</ele>
				<time>2026-08-17T02:56:53Z</time>
			</trkpt>
			<trkpt lat="30.237981" lon="120.108503">
				<speed>0.000000</speed>
				<ele>109.000000</ele>
				<time>2026-08-17T02:56:54Z</time>
			</trkpt>
			<trkpt lat="30.237977" lon="120.108500">
				<speed>0.000000</speed>
				<ele>109.000000</ele>
				<time>2026-08-17T02:56:55Z</time>
			</trkpt>
			<trkpt lat="30.237973" lon="120.108497">
				<speed>0.000000</speed>
				<ele>109.000000</ele>
				<time>2026-08-17T02:56:56Z</time>
			</trkpt>
			<trkpt lat="30.237969" lon="120.108494">
				<speed>0.000000</speed>
				<ele>110.000000</ele>
				<time>2026-08-17T02:56:57Z</time>
			</trkpt>
			<trkpt lat="30.237957" lon="120.108487">
				<speed>0.000000</speed>
				<ele>110.000000</ele>
				<time>2026-08-17T02:56:58Z</time>
			</trkpt>
			<trkpt lat="30.237953" lon="120.108484">
				<speed>0.000000</speed>
				<ele>110.000000</ele>
				<time>2026-08-17T02:56:59Z</time>
			</trkpt>
			<trkpt lat="30.237950" lon="120.108482">
				<speed>0.000000</speed>
				<ele>110.000000</ele>
				<time>2026-08-17T02:57:00Z</time>
			</trkpt>
			<trkpt lat="30.237946" lon="120.108479">
				<speed>0.000000</speed>
				<ele>111.000000</ele>
				<time>2026-08-17T02:57:01Z</time>
			</trkpt>
			<trkpt lat="30.237934" lon="120.108472">
				<speed>0.000000</speed>
				<ele>111.000000</ele>
				<time>2026-08-17T02:57:02Z</time>
			</trkpt>
			<trkpt lat="30.237930" lon="120.108469">
				<speed>0.000000</speed>
				<ele>111.000000</ele>
				<time>2026-08-17T02:57:03Z</time>
			</trkpt>
			<trkpt lat="30.237926" lon="120.108466">
				<speed>0.000000</speed>
				<ele>111.000000</ele>
				<time>2026-08-17T02:57:04Z</time>
			</trkpt>
			<trkpt lat="30.237922" lon="120.108464">
				<speed>0.000000</speed>
				<ele>112.000000</ele>
				<time>2026-08-17T02:57:05Z</time>
			</trkpt>
			<trkpt lat="30.237908" lon="120.108456">
				<speed>0.000000</speed>
				<ele>112.000000</ele>
				<time>2026-08-17T02:57:06Z</time>
			</trkpt>
			<trkpt lat="30.237904" lon="120.108453">
				<speed>0.000000</speed>
				<ele>112.000000</ele>
				<time>2026-08-17T02:57:07Z</time>
			</trkpt>
			<trkpt lat="30.237899" lon="120.108450">
				<speed>0.000000</speed>
				<ele>112.000000</ele>
				<time>2026-08-17T02:57:08Z</time>
			</trkpt>
			<trkpt lat="30.237895" lon="120.108447">
				<speed>0.000000</speed>
				<ele>113.000000</ele>
				<time>2026-08-17T02:57:09Z</time>
			</trkpt>
			<trkpt lat="30.237883" lon="120.108438">
				<speed>0.000000</speed>
				<ele>113.000000</ele>
				<time>2026-08-17T02:57:10Z</time>
			</trkpt>
			<trkpt lat="30.237879" lon="120.108436">
				<speed>0.000000</speed>
				<ele>113.000000</ele>
				<time>2026-08-17T02:57:11Z</time>
			</trkpt>
			<trkpt lat="30.237876" lon="120.108434">
				<speed>0.000000</speed>
				<ele>113.000000</ele>
				<time>2026-08-17T02:57:12Z</time>
			</trkpt>
			<trkpt lat="30.237872" lon="120.108431">
				<speed>0.000000</speed>
				<ele>114.000000</ele>
				<time>2026-08-17T02:57:13Z</time>
			</trkpt>
			<trkpt lat="30.237863" lon="120.108425">
				<speed>0.000000</speed>
				<ele>114.000000</ele>
				<time>2026-08-17T02:57:14Z</time>
			</trkpt>
			<trkpt lat="30.237860" lon="120.108422">
				<speed>0.000000</speed>
				<ele>114.000000</ele>
				<time>2026-08-17T02:57:15Z</time>
			</trkpt>
			<trkpt lat="30.237856" lon="120.108420">
				<speed>0.000000</speed>
				<ele>114.000000</ele>
				<time>2026-08-17T02:57:16Z</time>
			</trkpt>
			<trkpt lat="30.237853" lon="120.108417">
				<speed>0.000000</speed>
				<ele>115.000000</ele>
				<time>2026-08-17T02:57:17Z</time>
			</trkpt>
			<trkpt lat="30.237842" lon="120.108407">
				<speed>0.000000</speed>
				<ele>115.000000</ele>
				<time>2026-08-17T02:57:18Z</time>
			</trkpt>
			<trkpt lat="30.237838" lon="120.108403">
				<speed>0.000000</speed>
				<ele>115.000000</ele>
				<time>2026-08-17T02:57:19Z</time>
			</trkpt>
			<trkpt lat="30.237834" lon="120.108399">
				<speed>0.000000</speed>
				<ele>115.000000</ele>
				<time>2026-08-17T02:57:20Z</time>
			</trkpt>
			<trkpt lat="30.237829" lon="120.108395">
				<speed>0.000000</speed>
				<ele>116.000000</ele>
				<time>2026-08-17T02:57:21Z</time>
			</trkpt>
			<trkpt lat="30.237817" lon="120.108384">
				<speed>0.000000</speed>
				<ele>116.000000</ele>
				<time>2026-08-17T02:57:22Z</time>
			</trkpt>
			<trkpt lat="30.237813" lon="120.108380">
				<speed>0.000000</speed>
				<ele>116.000000</ele>
				<time>2026-08-17T02:57:23Z</time>
			</trkpt>
			<trkpt lat="30.237808" lon="120.108376">
				<speed>0.000000</speed>
				<ele>116.000000</ele>
				<time>2026-08-17T02:57:24Z</time>
			</trkpt>
			<trkpt lat="30.237804" lon="120.108373">
				<speed>0.000000</speed>
				<ele>117.000000</ele>
				<time>2026-08-17T02:57:25Z</time>
			</trkpt>
			<trkpt lat="30.237792" lon="120.108363">
				<speed>0.000000</speed>
				<ele>117.000000</ele>
				<time>2026-08-17T02:57:26Z</time>
			</trkpt>
			<trkpt lat="30.237789" lon="120.108360">
				<speed>0.000000</speed>
				<ele>117.000000</ele>
				<time>2026-08-17T02:57:27Z</time>
			</trkpt>
			<trkpt lat="30.237785" lon="120.108357">
				<speed>0.000000</speed>
				<ele>117.000000</ele>
				<time>2026-08-17T02:57:28Z</time>
			</trkpt>
			<trkpt lat="30.237781" lon="120.108353">
				<speed>0.000000</speed>
				<ele>118.000000</ele>
				<time>2026-08-17T02:57:29Z</time>
			</trkpt>
			<trkpt lat="30.237769" lon="120.108342">
				<speed>0.000000</speed>
				<ele>118.000000</ele>
				<time>2026-08-17T02:57:30Z</time>
			</trkpt>
			<trkpt lat="30.237765" lon="120.108338">
				<speed>0.000000</speed>
				<ele>118.000000</ele>
				<time>2026-08-17T02:57:31Z</time>
			</trkpt>
			<trkpt lat="30.237761" lon="120.108334">
				<speed>0.000000</speed>
				<ele>118.000000</ele>
				<time>2026-08-17T02:57:32Z</time>
			</trkpt>
			<trkpt lat="30.237757" lon="120.108330">
				<speed>0.000000</speed>
				<ele>119.000000</ele>
				<time>2026-08-17T02:57:33Z</time>
			</trkpt>
			<trkpt lat="30.237743" lon="120.108317">
				<speed>0.000000</speed>
				<ele>119.000000</ele>
				<time>2026-08-17T02:57:34Z</time>
			</trkpt>
			<trkpt lat="30.237738" lon="120.108313">
				<speed>0.000000</speed>
				<ele>119.000000</ele>
				<time>2026-08-17T02:57:35Z</time>
			</trkpt>
			<trkpt lat="30.237734" lon="120.108308">
				<speed>0.000000</speed>
				<ele>119.000000</ele>
				<time>2026-08-17T02:57:36Z</time>
			</trkpt>
			<trkpt lat="30.237729" lon="120.108304">
				<speed>0.000000</speed>
				<ele>119.000000</ele>
				<time>2026-08-17T02:57:37Z</time>
			</trkpt>
			<trkpt lat="30.237714" lon="120.108293">
				<speed>0.000000</speed>
				<ele>119.000000</ele>
				<time>2026-08-17T02:57:38Z</time>
			</trkpt>
			<trkpt lat="30.237710" lon="120.108290">
				<speed>0.000000</speed>
				<ele>119.000000</ele>
				<time>2026-08-17T02:57:39Z</time>
			</trkpt>
			<trkpt lat="30.237705" lon="120.108288">
				<speed>0.000000</speed>
				<ele>119.000000</ele>
				<time>2026-08-17T02:57:40Z</time>
			</trkpt>
			<trkpt lat="30.237701" lon="120.108285">
				<speed>0.000000</speed>
				<ele>120.000000</ele>
				<time>2026-08-17T02:57:41Z</time>
			</trkpt>
			<trkpt lat="30.237689" lon="120.108276">
				<speed>0.000000</speed>
				<ele>120.000000</ele>
				<time>2026-08-17T02:57:42Z</time>
			</trkpt>
			<trkpt lat="30.237686" lon="120.108272">
				<speed>0.000000</speed>
				<ele>120.000000</ele>
				<time>2026-08-17T02:57:43Z</time>
			</trkpt>
			<trkpt lat="30.237682" lon="120.108269">
				<speed>0.000000</speed>
				<ele>120.000000</ele>
				<time>2026-08-17T02:57:44Z</time>
			</trkpt>
			<trkpt lat="30.237679" lon="120.108266">
				<speed>0.000000</speed>
				<ele>121.000000</ele>
				<time>2026-08-17T02:57:45Z</time>
			</trkpt>
			<trkpt lat="30.237669" lon="120.108254">
				<speed>0.000000</speed>
				<ele>121.000000</ele>
				<time>2026-08-17T02:57:46Z</time>
			</trkpt>
			<trkpt lat="30.237666" lon="120.108250">
				<speed>0.000000</speed>
				<ele>121.000000</ele>
				<time>2026-08-17T02:57:47Z</time>
			</trkpt>
			<trkpt lat="30.237663" lon="120.108246">
				<speed>0.000000</speed>
				<ele>121.000000</ele>
				<time>2026-08-17T02:57:48Z</time>
			</trkpt>
			<trkpt lat="30.237659" lon="120.108242">
				<speed>0.000000</speed>
				<ele>122.000000</ele>
				<time>2026-08-17T02:57:49Z</time>
			</trkpt>
			<trkpt lat="30.237649" lon="120.108231">
				<speed>0.000000</speed>
				<ele>122.000000</ele>
				<time>2026-08-17T02:57:50Z</time>
			</trkpt>
			<trkpt lat="30.237645" lon="120.108229">
				<speed>0.000000</speed>
				<ele>122.000000</ele>
				<time>2026-08-17T02:57:51Z</time>
			</trkpt>
			<trkpt lat="30.237642" lon="120.108226">
				<speed>0.000000</speed>
				<ele>122.000000</ele>
				<time>2026-08-17T02:57:52Z</time>
			</trkpt>
			<trkpt lat="30.237638" lon="120.108224">
				<speed>0.000000</speed>
				<ele>123.000000</ele>
				<time>2026-08-17T02:57:53Z</time>
			</trkpt>
			<trkpt lat="30.237625" lon="120.108219">
				<speed>0.000000</speed>
				<ele>123.000000</ele>
				<time>2026-08-17T02:57:54Z</time>
			</trkpt>
			<trkpt lat="30.237620" lon="120.108217">
				<speed>0.000000</speed>
				<ele>123.000000</ele>
				<time>2026-08-17T02:57:55Z</time>
			</trkpt>
			<trkpt lat="30.237615" lon="120.108215">
				<speed>0.000000</speed>
				<ele>123.000000</ele>
				<time>2026-08-17T02:57:56Z</time>
			</trkpt>
			<trkpt lat="30.237610" lon="120.108213">
				<speed>0.000000</speed>
				<ele>124.000000</ele>
				<time>2026-08-17T02:57:57Z</time>
			</trkpt>
			<trkpt lat="30.237597" lon="120.108206">
				<speed>0.000000</speed>
				<ele>124.000000</ele>
				<time>2026-08-17T02:57:58Z</time>
			</trkpt>
			<trkpt lat="30.237593" lon="120.108204">
				<speed>0.000000</speed>
				<ele>124.000000</ele>
				<time>2026-08-17T02:57:59Z</time>
			</trkpt>
			<trkpt lat="30.237588" lon="120.108201">
				<speed>0.000000</speed>
				<ele>124.000000</ele>
				<time>2026-08-17T02:58:00Z</time>
			</trkpt>
			<trkpt lat="30.237584" lon="120.108199">
				<speed>0.000000</speed>
				<ele>124.000000</ele>
				<time>2026-08-17T02:58:01Z</time>
			</trkpt>
			<trkpt lat="30.237571" lon="120.108188">
				<speed>0.000000</speed>
				<ele>124.000000</ele>
				<time>2026-08-17T02:58:02Z</time>
			</trkpt>
			<trkpt lat="30.237567" lon="120.108183">
				<speed>0.000000</speed>
				<ele>124.000000</ele>
				<time>2026-08-17T02:58:03Z</time>
			</trkpt>
			<trkpt lat="30.237562" lon="120.108178">
				<speed>0.000000</speed>
				<ele>124.000000</ele>
				<time>2026-08-17T02:58:04Z</time>
			</trkpt>
			<trkpt lat="30.237558" lon="120.108173">
				<speed>0.000000</speed>
				<ele>125.000000</ele>
				<time>2026-08-17T02:58:05Z</time>
			</trkpt>
			<trkpt lat="30.237545" lon="120.108156">
				<speed>0.000000</speed>
				<ele>125.000000</ele>
				<time>2026-08-17T02:58:06Z</time>
			</trkpt>
			<trkpt lat="30.237541" lon="120.108150">
				<speed>0.000000</speed>
				<ele>125.000000</ele>
				<time>2026-08-17T02:58:07Z</time>
			</trkpt>
			<trkpt lat="30.237537" lon="120.108144">
				<speed>0.000000</speed>
				<ele>125.000000</ele>
				<time>2026-08-17T02:58:08Z</time>
			</trkpt>
			<trkpt lat="30.237533" lon="120.108139">
				<speed>0.000000</speed>
				<ele>126.000000</ele>
				<time>2026-08-17T02:58:09Z</time>
			</trkpt>
			<trkpt lat="30.237520" lon="120.108124">
				<speed>0.000000</speed>
				<ele>126.000000</ele>
				<time>2026-08-17T02:58:10Z</time>
			</trkpt>
			<trkpt lat="30.237516" lon="120.108119">
				<speed>0.000000</speed>
				<ele>126.000000</ele>
				<time>2026-08-17T02:58:11Z</time>
			</trkpt>
			<trkpt lat="30.237511" lon="120.108115">
				<speed>0.000000</speed>
				<ele>126.000000</ele>
				<time>2026-08-17T02:58:12Z</time>
			</trkpt>
			<trkpt lat="30.237507" lon="120.108111">
				<speed>0.000000</speed>
				<ele>126.000000</ele>
				<time>2026-08-17T02:58:13Z</time>
			</trkpt>
			<trkpt lat="30.237492" lon="120.108101">
				<speed>0.000000</speed>
				<ele>126.000000</ele>
				<time>2026-08-17T02:58:14Z</time>
			</trkpt>
			<trkpt lat="30.237487" lon="120.108098">
				<speed>0.000000</speed>
				<ele>126.000000</ele>
				<time>2026-08-17T02:58:15Z</time>
			</trkpt>
			<trkpt lat="30.237482" lon="120.108095">
				<speed>0.000000</speed>
				<ele>126.000000</ele>
				<time>2026-08-17T02:58:16Z</time>
			</trkpt>
			<trkpt lat="30.237477" lon="120.108093">
				<speed>0.000000</speed>
				<ele>127.000000</ele>
				<time>2026-08-17T02:58:17Z</time>
			</trkpt>
			<trkpt lat="30.237462" lon="120.108085">
				<speed>0.000000</speed>
				<ele>127.000000</ele>
				<time>2026-08-17T02:58:18Z</time>
			</trkpt>
			<trkpt lat="30.237457" lon="120.108083">
				<speed>0.000000</speed>
				<ele>127.000000</ele>
				<time>2026-08-17T02:58:19Z</time>
			</trkpt>
			<trkpt lat="30.237453" lon="120.108080">
				<speed>0.000000</speed>
				<ele>127.000000</ele>
				<time>2026-08-17T02:58:20Z</time>
			</trkpt>
			<trkpt lat="30.237449" lon="120.108078">
				<speed>0.000000</speed>
				<ele>128.000000</ele>
				<time>2026-08-17T02:58:21Z</time>
			</trkpt>
			<trkpt lat="30.237435" lon="120.108071">
				<speed>0.000000</speed>
				<ele>128.000000</ele>
				<time>2026-08-17T02:58:22Z</time>
			</trkpt>
			<trkpt lat="30.237430" lon="120.108069">
				<speed>0.000000</speed>
				<ele>128.000000</ele>
				<time>2026-08-17T02:58:23Z</time>
			</trkpt>
			<trkpt lat="30.237426" lon="120.108068">
				<speed>0.000000</speed>
				<ele>128.000000</ele>
				<time>2026-08-17T02:58:24Z</time>
			</trkpt>
			<trkpt lat="30.237421" lon="120.108066">
				<speed>0.000000</speed>
				<ele>129.000000</ele>
				<time>2026-08-17T02:58:25Z</time>
			</trkpt>
			<trkpt lat="30.237405" lon="120.108060">
				<speed>0.000000</speed>
				<ele>129.000000</ele>
				<time>2026-08-17T02:58:26Z</time>
			</trkpt>
			<trkpt lat="30.237400" lon="120.108057">
				<speed>0.000000</speed>
				<ele>129.000000</ele>
				<time>2026-08-17T02:58:27Z</time>
			</trkpt>
			<trkpt lat="30.237396" lon="120.108054">
				<speed>0.000000</speed>
				<ele>129.000000</ele>
				<time>2026-08-17T02:58:28Z</time>
			</trkpt>
			<trkpt lat="30.237391" lon="120.108051">
				<speed>0.000000</speed>
				<ele>129.000000</ele>
				<time>2026-08-17T02:58:29Z</time>
			</trkpt>
			<trkpt lat="30.237379" lon="120.108040">
				<speed>0.000000</speed>
				<ele>129.000000</ele>
				<time>2026-08-17T02:58:30Z</time>
			</trkpt>
			<trkpt lat="30.237375" lon="120.108036">
				<speed>0.000000</speed>
				<ele>129.000000</ele>
				<time>2026-08-17T02:58:31Z</time>
			</trkpt>
			<trkpt lat="30.237371" lon="120.108033">
				<speed>0.000000</speed>
				<ele>129.000000</ele>
				<time>2026-08-17T02:58:32Z</time>
			</trkpt>
			<trkpt lat="30.237367" lon="120.108029">
				<speed>0.000000</speed>
				<ele>130.000000</ele>
				<time>2026-08-17T02:58:33Z</time>
			</trkpt>
			<trkpt lat="30.237354" lon="120.108015">
				<speed>0.000000</speed>
				<ele>130.000000</ele>
				<time>2026-08-17T02:58:34Z</time>
			</trkpt>
			<trkpt lat="30.237349" lon="120.108011">
				<speed>0.000000</speed>
				<ele>130.000000</ele>
				<time>2026-08-17T02:58:35Z</time>
			</trkpt>
			<trkpt lat="30.237345" lon="120.108007">
				<speed>0.000000</speed>
				<ele>130.000000</ele>
				<time>2026-08-17T02:58:36Z</time>
			</trkpt>
			<trkpt lat="30.237340" lon="120.108002">
				<speed>0.000000</speed>
				<ele>131.000000</ele>
				<time>2026-08-17T02:58:37Z</time>
			</trkpt>
			<trkpt lat="30.237325" lon="120.107990">
				<speed>0.000000</speed>
				<ele>131.000000</ele>
				<time>2026-08-17T02:58:38Z</time>
			</trkpt>
			<trkpt lat="30.237319" lon="120.107985">
				<speed>0.000000</speed>
				<ele>131.000000</ele>
				<time>2026-08-17T02:58:39Z</time>
			</trkpt>
			<trkpt lat="30.237313" lon="120.107981">
				<speed>0.000000</speed>
				<ele>131.000000</ele>
				<time>2026-08-17T02:58:40Z</time>
			</trkpt>
			<trkpt lat="30.237308" lon="120.107976">
				<speed>0.000000</speed>
				<ele>131.000000</ele>
				<time>2026-08-17T02:58:41Z</time>
			</trkpt>
			<trkpt lat="30.237291" lon="120.107963">
				<speed>0.000000</speed>
				<ele>131.000000</ele>
				<time>2026-08-17T02:58:42Z</time>
			</trkpt>
			<trkpt lat="30.237285" lon="120.107958">
				<speed>0.000000</speed>
				<ele>131.000000</ele>
				<time>2026-08-17T02:58:43Z</time>
			</trkpt>
			<trkpt lat="30.237280" lon="120.107954">
				<speed>0.000000</speed>
				<ele>131.000000</ele>
				<time>2026-08-17T02:58:44Z</time>
			</trkpt>
			<trkpt lat="30.237275" lon="120.107950">
				<speed>0.000000</speed>
				<ele>132.000000</ele>
				<time>2026-08-17T02:58:45Z</time>
			</trkpt>
			<trkpt lat="30.237261" lon="120.107937">
				<speed>0.000000</speed>
				<ele>132.000000</ele>
				<time>2026-08-17T02:58:46Z</time>
			</trkpt>
			<trkpt lat="30.237257" lon="120.107933">
				<speed>0.000000</speed>
				<ele>132.000000</ele>
				<time>2026-08-17T02:58:47Z</time>
			</trkpt>
			<trkpt lat="30.237253" lon="120.107928">
				<speed>0.000000</speed>
				<ele>132.000000</ele>
				<time>2026-08-17T02:58:48Z</time>
			</trkpt>
			<trkpt lat="30.237248" lon="120.107924">
				<speed>0.000000</speed>
				<ele>133.000000</ele>
				<time>2026-08-17T02:58:49Z</time>
			</trkpt>
			<trkpt lat="30.237240" lon="120.107908">
				<speed>0.000000</speed>
				<ele>133.000000</ele>
				<time>2026-08-17T02:58:50Z</time>
			</trkpt>
			<trkpt lat="30.237238" lon="120.107903">
				<speed>0.000000</speed>
				<ele>133.000000</ele>
				<time>2026-08-17T02:58:51Z</time>
			</trkpt>
			<trkpt lat="30.237236" lon="120.107898">
				<speed>0.000000</speed>
				<ele>133.000000</ele>
				<time>2026-08-17T02:58:52Z</time>
			</trkpt>
			<trkpt lat="30.237234" lon="120.107893">
				<speed>0.000000</speed>
				<ele>134.000000</ele>
				<time>2026-08-17T02:58:53Z</time>
			</trkpt>
			<trkpt lat="30.237228" lon="120.107877">
				<speed>0.000000</speed>
				<ele>134.000000</ele>
				<time>2026-08-17T02:58:54Z</time>
			</trkpt>
			<trkpt lat="30.237225" lon="120.107870">
				<speed>0.000000</speed>
				<ele>134.000000</ele>
				<time>2026-08-17T02:58:55Z</time>
			</trkpt>
			<trkpt lat="30.237223" lon="120.107864">
				<speed>0.000000</speed>
				<ele>134.000000</ele>
				<time>2026-08-17T02:58:56Z</time>
			</trkpt>
			<trkpt lat="30.237220" lon="120.107858">
				<speed>0.000000</speed>
				<ele>135.000000</ele>
				<time>2026-08-17T02:58:57Z</time>
			</trkpt>
			<trkpt lat="30.237210" lon="120.107839">
				<speed>0.000000</speed>
				<ele>135.000000</ele>
				<time>2026-08-17T02:58:58Z</time>
			</trkpt>
			<trkpt lat="30.237207" lon="120.107833">
				<speed>0.000000</speed>
				<ele>135.000000</ele>
				<time>2026-08-17T02:58:59Z</time>
			</trkpt>
			<trkpt lat="30.237203" lon="120.107827">
				<speed>0.000000</speed>
				<ele>135.000000</ele>
				<time>2026-08-17T02:59:00Z</time>
			</trkpt>
			<trkpt lat="30.237200" lon="120.107821">
				<speed>0.000000</speed>
				<ele>136.000000</ele>
				<time>2026-08-17T02:59:01Z</time>
			</trkpt>
			<trkpt lat="30.237189" lon="120.107806">
				<speed>0.000000</speed>
				<ele>136.000000</ele>
				<time>2026-08-17T02:59:02Z</time>
			</trkpt>
			<trkpt lat="30.237185" lon="120.107802">
				<speed>0.000000</speed>
				<ele>136.000000</ele>
				<time>2026-08-17T02:59:03Z</time>
			</trkpt>
			<trkpt lat="30.237181" lon="120.107798">
				<speed>0.000000</speed>
				<ele>136.000000</ele>
				<time>2026-08-17T02:59:04Z</time>
			</trkpt>
			<trkpt lat="30.237177" lon="120.107794">
				<speed>0.000000</speed>
				<ele>137.000000</ele>
				<time>2026-08-17T02:59:05Z</time>
			</trkpt>
			<trkpt lat="30.237163" lon="120.107791">
				<speed>0.000000</speed>
				<ele>137.000000</ele>
				<time>2026-08-17T02:59:06Z</time>
			</trkpt>
			<trkpt lat="30.237159" lon="120.107792">
				<speed>0.000000</speed>
				<ele>137.000000</ele>
				<time>2026-08-17T02:59:07Z</time>
			</trkpt>
			<trkpt lat="30.237155" lon="120.107793">
				<speed>0.000000</speed>
				<ele>137.000000</ele>
				<time>2026-08-17T02:59:08Z</time>
			</trkpt>
			<trkpt lat="30.237150" lon="120.107794">
				<speed>0.000000</speed>
				<ele>138.000000</ele>
				<time>2026-08-17T02:59:09Z</time>
			</trkpt>
			<trkpt lat="30.237138" lon="120.107802">
				<speed>0.000000</speed>
				<ele>138.000000</ele>
				<time>2026-08-17T02:59:10Z</time>
			</trkpt>
			<trkpt lat="30.237136" lon="120.107803">
				<speed>0.000000</speed>
				<ele>138.000000</ele>
				<time>2026-08-17T02:59:11Z</time>
			</trkpt>
			<trkpt lat="30.237135" lon="120.107803">
				<speed>0.000000</speed>
				<ele>138.000000</ele>
				<time>2026-08-17T02:59:12Z</time>
			</trkpt>
			<trkpt lat="30.237133" lon="120.107804">
				<speed>0.000000</speed>
				<ele>139.000000</ele>
				<time>2026-08-17T02:59:13Z</time>
			</trkpt>
			<trkpt lat="30.237131" lon="120.107805">
				<speed>0.000000</speed>
				<ele>139.000000</ele>
				<time>2026-08-17T02:59:14Z</time>
			</trkpt>
			<trkpt lat="30.237130" lon="120.107805">
				<speed>0.000000</speed>
				<ele>139.000000</ele>
				<time>2026-08-17T02:59:15Z</time>
			</trkpt>
			<trkpt lat="30.237118" lon="120.107808">
				<speed>0.000000</speed>
				<ele>139.000000</ele>
				<time>2026-08-17T02:59:16Z</time>
			</trkpt>
			<trkpt lat="30.237114" lon="120.107808">
				<speed>0.000000</speed>
				<ele>140.000000</ele>
				<time>2026-08-17T02:59:17Z</time>
			</trkpt>
			<trkpt lat="30.237110" lon="120.107808">
				<speed>0.000000</speed>
				<ele>140.000000</ele>
				<time>2026-08-17T02:59:18Z</time>
			</trkpt>
			<trkpt lat="30.237106" lon="120.107809">
				<speed>0.000000</speed>
				<ele>140.000000</ele>
				<time>2026-08-17T02:59:19Z</time>
			</trkpt>
			<trkpt lat="30.237091" lon="120.107809">
				<speed>0.000000</speed>
				<ele>140.000000</ele>
				<time>2026-08-17T02:59:20Z</time>
			</trkpt>
			<trkpt lat="30.237085" lon="120.107810">
				<speed>0.000000</speed>
				<ele>140.000000</ele>
				<time>2026-08-17T02:59:21Z</time>
			</trkpt>
			<trkpt lat="30.237080" lon="120.107811">
				<speed>0.000000</speed>
				<ele>140.000000</ele>
				<time>2026-08-17T02:59:22Z</time>
			</trkpt>
			<trkpt lat="30.237074" lon="120.107812">
				<speed>0.000000</speed>
				<ele>140.000000</ele>
				<time>2026-08-17T02:59:23Z</time>
			</trkpt>
			<trkpt lat="30.237057" lon="120.107817">
				<speed>0.000000</speed>
				<ele>140.000000</ele>
				<time>2026-08-17T02:59:24Z</time>
			</trkpt>
			<trkpt lat="30.237051" lon="120.107818">
				<speed>0.000000</speed>
				<ele>141.000000</ele>
				<time>2026-08-17T02:59:25Z</time>
			</trkpt>
			<trkpt lat="30.237045" lon="120.107820">
				<speed>0.000000</speed>
				<ele>141.000000</ele>
				<time>2026-08-17T02:59:26Z</time>
			</trkpt>
			<trkpt lat="30.237040" lon="120.107822">
				<speed>0.000000</speed>
				<ele>141.000000</ele>
				<time>2026-08-17T02:59:27Z</time>
			</trkpt>
			<trkpt lat="30.237023" lon="120.107829">
				<speed>0.000000</speed>
				<ele>141.000000</ele>
				<time>2026-08-17T02:59:28Z</time>
			</trkpt>
			<trkpt lat="30.237017" lon="120.107832">
				<speed>0.000000</speed>
				<ele>141.000000</ele>
				<time>2026-08-17T02:59:29Z</time>
			</trkpt>
			<trkpt lat="30.237012" lon="120.107834">
				<speed>0.000000</speed>
				<ele>141.000000</ele>
				<time>2026-08-17T02:59:30Z</time>
			</trkpt>
			<trkpt lat="30.237006" lon="120.107837">
				<speed>0.000000</speed>
				<ele>141.000000</ele>
				<time>2026-08-17T02:59:31Z</time>
			</trkpt>
			<trkpt lat="30.236990" lon="120.107843">
				<speed>0.000000</speed>
				<ele>141.000000</ele>
				<time>2026-08-17T02:59:32Z</time>
			</trkpt>
			<trkpt lat="30.236985" lon="120.107844">
				<speed>0.000000</speed>
				<ele>142.000000</ele>
				<time>2026-08-17T02:59:33Z</time>
			</trkpt>
			<trkpt lat="30.236979" lon="120.107845">
				<speed>0.000000</speed>
				<ele>142.000000</ele>
				<time>2026-08-17T02:59:34Z</time>
			</trkpt>
			<trkpt lat="30.236973" lon="120.107847">
				<speed>0.000000</speed>
				<ele>142.000000</ele>
				<time>2026-08-17T02:59:35Z</time>
			</trkpt>
			<trkpt lat="30.236955" lon="120.107849">
				<speed>0.000000</speed>
				<ele>142.000000</ele>
				<time>2026-08-17T02:59:36Z</time>
			</trkpt>
			<trkpt lat="30.236949" lon="120.107850">
				<speed>0.000000</speed>
				<ele>142.000000</ele>
				<time>2026-08-17T02:59:37Z</time>
			</trkpt>
			<trkpt lat="30.236943" lon="120.107850">
				<speed>0.000000</speed>
				<ele>142.000000</ele>
				<time>2026-08-17T02:59:38Z</time>
			</trkpt>
			<trkpt lat="30.236937" lon="120.107851">
				<speed>0.000000</speed>
				<ele>142.000000</ele>
				<time>2026-08-17T02:59:39Z</time>
			</trkpt>
			<trkpt lat="30.236916" lon="120.107852">
				<speed>0.000000</speed>
				<ele>142.000000</ele>
				<time>2026-08-17T02:59:40Z</time>
			</trkpt>
			<trkpt lat="30.236909" lon="120.107852">
				<speed>0.000000</speed>
				<ele>143.000000</ele>
				<time>2026-08-17T02:59:41Z</time>
			</trkpt>
			<trkpt lat="30.236902" lon="120.107851">
				<speed>0.000000</speed>
				<ele>143.000000</ele>
				<time>2026-08-17T02:59:42Z</time>
			</trkpt>
			<trkpt lat="30.236894" lon="120.107851">
				<speed>0.000000</speed>
				<ele>143.000000</ele>
				<time>2026-08-17T02:59:43Z</time>
			</trkpt>
			<trkpt lat="30.236875" lon="120.107849">
				<speed>0.000000</speed>
				<ele>143.000000</ele>
				<time>2026-08-17T02:59:44Z</time>
			</trkpt>
			<trkpt lat="30.236869" lon="120.107848">
				<speed>0.000000</speed>
				<ele>144.000000</ele>
				<time>2026-08-17T02:59:45Z</time>
			</trkpt>
			<trkpt lat="30.236863" lon="120.107847">
				<speed>0.000000</speed>
				<ele>144.000000</ele>
				<time>2026-08-17T02:59:46Z</time>
			</trkpt>
			<trkpt lat="30.236857" lon="120.107846">
				<speed>0.000000</speed>
				<ele>144.000000</ele>
				<time>2026-08-17T02:59:47Z</time>
			</trkpt>
			<trkpt lat="30.236837" lon="120.107844">
				<speed>0.000000</speed>
				<ele>144.000000</ele>
				<time>2026-08-17T02:59:48Z</time>
			</trkpt>
			<trkpt lat="30.236830" lon="120.107842">
				<speed>0.000000</speed>
				<ele>144.000000</ele>
				<time>2026-08-17T02:59:49Z</time>
			</trkpt>
			<trkpt lat="30.236823" lon="120.107842">
				<speed>0.000000</speed>
				<ele>144.000000</ele>
				<time>2026-08-17T02:59:50Z</time>
			</trkpt>
			<trkpt lat="30.236815" lon="120.107841">
				<speed>0.000000</speed>
				<ele>144.000000</ele>
				<time>2026-08-17T02:59:51Z</time>
			</trkpt>
			<trkpt lat="30.236794" lon="120.107836">
				<speed>0.000000</speed>
				<ele>144.000000</ele>
				<time>2026-08-17T02:59:52Z</time>
			</trkpt>
			<trkpt lat="30.236786" lon="120.107834">
				<speed>0.000000</speed>
				<ele>144.000000</ele>
				<time>2026-08-17T02:59:53Z</time>
			</trkpt>
			<trkpt lat="30.236779" lon="120.107833">
				<speed>0.000000</speed>
				<ele>144.000000</ele>
				<time>2026-08-17T02:59:54Z</time>
			</trkpt>
			<trkpt lat="30.236772" lon="120.107832">
				<speed>0.000000</speed>
				<ele>144.000000</ele>
				<time>2026-08-17T02:59:55Z</time>
			</trkpt>
			<trkpt lat="30.236751" lon="120.107830">
				<speed>0.000000</speed>
				<ele>144.000000</ele>
				<time>2026-08-17T02:59:56Z</time>
			</trkpt>
			<trkpt lat="30.236745" lon="120.107829">
				<speed>0.000000</speed>
				<ele>145.000000</ele>
				<time>2026-08-17T02:59:57Z</time>
			</trkpt>
			<trkpt lat="30.236738" lon="120.107829">
				<speed>0.000000</speed>
				<ele>145.000000</ele>
				<time>2026-08-17T02:59:58Z</time>
			</trkpt>
			<trkpt lat="30.236732" lon="120.107828">
				<speed>0.000000</speed>
				<ele>145.000000</ele>
				<time>2026-08-17T02:59:59Z</time>
			</trkpt>
			<trkpt lat="30.236712" lon="120.107826">
				<speed>0.000000</speed>
				<ele>145.000000</ele>
				<time>2026-08-17T03:00:00Z</time>
			</trkpt>
			<trkpt lat="30.236705" lon="120.107826">
				<speed>0.000000</speed>
				<ele>145.000000</ele>
				<time>2026-08-17T03:00:01Z</time>
			</trkpt>
			<trkpt lat="30.236699" lon="120.107825">
				<speed>0.000000</speed>
				<ele>145.000000</ele>
				<time>2026-08-17T03:00:02Z</time>
			</trkpt>
			<trkpt lat="30.236692" lon="120.107825">
				<speed>0.000000</speed>
				<ele>145.000000</ele>
				<time>2026-08-17T03:00:03Z</time>
			</trkpt>
			<trkpt lat="30.236675" lon="120.107824">
				<speed>0.000000</speed>
				<ele>145.000000</ele>
				<time>2026-08-17T03:00:04Z</time>
			</trkpt>
			<trkpt lat="30.236669" lon="120.107823">
				<speed>0.000000</speed>
				<ele>146.000000</ele>
				<time>2026-08-17T03:00:05Z</time>
			</trkpt>
			<trkpt lat="30.236664" lon="120.107821">
				<speed>0.000000</speed>
				<ele>146.000000</ele>
				<time>2026-08-17T03:00:06Z</time>
			</trkpt>
			<trkpt lat="30.236659" lon="120.107820">
				<speed>0.000000</speed>
				<ele>146.000000</ele>
				<time>2026-08-17T03:00:07Z</time>
			</trkpt>
			<trkpt lat="30.236643" lon="120.107816">
				<speed>0.000000</speed>
				<ele>146.000000</ele>
				<time>2026-08-17T03:00:08Z</time>
			</trkpt>
			<trkpt lat="30.236638" lon="120.107814">
				<speed>0.000000</speed>
				<ele>147.000000</ele>
				<time>2026-08-17T03:00:09Z</time>
			</trkpt>
			<trkpt lat="30.236632" lon="120.107812">
				<speed>0.000000</speed>
				<ele>147.000000</ele>
				<time>2026-08-17T03:00:10Z</time>
			</trkpt>
			<trkpt lat="30.236626" lon="120.107809">
				<speed>0.000000</speed>
				<ele>147.000000</ele>
				<time>2026-08-17T03:00:11Z</time>
			</trkpt>
			<trkpt lat="30.236609" lon="120.107801">
				<speed>0.000000</speed>
				<ele>147.000000</ele>
				<time>2026-08-17T03:00:12Z</time>
			</trkpt>
			<trkpt lat="30.236602" lon="120.107798">
				<speed>0.000000</speed>
				<ele>148.000000</ele>
				<time>2026-08-17T03:00:13Z</time>
			</trkpt>
			<trkpt lat="30.236596" lon="120.107795">
				<speed>0.000000</speed>
				<ele>148.000000</ele>
				<time>2026-08-17T03:00:14Z</time>
			</trkpt>
			<trkpt lat="30.236590" lon="120.107791">
				<speed>0.000000</speed>
				<ele>148.000000</ele>
				<time>2026-08-17T03:00:15Z</time>
			</trkpt>
			<trkpt lat="30.236571" lon="120.107779">
				<speed>0.000000</speed>
				<ele>148.000000</ele>
				<time>2026-08-17T03:00:16Z</time>
			</trkpt>
			<trkpt lat="30.236566" lon="120.107774">
				<speed>0.000000</speed>
				<ele>148.000000</ele>
				<time>2026-08-17T03:00:17Z</time>
			</trkpt>
			<trkpt lat="30.236561" lon="120.107769">
				<speed>0.000000</speed>
				<ele>148.000000</ele>
				<time>2026-08-17T03:00:18Z</time>
			</trkpt>
			<trkpt lat="30.236556" lon="120.107764">
				<speed>0.000000</speed>
				<ele>148.000000</ele>
				<time>2026-08-17T03:00:19Z</time>
			</trkpt>
			<trkpt lat="30.236545" lon="120.107746">
				<speed>0.000000</speed>
				<ele>148.000000</ele>
				<time>2026-08-17T03:00:20Z</time>
			</trkpt>
			<trkpt lat="30.236531" lon="120.107729">
				<speed>0.000000</speed>
				<ele>152.000000</ele>
				<time>2026-08-17T03:00:40Z</time>
			</trkpt>
			<trkpt lat="30.236522" lon="120.107716">
				<speed>0.000000</speed>
				<ele>152.000000</ele>
				<time>2026-08-17T03:00:41Z</time>
			</trkpt>
			<trkpt lat="30.236520" lon="120.107710">
				<speed>0.000000</speed>
				<ele>152.000000</ele>
				<time>2026-08-17T03:00:42Z</time>
			</trkpt>
			<trkpt lat="30.236519" lon="120.107705">
				<speed>0.000000</speed>
				<ele>152.000000</ele>
				<time>2026-08-17T03:00:43Z</time>
			</trkpt>
			<trkpt lat="30.236517" lon="120.107700">
				<speed>0.000000</speed>
				<ele>152.000000</ele>
				<time>2026-08-17T03:00:44Z</time>
			</trkpt>
			<trkpt lat="30.236514" lon="120.107681">
				<speed>0.000000</speed>
				<ele>152.000000</ele>
				<time>2026-08-17T03:00:45Z</time>
			</trkpt>
			<trkpt lat="30.236513" lon="120.107674">
				<speed>0.000000</speed>
				<ele>152.000000</ele>
				<time>2026-08-17T03:00:46Z</time>
			</trkpt>
			<trkpt lat="30.236512" lon="120.107667">
				<speed>0.000000</speed>
				<ele>152.000000</ele>
				<time>2026-08-17T03:00:47Z</time>
			</trkpt>
			<trkpt lat="30.236510" lon="120.107661">
				<speed>0.000000</speed>
				<ele>152.000000</ele>
				<time>2026-08-17T03:00:48Z</time>
			</trkpt>
			<trkpt lat="30.236504" lon="120.107640">
				<speed>0.000000</speed>
				<ele>152.000000</ele>
				<time>2026-08-17T03:00:49Z</time>
			</trkpt>
			<trkpt lat="30.236501" lon="120.107633">
				<speed>0.000000</speed>
				<ele>152.000000</ele>
				<time>2026-08-17T03:00:50Z</time>
			</trkpt>
			<trkpt lat="30.236499" lon="120.107627">
				<speed>0.000000</speed>
				<ele>152.000000</ele>
				<time>2026-08-17T03:00:51Z</time>
			</trkpt>
			<trkpt lat="30.236496" lon="120.107620">
				<speed>0.000000</speed>
				<ele>152.000000</ele>
				<time>2026-08-17T03:00:52Z</time>
			</trkpt>
			<trkpt lat="30.236487" lon="120.107598">
				<speed>0.000000</speed>
				<ele>152.000000</ele>
				<time>2026-08-17T03:00:53Z</time>
			</trkpt>
			<trkpt lat="30.236485" lon="120.107592">
				<speed>0.000000</speed>
				<ele>152.000000</ele>
				<time>2026-08-17T03:00:54Z</time>
			</trkpt>
			<trkpt lat="30.236483" lon="120.107587">
				<speed>0.000000</speed>
				<ele>152.000000</ele>
				<time>2026-08-17T03:00:55Z</time>
			</trkpt>
			<trkpt lat="30.236481" lon="120.107582">
				<speed>0.000000</speed>
				<ele>152.000000</ele>
				<time>2026-08-17T03:00:56Z</time>
			</trkpt>
			<trkpt lat="30.236479" lon="120.107577">
				<speed>0.000000</speed>
				<ele>153.000000</ele>
				<time>2026-08-17T03:00:57Z</time>
			</trkpt>
			<trkpt lat="30.236474" lon="120.107561">
				<speed>0.000000</speed>
				<ele>153.000000</ele>
				<time>2026-08-17T03:00:58Z</time>
			</trkpt>
			<trkpt lat="30.236473" lon="120.107556">
				<speed>0.000000</speed>
				<ele>153.000000</ele>
				<time>2026-08-17T03:00:59Z</time>
			</trkpt>
			<trkpt lat="30.236472" lon="120.107551">
				<speed>0.000000</speed>
				<ele>153.000000</ele>
				<time>2026-08-17T03:01:00Z</time>
			</trkpt>
			<trkpt lat="30.236471" lon="120.107546">
				<speed>0.000000</speed>
				<ele>153.000000</ele>
				<time>2026-08-17T03:01:01Z</time>
			</trkpt>
			<trkpt lat="30.236468" lon="120.107529">
				<speed>0.000000</speed>
				<ele>153.000000</ele>
				<time>2026-08-17T03:01:02Z</time>
			</trkpt>
			<trkpt lat="30.236466" lon="120.107522">
				<speed>0.000000</speed>
				<ele>153.000000</ele>
				<time>2026-08-17T03:01:03Z</time>
			</trkpt>
			<trkpt lat="30.236464" lon="120.107514">
				<speed>0.000000</speed>
				<ele>153.000000</ele>
				<time>2026-08-17T03:01:04Z</time>
			</trkpt>
			<trkpt lat="30.236463" lon="120.107507">
				<speed>0.000000</speed>
				<ele>153.000000</ele>
				<time>2026-08-17T03:01:05Z</time>
			</trkpt>
			<trkpt lat="30.236457" lon="120.107484">
				<speed>0.000000</speed>
				<ele>152.000000</ele>
				<time>2026-08-17T03:01:06Z</time>
			</trkpt>
			<trkpt lat="30.236455" lon="120.107477">
				<speed>0.000000</speed>
				<ele>152.000000</ele>
				<time>2026-08-17T03:01:07Z</time>
			</trkpt>
			<trkpt lat="30.236454" lon="120.107470">
				<speed>0.000000</speed>
				<ele>152.000000</ele>
				<time>2026-08-17T03:01:08Z</time>
			</trkpt>
			<trkpt lat="30.236452" lon="120.107463">
				<speed>0.000000</speed>
				<ele>152.000000</ele>
				<time>2026-08-17T03:01:09Z</time>
			</trkpt>
			<trkpt lat="30.236444" lon="120.107443">
				<speed>0.000000</speed>
				<ele>152.000000</ele>
				<time>2026-08-17T03:01:10Z</time>
			</trkpt>
			<trkpt lat="30.236441" lon="120.107437">
				<speed>0.000000</speed>
				<ele>152.000000</ele>
				<time>2026-08-17T03:01:11Z</time>
			</trkpt>
			<trkpt lat="30.236438" lon="120.107431">
				<speed>0.000000</speed>
				<ele>152.000000</ele>
				<time>2026-08-17T03:01:12Z</time>
			</trkpt>
			<trkpt lat="30.236435" lon="120.107425">
				<speed>0.000000</speed>
				<ele>152.000000</ele>
				<time>2026-08-17T03:01:13Z</time>
			</trkpt>
			<trkpt lat="30.236425" lon="120.107408">
				<speed>0.000000</speed>
				<ele>152.000000</ele>
				<time>2026-08-17T03:01:14Z</time>
			</trkpt>
			<trkpt lat="30.236422" lon="120.107402">
				<speed>0.000000</speed>
				<ele>152.000000</ele>
				<time>2026-08-17T03:01:15Z</time>
			</trkpt>
			<trkpt lat="30.236420" lon="120.107396">
				<speed>0.000000</speed>
				<ele>152.000000</ele>
				<time>2026-08-17T03:01:16Z</time>
			</trkpt>
			<trkpt lat="30.236417" lon="120.107389">
				<speed>0.000000</speed>
				<ele>152.000000</ele>
				<time>2026-08-17T03:01:17Z</time>
			</trkpt>
			<trkpt lat="30.236410" lon="120.107367">
				<speed>0.000000</speed>
				<ele>152.000000</ele>
				<time>2026-08-17T03:01:18Z</time>
			</trkpt>
			<trkpt lat="30.236408" lon="120.107359">
				<speed>0.000000</speed>
				<ele>152.000000</ele>
				<time>2026-08-17T03:01:19Z</time>
			</trkpt>
			<trkpt lat="30.236406" lon="120.107351">
				<speed>0.000000</speed>
				<ele>152.000000</ele>
				<time>2026-08-17T03:01:20Z</time>
			</trkpt>
			<trkpt lat="30.236404" lon="120.107344">
				<speed>0.000000</speed>
				<ele>153.000000</ele>
				<time>2026-08-17T03:01:21Z</time>
			</trkpt>
			<trkpt lat="30.236402" lon="120.107322">
				<speed>0.000000</speed>
				<ele>153.000000</ele>
				<time>2026-08-17T03:01:22Z</time>
			</trkpt>
			<trkpt lat="30.236402" lon="120.107314">
				<speed>0.000000</speed>
				<ele>153.000000</ele>
				<time>2026-08-17T03:01:23Z</time>
			</trkpt>
			<trkpt lat="30.236402" lon="120.107307">
				<speed>0.000000</speed>
				<ele>153.000000</ele>
				<time>2026-08-17T03:01:24Z</time>
			</trkpt>
			<trkpt lat="30.236402" lon="120.107299">
				<speed>0.000000</speed>
				<ele>153.000000</ele>
				<time>2026-08-17T03:01:25Z</time>
			</trkpt>
			<trkpt lat="30.236401" lon="120.107271">
				<speed>0.000000</speed>
				<ele>153.000000</ele>
				<time>2026-08-17T03:01:26Z</time>
			</trkpt>
			<trkpt lat="30.236401" lon="120.107261">
				<speed>0.000000</speed>
				<ele>153.000000</ele>
				<time>2026-08-17T03:01:27Z</time>
			</trkpt>
			<trkpt lat="30.236400" lon="120.107251">
				<speed>0.000000</speed>
				<ele>153.000000</ele>
				<time>2026-08-17T03:01:28Z</time>
			</trkpt>
			<trkpt lat="30.236400" lon="120.107240">
				<speed>0.000000</speed>
				<ele>154.000000</ele>
				<time>2026-08-17T03:01:29Z</time>
			</trkpt>
			<trkpt lat="30.236398" lon="120.107209">
				<speed>0.000000</speed>
				<ele>154.000000</ele>
				<time>2026-08-17T03:01:30Z</time>
			</trkpt>
			<trkpt lat="30.236397" lon="120.107198">
				<speed>0.000000</speed>
				<ele>154.000000</ele>
				<time>2026-08-17T03:01:31Z</time>
			</trkpt>
			<trkpt lat="30.236397" lon="120.107188">
				<speed>0.000000</speed>
				<ele>154.000000</ele>
				<time>2026-08-17T03:01:32Z</time>
			</trkpt>
			<trkpt lat="30.236396" lon="120.107178">
				<speed>0.000000</speed>
				<ele>154.000000</ele>
				<time>2026-08-17T03:01:33Z</time>
			</trkpt>
			<trkpt lat="30.236395" lon="120.107147">
				<speed>0.000000</speed>
				<ele>154.000000</ele>
				<time>2026-08-17T03:01:34Z</time>
			</trkpt>
			<trkpt lat="30.236394" lon="120.107137">
				<speed>0.000000</speed>
				<ele>154.000000</ele>
				<time>2026-08-17T03:01:35Z</time>
			</trkpt>
			<trkpt lat="30.236393" lon="120.107127">
				<speed>0.000000</speed>
				<ele>154.000000</ele>
				<time>2026-08-17T03:01:36Z</time>
			</trkpt>
			<trkpt lat="30.236392" lon="120.107117">
				<speed>0.000000</speed>
				<ele>155.000000</ele>
				<time>2026-08-17T03:01:37Z</time>
			</trkpt>
			<trkpt lat="30.236388" lon="120.107089">
				<speed>0.000000</speed>
				<ele>155.000000</ele>
				<time>2026-08-17T03:01:38Z</time>
			</trkpt>
			<trkpt lat="30.236387" lon="120.107080">
				<speed>0.000000</speed>
				<ele>155.000000</ele>
				<time>2026-08-17T03:01:39Z</time>
			</trkpt>
			<trkpt lat="30.236386" lon="120.107071">
				<speed>0.000000</speed>
				<ele>155.000000</ele>
				<time>2026-08-17T03:01:40Z</time>
			</trkpt>
			<trkpt lat="30.236385" lon="120.107062">
				<speed>0.000000</speed>
				<ele>155.000000</ele>
				<time>2026-08-17T03:01:41Z</time>
			</trkpt>
			<trkpt lat="30.236384" lon="120.107033">
				<speed>0.000000</speed>
				<ele>155.000000</ele>
				<time>2026-08-17T03:01:42Z</time>
			</trkpt>
			<trkpt lat="30.236383" lon="120.107023">
				<speed>0.000000</speed>
				<ele>155.000000</ele>
				<time>2026-08-17T03:01:43Z</time>
			</trkpt>
			<trkpt lat="30.236383" lon="120.107013">
				<speed>0.000000</speed>
				<ele>155.000000</ele>
				<time>2026-08-17T03:01:44Z</time>
			</trkpt>
			<trkpt lat="30.236383" lon="120.107004">
				<speed>0.000000</speed>
				<ele>155.000000</ele>
				<time>2026-08-17T03:01:45Z</time>
			</trkpt>
			<trkpt lat="30.236381" lon="120.106973">
				<speed>0.000000</speed>
				<ele>155.000000</ele>
				<time>2026-08-17T03:01:46Z</time>
			</trkpt>
			<trkpt lat="30.236381" lon="120.106963">
				<speed>0.000000</speed>
				<ele>155.000000</ele>
				<time>2026-08-17T03:01:47Z</time>
			</trkpt>
			<trkpt lat="30.236380" lon="120.106953">
				<speed>0.000000</speed>
				<ele>155.000000</ele>
				<time>2026-08-17T03:01:48Z</time>
			</trkpt>
			<trkpt lat="30.236380" lon="120.106943">
				<speed>0.000000</speed>
				<ele>156.000000</ele>
				<time>2026-08-17T03:01:49Z</time>
			</trkpt>
			<trkpt lat="30.236377" lon="120.106913">
				<speed>0.000000</speed>
				<ele>156.000000</ele>
				<time>2026-08-17T03:01:50Z</time>
			</trkpt>
			<trkpt lat="30.236376" lon="120.106903">
				<speed>0.000000</speed>
				<ele>156.000000</ele>
				<time>2026-08-17T03:01:51Z</time>
			</trkpt>
			<trkpt lat="30.236374" lon="120.106893">
				<speed>0.000000</speed>
				<ele>156.000000</ele>
				<time>2026-08-17T03:01:52Z</time>
			</trkpt>
			<trkpt lat="30.236373" lon="120.106884">
				<speed>0.000000</speed>
				<ele>156.000000</ele>
				<time>2026-08-17T03:01:53Z</time>
			</trkpt>
			<trkpt lat="30.236372" lon="120.106871">
				<speed>0.000000</speed>
				<ele>156.000000</ele>
				<time>2026-08-17T03:01:54Z</time>
			</trkpt>
			<trkpt lat="30.236371" lon="120.106865">
				<speed>0.000000</speed>
				<ele>156.000000</ele>
				<time>2026-08-17T03:01:55Z</time>
			</trkpt>
			<trkpt lat="30.236370" lon="120.106860">
				<speed>0.000000</speed>
				<ele>156.000000</ele>
				<time>2026-08-17T03:01:56Z</time>
			</trkpt>
			<trkpt lat="30.236370" lon="120.106854">
				<speed>0.000000</speed>
				<ele>156.000000</ele>
				<time>2026-08-17T03:01:57Z</time>
			</trkpt>
			<trkpt lat="30.236367" lon="120.106842">
				<speed>0.000000</speed>
				<ele>156.000000</ele>
				<time>2026-08-17T03:01:58Z</time>
			</trkpt>
			<trkpt lat="30.236362" lon="120.106824">
				<speed>0.000000</speed>
				<ele>157.000000</ele>
				<time>2026-08-17T03:02:07Z</time>
			</trkpt>
			<trkpt lat="30.236356" lon="120.106809">
				<speed>0.000000</speed>
				<ele>157.000000</ele>
				<time>2026-08-17T03:02:08Z</time>
			</trkpt>
			<trkpt lat="30.236354" lon="120.106804">
				<speed>0.000000</speed>
				<ele>157.000000</ele>
				<time>2026-08-17T03:02:09Z</time>
			</trkpt>
			<trkpt lat="30.236352" lon="120.106799">
				<speed>0.000000</speed>
				<ele>157.000000</ele>
				<time>2026-08-17T03:02:10Z</time>
			</trkpt>
			<trkpt lat="30.236351" lon="120.106794">
				<speed>0.000000</speed>
				<ele>157.000000</ele>
				<time>2026-08-17T03:02:11Z</time>
			</trkpt>
			<trkpt lat="30.236346" lon="120.106779">
				<speed>0.000000</speed>
				<ele>157.000000</ele>
				<time>2026-08-17T03:02:12Z</time>
			</trkpt>
			<trkpt lat="30.236345" lon="120.106773">
				<speed>0.000000</speed>
				<ele>158.000000</ele>
				<time>2026-08-17T03:02:13Z</time>
			</trkpt>
			<trkpt lat="30.236343" lon="120.106768">
				<speed>0.000000</speed>
				<ele>158.000000</ele>
				<time>2026-08-17T03:02:14Z</time>
			</trkpt>
			<trkpt lat="30.236342" lon="120.106763">
				<speed>0.000000</speed>
				<ele>158.000000</ele>
				<time>2026-08-17T03:02:15Z</time>
			</trkpt>
			<trkpt lat="30.236338" lon="120.106746">
				<speed>0.000000</speed>
				<ele>158.000000</ele>
				<time>2026-08-17T03:02:16Z</time>
			</trkpt>
			<trkpt lat="30.236338" lon="120.106741">
				<speed>0.000000</speed>
				<ele>158.000000</ele>
				<time>2026-08-17T03:02:17Z</time>
			</trkpt>
			<trkpt lat="30.236338" lon="120.106737">
				<speed>0.000000</speed>
				<ele>158.000000</ele>
				<time>2026-08-17T03:02:18Z</time>
			</trkpt>
			<trkpt lat="30.236338" lon="120.106732">
				<speed>0.000000</speed>
				<ele>158.000000</ele>
				<time>2026-08-17T03:02:19Z</time>
			</trkpt>
			<trkpt lat="30.236338" lon="120.106720">
				<speed>0.000000</speed>
				<ele>158.000000</ele>
				<time>2026-08-17T03:02:20Z</time>
			</trkpt>
			<trkpt lat="30.236338" lon="120.106715">
				<speed>0.000000</speed>
				<ele>158.000000</ele>
				<time>2026-08-17T03:02:21Z</time>
			</trkpt>
			<trkpt lat="30.236337" lon="120.106711">
				<speed>0.000000</speed>
				<ele>158.000000</ele>
				<time>2026-08-17T03:02:22Z</time>
			</trkpt>
			<trkpt lat="30.236336" lon="120.106706">
				<speed>0.000000</speed>
				<ele>158.000000</ele>
				<time>2026-08-17T03:02:23Z</time>
			</trkpt>
			<trkpt lat="30.236333" lon="120.106692">
				<speed>0.000000</speed>
				<ele>158.000000</ele>
				<time>2026-08-17T03:02:24Z</time>
			</trkpt>
			<trkpt lat="30.236333" lon="120.106687">
				<speed>0.000000</speed>
				<ele>159.000000</ele>
				<time>2026-08-17T03:02:25Z</time>
			</trkpt>
			<trkpt lat="30.236332" lon="120.106682">
				<speed>0.000000</speed>
				<ele>159.000000</ele>
				<time>2026-08-17T03:02:26Z</time>
			</trkpt>
			<trkpt lat="30.236331" lon="120.106677">
				<speed>0.000000</speed>
				<ele>159.000000</ele>
				<time>2026-08-17T03:02:27Z</time>
			</trkpt>
			<trkpt lat="30.236331" lon="120.106661">
				<speed>0.000000</speed>
				<ele>159.000000</ele>
				<time>2026-08-17T03:02:28Z</time>
			</trkpt>
			<trkpt lat="30.236331" lon="120.106655">
				<speed>0.000000</speed>
				<ele>159.000000</ele>
				<time>2026-08-17T03:02:29Z</time>
			</trkpt>
			<trkpt lat="30.236330" lon="120.106650">
				<speed>0.000000</speed>
				<ele>159.000000</ele>
				<time>2026-08-17T03:02:30Z</time>
			</trkpt>
			<trkpt lat="30.236330" lon="120.106645">
				<speed>0.000000</speed>
				<ele>159.000000</ele>
				<time>2026-08-17T03:02:31Z</time>
			</trkpt>
			<trkpt lat="30.236329" lon="120.106635">
				<speed>0.000000</speed>
				<ele>159.000000</ele>
				<time>2026-08-17T03:02:32Z</time>
			</trkpt>
			<trkpt lat="30.236322" lon="120.106619">
				<speed>0.000000</speed>
				<ele>161.000000</ele>
				<time>2026-08-17T03:02:40Z</time>
			</trkpt>
			<trkpt lat="30.236310" lon="120.106599">
				<speed>0.000000</speed>
				<ele>162.000000</ele>
				<time>2026-08-17T03:02:41Z</time>
			</trkpt>
			<trkpt lat="30.236306" lon="120.106593">
				<speed>0.000000</speed>
				<ele>162.000000</ele>
				<time>2026-08-17T03:02:42Z</time>
			</trkpt>
			<trkpt lat="30.236303" lon="120.106588">
				<speed>0.000000</speed>
				<ele>162.000000</ele>
				<time>2026-08-17T03:02:43Z</time>
			</trkpt>
			<trkpt lat="30.236299" lon="120.106583">
				<speed>0.000000</speed>
				<ele>162.000000</ele>
				<time>2026-08-17T03:02:44Z</time>
			</trkpt>
			<trkpt lat="30.236289" lon="120.106566">
				<speed>0.000000</speed>
				<ele>163.000000</ele>
				<time>2026-08-17T03:02:45Z</time>
			</trkpt>
			<trkpt lat="30.236285" lon="120.106560">
				<speed>0.000000</speed>
				<ele>163.000000</ele>
				<time>2026-08-17T03:02:46Z</time>
			</trkpt>
			<trkpt lat="30.236282" lon="120.106555">
				<speed>0.000000</speed>
				<ele>163.000000</ele>
				<time>2026-08-17T03:02:47Z</time>
			</trkpt>
			<trkpt lat="30.236278" lon="120.106549">
				<speed>0.000000</speed>
				<ele>163.000000</ele>
				<time>2026-08-17T03:02:48Z</time>
			</trkpt>
			<trkpt lat="30.236269" lon="120.106532">
				<speed>0.000000</speed>
				<ele>164.000000</ele>
				<time>2026-08-17T03:02:49Z</time>
			</trkpt>
			<trkpt lat="30.236266" lon="120.106526">
				<speed>0.000000</speed>
				<ele>164.000000</ele>
				<time>2026-08-17T03:02:50Z</time>
			</trkpt>
			<trkpt lat="30.236263" lon="120.106521">
				<speed>0.000000</speed>
				<ele>164.000000</ele>
				<time>2026-08-17T03:02:51Z</time>
			</trkpt>
			<trkpt lat="30.236260" lon="120.106515">
				<speed>0.000000</speed>
				<ele>164.000000</ele>
				<time>2026-08-17T03:02:52Z</time>
			</trkpt>
			<trkpt lat="30.236252" lon="120.106502">
				<speed>0.000000</speed>
				<ele>165.000000</ele>
				<time>2026-08-17T03:02:53Z</time>
			</trkpt>
			<trkpt lat="30.236250" lon="120.106497">
				<speed>0.000000</speed>
				<ele>165.000000</ele>
				<time>2026-08-17T03:02:54Z</time>
			</trkpt>
			<trkpt lat="30.236247" lon="120.106493">
				<speed>0.000000</speed>
				<ele>165.000000</ele>
				<time>2026-08-17T03:02:55Z</time>
			</trkpt>
			<trkpt lat="30.236244" lon="120.106488">
				<speed>0.000000</speed>
				<ele>165.000000</ele>
				<time>2026-08-17T03:02:56Z</time>
			</trkpt>
			<trkpt lat="30.236235" lon="120.106475">
				<speed>0.000000</speed>
				<ele>166.000000</ele>
				<time>2026-08-17T03:02:57Z</time>
			</trkpt>
			<trkpt lat="30.236232" lon="120.106471">
				<speed>0.000000</speed>
				<ele>166.000000</ele>
				<time>2026-08-17T03:02:58Z</time>
			</trkpt>
			<trkpt lat="30.236229" lon="120.106467">
				<speed>0.000000</speed>
				<ele>166.000000</ele>
				<time>2026-08-17T03:02:59Z</time>
			</trkpt>
			<trkpt lat="30.236226" lon="120.106463">
				<speed>0.000000</speed>
				<ele>166.000000</ele>
				<time>2026-08-17T03:03:00Z</time>
			</trkpt>
			<trkpt lat="30.236219" lon="120.106449">
				<speed>0.000000</speed>
				<ele>167.000000</ele>
				<time>2026-08-17T03:03:01Z</time>
			</trkpt>
			<trkpt lat="30.236216" lon="120.106444">
				<speed>0.000000</speed>
				<ele>167.000000</ele>
				<time>2026-08-17T03:03:02Z</time>
			</trkpt>
			<trkpt lat="30.236214" lon="120.106439">
				<speed>0.000000</speed>
				<ele>167.000000</ele>
				<time>2026-08-17T03:03:03Z</time>
			</trkpt>
			<trkpt lat="30.236211" lon="120.106435">
				<speed>0.000000</speed>
				<ele>167.000000</ele>
				<time>2026-08-17T03:03:04Z</time>
			</trkpt>
			<trkpt lat="30.236205" lon="120.106421">
				<speed>0.000000</speed>
				<ele>168.000000</ele>
				<time>2026-08-17T03:03:05Z</time>
			</trkpt>
			<trkpt lat="30.236203" lon="120.106416">
				<speed>0.000000</speed>
				<ele>168.000000</ele>
				<time>2026-08-17T03:03:06Z</time>
			</trkpt>
			<trkpt lat="30.236201" lon="120.106412">
				<speed>0.000000</speed>
				<ele>168.000000</ele>
				<time>2026-08-17T03:03:07Z</time>
			</trkpt>
			<trkpt lat="30.236199" lon="120.106407">
				<speed>0.000000</speed>
				<ele>168.000000</ele>
				<time>2026-08-17T03:03:08Z</time>
			</trkpt>
			<trkpt lat="30.236194" lon="120.106394">
				<speed>0.000000</speed>
				<ele>169.000000</ele>
				<time>2026-08-17T03:03:09Z</time>
			</trkpt>
			<trkpt lat="30.236193" lon="120.106392">
				<speed>0.000000</speed>
				<ele>169.000000</ele>
				<time>2026-08-17T03:03:10Z</time>
			</trkpt>
			<trkpt lat="30.236191" lon="120.106389">
				<speed>0.000000</speed>
				<ele>169.000000</ele>
				<time>2026-08-17T03:03:11Z</time>
			</trkpt>
			<trkpt lat="30.236190" lon="120.106387">
				<speed>0.000000</speed>
				<ele>169.000000</ele>
				<time>2026-08-17T03:03:12Z</time>
			</trkpt>
			<trkpt lat="30.236184" lon="120.106375">
				<speed>0.000000</speed>
				<ele>170.000000</ele>
				<time>2026-08-17T03:03:13Z</time>
			</trkpt>
			<trkpt lat="30.236182" lon="120.106371">
				<speed>0.000000</speed>
				<ele>170.000000</ele>
				<time>2026-08-17T03:03:14Z</time>
			</trkpt>
			<trkpt lat="30.236180" lon="120.106367">
				<speed>0.000000</speed>
				<ele>170.000000</ele>
				<time>2026-08-17T03:03:15Z</time>
			</trkpt>
			<trkpt lat="30.236178" lon="120.106363">
				<speed>0.000000</speed>
				<ele>170.000000</ele>
				<time>2026-08-17T03:03:16Z</time>
			</trkpt>
			<trkpt lat="30.236170" lon="120.106353">
				<speed>0.000000</speed>
				<ele>171.000000</ele>
				<time>2026-08-17T03:03:17Z</time>
			</trkpt>
			<trkpt lat="30.236167" lon="120.106350">
				<speed>0.000000</speed>
				<ele>171.000000</ele>
				<time>2026-08-17T03:03:18Z</time>
			</trkpt>
			<trkpt lat="30.236164" lon="120.106346">
				<speed>0.000000</speed>
				<ele>171.000000</ele>
				<time>2026-08-17T03:03:19Z</time>
			</trkpt>
			<trkpt lat="30.236161" lon="120.106343">
				<speed>0.000000</speed>
				<ele>171.000000</ele>
				<time>2026-08-17T03:03:20Z</time>
			</trkpt>
			<trkpt lat="30.236150" lon="120.106333">
				<speed>0.000000</speed>
				<ele>172.000000</ele>
				<time>2026-08-17T03:03:21Z</time>
			</trkpt>
			<trkpt lat="30.236147" lon="120.106331">
				<speed>0.000000</speed>
				<ele>172.000000</ele>
				<time>2026-08-17T03:03:22Z</time>
			</trkpt>
			<trkpt lat="30.236143" lon="120.106328">
				<speed>0.000000</speed>
				<ele>172.000000</ele>
				<time>2026-08-17T03:03:23Z</time>
			</trkpt>
			<trkpt lat="30.236139" lon="120.106326">
				<speed>0.000000</speed>
				<ele>172.000000</ele>
				<time>2026-08-17T03:03:24Z</time>
			</trkpt>
			<trkpt lat="30.236127" lon="120.106317">
				<speed>0.000000</speed>
				<ele>172.000000</ele>
				<time>2026-08-17T03:03:25Z</time>
			</trkpt>
			<trkpt lat="30.236123" lon="120.106313">
				<speed>0.000000</speed>
				<ele>172.000000</ele>
				<time>2026-08-17T03:03:26Z</time>
			</trkpt>
			<trkpt lat="30.236119" lon="120.106309">
				<speed>0.000000</speed>
				<ele>172.000000</ele>
				<time>2026-08-17T03:03:27Z</time>
			</trkpt>
			<trkpt lat="30.236115" lon="120.106304">
				<speed>0.000000</speed>
				<ele>172.000000</ele>
				<time>2026-08-17T03:03:28Z</time>
			</trkpt>
			<trkpt lat="30.236102" lon="120.106290">
				<speed>0.000000</speed>
				<ele>173.000000</ele>
				<time>2026-08-17T03:03:29Z</time>
			</trkpt>
			<trkpt lat="30.236097" lon="120.106285">
				<speed>0.000000</speed>
				<ele>173.000000</ele>
				<time>2026-08-17T03:03:30Z</time>
			</trkpt>
			<trkpt lat="30.236092" lon="120.106280">
				<speed>0.000000</speed>
				<ele>173.000000</ele>
				<time>2026-08-17T03:03:31Z</time>
			</trkpt>
			<trkpt lat="30.236088" lon="120.106276">
				<speed>0.000000</speed>
				<ele>173.000000</ele>
				<time>2026-08-17T03:03:32Z</time>
			</trkpt>
			<trkpt lat="30.236073" lon="120.106262">
				<speed>0.000000</speed>
				<ele>174.000000</ele>
				<time>2026-08-17T03:03:33Z</time>
			</trkpt>
			<trkpt lat="30.236067" lon="120.106258">
				<speed>0.000000</speed>
				<ele>174.000000</ele>
				<time>2026-08-17T03:03:34Z</time>
			</trkpt>
			<trkpt lat="30.236062" lon="120.106254">
				<speed>0.000000</speed>
				<ele>174.000000</ele>
				<time>2026-08-17T03:03:35Z</time>
			</trkpt>
			<trkpt lat="30.236057" lon="120.106249">
				<speed>0.000000</speed>
				<ele>174.000000</ele>
				<time>2026-08-17T03:03:36Z</time>
			</trkpt>
			<trkpt lat="30.236041" lon="120.106237">
				<speed>0.000000</speed>
				<ele>175.000000</ele>
				<time>2026-08-17T03:03:37Z</time>
			</trkpt>
			<trkpt lat="30.236036" lon="120.106233">
				<speed>0.000000</speed>
				<ele>175.000000</ele>
				<time>2026-08-17T03:03:38Z</time>
			</trkpt>
			<trkpt lat="30.236031" lon="120.106229">
				<speed>0.000000</speed>
				<ele>175.000000</ele>
				<time>2026-08-17T03:03:39Z</time>
			</trkpt>
			<trkpt lat="30.236027" lon="120.106225">
				<speed>0.000000</speed>
				<ele>175.000000</ele>
				<time>2026-08-17T03:03:40Z</time>
			</trkpt>
			<trkpt lat="30.236015" lon="120.106212">
				<speed>0.000000</speed>
				<ele>176.000000</ele>
				<time>2026-08-17T03:03:41Z</time>
			</trkpt>
			<trkpt lat="30.236011" lon="120.106208">
				<speed>0.000000</speed>
				<ele>176.000000</ele>
				<time>2026-08-17T03:03:42Z</time>
			</trkpt>
			<trkpt lat="30.236008" lon="120.106203">
				<speed>0.000000</speed>
				<ele>176.000000</ele>
				<time>2026-08-17T03:03:43Z</time>
			</trkpt>
			<trkpt lat="30.236005" lon="120.106199">
				<speed>0.000000</speed>
				<ele>176.000000</ele>
				<time>2026-08-17T03:03:44Z</time>
			</trkpt>
			<trkpt lat="30.235996" lon="120.106186">
				<speed>0.000000</speed>
				<ele>177.000000</ele>
				<time>2026-08-17T03:03:45Z</time>
			</trkpt>
			<trkpt lat="30.235992" lon="120.106182">
				<speed>0.000000</speed>
				<ele>177.000000</ele>
				<time>2026-08-17T03:03:46Z</time>
			</trkpt>
			<trkpt lat="30.235988" lon="120.106178">
				<speed>0.000000</speed>
				<ele>177.000000</ele>
				<time>2026-08-17T03:03:47Z</time>
			</trkpt>
			<trkpt lat="30.235984" lon="120.106174">
				<speed>0.000000</speed>
				<ele>177.000000</ele>
				<time>2026-08-17T03:03:48Z</time>
			</trkpt>
			<trkpt lat="30.235969" lon="120.106163">
				<speed>0.000000</speed>
				<ele>178.000000</ele>
				<time>2026-08-17T03:03:49Z</time>
			</trkpt>
			<trkpt lat="30.235964" lon="120.106159">
				<speed>0.000000</speed>
				<ele>178.000000</ele>
				<time>2026-08-17T03:03:50Z</time>
			</trkpt>
			<trkpt lat="30.235958" lon="120.106156">
				<speed>0.000000</speed>
				<ele>178.000000</ele>
				<time>2026-08-17T03:03:51Z</time>
			</trkpt>
			<trkpt lat="30.235953" lon="120.106152">
				<speed>0.000000</speed>
				<ele>178.000000</ele>
				<time>2026-08-17T03:03:52Z</time>
			</trkpt>
			<trkpt lat="30.235936" lon="120.106141">
				<speed>0.000000</speed>
				<ele>179.000000</ele>
				<time>2026-08-17T03:03:53Z</time>
			</trkpt>
			<trkpt lat="30.235931" lon="120.106136">
				<speed>0.000000</speed>
				<ele>179.000000</ele>
				<time>2026-08-17T03:03:54Z</time>
			</trkpt>
			<trkpt lat="30.235925" lon="120.106132">
				<speed>0.000000</speed>
				<ele>179.000000</ele>
				<time>2026-08-17T03:03:55Z</time>
			</trkpt>
			<trkpt lat="30.235920" lon="120.106127">
				<speed>0.000000</speed>
				<ele>179.000000</ele>
				<time>2026-08-17T03:03:56Z</time>
			</trkpt>
			<trkpt lat="30.235905" lon="120.106109">
				<speed>0.000000</speed>
				<ele>180.000000</ele>
				<time>2026-08-17T03:03:57Z</time>
			</trkpt>
			<trkpt lat="30.235900" lon="120.106103">
				<speed>0.000000</speed>
				<ele>180.000000</ele>
				<time>2026-08-17T03:03:58Z</time>
			</trkpt>
			<trkpt lat="30.235895" lon="120.106097">
				<speed>0.000000</speed>
				<ele>180.000000</ele>
				<time>2026-08-17T03:03:59Z</time>
			</trkpt>
			<trkpt lat="30.235891" lon="120.106090">
				<speed>0.000000</speed>
				<ele>180.000000</ele>
				<time>2026-08-17T03:04:00Z</time>
			</trkpt>
			<trkpt lat="30.235876" lon="120.106071">
				<speed>0.000000</speed>
				<ele>180.000000</ele>
				<time>2026-08-17T03:04:01Z</time>
			</trkpt>
			<trkpt lat="30.235872" lon="120.106064">
				<speed>0.000000</speed>
				<ele>180.000000</ele>
				<time>2026-08-17T03:04:02Z</time>
			</trkpt>
			<trkpt lat="30.235867" lon="120.106057">
				<speed>0.000000</speed>
				<ele>180.000000</ele>
				<time>2026-08-17T03:04:03Z</time>
			</trkpt>
			<trkpt lat="30.235862" lon="120.106050">
				<speed>0.000000</speed>
				<ele>180.000000</ele>
				<time>2026-08-17T03:04:04Z</time>
			</trkpt>
			<trkpt lat="30.235849" lon="120.106032">
				<speed>0.000000</speed>
				<ele>181.000000</ele>
				<time>2026-08-17T03:04:05Z</time>
			</trkpt>
			<trkpt lat="30.235845" lon="120.106026">
				<speed>0.000000</speed>
				<ele>181.000000</ele>
				<time>2026-08-17T03:04:06Z</time>
			</trkpt>
			<trkpt lat="30.235841" lon="120.106020">
				<speed>0.000000</speed>
				<ele>181.000000</ele>
				<time>2026-08-17T03:04:07Z</time>
			</trkpt>
			<trkpt lat="30.235837" lon="120.106014">
				<speed>0.000000</speed>
				<ele>181.000000</ele>
				<time>2026-08-17T03:04:08Z</time>
			</trkpt>
			<trkpt lat="30.235825" lon="120.105997">
				<speed>0.000000</speed>
				<ele>182.000000</ele>
				<time>2026-08-17T03:04:09Z</time>
			</trkpt>
			<trkpt lat="30.235821" lon="120.105991">
				<speed>0.000000</speed>
				<ele>182.000000</ele>
				<time>2026-08-17T03:04:10Z</time>
			</trkpt>
			<trkpt lat="30.235817" lon="120.105987">
				<speed>0.000000</speed>
				<ele>182.000000</ele>
				<time>2026-08-17T03:04:11Z</time>
			</trkpt>
			<trkpt lat="30.235814" lon="120.105982">
				<speed>0.000000</speed>
				<ele>182.000000</ele>
				<time>2026-08-17T03:04:12Z</time>
			</trkpt>
			<trkpt lat="30.235801" lon="120.105969">
				<speed>0.000000</speed>
				<ele>183.000000</ele>
				<time>2026-08-17T03:04:13Z</time>
			</trkpt>
			<trkpt lat="30.235796" lon="120.105965">
				<speed>0.000000</speed>
				<ele>183.000000</ele>
				<time>2026-08-17T03:04:14Z</time>
			</trkpt>
			<trkpt lat="30.235791" lon="120.105961">
				<speed>0.000000</speed>
				<ele>183.000000</ele>
				<time>2026-08-17T03:04:15Z</time>
			</trkpt>
			<trkpt lat="30.235787" lon="120.105957">
				<speed>0.000000</speed>
				<ele>183.000000</ele>
				<time>2026-08-17T03:04:16Z</time>
			</trkpt>
			<trkpt lat="30.235772" lon="120.105946">
				<speed>0.000000</speed>
				<ele>184.000000</ele>
				<time>2026-08-17T03:04:17Z</time>
			</trkpt>
			<trkpt lat="30.235767" lon="120.105942">
				<speed>0.000000</speed>
				<ele>184.000000</ele>
				<time>2026-08-17T03:04:18Z</time>
			</trkpt>
			<trkpt lat="30.235763" lon="120.105938">
				<speed>0.000000</speed>
				<ele>184.000000</ele>
				<time>2026-08-17T03:04:19Z</time>
			</trkpt>
			<trkpt lat="30.235758" lon="120.105934">
				<speed>0.000000</speed>
				<ele>184.000000</ele>
				<time>2026-08-17T03:04:20Z</time>
			</trkpt>
			<trkpt lat="30.235745" lon="120.105922">
				<speed>0.000000</speed>
				<ele>185.000000</ele>
				<time>2026-08-17T03:04:21Z</time>
			</trkpt>
			<trkpt lat="30.235741" lon="120.105919">
				<speed>0.000000</speed>
				<ele>185.000000</ele>
				<time>2026-08-17T03:04:22Z</time>
			</trkpt>
			<trkpt lat="30.235737" lon="120.105915">
				<speed>0.000000</speed>
				<ele>185.000000</ele>
				<time>2026-08-17T03:04:23Z</time>
			</trkpt>
			<trkpt lat="30.235733" lon="120.105912">
				<speed>0.000000</speed>
				<ele>185.000000</ele>
				<time>2026-08-17T03:04:24Z</time>
			</trkpt>
			<trkpt lat="30.235722" lon="120.105902">
				<speed>0.000000</speed>
				<ele>186.000000</ele>
				<time>2026-08-17T03:04:25Z</time>
			</trkpt>
			<trkpt lat="30.235718" lon="120.105898">
				<speed>0.000000</speed>
				<ele>186.000000</ele>
				<time>2026-08-17T03:04:26Z</time>
			</trkpt>
			<trkpt lat="30.235714" lon="120.105894">
				<speed>0.000000</speed>
				<ele>186.000000</ele>
				<time>2026-08-17T03:04:27Z</time>
			</trkpt>
			<trkpt lat="30.235710" lon="120.105890">
				<speed>0.000000</speed>
				<ele>186.000000</ele>
				<time>2026-08-17T03:04:28Z</time>
			</trkpt>
			<trkpt lat="30.235696" lon="120.105877">
				<speed>0.000000</speed>
				<ele>186.000000</ele>
				<time>2026-08-17T03:04:29Z</time>
			</trkpt>
			<trkpt lat="30.235692" lon="120.105872">
				<speed>0.000000</speed>
				<ele>186.000000</ele>
				<time>2026-08-17T03:04:30Z</time>
			</trkpt>
			<trkpt lat="30.235687" lon="120.105867">
				<speed>0.000000</speed>
				<ele>186.000000</ele>
				<time>2026-08-17T03:04:31Z</time>
			</trkpt>
			<trkpt lat="30.235683" lon="120.105863">
				<speed>0.000000</speed>
				<ele>186.000000</ele>
				<time>2026-08-17T03:04:32Z</time>
			</trkpt>
			<trkpt lat="30.235669" lon="120.105848">
				<speed>0.000000</speed>
				<ele>187.000000</ele>
				<time>2026-08-17T03:04:33Z</time>
			</trkpt>
			<trkpt lat="30.235664" lon="120.105842">
				<speed>0.000000</speed>
				<ele>187.000000</ele>
				<time>2026-08-17T03:04:34Z</time>
			</trkpt>
			<trkpt lat="30.235659" lon="120.105837">
				<speed>0.000000</speed>
				<ele>187.000000</ele>
				<time>2026-08-17T03:04:35Z</time>
			</trkpt>
			<trkpt lat="30.235655" lon="120.105831">
				<speed>0.000000</speed>
				<ele>187.000000</ele>
				<time>2026-08-17T03:04:36Z</time>
			</trkpt>
			<trkpt lat="30.235641" lon="120.105814">
				<speed>0.000000</speed>
				<ele>187.000000</ele>
				<time>2026-08-17T03:04:37Z</time>
			</trkpt>
			<trkpt lat="30.235636" lon="120.105807">
				<speed>0.000000</speed>
				<ele>187.000000</ele>
				<time>2026-08-17T03:04:38Z</time>
			</trkpt>
			<trkpt lat="30.235631" lon="120.105801">
				<speed>0.000000</speed>
				<ele>187.000000</ele>
				<time>2026-08-17T03:04:39Z</time>
			</trkpt>
			<trkpt lat="30.235626" lon="120.105795">
				<speed>0.000000</speed>
				<ele>187.000000</ele>
				<time>2026-08-17T03:04:40Z</time>
			</trkpt>
			<trkpt lat="30.235610" lon="120.105775">
				<speed>0.000000</speed>
				<ele>187.000000</ele>
				<time>2026-08-17T03:04:41Z</time>
			</trkpt>
			<trkpt lat="30.235605" lon="120.105768">
				<speed>0.000000</speed>
				<ele>187.000000</ele>
				<time>2026-08-17T03:04:42Z</time>
			</trkpt>
			<trkpt lat="30.235599" lon="120.105761">
				<speed>0.000000</speed>
				<ele>187.000000</ele>
				<time>2026-08-17T03:04:43Z</time>
			</trkpt>
			<trkpt lat="30.235594" lon="120.105754">
				<speed>0.000000</speed>
				<ele>187.000000</ele>
				<time>2026-08-17T03:04:44Z</time>
			</trkpt>
			<trkpt lat="30.235578" lon="120.105734">
				<speed>0.000000</speed>
				<ele>187.000000</ele>
				<time>2026-08-17T03:04:45Z</time>
			</trkpt>
			<trkpt lat="30.235573" lon="120.105728">
				<speed>0.000000</speed>
				<ele>187.000000</ele>
				<time>2026-08-17T03:04:46Z</time>
			</trkpt>
			<trkpt lat="30.235568" lon="120.105721">
				<speed>0.000000</speed>
				<ele>187.000000</ele>
				<time>2026-08-17T03:04:47Z</time>
			</trkpt>
			<trkpt lat="30.235563" lon="120.105715">
				<speed>0.000000</speed>
				<ele>187.000000</ele>
				<time>2026-08-17T03:04:48Z</time>
			</trkpt>
			<trkpt lat="30.235549" lon="120.105695">
				<speed>0.000000</speed>
				<ele>187.000000</ele>
				<time>2026-08-17T03:04:49Z</time>
			</trkpt>
			<trkpt lat="30.235544" lon="120.105689">
				<speed>0.000000</speed>
				<ele>187.000000</ele>
				<time>2026-08-17T03:04:50Z</time>
			</trkpt>
			<trkpt lat="30.235539" lon="120.105683">
				<speed>0.000000</speed>
				<ele>187.000000</ele>
				<time>2026-08-17T03:04:51Z</time>
			</trkpt>
			<trkpt lat="30.235534" lon="120.105677">
				<speed>0.000000</speed>
				<ele>187.000000</ele>
				<time>2026-08-17T03:04:52Z</time>
			</trkpt>
			<trkpt lat="30.235518" lon="120.105659">
				<speed>0.000000</speed>
				<ele>187.000000</ele>
				<time>2026-08-17T03:04:53Z</time>
			</trkpt>
			<trkpt lat="30.235513" lon="120.105653">
				<speed>0.000000</speed>
				<ele>187.000000</ele>
				<time>2026-08-17T03:04:54Z</time>
			</trkpt>
			<trkpt lat="30.235508" lon="120.105647">
				<speed>0.000000</speed>
				<ele>187.000000</ele>
				<time>2026-08-17T03:04:55Z</time>
			</trkpt>
			<trkpt lat="30.235503" lon="120.105642">
				<speed>0.000000</speed>
				<ele>187.000000</ele>
				<time>2026-08-17T03:04:56Z</time>
			</trkpt>
			<trkpt lat="30.235486" lon="120.105623">
				<speed>0.000000</speed>
				<ele>187.000000</ele>
				<time>2026-08-17T03:04:57Z</time>
			</trkpt>
			<trkpt lat="30.235480" lon="120.105616">
				<speed>0.000000</speed>
				<ele>186.000000</ele>
				<time>2026-08-17T03:04:58Z</time>
			</trkpt>
			<trkpt lat="30.235475" lon="120.105610">
				<speed>0.000000</speed>
				<ele>186.000000</ele>
				<time>2026-08-17T03:04:59Z</time>
			</trkpt>
			<trkpt lat="30.235469" lon="120.105604">
				<speed>0.000000</speed>
				<ele>186.000000</ele>
				<time>2026-08-17T03:05:00Z</time>
			</trkpt>
			<trkpt lat="30.235452" lon="120.105585">
				<speed>0.000000</speed>
				<ele>186.000000</ele>
				<time>2026-08-17T03:05:01Z</time>
			</trkpt>
			<trkpt lat="30.235446" lon="120.105578">
				<speed>0.000000</speed>
				<ele>185.000000</ele>
				<time>2026-08-17T03:05:02Z</time>
			</trkpt>
			<trkpt lat="30.235441" lon="120.105571">
				<speed>0.000000</speed>
				<ele>185.000000</ele>
				<time>2026-08-17T03:05:03Z</time>
			</trkpt>
			<trkpt lat="30.235435" lon="120.105565">
				<speed>0.000000</speed>
				<ele>185.000000</ele>
				<time>2026-08-17T03:05:04Z</time>
			</trkpt>
			<trkpt lat="30.235419" lon="120.105542">
				<speed>0.000000</speed>
				<ele>185.000000</ele>
				<time>2026-08-17T03:05:05Z</time>
			</trkpt>
			<trkpt lat="30.235414" lon="120.105535">
				<speed>0.000000</speed>
				<ele>185.000000</ele>
				<time>2026-08-17T03:05:06Z</time>
			</trkpt>
			<trkpt lat="30.235408" lon="120.105528">
				<speed>0.000000</speed>
				<ele>185.000000</ele>
				<time>2026-08-17T03:05:07Z</time>
			</trkpt>
			<trkpt lat="30.235403" lon="120.105521">
				<speed>0.000000</speed>
				<ele>185.000000</ele>
				<time>2026-08-17T03:05:08Z</time>
			</trkpt>
			<trkpt lat="30.235388" lon="120.105501">
				<speed>0.000000</speed>
				<ele>185.000000</ele>
				<time>2026-08-17T03:05:09Z</time>
			</trkpt>
			<trkpt lat="30.235382" lon="120.105495">
				<speed>0.000000</speed>
				<ele>185.000000</ele>
				<time>2026-08-17T03:05:10Z</time>
			</trkpt>
			<trkpt lat="30.235377" lon="120.105489">
				<speed>0.000000</speed>
				<ele>185.000000</ele>
				<time>2026-08-17T03:05:11Z</time>
			</trkpt>
			<trkpt lat="30.235372" lon="120.105483">
				<speed>0.000000</speed>
				<ele>185.000000</ele>
				<time>2026-08-17T03:05:12Z</time>
			</trkpt>
			<trkpt lat="30.235358" lon="120.105468">
				<speed>0.000000</speed>
				<ele>185.000000</ele>
				<time>2026-08-17T03:05:13Z</time>
			</trkpt>
			<trkpt lat="30.235354" lon="120.105463">
				<speed>0.000000</speed>
				<ele>185.000000</ele>
				<time>2026-08-17T03:05:14Z</time>
			</trkpt>
			<trkpt lat="30.235350" lon="120.105458">
				<speed>0.000000</speed>
				<ele>185.000000</ele>
				<time>2026-08-17T03:05:15Z</time>
			</trkpt>
			<trkpt lat="30.235346" lon="120.105453">
				<speed>0.000000</speed>
				<ele>185.000000</ele>
				<time>2026-08-17T03:05:16Z</time>
			</trkpt>
			<trkpt lat="30.235336" lon="120.105437">
				<speed>0.000000</speed>
				<ele>185.000000</ele>
				<time>2026-08-17T03:05:17Z</time>
			</trkpt>
			<trkpt lat="30.235333" lon="120.105430">
				<speed>0.000000</speed>
				<ele>185.000000</ele>
				<time>2026-08-17T03:05:18Z</time>
			</trkpt>
			<trkpt lat="30.235329" lon="120.105424">
				<speed>0.000000</speed>
				<ele>185.000000</ele>
				<time>2026-08-17T03:05:19Z</time>
			</trkpt>
			<trkpt lat="30.235325" lon="120.105418">
				<speed>0.000000</speed>
				<ele>185.000000</ele>
				<time>2026-08-17T03:05:20Z</time>
			</trkpt>
			<trkpt lat="30.235313" lon="120.105399">
				<speed>0.000000</speed>
				<ele>185.000000</ele>
				<time>2026-08-17T03:05:21Z</time>
			</trkpt>
			<trkpt lat="30.235308" lon="120.105392">
				<speed>0.000000</speed>
				<ele>185.000000</ele>
				<time>2026-08-17T03:05:22Z</time>
			</trkpt>
			<trkpt lat="30.235303" lon="120.105384">
				<speed>0.000000</speed>
				<ele>185.000000</ele>
				<time>2026-08-17T03:05:23Z</time>
			</trkpt>
			<trkpt lat="30.235299" lon="120.105377">
				<speed>0.000000</speed>
				<ele>185.000000</ele>
				<time>2026-08-17T03:05:24Z</time>
			</trkpt>
			<trkpt lat="30.235283" lon="120.105357">
				<speed>0.000000</speed>
				<ele>185.000000</ele>
				<time>2026-08-17T03:05:25Z</time>
			</trkpt>
			<trkpt lat="30.235277" lon="120.105351">
				<speed>0.000000</speed>
				<ele>185.000000</ele>
				<time>2026-08-17T03:05:26Z</time>
			</trkpt>
			<trkpt lat="30.235272" lon="120.105344">
				<speed>0.000000</speed>
				<ele>185.000000</ele>
				<time>2026-08-17T03:05:27Z</time>
			</trkpt>
			<trkpt lat="30.235266" lon="120.105338">
				<speed>0.000000</speed>
				<ele>185.000000</ele>
				<time>2026-08-17T03:05:28Z</time>
			</trkpt>
			<trkpt lat="30.235248" lon="120.105320">
				<speed>0.000000</speed>
				<ele>186.000000</ele>
				<time>2026-08-17T03:05:29Z</time>
			</trkpt>
			<trkpt lat="30.235242" lon="120.105313">
				<speed>0.000000</speed>
				<ele>186.000000</ele>
				<time>2026-08-17T03:05:30Z</time>
			</trkpt>
			<trkpt lat="30.235236" lon="120.105306">
				<speed>0.000000</speed>
				<ele>186.000000</ele>
				<time>2026-08-17T03:05:31Z</time>
			</trkpt>
			<trkpt lat="30.235230" lon="120.105300">
				<speed>0.000000</speed>
				<ele>186.000000</ele>
				<time>2026-08-17T03:05:32Z</time>
			</trkpt>
			<trkpt lat="30.235213" lon="120.105280">
				<speed>0.000000</speed>
				<ele>186.000000</ele>
				<time>2026-08-17T03:05:33Z</time>
			</trkpt>
			<trkpt lat="30.235207" lon="120.105274">
				<speed>0.000000</speed>
				<ele>186.000000</ele>
				<time>2026-08-17T03:05:34Z</time>
			</trkpt>
			<trkpt lat="30.235202" lon="120.105268">
				<speed>0.000000</speed>
				<ele>186.000000</ele>
				<time>2026-08-17T03:05:35Z</time>
			</trkpt>
			<trkpt lat="30.235197" lon="120.105262">
				<speed>0.000000</speed>
				<ele>186.000000</ele>
				<time>2026-08-17T03:05:36Z</time>
			</trkpt>
			<trkpt lat="30.235182" lon="120.105244">
				<speed>0.000000</speed>
				<ele>187.000000</ele>
				<time>2026-08-17T03:05:37Z</time>
			</trkpt>
			<trkpt lat="30.235178" lon="120.105237">
				<speed>0.000000</speed>
				<ele>187.000000</ele>
				<time>2026-08-17T03:05:38Z</time>
			</trkpt>
			<trkpt lat="30.235174" lon="120.105231">
				<speed>0.000000</speed>
				<ele>187.000000</ele>
				<time>2026-08-17T03:05:39Z</time>
			</trkpt>
			<trkpt lat="30.235170" lon="120.105225">
				<speed>0.000000</speed>
				<ele>187.000000</ele>
				<time>2026-08-17T03:05:40Z</time>
			</trkpt>
			<trkpt lat="30.235157" lon="120.105206">
				<speed>0.000000</speed>
				<ele>188.000000</ele>
				<time>2026-08-17T03:05:41Z</time>
			</trkpt>
			<trkpt lat="30.235153" lon="120.105200">
				<speed>0.000000</speed>
				<ele>188.000000</ele>
				<time>2026-08-17T03:05:42Z</time>
			</trkpt>
			<trkpt lat="30.235148" lon="120.105195">
				<speed>0.000000</speed>
				<ele>188.000000</ele>
				<time>2026-08-17T03:05:43Z</time>
			</trkpt>
			<trkpt lat="30.235144" lon="120.105189">
				<speed>0.000000</speed>
				<ele>188.000000</ele>
				<time>2026-08-17T03:05:44Z</time>
			</trkpt>
			<trkpt lat="30.235131" lon="120.105174">
				<speed>0.000000</speed>
				<ele>189.000000</ele>
				<time>2026-08-17T03:05:45Z</time>
			</trkpt>
			<trkpt lat="30.235128" lon="120.105169">
				<speed>0.000000</speed>
				<ele>189.000000</ele>
				<time>2026-08-17T03:05:46Z</time>
			</trkpt>
			<trkpt lat="30.235124" lon="120.105163">
				<speed>0.000000</speed>
				<ele>189.000000</ele>
				<time>2026-08-17T03:05:47Z</time>
			</trkpt>
			<trkpt lat="30.235120" lon="120.105158">
				<speed>0.000000</speed>
				<ele>189.000000</ele>
				<time>2026-08-17T03:05:48Z</time>
			</trkpt>
			<trkpt lat="30.235111" lon="120.105141">
				<speed>0.000000</speed>
				<ele>190.000000</ele>
				<time>2026-08-17T03:05:49Z</time>
			</trkpt>
			<trkpt lat="30.235108" lon="120.105135">
				<speed>0.000000</speed>
				<ele>190.000000</ele>
				<time>2026-08-17T03:05:50Z</time>
			</trkpt>
			<trkpt lat="30.235105" lon="120.105128">
				<speed>0.000000</speed>
				<ele>190.000000</ele>
				<time>2026-08-17T03:05:51Z</time>
			</trkpt>
			<trkpt lat="30.235102" lon="120.105122">
				<speed>0.000000</speed>
				<ele>190.000000</ele>
				<time>2026-08-17T03:05:52Z</time>
			</trkpt>
			<trkpt lat="30.235092" lon="120.105105">
				<speed>0.000000</speed>
				<ele>191.000000</ele>
				<time>2026-08-17T03:05:53Z</time>
			</trkpt>
			<trkpt lat="30.235089" lon="120.105100">
				<speed>0.000000</speed>
				<ele>191.000000</ele>
				<time>2026-08-17T03:05:54Z</time>
			</trkpt>
			<trkpt lat="30.235086" lon="120.105095">
				<speed>0.000000</speed>
				<ele>191.000000</ele>
				<time>2026-08-17T03:05:55Z</time>
			</trkpt>
			<trkpt lat="30.235082" lon="120.105090">
				<speed>0.000000</speed>
				<ele>191.000000</ele>
				<time>2026-08-17T03:05:56Z</time>
			</trkpt>
			<trkpt lat="30.235073" lon="120.105076">
				<speed>0.000000</speed>
				<ele>192.000000</ele>
				<time>2026-08-17T03:05:57Z</time>
			</trkpt>
			<trkpt lat="30.235070" lon="120.105072">
				<speed>0.000000</speed>
				<ele>192.000000</ele>
				<time>2026-08-17T03:05:58Z</time>
			</trkpt>
			<trkpt lat="30.235068" lon="120.105068">
				<speed>0.000000</speed>
				<ele>192.000000</ele>
				<time>2026-08-17T03:05:59Z</time>
			</trkpt>
			<trkpt lat="30.235065" lon="120.105064">
				<speed>0.000000</speed>
				<ele>192.000000</ele>
				<time>2026-08-17T03:06:00Z</time>
			</trkpt>
			<trkpt lat="30.235055" lon="120.105054">
				<speed>0.000000</speed>
				<ele>193.000000</ele>
				<time>2026-08-17T03:06:01Z</time>
			</trkpt>
			<trkpt lat="30.235052" lon="120.105051">
				<speed>0.000000</speed>
				<ele>193.000000</ele>
				<time>2026-08-17T03:06:02Z</time>
			</trkpt>
			<trkpt lat="30.235048" lon="120.105048">
				<speed>0.000000</speed>
				<ele>193.000000</ele>
				<time>2026-08-17T03:06:03Z</time>
			</trkpt>
			<trkpt lat="30.235044" lon="120.105045">
				<speed>0.000000</speed>
				<ele>193.000000</ele>
				<time>2026-08-17T03:06:04Z</time>
			</trkpt>
			<trkpt lat="30.235031" lon="120.105037">
				<speed>0.000000</speed>
				<ele>193.000000</ele>
				<time>2026-08-17T03:06:05Z</time>
			</trkpt>
			<trkpt lat="30.235027" lon="120.105035">
				<speed>0.000000</speed>
				<ele>193.000000</ele>
				<time>2026-08-17T03:06:06Z</time>
			</trkpt>
			<trkpt lat="30.235023" lon="120.105032">
				<speed>0.000000</speed>
				<ele>193.000000</ele>
				<time>2026-08-17T03:06:07Z</time>
			</trkpt>
			<trkpt lat="30.235019" lon="120.105030">
				<speed>0.000000</speed>
				<ele>193.000000</ele>
				<time>2026-08-17T03:06:08Z</time>
			</trkpt>
			<trkpt lat="30.235014" lon="120.105028">
				<speed>0.000000</speed>
				<ele>194.000000</ele>
				<time>2026-08-17T03:06:09Z</time>
			</trkpt>
			<trkpt lat="30.235010" lon="120.105027">
				<speed>0.000000</speed>
				<ele>194.000000</ele>
				<time>2026-08-17T03:06:10Z</time>
			</trkpt>
			<trkpt lat="30.235005" lon="120.105025">
				<speed>0.000000</speed>
				<ele>194.000000</ele>
				<time>2026-08-17T03:06:11Z</time>
			</trkpt>
			<trkpt lat="30.234993" lon="120.105023">
				<speed>0.000000</speed>
				<ele>194.000000</ele>
				<time>2026-08-17T03:06:12Z</time>
			</trkpt>
			<trkpt lat="30.234990" lon="120.105023">
				<speed>0.000000</speed>
				<ele>195.000000</ele>
				<time>2026-08-17T03:06:13Z</time>
			</trkpt>
			<trkpt lat="30.234986" lon="120.105022">
				<speed>0.000000</speed>
				<ele>195.000000</ele>
				<time>2026-08-17T03:06:14Z</time>
			</trkpt>
			<trkpt lat="30.234983" lon="120.105022">
				<speed>0.000000</speed>
				<ele>195.000000</ele>
				<time>2026-08-17T03:06:15Z</time>
			</trkpt>
			<trkpt lat="30.234980" lon="120.105022">
				<speed>0.000000</speed>
				<ele>195.000000</ele>
				<time>2026-08-17T03:06:16Z</time>
			</trkpt>
			<trkpt lat="30.234968" lon="120.105018">
				<speed>0.000000</speed>
				<ele>196.000000</ele>
				<time>2026-08-17T03:06:17Z</time>
			</trkpt>
			<trkpt lat="30.234951" lon="120.105013">
				<speed>0.000000</speed>
				<ele>199.000000</ele>
				<time>2026-08-17T03:06:28Z</time>
			</trkpt>
			<trkpt lat="30.234929" lon="120.105006">
				<speed>0.000000</speed>
				<ele>200.000000</ele>
				<time>2026-08-17T03:06:29Z</time>
			</trkpt>
			<trkpt lat="30.234924" lon="120.105006">
				<speed>0.000000</speed>
				<ele>200.000000</ele>
				<time>2026-08-17T03:06:30Z</time>
			</trkpt>
			<trkpt lat="30.234920" lon="120.105005">
				<speed>0.000000</speed>
				<ele>200.000000</ele>
				<time>2026-08-17T03:06:31Z</time>
			</trkpt>
			<trkpt lat="30.234915" lon="120.105004">
				<speed>0.000000</speed>
				<ele>200.000000</ele>
				<time>2026-08-17T03:06:32Z</time>
			</trkpt>
			<trkpt lat="30.234910" lon="120.105003">
				<speed>0.000000</speed>
				<ele>201.000000</ele>
				<time>2026-08-17T03:06:33Z</time>
			</trkpt>
			<trkpt lat="30.234906" lon="120.105003">
				<speed>0.000000</speed>
				<ele>201.000000</ele>
				<time>2026-08-17T03:06:34Z</time>
			</trkpt>
			<trkpt lat="30.234901" lon="120.105002">
				<speed>0.000000</speed>
				<ele>201.000000</ele>
				<time>2026-08-17T03:06:35Z</time>
			</trkpt>
			<trkpt lat="30.234889" lon="120.104999">
				<speed>0.000000</speed>
				<ele>201.000000</ele>
				<time>2026-08-17T03:06:36Z</time>
			</trkpt>
			<trkpt lat="30.234886" lon="120.104998">
				<speed>0.000000</speed>
				<ele>202.000000</ele>
				<time>2026-08-17T03:06:37Z</time>
			</trkpt>
			<trkpt lat="30.234884" lon="120.104997">
				<speed>0.000000</speed>
				<ele>202.000000</ele>
				<time>2026-08-17T03:06:38Z</time>
			</trkpt>
			<trkpt lat="30.234882" lon="120.104996">
				<speed>0.000000</speed>
				<ele>202.000000</ele>
				<time>2026-08-17T03:06:39Z</time>
			</trkpt>
			<trkpt lat="30.234869" lon="120.104991">
				<speed>0.000000</speed>
				<ele>202.000000</ele>
				<time>2026-08-17T03:06:40Z</time>
			</trkpt>
			<trkpt lat="30.234866" lon="120.104989">
				<speed>0.000000</speed>
				<ele>203.000000</ele>
				<time>2026-08-17T03:06:41Z</time>
			</trkpt>
			<trkpt lat="30.234863" lon="120.104987">
				<speed>0.000000</speed>
				<ele>203.000000</ele>
				<time>2026-08-17T03:06:42Z</time>
			</trkpt>
			<trkpt lat="30.234860" lon="120.104985">
				<speed>0.000000</speed>
				<ele>203.000000</ele>
				<time>2026-08-17T03:06:43Z</time>
			</trkpt>
			<trkpt lat="30.234857" lon="120.104983">
				<speed>0.000000</speed>
				<ele>203.000000</ele>
				<time>2026-08-17T03:06:44Z</time>
			</trkpt>
			<trkpt lat="30.234845" lon="120.104977">
				<speed>0.000000</speed>
				<ele>204.000000</ele>
				<time>2026-08-17T03:06:45Z</time>
			</trkpt>
			<trkpt lat="30.234841" lon="120.104976">
				<speed>0.000000</speed>
				<ele>204.000000</ele>
				<time>2026-08-17T03:06:46Z</time>
			</trkpt>
			<trkpt lat="30.234838" lon="120.104974">
				<speed>0.000000</speed>
				<ele>204.000000</ele>
				<time>2026-08-17T03:06:47Z</time>
			</trkpt>
			<trkpt lat="30.234834" lon="120.104972">
				<speed>0.000000</speed>
				<ele>204.000000</ele>
				<time>2026-08-17T03:06:48Z</time>
			</trkpt>
			<trkpt lat="30.234823" lon="120.104969">
				<speed>0.000000</speed>
				<ele>205.000000</ele>
				<time>2026-08-17T03:06:49Z</time>
			</trkpt>
			<trkpt lat="30.234820" lon="120.104967">
				<speed>0.000000</speed>
				<ele>205.000000</ele>
				<time>2026-08-17T03:06:50Z</time>
			</trkpt>
			<trkpt lat="30.234816" lon="120.104966">
				<speed>0.000000</speed>
				<ele>205.000000</ele>
				<time>2026-08-17T03:06:51Z</time>
			</trkpt>
			<trkpt lat="30.234813" lon="120.104965">
				<speed>0.000000</speed>
				<ele>205.000000</ele>
				<time>2026-08-17T03:06:52Z</time>
			</trkpt>
			<trkpt lat="30.234810" lon="120.104963">
				<speed>0.000000</speed>
				<ele>206.000000</ele>
				<time>2026-08-17T03:06:53Z</time>
			</trkpt>
			<trkpt lat="30.234806" lon="120.104961">
				<speed>0.000000</speed>
				<ele>206.000000</ele>
				<time>2026-08-17T03:06:54Z</time>
			</trkpt>
			<trkpt lat="30.234803" lon="120.104959">
				<speed>0.000000</speed>
				<ele>206.000000</ele>
				<time>2026-08-17T03:06:55Z</time>
			</trkpt>
			<trkpt lat="30.234800" lon="120.104958">
				<speed>0.000000</speed>
				<ele>206.000000</ele>
				<time>2026-08-17T03:06:56Z</time>
			</trkpt>
			<trkpt lat="30.234798" lon="120.104957">
				<speed>0.000000</speed>
				<ele>207.000000</ele>
				<time>2026-08-17T03:06:57Z</time>
			</trkpt>
			<trkpt lat="30.234795" lon="120.104955">
				<speed>0.000000</speed>
				<ele>207.000000</ele>
				<time>2026-08-17T03:06:58Z</time>
			</trkpt>
			<trkpt lat="30.234782" lon="120.104951">
				<speed>0.000000</speed>
				<ele>207.000000</ele>
				<time>2026-08-17T03:06:59Z</time>
			</trkpt>
			<trkpt lat="30.234778" lon="120.104950">
				<speed>0.000000</speed>
				<ele>207.000000</ele>
				<time>2026-08-17T03:07:00Z</time>
			</trkpt>
			<trkpt lat="30.234774" lon="120.104950">
				<speed>0.000000</speed>
				<ele>208.000000</ele>
				<time>2026-08-17T03:07:01Z</time>
			</trkpt>
			<trkpt lat="30.234770" lon="120.104950">
				<speed>0.000000</speed>
				<ele>208.000000</ele>
				<time>2026-08-17T03:07:02Z</time>
			</trkpt>
			<trkpt lat="30.234753" lon="120.104948">
				<speed>0.000000</speed>
				<ele>210.000000</ele>
				<time>2026-08-17T03:07:11Z</time>
			</trkpt>
			<trkpt lat="30.234730" lon="120.104945">
				<speed>0.000000</speed>
				<ele>210.000000</ele>
				<time>2026-08-17T03:07:12Z</time>
			</trkpt>
			<trkpt lat="30.234725" lon="120.104944">
				<speed>0.000000</speed>
				<ele>211.000000</ele>
				<time>2026-08-17T03:07:13Z</time>
			</trkpt>
			<trkpt lat="30.234720" lon="120.104942">
				<speed>0.000000</speed>
				<ele>211.000000</ele>
				<time>2026-08-17T03:07:14Z</time>
			</trkpt>
			<trkpt lat="30.234715" lon="120.104941">
				<speed>0.000000</speed>
				<ele>211.000000</ele>
				<time>2026-08-17T03:07:15Z</time>
			</trkpt>
			<trkpt lat="30.234701" lon="120.104936">
				<speed>0.000000</speed>
				<ele>211.000000</ele>
				<time>2026-08-17T03:07:16Z</time>
			</trkpt>
			<trkpt lat="30.234697" lon="120.104935">
				<speed>0.000000</speed>
				<ele>212.000000</ele>
				<time>2026-08-17T03:07:17Z</time>
			</trkpt>
			<trkpt lat="30.234693" lon="120.104933">
				<speed>0.000000</speed>
				<ele>212.000000</ele>
				<time>2026-08-17T03:07:18Z</time>
			</trkpt>
			<trkpt lat="30.234689" lon="120.104931">
				<speed>0.000000</speed>
				<ele>212.000000</ele>
				<time>2026-08-17T03:07:19Z</time>
			</trkpt>
			<trkpt lat="30.234677" lon="120.104927">
				<speed>0.000000</speed>
				<ele>212.000000</ele>
				<time>2026-08-17T03:07:20Z</time>
			</trkpt>
			<trkpt lat="30.234673" lon="120.104925">
				<speed>0.000000</speed>
				<ele>213.000000</ele>
				<time>2026-08-17T03:07:21Z</time>
			</trkpt>
			<trkpt lat="30.234669" lon="120.104923">
				<speed>0.000000</speed>
				<ele>213.000000</ele>
				<time>2026-08-17T03:07:22Z</time>
			</trkpt>
			<trkpt lat="30.234665" lon="120.104922">
				<speed>0.000000</speed>
				<ele>213.000000</ele>
				<time>2026-08-17T03:07:23Z</time>
			</trkpt>
			<trkpt lat="30.234653" lon="120.104915">
				<speed>0.000000</speed>
				<ele>213.000000</ele>
				<time>2026-08-17T03:07:24Z</time>
			</trkpt>
			<trkpt lat="30.234650" lon="120.104914">
				<speed>0.000000</speed>
				<ele>213.000000</ele>
				<time>2026-08-17T03:07:25Z</time>
			</trkpt>
			<trkpt lat="30.234646" lon="120.104912">
				<speed>0.000000</speed>
				<ele>213.000000</ele>
				<time>2026-08-17T03:07:26Z</time>
			</trkpt>
			<trkpt lat="30.234642" lon="120.104911">
				<speed>0.000000</speed>
				<ele>213.000000</ele>
				<time>2026-08-17T03:07:27Z</time>
			</trkpt>
			<trkpt lat="30.234631" lon="120.104906">
				<speed>0.000000</speed>
				<ele>213.000000</ele>
				<time>2026-08-17T03:07:28Z</time>
			</trkpt>
			<trkpt lat="30.234627" lon="120.104904">
				<speed>0.000000</speed>
				<ele>214.000000</ele>
				<time>2026-08-17T03:07:29Z</time>
			</trkpt>
			<trkpt lat="30.234624" lon="120.104901">
				<speed>0.000000</speed>
				<ele>214.000000</ele>
				<time>2026-08-17T03:07:30Z</time>
			</trkpt>
			<trkpt lat="30.234621" lon="120.104899">
				<speed>0.000000</speed>
				<ele>214.000000</ele>
				<time>2026-08-17T03:07:31Z</time>
			</trkpt>
			<trkpt lat="30.234611" lon="120.104893">
				<speed>0.000000</speed>
				<ele>214.000000</ele>
				<time>2026-08-17T03:07:32Z</time>
			</trkpt>
			<trkpt lat="30.234607" lon="120.104891">
				<speed>0.000000</speed>
				<ele>215.000000</ele>
				<time>2026-08-17T03:07:33Z</time>
			</trkpt>
			<trkpt lat="30.234603" lon="120.104889">
				<speed>0.000000</speed>
				<ele>215.000000</ele>
				<time>2026-08-17T03:07:34Z</time>
			</trkpt>
			<trkpt lat="30.234600" lon="120.104887">
				<speed>0.000000</speed>
				<ele>215.000000</ele>
				<time>2026-08-17T03:07:35Z</time>
			</trkpt>
			<trkpt lat="30.234588" lon="120.104878">
				<speed>0.000000</speed>
				<ele>215.000000</ele>
				<time>2026-08-17T03:07:36Z</time>
			</trkpt>
			<trkpt lat="30.234583" lon="120.104875">
				<speed>0.000000</speed>
				<ele>216.000000</ele>
				<time>2026-08-17T03:07:37Z</time>
			</trkpt>
			<trkpt lat="30.234579" lon="120.104872">
				<speed>0.000000</speed>
				<ele>216.000000</ele>
				<time>2026-08-17T03:07:38Z</time>
			</trkpt>
			<trkpt lat="30.234575" lon="120.104869">
				<speed>0.000000</speed>
				<ele>216.000000</ele>
				<time>2026-08-17T03:07:39Z</time>
			</trkpt>
			<trkpt lat="30.234562" lon="120.104859">
				<speed>0.000000</speed>
				<ele>216.000000</ele>
				<time>2026-08-17T03:07:40Z</time>
			</trkpt>
			<trkpt lat="30.234558" lon="120.104855">
				<speed>0.000000</speed>
				<ele>217.000000</ele>
				<time>2026-08-17T03:07:41Z</time>
			</trkpt>
			<trkpt lat="30.234554" lon="120.104852">
				<speed>0.000000</speed>
				<ele>217.000000</ele>
				<time>2026-08-17T03:07:42Z</time>
			</trkpt>
			<trkpt lat="30.234550" lon="120.104849">
				<speed>0.000000</speed>
				<ele>217.000000</ele>
				<time>2026-08-17T03:07:43Z</time>
			</trkpt>
			<trkpt lat="30.234539" lon="120.104840">
				<speed>0.000000</speed>
				<ele>217.000000</ele>
				<time>2026-08-17T03:07:44Z</time>
			</trkpt>
			<trkpt lat="30.234536" lon="120.104837">
				<speed>0.000000</speed>
				<ele>218.000000</ele>
				<time>2026-08-17T03:07:45Z</time>
			</trkpt>
			<trkpt lat="30.234533" lon="120.104835">
				<speed>0.000000</speed>
				<ele>218.000000</ele>
				<time>2026-08-17T03:07:46Z</time>
			</trkpt>
			<trkpt lat="30.234529" lon="120.104832">
				<speed>0.000000</speed>
				<ele>218.000000</ele>
				<time>2026-08-17T03:07:47Z</time>
			</trkpt>
			<trkpt lat="30.234520" lon="120.104823">
				<speed>0.000000</speed>
				<ele>218.000000</ele>
				<time>2026-08-17T03:07:48Z</time>
			</trkpt>
			<trkpt lat="30.234517" lon="120.104820">
				<speed>0.000000</speed>
				<ele>219.000000</ele>
				<time>2026-08-17T03:07:49Z</time>
			</trkpt>
			<trkpt lat="30.234514" lon="120.104816">
				<speed>0.000000</speed>
				<ele>219.000000</ele>
				<time>2026-08-17T03:07:50Z</time>
			</trkpt>
			<trkpt lat="30.234511" lon="120.104813">
				<speed>0.000000</speed>
				<ele>219.000000</ele>
				<time>2026-08-17T03:07:51Z</time>
			</trkpt>
			<trkpt lat="30.234500" lon="120.104802">
				<speed>0.000000</speed>
				<ele>219.000000</ele>
				<time>2026-08-17T03:07:52Z</time>
			</trkpt>
			<trkpt lat="30.234496" lon="120.104798">
				<speed>0.000000</speed>
				<ele>219.000000</ele>
				<time>2026-08-17T03:07:53Z</time>
			</trkpt>
			<trkpt lat="30.234493" lon="120.104794">
				<speed>0.000000</speed>
				<ele>219.000000</ele>
				<time>2026-08-17T03:07:54Z</time>
			</trkpt>
			<trkpt lat="30.234489" lon="120.104790">
				<speed>0.000000</speed>
				<ele>219.000000</ele>
				<time>2026-08-17T03:07:55Z</time>
			</trkpt>
			<trkpt lat="30.234479" lon="120.104778">
				<speed>0.000000</speed>
				<ele>219.000000</ele>
				<time>2026-08-17T03:07:56Z</time>
			</trkpt>
			<trkpt lat="30.234477" lon="120.104775">
				<speed>0.000000</speed>
				<ele>220.000000</ele>
				<time>2026-08-17T03:07:57Z</time>
			</trkpt>
			<trkpt lat="30.234474" lon="120.104772">
				<speed>0.000000</speed>
				<ele>220.000000</ele>
				<time>2026-08-17T03:07:58Z</time>
			</trkpt>
			<trkpt lat="30.234472" lon="120.104769">
				<speed>0.000000</speed>
				<ele>220.000000</ele>
				<time>2026-08-17T03:07:59Z</time>
			</trkpt>
			<trkpt lat="30.234469" lon="120.104765">
				<speed>0.000000</speed>
				<ele>220.000000</ele>
				<time>2026-08-17T03:08:00Z</time>
			</trkpt>
			<trkpt lat="30.234460" lon="120.104753">
				<speed>0.000000</speed>
				<ele>221.000000</ele>
				<time>2026-08-17T03:08:01Z</time>
			</trkpt>
			<trkpt lat="30.234457" lon="120.104750">
				<speed>0.000000</speed>
				<ele>221.000000</ele>
				<time>2026-08-17T03:08:02Z</time>
			</trkpt>
			<trkpt lat="30.234454" lon="120.104746">
				<speed>0.000000</speed>
				<ele>221.000000</ele>
				<time>2026-08-17T03:08:03Z</time>
			</trkpt>
			<trkpt lat="30.234451" lon="120.104742">
				<speed>0.000000</speed>
				<ele>221.000000</ele>
				<time>2026-08-17T03:08:04Z</time>
			</trkpt>
			<trkpt lat="30.234441" lon="120.104732">
				<speed>0.000000</speed>
				<ele>221.000000</ele>
				<time>2026-08-17T03:08:05Z</time>
			</trkpt>
			<trkpt lat="30.234438" lon="120.104729">
				<speed>0.000000</speed>
				<ele>221.000000</ele>
				<time>2026-08-17T03:08:06Z</time>
			</trkpt>
			<trkpt lat="30.234435" lon="120.104726">
				<speed>0.000000</speed>
				<ele>221.000000</ele>
				<time>2026-08-17T03:08:07Z</time>
			</trkpt>
			<trkpt lat="30.234432" lon="120.104722">
				<speed>0.000000</speed>
				<ele>221.000000</ele>
				<time>2026-08-17T03:08:08Z</time>
			</trkpt>
			<trkpt lat="30.234423" lon="120.104713">
				<speed>0.000000</speed>
				<ele>222.000000</ele>
				<time>2026-08-17T03:08:09Z</time>
			</trkpt>
			<trkpt lat="30.234406" lon="120.104698">
				<speed>0.000000</speed>
				<ele>225.000000</ele>
				<time>2026-08-17T03:08:39Z</time>
			</trkpt>
			<trkpt lat="30.234392" lon="120.104681">
				<speed>0.000000</speed>
				<ele>225.000000</ele>
				<time>2026-08-17T03:08:50Z</time>
			</trkpt>
			<trkpt lat="30.234375" lon="120.104658">
				<speed>0.000000</speed>
				<ele>225.000000</ele>
				<time>2026-08-17T03:08:51Z</time>
			</trkpt>
			<trkpt lat="30.234371" lon="120.104653">
				<speed>0.000000</speed>
				<ele>225.000000</ele>
				<time>2026-08-17T03:08:52Z</time>
			</trkpt>
			<trkpt lat="30.234367" lon="120.104648">
				<speed>0.000000</speed>
				<ele>225.000000</ele>
				<time>2026-08-17T03:08:53Z</time>
			</trkpt>
			<trkpt lat="30.234363" lon="120.104643">
				<speed>0.000000</speed>
				<ele>225.000000</ele>
				<time>2026-08-17T03:08:54Z</time>
			</trkpt>
			<trkpt lat="30.234351" lon="120.104630">
				<speed>0.000000</speed>
				<ele>225.000000</ele>
				<time>2026-08-17T03:08:55Z</time>
			</trkpt>
			<trkpt lat="30.234347" lon="120.104626">
				<speed>0.000000</speed>
				<ele>225.000000</ele>
				<time>2026-08-17T03:08:56Z</time>
			</trkpt>
			<trkpt lat="30.234343" lon="120.104622">
				<speed>0.000000</speed>
				<ele>225.000000</ele>
				<time>2026-08-17T03:08:57Z</time>
			</trkpt>
			<trkpt lat="30.234339" lon="120.104618">
				<speed>0.000000</speed>
				<ele>225.000000</ele>
				<time>2026-08-17T03:08:58Z</time>
			</trkpt>
			<trkpt lat="30.234327" lon="120.104607">
				<speed>0.000000</speed>
				<ele>225.000000</ele>
				<time>2026-08-17T03:08:59Z</time>
			</trkpt>
			<trkpt lat="30.234323" lon="120.104604">
				<speed>0.000000</speed>
				<ele>225.000000</ele>
				<time>2026-08-17T03:09:00Z</time>
			</trkpt>
			<trkpt lat="30.234319" lon="120.104600">
				<speed>0.000000</speed>
				<ele>226.000000</ele>
				<time>2026-08-17T03:09:01Z</time>
			</trkpt>
			<trkpt lat="30.234315" lon="120.104597">
				<speed>0.000000</speed>
				<ele>226.000000</ele>
				<time>2026-08-17T03:09:02Z</time>
			</trkpt>
			<trkpt lat="30.234301" lon="120.104588">
				<speed>0.000000</speed>
				<ele>226.000000</ele>
				<time>2026-08-17T03:09:03Z</time>
			</trkpt>
			<trkpt lat="30.234296" lon="120.104585">
				<speed>0.000000</speed>
				<ele>226.000000</ele>
				<time>2026-08-17T03:09:04Z</time>
			</trkpt>
			<trkpt lat="30.234292" lon="120.104582">
				<speed>0.000000</speed>
				<ele>226.000000</ele>
				<time>2026-08-17T03:09:05Z</time>
			</trkpt>
			<trkpt lat="30.234287" lon="120.104579">
				<speed>0.000000</speed>
				<ele>226.000000</ele>
				<time>2026-08-17T03:09:06Z</time>
			</trkpt>
			<trkpt lat="30.234275" lon="120.104570">
				<speed>0.000000</speed>
				<ele>226.000000</ele>
				<time>2026-08-17T03:09:07Z</time>
			</trkpt>
			<trkpt lat="30.234271" lon="120.104567">
				<speed>0.000000</speed>
				<ele>226.000000</ele>
				<time>2026-08-17T03:09:08Z</time>
			</trkpt>
			<trkpt lat="30.234268" lon="120.104564">
				<speed>0.000000</speed>
				<ele>226.000000</ele>
				<time>2026-08-17T03:09:09Z</time>
			</trkpt>
			<trkpt lat="30.234264" lon="120.104562">
				<speed>0.000000</speed>
				<ele>226.000000</ele>
				<time>2026-08-17T03:09:10Z</time>
			</trkpt>
			<trkpt lat="30.234252" lon="120.104554">
				<speed>0.000000</speed>
				<ele>226.000000</ele>
				<time>2026-08-17T03:09:11Z</time>
			</trkpt>
			<trkpt lat="30.234248" lon="120.104552">
				<speed>0.000000</speed>
				<ele>226.000000</ele>
				<time>2026-08-17T03:09:12Z</time>
			</trkpt>
			<trkpt lat="30.234244" lon="120.104550">
				<speed>0.000000</speed>
				<ele>227.000000</ele>
				<time>2026-08-17T03:09:13Z</time>
			</trkpt>
			<trkpt lat="30.234240" lon="120.104548">
				<speed>0.000000</speed>
				<ele>227.000000</ele>
				<time>2026-08-17T03:09:14Z</time>
			</trkpt>
			<trkpt lat="30.234227" lon="120.104542">
				<speed>0.000000</speed>
				<ele>227.000000</ele>
				<time>2026-08-17T03:09:15Z</time>
			</trkpt>
			<trkpt lat="30.234223" lon="120.104539">
				<speed>0.000000</speed>
				<ele>227.000000</ele>
				<time>2026-08-17T03:09:16Z</time>
			</trkpt>
			<trkpt lat="30.234218" lon="120.104537">
				<speed>0.000000</speed>
				<ele>228.000000</ele>
				<time>2026-08-17T03:09:17Z</time>
			</trkpt>
			<trkpt lat="30.234214" lon="120.104535">
				<speed>0.000000</speed>
				<ele>228.000000</ele>
				<time>2026-08-17T03:09:18Z</time>
			</trkpt>
			<trkpt lat="30.234200" lon="120.104528">
				<speed>0.000000</speed>
				<ele>228.000000</ele>
				<time>2026-08-17T03:09:19Z</time>
			</trkpt>
			<trkpt lat="30.234196" lon="120.104526">
				<speed>0.000000</speed>
				<ele>228.000000</ele>
				<time>2026-08-17T03:09:20Z</time>
			</trkpt>
			<trkpt lat="30.234192" lon="120.104524">
				<speed>0.000000</speed>
				<ele>228.000000</ele>
				<time>2026-08-17T03:09:21Z</time>
			</trkpt>
			<trkpt lat="30.234188" lon="120.104522">
				<speed>0.000000</speed>
				<ele>228.000000</ele>
				<time>2026-08-17T03:09:22Z</time>
			</trkpt>
			<trkpt lat="30.234185" lon="120.104520">
				<speed>0.000000</speed>
				<ele>228.000000</ele>
				<time>2026-08-17T03:09:23Z</time>
			</trkpt>
			<trkpt lat="30.234182" lon="120.104518">
				<speed>0.000000</speed>
				<ele>228.000000</ele>
				<time>2026-08-17T03:09:24Z</time>
			</trkpt>
			<trkpt lat="30.234179" lon="120.104516">
				<speed>0.000000</speed>
				<ele>229.000000</ele>
				<time>2026-08-17T03:09:25Z</time>
			</trkpt>
			<trkpt lat="30.234175" lon="120.104514">
				<speed>0.000000</speed>
				<ele>229.000000</ele>
				<time>2026-08-17T03:09:26Z</time>
			</trkpt>
			<trkpt lat="30.234172" lon="120.104512">
				<speed>0.000000</speed>
				<ele>229.000000</ele>
				<time>2026-08-17T03:09:27Z</time>
			</trkpt>
			<trkpt lat="30.234156" lon="120.104503">
				<speed>0.000000</speed>
				<ele>229.000000</ele>
				<time>2026-08-17T03:09:28Z</time>
			</trkpt>
			<trkpt lat="30.234152" lon="120.104501">
				<speed>0.000000</speed>
				<ele>230.000000</ele>
				<time>2026-08-17T03:09:29Z</time>
			</trkpt>
			<trkpt lat="30.234148" lon="120.104498">
				<speed>0.000000</speed>
				<ele>230.000000</ele>
				<time>2026-08-17T03:09:30Z</time>
			</trkpt>
			<trkpt lat="30.234143" lon="120.104496">
				<speed>0.000000</speed>
				<ele>230.000000</ele>
				<time>2026-08-17T03:09:31Z</time>
			</trkpt>
			<trkpt lat="30.234132" lon="120.104487">
				<speed>0.000000</speed>
				<ele>230.000000</ele>
				<time>2026-08-17T03:09:32Z</time>
			</trkpt>
			<trkpt lat="30.234127" lon="120.104484">
				<speed>0.000000</speed>
				<ele>230.000000</ele>
				<time>2026-08-17T03:09:33Z</time>
			</trkpt>
			<trkpt lat="30.234123" lon="120.104480">
				<speed>0.000000</speed>
				<ele>230.000000</ele>
				<time>2026-08-17T03:09:34Z</time>
			</trkpt>
			<trkpt lat="30.234118" lon="120.104477">
				<speed>0.000000</speed>
				<ele>231.000000</ele>
				<time>2026-08-17T03:09:35Z</time>
			</trkpt>
			<trkpt lat="30.234104" lon="120.104465">
				<speed>0.000000</speed>
				<ele>231.000000</ele>
				<time>2026-08-17T03:09:36Z</time>
			</trkpt>
			<trkpt lat="30.234099" lon="120.104461">
				<speed>0.000000</speed>
				<ele>232.000000</ele>
				<time>2026-08-17T03:09:37Z</time>
			</trkpt>
			<trkpt lat="30.234095" lon="120.104457">
				<speed>0.000000</speed>
				<ele>232.000000</ele>
				<time>2026-08-17T03:09:38Z</time>
			</trkpt>
			<trkpt lat="30.234091" lon="120.104453">
				<speed>0.000000</speed>
				<ele>232.000000</ele>
				<time>2026-08-17T03:09:39Z</time>
			</trkpt>
			<trkpt lat="30.234078" lon="120.104442">
				<speed>0.000000</speed>
				<ele>232.000000</ele>
				<time>2026-08-17T03:09:40Z</time>
			</trkpt>
			<trkpt lat="30.234074" lon="120.104438">
				<speed>0.000000</speed>
				<ele>233.000000</ele>
				<time>2026-08-17T03:09:41Z</time>
			</trkpt>
			<trkpt lat="30.234070" lon="120.104434">
				<speed>0.000000</speed>
				<ele>233.000000</ele>
				<time>2026-08-17T03:09:42Z</time>
			</trkpt>
			<trkpt lat="30.234065" lon="120.104430">
				<speed>0.000000</speed>
				<ele>233.000000</ele>
				<time>2026-08-17T03:09:43Z</time>
			</trkpt>
			<trkpt lat="30.234052" lon="120.104418">
				<speed>0.000000</speed>
				<ele>233.000000</ele>
				<time>2026-08-17T03:09:44Z</time>
			</trkpt>
			<trkpt lat="30.234047" lon="120.104414">
				<speed>0.000000</speed>
				<ele>234.000000</ele>
				<time>2026-08-17T03:09:45Z</time>
			</trkpt>
			<trkpt lat="30.234042" lon="120.104409">
				<speed>0.000000</speed>
				<ele>234.000000</ele>
				<time>2026-08-17T03:09:46Z</time>
			</trkpt>
			<trkpt lat="30.234037" lon="120.104405">
				<speed>0.000000</speed>
				<ele>234.000000</ele>
				<time>2026-08-17T03:09:47Z</time>
			</trkpt>
			<trkpt lat="30.234023" lon="120.104394">
				<speed>0.000000</speed>
				<ele>234.000000</ele>
				<time>2026-08-17T03:09:48Z</time>
			</trkpt>
			<trkpt lat="30.234018" lon="120.104391">
				<speed>0.000000</speed>
				<ele>235.000000</ele>
				<time>2026-08-17T03:09:49Z</time>
			</trkpt>
			<trkpt lat="30.234013" lon="120.104387">
				<speed>0.000000</speed>
				<ele>235.000000</ele>
				<time>2026-08-17T03:09:50Z</time>
			</trkpt>
			<trkpt lat="30.234008" lon="120.104384">
				<speed>0.000000</speed>
				<ele>235.000000</ele>
				<time>2026-08-17T03:09:51Z</time>
			</trkpt>
			<trkpt lat="30.233993" lon="120.104376">
				<speed>0.000000</speed>
				<ele>235.000000</ele>
				<time>2026-08-17T03:09:52Z</time>
			</trkpt>
			<trkpt lat="30.233989" lon="120.104375">
				<speed>0.000000</speed>
				<ele>236.000000</ele>
				<time>2026-08-17T03:09:53Z</time>
			</trkpt>
			<trkpt lat="30.233984" lon="120.104373">
				<speed>0.000000</speed>
				<ele>236.000000</ele>
				<time>2026-08-17T03:09:54Z</time>
			</trkpt>
			<trkpt lat="30.233979" lon="120.104371">
				<speed>0.000000</speed>
				<ele>236.000000</ele>
				<time>2026-08-17T03:09:55Z</time>
			</trkpt>
			<trkpt lat="30.233967" lon="120.104369">
				<speed>0.000000</speed>
				<ele>236.000000</ele>
				<time>2026-08-17T03:09:56Z</time>
			</trkpt>
			<trkpt lat="30.233964" lon="120.104369">
				<speed>0.000000</speed>
				<ele>237.000000</ele>
				<time>2026-08-17T03:09:57Z</time>
			</trkpt>
			<trkpt lat="30.233961" lon="120.104369">
				<speed>0.000000</speed>
				<ele>237.000000</ele>
				<time>2026-08-17T03:09:58Z</time>
			</trkpt>
			<trkpt lat="30.233958" lon="120.104369">
				<speed>0.000000</speed>
				<ele>237.000000</ele>
				<time>2026-08-17T03:09:59Z</time>
			</trkpt>
			<trkpt lat="30.233955" lon="120.104369">
				<speed>0.000000</speed>
				<ele>237.000000</ele>
				<time>2026-08-17T03:10:00Z</time>
			</trkpt>
			<trkpt lat="30.233945" lon="120.104372">
				<speed>0.000000</speed>
				<ele>238.000000</ele>
				<time>2026-08-17T03:10:01Z</time>
			</trkpt>
			<trkpt lat="30.233941" lon="120.104374">
				<speed>0.000000</speed>
				<ele>238.000000</ele>
				<time>2026-08-17T03:10:02Z</time>
			</trkpt>
			<trkpt lat="30.233938" lon="120.104375">
				<speed>0.000000</speed>
				<ele>238.000000</ele>
				<time>2026-08-17T03:10:03Z</time>
			</trkpt>
			<trkpt lat="30.233936" lon="120.104377">
				<speed>0.000000</speed>
				<ele>238.000000</ele>
				<time>2026-08-17T03:10:04Z</time>
			</trkpt>
			<trkpt lat="30.233927" lon="120.104382">
				<speed>0.000000</speed>
				<ele>239.000000</ele>
				<time>2026-08-17T03:10:05Z</time>
			</trkpt>
			<trkpt lat="30.233923" lon="120.104383">
				<speed>0.000000</speed>
				<ele>239.000000</ele>
				<time>2026-08-17T03:10:06Z</time>
			</trkpt>
			<trkpt lat="30.233919" lon="120.104384">
				<speed>0.000000</speed>
				<ele>239.000000</ele>
				<time>2026-08-17T03:10:07Z</time>
			</trkpt>
			<trkpt lat="30.233916" lon="120.104385">
				<speed>0.000000</speed>
				<ele>239.000000</ele>
				<time>2026-08-17T03:10:08Z</time>
			</trkpt>
			<trkpt lat="30.233902" lon="120.104386">
				<speed>0.000000</speed>
				<ele>240.000000</ele>
				<time>2026-08-17T03:10:09Z</time>
			</trkpt>
			<trkpt lat="30.233898" lon="120.104386">
				<speed>0.000000</speed>
				<ele>240.000000</ele>
				<time>2026-08-17T03:10:10Z</time>
			</trkpt>
			<trkpt lat="30.233893" lon="120.104387">
				<speed>0.000000</speed>
				<ele>240.000000</ele>
				<time>2026-08-17T03:10:11Z</time>
			</trkpt>
			<trkpt lat="30.233889" lon="120.104387">
				<speed>0.000000</speed>
				<ele>240.000000</ele>
				<time>2026-08-17T03:10:12Z</time>
			</trkpt>
			<trkpt lat="30.233874" lon="120.104387">
				<speed>0.000000</speed>
				<ele>241.000000</ele>
				<time>2026-08-17T03:10:13Z</time>
			</trkpt>
			<trkpt lat="30.233869" lon="120.104386">
				<speed>0.000000</speed>
				<ele>241.000000</ele>
				<time>2026-08-17T03:10:14Z</time>
			</trkpt>
			<trkpt lat="30.233864" lon="120.104386">
				<speed>0.000000</speed>
				<ele>241.000000</ele>
				<time>2026-08-17T03:10:15Z</time>
			</trkpt>
			<trkpt lat="30.233859" lon="120.104385">
				<speed>0.000000</speed>
				<ele>241.000000</ele>
				<time>2026-08-17T03:10:16Z</time>
			</trkpt>
			<trkpt lat="30.233841" lon="120.104382">
				<speed>0.000000</speed>
				<ele>241.000000</ele>
				<time>2026-08-17T03:10:17Z</time>
			</trkpt>
			<trkpt lat="30.233836" lon="120.104382">
				<speed>0.000000</speed>
				<ele>241.000000</ele>
				<time>2026-08-17T03:10:18Z</time>
			</trkpt>
			<trkpt lat="30.233831" lon="120.104382">
				<speed>0.000000</speed>
				<ele>241.000000</ele>
				<time>2026-08-17T03:10:19Z</time>
			</trkpt>
			<trkpt lat="30.233825" lon="120.104381">
				<speed>0.000000</speed>
				<ele>241.000000</ele>
				<time>2026-08-17T03:10:20Z</time>
			</trkpt>
			<trkpt lat="30.233822" lon="120.104381">
				<speed>0.000000</speed>
				<ele>242.000000</ele>
				<time>2026-08-17T03:10:21Z</time>
			</trkpt>
			<trkpt lat="30.233820" lon="120.104382">
				<speed>0.000000</speed>
				<ele>242.000000</ele>
				<time>2026-08-17T03:10:22Z</time>
			</trkpt>
			<trkpt lat="30.233817" lon="120.104382">
				<speed>0.000000</speed>
				<ele>242.000000</ele>
				<time>2026-08-17T03:10:23Z</time>
			</trkpt>
			<trkpt lat="30.233815" lon="120.104382">
				<speed>0.000000</speed>
				<ele>242.000000</ele>
				<time>2026-08-17T03:10:24Z</time>
			</trkpt>
			<trkpt lat="30.233812" lon="120.104383">
				<speed>0.000000</speed>
				<ele>243.000000</ele>
				<time>2026-08-17T03:10:25Z</time>
			</trkpt>
			<trkpt lat="30.233795" lon="120.104385">
				<speed>0.000000</speed>
				<ele>243.000000</ele>
				<time>2026-08-17T03:10:26Z</time>
			</trkpt>
			<trkpt lat="30.233791" lon="120.104385">
				<speed>0.000000</speed>
				<ele>243.000000</ele>
				<time>2026-08-17T03:10:27Z</time>
			</trkpt>
			<trkpt lat="30.233787" lon="120.104386">
				<speed>0.000000</speed>
				<ele>243.000000</ele>
				<time>2026-08-17T03:10:28Z</time>
			</trkpt>
			<trkpt lat="30.233783" lon="120.104387">
				<speed>0.000000</speed>
				<ele>244.000000</ele>
				<time>2026-08-17T03:10:29Z</time>
			</trkpt>
			<trkpt lat="30.233770" lon="120.104389">
				<speed>0.000000</speed>
				<ele>244.000000</ele>
				<time>2026-08-17T03:10:30Z</time>
			</trkpt>
			<trkpt lat="30.233764" lon="120.104390">
				<speed>0.000000</speed>
				<ele>244.000000</ele>
				<time>2026-08-17T03:10:31Z</time>
			</trkpt>
			<trkpt lat="30.233759" lon="120.104391">
				<speed>0.000000</speed>
				<ele>244.000000</ele>
				<time>2026-08-17T03:10:32Z</time>
			</trkpt>
			<trkpt lat="30.233753" lon="120.104392">
				<speed>0.000000</speed>
				<ele>245.000000</ele>
				<time>2026-08-17T03:10:33Z</time>
			</trkpt>
			<trkpt lat="30.233736" lon="120.104394">
				<speed>0.000000</speed>
				<ele>245.000000</ele>
				<time>2026-08-17T03:10:34Z</time>
			</trkpt>
			<trkpt lat="30.233730" lon="120.104395">
				<speed>0.000000</speed>
				<ele>245.000000</ele>
				<time>2026-08-17T03:10:35Z</time>
			</trkpt>
			<trkpt lat="30.233724" lon="120.104395">
				<speed>0.000000</speed>
				<ele>245.000000</ele>
				<time>2026-08-17T03:10:36Z</time>
			</trkpt>
			<trkpt lat="30.233718" lon="120.104396">
				<speed>0.000000</speed>
				<ele>246.000000</ele>
				<time>2026-08-17T03:10:37Z</time>
			</trkpt>
			<trkpt lat="30.233699" lon="120.104398">
				<speed>0.000000</speed>
				<ele>246.000000</ele>
				<time>2026-08-17T03:10:38Z</time>
			</trkpt>
			<trkpt lat="30.233693" lon="120.104399">
				<speed>0.000000</speed>
				<ele>246.000000</ele>
				<time>2026-08-17T03:10:39Z</time>
			</trkpt>
			<trkpt lat="30.233687" lon="120.104399">
				<speed>0.000000</speed>
				<ele>246.000000</ele>
				<time>2026-08-17T03:10:40Z</time>
			</trkpt>
			<trkpt lat="30.233681" lon="120.104399">
				<speed>0.000000</speed>
				<ele>247.000000</ele>
				<time>2026-08-17T03:10:41Z</time>
			</trkpt>
			<trkpt lat="30.233664" lon="120.104399">
				<speed>0.000000</speed>
				<ele>247.000000</ele>
				<time>2026-08-17T03:10:42Z</time>
			</trkpt>
			<trkpt lat="30.233659" lon="120.104398">
				<speed>0.000000</speed>
				<ele>247.000000</ele>
				<time>2026-08-17T03:10:43Z</time>
			</trkpt>
			<trkpt lat="30.233653" lon="120.104398">
				<speed>0.000000</speed>
				<ele>247.000000</ele>
				<time>2026-08-17T03:10:44Z</time>
			</trkpt>
			<trkpt lat="30.233648" lon="120.104397">
				<speed>0.000000</speed>
				<ele>248.000000</ele>
				<time>2026-08-17T03:10:45Z</time>
			</trkpt>
			<trkpt lat="30.233639" lon="120.104396">
				<speed>0.000000</speed>
				<ele>248.000000</ele>
				<time>2026-08-17T03:10:46Z</time>
			</trkpt>
			<trkpt lat="30.233635" lon="120.104395">
				<speed>0.000000</speed>
				<ele>248.000000</ele>
				<time>2026-08-17T03:10:47Z</time>
			</trkpt>
			<trkpt lat="30.233630" lon="120.104394">
				<speed>0.000000</speed>
				<ele>248.000000</ele>
				<time>2026-08-17T03:10:48Z</time>
			</trkpt>
			<trkpt lat="30.233626" lon="120.104393">
				<speed>0.000000</speed>
				<ele>248.000000</ele>
				<time>2026-08-17T03:10:49Z</time>
			</trkpt>
			<trkpt lat="30.233615" lon="120.104390">
				<speed>0.000000</speed>
				<ele>248.000000</ele>
				<time>2026-08-17T03:10:50Z</time>
			</trkpt>
			<trkpt lat="30.233611" lon="120.104389">
				<speed>0.000000</speed>
				<ele>248.000000</ele>
				<time>2026-08-17T03:10:51Z</time>
			</trkpt>
			<trkpt lat="30.233608" lon="120.104387">
				<speed>0.000000</speed>
				<ele>248.000000</ele>
				<time>2026-08-17T03:10:52Z</time>
			</trkpt>
			<trkpt lat="30.233604" lon="120.104386">
				<speed>0.000000</speed>
				<ele>249.000000</ele>
				<time>2026-08-17T03:10:53Z</time>
			</trkpt>
			<trkpt lat="30.233593" lon="120.104381">
				<speed>0.000000</speed>
				<ele>249.000000</ele>
				<time>2026-08-17T03:10:54Z</time>
			</trkpt>
			<trkpt lat="30.233582" lon="120.104385">
				<speed>0.000000</speed>
				<ele>251.000000</ele>
				<time>2026-08-17T03:11:01Z</time>
			</trkpt>
			<trkpt lat="30.233575" lon="120.104397">
				<speed>0.000000</speed>
				<ele>251.000000</ele>
				<time>2026-08-17T03:11:02Z</time>
			</trkpt>
			<trkpt lat="30.233573" lon="120.104399">
				<speed>0.000000</speed>
				<ele>251.000000</ele>
				<time>2026-08-17T03:11:03Z</time>
			</trkpt>
			<trkpt lat="30.233571" lon="120.104401">
				<speed>0.000000</speed>
				<ele>251.000000</ele>
				<time>2026-08-17T03:11:04Z</time>
			</trkpt>
			<trkpt lat="30.233569" lon="120.104404">
				<speed>0.000000</speed>
				<ele>252.000000</ele>
				<time>2026-08-17T03:11:05Z</time>
			</trkpt>
			<trkpt lat="30.233567" lon="120.104406">
				<speed>0.000000</speed>
				<ele>252.000000</ele>
				<time>2026-08-17T03:11:06Z</time>
			</trkpt>
			<trkpt lat="30.233565" lon="120.104408">
				<speed>0.000000</speed>
				<ele>252.000000</ele>
				<time>2026-08-17T03:11:07Z</time>
			</trkpt>
			<trkpt lat="30.233552" lon="120.104411">
				<speed>0.000000</speed>
				<ele>252.000000</ele>
				<time>2026-08-17T03:11:08Z</time>
			</trkpt>
			<trkpt lat="30.233547" lon="120.104410">
				<speed>0.000000</speed>
				<ele>253.000000</ele>
				<time>2026-08-17T03:11:09Z</time>
			</trkpt>
			<trkpt lat="30.233543" lon="120.104410">
				<speed>0.000000</speed>
				<ele>253.000000</ele>
				<time>2026-08-17T03:11:10Z</time>
			</trkpt>
			<trkpt lat="30.233539" lon="120.104409">
				<speed>0.000000</speed>
				<ele>253.000000</ele>
				<time>2026-08-17T03:11:11Z</time>
			</trkpt>
			<trkpt lat="30.233525" lon="120.104406">
				<speed>0.000000</speed>
				<ele>253.000000</ele>
				<time>2026-08-17T03:11:12Z</time>
			</trkpt>
			<trkpt lat="30.233519" lon="120.104405">
				<speed>0.000000</speed>
				<ele>254.000000</ele>
				<time>2026-08-17T03:11:13Z</time>
			</trkpt>
			<trkpt lat="30.233514" lon="120.104403">
				<speed>0.000000</speed>
				<ele>254.000000</ele>
				<time>2026-08-17T03:11:14Z</time>
			</trkpt>
			<trkpt lat="30.233509" lon="120.104402">
				<speed>0.000000</speed>
				<ele>254.000000</ele>
				<time>2026-08-17T03:11:15Z</time>
			</trkpt>
			<trkpt lat="30.233493" lon="120.104398">
				<speed>0.000000</speed>
				<ele>254.000000</ele>
				<time>2026-08-17T03:11:16Z</time>
			</trkpt>
			<trkpt lat="30.233477" lon="120.104391">
				<speed>0.000000</speed>
				<ele>255.000000</ele>
				<time>2026-08-17T03:11:22Z</time>
			</trkpt>
			<trkpt lat="30.233463" lon="120.104385">
				<speed>0.000000</speed>
				<ele>255.000000</ele>
				<time>2026-08-17T03:11:23Z</time>
			</trkpt>
			<trkpt lat="30.233460" lon="120.104384">
				<speed>0.000000</speed>
				<ele>255.000000</ele>
				<time>2026-08-17T03:11:24Z</time>
			</trkpt>
			<trkpt lat="30.233456" lon="120.104384">
				<speed>0.000000</speed>
				<ele>256.000000</ele>
				<time>2026-08-17T03:11:25Z</time>
			</trkpt>
			<trkpt lat="30.233452" lon="120.104383">
				<speed>0.000000</speed>
				<ele>256.000000</ele>
				<time>2026-08-17T03:11:26Z</time>
			</trkpt>
			<trkpt lat="30.233440" lon="120.104382">
				<speed>0.000000</speed>
				<ele>256.000000</ele>
				<time>2026-08-17T03:11:27Z</time>
			</trkpt>
			<trkpt lat="30.233435" lon="120.104381">
				<speed>0.000000</speed>
				<ele>256.000000</ele>
				<time>2026-08-17T03:11:28Z</time>
			</trkpt>
			<trkpt lat="30.233431" lon="120.104380">
				<speed>0.000000</speed>
				<ele>257.000000</ele>
				<time>2026-08-17T03:11:29Z</time>
			</trkpt>
			<trkpt lat="30.233426" lon="120.104380">
				<speed>0.000000</speed>
				<ele>257.000000</ele>
				<time>2026-08-17T03:11:30Z</time>
			</trkpt>
			<trkpt lat="30.233410" lon="120.104379">
				<speed>0.000000</speed>
				<ele>257.000000</ele>
				<time>2026-08-17T03:11:31Z</time>
			</trkpt>
			<trkpt lat="30.233405" lon="120.104378">
				<speed>0.000000</speed>
				<ele>257.000000</ele>
				<time>2026-08-17T03:11:32Z</time>
			</trkpt>
			<trkpt lat="30.233400" lon="120.104378">
				<speed>0.000000</speed>
				<ele>258.000000</ele>
				<time>2026-08-17T03:11:33Z</time>
			</trkpt>
			<trkpt lat="30.233394" lon="120.104378">
				<speed>0.000000</speed>
				<ele>258.000000</ele>
				<time>2026-08-17T03:11:34Z</time>
			</trkpt>
			<trkpt lat="30.233379" lon="120.104375">
				<speed>0.000000</speed>
				<ele>258.000000</ele>
				<time>2026-08-17T03:11:35Z</time>
			</trkpt>
			<trkpt lat="30.233373" lon="120.104374">
				<speed>0.000000</speed>
				<ele>258.000000</ele>
				<time>2026-08-17T03:11:36Z</time>
			</trkpt>
			<trkpt lat="30.233367" lon="120.104372">
				<speed>0.000000</speed>
				<ele>259.000000</ele>
				<time>2026-08-17T03:11:37Z</time>
			</trkpt>
			<trkpt lat="30.233361" lon="120.104371">
				<speed>0.000000</speed>
				<ele>259.000000</ele>
				<time>2026-08-17T03:11:38Z</time>
			</trkpt>
			<trkpt lat="30.233342" lon="120.104364">
				<speed>0.000000</speed>
				<ele>259.000000</ele>
				<time>2026-08-17T03:11:39Z</time>
			</trkpt>
			<trkpt lat="30.233335" lon="120.104360">
				<speed>0.000000</speed>
				<ele>259.000000</ele>
				<time>2026-08-17T03:11:40Z</time>
			</trkpt>
			<trkpt lat="30.233329" lon="120.104357">
				<speed>0.000000</speed>
				<ele>259.000000</ele>
				<time>2026-08-17T03:11:41Z</time>
			</trkpt>
			<trkpt lat="30.233322" lon="120.104353">
				<speed>0.000000</speed>
				<ele>259.000000</ele>
				<time>2026-08-17T03:11:42Z</time>
			</trkpt>
			<trkpt lat="30.233305" lon="120.104341">
				<speed>0.000000</speed>
				<ele>259.000000</ele>
				<time>2026-08-17T03:11:43Z</time>
			</trkpt>
			<trkpt lat="30.233300" lon="120.104335">
				<speed>0.000000</speed>
				<ele>259.000000</ele>
				<time>2026-08-17T03:11:44Z</time>
			</trkpt>
			<trkpt lat="30.233295" lon="120.104330">
				<speed>0.000000</speed>
				<ele>260.000000</ele>
				<time>2026-08-17T03:11:45Z</time>
			</trkpt>
			<trkpt lat="30.233290" lon="120.104325">
				<speed>0.000000</speed>
				<ele>260.000000</ele>
				<time>2026-08-17T03:11:46Z</time>
			</trkpt>
			<trkpt lat="30.233278" lon="120.104307">
				<speed>0.000000</speed>
				<ele>260.000000</ele>
				<time>2026-08-17T03:11:47Z</time>
			</trkpt>
			<trkpt lat="30.233274" lon="120.104299">
				<speed>0.000000</speed>
				<ele>260.000000</ele>
				<time>2026-08-17T03:11:48Z</time>
			</trkpt>
			<trkpt lat="30.233271" lon="120.104292">
				<speed>0.000000</speed>
				<ele>261.000000</ele>
				<time>2026-08-17T03:11:49Z</time>
			</trkpt>
			<trkpt lat="30.233267" lon="120.104285">
				<speed>0.000000</speed>
				<ele>261.000000</ele>
				<time>2026-08-17T03:11:50Z</time>
			</trkpt>
			<trkpt lat="30.233259" lon="120.104265">
				<speed>0.000000</speed>
				<ele>261.000000</ele>
				<time>2026-08-17T03:11:51Z</time>
			</trkpt>
			<trkpt lat="30.233257" lon="120.104258">
				<speed>0.000000</speed>
				<ele>261.000000</ele>
				<time>2026-08-17T03:11:52Z</time>
			</trkpt>
			<trkpt lat="30.233255" lon="120.104252">
				<speed>0.000000</speed>
				<ele>261.000000</ele>
				<time>2026-08-17T03:11:53Z</time>
			</trkpt>
			<trkpt lat="30.233252" lon="120.104245">
				<speed>0.000000</speed>
				<ele>261.000000</ele>
				<time>2026-08-17T03:11:54Z</time>
			</trkpt>
			<trkpt lat="30.233247" lon="120.104224">
				<speed>0.000000</speed>
				<ele>261.000000</ele>
				<time>2026-08-17T03:11:55Z</time>
			</trkpt>
			<trkpt lat="30.233245" lon="120.104216">
				<speed>0.000000</speed>
				<ele>261.000000</ele>
				<time>2026-08-17T03:11:56Z</time>
			</trkpt>
			<trkpt lat="30.233243" lon="120.104208">
				<speed>0.000000</speed>
				<ele>262.000000</ele>
				<time>2026-08-17T03:11:57Z</time>
			</trkpt>
			<trkpt lat="30.233241" lon="120.104200">
				<speed>0.000000</speed>
				<ele>262.000000</ele>
				<time>2026-08-17T03:11:58Z</time>
			</trkpt>
			<trkpt lat="30.233236" lon="120.104170">
				<speed>0.000000</speed>
				<ele>262.000000</ele>
				<time>2026-08-17T03:11:59Z</time>
			</trkpt>
			<trkpt lat="30.233235" lon="120.104160">
				<speed>0.000000</speed>
				<ele>262.000000</ele>
				<time>2026-08-17T03:12:00Z</time>
			</trkpt>
			<trkpt lat="30.233234" lon="120.104150">
				<speed>0.000000</speed>
				<ele>262.000000</ele>
				<time>2026-08-17T03:12:01Z</time>
			</trkpt>
			<trkpt lat="30.233233" lon="120.104140">
				<speed>0.000000</speed>
				<ele>262.000000</ele>
				<time>2026-08-17T03:12:02Z</time>
			</trkpt>
			<trkpt lat="30.233232" lon="120.104112">
				<speed>0.000000</speed>
				<ele>262.000000</ele>
				<time>2026-08-17T03:12:03Z</time>
			</trkpt>
			<trkpt lat="30.233231" lon="120.104104">
				<speed>0.000000</speed>
				<ele>262.000000</ele>
				<time>2026-08-17T03:12:04Z</time>
			</trkpt>
			<trkpt lat="30.233231" lon="120.104095">
				<speed>0.000000</speed>
				<ele>262.000000</ele>
				<time>2026-08-17T03:12:05Z</time>
			</trkpt>
			<trkpt lat="30.233230" lon="120.104087">
				<speed>0.000000</speed>
				<ele>262.000000</ele>
				<time>2026-08-17T03:12:06Z</time>
			</trkpt>
			<trkpt lat="30.233227" lon="120.104063">
				<speed>0.000000</speed>
				<ele>262.000000</ele>
				<time>2026-08-17T03:12:07Z</time>
			</trkpt>
			<trkpt lat="30.233225" lon="120.104057">
				<speed>0.000000</speed>
				<ele>262.000000</ele>
				<time>2026-08-17T03:12:08Z</time>
			</trkpt>
			<trkpt lat="30.233223" lon="120.104050">
				<speed>0.000000</speed>
				<ele>262.000000</ele>
				<time>2026-08-17T03:12:09Z</time>
			</trkpt>
			<trkpt lat="30.233222" lon="120.104043">
				<speed>0.000000</speed>
				<ele>262.000000</ele>
				<time>2026-08-17T03:12:10Z</time>
			</trkpt>
			<trkpt lat="30.233214" lon="120.104023">
				<speed>0.000000</speed>
				<ele>262.000000</ele>
				<time>2026-08-17T03:12:11Z</time>
			</trkpt>
			<trkpt lat="30.233211" lon="120.104018">
				<speed>0.000000</speed>
				<ele>262.000000</ele>
				<time>2026-08-17T03:12:12Z</time>
			</trkpt>
			<trkpt lat="30.233208" lon="120.104012">
				<speed>0.000000</speed>
				<ele>263.000000</ele>
				<time>2026-08-17T03:12:13Z</time>
			</trkpt>
			<trkpt lat="30.233205" lon="120.104006">
				<speed>0.000000</speed>
				<ele>263.000000</ele>
				<time>2026-08-17T03:12:14Z</time>
			</trkpt>
			<trkpt lat="30.233196" lon="120.103990">
				<speed>0.000000</speed>
				<ele>263.000000</ele>
				<time>2026-08-17T03:12:15Z</time>
			</trkpt>
			<trkpt lat="30.233195" lon="120.103989">
				<speed>0.000000</speed>
				<ele>263.000000</ele>
				<time>2026-08-17T03:12:16Z</time>
			</trkpt>
			<trkpt lat="30.233194" lon="120.103987">
				<speed>0.000000</speed>
				<ele>263.000000</ele>
				<time>2026-08-17T03:12:17Z</time>
			</trkpt>
			<trkpt lat="30.233193" lon="120.103985">
				<speed>0.000000</speed>
				<ele>263.000000</ele>
				<time>2026-08-17T03:12:18Z</time>
			</trkpt>
			<trkpt lat="30.233192" lon="120.103984">
				<speed>0.000000</speed>
				<ele>263.000000</ele>
				<time>2026-08-17T03:12:19Z</time>
			</trkpt>
			<trkpt lat="30.233191" lon="120.103982">
				<speed>0.000000</speed>
				<ele>263.000000</ele>
				<time>2026-08-17T03:12:20Z</time>
			</trkpt>
			<trkpt lat="30.233184" lon="120.103971">
				<speed>0.000000</speed>
				<ele>263.000000</ele>
				<time>2026-08-17T03:12:21Z</time>
			</trkpt>
			<trkpt lat="30.233182" lon="120.103967">
				<speed>0.000000</speed>
				<ele>263.000000</ele>
				<time>2026-08-17T03:12:22Z</time>
			</trkpt>
			<trkpt lat="30.233180" lon="120.103963">
				<speed>0.000000</speed>
				<ele>263.000000</ele>
				<time>2026-08-17T03:12:23Z</time>
			</trkpt>
			<trkpt lat="30.233178" lon="120.103959">
				<speed>0.000000</speed>
				<ele>263.000000</ele>
				<time>2026-08-17T03:12:24Z</time>
			</trkpt>
			<trkpt lat="30.233171" lon="120.103941">
				<speed>0.000000</speed>
				<ele>264.000000</ele>
				<time>2026-08-17T03:12:25Z</time>
			</trkpt>
			<trkpt lat="30.233168" lon="120.103934">
				<speed>0.000000</speed>
				<ele>264.000000</ele>
				<time>2026-08-17T03:12:26Z</time>
			</trkpt>
			<trkpt lat="30.233164" lon="120.103927">
				<speed>0.000000</speed>
				<ele>264.000000</ele>
				<time>2026-08-17T03:12:27Z</time>
			</trkpt>
			<trkpt lat="30.233161" lon="120.103920">
				<speed>0.000000</speed>
				<ele>264.000000</ele>
				<time>2026-08-17T03:12:28Z</time>
			</trkpt>
			<trkpt lat="30.233150" lon="120.103901">
				<speed>0.000000</speed>
				<ele>264.000000</ele>
				<time>2026-08-17T03:12:29Z</time>
			</trkpt>
			<trkpt lat="30.233146" lon="120.103895">
				<speed>0.000000</speed>
				<ele>264.000000</ele>
				<time>2026-08-17T03:12:30Z</time>
			</trkpt>
			<trkpt lat="30.233142" lon="120.103889">
				<speed>0.000000</speed>
				<ele>264.000000</ele>
				<time>2026-08-17T03:12:31Z</time>
			</trkpt>
			<trkpt lat="30.233137" lon="120.103884">
				<speed>0.000000</speed>
				<ele>264.000000</ele>
				<time>2026-08-17T03:12:32Z</time>
			</trkpt>
			<trkpt lat="30.233125" lon="120.103865">
				<speed>0.000000</speed>
				<ele>265.000000</ele>
				<time>2026-08-17T03:12:33Z</time>
			</trkpt>
			<trkpt lat="30.233120" lon="120.103859">
				<speed>0.000000</speed>
				<ele>265.000000</ele>
				<time>2026-08-17T03:12:34Z</time>
			</trkpt>
			<trkpt lat="30.233116" lon="120.103853">
				<speed>0.000000</speed>
				<ele>265.000000</ele>
				<time>2026-08-17T03:12:35Z</time>
			</trkpt>
			<trkpt lat="30.233112" lon="120.103847">
				<speed>0.000000</speed>
				<ele>265.000000</ele>
				<time>2026-08-17T03:12:36Z</time>
			</trkpt>
			<trkpt lat="30.233096" lon="120.103828">
				<speed>0.000000</speed>
				<ele>265.000000</ele>
				<time>2026-08-17T03:12:37Z</time>
			</trkpt>
			<trkpt lat="30.233091" lon="120.103820">
				<speed>0.000000</speed>
				<ele>265.000000</ele>
				<time>2026-08-17T03:12:38Z</time>
			</trkpt>
			<trkpt lat="30.233086" lon="120.103813">
				<speed>0.000000</speed>
				<ele>265.000000</ele>
				<time>2026-08-17T03:12:39Z</time>
			</trkpt>
			<trkpt lat="30.233080" lon="120.103805">
				<speed>0.000000</speed>
				<ele>265.000000</ele>
				<time>2026-08-17T03:12:40Z</time>
			</trkpt>
			<trkpt lat="30.233064" lon="120.103780">
				<speed>0.000000</speed>
				<ele>265.000000</ele>
				<time>2026-08-17T03:12:41Z</time>
			</trkpt>
			<trkpt lat="30.233059" lon="120.103772">
				<speed>0.000000</speed>
				<ele>265.000000</ele>
				<time>2026-08-17T03:12:42Z</time>
			</trkpt>
			<trkpt lat="30.233053" lon="120.103763">
				<speed>0.000000</speed>
				<ele>265.000000</ele>
				<time>2026-08-17T03:12:43Z</time>
			</trkpt>
			<trkpt lat="30.233048" lon="120.103755">
				<speed>0.000000</speed>
				<ele>265.000000</ele>
				<time>2026-08-17T03:12:44Z</time>
			</trkpt>
			<trkpt lat="30.233033" lon="120.103731">
				<speed>0.000000</speed>
				<ele>265.000000</ele>
				<time>2026-08-17T03:12:45Z</time>
			</trkpt>
			<trkpt lat="30.233028" lon="120.103723">
				<speed>0.000000</speed>
				<ele>265.000000</ele>
				<time>2026-08-17T03:12:46Z</time>
			</trkpt>
			<trkpt lat="30.233024" lon="120.103716">
				<speed>0.000000</speed>
				<ele>265.000000</ele>
				<time>2026-08-17T03:12:47Z</time>
			</trkpt>
			<trkpt lat="30.233019" lon="120.103708">
				<speed>0.000000</speed>
				<ele>265.000000</ele>
				<time>2026-08-17T03:12:48Z</time>
			</trkpt>
			<trkpt lat="30.233008" lon="120.103686">
				<speed>0.000000</speed>
				<ele>265.000000</ele>
				<time>2026-08-17T03:12:49Z</time>
			</trkpt>
			<trkpt lat="30.233004" lon="120.103678">
				<speed>0.000000</speed>
				<ele>265.000000</ele>
				<time>2026-08-17T03:12:50Z</time>
			</trkpt>
			<trkpt lat="30.233000" lon="120.103671">
				<speed>0.000000</speed>
				<ele>265.000000</ele>
				<time>2026-08-17T03:12:51Z</time>
			</trkpt>
			<trkpt lat="30.232997" lon="120.103663">
				<speed>0.000000</speed>
				<ele>265.000000</ele>
				<time>2026-08-17T03:12:52Z</time>
			</trkpt>
			<trkpt lat="30.232982" lon="120.103643">
				<speed>0.000000</speed>
				<ele>265.000000</ele>
				<time>2026-08-17T03:12:53Z</time>
			</trkpt>
			<trkpt lat="30.232976" lon="120.103636">
				<speed>0.000000</speed>
				<ele>265.000000</ele>
				<time>2026-08-17T03:12:54Z</time>
			</trkpt>
			<trkpt lat="30.232971" lon="120.103629">
				<speed>0.000000</speed>
				<ele>265.000000</ele>
				<time>2026-08-17T03:12:55Z</time>
			</trkpt>
			<trkpt lat="30.232965" lon="120.103623">
				<speed>0.000000</speed>
				<ele>265.000000</ele>
				<time>2026-08-17T03:12:56Z</time>
			</trkpt>
			<trkpt lat="30.232946" lon="120.103601">
				<speed>0.000000</speed>
				<ele>265.000000</ele>
				<time>2026-08-17T03:12:57Z</time>
			</trkpt>
			<trkpt lat="30.232939" lon="120.103594">
				<speed>0.000000</speed>
				<ele>265.000000</ele>
				<time>2026-08-17T03:12:58Z</time>
			</trkpt>
			<trkpt lat="30.232933" lon="120.103586">
				<speed>0.000000</speed>
				<ele>265.000000</ele>
				<time>2026-08-17T03:12:59Z</time>
			</trkpt>
			<trkpt lat="30.232927" lon="120.103579">
				<speed>0.000000</speed>
				<ele>265.000000</ele>
				<time>2026-08-17T03:13:00Z</time>
			</trkpt>
			<trkpt lat="30.232906" lon="120.103555">
				<speed>0.000000</speed>
				<ele>265.000000</ele>
				<time>2026-08-17T03:13:01Z</time>
			</trkpt>
			<trkpt lat="30.232899" lon="120.103547">
				<speed>0.000000</speed>
				<ele>264.000000</ele>
				<time>2026-08-17T03:13:02Z</time>
			</trkpt>
			<trkpt lat="30.232892" lon="120.103538">
				<speed>0.000000</speed>
				<ele>264.000000</ele>
				<time>2026-08-17T03:13:03Z</time>
			</trkpt>
			<trkpt lat="30.232885" lon="120.103530">
				<speed>0.000000</speed>
				<ele>264.000000</ele>
				<time>2026-08-17T03:13:04Z</time>
			</trkpt>
			<trkpt lat="30.232863" lon="120.103506">
				<speed>0.000000</speed>
				<ele>264.000000</ele>
				<time>2026-08-17T03:13:05Z</time>
			</trkpt>
			<trkpt lat="30.232856" lon="120.103498">
				<speed>0.000000</speed>
				<ele>264.000000</ele>
				<time>2026-08-17T03:13:06Z</time>
			</trkpt>
			<trkpt lat="30.232849" lon="120.103490">
				<speed>0.000000</speed>
				<ele>264.000000</ele>
				<time>2026-08-17T03:13:07Z</time>
			</trkpt>
			<trkpt lat="30.232843" lon="120.103482">
				<speed>0.000000</speed>
				<ele>264.000000</ele>
				<time>2026-08-17T03:13:08Z</time>
			</trkpt>
			<trkpt lat="30.232824" lon="120.103461">
				<speed>0.000000</speed>
				<ele>264.000000</ele>
				<time>2026-08-17T03:13:09Z</time>
			</trkpt>
			<trkpt lat="30.232819" lon="120.103455">
				<speed>0.000000</speed>
				<ele>264.000000</ele>
				<time>2026-08-17T03:13:10Z</time>
			</trkpt>
			<trkpt lat="30.232814" lon="120.103449">
				<speed>0.000000</speed>
				<ele>264.000000</ele>
				<time>2026-08-17T03:13:11Z</time>
			</trkpt>
			<trkpt lat="30.232808" lon="120.103443">
				<speed>0.000000</speed>
				<ele>264.000000</ele>
				<time>2026-08-17T03:13:12Z</time>
			</trkpt>
			<trkpt lat="30.232793" lon="120.103428">
				<speed>0.000000</speed>
				<ele>264.000000</ele>
				<time>2026-08-17T03:13:13Z</time>
			</trkpt>
			<trkpt lat="30.232788" lon="120.103423">
				<speed>0.000000</speed>
				<ele>264.000000</ele>
				<time>2026-08-17T03:13:14Z</time>
			</trkpt>
			<trkpt lat="30.232783" lon="120.103418">
				<speed>0.000000</speed>
				<ele>264.000000</ele>
				<time>2026-08-17T03:13:15Z</time>
			</trkpt>
			<trkpt lat="30.232778" lon="120.103414">
				<speed>0.000000</speed>
				<ele>264.000000</ele>
				<time>2026-08-17T03:13:16Z</time>
			</trkpt>
			<trkpt lat="30.232761" lon="120.103401">
				<speed>0.000000</speed>
				<ele>265.000000</ele>
				<time>2026-08-17T03:13:17Z</time>
			</trkpt>
			<trkpt lat="30.232756" lon="120.103396">
				<speed>0.000000</speed>
				<ele>265.000000</ele>
				<time>2026-08-17T03:13:18Z</time>
			</trkpt>
			<trkpt lat="30.232751" lon="120.103390">
				<speed>0.000000</speed>
				<ele>265.000000</ele>
				<time>2026-08-17T03:13:19Z</time>
			</trkpt>
			<trkpt lat="30.232745" lon="120.103385">
				<speed>0.000000</speed>
				<ele>265.000000</ele>
				<time>2026-08-17T03:13:20Z</time>
			</trkpt>
			<trkpt lat="30.232729" lon="120.103369">
				<speed>0.000000</speed>
				<ele>265.000000</ele>
				<time>2026-08-17T03:13:21Z</time>
			</trkpt>
			<trkpt lat="30.232724" lon="120.103364">
				<speed>0.000000</speed>
				<ele>265.000000</ele>
				<time>2026-08-17T03:13:22Z</time>
			</trkpt>
			<trkpt lat="30.232720" lon="120.103359">
				<speed>0.000000</speed>
				<ele>265.000000</ele>
				<time>2026-08-17T03:13:23Z</time>
			</trkpt>
			<trkpt lat="30.232715" lon="120.103354">
				<speed>0.000000</speed>
				<ele>265.000000</ele>
				<time>2026-08-17T03:13:24Z</time>
			</trkpt>
			<trkpt lat="30.232702" lon="120.103339">
				<speed>0.000000</speed>
				<ele>265.000000</ele>
				<time>2026-08-17T03:13:25Z</time>
			</trkpt>
			<trkpt lat="30.232698" lon="120.103334">
				<speed>0.000000</speed>
				<ele>265.000000</ele>
				<time>2026-08-17T03:13:26Z</time>
			</trkpt>
			<trkpt lat="30.232694" lon="120.103329">
				<speed>0.000000</speed>
				<ele>265.000000</ele>
				<time>2026-08-17T03:13:27Z</time>
			</trkpt>
			<trkpt lat="30.232690" lon="120.103324">
				<speed>0.000000</speed>
				<ele>265.000000</ele>
				<time>2026-08-17T03:13:28Z</time>
			</trkpt>
			<trkpt lat="30.232679" lon="120.103306">
				<speed>0.000000</speed>
				<ele>266.000000</ele>
				<time>2026-08-17T03:13:29Z</time>
			</trkpt>
			<trkpt lat="30.232676" lon="120.103300">
				<speed>0.000000</speed>
				<ele>266.000000</ele>
				<time>2026-08-17T03:13:30Z</time>
			</trkpt>
			<trkpt lat="30.232673" lon="120.103294">
				<speed>0.000000</speed>
				<ele>266.000000</ele>
				<time>2026-08-17T03:13:31Z</time>
			</trkpt>
			<trkpt lat="30.232670" lon="120.103288">
				<speed>0.000000</speed>
				<ele>266.000000</ele>
				<time>2026-08-17T03:13:32Z</time>
			</trkpt>
			<trkpt lat="30.232663" lon="120.103271">
				<speed>0.000000</speed>
				<ele>267.000000</ele>
				<time>2026-08-17T03:13:33Z</time>
			</trkpt>
			<trkpt lat="30.232661" lon="120.103266">
				<speed>0.000000</speed>
				<ele>267.000000</ele>
				<time>2026-08-17T03:13:34Z</time>
			</trkpt>
			<trkpt lat="30.232659" lon="120.103261">
				<speed>0.000000</speed>
				<ele>267.000000</ele>
				<time>2026-08-17T03:13:35Z</time>
			</trkpt>
			<trkpt lat="30.232657" lon="120.103256">
				<speed>0.000000</speed>
				<ele>267.000000</ele>
				<time>2026-08-17T03:13:36Z</time>
			</trkpt>
			<trkpt lat="30.232649" lon="120.103241">
				<speed>0.000000</speed>
				<ele>268.000000</ele>
				<time>2026-08-17T03:13:37Z</time>
			</trkpt>
			<trkpt lat="30.232646" lon="120.103236">
				<speed>0.000000</speed>
				<ele>268.000000</ele>
				<time>2026-08-17T03:13:38Z</time>
			</trkpt>
			<trkpt lat="30.232643" lon="120.103231">
				<speed>0.000000</speed>
				<ele>268.000000</ele>
				<time>2026-08-17T03:13:39Z</time>
			</trkpt>
			<trkpt lat="30.232640" lon="120.103226">
				<speed>0.000000</speed>
				<ele>268.000000</ele>
				<time>2026-08-17T03:13:40Z</time>
			</trkpt>
			<trkpt lat="30.232629" lon="120.103211">
				<speed>0.000000</speed>
				<ele>268.000000</ele>
				<time>2026-08-17T03:13:41Z</time>
			</trkpt>
			<trkpt lat="30.232625" lon="120.103207">
				<speed>0.000000</speed>
				<ele>268.000000</ele>
				<time>2026-08-17T03:13:42Z</time>
			</trkpt>
			<trkpt lat="30.232621" lon="120.103202">
				<speed>0.000000</speed>
				<ele>268.000000</ele>
				<time>2026-08-17T03:13:43Z</time>
			</trkpt>
			<trkpt lat="30.232618" lon="120.103197">
				<speed>0.000000</speed>
				<ele>268.000000</ele>
				<time>2026-08-17T03:13:44Z</time>
			</trkpt>
			<trkpt lat="30.232608" lon="120.103182">
				<speed>0.000000</speed>
				<ele>269.000000</ele>
				<time>2026-08-17T03:13:45Z</time>
			</trkpt>
			<trkpt lat="30.232607" lon="120.103179">
				<speed>0.000000</speed>
				<ele>269.000000</ele>
				<time>2026-08-17T03:13:46Z</time>
			</trkpt>
			<trkpt lat="30.232605" lon="120.103176">
				<speed>0.000000</speed>
				<ele>269.000000</ele>
				<time>2026-08-17T03:13:47Z</time>
			</trkpt>
			<trkpt lat="30.232604" lon="120.103173">
				<speed>0.000000</speed>
				<ele>269.000000</ele>
				<time>2026-08-17T03:13:48Z</time>
			</trkpt>
			<trkpt lat="30.232596" lon="120.103158">
				<speed>0.000000</speed>
				<ele>270.000000</ele>
				<time>2026-08-17T03:13:49Z</time>
			</trkpt>
			<trkpt lat="30.232593" lon="120.103153">
				<speed>0.000000</speed>
				<ele>270.000000</ele>
				<time>2026-08-17T03:13:50Z</time>
			</trkpt>
			<trkpt lat="30.232590" lon="120.103148">
				<speed>0.000000</speed>
				<ele>270.000000</ele>
				<time>2026-08-17T03:13:51Z</time>
			</trkpt>
			<trkpt lat="30.232588" lon="120.103143">
				<speed>0.000000</speed>
				<ele>270.000000</ele>
				<time>2026-08-17T03:13:52Z</time>
			</trkpt>
			<trkpt lat="30.232579" lon="120.103131">
				<speed>0.000000</speed>
				<ele>271.000000</ele>
				<time>2026-08-17T03:13:53Z</time>
			</trkpt>
			<trkpt lat="30.232576" lon="120.103126">
				<speed>0.000000</speed>
				<ele>271.000000</ele>
				<time>2026-08-17T03:13:54Z</time>
			</trkpt>
			<trkpt lat="30.232573" lon="120.103122">
				<speed>0.000000</speed>
				<ele>271.000000</ele>
				<time>2026-08-17T03:13:55Z</time>
			</trkpt>
			<trkpt lat="30.232570" lon="120.103117">
				<speed>0.000000</speed>
				<ele>271.000000</ele>
				<time>2026-08-17T03:13:56Z</time>
			</trkpt>
			<trkpt lat="30.232563" lon="120.103104">
				<speed>0.000000</speed>
				<ele>272.000000</ele>
				<time>2026-08-17T03:13:57Z</time>
			</trkpt>
			<trkpt lat="30.232560" lon="120.103099">
				<speed>0.000000</speed>
				<ele>272.000000</ele>
				<time>2026-08-17T03:13:58Z</time>
			</trkpt>
			<trkpt lat="30.232557" lon="120.103095">
				<speed>0.000000</speed>
				<ele>272.000000</ele>
				<time>2026-08-17T03:13:59Z</time>
			</trkpt>
			<trkpt lat="30.232554" lon="120.103090">
				<speed>0.000000</speed>
				<ele>272.000000</ele>
				<time>2026-08-17T03:14:00Z</time>
			</trkpt>
			<trkpt lat="30.232545" lon="120.103076">
				<speed>0.000000</speed>
				<ele>272.000000</ele>
				<time>2026-08-17T03:14:01Z</time>
			</trkpt>
			<trkpt lat="30.232542" lon="120.103071">
				<speed>0.000000</speed>
				<ele>272.000000</ele>
				<time>2026-08-17T03:14:02Z</time>
			</trkpt>
			<trkpt lat="30.232539" lon="120.103067">
				<speed>0.000000</speed>
				<ele>272.000000</ele>
				<time>2026-08-17T03:14:03Z</time>
			</trkpt>
			<trkpt lat="30.232536" lon="120.103062">
				<speed>0.000000</speed>
				<ele>272.000000</ele>
				<time>2026-08-17T03:14:04Z</time>
			</trkpt>
			<trkpt lat="30.232529" lon="120.103046">
				<speed>0.000000</speed>
				<ele>273.000000</ele>
				<time>2026-08-17T03:14:05Z</time>
			</trkpt>
			<trkpt lat="30.232527" lon="120.103041">
				<speed>0.000000</speed>
				<ele>273.000000</ele>
				<time>2026-08-17T03:14:06Z</time>
			</trkpt>
			<trkpt lat="30.232525" lon="120.103036">
				<speed>0.000000</speed>
				<ele>273.000000</ele>
				<time>2026-08-17T03:14:07Z</time>
			</trkpt>
			<trkpt lat="30.232524" lon="120.103031">
				<speed>0.000000</speed>
				<ele>273.000000</ele>
				<time>2026-08-17T03:14:08Z</time>
			</trkpt>
			<trkpt lat="30.232515" lon="120.103015">
				<speed>0.000000</speed>
				<ele>274.000000</ele>
				<time>2026-08-17T03:14:09Z</time>
			</trkpt>
			<trkpt lat="30.232512" lon="120.103010">
				<speed>0.000000</speed>
				<ele>274.000000</ele>
				<time>2026-08-17T03:14:10Z</time>
			</trkpt>
			<trkpt lat="30.232508" lon="120.103005">
				<speed>0.000000</speed>
				<ele>274.000000</ele>
				<time>2026-08-17T03:14:11Z</time>
			</trkpt>
			<trkpt lat="30.232504" lon="120.103000">
				<speed>0.000000</speed>
				<ele>274.000000</ele>
				<time>2026-08-17T03:14:12Z</time>
			</trkpt>
			<trkpt lat="30.232492" lon="120.102982">
				<speed>0.000000</speed>
				<ele>274.000000</ele>
				<time>2026-08-17T03:14:13Z</time>
			</trkpt>
			<trkpt lat="30.232489" lon="120.102976">
				<speed>0.000000</speed>
				<ele>274.000000</ele>
				<time>2026-08-17T03:14:14Z</time>
			</trkpt>
			<trkpt lat="30.232485" lon="120.102970">
				<speed>0.000000</speed>
				<ele>274.000000</ele>
				<time>2026-08-17T03:14:15Z</time>
			</trkpt>
			<trkpt lat="30.232481" lon="120.102964">
				<speed>0.000000</speed>
				<ele>274.000000</ele>
				<time>2026-08-17T03:14:16Z</time>
			</trkpt>
			<trkpt lat="30.232471" lon="120.102947">
				<speed>0.000000</speed>
				<ele>275.000000</ele>
				<time>2026-08-17T03:14:17Z</time>
			</trkpt>
			<trkpt lat="30.232468" lon="120.102942">
				<speed>0.000000</speed>
				<ele>275.000000</ele>
				<time>2026-08-17T03:14:18Z</time>
			</trkpt>
			<trkpt lat="30.232464" lon="120.102936">
				<speed>0.000000</speed>
				<ele>275.000000</ele>
				<time>2026-08-17T03:14:19Z</time>
			</trkpt>
			<trkpt lat="30.232461" lon="120.102931">
				<speed>0.000000</speed>
				<ele>275.000000</ele>
				<time>2026-08-17T03:14:20Z</time>
			</trkpt>
			<trkpt lat="30.232448" lon="120.102919">
				<speed>0.000000</speed>
				<ele>275.000000</ele>
				<time>2026-08-17T03:14:21Z</time>
			</trkpt>
			<trkpt lat="30.232443" lon="120.102916">
				<speed>0.000000</speed>
				<ele>275.000000</ele>
				<time>2026-08-17T03:14:22Z</time>
			</trkpt>
			<trkpt lat="30.232438" lon="120.102913">
				<speed>0.000000</speed>
				<ele>275.000000</ele>
				<time>2026-08-17T03:14:23Z</time>
			</trkpt>
			<trkpt lat="30.232433" lon="120.102911">
				<speed>0.000000</speed>
				<ele>275.000000</ele>
				<time>2026-08-17T03:14:24Z</time>
			</trkpt>
			<trkpt lat="30.232416" lon="120.102903">
				<speed>0.000000</speed>
				<ele>276.000000</ele>
				<time>2026-08-17T03:14:25Z</time>
			</trkpt>
			<trkpt lat="30.232409" lon="120.102900">
				<speed>0.000000</speed>
				<ele>276.000000</ele>
				<time>2026-08-17T03:14:26Z</time>
			</trkpt>
			<trkpt lat="30.232402" lon="120.102896">
				<speed>0.000000</speed>
				<ele>276.000000</ele>
				<time>2026-08-17T03:14:27Z</time>
			</trkpt>
			<trkpt lat="30.232396" lon="120.102893">
				<speed>0.000000</speed>
				<ele>276.000000</ele>
				<time>2026-08-17T03:14:28Z</time>
			</trkpt>
			<trkpt lat="30.232376" lon="120.102883">
				<speed>0.000000</speed>
				<ele>276.000000</ele>
				<time>2026-08-17T03:14:29Z</time>
			</trkpt>
			<trkpt lat="30.232369" lon="120.102879">
				<speed>0.000000</speed>
				<ele>275.000000</ele>
				<time>2026-08-17T03:14:30Z</time>
			</trkpt>
			<trkpt lat="30.232362" lon="120.102875">
				<speed>0.000000</speed>
				<ele>275.000000</ele>
				<time>2026-08-17T03:14:31Z</time>
			</trkpt>
			<trkpt lat="30.232356" lon="120.102871">
				<speed>0.000000</speed>
				<ele>275.000000</ele>
				<time>2026-08-17T03:14:32Z</time>
			</trkpt>
			<trkpt lat="30.232336" lon="120.102857">
				<speed>0.000000</speed>
				<ele>275.000000</ele>
				<time>2026-08-17T03:14:33Z</time>
			</trkpt>
			<trkpt lat="30.232330" lon="120.102853">
				<speed>0.000000</speed>
				<ele>275.000000</ele>
				<time>2026-08-17T03:14:34Z</time>
			</trkpt>
			<trkpt lat="30.232324" lon="120.102848">
				<speed>0.000000</speed>
				<ele>275.000000</ele>
				<time>2026-08-17T03:14:35Z</time>
			</trkpt>
			<trkpt lat="30.232318" lon="120.102844">
				<speed>0.000000</speed>
				<ele>275.000000</ele>
				<time>2026-08-17T03:14:36Z</time>
			</trkpt>
			<trkpt lat="30.232299" lon="120.102832">
				<speed>0.000000</speed>
				<ele>275.000000</ele>
				<time>2026-08-17T03:14:37Z</time>
			</trkpt>
			<trkpt lat="30.232293" lon="120.102827">
				<speed>0.000000</speed>
				<ele>275.000000</ele>
				<time>2026-08-17T03:14:38Z</time>
			</trkpt>
			<trkpt lat="30.232286" lon="120.102823">
				<speed>0.000000</speed>
				<ele>275.000000</ele>
				<time>2026-08-17T03:14:39Z</time>
			</trkpt>
			<trkpt lat="30.232280" lon="120.102819">
				<speed>0.000000</speed>
				<ele>275.000000</ele>
				<time>2026-08-17T03:14:40Z</time>
			</trkpt>
			<trkpt lat="30.232259" lon="120.102809">
				<speed>0.000000</speed>
				<ele>275.000000</ele>
				<time>2026-08-17T03:14:41Z</time>
			</trkpt>
			<trkpt lat="30.232253" lon="120.102806">
				<speed>0.000000</speed>
				<ele>275.000000</ele>
				<time>2026-08-17T03:14:42Z</time>
			</trkpt>
			<trkpt lat="30.232246" lon="120.102803">
				<speed>0.000000</speed>
				<ele>275.000000</ele>
				<time>2026-08-17T03:14:43Z</time>
			</trkpt>
			<trkpt lat="30.232240" lon="120.102800">
				<speed>0.000000</speed>
				<ele>275.000000</ele>
				<time>2026-08-17T03:14:44Z</time>
			</trkpt>
			<trkpt lat="30.232220" lon="120.102793">
				<speed>0.000000</speed>
				<ele>275.000000</ele>
				<time>2026-08-17T03:14:45Z</time>
			</trkpt>
			<trkpt lat="30.232214" lon="120.102791">
				<speed>0.000000</speed>
				<ele>275.000000</ele>
				<time>2026-08-17T03:14:46Z</time>
			</trkpt>
			<trkpt lat="30.232208" lon="120.102789">
				<speed>0.000000</speed>
				<ele>275.000000</ele>
				<time>2026-08-17T03:14:47Z</time>
			</trkpt>
			<trkpt lat="30.232202" lon="120.102787">
				<speed>0.000000</speed>
				<ele>275.000000</ele>
				<time>2026-08-17T03:14:48Z</time>
			</trkpt>
			<trkpt lat="30.232185" lon="120.102781">
				<speed>0.000000</speed>
				<ele>275.000000</ele>
				<time>2026-08-17T03:14:49Z</time>
			</trkpt>
			<trkpt lat="30.232180" lon="120.102779">
				<speed>0.000000</speed>
				<ele>275.000000</ele>
				<time>2026-08-17T03:14:50Z</time>
			</trkpt>
			<trkpt lat="30.232175" lon="120.102777">
				<speed>0.000000</speed>
				<ele>275.000000</ele>
				<time>2026-08-17T03:14:51Z</time>
			</trkpt>
			<trkpt lat="30.232170" lon="120.102775">
				<speed>0.000000</speed>
				<ele>275.000000</ele>
				<time>2026-08-17T03:14:52Z</time>
			</trkpt>
			<trkpt lat="30.232155" lon="120.102768">
				<speed>0.000000</speed>
				<ele>275.000000</ele>
				<time>2026-08-17T03:14:53Z</time>
			</trkpt>
			<trkpt lat="30.232151" lon="120.102766">
				<speed>0.000000</speed>
				<ele>275.000000</ele>
				<time>2026-08-17T03:14:54Z</time>
			</trkpt>
			<trkpt lat="30.232147" lon="120.102764">
				<speed>0.000000</speed>
				<ele>275.000000</ele>
				<time>2026-08-17T03:14:55Z</time>
			</trkpt>
			<trkpt lat="30.232143" lon="120.102762">
				<speed>0.000000</speed>
				<ele>275.000000</ele>
				<time>2026-08-17T03:14:56Z</time>
			</trkpt>
			<trkpt lat="30.232132" lon="120.102757">
				<speed>0.000000</speed>
				<ele>275.000000</ele>
				<time>2026-08-17T03:14:57Z</time>
			</trkpt>
			<trkpt lat="30.232128" lon="120.102756">
				<speed>0.000000</speed>
				<ele>275.000000</ele>
				<time>2026-08-17T03:14:58Z</time>
			</trkpt>
			<trkpt lat="30.232124" lon="120.102754">
				<speed>0.000000</speed>
				<ele>275.000000</ele>
				<time>2026-08-17T03:14:59Z</time>
			</trkpt>
			<trkpt lat="30.232120" lon="120.102753">
				<speed>0.000000</speed>
				<ele>275.000000</ele>
				<time>2026-08-17T03:15:00Z</time>
			</trkpt>
			<trkpt lat="30.232107" lon="120.102748">
				<speed>0.000000</speed>
				<ele>275.000000</ele>
				<time>2026-08-17T03:15:01Z</time>
			</trkpt>
			<trkpt lat="30.232097" lon="120.102733">
				<speed>0.000000</speed>
				<ele>274.000000</ele>
				<time>2026-08-17T03:17:01Z</time>
			</trkpt>
			<trkpt lat="30.232086" lon="120.102714">
				<speed>0.000000</speed>
				<ele>274.000000</ele>
				<time>2026-08-17T03:17:02Z</time>
			</trkpt>
			<trkpt lat="30.232085" lon="120.102710">
				<speed>0.000000</speed>
				<ele>274.000000</ele>
				<time>2026-08-17T03:17:03Z</time>
			</trkpt>
			<trkpt lat="30.232084" lon="120.102705">
				<speed>0.000000</speed>
				<ele>274.000000</ele>
				<time>2026-08-17T03:17:04Z</time>
			</trkpt>
			<trkpt lat="30.232083" lon="120.102700">
				<speed>0.000000</speed>
				<ele>274.000000</ele>
				<time>2026-08-17T03:17:05Z</time>
			</trkpt>
			<trkpt lat="30.232083" lon="120.102684">
				<speed>0.000000</speed>
				<ele>274.000000</ele>
				<time>2026-08-17T03:17:06Z</time>
			</trkpt>
			<trkpt lat="30.232084" lon="120.102676">
				<speed>0.000000</speed>
				<ele>274.000000</ele>
				<time>2026-08-17T03:17:07Z</time>
			</trkpt>
			<trkpt lat="30.232084" lon="120.102669">
				<speed>0.000000</speed>
				<ele>274.000000</ele>
				<time>2026-08-17T03:17:08Z</time>
			</trkpt>
			<trkpt lat="30.232084" lon="120.102662">
				<speed>0.000000</speed>
				<ele>274.000000</ele>
				<time>2026-08-17T03:17:09Z</time>
			</trkpt>
			<trkpt lat="30.232088" lon="120.102634">
				<speed>0.000000</speed>
				<ele>274.000000</ele>
				<time>2026-08-17T03:17:10Z</time>
			</trkpt>
			<trkpt lat="30.232093" lon="120.102625">
				<speed>0.000000</speed>
				<ele>274.000000</ele>
				<time>2026-08-17T03:17:11Z</time>
			</trkpt>
			<trkpt lat="30.232098" lon="120.102617">
				<speed>0.000000</speed>
				<ele>274.000000</ele>
				<time>2026-08-17T03:17:12Z</time>
			</trkpt>
			<trkpt lat="30.232102" lon="120.102608">
				<speed>0.000000</speed>
				<ele>274.000000</ele>
				<time>2026-08-17T03:17:13Z</time>
			</trkpt>
			<trkpt lat="30.232124" lon="120.102585">
				<speed>0.000000</speed>
				<ele>274.000000</ele>
				<time>2026-08-17T03:17:14Z</time>
			</trkpt>
			<trkpt lat="30.232131" lon="120.102575">
				<speed>0.000000</speed>
				<ele>274.000000</ele>
				<time>2026-08-17T03:17:15Z</time>
			</trkpt>
			<trkpt lat="30.232139" lon="120.102565">
				<speed>0.000000</speed>
				<ele>274.000000</ele>
				<time>2026-08-17T03:17:16Z</time>
			</trkpt>
			<trkpt lat="30.232146" lon="120.102555">
				<speed>0.000000</speed>
				<ele>274.000000</ele>
				<time>2026-08-17T03:17:17Z</time>
			</trkpt>
			<trkpt lat="30.232163" lon="120.102517">
				<speed>0.000000</speed>
				<ele>273.000000</ele>
				<time>2026-08-17T03:17:18Z</time>
			</trkpt>
			<trkpt lat="30.232168" lon="120.102504">
				<speed>0.000000</speed>
				<ele>273.000000</ele>
				<time>2026-08-17T03:17:19Z</time>
			</trkpt>
			<trkpt lat="30.232173" lon="120.102490">
				<speed>0.000000</speed>
				<ele>273.000000</ele>
				<time>2026-08-17T03:17:20Z</time>
			</trkpt>
			<trkpt lat="30.232178" lon="120.102476">
				<speed>0.000000</speed>
				<ele>273.000000</ele>
				<time>2026-08-17T03:17:21Z</time>
			</trkpt>
			<trkpt lat="30.232183" lon="120.102436">
				<speed>0.000000</speed>
				<ele>273.000000</ele>
				<time>2026-08-17T03:17:22Z</time>
			</trkpt>
			<trkpt lat="30.232184" lon="120.102422">
				<speed>0.000000</speed>
				<ele>273.000000</ele>
				<time>2026-08-17T03:17:23Z</time>
			</trkpt>
			<trkpt lat="30.232184" lon="120.102407">
				<speed>0.000000</speed>
				<ele>273.000000</ele>
				<time>2026-08-17T03:17:24Z</time>
			</trkpt>
			<trkpt lat="30.232185" lon="120.102393">
				<speed>0.000000</speed>
				<ele>273.000000</ele>
				<time>2026-08-17T03:17:25Z</time>
			</trkpt>
			<trkpt lat="30.232182" lon="120.102352">
				<speed>0.000000</speed>
				<ele>272.000000</ele>
				<time>2026-08-17T03:17:26Z</time>
			</trkpt>
			<trkpt lat="30.232181" lon="120.102342">
				<speed>0.000000</speed>
				<ele>272.000000</ele>
				<time>2026-08-17T03:17:27Z</time>
			</trkpt>
			<trkpt lat="30.232180" lon="120.102331">
				<speed>0.000000</speed>
				<ele>271.000000</ele>
				<time>2026-08-17T03:17:28Z</time>
			</trkpt>
			<trkpt lat="30.232179" lon="120.102321">
				<speed>0.000000</speed>
				<ele>271.000000</ele>
				<time>2026-08-17T03:17:29Z</time>
			</trkpt>
			<trkpt lat="30.232186" lon="120.102305">
				<speed>0.000000</speed>
				<ele>270.000000</ele>
				<time>2026-08-17T03:17:30Z</time>
			</trkpt>
			<trkpt lat="30.232190" lon="120.102302">
				<speed>0.000000</speed>
				<ele>270.000000</ele>
				<time>2026-08-17T03:17:31Z</time>
			</trkpt>
			<trkpt lat="30.232195" lon="120.102299">
				<speed>0.000000</speed>
				<ele>269.000000</ele>
				<time>2026-08-17T03:17:32Z</time>
			</trkpt>
			<trkpt lat="30.232199" lon="120.102296">
				<speed>0.000000</speed>
				<ele>269.000000</ele>
				<time>2026-08-17T03:17:33Z</time>
			</trkpt>
			<trkpt lat="30.232209" lon="120.102287">
				<speed>0.000000</speed>
				<ele>268.000000</ele>
				<time>2026-08-17T03:17:34Z</time>
			</trkpt>
			<trkpt lat="30.232210" lon="120.102282">
				<speed>0.000000</speed>
				<ele>267.000000</ele>
				<time>2026-08-17T03:17:35Z</time>
			</trkpt>
			<trkpt lat="30.232210" lon="120.102277">
				<speed>0.000000</speed>
				<ele>266.000000</ele>
				<time>2026-08-17T03:17:36Z</time>
			</trkpt>
			<trkpt lat="30.232211" lon="120.102273">
				<speed>0.000000</speed>
				<ele>266.000000</ele>
				<time>2026-08-17T03:17:37Z</time>
			</trkpt>
			<trkpt lat="30.232213" lon="120.102251">
				<speed>0.000000</speed>
				<ele>265.000000</ele>
				<time>2026-08-17T03:17:38Z</time>
			</trkpt>
			<trkpt lat="30.232216" lon="120.102242">
				<speed>0.000000</speed>
				<ele>265.000000</ele>
				<time>2026-08-17T03:17:39Z</time>
			</trkpt>
			<trkpt lat="30.232218" lon="120.102233">
				<speed>0.000000</speed>
				<ele>264.000000</ele>
				<time>2026-08-17T03:17:40Z</time>
			</trkpt>
			<trkpt lat="30.232221" lon="120.102225">
				<speed>0.000000</speed>
				<ele>264.000000</ele>
				<time>2026-08-17T03:17:41Z</time>
			</trkpt>
			<trkpt lat="30.232238" lon="120.102198">
				<speed>0.000000</speed>
				<ele>263.000000</ele>
				<time>2026-08-17T03:17:42Z</time>
			</trkpt>
			<trkpt lat="30.232244" lon="120.102190">
				<speed>0.000000</speed>
				<ele>263.000000</ele>
				<time>2026-08-17T03:17:43Z</time>
			</trkpt>
			<trkpt lat="30.232251" lon="120.102182">
				<speed>0.000000</speed>
				<ele>262.000000</ele>
				<time>2026-08-17T03:17:44Z</time>
			</trkpt>
			<trkpt lat="30.232257" lon="120.102175">
				<speed>0.000000</speed>
				<ele>262.000000</ele>
				<time>2026-08-17T03:17:45Z</time>
			</trkpt>
			<trkpt lat="30.232275" lon="120.102148">
				<speed>0.000000</speed>
				<ele>261.000000</ele>
				<time>2026-08-17T03:17:46Z</time>
			</trkpt>
			<trkpt lat="30.232279" lon="120.102137">
				<speed>0.000000</speed>
				<ele>261.000000</ele>
				<time>2026-08-17T03:17:47Z</time>
			</trkpt>
			<trkpt lat="30.232283" lon="120.102125">
				<speed>0.000000</speed>
				<ele>261.000000</ele>
				<time>2026-08-17T03:17:48Z</time>
			</trkpt>
			<trkpt lat="30.232286" lon="120.102114">
				<speed>0.000000</speed>
				<ele>261.000000</ele>
				<time>2026-08-17T03:17:49Z</time>
			</trkpt>
			<trkpt lat="30.232292" lon="120.102075">
				<speed>0.000000</speed>
				<ele>260.000000</ele>
				<time>2026-08-17T03:17:50Z</time>
			</trkpt>
			<trkpt lat="30.232293" lon="120.102064">
				<speed>0.000000</speed>
				<ele>260.000000</ele>
				<time>2026-08-17T03:17:51Z</time>
			</trkpt>
			<trkpt lat="30.232293" lon="120.102052">
				<speed>0.000000</speed>
				<ele>259.000000</ele>
				<time>2026-08-17T03:17:52Z</time>
			</trkpt>
			<trkpt lat="30.232293" lon="120.102041">
				<speed>0.000000</speed>
				<ele>259.000000</ele>
				<time>2026-08-17T03:17:53Z</time>
			</trkpt>
			<trkpt lat="30.232291" lon="120.102013">
				<speed>0.000000</speed>
				<ele>258.000000</ele>
				<time>2026-08-17T03:17:54Z</time>
			</trkpt>
			<trkpt lat="30.232291" lon="120.102006">
				<speed>0.000000</speed>
				<ele>257.000000</ele>
				<time>2026-08-17T03:17:55Z</time>
			</trkpt>
			<trkpt lat="30.232290" lon="120.102000">
				<speed>0.000000</speed>
				<ele>256.000000</ele>
				<time>2026-08-17T03:17:56Z</time>
			</trkpt>
			<trkpt lat="30.232290" lon="120.101993">
				<speed>0.000000</speed>
				<ele>256.000000</ele>
				<time>2026-08-17T03:17:57Z</time>
			</trkpt>
			<trkpt lat="30.232291" lon="120.101975">
				<speed>0.000000</speed>
				<ele>255.000000</ele>
				<time>2026-08-17T03:17:58Z</time>
			</trkpt>
			<trkpt lat="30.232292" lon="120.101968">
				<speed>0.000000</speed>
				<ele>255.000000</ele>
				<time>2026-08-17T03:17:59Z</time>
			</trkpt>
			<trkpt lat="30.232294" lon="120.101961">
				<speed>0.000000</speed>
				<ele>254.000000</ele>
				<time>2026-08-17T03:18:00Z</time>
			</trkpt>
			<trkpt lat="30.232295" lon="120.101954">
				<speed>0.000000</speed>
				<ele>254.000000</ele>
				<time>2026-08-17T03:18:01Z</time>
			</trkpt>
			<trkpt lat="30.232304" lon="120.101932">
				<speed>0.000000</speed>
				<ele>253.000000</ele>
				<time>2026-08-17T03:18:02Z</time>
			</trkpt>
			<trkpt lat="30.232308" lon="120.101924">
				<speed>0.000000</speed>
				<ele>252.000000</ele>
				<time>2026-08-17T03:18:03Z</time>
			</trkpt>
			<trkpt lat="30.232311" lon="120.101917">
				<speed>0.000000</speed>
				<ele>251.000000</ele>
				<time>2026-08-17T03:18:04Z</time>
			</trkpt>
			<trkpt lat="30.232314" lon="120.101909">
				<speed>0.000000</speed>
				<ele>251.000000</ele>
				<time>2026-08-17T03:18:05Z</time>
			</trkpt>
			<trkpt lat="30.232323" lon="120.101888">
				<speed>0.000000</speed>
				<ele>250.000000</ele>
				<time>2026-08-17T03:18:06Z</time>
			</trkpt>
			<trkpt lat="30.232326" lon="120.101881">
				<speed>0.000000</speed>
				<ele>250.000000</ele>
				<time>2026-08-17T03:18:07Z</time>
			</trkpt>
			<trkpt lat="30.232329" lon="120.101874">
				<speed>0.000000</speed>
				<ele>249.000000</ele>
				<time>2026-08-17T03:18:08Z</time>
			</trkpt>
			<trkpt lat="30.232332" lon="120.101867">
				<speed>0.000000</speed>
				<ele>249.000000</ele>
				<time>2026-08-17T03:18:09Z</time>
			</trkpt>
			<trkpt lat="30.232342" lon="120.101848">
				<speed>0.000000</speed>
				<ele>248.000000</ele>
				<time>2026-08-17T03:18:10Z</time>
			</trkpt>
			<trkpt lat="30.232345" lon="120.101843">
				<speed>0.000000</speed>
				<ele>248.000000</ele>
				<time>2026-08-17T03:18:11Z</time>
			</trkpt>
			<trkpt lat="30.232348" lon="120.101837">
				<speed>0.000000</speed>
				<ele>247.000000</ele>
				<time>2026-08-17T03:18:12Z</time>
			</trkpt>
			<trkpt lat="30.232351" lon="120.101831">
				<speed>0.000000</speed>
				<ele>247.000000</ele>
				<time>2026-08-17T03:18:13Z</time>
			</trkpt>
			<trkpt lat="30.232362" lon="120.101815">
				<speed>0.000000</speed>
				<ele>246.000000</ele>
				<time>2026-08-17T03:18:14Z</time>
			</trkpt>
			<trkpt lat="30.232367" lon="120.101810">
				<speed>0.000000</speed>
				<ele>246.000000</ele>
				<time>2026-08-17T03:18:15Z</time>
			</trkpt>
			<trkpt lat="30.232371" lon="120.101804">
				<speed>0.000000</speed>
				<ele>246.000000</ele>
				<time>2026-08-17T03:18:16Z</time>
			</trkpt>
			<trkpt lat="30.232376" lon="120.101799">
				<speed>0.000000</speed>
				<ele>246.000000</ele>
				<time>2026-08-17T03:18:17Z</time>
			</trkpt>
			<trkpt lat="30.232394" lon="120.101779">
				<speed>0.000000</speed>
				<ele>245.000000</ele>
				<time>2026-08-17T03:18:18Z</time>
			</trkpt>
			<trkpt lat="30.232400" lon="120.101769">
				<speed>0.000000</speed>
				<ele>245.000000</ele>
				<time>2026-08-17T03:18:19Z</time>
			</trkpt>
			<trkpt lat="30.232406" lon="120.101759">
				<speed>0.000000</speed>
				<ele>244.000000</ele>
				<time>2026-08-17T03:18:20Z</time>
			</trkpt>
			<trkpt lat="30.232412" lon="120.101749">
				<speed>0.000000</speed>
				<ele>244.000000</ele>
				<time>2026-08-17T03:18:21Z</time>
			</trkpt>
			<trkpt lat="30.232432" lon="120.101706">
				<speed>0.000000</speed>
				<ele>243.000000</ele>
				<time>2026-08-17T03:18:22Z</time>
			</trkpt>
			<trkpt lat="30.232440" lon="120.101689">
				<speed>0.000000</speed>
				<ele>243.000000</ele>
				<time>2026-08-17T03:18:23Z</time>
			</trkpt>
			<trkpt lat="30.232448" lon="120.101671">
				<speed>0.000000</speed>
				<ele>243.000000</ele>
				<time>2026-08-17T03:18:24Z</time>
			</trkpt>
			<trkpt lat="30.232457" lon="120.101653">
				<speed>0.000000</speed>
				<ele>243.000000</ele>
				<time>2026-08-17T03:18:25Z</time>
			</trkpt>
			<trkpt lat="30.232485" lon="120.101599">
				<speed>0.000000</speed>
				<ele>242.000000</ele>
				<time>2026-08-17T03:18:26Z</time>
			</trkpt>
			<trkpt lat="30.232494" lon="120.101585">
				<speed>0.000000</speed>
				<ele>242.000000</ele>
				<time>2026-08-17T03:18:27Z</time>
			</trkpt>
			<trkpt lat="30.232503" lon="120.101570">
				<speed>0.000000</speed>
				<ele>241.000000</ele>
				<time>2026-08-17T03:18:28Z</time>
			</trkpt>
			<trkpt lat="30.232512" lon="120.101555">
				<speed>0.000000</speed>
				<ele>241.000000</ele>
				<time>2026-08-17T03:18:29Z</time>
			</trkpt>
			<trkpt lat="30.232540" lon="120.101521">
				<speed>0.000000</speed>
				<ele>240.000000</ele>
				<time>2026-08-17T03:18:30Z</time>
			</trkpt>
			<trkpt lat="30.232551" lon="120.101512">
				<speed>0.000000</speed>
				<ele>239.000000</ele>
				<time>2026-08-17T03:18:31Z</time>
			</trkpt>
			<trkpt lat="30.232562" lon="120.101502">
				<speed>0.000000</speed>
				<ele>238.000000</ele>
				<time>2026-08-17T03:18:32Z</time>
			</trkpt>
			<trkpt lat="30.232573" lon="120.101493">
				<speed>0.000000</speed>
				<ele>238.000000</ele>
				<time>2026-08-17T03:18:33Z</time>
			</trkpt>
			<trkpt lat="30.232612" lon="120.101471">
				<speed>0.000000</speed>
				<ele>237.000000</ele>
				<time>2026-08-17T03:18:34Z</time>
			</trkpt>
			<trkpt lat="30.232627" lon="120.101463">
				<speed>0.000000</speed>
				<ele>236.000000</ele>
				<time>2026-08-17T03:18:35Z</time>
			</trkpt>
			<trkpt lat="30.232642" lon="120.101454">
				<speed>0.000000</speed>
				<ele>235.000000</ele>
				<time>2026-08-17T03:18:36Z</time>
			</trkpt>
			<trkpt lat="30.232656" lon="120.101446">
				<speed>0.000000</speed>
				<ele>235.000000</ele>
				<time>2026-08-17T03:18:37Z</time>
			</trkpt>
			<trkpt lat="30.232699" lon="120.101416">
				<speed>0.000000</speed>
				<ele>234.000000</ele>
				<time>2026-08-17T03:18:38Z</time>
			</trkpt>
			<trkpt lat="30.232710" lon="120.101403">
				<speed>0.000000</speed>
				<ele>233.000000</ele>
				<time>2026-08-17T03:18:39Z</time>
			</trkpt>
			<trkpt lat="30.232721" lon="120.101390">
				<speed>0.000000</speed>
				<ele>232.000000</ele>
				<time>2026-08-17T03:18:40Z</time>
			</trkpt>
			<trkpt lat="30.232732" lon="120.101377">
				<speed>0.000000</speed>
				<ele>232.000000</ele>
				<time>2026-08-17T03:18:41Z</time>
			</trkpt>
			<trkpt lat="30.232759" lon="120.101331">
				<speed>0.000000</speed>
				<ele>231.000000</ele>
				<time>2026-08-17T03:18:42Z</time>
			</trkpt>
			<trkpt lat="30.232768" lon="120.101317">
				<speed>0.000000</speed>
				<ele>230.000000</ele>
				<time>2026-08-17T03:18:43Z</time>
			</trkpt>
			<trkpt lat="30.232776" lon="120.101303">
				<speed>0.000000</speed>
				<ele>229.000000</ele>
				<time>2026-08-17T03:18:44Z</time>
			</trkpt>
			<trkpt lat="30.232784" lon="120.101290">
				<speed>0.000000</speed>
				<ele>229.000000</ele>
				<time>2026-08-17T03:18:45Z</time>
			</trkpt>
			<trkpt lat="30.232808" lon="120.101261">
				<speed>0.000000</speed>
				<ele>228.000000</ele>
				<time>2026-08-17T03:18:46Z</time>
			</trkpt>
			<trkpt lat="30.232814" lon="120.101257">
				<speed>0.000000</speed>
				<ele>227.000000</ele>
				<time>2026-08-17T03:18:47Z</time>
			</trkpt>
			<trkpt lat="30.232819" lon="120.101254">
				<speed>0.000000</speed>
				<ele>226.000000</ele>
				<time>2026-08-17T03:18:48Z</time>
			</trkpt>
			<trkpt lat="30.232825" lon="120.101250">
				<speed>0.000000</speed>
				<ele>226.000000</ele>
				<time>2026-08-17T03:18:49Z</time>
			</trkpt>
			<trkpt lat="30.232830" lon="120.101246">
				<speed>0.000000</speed>
				<ele>225.000000</ele>
				<time>2026-08-17T03:18:50Z</time>
			</trkpt>
			<trkpt lat="30.232845" lon="120.101241">
				<speed>0.000000</speed>
				<ele>224.000000</ele>
				<time>2026-08-17T03:18:51Z</time>
			</trkpt>
			<trkpt lat="30.232852" lon="120.101239">
				<speed>0.000000</speed>
				<ele>219.000000</ele>
				<time>2026-08-17T03:19:00Z</time>
			</trkpt>
			<trkpt lat="30.232860" lon="120.101235">
				<speed>0.000000</speed>
				<ele>219.000000</ele>
				<time>2026-08-17T03:19:01Z</time>
			</trkpt>
			<trkpt lat="30.232864" lon="120.101232">
				<speed>0.000000</speed>
				<ele>218.000000</ele>
				<time>2026-08-17T03:19:02Z</time>
			</trkpt>
			<trkpt lat="30.232867" lon="120.101229">
				<speed>0.000000</speed>
				<ele>218.000000</ele>
				<time>2026-08-17T03:19:03Z</time>
			</trkpt>
			<trkpt lat="30.232870" lon="120.101226">
				<speed>0.000000</speed>
				<ele>218.000000</ele>
				<time>2026-08-17T03:19:04Z</time>
			</trkpt>
			<trkpt lat="30.232881" lon="120.101205">
				<speed>0.000000</speed>
				<ele>218.000000</ele>
				<time>2026-08-17T03:19:05Z</time>
			</trkpt>
			<trkpt lat="30.232885" lon="120.101196">
				<speed>0.000000</speed>
				<ele>218.000000</ele>
				<time>2026-08-17T03:19:06Z</time>
			</trkpt>
			<trkpt lat="30.232890" lon="120.101186">
				<speed>0.000000</speed>
				<ele>218.000000</ele>
				<time>2026-08-17T03:19:07Z</time>
			</trkpt>
			<trkpt lat="30.232894" lon="120.101177">
				<speed>0.000000</speed>
				<ele>218.000000</ele>
				<time>2026-08-17T03:19:08Z</time>
			</trkpt>
			<trkpt lat="30.232914" lon="120.101145">
				<speed>0.000000</speed>
				<ele>218.000000</ele>
				<time>2026-08-17T03:19:09Z</time>
			</trkpt>
			<trkpt lat="30.232923" lon="120.101134">
				<speed>0.000000</speed>
				<ele>217.000000</ele>
				<time>2026-08-17T03:19:10Z</time>
			</trkpt>
			<trkpt lat="30.232931" lon="120.101123">
				<speed>0.000000</speed>
				<ele>217.000000</ele>
				<time>2026-08-17T03:19:11Z</time>
			</trkpt>
			<trkpt lat="30.232940" lon="120.101111">
				<speed>0.000000</speed>
				<ele>217.000000</ele>
				<time>2026-08-17T03:19:12Z</time>
			</trkpt>
			<trkpt lat="30.232970" lon="120.101074">
				<speed>0.000000</speed>
				<ele>217.000000</ele>
				<time>2026-08-17T03:19:13Z</time>
			</trkpt>
			<trkpt lat="30.232980" lon="120.101060">
				<speed>0.000000</speed>
				<ele>217.000000</ele>
				<time>2026-08-17T03:19:14Z</time>
			</trkpt>
			<trkpt lat="30.232990" lon="120.101047">
				<speed>0.000000</speed>
				<ele>217.000000</ele>
				<time>2026-08-17T03:19:15Z</time>
			</trkpt>
			<trkpt lat="30.233000" lon="120.101034">
				<speed>0.000000</speed>
				<ele>217.000000</ele>
				<time>2026-08-17T03:19:16Z</time>
			</trkpt>
			<trkpt lat="30.233022" lon="120.100999">
				<speed>0.000000</speed>
				<ele>217.000000</ele>
				<time>2026-08-17T03:19:17Z</time>
			</trkpt>
			<trkpt lat="30.233029" lon="120.100990">
				<speed>0.000000</speed>
				<ele>216.000000</ele>
				<time>2026-08-17T03:19:18Z</time>
			</trkpt>
			<trkpt lat="30.233036" lon="120.100981">
				<speed>0.000000</speed>
				<ele>216.000000</ele>
				<time>2026-08-17T03:19:19Z</time>
			</trkpt>
			<trkpt lat="30.233044" lon="120.100972">
				<speed>0.000000</speed>
				<ele>215.000000</ele>
				<time>2026-08-17T03:19:20Z</time>
			</trkpt>
			<trkpt lat="30.233066" lon="120.100954">
				<speed>0.000000</speed>
				<ele>215.000000</ele>
				<time>2026-08-17T03:19:21Z</time>
			</trkpt>
			<trkpt lat="30.233071" lon="120.100949">
				<speed>0.000000</speed>
				<ele>214.000000</ele>
				<time>2026-08-17T03:19:22Z</time>
			</trkpt>
			<trkpt lat="30.233077" lon="120.100944">
				<speed>0.000000</speed>
				<ele>214.000000</ele>
				<time>2026-08-17T03:19:23Z</time>
			</trkpt>
			<trkpt lat="30.233082" lon="120.100938">
				<speed>0.000000</speed>
				<ele>214.000000</ele>
				<time>2026-08-17T03:19:24Z</time>
			</trkpt>
			<trkpt lat="30.233091" lon="120.100917">
				<speed>0.000000</speed>
				<ele>214.000000</ele>
				<time>2026-08-17T03:19:25Z</time>
			</trkpt>
			<trkpt lat="30.233093" lon="120.100909">
				<speed>0.000000</speed>
				<ele>213.000000</ele>
				<time>2026-08-17T03:19:26Z</time>
			</trkpt>
			<trkpt lat="30.233095" lon="120.100900">
				<speed>0.000000</speed>
				<ele>213.000000</ele>
				<time>2026-08-17T03:19:27Z</time>
			</trkpt>
			<trkpt lat="30.233098" lon="120.100892">
				<speed>0.000000</speed>
				<ele>213.000000</ele>
				<time>2026-08-17T03:19:28Z</time>
			</trkpt>
			<trkpt lat="30.233110" lon="120.100866">
				<speed>0.000000</speed>
				<ele>213.000000</ele>
				<time>2026-08-17T03:19:29Z</time>
			</trkpt>
			<trkpt lat="30.233114" lon="120.100858">
				<speed>0.000000</speed>
				<ele>212.000000</ele>
				<time>2026-08-17T03:19:30Z</time>
			</trkpt>
			<trkpt lat="30.233119" lon="120.100850">
				<speed>0.000000</speed>
				<ele>212.000000</ele>
				<time>2026-08-17T03:19:31Z</time>
			</trkpt>
			<trkpt lat="30.233124" lon="120.100842">
				<speed>0.000000</speed>
				<ele>212.000000</ele>
				<time>2026-08-17T03:19:32Z</time>
			</trkpt>
			<trkpt lat="30.233139" lon="120.100816">
				<speed>0.000000</speed>
				<ele>212.000000</ele>
				<time>2026-08-17T03:19:33Z</time>
			</trkpt>
			<trkpt lat="30.233145" lon="120.100806">
				<speed>0.000000</speed>
				<ele>211.000000</ele>
				<time>2026-08-17T03:19:34Z</time>
			</trkpt>
			<trkpt lat="30.233152" lon="120.100796">
				<speed>0.000000</speed>
				<ele>211.000000</ele>
				<time>2026-08-17T03:19:35Z</time>
			</trkpt>
			<trkpt lat="30.233159" lon="120.100786">
				<speed>0.000000</speed>
				<ele>210.000000</ele>
				<time>2026-08-17T03:19:36Z</time>
			</trkpt>
			<trkpt lat="30.233183" lon="120.100753">
				<speed>0.000000</speed>
				<ele>210.000000</ele>
				<time>2026-08-17T03:19:37Z</time>
			</trkpt>
			<trkpt lat="30.233191" lon="120.100742">
				<speed>0.000000</speed>
				<ele>209.000000</ele>
				<time>2026-08-17T03:19:38Z</time>
			</trkpt>
			<trkpt lat="30.233199" lon="120.100732">
				<speed>0.000000</speed>
				<ele>209.000000</ele>
				<time>2026-08-17T03:19:39Z</time>
			</trkpt>
			<trkpt lat="30.233208" lon="120.100722">
				<speed>0.000000</speed>
				<ele>208.000000</ele>
				<time>2026-08-17T03:19:40Z</time>
			</trkpt>
			<trkpt lat="30.233231" lon="120.100699">
				<speed>0.000000</speed>
				<ele>208.000000</ele>
				<time>2026-08-17T03:19:41Z</time>
			</trkpt>
			<trkpt lat="30.233235" lon="120.100693">
				<speed>0.000000</speed>
				<ele>207.000000</ele>
				<time>2026-08-17T03:19:42Z</time>
			</trkpt>
			<trkpt lat="30.233239" lon="120.100687">
				<speed>0.000000</speed>
				<ele>207.000000</ele>
				<time>2026-08-17T03:19:43Z</time>
			</trkpt>
			<trkpt lat="30.233243" lon="120.100682">
				<speed>0.000000</speed>
				<ele>206.000000</ele>
				<time>2026-08-17T03:19:44Z</time>
			</trkpt>
			<trkpt lat="30.233246" lon="120.100663">
				<speed>0.000000</speed>
				<ele>206.000000</ele>
				<time>2026-08-17T03:19:45Z</time>
			</trkpt>
			<trkpt lat="30.233247" lon="120.100655">
				<speed>0.000000</speed>
				<ele>205.000000</ele>
				<time>2026-08-17T03:19:46Z</time>
			</trkpt>
			<trkpt lat="30.233249" lon="120.100648">
				<speed>0.000000</speed>
				<ele>205.000000</ele>
				<time>2026-08-17T03:19:47Z</time>
			</trkpt>
			<trkpt lat="30.233250" lon="120.100640">
				<speed>0.000000</speed>
				<ele>204.000000</ele>
				<time>2026-08-17T03:19:48Z</time>
			</trkpt>
			<trkpt lat="30.233263" lon="120.100616">
				<speed>0.000000</speed>
				<ele>204.000000</ele>
				<time>2026-08-17T03:19:49Z</time>
			</trkpt>
			<trkpt lat="30.233270" lon="120.100609">
				<speed>0.000000</speed>
				<ele>203.000000</ele>
				<time>2026-08-17T03:19:50Z</time>
			</trkpt>
			<trkpt lat="30.233276" lon="120.100602">
				<speed>0.000000</speed>
				<ele>202.000000</ele>
				<time>2026-08-17T03:19:51Z</time>
			</trkpt>
			<trkpt lat="30.233283" lon="120.100595">
				<speed>0.000000</speed>
				<ele>201.000000</ele>
				<time>2026-08-17T03:19:52Z</time>
			</trkpt>
			<trkpt lat="30.233305" lon="120.100577">
				<speed>0.000000</speed>
				<ele>201.000000</ele>
				<time>2026-08-17T03:19:53Z</time>
			</trkpt>
			<trkpt lat="30.233312" lon="120.100571">
				<speed>0.000000</speed>
				<ele>200.000000</ele>
				<time>2026-08-17T03:19:54Z</time>
			</trkpt>
			<trkpt lat="30.233318" lon="120.100565">
				<speed>0.000000</speed>
				<ele>200.000000</ele>
				<time>2026-08-17T03:19:55Z</time>
			</trkpt>
			<trkpt lat="30.233325" lon="120.100559">
				<speed>0.000000</speed>
				<ele>200.000000</ele>
				<time>2026-08-17T03:19:56Z</time>
			</trkpt>
			<trkpt lat="30.233342" lon="120.100535">
				<speed>0.000000</speed>
				<ele>200.000000</ele>
				<time>2026-08-17T03:19:57Z</time>
			</trkpt>
			<trkpt lat="30.233348" lon="120.100527">
				<speed>0.000000</speed>
				<ele>199.000000</ele>
				<time>2026-08-17T03:19:58Z</time>
			</trkpt>
			<trkpt lat="30.233353" lon="120.100519">
				<speed>0.000000</speed>
				<ele>199.000000</ele>
				<time>2026-08-17T03:19:59Z</time>
			</trkpt>
			<trkpt lat="30.233359" lon="120.100511">
				<speed>0.000000</speed>
				<ele>198.000000</ele>
				<time>2026-08-17T03:20:00Z</time>
			</trkpt>
			<trkpt lat="30.233376" lon="120.100485">
				<speed>0.000000</speed>
				<ele>198.000000</ele>
				<time>2026-08-17T03:20:01Z</time>
			</trkpt>
			<trkpt lat="30.233381" lon="120.100477">
				<speed>0.000000</speed>
				<ele>197.000000</ele>
				<time>2026-08-17T03:20:02Z</time>
			</trkpt>
			<trkpt lat="30.233387" lon="120.100470">
				<speed>0.000000</speed>
				<ele>197.000000</ele>
				<time>2026-08-17T03:20:03Z</time>
			</trkpt>
			<trkpt lat="30.233392" lon="120.100462">
				<speed>0.000000</speed>
				<ele>196.000000</ele>
				<time>2026-08-17T03:20:04Z</time>
			</trkpt>
			<trkpt lat="30.233408" lon="120.100445">
				<speed>0.000000</speed>
				<ele>196.000000</ele>
				<time>2026-08-17T03:20:05Z</time>
			</trkpt>
			<trkpt lat="30.233414" lon="120.100439">
				<speed>0.000000</speed>
				<ele>195.000000</ele>
				<time>2026-08-17T03:20:06Z</time>
			</trkpt>
			<trkpt lat="30.233420" lon="120.100434">
				<speed>0.000000</speed>
				<ele>195.000000</ele>
				<time>2026-08-17T03:20:07Z</time>
			</trkpt>
			<trkpt lat="30.233425" lon="120.100429">
				<speed>0.000000</speed>
				<ele>195.000000</ele>
				<time>2026-08-17T03:20:08Z</time>
			</trkpt>
			<trkpt lat="30.233442" lon="120.100415">
				<speed>0.000000</speed>
				<ele>195.000000</ele>
				<time>2026-08-17T03:20:09Z</time>
			</trkpt>
			<trkpt lat="30.233446" lon="120.100410">
				<speed>0.000000</speed>
				<ele>194.000000</ele>
				<time>2026-08-17T03:20:10Z</time>
			</trkpt>
			<trkpt lat="30.233450" lon="120.100406">
				<speed>0.000000</speed>
				<ele>194.000000</ele>
				<time>2026-08-17T03:20:11Z</time>
			</trkpt>
			<trkpt lat="30.233454" lon="120.100402">
				<speed>0.000000</speed>
				<ele>193.000000</ele>
				<time>2026-08-17T03:20:12Z</time>
			</trkpt>
			<trkpt lat="30.233466" lon="120.100388">
				<speed>0.000000</speed>
				<ele>193.000000</ele>
				<time>2026-08-17T03:20:13Z</time>
			</trkpt>
			<trkpt lat="30.233471" lon="120.100383">
				<speed>0.000000</speed>
				<ele>192.000000</ele>
				<time>2026-08-17T03:20:14Z</time>
			</trkpt>
			<trkpt lat="30.233476" lon="120.100378">
				<speed>0.000000</speed>
				<ele>192.000000</ele>
				<time>2026-08-17T03:20:15Z</time>
			</trkpt>
			<trkpt lat="30.233482" lon="120.100374">
				<speed>0.000000</speed>
				<ele>191.000000</ele>
				<time>2026-08-17T03:20:16Z</time>
			</trkpt>
			<trkpt lat="30.233499" lon="120.100359">
				<speed>0.000000</speed>
				<ele>191.000000</ele>
				<time>2026-08-17T03:20:17Z</time>
			</trkpt>
			<trkpt lat="30.233505" lon="120.100355">
				<speed>0.000000</speed>
				<ele>190.000000</ele>
				<time>2026-08-17T03:20:18Z</time>
			</trkpt>
			<trkpt lat="30.233512" lon="120.100352">
				<speed>0.000000</speed>
				<ele>190.000000</ele>
				<time>2026-08-17T03:20:19Z</time>
			</trkpt>
			<trkpt lat="30.233518" lon="120.100349">
				<speed>0.000000</speed>
				<ele>189.000000</ele>
				<time>2026-08-17T03:20:20Z</time>
			</trkpt>
			<trkpt lat="30.233536" lon="120.100340">
				<speed>0.000000</speed>
				<ele>189.000000</ele>
				<time>2026-08-17T03:20:21Z</time>
			</trkpt>
			<trkpt lat="30.233541" lon="120.100337">
				<speed>0.000000</speed>
				<ele>188.000000</ele>
				<time>2026-08-17T03:20:22Z</time>
			</trkpt>
			<trkpt lat="30.233547" lon="120.100333">
				<speed>0.000000</speed>
				<ele>188.000000</ele>
				<time>2026-08-17T03:20:23Z</time>
			</trkpt>
			<trkpt lat="30.233552" lon="120.100330">
				<speed>0.000000</speed>
				<ele>187.000000</ele>
				<time>2026-08-17T03:20:24Z</time>
			</trkpt>
			<trkpt lat="30.233563" lon="120.100312">
				<speed>0.000000</speed>
				<ele>187.000000</ele>
				<time>2026-08-17T03:20:25Z</time>
			</trkpt>
			<trkpt lat="30.233565" lon="120.100305">
				<speed>0.000000</speed>
				<ele>186.000000</ele>
				<time>2026-08-17T03:20:26Z</time>
			</trkpt>
			<trkpt lat="30.233567" lon="120.100298">
				<speed>0.000000</speed>
				<ele>186.000000</ele>
				<time>2026-08-17T03:20:27Z</time>
			</trkpt>
			<trkpt lat="30.233569" lon="120.100291">
				<speed>0.000000</speed>
				<ele>186.000000</ele>
				<time>2026-08-17T03:20:28Z</time>
			</trkpt>
			<trkpt lat="30.233572" lon="120.100270">
				<speed>0.000000</speed>
				<ele>186.000000</ele>
				<time>2026-08-17T03:20:29Z</time>
			</trkpt>
			<trkpt lat="30.233572" lon="120.100262">
				<speed>0.000000</speed>
				<ele>185.000000</ele>
				<time>2026-08-17T03:20:30Z</time>
			</trkpt>
			<trkpt lat="30.233572" lon="120.100254">
				<speed>0.000000</speed>
				<ele>185.000000</ele>
				<time>2026-08-17T03:20:31Z</time>
			</trkpt>
			<trkpt lat="30.233571" lon="120.100247">
				<speed>0.000000</speed>
				<ele>185.000000</ele>
				<time>2026-08-17T03:20:32Z</time>
			</trkpt>
			<trkpt lat="30.233568" lon="120.100221">
				<speed>0.000000</speed>
				<ele>185.000000</ele>
				<time>2026-08-17T03:20:33Z</time>
			</trkpt>
			<trkpt lat="30.233568" lon="120.100212">
				<speed>0.000000</speed>
				<ele>184.000000</ele>
				<time>2026-08-17T03:20:34Z</time>
			</trkpt>
			<trkpt lat="30.233567" lon="120.100203">
				<speed>0.000000</speed>
				<ele>184.000000</ele>
				<time>2026-08-17T03:20:35Z</time>
			</trkpt>
			<trkpt lat="30.233567" lon="120.100194">
				<speed>0.000000</speed>
				<ele>183.000000</ele>
				<time>2026-08-17T03:20:36Z</time>
			</trkpt>
			<trkpt lat="30.233571" lon="120.100164">
				<speed>0.000000</speed>
				<ele>183.000000</ele>
				<time>2026-08-17T03:20:37Z</time>
			</trkpt>
			<trkpt lat="30.233576" lon="120.100153">
				<speed>0.000000</speed>
				<ele>182.000000</ele>
				<time>2026-08-17T03:20:38Z</time>
			</trkpt>
			<trkpt lat="30.233580" lon="120.100142">
				<speed>0.000000</speed>
				<ele>182.000000</ele>
				<time>2026-08-17T03:20:39Z</time>
			</trkpt>
			<trkpt lat="30.233585" lon="120.100130">
				<speed>0.000000</speed>
				<ele>181.000000</ele>
				<time>2026-08-17T03:20:40Z</time>
			</trkpt>
			<trkpt lat="30.233605" lon="120.100093">
				<speed>0.000000</speed>
				<ele>181.000000</ele>
				<time>2026-08-17T03:20:41Z</time>
			</trkpt>
			<trkpt lat="30.233613" lon="120.100082">
				<speed>0.000000</speed>
				<ele>180.000000</ele>
				<time>2026-08-17T03:20:42Z</time>
			</trkpt>
			<trkpt lat="30.233620" lon="120.100071">
				<speed>0.000000</speed>
				<ele>180.000000</ele>
				<time>2026-08-17T03:20:43Z</time>
			</trkpt>
			<trkpt lat="30.233628" lon="120.100060">
				<speed>0.000000</speed>
				<ele>180.000000</ele>
				<time>2026-08-17T03:20:44Z</time>
			</trkpt>
			<trkpt lat="30.233648" lon="120.100035">
				<speed>0.000000</speed>
				<ele>180.000000</ele>
				<time>2026-08-17T03:20:45Z</time>
			</trkpt>
			<trkpt lat="30.233653" lon="120.100028">
				<speed>0.000000</speed>
				<ele>179.000000</ele>
				<time>2026-08-17T03:20:46Z</time>
			</trkpt>
			<trkpt lat="30.233658" lon="120.100021">
				<speed>0.000000</speed>
				<ele>179.000000</ele>
				<time>2026-08-17T03:20:47Z</time>
			</trkpt>
			<trkpt lat="30.233663" lon="120.100014">
				<speed>0.000000</speed>
				<ele>179.000000</ele>
				<time>2026-08-17T03:20:48Z</time>
			</trkpt>
			<trkpt lat="30.233675" lon="120.099994">
				<speed>0.000000</speed>
				<ele>179.000000</ele>
				<time>2026-08-17T03:20:49Z</time>
			</trkpt>
			<trkpt lat="30.233679" lon="120.099987">
				<speed>0.000000</speed>
				<ele>178.000000</ele>
				<time>2026-08-17T03:20:50Z</time>
			</trkpt>
			<trkpt lat="30.233683" lon="120.099979">
				<speed>0.000000</speed>
				<ele>178.000000</ele>
				<time>2026-08-17T03:20:51Z</time>
			</trkpt>
			<trkpt lat="30.233687" lon="120.099972">
				<speed>0.000000</speed>
				<ele>177.000000</ele>
				<time>2026-08-17T03:20:52Z</time>
			</trkpt>
			<trkpt lat="30.233702" lon="120.099950">
				<speed>0.000000</speed>
				<ele>177.000000</ele>
				<time>2026-08-17T03:20:53Z</time>
			</trkpt>
			<trkpt lat="30.233707" lon="120.099944">
				<speed>0.000000</speed>
				<ele>176.000000</ele>
				<time>2026-08-17T03:20:54Z</time>
			</trkpt>
			<trkpt lat="30.233712" lon="120.099937">
				<speed>0.000000</speed>
				<ele>176.000000</ele>
				<time>2026-08-17T03:20:55Z</time>
			</trkpt>
			<trkpt lat="30.233718" lon="120.099931">
				<speed>0.000000</speed>
				<ele>175.000000</ele>
				<time>2026-08-17T03:20:56Z</time>
			</trkpt>
			<trkpt lat="30.233735" lon="120.099911">
				<speed>0.000000</speed>
				<ele>175.000000</ele>
				<time>2026-08-17T03:20:57Z</time>
			</trkpt>
			<trkpt lat="30.233742" lon="120.099907">
				<speed>0.000000</speed>
				<ele>174.000000</ele>
				<time>2026-08-17T03:20:58Z</time>
			</trkpt>
			<trkpt lat="30.233749" lon="120.099902">
				<speed>0.000000</speed>
				<ele>174.000000</ele>
				<time>2026-08-17T03:20:59Z</time>
			</trkpt>
			<trkpt lat="30.233755" lon="120.099897">
				<speed>0.000000</speed>
				<ele>173.000000</ele>
				<time>2026-08-17T03:21:00Z</time>
			</trkpt>
			<trkpt lat="30.233776" lon="120.099884">
				<speed>0.000000</speed>
				<ele>173.000000</ele>
				<time>2026-08-17T03:21:01Z</time>
			</trkpt>
			<trkpt lat="30.233783" lon="120.099880">
				<speed>0.000000</speed>
				<ele>172.000000</ele>
				<time>2026-08-17T03:21:02Z</time>
			</trkpt>
			<trkpt lat="30.233791" lon="120.099876">
				<speed>0.000000</speed>
				<ele>172.000000</ele>
				<time>2026-08-17T03:21:03Z</time>
			</trkpt>
			<trkpt lat="30.233798" lon="120.099872">
				<speed>0.000000</speed>
				<ele>171.000000</ele>
				<time>2026-08-17T03:21:04Z</time>
			</trkpt>
			<trkpt lat="30.233820" lon="120.099857">
				<speed>0.000000</speed>
				<ele>171.000000</ele>
				<time>2026-08-17T03:21:05Z</time>
			</trkpt>
			<trkpt lat="30.233825" lon="120.099850">
				<speed>0.000000</speed>
				<ele>170.000000</ele>
				<time>2026-08-17T03:21:06Z</time>
			</trkpt>
			<trkpt lat="30.233830" lon="120.099844">
				<speed>0.000000</speed>
				<ele>170.000000</ele>
				<time>2026-08-17T03:21:07Z</time>
			</trkpt>
			<trkpt lat="30.233836" lon="120.099837">
				<speed>0.000000</speed>
				<ele>170.000000</ele>
				<time>2026-08-17T03:21:08Z</time>
			</trkpt>
			<trkpt lat="30.233846" lon="120.099816">
				<speed>0.000000</speed>
				<ele>170.000000</ele>
				<time>2026-08-17T03:21:09Z</time>
			</trkpt>
			<trkpt lat="30.233850" lon="120.099810">
				<speed>0.000000</speed>
				<ele>169.000000</ele>
				<time>2026-08-17T03:21:10Z</time>
			</trkpt>
			<trkpt lat="30.233853" lon="120.099804">
				<speed>0.000000</speed>
				<ele>169.000000</ele>
				<time>2026-08-17T03:21:11Z</time>
			</trkpt>
			<trkpt lat="30.233857" lon="120.099798">
				<speed>0.000000</speed>
				<ele>168.000000</ele>
				<time>2026-08-17T03:21:12Z</time>
			</trkpt>
			<trkpt lat="30.233871" lon="120.099778">
				<speed>0.000000</speed>
				<ele>168.000000</ele>
				<time>2026-08-17T03:21:13Z</time>
			</trkpt>
			<trkpt lat="30.233876" lon="120.099771">
				<speed>0.000000</speed>
				<ele>167.000000</ele>
				<time>2026-08-17T03:21:14Z</time>
			</trkpt>
			<trkpt lat="30.233881" lon="120.099764">
				<speed>0.000000</speed>
				<ele>167.000000</ele>
				<time>2026-08-17T03:21:15Z</time>
			</trkpt>
			<trkpt lat="30.233886" lon="120.099758">
				<speed>0.000000</speed>
				<ele>167.000000</ele>
				<time>2026-08-17T03:21:16Z</time>
			</trkpt>
			<trkpt lat="30.233901" lon="120.099742">
				<speed>0.000000</speed>
				<ele>167.000000</ele>
				<time>2026-08-17T03:21:17Z</time>
			</trkpt>
			<trkpt lat="30.233906" lon="120.099739">
				<speed>0.000000</speed>
				<ele>166.000000</ele>
				<time>2026-08-17T03:21:18Z</time>
			</trkpt>
			<trkpt lat="30.233910" lon="120.099735">
				<speed>0.000000</speed>
				<ele>166.000000</ele>
				<time>2026-08-17T03:21:19Z</time>
			</trkpt>
			<trkpt lat="30.233915" lon="120.099732">
				<speed>0.000000</speed>
				<ele>166.000000</ele>
				<time>2026-08-17T03:21:20Z</time>
			</trkpt>
			<trkpt lat="30.233927" lon="120.099724">
				<speed>0.000000</speed>
				<ele>166.000000</ele>
				<time>2026-08-17T03:21:21Z</time>
			</trkpt>
			<trkpt lat="30.233934" lon="120.099718">
				<speed>0.000000</speed>
				<ele>161.000000</ele>
				<time>2026-08-17T03:21:32Z</time>
			</trkpt>
			<trkpt lat="30.233943" lon="120.099708">
				<speed>0.000000</speed>
				<ele>161.000000</ele>
				<time>2026-08-17T03:21:33Z</time>
			</trkpt>
			<trkpt lat="30.233946" lon="120.099703">
				<speed>0.000000</speed>
				<ele>160.000000</ele>
				<time>2026-08-17T03:21:34Z</time>
			</trkpt>
			<trkpt lat="30.233950" lon="120.099698">
				<speed>0.000000</speed>
				<ele>160.000000</ele>
				<time>2026-08-17T03:21:35Z</time>
			</trkpt>
			<trkpt lat="30.233953" lon="120.099693">
				<speed>0.000000</speed>
				<ele>160.000000</ele>
				<time>2026-08-17T03:21:36Z</time>
			</trkpt>
			<trkpt lat="30.233968" lon="120.099669">
				<speed>0.000000</speed>
				<ele>160.000000</ele>
				<time>2026-08-17T03:21:37Z</time>
			</trkpt>
			<trkpt lat="30.233975" lon="120.099658">
				<speed>0.000000</speed>
				<ele>160.000000</ele>
				<time>2026-08-17T03:21:38Z</time>
			</trkpt>
			<trkpt lat="30.233982" lon="120.099646">
				<speed>0.000000</speed>
				<ele>160.000000</ele>
				<time>2026-08-17T03:21:39Z</time>
			</trkpt>
			<trkpt lat="30.233990" lon="120.099635">
				<speed>0.000000</speed>
				<ele>160.000000</ele>
				<time>2026-08-17T03:21:40Z</time>
			</trkpt>
			<trkpt lat="30.234016" lon="120.099593">
				<speed>0.000000</speed>
				<ele>160.000000</ele>
				<time>2026-08-17T03:21:41Z</time>
			</trkpt>
			<trkpt lat="30.234025" lon="120.099578">
				<speed>0.000000</speed>
				<ele>159.000000</ele>
				<time>2026-08-17T03:21:42Z</time>
			</trkpt>
			<trkpt lat="30.234034" lon="120.099563">
				<speed>0.000000</speed>
				<ele>159.000000</ele>
				<time>2026-08-17T03:21:43Z</time>
			</trkpt>
			<trkpt lat="30.234043" lon="120.099548">
				<speed>0.000000</speed>
				<ele>159.000000</ele>
				<time>2026-08-17T03:21:44Z</time>
			</trkpt>
			<trkpt lat="30.234069" lon="120.099505">
				<speed>0.000000</speed>
				<ele>159.000000</ele>
				<time>2026-08-17T03:21:45Z</time>
			</trkpt>
			<trkpt lat="30.234078" lon="120.099492">
				<speed>0.000000</speed>
				<ele>158.000000</ele>
				<time>2026-08-17T03:21:46Z</time>
			</trkpt>
			<trkpt lat="30.234087" lon="120.099479">
				<speed>0.000000</speed>
				<ele>158.000000</ele>
				<time>2026-08-17T03:21:47Z</time>
			</trkpt>
			<trkpt lat="30.234096" lon="120.099467">
				<speed>0.000000</speed>
				<ele>158.000000</ele>
				<time>2026-08-17T03:21:48Z</time>
			</trkpt>
			<trkpt lat="30.234117" lon="120.099435">
				<speed>0.000000</speed>
				<ele>158.000000</ele>
				<time>2026-08-17T03:21:49Z</time>
			</trkpt>
			<trkpt lat="30.234122" lon="120.099427">
				<speed>0.000000</speed>
				<ele>157.000000</ele>
				<time>2026-08-17T03:21:50Z</time>
			</trkpt>
			<trkpt lat="30.234127" lon="120.099418">
				<speed>0.000000</speed>
				<ele>157.000000</ele>
				<time>2026-08-17T03:21:51Z</time>
			</trkpt>
			<trkpt lat="30.234132" lon="120.099410">
				<speed>0.000000</speed>
				<ele>156.000000</ele>
				<time>2026-08-17T03:21:52Z</time>
			</trkpt>
			<trkpt lat="30.234145" lon="120.099387">
				<speed>0.000000</speed>
				<ele>156.000000</ele>
				<time>2026-08-17T03:21:53Z</time>
			</trkpt>
			<trkpt lat="30.234150" lon="120.099381">
				<speed>0.000000</speed>
				<ele>155.000000</ele>
				<time>2026-08-17T03:21:54Z</time>
			</trkpt>
			<trkpt lat="30.234155" lon="120.099373">
				<speed>0.000000</speed>
				<ele>154.000000</ele>
				<time>2026-08-17T03:21:55Z</time>
			</trkpt>
			<trkpt lat="30.234159" lon="120.099367">
				<speed>0.000000</speed>
				<ele>153.000000</ele>
				<time>2026-08-17T03:21:56Z</time>
			</trkpt>
			<trkpt lat="30.234173" lon="120.099347">
				<speed>0.000000</speed>
				<ele>153.000000</ele>
				<time>2026-08-17T03:21:57Z</time>
			</trkpt>
			<trkpt lat="30.234178" lon="120.099340">
				<speed>0.000000</speed>
				<ele>152.000000</ele>
				<time>2026-08-17T03:21:58Z</time>
			</trkpt>
			<trkpt lat="30.234183" lon="120.099333">
				<speed>0.000000</speed>
				<ele>151.000000</ele>
				<time>2026-08-17T03:21:59Z</time>
			</trkpt>
			<trkpt lat="30.234188" lon="120.099327">
				<speed>0.000000</speed>
				<ele>150.000000</ele>
				<time>2026-08-17T03:22:00Z</time>
			</trkpt>
			<trkpt lat="30.234208" lon="120.099307">
				<speed>0.000000</speed>
				<ele>150.000000</ele>
				<time>2026-08-17T03:22:01Z</time>
			</trkpt>
			<trkpt lat="30.234214" lon="120.099301">
				<speed>0.000000</speed>
				<ele>149.000000</ele>
				<time>2026-08-17T03:22:02Z</time>
			</trkpt>
			<trkpt lat="30.234220" lon="120.099295">
				<speed>0.000000</speed>
				<ele>149.000000</ele>
				<time>2026-08-17T03:22:03Z</time>
			</trkpt>
			<trkpt lat="30.234225" lon="120.099289">
				<speed>0.000000</speed>
				<ele>148.000000</ele>
				<time>2026-08-17T03:22:04Z</time>
			</trkpt>
			<trkpt lat="30.234238" lon="120.099267">
				<speed>0.000000</speed>
				<ele>148.000000</ele>
				<time>2026-08-17T03:22:05Z</time>
			</trkpt>
			<trkpt lat="30.234242" lon="120.099259">
				<speed>0.000000</speed>
				<ele>147.000000</ele>
				<time>2026-08-17T03:22:06Z</time>
			</trkpt>
			<trkpt lat="30.234246" lon="120.099251">
				<speed>0.000000</speed>
				<ele>147.000000</ele>
				<time>2026-08-17T03:22:07Z</time>
			</trkpt>
			<trkpt lat="30.234250" lon="120.099243">
				<speed>0.000000</speed>
				<ele>147.000000</ele>
				<time>2026-08-17T03:22:08Z</time>
			</trkpt>
			<trkpt lat="30.234268" lon="120.099221">
				<speed>0.000000</speed>
				<ele>147.000000</ele>
				<time>2026-08-17T03:22:09Z</time>
			</trkpt>
			<trkpt lat="30.234276" lon="120.099215">
				<speed>0.000000</speed>
				<ele>146.000000</ele>
				<time>2026-08-17T03:22:10Z</time>
			</trkpt>
			<trkpt lat="30.234284" lon="120.099209">
				<speed>0.000000</speed>
				<ele>146.000000</ele>
				<time>2026-08-17T03:22:11Z</time>
			</trkpt>
			<trkpt lat="30.234293" lon="120.099203">
				<speed>0.000000</speed>
				<ele>145.000000</ele>
				<time>2026-08-17T03:22:12Z</time>
			</trkpt>
			<trkpt lat="30.234319" lon="120.099190">
				<speed>0.000000</speed>
				<ele>145.000000</ele>
				<time>2026-08-17T03:22:13Z</time>
			</trkpt>
			<trkpt lat="30.234327" lon="120.099184">
				<speed>0.000000</speed>
				<ele>144.000000</ele>
				<time>2026-08-17T03:22:14Z</time>
			</trkpt>
			<trkpt lat="30.234334" lon="120.099179">
				<speed>0.000000</speed>
				<ele>144.000000</ele>
				<time>2026-08-17T03:22:15Z</time>
			</trkpt>
			<trkpt lat="30.234342" lon="120.099173">
				<speed>0.000000</speed>
				<ele>143.000000</ele>
				<time>2026-08-17T03:22:16Z</time>
			</trkpt>
			<trkpt lat="30.234361" lon="120.099152">
				<speed>0.000000</speed>
				<ele>143.000000</ele>
				<time>2026-08-17T03:22:17Z</time>
			</trkpt>
			<trkpt lat="30.234367" lon="120.099144">
				<speed>0.000000</speed>
				<ele>142.000000</ele>
				<time>2026-08-17T03:22:18Z</time>
			</trkpt>
			<trkpt lat="30.234372" lon="120.099137">
				<speed>0.000000</speed>
				<ele>142.000000</ele>
				<time>2026-08-17T03:22:19Z</time>
			</trkpt>
			<trkpt lat="30.234378" lon="120.099130">
				<speed>0.000000</speed>
				<ele>141.000000</ele>
				<time>2026-08-17T03:22:20Z</time>
			</trkpt>
			<trkpt lat="30.234392" lon="120.099107">
				<speed>0.000000</speed>
				<ele>141.000000</ele>
				<time>2026-08-17T03:22:21Z</time>
			</trkpt>
			<trkpt lat="30.234396" lon="120.099099">
				<speed>0.000000</speed>
				<ele>140.000000</ele>
				<time>2026-08-17T03:22:22Z</time>
			</trkpt>
			<trkpt lat="30.234399" lon="120.099092">
				<speed>0.000000</speed>
				<ele>140.000000</ele>
				<time>2026-08-17T03:22:23Z</time>
			</trkpt>
			<trkpt lat="30.234403" lon="120.099085">
				<speed>0.000000</speed>
				<ele>139.000000</ele>
				<time>2026-08-17T03:22:24Z</time>
			</trkpt>
			<trkpt lat="30.234416" lon="120.099060">
				<speed>0.000000</speed>
				<ele>139.000000</ele>
				<time>2026-08-17T03:22:25Z</time>
			</trkpt>
			<trkpt lat="30.234421" lon="120.099053">
				<speed>0.000000</speed>
				<ele>138.000000</ele>
				<time>2026-08-17T03:22:26Z</time>
			</trkpt>
			<trkpt lat="30.234426" lon="120.099047">
				<speed>0.000000</speed>
				<ele>138.000000</ele>
				<time>2026-08-17T03:22:27Z</time>
			</trkpt>
			<trkpt lat="30.234432" lon="120.099041">
				<speed>0.000000</speed>
				<ele>137.000000</ele>
				<time>2026-08-17T03:22:28Z</time>
			</trkpt>
			<trkpt lat="30.234452" lon="120.099032">
				<speed>0.000000</speed>
				<ele>137.000000</ele>
				<time>2026-08-17T03:22:29Z</time>
			</trkpt>
			<trkpt lat="30.234460" lon="120.099030">
				<speed>0.000000</speed>
				<ele>136.000000</ele>
				<time>2026-08-17T03:22:30Z</time>
			</trkpt>
			<trkpt lat="30.234468" lon="120.099028">
				<speed>0.000000</speed>
				<ele>136.000000</ele>
				<time>2026-08-17T03:22:31Z</time>
			</trkpt>
			<trkpt lat="30.234475" lon="120.099027">
				<speed>0.000000</speed>
				<ele>135.000000</ele>
				<time>2026-08-17T03:22:32Z</time>
			</trkpt>
			<trkpt lat="30.234498" lon="120.099019">
				<speed>0.000000</speed>
				<ele>135.000000</ele>
				<time>2026-08-17T03:22:33Z</time>
			</trkpt>
			<trkpt lat="30.234504" lon="120.099014">
				<speed>0.000000</speed>
				<ele>134.000000</ele>
				<time>2026-08-17T03:22:34Z</time>
			</trkpt>
			<trkpt lat="30.234509" lon="120.099008">
				<speed>0.000000</speed>
				<ele>134.000000</ele>
				<time>2026-08-17T03:22:35Z</time>
			</trkpt>
			<trkpt lat="30.234515" lon="120.099002">
				<speed>0.000000</speed>
				<ele>133.000000</ele>
				<time>2026-08-17T03:22:36Z</time>
			</trkpt>
			<trkpt lat="30.234531" lon="120.098976">
				<speed>0.000000</speed>
				<ele>133.000000</ele>
				<time>2026-08-17T03:22:37Z</time>
			</trkpt>
			<trkpt lat="30.234537" lon="120.098967">
				<speed>0.000000</speed>
				<ele>132.000000</ele>
				<time>2026-08-17T03:22:38Z</time>
			</trkpt>
			<trkpt lat="30.234543" lon="120.098958">
				<speed>0.000000</speed>
				<ele>132.000000</ele>
				<time>2026-08-17T03:22:39Z</time>
			</trkpt>
			<trkpt lat="30.234549" lon="120.098949">
				<speed>0.000000</speed>
				<ele>131.000000</ele>
				<time>2026-08-17T03:22:40Z</time>
			</trkpt>
			<trkpt lat="30.234564" lon="120.098924">
				<speed>0.000000</speed>
				<ele>131.000000</ele>
				<time>2026-08-17T03:22:41Z</time>
			</trkpt>
			<trkpt lat="30.234568" lon="120.098916">
				<speed>0.000000</speed>
				<ele>130.000000</ele>
				<time>2026-08-17T03:22:42Z</time>
			</trkpt>
			<trkpt lat="30.234572" lon="120.098909">
				<speed>0.000000</speed>
				<ele>130.000000</ele>
				<time>2026-08-17T03:22:43Z</time>
			</trkpt>
			<trkpt lat="30.234576" lon="120.098901">
				<speed>0.000000</speed>
				<ele>129.000000</ele>
				<time>2026-08-17T03:22:44Z</time>
			</trkpt>
			<trkpt lat="30.234590" lon="120.098885">
				<speed>0.000000</speed>
				<ele>129.000000</ele>
				<time>2026-08-17T03:22:45Z</time>
			</trkpt>
			<trkpt lat="30.234596" lon="120.098880">
				<speed>0.000000</speed>
				<ele>128.000000</ele>
				<time>2026-08-17T03:22:46Z</time>
			</trkpt>
			<trkpt lat="30.234602" lon="120.098875">
				<speed>0.000000</speed>
				<ele>128.000000</ele>
				<time>2026-08-17T03:22:47Z</time>
			</trkpt>
			<trkpt lat="30.234608" lon="120.098870">
				<speed>0.000000</speed>
				<ele>127.000000</ele>
				<time>2026-08-17T03:22:48Z</time>
			</trkpt>
			<trkpt lat="30.234629" lon="120.098855">
				<speed>0.000000</speed>
				<ele>127.000000</ele>
				<time>2026-08-17T03:22:49Z</time>
			</trkpt>
			<trkpt lat="30.234637" lon="120.098851">
				<speed>0.000000</speed>
				<ele>126.000000</ele>
				<time>2026-08-17T03:22:50Z</time>
			</trkpt>
			<trkpt lat="30.234645" lon="120.098847">
				<speed>0.000000</speed>
				<ele>125.000000</ele>
				<time>2026-08-17T03:22:51Z</time>
			</trkpt>
			<trkpt lat="30.234654" lon="120.098844">
				<speed>0.000000</speed>
				<ele>124.000000</ele>
				<time>2026-08-17T03:22:52Z</time>
			</trkpt>
			<trkpt lat="30.234680" lon="120.098835">
				<speed>0.000000</speed>
				<ele>124.000000</ele>
				<time>2026-08-17T03:22:53Z</time>
			</trkpt>
			<trkpt lat="30.234688" lon="120.098833">
				<speed>0.000000</speed>
				<ele>123.000000</ele>
				<time>2026-08-17T03:22:54Z</time>
			</trkpt>
			<trkpt lat="30.234697" lon="120.098830">
				<speed>0.000000</speed>
				<ele>123.000000</ele>
				<time>2026-08-17T03:22:55Z</time>
			</trkpt>
			<trkpt lat="30.234705" lon="120.098828">
				<speed>0.000000</speed>
				<ele>122.000000</ele>
				<time>2026-08-17T03:22:56Z</time>
			</trkpt>
			<trkpt lat="30.234728" lon="120.098820">
				<speed>0.000000</speed>
				<ele>122.000000</ele>
				<time>2026-08-17T03:22:57Z</time>
			</trkpt>
			<trkpt lat="30.234735" lon="120.098817">
				<speed>0.000000</speed>
				<ele>121.000000</ele>
				<time>2026-08-17T03:22:58Z</time>
			</trkpt>
			<trkpt lat="30.234742" lon="120.098814">
				<speed>0.000000</speed>
				<ele>121.000000</ele>
				<time>2026-08-17T03:22:59Z</time>
			</trkpt>
			<trkpt lat="30.234750" lon="120.098811">
				<speed>0.000000</speed>
				<ele>120.000000</ele>
				<time>2026-08-17T03:23:00Z</time>
			</trkpt>
			<trkpt lat="30.234769" lon="120.098798">
				<speed>0.000000</speed>
				<ele>120.000000</ele>
				<time>2026-08-17T03:23:01Z</time>
			</trkpt>
			<trkpt lat="30.234774" lon="120.098793">
				<speed>0.000000</speed>
				<ele>119.000000</ele>
				<time>2026-08-17T03:23:02Z</time>
			</trkpt>
			<trkpt lat="30.234780" lon="120.098787">
				<speed>0.000000</speed>
				<ele>119.000000</ele>
				<time>2026-08-17T03:23:03Z</time>
			</trkpt>
			<trkpt lat="30.234785" lon="120.098781">
				<speed>0.000000</speed>
				<ele>118.000000</ele>
				<time>2026-08-17T03:23:04Z</time>
			</trkpt>
			<trkpt lat="30.234798" lon="120.098758">
				<speed>0.000000</speed>
				<ele>118.000000</ele>
				<time>2026-08-17T03:23:05Z</time>
			</trkpt>
			<trkpt lat="30.234802" lon="120.098749">
				<speed>0.000000</speed>
				<ele>117.000000</ele>
				<time>2026-08-17T03:23:06Z</time>
			</trkpt>
			<trkpt lat="30.234806" lon="120.098740">
				<speed>0.000000</speed>
				<ele>117.000000</ele>
				<time>2026-08-17T03:23:07Z</time>
			</trkpt>
			<trkpt lat="30.234810" lon="120.098731">
				<speed>0.000000</speed>
				<ele>117.000000</ele>
				<time>2026-08-17T03:23:08Z</time>
			</trkpt>
			<trkpt lat="30.234826" lon="120.098702">
				<speed>0.000000</speed>
				<ele>117.000000</ele>
				<time>2026-08-17T03:23:09Z</time>
			</trkpt>
			<trkpt lat="30.234833" lon="120.098695">
				<speed>0.000000</speed>
				<ele>116.000000</ele>
				<time>2026-08-17T03:23:10Z</time>
			</trkpt>
			<trkpt lat="30.234840" lon="120.098687">
				<speed>0.000000</speed>
				<ele>116.000000</ele>
				<time>2026-08-17T03:23:11Z</time>
			</trkpt>
			<trkpt lat="30.234848" lon="120.098680">
				<speed>0.000000</speed>
				<ele>116.000000</ele>
				<time>2026-08-17T03:23:12Z</time>
			</trkpt>
			<trkpt lat="30.234876" lon="120.098664">
				<speed>0.000000</speed>
				<ele>116.000000</ele>
				<time>2026-08-17T03:23:13Z</time>
			</trkpt>
			<trkpt lat="30.234887" lon="120.098661">
				<speed>0.000000</speed>
				<ele>115.000000</ele>
				<time>2026-08-17T03:23:14Z</time>
			</trkpt>
			<trkpt lat="30.234898" lon="120.098658">
				<speed>0.000000</speed>
				<ele>115.000000</ele>
				<time>2026-08-17T03:23:15Z</time>
			</trkpt>
			<trkpt lat="30.234909" lon="120.098655">
				<speed>0.000000</speed>
				<ele>114.000000</ele>
				<time>2026-08-17T03:23:16Z</time>
			</trkpt>
			<trkpt lat="30.234944" lon="120.098652">
				<speed>0.000000</speed>
				<ele>114.000000</ele>
				<time>2026-08-17T03:23:17Z</time>
			</trkpt>
			<trkpt lat="30.234956" lon="120.098653">
				<speed>0.000000</speed>
				<ele>113.000000</ele>
				<time>2026-08-17T03:23:18Z</time>
			</trkpt>
			<trkpt lat="30.234969" lon="120.098653">
				<speed>0.000000</speed>
				<ele>113.000000</ele>
				<time>2026-08-17T03:23:19Z</time>
			</trkpt>
			<trkpt lat="30.234981" lon="120.098654">
				<speed>0.000000</speed>
				<ele>113.000000</ele>
				<time>2026-08-17T03:23:20Z</time>
			</trkpt>
			<trkpt lat="30.235012" lon="120.098651">
				<speed>0.000000</speed>
				<ele>113.000000</ele>
				<time>2026-08-17T03:23:21Z</time>
			</trkpt>
			<trkpt lat="30.235018" lon="120.098647">
				<speed>0.000000</speed>
				<ele>112.000000</ele>
				<time>2026-08-17T03:23:22Z</time>
			</trkpt>
			<trkpt lat="30.235025" lon="120.098643">
				<speed>0.000000</speed>
				<ele>112.000000</ele>
				<time>2026-08-17T03:23:23Z</time>
			</trkpt>
			<trkpt lat="30.235032" lon="120.098640">
				<speed>0.000000</speed>
				<ele>111.000000</ele>
				<time>2026-08-17T03:23:24Z</time>
			</trkpt>
			<trkpt lat="30.235044" lon="120.098623">
				<speed>0.000000</speed>
				<ele>111.000000</ele>
				<time>2026-08-17T03:23:25Z</time>
			</trkpt>
			<trkpt lat="30.235048" lon="120.098616">
				<speed>0.000000</speed>
				<ele>110.000000</ele>
				<time>2026-08-17T03:23:26Z</time>
			</trkpt>
			<trkpt lat="30.235052" lon="120.098609">
				<speed>0.000000</speed>
				<ele>110.000000</ele>
				<time>2026-08-17T03:23:27Z</time>
			</trkpt>
			<trkpt lat="30.235055" lon="120.098603">
				<speed>0.000000</speed>
				<ele>109.000000</ele>
				<time>2026-08-17T03:23:28Z</time>
			</trkpt>
			<trkpt lat="30.235066" lon="120.098583">
				<speed>0.000000</speed>
				<ele>109.000000</ele>
				<time>2026-08-17T03:23:29Z</time>
			</trkpt>
			<trkpt lat="30.235070" lon="120.098578">
				<speed>0.000000</speed>
				<ele>108.000000</ele>
				<time>2026-08-17T03:23:30Z</time>
			</trkpt>
			<trkpt lat="30.235074" lon="120.098572">
				<speed>0.000000</speed>
				<ele>107.000000</ele>
				<time>2026-08-17T03:23:31Z</time>
			</trkpt>
			<trkpt lat="30.235078" lon="120.098566">
				<speed>0.000000</speed>
				<ele>106.000000</ele>
				<time>2026-08-17T03:23:32Z</time>
			</trkpt>
			<trkpt lat="30.235092" lon="120.098548">
				<speed>0.000000</speed>
				<ele>106.000000</ele>
				<time>2026-08-17T03:23:33Z</time>
			</trkpt>
			<trkpt lat="30.235097" lon="120.098541">
				<speed>0.000000</speed>
				<ele>105.000000</ele>
				<time>2026-08-17T03:23:34Z</time>
			</trkpt>
			<trkpt lat="30.235102" lon="120.098535">
				<speed>0.000000</speed>
				<ele>105.000000</ele>
				<time>2026-08-17T03:23:35Z</time>
			</trkpt>
			<trkpt lat="30.235108" lon="120.098528">
				<speed>0.000000</speed>
				<ele>105.000000</ele>
				<time>2026-08-17T03:23:36Z</time>
			</trkpt>
			<trkpt lat="30.235128" lon="120.098509">
				<speed>0.000000</speed>
				<ele>105.000000</ele>
				<time>2026-08-17T03:23:37Z</time>
			</trkpt>
			<trkpt lat="30.235136" lon="120.098504">
				<speed>0.000000</speed>
				<ele>104.000000</ele>
				<time>2026-08-17T03:23:38Z</time>
			</trkpt>
			<trkpt lat="30.235143" lon="120.098499">
				<speed>0.000000</speed>
				<ele>104.000000</ele>
				<time>2026-08-17T03:23:39Z</time>
			</trkpt>
			<trkpt lat="30.235151" lon="120.098494">
				<speed>0.000000</speed>
				<ele>104.000000</ele>
				<time>2026-08-17T03:23:40Z</time>
			</trkpt>
			<trkpt lat="30.235175" lon="120.098479">
				<speed>0.000000</speed>
				<ele>104.000000</ele>
				<time>2026-08-17T03:23:41Z</time>
			</trkpt>
			<trkpt lat="30.235181" lon="120.098474">
				<speed>0.000000</speed>
				<ele>103.000000</ele>
				<time>2026-08-17T03:23:42Z</time>
			</trkpt>
			<trkpt lat="30.235187" lon="120.098469">
				<speed>0.000000</speed>
				<ele>103.000000</ele>
				<time>2026-08-17T03:23:43Z</time>
			</trkpt>
			<trkpt lat="30.235194" lon="120.098464">
				<speed>0.000000</speed>
				<ele>102.000000</ele>
				<time>2026-08-17T03:23:44Z</time>
			</trkpt>
			<trkpt lat="30.235208" lon="120.098447">
				<speed>0.000000</speed>
				<ele>102.000000</ele>
				<time>2026-08-17T03:23:45Z</time>
			</trkpt>
			<trkpt lat="30.235212" lon="120.098441">
				<speed>0.000000</speed>
				<ele>101.000000</ele>
				<time>2026-08-17T03:23:46Z</time>
			</trkpt>
			<trkpt lat="30.235216" lon="120.098435">
				<speed>0.000000</speed>
				<ele>101.000000</ele>
				<time>2026-08-17T03:23:47Z</time>
			</trkpt>
			<trkpt lat="30.235220" lon="120.098428">
				<speed>0.000000</speed>
				<ele>100.000000</ele>
				<time>2026-08-17T03:23:48Z</time>
			</trkpt>
			<trkpt lat="30.235232" lon="120.098409">
				<speed>0.000000</speed>
				<ele>100.000000</ele>
				<time>2026-08-17T03:23:49Z</time>
			</trkpt>
			<trkpt lat="30.235236" lon="120.098404">
				<speed>0.000000</speed>
				<ele>99.000000</ele>
				<time>2026-08-17T03:23:50Z</time>
			</trkpt>
			<trkpt lat="30.235241" lon="120.098398">
				<speed>0.000000</speed>
				<ele>99.000000</ele>
				<time>2026-08-17T03:23:51Z</time>
			</trkpt>
			<trkpt lat="30.235245" lon="120.098393">
				<speed>0.000000</speed>
				<ele>98.000000</ele>
				<time>2026-08-17T03:23:52Z</time>
			</trkpt>
			<trkpt lat="30.235263" lon="120.098379">
				<speed>0.000000</speed>
				<ele>98.000000</ele>
				<time>2026-08-17T03:23:53Z</time>
			</trkpt>
			<trkpt lat="30.235268" lon="120.098376">
				<speed>0.000000</speed>
				<ele>97.000000</ele>
				<time>2026-08-17T03:23:54Z</time>
			</trkpt>
			<trkpt lat="30.235273" lon="120.098372">
				<speed>0.000000</speed>
				<ele>97.000000</ele>
				<time>2026-08-17T03:23:55Z</time>
			</trkpt>
			<trkpt lat="30.235279" lon="120.098369">
				<speed>0.000000</speed>
				<ele>96.000000</ele>
				<time>2026-08-17T03:23:56Z</time>
			</trkpt>
			<trkpt lat="30.235283" lon="120.098364">
				<speed>0.000000</speed>
				<ele>96.000000</ele>
				<time>2026-08-17T03:23:57Z</time>
			</trkpt>
			<trkpt lat="30.235287" lon="120.098360">
				<speed>0.000000</speed>
				<ele>95.000000</ele>
				<time>2026-08-17T03:23:58Z</time>
			</trkpt>
			<trkpt lat="30.235292" lon="120.098356">
				<speed>0.000000</speed>
				<ele>95.000000</ele>
				<time>2026-08-17T03:23:59Z</time>
			</trkpt>
			<trkpt lat="30.235302" lon="120.098339">
				<speed>0.000000</speed>
				<ele>94.000000</ele>
				<time>2026-08-17T03:24:00Z</time>
			</trkpt>
			<trkpt lat="30.235305" lon="120.098332">
				<speed>0.000000</speed>
				<ele>94.000000</ele>
				<time>2026-08-17T03:24:01Z</time>
			</trkpt>
			<trkpt lat="30.235308" lon="120.098324">
				<speed>0.000000</speed>
				<ele>93.000000</ele>
				<time>2026-08-17T03:24:02Z</time>
			</trkpt>
			<trkpt lat="30.235311" lon="120.098317">
				<speed>0.000000</speed>
				<ele>93.000000</ele>
				<time>2026-08-17T03:24:03Z</time>
			</trkpt>
			<trkpt lat="30.235319" lon="120.098286">
				<speed>0.000000</speed>
				<ele>93.000000</ele>
				<time>2026-08-17T03:24:04Z</time>
			</trkpt>
			<trkpt lat="30.235320" lon="120.098275">
				<speed>0.000000</speed>
				<ele>93.000000</ele>
				<time>2026-08-17T03:24:05Z</time>
			</trkpt>
			<trkpt lat="30.235322" lon="120.098264">
				<speed>0.000000</speed>
				<ele>92.000000</ele>
				<time>2026-08-17T03:24:06Z</time>
			</trkpt>
			<trkpt lat="30.235323" lon="120.098253">
				<speed>0.000000</speed>
				<ele>92.000000</ele>
				<time>2026-08-17T03:24:07Z</time>
			</trkpt>
			<trkpt lat="30.235325" lon="120.098222">
				<speed>0.000000</speed>
				<ele>91.000000</ele>
				<time>2026-08-17T03:24:08Z</time>
			</trkpt>
			<trkpt lat="30.235324" lon="120.098214">
				<speed>0.000000</speed>
				<ele>91.000000</ele>
				<time>2026-08-17T03:24:09Z</time>
			</trkpt>
			<trkpt lat="30.235324" lon="120.098205">
				<speed>0.000000</speed>
				<ele>90.000000</ele>
				<time>2026-08-17T03:24:10Z</time>
			</trkpt>
			<trkpt lat="30.235323" lon="120.098197">
				<speed>0.000000</speed>
				<ele>90.000000</ele>
				<time>2026-08-17T03:24:11Z</time>
			</trkpt>
			<trkpt lat="30.235321" lon="120.098172">
				<speed>0.000000</speed>
				<ele>89.000000</ele>
				<time>2026-08-17T03:24:12Z</time>
			</trkpt>
			<trkpt lat="30.235321" lon="120.098163">
				<speed>0.000000</speed>
				<ele>89.000000</ele>
				<time>2026-08-17T03:24:13Z</time>
			</trkpt>
			<trkpt lat="30.235322" lon="120.098154">
				<speed>0.000000</speed>
				<ele>88.000000</ele>
				<time>2026-08-17T03:24:14Z</time>
			</trkpt>
			<trkpt lat="30.235322" lon="120.098146">
				<speed>0.000000</speed>
				<ele>88.000000</ele>
				<time>2026-08-17T03:24:15Z</time>
			</trkpt>
			<trkpt lat="30.235332" lon="120.098119">
				<speed>0.000000</speed>
				<ele>88.000000</ele>
				<time>2026-08-17T03:24:16Z</time>
			</trkpt>
			<trkpt lat="30.235337" lon="120.098111">
				<speed>0.000000</speed>
				<ele>88.000000</ele>
				<time>2026-08-17T03:24:17Z</time>
			</trkpt>
			<trkpt lat="30.235343" lon="120.098103">
				<speed>0.000000</speed>
				<ele>87.000000</ele>
				<time>2026-08-17T03:24:18Z</time>
			</trkpt>
			<trkpt lat="30.235348" lon="120.098096">
				<speed>0.000000</speed>
				<ele>87.000000</ele>
				<time>2026-08-17T03:24:19Z</time>
			</trkpt>
			<trkpt lat="30.235369" lon="120.098075">
				<speed>0.000000</speed>
				<ele>87.000000</ele>
				<time>2026-08-17T03:24:20Z</time>
			</trkpt>
			<trkpt lat="30.235377" lon="120.098069">
				<speed>0.000000</speed>
				<ele>87.000000</ele>
				<time>2026-08-17T03:24:21Z</time>
			</trkpt>
			<trkpt lat="30.235385" lon="120.098063">
				<speed>0.000000</speed>
				<ele>86.000000</ele>
				<time>2026-08-17T03:24:22Z</time>
			</trkpt>
			<trkpt lat="30.235394" lon="120.098056">
				<speed>0.000000</speed>
				<ele>86.000000</ele>
				<time>2026-08-17T03:24:23Z</time>
			</trkpt>
			<trkpt lat="30.235429" lon="120.098037">
				<speed>0.000000</speed>
				<ele>86.000000</ele>
				<time>2026-08-17T03:24:24Z</time>
			</trkpt>
			<trkpt lat="30.235444" lon="120.098032">
				<speed>0.000000</speed>
				<ele>86.000000</ele>
				<time>2026-08-17T03:24:25Z</time>
			</trkpt>
			<trkpt lat="30.235458" lon="120.098027">
				<speed>0.000000</speed>
				<ele>86.000000</ele>
				<time>2026-08-17T03:24:26Z</time>
			</trkpt>
			<trkpt lat="30.235473" lon="120.098022">
				<speed>0.000000</speed>
				<ele>86.000000</ele>
				<time>2026-08-17T03:24:27Z</time>
			</trkpt>
			<trkpt lat="30.235521" lon="120.098012">
				<speed>0.000000</speed>
				<ele>86.000000</ele>
				<time>2026-08-17T03:24:28Z</time>
			</trkpt>
			<trkpt lat="30.235537" lon="120.098010">
				<speed>0.000000</speed>
				<ele>86.000000</ele>
				<time>2026-08-17T03:24:29Z</time>
			</trkpt>
			<trkpt lat="30.235553" lon="120.098008">
				<speed>0.000000</speed>
				<ele>85.000000</ele>
				<time>2026-08-17T03:24:30Z</time>
			</trkpt>
			<trkpt lat="30.235568" lon="120.098006">
				<speed>0.000000</speed>
				<ele>85.000000</ele>
				<time>2026-08-17T03:24:31Z</time>
			</trkpt>
			<trkpt lat="30.235614" lon="120.098001">
				<speed>0.000000</speed>
				<ele>85.000000</ele>
				<time>2026-08-17T03:24:32Z</time>
			</trkpt>
			<trkpt lat="30.235628" lon="120.097997">
				<speed>0.000000</speed>
				<ele>85.000000</ele>
				<time>2026-08-17T03:24:33Z</time>
			</trkpt>
			<trkpt lat="30.235641" lon="120.097993">
				<speed>0.000000</speed>
				<ele>85.000000</ele>
				<time>2026-08-17T03:24:34Z</time>
			</trkpt>
			<trkpt lat="30.235655" lon="120.097990">
				<speed>0.000000</speed>
				<ele>85.000000</ele>
				<time>2026-08-17T03:24:35Z</time>
			</trkpt>
			<trkpt lat="30.235686" lon="120.097968">
				<speed>0.000000</speed>
				<ele>85.000000</ele>
				<time>2026-08-17T03:24:36Z</time>
			</trkpt>
			<trkpt lat="30.235691" lon="120.097957">
				<speed>0.000000</speed>
				<ele>85.000000</ele>
				<time>2026-08-17T03:24:37Z</time>
			</trkpt>
			<trkpt lat="30.235696" lon="120.097946">
				<speed>0.000000</speed>
				<ele>85.000000</ele>
				<time>2026-08-17T03:24:38Z</time>
			</trkpt>
			<trkpt lat="30.235701" lon="120.097935">
				<speed>0.000000</speed>
				<ele>85.000000</ele>
				<time>2026-08-17T03:24:39Z</time>
			</trkpt>
			<trkpt lat="30.235701" lon="120.097894">
				<speed>0.000000</speed>
				<ele>85.000000</ele>
				<time>2026-08-17T03:24:40Z</time>
			</trkpt>
			<trkpt lat="30.235695" lon="120.097879">
				<speed>0.000000</speed>
				<ele>85.000000</ele>
				<time>2026-08-17T03:24:41Z</time>
			</trkpt>
			<trkpt lat="30.235690" lon="120.097865">
				<speed>0.000000</speed>
				<ele>85.000000</ele>
				<time>2026-08-17T03:24:42Z</time>
			</trkpt>
			<trkpt lat="30.235685" lon="120.097850">
				<speed>0.000000</speed>
				<ele>85.000000</ele>
				<time>2026-08-17T03:24:43Z</time>
			</trkpt>
			<trkpt lat="30.235659" lon="120.097808">
				<speed>0.000000</speed>
				<ele>85.000000</ele>
				<time>2026-08-17T03:24:44Z</time>
			</trkpt>
			<trkpt lat="30.235649" lon="120.097794">
				<speed>0.000000</speed>
				<ele>85.000000</ele>
				<time>2026-08-17T03:24:45Z</time>
			</trkpt>
			<trkpt lat="30.235640" lon="120.097781">
				<speed>0.000000</speed>
				<ele>85.000000</ele>
				<time>2026-08-17T03:24:46Z</time>
			</trkpt>
			<trkpt lat="30.235630" lon="120.097767">
				<speed>0.000000</speed>
				<ele>85.000000</ele>
				<time>2026-08-17T03:24:47Z</time>
			</trkpt>
			<trkpt lat="30.235602" lon="120.097729">
				<speed>0.000000</speed>
				<ele>85.000000</ele>
				<time>2026-08-17T03:24:48Z</time>
			</trkpt>
			<trkpt lat="30.235592" lon="120.097717">
				<speed>0.000000</speed>
				<ele>85.000000</ele>
				<time>2026-08-17T03:24:49Z</time>
			</trkpt>
			<trkpt lat="30.235582" lon="120.097705">
				<speed>0.000000</speed>
				<ele>85.000000</ele>
				<time>2026-08-17T03:24:50Z</time>
			</trkpt>
			<trkpt lat="30.235572" lon="120.097694">
				<speed>0.000000</speed>
				<ele>85.000000</ele>
				<time>2026-08-17T03:24:51Z</time>
			</trkpt>
			<trkpt lat="30.235538" lon="120.097659">
				<speed>0.000000</speed>
				<ele>85.000000</ele>
				<time>2026-08-17T03:24:52Z</time>
			</trkpt>
			<trkpt lat="30.235529" lon="120.097647">
				<speed>0.000000</speed>
				<ele>85.000000</ele>
				<time>2026-08-17T03:24:53Z</time>
			</trkpt>
			<trkpt lat="30.235520" lon="120.097634">
				<speed>0.000000</speed>
				<ele>85.000000</ele>
				<time>2026-08-17T03:24:54Z</time>
			</trkpt>
			<trkpt lat="30.235511" lon="120.097621">
				<speed>0.000000</speed>
				<ele>85.000000</ele>
				<time>2026-08-17T03:24:55Z</time>
			</trkpt>
			<trkpt lat="30.235499" lon="120.097575">
				<speed>0.000000</speed>
				<ele>85.000000</ele>
				<time>2026-08-17T03:24:56Z</time>
			</trkpt>
			<trkpt lat="30.235499" lon="120.097558">
				<speed>0.000000</speed>
				<ele>85.000000</ele>
				<time>2026-08-17T03:24:57Z</time>
			</trkpt>
			<trkpt lat="30.235500" lon="120.097541">
				<speed>0.000000</speed>
				<ele>85.000000</ele>
				<time>2026-08-17T03:24:58Z</time>
			</trkpt>
			<trkpt lat="30.235500" lon="120.097523">
				<speed>0.000000</speed>
				<ele>85.000000</ele>
				<time>2026-08-17T03:24:59Z</time>
			</trkpt>
			<trkpt lat="30.235505" lon="120.097471">
				<speed>0.000000</speed>
				<ele>85.000000</ele>
				<time>2026-08-17T03:25:00Z</time>
			</trkpt>
			<trkpt lat="30.235506" lon="120.097454">
				<speed>0.000000</speed>
				<ele>85.000000</ele>
				<time>2026-08-17T03:25:01Z</time>
			</trkpt>
			<trkpt lat="30.235507" lon="120.097437">
				<speed>0.000000</speed>
				<ele>84.000000</ele>
				<time>2026-08-17T03:25:02Z</time>
			</trkpt>
			<trkpt lat="30.235508" lon="120.097420">
				<speed>0.000000</speed>
				<ele>84.000000</ele>
				<time>2026-08-17T03:25:03Z</time>
			</trkpt>
			<trkpt lat="30.235504" lon="120.097374">
				<speed>0.000000</speed>
				<ele>84.000000</ele>
				<time>2026-08-17T03:25:04Z</time>
			</trkpt>
			<trkpt lat="30.235500" lon="120.097360">
				<speed>0.000000</speed>
				<ele>84.000000</ele>
				<time>2026-08-17T03:25:05Z</time>
			</trkpt>
			<trkpt lat="30.235496" lon="120.097346">
				<speed>0.000000</speed>
				<ele>84.000000</ele>
				<time>2026-08-17T03:25:06Z</time>
			</trkpt>
			<trkpt lat="30.235492" lon="120.097332">
				<speed>0.000000</speed>
				<ele>84.000000</ele>
				<time>2026-08-17T03:25:07Z</time>
			</trkpt>
			<trkpt lat="30.235476" lon="120.097293">
				<speed>0.000000</speed>
				<ele>84.000000</ele>
				<time>2026-08-17T03:25:08Z</time>
			</trkpt>
			<trkpt lat="30.235470" lon="120.097281">
				<speed>0.000000</speed>
				<ele>84.000000</ele>
				<time>2026-08-17T03:25:09Z</time>
			</trkpt>
			<trkpt lat="30.235464" lon="120.097269">
				<speed>0.000000</speed>
				<ele>84.000000</ele>
				<time>2026-08-17T03:25:10Z</time>
			</trkpt>
			<trkpt lat="30.235458" lon="120.097257">
				<speed>0.000000</speed>
				<ele>84.000000</ele>
				<time>2026-08-17T03:25:11Z</time>
			</trkpt>
			<trkpt lat="30.235437" lon="120.097221">
				<speed>0.000000</speed>
				<ele>84.000000</ele>
				<time>2026-08-17T03:25:12Z</time>
			</trkpt>
			<trkpt lat="30.235430" lon="120.097210">
				<speed>0.000000</speed>
				<ele>84.000000</ele>
				<time>2026-08-17T03:25:13Z</time>
			</trkpt>
			<trkpt lat="30.235422" lon="120.097199">
				<speed>0.000000</speed>
				<ele>84.000000</ele>
				<time>2026-08-17T03:25:14Z</time>
			</trkpt>
			<trkpt lat="30.235415" lon="120.097188">
				<speed>0.000000</speed>
				<ele>84.000000</ele>
				<time>2026-08-17T03:25:15Z</time>
			</trkpt>
			<trkpt lat="30.235392" lon="120.097155">
				<speed>0.000000</speed>
				<ele>84.000000</ele>
				<time>2026-08-17T03:25:16Z</time>
			</trkpt>
			<trkpt lat="30.235384" lon="120.097144">
				<speed>0.000000</speed>
				<ele>84.000000</ele>
				<time>2026-08-17T03:25:17Z</time>
			</trkpt>
			<trkpt lat="30.235376" lon="120.097133">
				<speed>0.000000</speed>
				<ele>84.000000</ele>
				<time>2026-08-17T03:25:18Z</time>
			</trkpt>
			<trkpt lat="30.235368" lon="120.097122">
				<speed>0.000000</speed>
				<ele>84.000000</ele>
				<time>2026-08-17T03:25:19Z</time>
			</trkpt>
			<trkpt lat="30.235345" lon="120.097085">
				<speed>0.000000</speed>
				<ele>84.000000</ele>
				<time>2026-08-17T03:25:20Z</time>
			</trkpt>
			<trkpt lat="30.235337" lon="120.097072">
				<speed>0.000000</speed>
				<ele>84.000000</ele>
				<time>2026-08-17T03:25:21Z</time>
			</trkpt>
			<trkpt lat="30.235330" lon="120.097059">
				<speed>0.000000</speed>
				<ele>84.000000</ele>
				<time>2026-08-17T03:25:22Z</time>
			</trkpt>
			<trkpt lat="30.235323" lon="120.097046">
				<speed>0.000000</speed>
				<ele>84.000000</ele>
				<time>2026-08-17T03:25:23Z</time>
			</trkpt>
			<trkpt lat="30.235303" lon="120.097004">
				<speed>0.000000</speed>
				<ele>84.000000</ele>
				<time>2026-08-17T03:25:24Z</time>
			</trkpt>
			<trkpt lat="30.235298" lon="120.096988">
				<speed>0.000000</speed>
				<ele>84.000000</ele>
				<time>2026-08-17T03:25:25Z</time>
			</trkpt>
			<trkpt lat="30.235294" lon="120.096973">
				<speed>0.000000</speed>
				<ele>84.000000</ele>
				<time>2026-08-17T03:25:26Z</time>
			</trkpt>
			<trkpt lat="30.235289" lon="120.096957">
				<speed>0.000000</speed>
				<ele>84.000000</ele>
				<time>2026-08-17T03:25:27Z</time>
			</trkpt>
			<trkpt lat="30.235277" lon="120.096909">
				<speed>0.000000</speed>
				<ele>84.000000</ele>
				<time>2026-08-17T03:25:28Z</time>
			</trkpt>
			<trkpt lat="30.235272" lon="120.096893">
				<speed>0.000000</speed>
				<ele>85.000000</ele>
				<time>2026-08-17T03:25:29Z</time>
			</trkpt>
			<trkpt lat="30.235267" lon="120.096877">
				<speed>0.000000</speed>
				<ele>85.000000</ele>
				<time>2026-08-17T03:25:30Z</time>
			</trkpt>
			<trkpt lat="30.235262" lon="120.096861">
				<speed>0.000000</speed>
				<ele>85.000000</ele>
				<time>2026-08-17T03:25:31Z</time>
			</trkpt>
			<trkpt lat="30.235243" lon="120.096813">
				<speed>0.000000</speed>
				<ele>85.000000</ele>
				<time>2026-08-17T03:25:32Z</time>
			</trkpt>
			<trkpt lat="30.235236" lon="120.096796">
				<speed>0.000000</speed>
				<ele>85.000000</ele>
				<time>2026-08-17T03:25:33Z</time>
			</trkpt>
			<trkpt lat="30.235230" lon="120.096780">
				<speed>0.000000</speed>
				<ele>85.000000</ele>
				<time>2026-08-17T03:25:34Z</time>
			</trkpt>
			<trkpt lat="30.235223" lon="120.096763">
				<speed>0.000000</speed>
				<ele>85.000000</ele>
				<time>2026-08-17T03:25:35Z</time>
			</trkpt>
			<trkpt lat="30.235203" lon="120.096712">
				<speed>0.000000</speed>
				<ele>85.000000</ele>
				<time>2026-08-17T03:25:36Z</time>
			</trkpt>
			<trkpt lat="30.235196" lon="120.096696">
				<speed>0.000000</speed>
				<ele>85.000000</ele>
				<time>2026-08-17T03:25:37Z</time>
			</trkpt>
			<trkpt lat="30.235190" lon="120.096679">
				<speed>0.000000</speed>
				<ele>85.000000</ele>
				<time>2026-08-17T03:25:38Z</time>
			</trkpt>
			<trkpt lat="30.235184" lon="120.096662">
				<speed>0.000000</speed>
				<ele>85.000000</ele>
				<time>2026-08-17T03:25:39Z</time>
			</trkpt>
			<trkpt lat="30.235164" lon="120.096611">
				<speed>0.000000</speed>
				<ele>85.000000</ele>
				<time>2026-08-17T03:25:40Z</time>
			</trkpt>
			<trkpt lat="30.235158" lon="120.096595">
				<speed>0.000000</speed>
				<ele>85.000000</ele>
				<time>2026-08-17T03:25:41Z</time>
			</trkpt>
			<trkpt lat="30.235151" lon="120.096578">
				<speed>0.000000</speed>
				<ele>85.000000</ele>
				<time>2026-08-17T03:25:42Z</time>
			</trkpt>
			<trkpt lat="30.235145" lon="120.096562">
				<speed>0.000000</speed>
				<ele>85.000000</ele>
				<time>2026-08-17T03:25:43Z</time>
			</trkpt>
			<trkpt lat="30.235124" lon="120.096513">
				<speed>0.000000</speed>
				<ele>85.000000</ele>
				<time>2026-08-17T03:25:44Z</time>
			</trkpt>
			<trkpt lat="30.235116" lon="120.096498">
				<speed>0.000000</speed>
				<ele>85.000000</ele>
				<time>2026-08-17T03:25:45Z</time>
			</trkpt>
			<trkpt lat="30.235109" lon="120.096482">
				<speed>0.000000</speed>
				<ele>85.000000</ele>
				<time>2026-08-17T03:25:46Z</time>
			</trkpt>
			<trkpt lat="30.235102" lon="120.096467">
				<speed>0.000000</speed>
				<ele>85.000000</ele>
				<time>2026-08-17T03:25:47Z</time>
			</trkpt>
			<trkpt lat="30.235084" lon="120.096420">
				<speed>0.000000</speed>
				<ele>85.000000</ele>
				<time>2026-08-17T03:25:48Z</time>
			</trkpt>
			<trkpt lat="30.235080" lon="120.096403">
				<speed>0.000000</speed>
				<ele>86.000000</ele>
				<time>2026-08-17T03:25:49Z</time>
			</trkpt>
			<trkpt lat="30.235077" lon="120.096385">
				<speed>0.000000</speed>
				<ele>86.000000</ele>
				<time>2026-08-17T03:25:50Z</time>
			</trkpt>
			<trkpt lat="30.235074" lon="120.096367">
				<speed>0.000000</speed>
				<ele>86.000000</ele>
				<time>2026-08-17T03:25:51Z</time>
			</trkpt>
			<trkpt lat="30.235071" lon="120.096309">
				<speed>0.000000</speed>
				<ele>86.000000</ele>
				<time>2026-08-17T03:25:52Z</time>
			</trkpt>
			<trkpt lat="30.235071" lon="120.096291">
				<speed>0.000000</speed>
				<ele>86.000000</ele>
				<time>2026-08-17T03:25:53Z</time>
			</trkpt>
			<trkpt lat="30.235071" lon="120.096272">
				<speed>0.000000</speed>
				<ele>86.000000</ele>
				<time>2026-08-17T03:25:54Z</time>
			</trkpt>
			<trkpt lat="30.235072" lon="120.096253">
				<speed>0.000000</speed>
				<ele>86.000000</ele>
				<time>2026-08-17T03:25:55Z</time>
			</trkpt>
			<trkpt lat="30.235074" lon="120.096200">
				<speed>0.000000</speed>
				<ele>86.000000</ele>
				<time>2026-08-17T03:25:56Z</time>
			</trkpt>
			<trkpt lat="30.235073" lon="120.096183">
				<speed>0.000000</speed>
				<ele>86.000000</ele>
				<time>2026-08-17T03:25:57Z</time>
			</trkpt>
			<trkpt lat="30.235072" lon="120.096166">
				<speed>0.000000</speed>
				<ele>86.000000</ele>
				<time>2026-08-17T03:25:58Z</time>
			</trkpt>
			<trkpt lat="30.235071" lon="120.096149">
				<speed>0.000000</speed>
				<ele>86.000000</ele>
				<time>2026-08-17T03:25:59Z</time>
			</trkpt>
			<trkpt lat="30.235058" lon="120.096103">
				<speed>0.000000</speed>
				<ele>86.000000</ele>
				<time>2026-08-17T03:26:00Z</time>
			</trkpt>
			<trkpt lat="30.235051" lon="120.096089">
				<speed>0.000000</speed>
				<ele>86.000000</ele>
				<time>2026-08-17T03:26:01Z</time>
			</trkpt>
			<trkpt lat="30.235043" lon="120.096076">
				<speed>0.000000</speed>
				<ele>86.000000</ele>
				<time>2026-08-17T03:26:02Z</time>
			</trkpt>
			<trkpt lat="30.235035" lon="120.096062">
				<speed>0.000000</speed>
				<ele>86.000000</ele>
				<time>2026-08-17T03:26:03Z</time>
			</trkpt>
			<trkpt lat="30.235005" lon="120.096028">
				<speed>0.000000</speed>
				<ele>86.000000</ele>
				<time>2026-08-17T03:26:04Z</time>
			</trkpt>
			<trkpt lat="30.234994" lon="120.096018">
				<speed>0.000000</speed>
				<ele>87.000000</ele>
				<time>2026-08-17T03:26:05Z</time>
			</trkpt>
			<trkpt lat="30.234982" lon="120.096008">
				<speed>0.000000</speed>
				<ele>87.000000</ele>
				<time>2026-08-17T03:26:06Z</time>
			</trkpt>
			<trkpt lat="30.234971" lon="120.095998">
				<speed>0.000000</speed>
				<ele>87.000000</ele>
				<time>2026-08-17T03:26:07Z</time>
			</trkpt>
			<trkpt lat="30.234937" lon="120.095971">
				<speed>0.000000</speed>
				<ele>87.000000</ele>
				<time>2026-08-17T03:26:08Z</time>
			</trkpt>
			<trkpt lat="30.234926" lon="120.095962">
				<speed>0.000000</speed>
				<ele>87.000000</ele>
				<time>2026-08-17T03:26:09Z</time>
			</trkpt>
			<trkpt lat="30.234916" lon="120.095952">
				<speed>0.000000</speed>
				<ele>87.000000</ele>
				<time>2026-08-17T03:26:10Z</time>
			</trkpt>
			<trkpt lat="30.234905" lon="120.095942">
				<speed>0.000000</speed>
				<ele>87.000000</ele>
				<time>2026-08-17T03:26:11Z</time>
			</trkpt>
			<trkpt lat="30.234876" lon="120.095909">
				<speed>0.000000</speed>
				<ele>87.000000</ele>
				<time>2026-08-17T03:26:12Z</time>
			</trkpt>
			<trkpt lat="30.234866" lon="120.095898">
				<speed>0.000000</speed>
				<ele>87.000000</ele>
				<time>2026-08-17T03:26:13Z</time>
			</trkpt>
			<trkpt lat="30.234856" lon="120.095888">
				<speed>0.000000</speed>
				<ele>87.000000</ele>
				<time>2026-08-17T03:26:14Z</time>
			</trkpt>
			<trkpt lat="30.234847" lon="120.095877">
				<speed>0.000000</speed>
				<ele>87.000000</ele>
				<time>2026-08-17T03:26:15Z</time>
			</trkpt>
			<trkpt lat="30.234816" lon="120.095841">
				<speed>0.000000</speed>
				<ele>87.000000</ele>
				<time>2026-08-17T03:26:16Z</time>
			</trkpt>
			<trkpt lat="30.234805" lon="120.095830">
				<speed>0.000000</speed>
				<ele>88.000000</ele>
				<time>2026-08-17T03:26:17Z</time>
			</trkpt>
			<trkpt lat="30.234794" lon="120.095819">
				<speed>0.000000</speed>
				<ele>88.000000</ele>
				<time>2026-08-17T03:26:18Z</time>
			</trkpt>
			<trkpt lat="30.234783" lon="120.095807">
				<speed>0.000000</speed>
				<ele>88.000000</ele>
				<time>2026-08-17T03:26:19Z</time>
			</trkpt>
			<trkpt lat="30.234748" lon="120.095777">
				<speed>0.000000</speed>
				<ele>88.000000</ele>
				<time>2026-08-17T03:26:20Z</time>
			</trkpt>
			<trkpt lat="30.234737" lon="120.095767">
				<speed>0.000000</speed>
				<ele>88.000000</ele>
				<time>2026-08-17T03:26:21Z</time>
			</trkpt>
			<trkpt lat="30.234726" lon="120.095756">
				<speed>0.000000</speed>
				<ele>88.000000</ele>
				<time>2026-08-17T03:26:22Z</time>
			</trkpt>
			<trkpt lat="30.234715" lon="120.095746">
				<speed>0.000000</speed>
				<ele>88.000000</ele>
				<time>2026-08-17T03:26:23Z</time>
			</trkpt>
			<trkpt lat="30.234683" lon="120.095714">
				<speed>0.000000</speed>
				<ele>88.000000</ele>
				<time>2026-08-17T03:26:24Z</time>
			</trkpt>
			<trkpt lat="30.234673" lon="120.095703">
				<speed>0.000000</speed>
				<ele>88.000000</ele>
				<time>2026-08-17T03:26:25Z</time>
			</trkpt>
			<trkpt lat="30.234664" lon="120.095692">
				<speed>0.000000</speed>
				<ele>88.000000</ele>
				<time>2026-08-17T03:26:26Z</time>
			</trkpt>
			<trkpt lat="30.234654" lon="120.095681">
				<speed>0.000000</speed>
				<ele>88.000000</ele>
				<time>2026-08-17T03:26:27Z</time>
			</trkpt>
			<trkpt lat="30.234628" lon="120.095646">
				<speed>0.000000</speed>
				<ele>88.000000</ele>
				<time>2026-08-17T03:26:28Z</time>
			</trkpt>
			<trkpt lat="30.234619" lon="120.095635">
				<speed>0.000000</speed>
				<ele>88.000000</ele>
				<time>2026-08-17T03:26:29Z</time>
			</trkpt>
			<trkpt lat="30.234611" lon="120.095624">
				<speed>0.000000</speed>
				<ele>88.000000</ele>
				<time>2026-08-17T03:26:30Z</time>
			</trkpt>
			<trkpt lat="30.234602" lon="120.095612">
				<speed>0.000000</speed>
				<ele>88.000000</ele>
				<time>2026-08-17T03:26:31Z</time>
			</trkpt>
			<trkpt lat="30.234580" lon="120.095576">
				<speed>0.000000</speed>
				<ele>88.000000</ele>
				<time>2026-08-17T03:26:32Z</time>
			</trkpt>
			<trkpt lat="30.234574" lon="120.095561">
				<speed>0.000000</speed>
				<ele>88.000000</ele>
				<time>2026-08-17T03:26:33Z</time>
			</trkpt>
			<trkpt lat="30.234568" lon="120.095546">
				<speed>0.000000</speed>
				<ele>88.000000</ele>
				<time>2026-08-17T03:26:34Z</time>
			</trkpt>
			<trkpt lat="30.234563" lon="120.095531">
				<speed>0.000000</speed>
				<ele>88.000000</ele>
				<time>2026-08-17T03:26:35Z</time>
			</trkpt>
			<trkpt lat="30.234549" lon="120.095482">
				<speed>0.000000</speed>
				<ele>88.000000</ele>
				<time>2026-08-17T03:26:36Z</time>
			</trkpt>
			<trkpt lat="30.234546" lon="120.095468">
				<speed>0.000000</speed>
				<ele>88.000000</ele>
				<time>2026-08-17T03:26:37Z</time>
			</trkpt>
			<trkpt lat="30.234543" lon="120.095454">
				<speed>0.000000</speed>
				<ele>88.000000</ele>
				<time>2026-08-17T03:26:38Z</time>
			</trkpt>
			<trkpt lat="30.234539" lon="120.095440">
				<speed>0.000000</speed>
				<ele>88.000000</ele>
				<time>2026-08-17T03:26:39Z</time>
			</trkpt>
			<trkpt lat="30.234529" lon="120.095409">
				<speed>0.000000</speed>
				<ele>88.000000</ele>
				<time>2026-08-17T03:26:40Z</time>
			</trkpt>
			<trkpt lat="30.234524" lon="120.095399">
				<speed>0.000000</speed>
				<ele>88.000000</ele>
				<time>2026-08-17T03:26:41Z</time>
			</trkpt>
			<trkpt lat="30.234519" lon="120.095390">
				<speed>0.000000</speed>
				<ele>88.000000</ele>
				<time>2026-08-17T03:26:42Z</time>
			</trkpt>
			<trkpt lat="30.234514" lon="120.095381">
				<speed>0.000000</speed>
				<ele>88.000000</ele>
				<time>2026-08-17T03:26:43Z</time>
			</trkpt>
			<trkpt lat="30.234491" lon="120.095354">
				<speed>0.000000</speed>
				<ele>88.000000</ele>
				<time>2026-08-17T03:26:44Z</time>
			</trkpt>
			<trkpt lat="30.234481" lon="120.095346">
				<speed>0.000000</speed>
				<ele>88.000000</ele>
				<time>2026-08-17T03:26:45Z</time>
			</trkpt>
			<trkpt lat="30.234472" lon="120.095339">
				<speed>0.000000</speed>
				<ele>88.000000</ele>
				<time>2026-08-17T03:26:46Z</time>
			</trkpt>
			<trkpt lat="30.234463" lon="120.095331">
				<speed>0.000000</speed>
				<ele>88.000000</ele>
				<time>2026-08-17T03:26:47Z</time>
			</trkpt>
			<trkpt lat="30.234429" lon="120.095310">
				<speed>0.000000</speed>
				<ele>88.000000</ele>
				<time>2026-08-17T03:26:48Z</time>
			</trkpt>
			<trkpt lat="30.234416" lon="120.095304">
				<speed>0.000000</speed>
				<ele>88.000000</ele>
				<time>2026-08-17T03:26:49Z</time>
			</trkpt>
			<trkpt lat="30.234403" lon="120.095299">
				<speed>0.000000</speed>
				<ele>88.000000</ele>
				<time>2026-08-17T03:26:50Z</time>
			</trkpt>
			<trkpt lat="30.234390" lon="120.095293">
				<speed>0.000000</speed>
				<ele>88.000000</ele>
				<time>2026-08-17T03:26:51Z</time>
			</trkpt>
			<trkpt lat="30.234348" lon="120.095280">
				<speed>0.000000</speed>
				<ele>88.000000</ele>
				<time>2026-08-17T03:26:52Z</time>
			</trkpt>
			<trkpt lat="30.234334" lon="120.095275">
				<speed>0.000000</speed>
				<ele>88.000000</ele>
				<time>2026-08-17T03:26:53Z</time>
			</trkpt>
			<trkpt lat="30.234321" lon="120.095271">
				<speed>0.000000</speed>
				<ele>88.000000</ele>
				<time>2026-08-17T03:26:54Z</time>
			</trkpt>
			<trkpt lat="30.234307" lon="120.095266">
				<speed>0.000000</speed>
				<ele>88.000000</ele>
				<time>2026-08-17T03:26:55Z</time>
			</trkpt>
			<trkpt lat="30.234270" lon="120.095253">
				<speed>0.000000</speed>
				<ele>88.000000</ele>
				<time>2026-08-17T03:26:56Z</time>
			</trkpt>
			<trkpt lat="30.234258" lon="120.095246">
				<speed>0.000000</speed>
				<ele>89.000000</ele>
				<time>2026-08-17T03:26:57Z</time>
			</trkpt>
			<trkpt lat="30.234247" lon="120.095239">
				<speed>0.000000</speed>
				<ele>89.000000</ele>
				<time>2026-08-17T03:26:58Z</time>
			</trkpt>
			<trkpt lat="30.234235" lon="120.095231">
				<speed>0.000000</speed>
				<ele>89.000000</ele>
				<time>2026-08-17T03:26:59Z</time>
			</trkpt>
			<trkpt lat="30.234204" lon="120.095205">
				<speed>0.000000</speed>
				<ele>89.000000</ele>
				<time>2026-08-17T03:27:00Z</time>
			</trkpt>
			<trkpt lat="30.234193" lon="120.095196">
				<speed>0.000000</speed>
				<ele>89.000000</ele>
				<time>2026-08-17T03:27:01Z</time>
			</trkpt>
			<trkpt lat="30.234181" lon="120.095187">
				<speed>0.000000</speed>
				<ele>89.000000</ele>
				<time>2026-08-17T03:27:02Z</time>
			</trkpt>
			<trkpt lat="30.234170" lon="120.095178">
				<speed>0.000000</speed>
				<ele>89.000000</ele>
				<time>2026-08-17T03:27:03Z</time>
			</trkpt>
			<trkpt lat="30.234133" lon="120.095153">
				<speed>0.000000</speed>
				<ele>89.000000</ele>
				<time>2026-08-17T03:27:04Z</time>
			</trkpt>
			<trkpt lat="30.234120" lon="120.095147">
				<speed>0.000000</speed>
				<ele>89.000000</ele>
				<time>2026-08-17T03:27:05Z</time>
			</trkpt>
			<trkpt lat="30.234106" lon="120.095140">
				<speed>0.000000</speed>
				<ele>89.000000</ele>
				<time>2026-08-17T03:27:06Z</time>
			</trkpt>
			<trkpt lat="30.234093" lon="120.095134">
				<speed>0.000000</speed>
				<ele>89.000000</ele>
				<time>2026-08-17T03:27:07Z</time>
			</trkpt>
			<trkpt lat="30.234050" lon="120.095117">
				<speed>0.000000</speed>
				<ele>89.000000</ele>
				<time>2026-08-17T03:27:08Z</time>
			</trkpt>
			<trkpt lat="30.234035" lon="120.095113">
				<speed>0.000000</speed>
				<ele>89.000000</ele>
				<time>2026-08-17T03:27:09Z</time>
			</trkpt>
			<trkpt lat="30.234020" lon="120.095108">
				<speed>0.000000</speed>
				<ele>89.000000</ele>
				<time>2026-08-17T03:27:10Z</time>
			</trkpt>
			<trkpt lat="30.234006" lon="120.095104">
				<speed>0.000000</speed>
				<ele>89.000000</ele>
				<time>2026-08-17T03:27:11Z</time>
			</trkpt>
			<trkpt lat="30.233962" lon="120.095095">
				<speed>0.000000</speed>
				<ele>89.000000</ele>
				<time>2026-08-17T03:27:12Z</time>
			</trkpt>
			<trkpt lat="30.233947" lon="120.095093">
				<speed>0.000000</speed>
				<ele>90.000000</ele>
				<time>2026-08-17T03:27:13Z</time>
			</trkpt>
			<trkpt lat="30.233933" lon="120.095091">
				<speed>0.000000</speed>
				<ele>90.000000</ele>
				<time>2026-08-17T03:27:14Z</time>
			</trkpt>
			<trkpt lat="30.233919" lon="120.095089">
				<speed>0.000000</speed>
				<ele>90.000000</ele>
				<time>2026-08-17T03:27:15Z</time>
			</trkpt>
			<trkpt lat="30.233877" lon="120.095083">
				<speed>0.000000</speed>
				<ele>90.000000</ele>
				<time>2026-08-17T03:27:16Z</time>
			</trkpt>
			<trkpt lat="30.233864" lon="120.095082">
				<speed>0.000000</speed>
				<ele>90.000000</ele>
				<time>2026-08-17T03:27:17Z</time>
			</trkpt>
			<trkpt lat="30.233850" lon="120.095081">
				<speed>0.000000</speed>
				<ele>90.000000</ele>
				<time>2026-08-17T03:27:18Z</time>
			</trkpt>
			<trkpt lat="30.233837" lon="120.095080">
				<speed>0.000000</speed>
				<ele>90.000000</ele>
				<time>2026-08-17T03:27:19Z</time>
			</trkpt>
			<trkpt lat="30.233797" lon="120.095079">
				<speed>0.000000</speed>
				<ele>90.000000</ele>
				<time>2026-08-17T03:27:20Z</time>
			</trkpt>
			<trkpt lat="30.233784" lon="120.095078">
				<speed>0.000000</speed>
				<ele>91.000000</ele>
				<time>2026-08-17T03:27:21Z</time>
			</trkpt>
			<trkpt lat="30.233771" lon="120.095077">
				<speed>0.000000</speed>
				<ele>91.000000</ele>
				<time>2026-08-17T03:27:22Z</time>
			</trkpt>
			<trkpt lat="30.233758" lon="120.095076">
				<speed>0.000000</speed>
				<ele>91.000000</ele>
				<time>2026-08-17T03:27:23Z</time>
			</trkpt>
			<trkpt lat="30.233720" lon="120.095067">
				<speed>0.000000</speed>
				<ele>91.000000</ele>
				<time>2026-08-17T03:27:24Z</time>
			</trkpt>
			<trkpt lat="30.233707" lon="120.095063">
				<speed>0.000000</speed>
				<ele>91.000000</ele>
				<time>2026-08-17T03:27:25Z</time>
			</trkpt>
			<trkpt lat="30.233694" lon="120.095058">
				<speed>0.000000</speed>
				<ele>91.000000</ele>
				<time>2026-08-17T03:27:26Z</time>
			</trkpt>
			<trkpt lat="30.233681" lon="120.095054">
				<speed>0.000000</speed>
				<ele>91.000000</ele>
				<time>2026-08-17T03:27:27Z</time>
			</trkpt>
			<trkpt lat="30.233640" lon="120.095043">
				<speed>0.000000</speed>
				<ele>91.000000</ele>
				<time>2026-08-17T03:27:28Z</time>
			</trkpt>
			<trkpt lat="30.233625" lon="120.095042">
				<speed>0.000000</speed>
				<ele>91.000000</ele>
				<time>2026-08-17T03:27:29Z</time>
			</trkpt>
			<trkpt lat="30.233611" lon="120.095040">
				<speed>0.000000</speed>
				<ele>91.000000</ele>
				<time>2026-08-17T03:27:30Z</time>
			</trkpt>
			<trkpt lat="30.233596" lon="120.095039">
				<speed>0.000000</speed>
				<ele>91.000000</ele>
				<time>2026-08-17T03:27:31Z</time>
			</trkpt>
			<trkpt lat="30.233551" lon="120.095035">
				<speed>0.000000</speed>
				<ele>91.000000</ele>
				<time>2026-08-17T03:27:32Z</time>
			</trkpt>
			<trkpt lat="30.233537" lon="120.095033">
				<speed>0.000000</speed>
				<ele>91.000000</ele>
				<time>2026-08-17T03:27:33Z</time>
			</trkpt>
			<trkpt lat="30.233522" lon="120.095031">
				<speed>0.000000</speed>
				<ele>91.000000</ele>
				<time>2026-08-17T03:27:34Z</time>
			</trkpt>
			<trkpt lat="30.233507" lon="120.095028">
				<speed>0.000000</speed>
				<ele>91.000000</ele>
				<time>2026-08-17T03:27:35Z</time>
			</trkpt>
			<trkpt lat="30.233465" lon="120.095017">
				<speed>0.000000</speed>
				<ele>91.000000</ele>
				<time>2026-08-17T03:27:36Z</time>
			</trkpt>
			<trkpt lat="30.233451" lon="120.095013">
				<speed>0.000000</speed>
				<ele>92.000000</ele>
				<time>2026-08-17T03:27:37Z</time>
			</trkpt>
			<trkpt lat="30.233438" lon="120.095009">
				<speed>0.000000</speed>
				<ele>92.000000</ele>
				<time>2026-08-17T03:27:38Z</time>
			</trkpt>
			<trkpt lat="30.233424" lon="120.095004">
				<speed>0.000000</speed>
				<ele>92.000000</ele>
				<time>2026-08-17T03:27:39Z</time>
			</trkpt>
			<trkpt lat="30.233384" lon="120.094987">
				<speed>0.000000</speed>
				<ele>92.000000</ele>
				<time>2026-08-17T03:27:40Z</time>
			</trkpt>
			<trkpt lat="30.233370" lon="120.094981">
				<speed>0.000000</speed>
				<ele>92.000000</ele>
				<time>2026-08-17T03:27:41Z</time>
			</trkpt>
			<trkpt lat="30.233357" lon="120.094975">
				<speed>0.000000</speed>
				<ele>92.000000</ele>
				<time>2026-08-17T03:27:42Z</time>
			</trkpt>
			<trkpt lat="30.233344" lon="120.094969">
				<speed>0.000000</speed>
				<ele>92.000000</ele>
				<time>2026-08-17T03:27:43Z</time>
			</trkpt>
			<trkpt lat="30.233302" lon="120.094956">
				<speed>0.000000</speed>
				<ele>92.000000</ele>
				<time>2026-08-17T03:27:44Z</time>
			</trkpt>
			<trkpt lat="30.233287" lon="120.094954">
				<speed>0.000000</speed>
				<ele>92.000000</ele>
				<time>2026-08-17T03:27:45Z</time>
			</trkpt>
			<trkpt lat="30.233272" lon="120.094952">
				<speed>0.000000</speed>
				<ele>92.000000</ele>
				<time>2026-08-17T03:27:46Z</time>
			</trkpt>
			<trkpt lat="30.233257" lon="120.094949">
				<speed>0.000000</speed>
				<ele>92.000000</ele>
				<time>2026-08-17T03:27:47Z</time>
			</trkpt>
			<trkpt lat="30.233213" lon="120.094936">
				<speed>0.000000</speed>
				<ele>92.000000</ele>
				<time>2026-08-17T03:27:48Z</time>
			</trkpt>
			<trkpt lat="30.233199" lon="120.094929">
				<speed>0.000000</speed>
				<ele>92.000000</ele>
				<time>2026-08-17T03:27:49Z</time>
			</trkpt>
			<trkpt lat="30.233184" lon="120.094922">
				<speed>0.000000</speed>
				<ele>92.000000</ele>
				<time>2026-08-17T03:27:50Z</time>
			</trkpt>
			<trkpt lat="30.233170" lon="120.094914">
				<speed>0.000000</speed>
				<ele>92.000000</ele>
				<time>2026-08-17T03:27:51Z</time>
			</trkpt>
			<trkpt lat="30.233128" lon="120.094888">
				<speed>0.000000</speed>
				<ele>92.000000</ele>
				<time>2026-08-17T03:27:52Z</time>
			</trkpt>
			<trkpt lat="30.233114" lon="120.094879">
				<speed>0.000000</speed>
				<ele>92.000000</ele>
				<time>2026-08-17T03:27:53Z</time>
			</trkpt>
			<trkpt lat="30.233101" lon="120.094870">
				<speed>0.000000</speed>
				<ele>92.000000</ele>
				<time>2026-08-17T03:27:54Z</time>
			</trkpt>
			<trkpt lat="30.233087" lon="120.094861">
				<speed>0.000000</speed>
				<ele>92.000000</ele>
				<time>2026-08-17T03:27:55Z</time>
			</trkpt>
			<trkpt lat="30.233047" lon="120.094836">
				<speed>0.000000</speed>
				<ele>92.000000</ele>
				<time>2026-08-17T03:27:56Z</time>
			</trkpt>
			<trkpt lat="30.233034" lon="120.094827">
				<speed>0.000000</speed>
				<ele>93.000000</ele>
				<time>2026-08-17T03:27:57Z</time>
			</trkpt>
			<trkpt lat="30.233021" lon="120.094819">
				<speed>0.000000</speed>
				<ele>93.000000</ele>
				<time>2026-08-17T03:27:58Z</time>
			</trkpt>
			<trkpt lat="30.233008" lon="120.094810">
				<speed>0.000000</speed>
				<ele>93.000000</ele>
				<time>2026-08-17T03:27:59Z</time>
			</trkpt>
			<trkpt lat="30.232969" lon="120.094782">
				<speed>0.000000</speed>
				<ele>93.000000</ele>
				<time>2026-08-17T03:28:00Z</time>
			</trkpt>
			<trkpt lat="30.232955" lon="120.094775">
				<speed>0.000000</speed>
				<ele>93.000000</ele>
				<time>2026-08-17T03:28:01Z</time>
			</trkpt>
			<trkpt lat="30.232941" lon="120.094768">
				<speed>0.000000</speed>
				<ele>93.000000</ele>
				<time>2026-08-17T03:28:02Z</time>
			</trkpt>
			<trkpt lat="30.232927" lon="120.094761">
				<speed>0.000000</speed>
				<ele>93.000000</ele>
				<time>2026-08-17T03:28:03Z</time>
			</trkpt>
			<trkpt lat="30.232885" lon="120.094745">
				<speed>0.000000</speed>
				<ele>93.000000</ele>
				<time>2026-08-17T03:28:04Z</time>
			</trkpt>
			<trkpt lat="30.232870" lon="120.094742">
				<speed>0.000000</speed>
				<ele>93.000000</ele>
				<time>2026-08-17T03:28:05Z</time>
			</trkpt>
			<trkpt lat="30.232855" lon="120.094739">
				<speed>0.000000</speed>
				<ele>93.000000</ele>
				<time>2026-08-17T03:28:06Z</time>
			</trkpt>
			<trkpt lat="30.232840" lon="120.094736">
				<speed>0.000000</speed>
				<ele>93.000000</ele>
				<time>2026-08-17T03:28:07Z</time>
			</trkpt>
			<trkpt lat="30.232792" lon="120.094733">
				<speed>0.000000</speed>
				<ele>93.000000</ele>
				<time>2026-08-17T03:28:08Z</time>
			</trkpt>
			<trkpt lat="30.232776" lon="120.094730">
				<speed>0.000000</speed>
				<ele>94.000000</ele>
				<time>2026-08-17T03:28:09Z</time>
			</trkpt>
			<trkpt lat="30.232760" lon="120.094727">
				<speed>0.000000</speed>
				<ele>94.000000</ele>
				<time>2026-08-17T03:28:10Z</time>
			</trkpt>
			<trkpt lat="30.232744" lon="120.094725">
				<speed>0.000000</speed>
				<ele>94.000000</ele>
				<time>2026-08-17T03:28:11Z</time>
			</trkpt>
			<trkpt lat="30.232701" lon="120.094711">
				<speed>0.000000</speed>
				<ele>94.000000</ele>
				<time>2026-08-17T03:28:12Z</time>
			</trkpt>
			<trkpt lat="30.232688" lon="120.094704">
				<speed>0.000000</speed>
				<ele>94.000000</ele>
				<time>2026-08-17T03:28:13Z</time>
			</trkpt>
			<trkpt lat="30.232676" lon="120.094697">
				<speed>0.000000</speed>
				<ele>94.000000</ele>
				<time>2026-08-17T03:28:14Z</time>
			</trkpt>
			<trkpt lat="30.232663" lon="120.094690">
				<speed>0.000000</speed>
				<ele>94.000000</ele>
				<time>2026-08-17T03:28:15Z</time>
			</trkpt>
			<trkpt lat="30.232629" lon="120.094664">
				<speed>0.000000</speed>
				<ele>94.000000</ele>
				<time>2026-08-17T03:28:16Z</time>
			</trkpt>
			<trkpt lat="30.232618" lon="120.094654">
				<speed>0.000000</speed>
				<ele>94.000000</ele>
				<time>2026-08-17T03:28:17Z</time>
			</trkpt>
			<trkpt lat="30.232607" lon="120.094645">
				<speed>0.000000</speed>
				<ele>94.000000</ele>
				<time>2026-08-17T03:28:18Z</time>
			</trkpt>
			<trkpt lat="30.232596" lon="120.094635">
				<speed>0.000000</speed>
				<ele>94.000000</ele>
				<time>2026-08-17T03:28:19Z</time>
			</trkpt>
			<trkpt lat="30.232566" lon="120.094605">
				<speed>0.000000</speed>
				<ele>94.000000</ele>
				<time>2026-08-17T03:28:20Z</time>
			</trkpt>
			<trkpt lat="30.232558" lon="120.094593">
				<speed>0.000000</speed>
				<ele>94.000000</ele>
				<time>2026-08-17T03:28:21Z</time>
			</trkpt>
			<trkpt lat="30.232549" lon="120.094581">
				<speed>0.000000</speed>
				<ele>94.000000</ele>
				<time>2026-08-17T03:28:22Z</time>
			</trkpt>
			<trkpt lat="30.232541" lon="120.094569">
				<speed>0.000000</speed>
				<ele>94.000000</ele>
				<time>2026-08-17T03:28:23Z</time>
			</trkpt>
			<trkpt lat="30.232516" lon="120.094534">
				<speed>0.000000</speed>
				<ele>94.000000</ele>
				<time>2026-08-17T03:28:24Z</time>
			</trkpt>
			<trkpt lat="30.232506" lon="120.094523">
				<speed>0.000000</speed>
				<ele>95.000000</ele>
				<time>2026-08-17T03:28:25Z</time>
			</trkpt>
			<trkpt lat="30.232497" lon="120.094511">
				<speed>0.000000</speed>
				<ele>95.000000</ele>
				<time>2026-08-17T03:28:26Z</time>
			</trkpt>
			<trkpt lat="30.232487" lon="120.094500">
				<speed>0.000000</speed>
				<ele>95.000000</ele>
				<time>2026-08-17T03:28:27Z</time>
			</trkpt>
			<trkpt lat="30.232453" lon="120.094471">
				<speed>0.000000</speed>
				<ele>95.000000</ele>
				<time>2026-08-17T03:28:28Z</time>
			</trkpt>
			<trkpt lat="30.232440" lon="120.094462">
				<speed>0.000000</speed>
				<ele>95.000000</ele>
				<time>2026-08-17T03:28:29Z</time>
			</trkpt>
			<trkpt lat="30.232428" lon="120.094453">
				<speed>0.000000</speed>
				<ele>95.000000</ele>
				<time>2026-08-17T03:28:30Z</time>
			</trkpt>
			<trkpt lat="30.232415" lon="120.094444">
				<speed>0.000000</speed>
				<ele>95.000000</ele>
				<time>2026-08-17T03:28:31Z</time>
			</trkpt>
			<trkpt lat="30.232375" lon="120.094417">
				<speed>0.000000</speed>
				<ele>95.000000</ele>
				<time>2026-08-17T03:28:32Z</time>
			</trkpt>
			<trkpt lat="30.232361" lon="120.094409">
				<speed>0.000000</speed>
				<ele>95.000000</ele>
				<time>2026-08-17T03:28:33Z</time>
			</trkpt>
			<trkpt lat="30.232348" lon="120.094401">
				<speed>0.000000</speed>
				<ele>95.000000</ele>
				<time>2026-08-17T03:28:34Z</time>
			</trkpt>
			<trkpt lat="30.232334" lon="120.094393">
				<speed>0.000000</speed>
				<ele>95.000000</ele>
				<time>2026-08-17T03:28:35Z</time>
			</trkpt>
			<trkpt lat="30.232294" lon="120.094371">
				<speed>0.000000</speed>
				<ele>95.000000</ele>
				<time>2026-08-17T03:28:36Z</time>
			</trkpt>
			<trkpt lat="30.232281" lon="120.094364">
				<speed>0.000000</speed>
				<ele>96.000000</ele>
				<time>2026-08-17T03:28:37Z</time>
			</trkpt>
			<trkpt lat="30.232268" lon="120.094357">
				<speed>0.000000</speed>
				<ele>96.000000</ele>
				<time>2026-08-17T03:28:38Z</time>
			</trkpt>
			<trkpt lat="30.232254" lon="120.094350">
				<speed>0.000000</speed>
				<ele>96.000000</ele>
				<time>2026-08-17T03:28:39Z</time>
			</trkpt>
			<trkpt lat="30.232213" lon="120.094328">
				<speed>0.000000</speed>
				<ele>96.000000</ele>
				<time>2026-08-17T03:28:40Z</time>
			</trkpt>
			<trkpt lat="30.232200" lon="120.094321">
				<speed>0.000000</speed>
				<ele>96.000000</ele>
				<time>2026-08-17T03:28:41Z</time>
			</trkpt>
			<trkpt lat="30.232187" lon="120.094313">
				<speed>0.000000</speed>
				<ele>96.000000</ele>
				<time>2026-08-17T03:28:42Z</time>
			</trkpt>
			<trkpt lat="30.232174" lon="120.094305">
				<speed>0.000000</speed>
				<ele>96.000000</ele>
				<time>2026-08-17T03:28:43Z</time>
			</trkpt>
			<trkpt lat="30.232136" lon="120.094276">
				<speed>0.000000</speed>
				<ele>96.000000</ele>
				<time>2026-08-17T03:28:44Z</time>
			</trkpt>
			<trkpt lat="30.232124" lon="120.094266">
				<speed>0.000000</speed>
				<ele>96.000000</ele>
				<time>2026-08-17T03:28:45Z</time>
			</trkpt>
			<trkpt lat="30.232113" lon="120.094255">
				<speed>0.000000</speed>
				<ele>96.000000</ele>
				<time>2026-08-17T03:28:46Z</time>
			</trkpt>
			<trkpt lat="30.232101" lon="120.094245">
				<speed>0.000000</speed>
				<ele>96.000000</ele>
				<time>2026-08-17T03:28:47Z</time>
			</trkpt>
			<trkpt lat="30.232067" lon="120.094212">
				<speed>0.000000</speed>
				<ele>96.000000</ele>
				<time>2026-08-17T03:28:48Z</time>
			</trkpt>
			<trkpt lat="30.232056" lon="120.094201">
				<speed>0.000000</speed>
				<ele>96.000000</ele>
				<time>2026-08-17T03:28:49Z</time>
			</trkpt>
			<trkpt lat="30.232045" lon="120.094191">
				<speed>0.000000</speed>
				<ele>96.000000</ele>
				<time>2026-08-17T03:28:50Z</time>
			</trkpt>
			<trkpt lat="30.232034" lon="120.094180">
				<speed>0.000000</speed>
				<ele>96.000000</ele>
				<time>2026-08-17T03:28:51Z</time>
			</trkpt>
			<trkpt lat="30.232001" lon="120.094149">
				<speed>0.000000</speed>
				<ele>96.000000</ele>
				<time>2026-08-17T03:28:52Z</time>
			</trkpt>
			<trkpt lat="30.231989" lon="120.094141">
				<speed>0.000000</speed>
				<ele>96.000000</ele>
				<time>2026-08-17T03:28:53Z</time>
			</trkpt>
			<trkpt lat="30.231978" lon="120.094133">
				<speed>0.000000</speed>
				<ele>96.000000</ele>
				<time>2026-08-17T03:28:54Z</time>
			</trkpt>
			<trkpt lat="30.231966" lon="120.094124">
				<speed>0.000000</speed>
				<ele>96.000000</ele>
				<time>2026-08-17T03:28:55Z</time>
			</trkpt>
			<trkpt lat="30.231929" lon="120.094107">
				<speed>0.000000</speed>
				<ele>96.000000</ele>
				<time>2026-08-17T03:28:56Z</time>
			</trkpt>
			<trkpt lat="30.231916" lon="120.094102">
				<speed>0.000000</speed>
				<ele>97.000000</ele>
				<time>2026-08-17T03:28:57Z</time>
			</trkpt>
			<trkpt lat="30.231903" lon="120.094097">
				<speed>0.000000</speed>
				<ele>97.000000</ele>
				<time>2026-08-17T03:28:58Z</time>
			</trkpt>
			<trkpt lat="30.231889" lon="120.094093">
				<speed>0.000000</speed>
				<ele>97.000000</ele>
				<time>2026-08-17T03:28:59Z</time>
			</trkpt>
			<trkpt lat="30.231850" lon="120.094078">
				<speed>0.000000</speed>
				<ele>97.000000</ele>
				<time>2026-08-17T03:29:00Z</time>
			</trkpt>
			<trkpt lat="30.231838" lon="120.094073">
				<speed>0.000000</speed>
				<ele>97.000000</ele>
				<time>2026-08-17T03:29:01Z</time>
			</trkpt>
			<trkpt lat="30.231825" lon="120.094068">
				<speed>0.000000</speed>
				<ele>97.000000</ele>
				<time>2026-08-17T03:29:02Z</time>
			</trkpt>
			<trkpt lat="30.231813" lon="120.094063">
				<speed>0.000000</speed>
				<ele>97.000000</ele>
				<time>2026-08-17T03:29:03Z</time>
			</trkpt>
			<trkpt lat="30.231778" lon="120.094045">
				<speed>0.000000</speed>
				<ele>97.000000</ele>
				<time>2026-08-17T03:29:04Z</time>
			</trkpt>
			<trkpt lat="30.231766" lon="120.094038">
				<speed>0.000000</speed>
				<ele>98.000000</ele>
				<time>2026-08-17T03:29:05Z</time>
			</trkpt>
			<trkpt lat="30.231754" lon="120.094032">
				<speed>0.000000</speed>
				<ele>98.000000</ele>
				<time>2026-08-17T03:29:06Z</time>
			</trkpt>
			<trkpt lat="30.231743" lon="120.094025">
				<speed>0.000000</speed>
				<ele>98.000000</ele>
				<time>2026-08-17T03:29:07Z</time>
			</trkpt>
			<trkpt lat="30.231707" lon="120.094004">
				<speed>0.000000</speed>
				<ele>98.000000</ele>
				<time>2026-08-17T03:29:08Z</time>
			</trkpt>
			<trkpt lat="30.231694" lon="120.093997">
				<speed>0.000000</speed>
				<ele>98.000000</ele>
				<time>2026-08-17T03:29:09Z</time>
			</trkpt>
			<trkpt lat="30.231681" lon="120.093991">
				<speed>0.000000</speed>
				<ele>98.000000</ele>
				<time>2026-08-17T03:29:10Z</time>
			</trkpt>
			<trkpt lat="30.231669" lon="120.093984">
				<speed>0.000000</speed>
				<ele>98.000000</ele>
				<time>2026-08-17T03:29:11Z</time>
			</trkpt>
			<trkpt lat="30.231630" lon="120.093967">
				<speed>0.000000</speed>
				<ele>98.000000</ele>
				<time>2026-08-17T03:29:12Z</time>
			</trkpt>
			<trkpt lat="30.231617" lon="120.093964">
				<speed>0.000000</speed>
				<ele>99.000000</ele>
				<time>2026-08-17T03:29:13Z</time>
			</trkpt>
			<trkpt lat="30.231604" lon="120.093960">
				<speed>0.000000</speed>
				<ele>99.000000</ele>
				<time>2026-08-17T03:29:14Z</time>
			</trkpt>
			<trkpt lat="30.231591" lon="120.093956">
				<speed>0.000000</speed>
				<ele>99.000000</ele>
				<time>2026-08-17T03:29:15Z</time>
			</trkpt>
			<trkpt lat="30.231553" lon="120.093949">
				<speed>0.000000</speed>
				<ele>99.000000</ele>
				<time>2026-08-17T03:29:16Z</time>
			</trkpt>
			<trkpt lat="30.231541" lon="120.093948">
				<speed>0.000000</speed>
				<ele>100.000000</ele>
				<time>2026-08-17T03:29:17Z</time>
			</trkpt>
			<trkpt lat="30.231529" lon="120.093946">
				<speed>0.000000</speed>
				<ele>100.000000</ele>
				<time>2026-08-17T03:29:18Z</time>
			</trkpt>
			<trkpt lat="30.231518" lon="120.093945">
				<speed>0.000000</speed>
				<ele>100.000000</ele>
				<time>2026-08-17T03:29:19Z</time>
			</trkpt>
			<trkpt lat="30.231482" lon="120.093942">
				<speed>0.000000</speed>
				<ele>100.000000</ele>
				<time>2026-08-17T03:29:20Z</time>
			</trkpt>
			<trkpt lat="30.231470" lon="120.093941">
				<speed>0.000000</speed>
				<ele>100.000000</ele>
				<time>2026-08-17T03:29:21Z</time>
			</trkpt>
			<trkpt lat="30.231457" lon="120.093940">
				<speed>0.000000</speed>
				<ele>100.000000</ele>
				<time>2026-08-17T03:29:22Z</time>
			</trkpt>
			<trkpt lat="30.231445" lon="120.093939">
				<speed>0.000000</speed>
				<ele>100.000000</ele>
				<time>2026-08-17T03:29:23Z</time>
			</trkpt>
			<trkpt lat="30.231405" lon="120.093933">
				<speed>0.000000</speed>
				<ele>100.000000</ele>
				<time>2026-08-17T03:29:24Z</time>
			</trkpt>
			<trkpt lat="30.231392" lon="120.093929">
				<speed>0.000000</speed>
				<ele>101.000000</ele>
				<time>2026-08-17T03:29:25Z</time>
			</trkpt>
			<trkpt lat="30.231378" lon="120.093925">
				<speed>0.000000</speed>
				<ele>101.000000</ele>
				<time>2026-08-17T03:29:26Z</time>
			</trkpt>
			<trkpt lat="30.231365" lon="120.093921">
				<speed>0.000000</speed>
				<ele>101.000000</ele>
				<time>2026-08-17T03:29:27Z</time>
			</trkpt>
			<trkpt lat="30.231326" lon="120.093903">
				<speed>0.000000</speed>
				<ele>101.000000</ele>
				<time>2026-08-17T03:29:28Z</time>
			</trkpt>
			<trkpt lat="30.231313" lon="120.093896">
				<speed>0.000000</speed>
				<ele>101.000000</ele>
				<time>2026-08-17T03:29:29Z</time>
			</trkpt>
			<trkpt lat="30.231300" lon="120.093889">
				<speed>0.000000</speed>
				<ele>101.000000</ele>
				<time>2026-08-17T03:29:30Z</time>
			</trkpt>
			<trkpt lat="30.231287" lon="120.093882">
				<speed>0.000000</speed>
				<ele>101.000000</ele>
				<time>2026-08-17T03:29:31Z</time>
			</trkpt>
			<trkpt lat="30.231248" lon="120.093865">
				<speed>0.000000</speed>
				<ele>101.000000</ele>
				<time>2026-08-17T03:29:32Z</time>
			</trkpt>
			<trkpt lat="30.231235" lon="120.093863">
				<speed>0.000000</speed>
				<ele>102.000000</ele>
				<time>2026-08-17T03:29:33Z</time>
			</trkpt>
			<trkpt lat="30.231222" lon="120.093861">
				<speed>0.000000</speed>
				<ele>102.000000</ele>
				<time>2026-08-17T03:29:34Z</time>
			</trkpt>
			<trkpt lat="30.231210" lon="120.093859">
				<speed>0.000000</speed>
				<ele>102.000000</ele>
				<time>2026-08-17T03:29:35Z</time>
			</trkpt>
			<trkpt lat="30.231178" lon="120.093870">
				<speed>0.000000</speed>
				<ele>102.000000</ele>
				<time>2026-08-17T03:29:36Z</time>
			</trkpt>
			<trkpt lat="30.231170" lon="120.093879">
				<speed>0.000000</speed>
				<ele>102.000000</ele>
				<time>2026-08-17T03:29:37Z</time>
			</trkpt>
			<trkpt lat="30.231162" lon="120.093888">
				<speed>0.000000</speed>
				<ele>102.000000</ele>
				<time>2026-08-17T03:29:38Z</time>
			</trkpt>
			<trkpt lat="30.231154" lon="120.093897">
				<speed>0.000000</speed>
				<ele>102.000000</ele>
				<time>2026-08-17T03:29:39Z</time>
			</trkpt>
			<trkpt lat="30.231136" lon="120.093931">
				<speed>0.000000</speed>
				<ele>102.000000</ele>
				<time>2026-08-17T03:29:40Z</time>
			</trkpt>
			<trkpt lat="30.231131" lon="120.093945">
				<speed>0.000000</speed>
				<ele>102.000000</ele>
				<time>2026-08-17T03:29:41Z</time>
			</trkpt>
			<trkpt lat="30.231126" lon="120.093958">
				<speed>0.000000</speed>
				<ele>102.000000</ele>
				<time>2026-08-17T03:29:42Z</time>
			</trkpt>
			<trkpt lat="30.231120" lon="120.093971">
				<speed>0.000000</speed>
				<ele>102.000000</ele>
				<time>2026-08-17T03:29:43Z</time>
			</trkpt>
			<trkpt lat="30.231103" lon="120.094014">
				<speed>0.000000</speed>
				<ele>102.000000</ele>
				<time>2026-08-17T03:29:44Z</time>
			</trkpt>
			<trkpt lat="30.231095" lon="120.094026">
				<speed>0.000000</speed>
				<ele>103.000000</ele>
				<time>2026-08-17T03:29:45Z</time>
			</trkpt>
			<trkpt lat="30.231087" lon="120.094038">
				<speed>0.000000</speed>
				<ele>103.000000</ele>
				<time>2026-08-17T03:29:46Z</time>
			</trkpt>
			<trkpt lat="30.231078" lon="120.094050">
				<speed>0.000000</speed>
				<ele>103.000000</ele>
				<time>2026-08-17T03:29:47Z</time>
			</trkpt>
			<trkpt lat="30.231046" lon="120.094066">
				<speed>0.000000</speed>
				<ele>103.000000</ele>
				<time>2026-08-17T03:29:48Z</time>
			</trkpt>
			<trkpt lat="30.231034" lon="120.094065">
				<speed>0.000000</speed>
				<ele>103.000000</ele>
				<time>2026-08-17T03:29:49Z</time>
			</trkpt>
			<trkpt lat="30.231022" lon="120.094065">
				<speed>0.000000</speed>
				<ele>103.000000</ele>
				<time>2026-08-17T03:29:50Z</time>
			</trkpt>
			<trkpt lat="30.231010" lon="120.094065">
				<speed>0.000000</speed>
				<ele>103.000000</ele>
				<time>2026-08-17T03:29:51Z</time>
			</trkpt>
			<trkpt lat="30.230969" lon="120.094057">
				<speed>0.000000</speed>
				<ele>103.000000</ele>
				<time>2026-08-17T03:29:52Z</time>
			</trkpt>
			<trkpt lat="30.230956" lon="120.094053">
				<speed>0.000000</speed>
				<ele>103.000000</ele>
				<time>2026-08-17T03:29:53Z</time>
			</trkpt>
			<trkpt lat="30.230942" lon="120.094050">
				<speed>0.000000</speed>
				<ele>103.000000</ele>
				<time>2026-08-17T03:29:54Z</time>
			</trkpt>
			<trkpt lat="30.230928" lon="120.094046">
				<speed>0.000000</speed>
				<ele>103.000000</ele>
				<time>2026-08-17T03:29:55Z</time>
			</trkpt>
			<trkpt lat="30.230887" lon="120.094035">
				<speed>0.000000</speed>
				<ele>103.000000</ele>
				<time>2026-08-17T03:29:56Z</time>
			</trkpt>
			<trkpt lat="30.230873" lon="120.094032">
				<speed>0.000000</speed>
				<ele>104.000000</ele>
				<time>2026-08-17T03:29:57Z</time>
			</trkpt>
			<trkpt lat="30.230859" lon="120.094029">
				<speed>0.000000</speed>
				<ele>103.000000</ele>
				<time>2026-08-17T03:29:58Z</time>
			</trkpt>
			<trkpt lat="30.230845" lon="120.094027">
				<speed>0.000000</speed>
				<ele>103.000000</ele>
				<time>2026-08-17T03:29:59Z</time>
			</trkpt>
			<trkpt lat="30.230804" lon="120.094024">
				<speed>0.000000</speed>
				<ele>103.000000</ele>
				<time>2026-08-17T03:30:00Z</time>
			</trkpt>
			<trkpt lat="30.230789" lon="120.094024">
				<speed>0.000000</speed>
				<ele>103.000000</ele>
				<time>2026-08-17T03:30:01Z</time>
			</trkpt>
			<trkpt lat="30.230775" lon="120.094024">
				<speed>0.000000</speed>
				<ele>103.000000</ele>
				<time>2026-08-17T03:30:02Z</time>
			</trkpt>
			<trkpt lat="30.230761" lon="120.094023">
				<speed>0.000000</speed>
				<ele>103.000000</ele>
				<time>2026-08-17T03:30:03Z</time>
			</trkpt>
			<trkpt lat="30.230717" lon="120.094021">
				<speed>0.000000</speed>
				<ele>103.000000</ele>
				<time>2026-08-17T03:30:04Z</time>
			</trkpt>
			<trkpt lat="30.230702" lon="120.094019">
				<speed>0.000000</speed>
				<ele>103.000000</ele>
				<time>2026-08-17T03:30:05Z</time>
			</trkpt>
			<trkpt lat="30.230687" lon="120.094017">
				<speed>0.000000</speed>
				<ele>103.000000</ele>
				<time>2026-08-17T03:30:06Z</time>
			</trkpt>
			<trkpt lat="30.230672" lon="120.094015">
				<speed>0.000000</speed>
				<ele>103.000000</ele>
				<time>2026-08-17T03:30:07Z</time>
			</trkpt>
			<trkpt lat="30.230626" lon="120.094004">
				<speed>0.000000</speed>
				<ele>103.000000</ele>
				<time>2026-08-17T03:30:08Z</time>
			</trkpt>
			<trkpt lat="30.230612" lon="120.094000">
				<speed>0.000000</speed>
				<ele>103.000000</ele>
				<time>2026-08-17T03:30:09Z</time>
			</trkpt>
			<trkpt lat="30.230597" lon="120.093996">
				<speed>0.000000</speed>
				<ele>103.000000</ele>
				<time>2026-08-17T03:30:10Z</time>
			</trkpt>
			<trkpt lat="30.230582" lon="120.093993">
				<speed>0.000000</speed>
				<ele>103.000000</ele>
				<time>2026-08-17T03:30:11Z</time>
			</trkpt>
			<trkpt lat="30.230539" lon="120.093979">
				<speed>0.000000</speed>
				<ele>103.000000</ele>
				<time>2026-08-17T03:30:12Z</time>
			</trkpt>
			<trkpt lat="30.230526" lon="120.093974">
				<speed>0.000000</speed>
				<ele>103.000000</ele>
				<time>2026-08-17T03:30:13Z</time>
			</trkpt>
			<trkpt lat="30.230513" lon="120.093968">
				<speed>0.000000</speed>
				<ele>103.000000</ele>
				<time>2026-08-17T03:30:14Z</time>
			</trkpt>
			<trkpt lat="30.230499" lon="120.093963">
				<speed>0.000000</speed>
				<ele>103.000000</ele>
				<time>2026-08-17T03:30:15Z</time>
			</trkpt>
			<trkpt lat="30.230467" lon="120.093941">
				<speed>0.000000</speed>
				<ele>103.000000</ele>
				<time>2026-08-17T03:30:16Z</time>
			</trkpt>
			<trkpt lat="30.230459" lon="120.093934">
				<speed>0.000000</speed>
				<ele>104.000000</ele>
				<time>2026-08-17T03:30:17Z</time>
			</trkpt>
			<trkpt lat="30.230451" lon="120.093927">
				<speed>0.000000</speed>
				<ele>104.000000</ele>
				<time>2026-08-17T03:30:18Z</time>
			</trkpt>
			<trkpt lat="30.230443" lon="120.093919">
				<speed>0.000000</speed>
				<ele>104.000000</ele>
				<time>2026-08-17T03:30:19Z</time>
			</trkpt>
			<trkpt lat="30.230427" lon="120.093899">
				<speed>0.000000</speed>
				<ele>104.000000</ele>
				<time>2026-08-17T03:30:20Z</time>
			</trkpt>
			<trkpt lat="30.230423" lon="120.093893">
				<speed>0.000000</speed>
				<ele>104.000000</ele>
				<time>2026-08-17T03:30:21Z</time>
			</trkpt>
			<trkpt lat="30.230419" lon="120.093887">
				<speed>0.000000</speed>
				<ele>104.000000</ele>
				<time>2026-08-17T03:30:22Z</time>
			</trkpt>
			<trkpt lat="30.230416" lon="120.093881">
				<speed>0.000000</speed>
				<ele>104.000000</ele>
				<time>2026-08-17T03:30:23Z</time>
			</trkpt>
			<trkpt lat="30.230406" lon="120.093867">
				<speed>0.000000</speed>
				<ele>104.000000</ele>
				<time>2026-08-17T03:30:24Z</time>
			</trkpt>
			<trkpt lat="30.230402" lon="120.093863">
				<speed>0.000000</speed>
				<ele>104.000000</ele>
				<time>2026-08-17T03:30:25Z</time>
			</trkpt>
			<trkpt lat="30.230399" lon="120.093859">
				<speed>0.000000</speed>
				<ele>104.000000</ele>
				<time>2026-08-17T03:30:26Z</time>
			</trkpt>
			<trkpt lat="30.230395" lon="120.093855">
				<speed>0.000000</speed>
				<ele>104.000000</ele>
				<time>2026-08-17T03:30:27Z</time>
			</trkpt>
			<trkpt lat="30.230380" lon="120.093841">
				<speed>0.000000</speed>
				<ele>104.000000</ele>
				<time>2026-08-17T03:30:28Z</time>
			</trkpt>
			<trkpt lat="30.230374" lon="120.093834">
				<speed>0.000000</speed>
				<ele>104.000000</ele>
				<time>2026-08-17T03:30:29Z</time>
			</trkpt>
			<trkpt lat="30.230369" lon="120.093828">
				<speed>0.000000</speed>
				<ele>104.000000</ele>
				<time>2026-08-17T03:30:30Z</time>
			</trkpt>
			<trkpt lat="30.230363" lon="120.093822">
				<speed>0.000000</speed>
				<ele>104.000000</ele>
				<time>2026-08-17T03:30:31Z</time>
			</trkpt>
			<trkpt lat="30.230344" lon="120.093800">
				<speed>0.000000</speed>
				<ele>104.000000</ele>
				<time>2026-08-17T03:30:32Z</time>
			</trkpt>
			<trkpt lat="30.230338" lon="120.093791">
				<speed>0.000000</speed>
				<ele>104.000000</ele>
				<time>2026-08-17T03:30:33Z</time>
			</trkpt>
			<trkpt lat="30.230331" lon="120.093782">
				<speed>0.000000</speed>
				<ele>104.000000</ele>
				<time>2026-08-17T03:30:34Z</time>
			</trkpt>
			<trkpt lat="30.230325" lon="120.093773">
				<speed>0.000000</speed>
				<ele>104.000000</ele>
				<time>2026-08-17T03:30:35Z</time>
			</trkpt>
			<trkpt lat="30.230304" lon="120.093736">
				<speed>0.000000</speed>
				<ele>104.000000</ele>
				<time>2026-08-17T03:30:36Z</time>
			</trkpt>
			<trkpt lat="30.230296" lon="120.093722">
				<speed>0.000000</speed>
				<ele>104.000000</ele>
				<time>2026-08-17T03:30:37Z</time>
			</trkpt>
			<trkpt lat="30.230288" lon="120.093707">
				<speed>0.000000</speed>
				<ele>104.000000</ele>
				<time>2026-08-17T03:30:38Z</time>
			</trkpt>
			<trkpt lat="30.230280" lon="120.093693">
				<speed>0.000000</speed>
				<ele>104.000000</ele>
				<time>2026-08-17T03:30:39Z</time>
			</trkpt>
			<trkpt lat="30.230256" lon="120.093651">
				<speed>0.000000</speed>
				<ele>104.000000</ele>
				<time>2026-08-17T03:30:40Z</time>
			</trkpt>
			<trkpt lat="30.230251" lon="120.093639">
				<speed>0.000000</speed>
				<ele>105.000000</ele>
				<time>2026-08-17T03:30:41Z</time>
			</trkpt>
			<trkpt lat="30.230245" lon="120.093627">
				<speed>0.000000</speed>
				<ele>105.000000</ele>
				<time>2026-08-17T03:30:42Z</time>
			</trkpt>
			<trkpt lat="30.230239" lon="120.093615">
				<speed>0.000000</speed>
				<ele>105.000000</ele>
				<time>2026-08-17T03:30:43Z</time>
			</trkpt>
			<trkpt lat="30.230227" lon="120.093583">
				<speed>0.000000</speed>
				<ele>105.000000</ele>
				<time>2026-08-17T03:30:44Z</time>
			</trkpt>
			<trkpt lat="30.230223" lon="120.093573">
				<speed>0.000000</speed>
				<ele>105.000000</ele>
				<time>2026-08-17T03:30:45Z</time>
			</trkpt>
			<trkpt lat="30.230219" lon="120.093563">
				<speed>0.000000</speed>
				<ele>105.000000</ele>
				<time>2026-08-17T03:30:46Z</time>
			</trkpt>
			<trkpt lat="30.230215" lon="120.093553">
				<speed>0.000000</speed>
				<ele>105.000000</ele>
				<time>2026-08-17T03:30:47Z</time>
			</trkpt>
			<trkpt lat="30.230203" lon="120.093527">
				<speed>0.000000</speed>
				<ele>105.000000</ele>
				<time>2026-08-17T03:30:48Z</time>
			</trkpt>
			<trkpt lat="30.230199" lon="120.093519">
				<speed>0.000000</speed>
				<ele>105.000000</ele>
				<time>2026-08-17T03:30:49Z</time>
			</trkpt>
			<trkpt lat="30.230194" lon="120.093513">
				<speed>0.000000</speed>
				<ele>105.000000</ele>
				<time>2026-08-17T03:30:50Z</time>
			</trkpt>
			<trkpt lat="30.230190" lon="120.093505">
				<speed>0.000000</speed>
				<ele>105.000000</ele>
				<time>2026-08-17T03:30:51Z</time>
			</trkpt>
			<trkpt lat="30.230175" lon="120.093491">
				<speed>0.000000</speed>
				<ele>105.000000</ele>
				<time>2026-08-17T03:30:52Z</time>
			</trkpt>
			<trkpt lat="30.230170" lon="120.093487">
				<speed>0.000000</speed>
				<ele>105.000000</ele>
				<time>2026-08-17T03:30:53Z</time>
			</trkpt>
			<trkpt lat="30.230165" lon="120.093483">
				<speed>0.000000</speed>
				<ele>105.000000</ele>
				<time>2026-08-17T03:30:54Z</time>
			</trkpt>
			<trkpt lat="30.230160" lon="120.093479">
				<speed>0.000000</speed>
				<ele>105.000000</ele>
				<time>2026-08-17T03:30:55Z</time>
			</trkpt>
			<trkpt lat="30.230142" lon="120.093466">
				<speed>0.000000</speed>
				<ele>105.000000</ele>
				<time>2026-08-17T03:30:56Z</time>
			</trkpt>
			<trkpt lat="30.230136" lon="120.093461">
				<speed>0.000000</speed>
				<ele>106.000000</ele>
				<time>2026-08-17T03:30:57Z</time>
			</trkpt>
			<trkpt lat="30.230130" lon="120.093457">
				<speed>0.000000</speed>
				<ele>106.000000</ele>
				<time>2026-08-17T03:30:58Z</time>
			</trkpt>
			<trkpt lat="30.230124" lon="120.093453">
				<speed>0.000000</speed>
				<ele>106.000000</ele>
				<time>2026-08-17T03:30:59Z</time>
			</trkpt>
			<trkpt lat="30.230119" lon="120.093451">
				<speed>0.000000</speed>
				<ele>106.000000</ele>
				<time>2026-08-17T03:31:00Z</time>
			</trkpt>
			<trkpt lat="30.230109" lon="120.093440">
				<speed>0.000000</speed>
				<ele>106.000000</ele>
				<time>2026-08-17T03:32:25Z</time>
			</trkpt>
			<trkpt lat="30.230091" lon="120.093429">
				<speed>0.000000</speed>
				<ele>106.000000</ele>
				<time>2026-08-17T03:32:26Z</time>
			</trkpt>
			<trkpt lat="30.230079" lon="120.093416">
				<speed>0.000000</speed>
				<ele>106.000000</ele>
				<time>2026-08-17T03:32:27Z</time>
			</trkpt>
			<trkpt lat="30.230062" lon="120.093404">
				<speed>0.000000</speed>
				<ele>106.000000</ele>
				<time>2026-08-17T03:32:28Z</time>
			</trkpt>
			<trkpt lat="30.230051" lon="120.093394">
				<speed>0.000000</speed>
				<ele>106.000000</ele>
				<time>2026-08-17T03:32:29Z</time>
			</trkpt>
			<trkpt lat="30.230045" lon="120.093382">
				<speed>0.000000</speed>
				<ele>106.000000</ele>
				<time>2026-08-17T03:32:30Z</time>
			</trkpt>
			<trkpt lat="30.230034" lon="120.093371">
				<speed>0.000000</speed>
				<ele>106.000000</ele>
				<time>2026-08-17T03:32:31Z</time>
			</trkpt>
			<trkpt lat="30.230021" lon="120.093358">
				<speed>0.000000</speed>
				<ele>106.000000</ele>
				<time>2026-08-17T03:32:32Z</time>
			</trkpt>
			<trkpt lat="30.230013" lon="120.093343">
				<speed>0.000000</speed>
				<ele>106.000000</ele>
				<time>2026-08-17T03:32:33Z</time>
			</trkpt>
			<trkpt lat="30.230000" lon="120.093317">
				<speed>0.000000</speed>
				<ele>106.000000</ele>
				<time>2026-08-17T03:32:34Z</time>
			</trkpt>
			<trkpt lat="30.229991" lon="120.093296">
				<speed>0.000000</speed>
				<ele>106.000000</ele>
				<time>2026-08-17T03:32:35Z</time>
			</trkpt>
			<trkpt lat="30.229982" lon="120.093280">
				<speed>0.000000</speed>
				<ele>106.000000</ele>
				<time>2026-08-17T03:32:36Z</time>
			</trkpt>
			<trkpt lat="30.229974" lon="120.093274">
				<speed>0.000000</speed>
				<ele>106.000000</ele>
				<time>2026-08-17T03:32:37Z</time>
			</trkpt>
			<trkpt lat="30.229968" lon="120.093267">
				<speed>0.000000</speed>
				<ele>106.000000</ele>
				<time>2026-08-17T03:32:38Z</time>
			</trkpt>
			<trkpt lat="30.229960" lon="120.093240">
				<speed>0.000000</speed>
				<ele>106.000000</ele>
				<time>2026-08-17T03:32:39Z</time>
			</trkpt>
			<trkpt lat="30.229957" lon="120.093232">
				<speed>0.000000</speed>
				<ele>106.000000</ele>
				<time>2026-08-17T03:32:40Z</time>
			</trkpt>
			<trkpt lat="30.229954" lon="120.093224">
				<speed>0.000000</speed>
				<ele>106.000000</ele>
				<time>2026-08-17T03:32:41Z</time>
			</trkpt>
			<trkpt lat="30.229951" lon="120.093217">
				<speed>0.000000</speed>
				<ele>106.000000</ele>
				<time>2026-08-17T03:32:42Z</time>
			</trkpt>
			<trkpt lat="30.229939" lon="120.093196">
				<speed>0.000000</speed>
				<ele>106.000000</ele>
				<time>2026-08-17T03:32:43Z</time>
			</trkpt>
			<trkpt lat="30.229934" lon="120.093190">
				<speed>0.000000</speed>
				<ele>106.000000</ele>
				<time>2026-08-17T03:32:44Z</time>
			</trkpt>
			<trkpt lat="30.229929" lon="120.093184">
				<speed>0.000000</speed>
				<ele>106.000000</ele>
				<time>2026-08-17T03:32:45Z</time>
			</trkpt>
			<trkpt lat="30.229924" lon="120.093177">
				<speed>0.000000</speed>
				<ele>106.000000</ele>
				<time>2026-08-17T03:32:46Z</time>
			</trkpt>
			<trkpt lat="30.229908" lon="120.093158">
				<speed>0.000000</speed>
				<ele>106.000000</ele>
				<time>2026-08-17T03:32:47Z</time>
			</trkpt>
			<trkpt lat="30.229903" lon="120.093151">
				<speed>0.000000</speed>
				<ele>106.000000</ele>
				<time>2026-08-17T03:32:48Z</time>
			</trkpt>
			<trkpt lat="30.229898" lon="120.093145">
				<speed>0.000000</speed>
				<ele>107.000000</ele>
				<time>2026-08-17T03:32:49Z</time>
			</trkpt>
			<trkpt lat="30.229893" lon="120.093138">
				<speed>0.000000</speed>
				<ele>107.000000</ele>
				<time>2026-08-17T03:32:50Z</time>
			</trkpt>
			<trkpt lat="30.229877" lon="120.093118">
				<speed>0.000000</speed>
				<ele>107.000000</ele>
				<time>2026-08-17T03:32:51Z</time>
			</trkpt>
			<trkpt lat="30.229872" lon="120.093111">
				<speed>0.000000</speed>
				<ele>107.000000</ele>
				<time>2026-08-17T03:32:52Z</time>
			</trkpt>
			<trkpt lat="30.229867" lon="120.093105">
				<speed>0.000000</speed>
				<ele>107.000000</ele>
				<time>2026-08-17T03:32:53Z</time>
			</trkpt>
			<trkpt lat="30.229862" lon="120.093099">
				<speed>0.000000</speed>
				<ele>107.000000</ele>
				<time>2026-08-17T03:32:54Z</time>
			</trkpt>
			<trkpt lat="30.229848" lon="120.093081">
				<speed>0.000000</speed>
				<ele>107.000000</ele>
				<time>2026-08-17T03:32:55Z</time>
			</trkpt>
			<trkpt lat="30.229843" lon="120.093075">
				<speed>0.000000</speed>
				<ele>107.000000</ele>
				<time>2026-08-17T03:32:56Z</time>
			</trkpt>
			<trkpt lat="30.229838" lon="120.093070">
				<speed>0.000000</speed>
				<ele>107.000000</ele>
				<time>2026-08-17T03:32:57Z</time>
			</trkpt>
			<trkpt lat="30.229834" lon="120.093065">
				<speed>0.000000</speed>
				<ele>107.000000</ele>
				<time>2026-08-17T03:32:58Z</time>
			</trkpt>
			<trkpt lat="30.229822" lon="120.093054">
				<speed>0.000000</speed>
				<ele>107.000000</ele>
				<time>2026-08-17T03:32:59Z</time>
			</trkpt>
			<trkpt lat="30.229823" lon="120.093035">
				<speed>0.000000</speed>
				<ele>108.000000</ele>
				<time>2026-08-17T03:34:47Z</time>
			</trkpt>
			<trkpt lat="30.229824" lon="120.093013">
				<speed>0.000000</speed>
				<ele>108.000000</ele>
				<time>2026-08-17T03:37:03Z</time>
			</trkpt>
			<trkpt lat="30.229821" lon="120.092986">
				<speed>0.000000</speed>
				<ele>108.000000</ele>
				<time>2026-08-17T03:37:04Z</time>
			</trkpt>
			<trkpt lat="30.229818" lon="120.092980">
				<speed>0.000000</speed>
				<ele>108.000000</ele>
				<time>2026-08-17T03:37:05Z</time>
			</trkpt>
			<trkpt lat="30.229815" lon="120.092974">
				<speed>0.000000</speed>
				<ele>108.000000</ele>
				<time>2026-08-17T03:37:06Z</time>
			</trkpt>
			<trkpt lat="30.229812" lon="120.092969">
				<speed>0.000000</speed>
				<ele>108.000000</ele>
				<time>2026-08-17T03:37:07Z</time>
			</trkpt>
			<trkpt lat="30.229797" lon="120.092952">
				<speed>0.000000</speed>
				<ele>108.000000</ele>
				<time>2026-08-17T03:37:08Z</time>
			</trkpt>
			<trkpt lat="30.229793" lon="120.092947">
				<speed>0.000000</speed>
				<ele>108.000000</ele>
				<time>2026-08-17T03:37:09Z</time>
			</trkpt>
			<trkpt lat="30.229788" lon="120.092942">
				<speed>0.000000</speed>
				<ele>108.000000</ele>
				<time>2026-08-17T03:37:10Z</time>
			</trkpt>
			<trkpt lat="30.229783" lon="120.092937">
				<speed>0.000000</speed>
				<ele>108.000000</ele>
				<time>2026-08-17T03:37:11Z</time>
			</trkpt>
			<trkpt lat="30.229769" lon="120.092923">
				<speed>0.000000</speed>
				<ele>108.000000</ele>
				<time>2026-08-17T03:37:12Z</time>
			</trkpt>
			<trkpt lat="30.229764" lon="120.092918">
				<speed>0.000000</speed>
				<ele>108.000000</ele>
				<time>2026-08-17T03:37:13Z</time>
			</trkpt>
			<trkpt lat="30.229759" lon="120.092913">
				<speed>0.000000</speed>
				<ele>108.000000</ele>
				<time>2026-08-17T03:37:14Z</time>
			</trkpt>
			<trkpt lat="30.229754" lon="120.092908">
				<speed>0.000000</speed>
				<ele>108.000000</ele>
				<time>2026-08-17T03:37:15Z</time>
			</trkpt>
			<trkpt lat="30.229736" lon="120.092892">
				<speed>0.000000</speed>
				<ele>108.000000</ele>
				<time>2026-08-17T03:37:16Z</time>
			</trkpt>
			<trkpt lat="30.229730" lon="120.092887">
				<speed>0.000000</speed>
				<ele>108.000000</ele>
				<time>2026-08-17T03:37:17Z</time>
			</trkpt>
			<trkpt lat="30.229724" lon="120.092881">
				<speed>0.000000</speed>
				<ele>108.000000</ele>
				<time>2026-08-17T03:37:18Z</time>
			</trkpt>
			<trkpt lat="30.229718" lon="120.092876">
				<speed>0.000000</speed>
				<ele>108.000000</ele>
				<time>2026-08-17T03:37:19Z</time>
			</trkpt>
			<trkpt lat="30.229700" lon="120.092859">
				<speed>0.000000</speed>
				<ele>108.000000</ele>
				<time>2026-08-17T03:37:20Z</time>
			</trkpt>
			<trkpt lat="30.229694" lon="120.092853">
				<speed>0.000000</speed>
				<ele>108.000000</ele>
				<time>2026-08-17T03:37:21Z</time>
			</trkpt>
			<trkpt lat="30.229689" lon="120.092848">
				<speed>0.000000</speed>
				<ele>108.000000</ele>
				<time>2026-08-17T03:37:22Z</time>
			</trkpt>
			<trkpt lat="30.229683" lon="120.092842">
				<speed>0.000000</speed>
				<ele>108.000000</ele>
				<time>2026-08-17T03:37:23Z</time>
			</trkpt>
			<trkpt lat="30.229665" lon="120.092828">
				<speed>0.000000</speed>
				<ele>108.000000</ele>
				<time>2026-08-17T03:37:24Z</time>
			</trkpt>
			<trkpt lat="30.229657" lon="120.092824">
				<speed>0.000000</speed>
				<ele>108.000000</ele>
				<time>2026-08-17T03:37:25Z</time>
			</trkpt>
			<trkpt lat="30.229650" lon="120.092819">
				<speed>0.000000</speed>
				<ele>108.000000</ele>
				<time>2026-08-17T03:37:26Z</time>
			</trkpt>
			<trkpt lat="30.229643" lon="120.092815">
				<speed>0.000000</speed>
				<ele>108.000000</ele>
				<time>2026-08-17T03:37:27Z</time>
			</trkpt>
			<trkpt lat="30.229620" lon="120.092800">
				<speed>0.000000</speed>
				<ele>108.000000</ele>
				<time>2026-08-17T03:37:28Z</time>
			</trkpt>
			<trkpt lat="30.229613" lon="120.092795">
				<speed>0.000000</speed>
				<ele>109.000000</ele>
				<time>2026-08-17T03:37:29Z</time>
			</trkpt>
			<trkpt lat="30.229606" lon="120.092789">
				<speed>0.000000</speed>
				<ele>109.000000</ele>
				<time>2026-08-17T03:37:30Z</time>
			</trkpt>
			<trkpt lat="30.229599" lon="120.092783">
				<speed>0.000000</speed>
				<ele>109.000000</ele>
				<time>2026-08-17T03:37:31Z</time>
			</trkpt>
			<trkpt lat="30.229579" lon="120.092765">
				<speed>0.000000</speed>
				<ele>109.000000</ele>
				<time>2026-08-17T03:37:32Z</time>
			</trkpt>
			<trkpt lat="30.229573" lon="120.092758">
				<speed>0.000000</speed>
				<ele>109.000000</ele>
				<time>2026-08-17T03:37:33Z</time>
			</trkpt>
			<trkpt lat="30.229566" lon="120.092752">
				<speed>0.000000</speed>
				<ele>109.000000</ele>
				<time>2026-08-17T03:37:34Z</time>
			</trkpt>
			<trkpt lat="30.229560" lon="120.092746">
				<speed>0.000000</speed>
				<ele>109.000000</ele>
				<time>2026-08-17T03:37:35Z</time>
			</trkpt>
			<trkpt lat="30.229542" lon="120.092726">
				<speed>0.000000</speed>
				<ele>109.000000</ele>
				<time>2026-08-17T03:37:36Z</time>
			</trkpt>
			<trkpt lat="30.229536" lon="120.092719">
				<speed>0.000000</speed>
				<ele>109.000000</ele>
				<time>2026-08-17T03:37:37Z</time>
			</trkpt>
			<trkpt lat="30.229529" lon="120.092712">
				<speed>0.000000</speed>
				<ele>109.000000</ele>
				<time>2026-08-17T03:37:38Z</time>
			</trkpt>
			<trkpt lat="30.229523" lon="120.092705">
				<speed>0.000000</speed>
				<ele>109.000000</ele>
				<time>2026-08-17T03:37:39Z</time>
			</trkpt>
			<trkpt lat="30.229505" lon="120.092682">
				<speed>0.000000</speed>
				<ele>109.000000</ele>
				<time>2026-08-17T03:37:40Z</time>
			</trkpt>
			<trkpt lat="30.229500" lon="120.092674">
				<speed>0.000000</speed>
				<ele>110.000000</ele>
				<time>2026-08-17T03:37:41Z</time>
			</trkpt>
			<trkpt lat="30.229494" lon="120.092666">
				<speed>0.000000</speed>
				<ele>110.000000</ele>
				<time>2026-08-17T03:37:42Z</time>
			</trkpt>
			<trkpt lat="30.229489" lon="120.092659">
				<speed>0.000000</speed>
				<ele>110.000000</ele>
				<time>2026-08-17T03:37:43Z</time>
			</trkpt>
			<trkpt lat="30.229473" lon="120.092635">
				<speed>0.000000</speed>
				<ele>110.000000</ele>
				<time>2026-08-17T03:37:44Z</time>
			</trkpt>
			<trkpt lat="30.229467" lon="120.092626">
				<speed>0.000000</speed>
				<ele>110.000000</ele>
				<time>2026-08-17T03:37:45Z</time>
			</trkpt>
			<trkpt lat="30.229462" lon="120.092618">
				<speed>0.000000</speed>
				<ele>110.000000</ele>
				<time>2026-08-17T03:37:46Z</time>
			</trkpt>
			<trkpt lat="30.229456" lon="120.092610">
				<speed>0.000000</speed>
				<ele>110.000000</ele>
				<time>2026-08-17T03:37:47Z</time>
			</trkpt>
			<trkpt lat="30.229439" lon="120.092585">
				<speed>0.000000</speed>
				<ele>110.000000</ele>
				<time>2026-08-17T03:37:48Z</time>
			</trkpt>
			<trkpt lat="30.229434" lon="120.092577">
				<speed>0.000000</speed>
				<ele>110.000000</ele>
				<time>2026-08-17T03:37:49Z</time>
			</trkpt>
			<trkpt lat="30.229429" lon="120.092568">
				<speed>0.000000</speed>
				<ele>110.000000</ele>
				<time>2026-08-17T03:37:50Z</time>
			</trkpt>
			<trkpt lat="30.229423" lon="120.092560">
				<speed>0.000000</speed>
				<ele>110.000000</ele>
				<time>2026-08-17T03:37:51Z</time>
			</trkpt>
			<trkpt lat="30.229409" lon="120.092535">
				<speed>0.000000</speed>
				<ele>110.000000</ele>
				<time>2026-08-17T03:37:52Z</time>
			</trkpt>
			<trkpt lat="30.229404" lon="120.092526">
				<speed>0.000000</speed>
				<ele>110.000000</ele>
				<time>2026-08-17T03:37:53Z</time>
			</trkpt>
			<trkpt lat="30.229399" lon="120.092518">
				<speed>0.000000</speed>
				<ele>110.000000</ele>
				<time>2026-08-17T03:37:54Z</time>
			</trkpt>
			<trkpt lat="30.229394" lon="120.092510">
				<speed>0.000000</speed>
				<ele>110.000000</ele>
				<time>2026-08-17T03:37:55Z</time>
			</trkpt>
			<trkpt lat="30.229379" lon="120.092487">
				<speed>0.000000</speed>
				<ele>110.000000</ele>
				<time>2026-08-17T03:37:56Z</time>
			</trkpt>
			<trkpt lat="30.229373" lon="120.092479">
				<speed>0.000000</speed>
				<ele>111.000000</ele>
				<time>2026-08-17T03:37:57Z</time>
			</trkpt>
			<trkpt lat="30.229368" lon="120.092471">
				<speed>0.000000</speed>
				<ele>111.000000</ele>
				<time>2026-08-17T03:37:58Z</time>
			</trkpt>
			<trkpt lat="30.229363" lon="120.092464">
				<speed>0.000000</speed>
				<ele>111.000000</ele>
				<time>2026-08-17T03:37:59Z</time>
			</trkpt>
			<trkpt lat="30.229346" lon="120.092439">
				<speed>0.000000</speed>
				<ele>111.000000</ele>
				<time>2026-08-17T03:38:00Z</time>
			</trkpt>
			<trkpt lat="30.229340" lon="120.092431">
				<speed>0.000000</speed>
				<ele>111.000000</ele>
				<time>2026-08-17T03:38:01Z</time>
			</trkpt>
			<trkpt lat="30.229335" lon="120.092424">
				<speed>0.000000</speed>
				<ele>111.000000</ele>
				<time>2026-08-17T03:38:02Z</time>
			</trkpt>
			<trkpt lat="30.229329" lon="120.092416">
				<speed>0.000000</speed>
				<ele>111.000000</ele>
				<time>2026-08-17T03:38:03Z</time>
			</trkpt>
			<trkpt lat="30.229312" lon="120.092394">
				<speed>0.000000</speed>
				<ele>111.000000</ele>
				<time>2026-08-17T03:38:04Z</time>
			</trkpt>
			<trkpt lat="30.229305" lon="120.092387">
				<speed>0.000000</speed>
				<ele>111.000000</ele>
				<time>2026-08-17T03:38:05Z</time>
			</trkpt>
			<trkpt lat="30.229299" lon="120.092380">
				<speed>0.000000</speed>
				<ele>111.000000</ele>
				<time>2026-08-17T03:38:06Z</time>
			</trkpt>
			<trkpt lat="30.229293" lon="120.092373">
				<speed>0.000000</speed>
				<ele>111.000000</ele>
				<time>2026-08-17T03:38:07Z</time>
			</trkpt>
			<trkpt lat="30.229274" lon="120.092352">
				<speed>0.000000</speed>
				<ele>111.000000</ele>
				<time>2026-08-17T03:38:08Z</time>
			</trkpt>
			<trkpt lat="30.229268" lon="120.092345">
				<speed>0.000000</speed>
				<ele>111.000000</ele>
				<time>2026-08-17T03:38:09Z</time>
			</trkpt>
			<trkpt lat="30.229262" lon="120.092338">
				<speed>0.000000</speed>
				<ele>111.000000</ele>
				<time>2026-08-17T03:38:10Z</time>
			</trkpt>
			<trkpt lat="30.229257" lon="120.092331">
				<speed>0.000000</speed>
				<ele>111.000000</ele>
				<time>2026-08-17T03:38:11Z</time>
			</trkpt>
			<trkpt lat="30.229239" lon="120.092310">
				<speed>0.000000</speed>
				<ele>111.000000</ele>
				<time>2026-08-17T03:38:12Z</time>
			</trkpt>
			<trkpt lat="30.229233" lon="120.092305">
				<speed>0.000000</speed>
				<ele>112.000000</ele>
				<time>2026-08-17T03:38:13Z</time>
			</trkpt>
			<trkpt lat="30.229227" lon="120.092299">
				<speed>0.000000</speed>
				<ele>112.000000</ele>
				<time>2026-08-17T03:38:14Z</time>
			</trkpt>
			<trkpt lat="30.229222" lon="120.092294">
				<speed>0.000000</speed>
				<ele>112.000000</ele>
				<time>2026-08-17T03:38:15Z</time>
			</trkpt>
			<trkpt lat="30.229218" lon="120.092289">
				<speed>0.000000</speed>
				<ele>112.000000</ele>
				<time>2026-08-17T03:38:16Z</time>
			</trkpt>
			<trkpt lat="30.229210" lon="120.092281">
				<speed>0.000000</speed>
				<ele>113.000000</ele>
				<time>2026-08-17T03:38:57Z</time>
			</trkpt>
			<trkpt lat="30.229206" lon="120.092280">
				<speed>0.000000</speed>
				<ele>113.000000</ele>
				<time>2026-08-17T03:38:58Z</time>
			</trkpt>
			<trkpt lat="30.229203" lon="120.092273">
				<speed>0.000000</speed>
				<ele>113.000000</ele>
				<time>2026-08-17T03:38:59Z</time>
			</trkpt>
			<trkpt lat="30.229194" lon="120.092269">
				<speed>0.000000</speed>
				<ele>113.000000</ele>
				<time>2026-08-17T03:39:00Z</time>
			</trkpt>
			<trkpt lat="30.229194" lon="120.092274">
				<speed>0.000000</speed>
				<ele>113.000000</ele>
				<time>2026-08-17T03:39:01Z</time>
			</trkpt>
			<trkpt lat="30.229184" lon="120.092259">
				<speed>0.000000</speed>
				<ele>113.000000</ele>
				<time>2026-08-17T03:39:02Z</time>
			</trkpt>
			<trkpt lat="30.229180" lon="120.092250">
				<speed>0.000000</speed>
				<ele>113.000000</ele>
				<time>2026-08-17T03:39:03Z</time>
			</trkpt>
			<trkpt lat="30.229176" lon="120.092240">
				<speed>0.000000</speed>
				<ele>113.000000</ele>
				<time>2026-08-17T03:39:04Z</time>
			</trkpt>
			<trkpt lat="30.229172" lon="120.092231">
				<speed>0.000000</speed>
				<ele>113.000000</ele>
				<time>2026-08-17T03:39:05Z</time>
			</trkpt>
			<trkpt lat="30.229159" lon="120.092202">
				<speed>0.000000</speed>
				<ele>113.000000</ele>
				<time>2026-08-17T03:39:06Z</time>
			</trkpt>
			<trkpt lat="30.229154" lon="120.092193">
				<speed>0.000000</speed>
				<ele>113.000000</ele>
				<time>2026-08-17T03:39:07Z</time>
			</trkpt>
			<trkpt lat="30.229149" lon="120.092184">
				<speed>0.000000</speed>
				<ele>113.000000</ele>
				<time>2026-08-17T03:39:08Z</time>
			</trkpt>
			<trkpt lat="30.229144" lon="120.092175">
				<speed>0.000000</speed>
				<ele>113.000000</ele>
				<time>2026-08-17T03:39:09Z</time>
			</trkpt>
			<trkpt lat="30.229130" lon="120.092148">
				<speed>0.000000</speed>
				<ele>113.000000</ele>
				<time>2026-08-17T03:39:10Z</time>
			</trkpt>
			<trkpt lat="30.229126" lon="120.092139">
				<speed>0.000000</speed>
				<ele>113.000000</ele>
				<time>2026-08-17T03:39:11Z</time>
			</trkpt>
			<trkpt lat="30.229122" lon="120.092130">
				<speed>0.000000</speed>
				<ele>113.000000</ele>
				<time>2026-08-17T03:39:12Z</time>
			</trkpt>
			<trkpt lat="30.229117" lon="120.092122">
				<speed>0.000000</speed>
				<ele>113.000000</ele>
				<time>2026-08-17T03:39:13Z</time>
			</trkpt>
			<trkpt lat="30.229105" lon="120.092096">
				<speed>0.000000</speed>
				<ele>113.000000</ele>
				<time>2026-08-17T03:39:14Z</time>
			</trkpt>
			<trkpt lat="30.229100" lon="120.092088">
				<speed>0.000000</speed>
				<ele>113.000000</ele>
				<time>2026-08-17T03:39:15Z</time>
			</trkpt>
			<trkpt lat="30.229095" lon="120.092079">
				<speed>0.000000</speed>
				<ele>113.000000</ele>
				<time>2026-08-17T03:39:16Z</time>
			</trkpt>
			<trkpt lat="30.229091" lon="120.092071">
				<speed>0.000000</speed>
				<ele>113.000000</ele>
				<time>2026-08-17T03:39:17Z</time>
			</trkpt>
			<trkpt lat="30.229076" lon="120.092045">
				<speed>0.000000</speed>
				<ele>113.000000</ele>
				<time>2026-08-17T03:39:18Z</time>
			</trkpt>
			<trkpt lat="30.229071" lon="120.092036">
				<speed>0.000000</speed>
				<ele>113.000000</ele>
				<time>2026-08-17T03:39:19Z</time>
			</trkpt>
			<trkpt lat="30.229067" lon="120.092027">
				<speed>0.000000</speed>
				<ele>113.000000</ele>
				<time>2026-08-17T03:39:20Z</time>
			</trkpt>
			<trkpt lat="30.229062" lon="120.092019">
				<speed>0.000000</speed>
				<ele>113.000000</ele>
				<time>2026-08-17T03:39:21Z</time>
			</trkpt>
			<trkpt lat="30.229050" lon="120.091994">
				<speed>0.000000</speed>
				<ele>113.000000</ele>
				<time>2026-08-17T03:39:22Z</time>
			</trkpt>
			<trkpt lat="30.229046" lon="120.091986">
				<speed>0.000000</speed>
				<ele>113.000000</ele>
				<time>2026-08-17T03:39:23Z</time>
			</trkpt>
			<trkpt lat="30.229042" lon="120.091978">
				<speed>0.000000</speed>
				<ele>113.000000</ele>
				<time>2026-08-17T03:39:24Z</time>
			</trkpt>
			<trkpt lat="30.229039" lon="120.091970">
				<speed>0.000000</speed>
				<ele>113.000000</ele>
				<time>2026-08-17T03:39:25Z</time>
			</trkpt>
			<trkpt lat="30.229028" lon="120.091945">
				<speed>0.000000</speed>
				<ele>113.000000</ele>
				<time>2026-08-17T03:39:26Z</time>
			</trkpt>
			<trkpt lat="30.229025" lon="120.091937">
				<speed>0.000000</speed>
				<ele>113.000000</ele>
				<time>2026-08-17T03:39:27Z</time>
			</trkpt>
			<trkpt lat="30.229022" lon="120.091930">
				<speed>0.000000</speed>
				<ele>113.000000</ele>
				<time>2026-08-17T03:39:28Z</time>
			</trkpt>
			<trkpt lat="30.229019" lon="120.091922">
				<speed>0.000000</speed>
				<ele>114.000000</ele>
				<time>2026-08-17T03:39:29Z</time>
			</trkpt>
			<trkpt lat="30.229011" lon="120.091897">
				<speed>0.000000</speed>
				<ele>114.000000</ele>
				<time>2026-08-17T03:39:30Z</time>
			</trkpt>
			<trkpt lat="30.229008" lon="120.091888">
				<speed>0.000000</speed>
				<ele>114.000000</ele>
				<time>2026-08-17T03:39:31Z</time>
			</trkpt>
			<trkpt lat="30.229006" lon="120.091879">
				<speed>0.000000</speed>
				<ele>114.000000</ele>
				<time>2026-08-17T03:39:32Z</time>
			</trkpt>
			<trkpt lat="30.229003" lon="120.091871">
				<speed>0.000000</speed>
				<ele>114.000000</ele>
				<time>2026-08-17T03:39:33Z</time>
			</trkpt>
			<trkpt lat="30.228998" lon="120.091843">
				<speed>0.000000</speed>
				<ele>114.000000</ele>
				<time>2026-08-17T03:39:34Z</time>
			</trkpt>
			<trkpt lat="30.228997" lon="120.091834">
				<speed>0.000000</speed>
				<ele>114.000000</ele>
				<time>2026-08-17T03:39:35Z</time>
			</trkpt>
			<trkpt lat="30.228997" lon="120.091825">
				<speed>0.000000</speed>
				<ele>114.000000</ele>
				<time>2026-08-17T03:39:36Z</time>
			</trkpt>
			<trkpt lat="30.228996" lon="120.091816">
				<speed>0.000000</speed>
				<ele>114.000000</ele>
				<time>2026-08-17T03:39:37Z</time>
			</trkpt>
			<trkpt lat="30.228994" lon="120.091788">
				<speed>0.000000</speed>
				<ele>114.000000</ele>
				<time>2026-08-17T03:39:38Z</time>
			</trkpt>
			<trkpt lat="30.228993" lon="120.091779">
				<speed>0.000000</speed>
				<ele>114.000000</ele>
				<time>2026-08-17T03:39:39Z</time>
			</trkpt>
			<trkpt lat="30.228993" lon="120.091770">
				<speed>0.000000</speed>
				<ele>114.000000</ele>
				<time>2026-08-17T03:39:40Z</time>
			</trkpt>
			<trkpt lat="30.228992" lon="120.091761">
				<speed>0.000000</speed>
				<ele>115.000000</ele>
				<time>2026-08-17T03:39:41Z</time>
			</trkpt>
			<trkpt lat="30.228990" lon="120.091734">
				<speed>0.000000</speed>
				<ele>115.000000</ele>
				<time>2026-08-17T03:39:42Z</time>
			</trkpt>
			<trkpt lat="30.228988" lon="120.091724">
				<speed>0.000000</speed>
				<ele>115.000000</ele>
				<time>2026-08-17T03:39:43Z</time>
			</trkpt>
			<trkpt lat="30.228987" lon="120.091715">
				<speed>0.000000</speed>
				<ele>115.000000</ele>
				<time>2026-08-17T03:39:44Z</time>
			</trkpt>
			<trkpt lat="30.228986" lon="120.091706">
				<speed>0.000000</speed>
				<ele>115.000000</ele>
				<time>2026-08-17T03:39:45Z</time>
			</trkpt>
			<trkpt lat="30.228983" lon="120.091679">
				<speed>0.000000</speed>
				<ele>115.000000</ele>
				<time>2026-08-17T03:39:46Z</time>
			</trkpt>
			<trkpt lat="30.228982" lon="120.091671">
				<speed>0.000000</speed>
				<ele>115.000000</ele>
				<time>2026-08-17T03:39:47Z</time>
			</trkpt>
			<trkpt lat="30.228982" lon="120.091662">
				<speed>0.000000</speed>
				<ele>115.000000</ele>
				<time>2026-08-17T03:39:48Z</time>
			</trkpt>
			<trkpt lat="30.228981" lon="120.091653">
				<speed>0.000000</speed>
				<ele>115.000000</ele>
				<time>2026-08-17T03:39:49Z</time>
			</trkpt>
			<trkpt lat="30.228981" lon="120.091628">
				<speed>0.000000</speed>
				<ele>115.000000</ele>
				<time>2026-08-17T03:39:50Z</time>
			</trkpt>
			<trkpt lat="30.228982" lon="120.091619">
				<speed>0.000000</speed>
				<ele>115.000000</ele>
				<time>2026-08-17T03:39:51Z</time>
			</trkpt>
			<trkpt lat="30.228983" lon="120.091610">
				<speed>0.000000</speed>
				<ele>115.000000</ele>
				<time>2026-08-17T03:39:52Z</time>
			</trkpt>
			<trkpt lat="30.228984" lon="120.091602">
				<speed>0.000000</speed>
				<ele>116.000000</ele>
				<time>2026-08-17T03:39:53Z</time>
			</trkpt>
			<trkpt lat="30.228989" lon="120.091574">
				<speed>0.000000</speed>
				<ele>116.000000</ele>
				<time>2026-08-17T03:39:54Z</time>
			</trkpt>
			<trkpt lat="30.228992" lon="120.091564">
				<speed>0.000000</speed>
				<ele>116.000000</ele>
				<time>2026-08-17T03:39:55Z</time>
			</trkpt>
			<trkpt lat="30.228995" lon="120.091554">
				<speed>0.000000</speed>
				<ele>116.000000</ele>
				<time>2026-08-17T03:39:56Z</time>
			</trkpt>
			<trkpt lat="30.228998" lon="120.091545">
				<speed>0.000000</speed>
				<ele>116.000000</ele>
				<time>2026-08-17T03:39:57Z</time>
			</trkpt>
			<trkpt lat="30.229005" lon="120.091520">
				<speed>0.000000</speed>
				<ele>116.000000</ele>
				<time>2026-08-17T03:39:58Z</time>
			</trkpt>
			<trkpt lat="30.229006" lon="120.091513">
				<speed>0.000000</speed>
				<ele>116.000000</ele>
				<time>2026-08-17T03:39:59Z</time>
			</trkpt>
			<trkpt lat="30.229007" lon="120.091505">
				<speed>0.000000</speed>
				<ele>116.000000</ele>
				<time>2026-08-17T03:40:00Z</time>
			</trkpt>
			<trkpt lat="30.229007" lon="120.091498">
				<speed>0.000000</speed>
				<ele>116.000000</ele>
				<time>2026-08-17T03:40:01Z</time>
			</trkpt>
			<trkpt lat="30.229011" lon="120.091472">
				<speed>0.000000</speed>
				<ele>116.000000</ele>
				<time>2026-08-17T03:40:02Z</time>
			</trkpt>
			<trkpt lat="30.229014" lon="120.091463">
				<speed>0.000000</speed>
				<ele>116.000000</ele>
				<time>2026-08-17T03:40:03Z</time>
			</trkpt>
			<trkpt lat="30.229016" lon="120.091454">
				<speed>0.000000</speed>
				<ele>116.000000</ele>
				<time>2026-08-17T03:40:04Z</time>
			</trkpt>
			<trkpt lat="30.229019" lon="120.091445">
				<speed>0.000000</speed>
				<ele>116.000000</ele>
				<time>2026-08-17T03:40:05Z</time>
			</trkpt>
			<trkpt lat="30.229030" lon="120.091418">
				<speed>0.000000</speed>
				<ele>116.000000</ele>
				<time>2026-08-17T03:40:06Z</time>
			</trkpt>
			<trkpt lat="30.229033" lon="120.091408">
				<speed>0.000000</speed>
				<ele>116.000000</ele>
				<time>2026-08-17T03:40:07Z</time>
			</trkpt>
			<trkpt lat="30.229037" lon="120.091398">
				<speed>0.000000</speed>
				<ele>116.000000</ele>
				<time>2026-08-17T03:40:08Z</time>
			</trkpt>
			<trkpt lat="30.229040" lon="120.091389">
				<speed>0.000000</speed>
				<ele>116.000000</ele>
				<time>2026-08-17T03:40:09Z</time>
			</trkpt>
			<trkpt lat="30.229048" lon="120.091359">
				<speed>0.000000</speed>
				<ele>116.000000</ele>
				<time>2026-08-17T03:40:10Z</time>
			</trkpt>
			<trkpt lat="30.229051" lon="120.091350">
				<speed>0.000000</speed>
				<ele>116.000000</ele>
				<time>2026-08-17T03:40:11Z</time>
			</trkpt>
			<trkpt lat="30.229053" lon="120.091340">
				<speed>0.000000</speed>
				<ele>116.000000</ele>
				<time>2026-08-17T03:40:12Z</time>
			</trkpt>
			<trkpt lat="30.229056" lon="120.091330">
				<speed>0.000000</speed>
				<ele>116.000000</ele>
				<time>2026-08-17T03:40:13Z</time>
			</trkpt>
			<trkpt lat="30.229065" lon="120.091303">
				<speed>0.000000</speed>
				<ele>116.000000</ele>
				<time>2026-08-17T03:40:14Z</time>
			</trkpt>
			<trkpt lat="30.229070" lon="120.091296">
				<speed>0.000000</speed>
				<ele>116.000000</ele>
				<time>2026-08-17T03:40:15Z</time>
			</trkpt>
			<trkpt lat="30.229074" lon="120.091289">
				<speed>0.000000</speed>
				<ele>116.000000</ele>
				<time>2026-08-17T03:40:16Z</time>
			</trkpt>
			<trkpt lat="30.229079" lon="120.091282">
				<speed>0.000000</speed>
				<ele>117.000000</ele>
				<time>2026-08-17T03:40:17Z</time>
			</trkpt>
			<trkpt lat="30.229097" lon="120.091274">
				<speed>0.000000</speed>
				<ele>117.000000</ele>
				<time>2026-08-17T03:40:18Z</time>
			</trkpt>
			<trkpt lat="30.229103" lon="120.091275">
				<speed>0.000000</speed>
				<ele>117.000000</ele>
				<time>2026-08-17T03:40:19Z</time>
			</trkpt>
			<trkpt lat="30.229110" lon="120.091276">
				<speed>0.000000</speed>
				<ele>117.000000</ele>
				<time>2026-08-17T03:40:20Z</time>
			</trkpt>
			<trkpt lat="30.229116" lon="120.091277">
				<speed>0.000000</speed>
				<ele>117.000000</ele>
				<time>2026-08-17T03:40:21Z</time>
			</trkpt>
			<trkpt lat="30.229137" lon="120.091288">
				<speed>0.000000</speed>
				<ele>117.000000</ele>
				<time>2026-08-17T03:40:22Z</time>
			</trkpt>
			<trkpt lat="30.229144" lon="120.091291">
				<speed>0.000000</speed>
				<ele>117.000000</ele>
				<time>2026-08-17T03:40:23Z</time>
			</trkpt>
			<trkpt lat="30.229151" lon="120.091294">
				<speed>0.000000</speed>
				<ele>117.000000</ele>
				<time>2026-08-17T03:40:24Z</time>
			</trkpt>
			<trkpt lat="30.229159" lon="120.091298">
				<speed>0.000000</speed>
				<ele>117.000000</ele>
				<time>2026-08-17T03:40:25Z</time>
			</trkpt>
			<trkpt lat="30.229182" lon="120.091306">
				<speed>0.000000</speed>
				<ele>117.000000</ele>
				<time>2026-08-17T03:40:26Z</time>
			</trkpt>
			<trkpt lat="30.229190" lon="120.091308">
				<speed>0.000000</speed>
				<ele>117.000000</ele>
				<time>2026-08-17T03:40:27Z</time>
			</trkpt>
			<trkpt lat="30.229198" lon="120.091310">
				<speed>0.000000</speed>
				<ele>117.000000</ele>
				<time>2026-08-17T03:40:28Z</time>
			</trkpt>
			<trkpt lat="30.229206" lon="120.091312">
				<speed>0.000000</speed>
				<ele>117.000000</ele>
				<time>2026-08-17T03:40:29Z</time>
			</trkpt>
			<trkpt lat="30.229229" lon="120.091316">
				<speed>0.000000</speed>
				<ele>117.000000</ele>
				<time>2026-08-17T03:40:30Z</time>
			</trkpt>
			<trkpt lat="30.229236" lon="120.091316">
				<speed>0.000000</speed>
				<ele>117.000000</ele>
				<time>2026-08-17T03:40:31Z</time>
			</trkpt>
			<trkpt lat="30.229244" lon="120.091317">
				<speed>0.000000</speed>
				<ele>117.000000</ele>
				<time>2026-08-17T03:40:32Z</time>
			</trkpt>
			<trkpt lat="30.229251" lon="120.091318">
				<speed>0.000000</speed>
				<ele>117.000000</ele>
				<time>2026-08-17T03:40:33Z</time>
			</trkpt>
			<trkpt lat="30.229274" lon="120.091320">
				<speed>0.000000</speed>
				<ele>117.000000</ele>
				<time>2026-08-17T03:40:34Z</time>
			</trkpt>
			<trkpt lat="30.229282" lon="120.091322">
				<speed>0.000000</speed>
				<ele>117.000000</ele>
				<time>2026-08-17T03:40:35Z</time>
			</trkpt>
			<trkpt lat="30.229290" lon="120.091324">
				<speed>0.000000</speed>
				<ele>117.000000</ele>
				<time>2026-08-17T03:40:36Z</time>
			</trkpt>
			<trkpt lat="30.229298" lon="120.091326">
				<speed>0.000000</speed>
				<ele>117.000000</ele>
				<time>2026-08-17T03:40:37Z</time>
			</trkpt>
			<trkpt lat="30.229320" lon="120.091335">
				<speed>0.000000</speed>
				<ele>117.000000</ele>
				<time>2026-08-17T03:40:38Z</time>
			</trkpt>
			<trkpt lat="30.229327" lon="120.091340">
				<speed>0.000000</speed>
				<ele>117.000000</ele>
				<time>2026-08-17T03:40:39Z</time>
			</trkpt>
			<trkpt lat="30.229333" lon="120.091345">
				<speed>0.000000</speed>
				<ele>117.000000</ele>
				<time>2026-08-17T03:40:40Z</time>
			</trkpt>
			<trkpt lat="30.229339" lon="120.091349">
				<speed>0.000000</speed>
				<ele>117.000000</ele>
				<time>2026-08-17T03:40:41Z</time>
			</trkpt>
			<trkpt lat="30.229357" lon="120.091366">
				<speed>0.000000</speed>
				<ele>117.000000</ele>
				<time>2026-08-17T03:40:42Z</time>
			</trkpt>
			<trkpt lat="30.229363" lon="120.091371">
				<speed>0.000000</speed>
				<ele>117.000000</ele>
				<time>2026-08-17T03:40:43Z</time>
			</trkpt>
			<trkpt lat="30.229369" lon="120.091376">
				<speed>0.000000</speed>
				<ele>117.000000</ele>
				<time>2026-08-17T03:40:44Z</time>
			</trkpt>
			<trkpt lat="30.229375" lon="120.091381">
				<speed>0.000000</speed>
				<ele>117.000000</ele>
				<time>2026-08-17T03:40:45Z</time>
			</trkpt>
			<trkpt lat="30.229394" lon="120.091392">
				<speed>0.000000</speed>
				<ele>117.000000</ele>
				<time>2026-08-17T03:40:46Z</time>
			</trkpt>
			<trkpt lat="30.229402" lon="120.091395">
				<speed>0.000000</speed>
				<ele>117.000000</ele>
				<time>2026-08-17T03:40:47Z</time>
			</trkpt>
			<trkpt lat="30.229410" lon="120.091399">
				<speed>0.000000</speed>
				<ele>117.000000</ele>
				<time>2026-08-17T03:40:48Z</time>
			</trkpt>
			<trkpt lat="30.229418" lon="120.091402">
				<speed>0.000000</speed>
				<ele>117.000000</ele>
				<time>2026-08-17T03:40:49Z</time>
			</trkpt>
			<trkpt lat="30.229442" lon="120.091414">
				<speed>0.000000</speed>
				<ele>117.000000</ele>
				<time>2026-08-17T03:40:50Z</time>
			</trkpt>
			<trkpt lat="30.229449" lon="120.091419">
				<speed>0.000000</speed>
				<ele>117.000000</ele>
				<time>2026-08-17T03:40:51Z</time>
			</trkpt>
			<trkpt lat="30.229456" lon="120.091424">
				<speed>0.000000</speed>
				<ele>117.000000</ele>
				<time>2026-08-17T03:40:52Z</time>
			</trkpt>
			<trkpt lat="30.229464" lon="120.091429">
				<speed>0.000000</speed>
				<ele>117.000000</ele>
				<time>2026-08-17T03:40:53Z</time>
			</trkpt>
			<trkpt lat="30.229483" lon="120.091442">
				<speed>0.000000</speed>
				<ele>117.000000</ele>
				<time>2026-08-17T03:40:54Z</time>
			</trkpt>
			<trkpt lat="30.229489" lon="120.091446">
				<speed>0.000000</speed>
				<ele>117.000000</ele>
				<time>2026-08-17T03:40:55Z</time>
			</trkpt>
			<trkpt lat="30.229495" lon="120.091451">
				<speed>0.000000</speed>
				<ele>117.000000</ele>
				<time>2026-08-17T03:40:56Z</time>
			</trkpt>
			<trkpt lat="30.229501" lon="120.091455">
				<speed>0.000000</speed>
				<ele>117.000000</ele>
				<time>2026-08-17T03:40:57Z</time>
			</trkpt>
			<trkpt lat="30.229521" lon="120.091470">
				<speed>0.000000</speed>
				<ele>117.000000</ele>
				<time>2026-08-17T03:40:58Z</time>
			</trkpt>
			<trkpt lat="30.229528" lon="120.091474">
				<speed>0.000000</speed>
				<ele>117.000000</ele>
				<time>2026-08-17T03:40:59Z</time>
			</trkpt>
			<trkpt lat="30.229536" lon="120.091478">
				<speed>0.000000</speed>
				<ele>117.000000</ele>
				<time>2026-08-17T03:41:00Z</time>
			</trkpt>
			<trkpt lat="30.229543" lon="120.091482">
				<speed>0.000000</speed>
				<ele>117.000000</ele>
				<time>2026-08-17T03:41:01Z</time>
			</trkpt>
			<trkpt lat="30.229566" lon="120.091492">
				<speed>0.000000</speed>
				<ele>117.000000</ele>
				<time>2026-08-17T03:41:02Z</time>
			</trkpt>
			<trkpt lat="30.229574" lon="120.091495">
				<speed>0.000000</speed>
				<ele>117.000000</ele>
				<time>2026-08-17T03:41:03Z</time>
			</trkpt>
			<trkpt lat="30.229581" lon="120.091498">
				<speed>0.000000</speed>
				<ele>117.000000</ele>
				<time>2026-08-17T03:41:04Z</time>
			</trkpt>
			<trkpt lat="30.229588" lon="120.091502">
				<speed>0.000000</speed>
				<ele>117.000000</ele>
				<time>2026-08-17T03:41:05Z</time>
			</trkpt>
			<trkpt lat="30.229610" lon="120.091514">
				<speed>0.000000</speed>
				<ele>117.000000</ele>
				<time>2026-08-17T03:41:06Z</time>
			</trkpt>
			<trkpt lat="30.229617" lon="120.091517">
				<speed>0.000000</speed>
				<ele>117.000000</ele>
				<time>2026-08-17T03:41:07Z</time>
			</trkpt>
			<trkpt lat="30.229624" lon="120.091521">
				<speed>0.000000</speed>
				<ele>117.000000</ele>
				<time>2026-08-17T03:41:08Z</time>
			</trkpt>
			<trkpt lat="30.229631" lon="120.091525">
				<speed>0.000000</speed>
				<ele>117.000000</ele>
				<time>2026-08-17T03:41:09Z</time>
			</trkpt>
			<trkpt lat="30.229653" lon="120.091530">
				<speed>0.000000</speed>
				<ele>117.000000</ele>
				<time>2026-08-17T03:41:10Z</time>
			</trkpt>
			<trkpt lat="30.229660" lon="120.091528">
				<speed>0.000000</speed>
				<ele>117.000000</ele>
				<time>2026-08-17T03:41:11Z</time>
			</trkpt>
			<trkpt lat="30.229668" lon="120.091527">
				<speed>0.000000</speed>
				<ele>117.000000</ele>
				<time>2026-08-17T03:41:12Z</time>
			</trkpt>
			<trkpt lat="30.229676" lon="120.091526">
				<speed>0.000000</speed>
				<ele>117.000000</ele>
				<time>2026-08-17T03:41:13Z</time>
			</trkpt>
			<trkpt lat="30.229700" lon="120.091518">
				<speed>0.000000</speed>
				<ele>117.000000</ele>
				<time>2026-08-17T03:41:14Z</time>
			</trkpt>
			<trkpt lat="30.229708" lon="120.091515">
				<speed>0.000000</speed>
				<ele>117.000000</ele>
				<time>2026-08-17T03:41:15Z</time>
			</trkpt>
			<trkpt lat="30.229717" lon="120.091511">
				<speed>0.000000</speed>
				<ele>117.000000</ele>
				<time>2026-08-17T03:41:16Z</time>
			</trkpt>
			<trkpt lat="30.229725" lon="120.091508">
				<speed>0.000000</speed>
				<ele>117.000000</ele>
				<time>2026-08-17T03:41:17Z</time>
			</trkpt>
			<trkpt lat="30.229747" lon="120.091497">
				<speed>0.000000</speed>
				<ele>116.000000</ele>
				<time>2026-08-17T03:41:18Z</time>
			</trkpt>
			<trkpt lat="30.229753" lon="120.091493">
				<speed>0.000000</speed>
				<ele>116.000000</ele>
				<time>2026-08-17T03:41:19Z</time>
			</trkpt>
			<trkpt lat="30.229759" lon="120.091490">
				<speed>0.000000</speed>
				<ele>116.000000</ele>
				<time>2026-08-17T03:41:20Z</time>
			</trkpt>
			<trkpt lat="30.229765" lon="120.091486">
				<speed>0.000000</speed>
				<ele>116.000000</ele>
				<time>2026-08-17T03:41:21Z</time>
			</trkpt>
			<trkpt lat="30.229777" lon="120.091474">
				<speed>0.000000</speed>
				<ele>116.000000</ele>
				<time>2026-08-17T03:41:22Z</time>
			</trkpt>
			<trkpt lat="30.229780" lon="120.091470">
				<speed>0.000000</speed>
				<ele>116.000000</ele>
				<time>2026-08-17T03:41:23Z</time>
			</trkpt>
			<trkpt lat="30.229784" lon="120.091466">
				<speed>0.000000</speed>
				<ele>116.000000</ele>
				<time>2026-08-17T03:41:24Z</time>
			</trkpt>
			<trkpt lat="30.229787" lon="120.091462">
				<speed>0.000000</speed>
				<ele>116.000000</ele>
				<time>2026-08-17T03:41:25Z</time>
			</trkpt>
			<trkpt lat="30.229797" lon="120.091451">
				<speed>0.000000</speed>
				<ele>116.000000</ele>
				<time>2026-08-17T03:41:26Z</time>
			</trkpt>
			<trkpt lat="30.229800" lon="120.091448">
				<speed>0.000000</speed>
				<ele>116.000000</ele>
				<time>2026-08-17T03:41:27Z</time>
			</trkpt>
			<trkpt lat="30.229803" lon="120.091444">
				<speed>0.000000</speed>
				<ele>116.000000</ele>
				<time>2026-08-17T03:41:28Z</time>
			</trkpt>
			<trkpt lat="30.229806" lon="120.091440">
				<speed>0.000000</speed>
				<ele>116.000000</ele>
				<time>2026-08-17T03:41:29Z</time>
			</trkpt>
			<trkpt lat="30.229813" lon="120.091427">
				<speed>0.000000</speed>
				<ele>116.000000</ele>
				<time>2026-08-17T03:41:30Z</time>
			</trkpt>
			<trkpt lat="30.229816" lon="120.091421">
				<speed>0.000000</speed>
				<ele>116.000000</ele>
				<time>2026-08-17T03:41:31Z</time>
			</trkpt>
			<trkpt lat="30.229818" lon="120.091415">
				<speed>0.000000</speed>
				<ele>116.000000</ele>
				<time>2026-08-17T03:41:32Z</time>
			</trkpt>
			<trkpt lat="30.229821" lon="120.091409">
				<speed>0.000000</speed>
				<ele>116.000000</ele>
				<time>2026-08-17T03:41:33Z</time>
			</trkpt>
			<trkpt lat="30.229828" lon="120.091390">
				<speed>0.000000</speed>
				<ele>116.000000</ele>
				<time>2026-08-17T03:41:34Z</time>
			</trkpt>
			<trkpt lat="30.229830" lon="120.091384">
				<speed>0.000000</speed>
				<ele>116.000000</ele>
				<time>2026-08-17T03:41:35Z</time>
			</trkpt>
			<trkpt lat="30.229832" lon="120.091377">
				<speed>0.000000</speed>
				<ele>116.000000</ele>
				<time>2026-08-17T03:41:36Z</time>
			</trkpt>
			<trkpt lat="30.229834" lon="120.091371">
				<speed>0.000000</speed>
				<ele>117.000000</ele>
				<time>2026-08-17T03:41:37Z</time>
			</trkpt>
			<trkpt lat="30.229839" lon="120.091355">
				<speed>0.000000</speed>
				<ele>117.000000</ele>
				<time>2026-08-17T03:41:38Z</time>
			</trkpt>
			<trkpt lat="30.229840" lon="120.091350">
				<speed>0.000000</speed>
				<ele>117.000000</ele>
				<time>2026-08-17T03:41:39Z</time>
			</trkpt>
			<trkpt lat="30.229841" lon="120.091344">
				<speed>0.000000</speed>
				<ele>117.000000</ele>
				<time>2026-08-17T03:41:40Z</time>
			</trkpt>
			<trkpt lat="30.229842" lon="120.091339">
				<speed>0.000000</speed>
				<ele>117.000000</ele>
				<time>2026-08-17T03:41:41Z</time>
			</trkpt>
			<trkpt lat="30.229846" lon="120.091320">
				<speed>0.000000</speed>
				<ele>117.000000</ele>
				<time>2026-08-17T03:41:42Z</time>
			</trkpt>
			<trkpt lat="30.229848" lon="120.091313">
				<speed>0.000000</speed>
				<ele>117.000000</ele>
				<time>2026-08-17T03:41:43Z</time>
			</trkpt>
			<trkpt lat="30.229850" lon="120.091306">
				<speed>0.000000</speed>
				<ele>117.000000</ele>
				<time>2026-08-17T03:41:44Z</time>
			</trkpt>
			<trkpt lat="30.229851" lon="120.091299">
				<speed>0.000000</speed>
				<ele>118.000000</ele>
				<time>2026-08-17T03:41:45Z</time>
			</trkpt>
			<trkpt lat="30.229855" lon="120.091277">
				<speed>0.000000</speed>
				<ele>118.000000</ele>
				<time>2026-08-17T03:41:46Z</time>
			</trkpt>
			<trkpt lat="30.229856" lon="120.091271">
				<speed>0.000000</speed>
				<ele>118.000000</ele>
				<time>2026-08-17T03:41:47Z</time>
			</trkpt>
			<trkpt lat="30.229856" lon="120.091264">
				<speed>0.000000</speed>
				<ele>118.000000</ele>
				<time>2026-08-17T03:41:48Z</time>
			</trkpt>
			<trkpt lat="30.229857" lon="120.091257">
				<speed>0.000000</speed>
				<ele>118.000000</ele>
				<time>2026-08-17T03:41:49Z</time>
			</trkpt>
			<trkpt lat="30.229857" lon="120.091238">
				<speed>0.000000</speed>
				<ele>118.000000</ele>
				<time>2026-08-17T03:41:50Z</time>
			</trkpt>
			<trkpt lat="30.229857" lon="120.091232">
				<speed>0.000000</speed>
				<ele>118.000000</ele>
				<time>2026-08-17T03:41:51Z</time>
			</trkpt>
			<trkpt lat="30.229857" lon="120.091225">
				<speed>0.000000</speed>
				<ele>118.000000</ele>
				<time>2026-08-17T03:41:52Z</time>
			</trkpt>
			<trkpt lat="30.229857" lon="120.091218">
				<speed>0.000000</speed>
				<ele>119.000000</ele>
				<time>2026-08-17T03:41:53Z</time>
			</trkpt>
			<trkpt lat="30.229857" lon="120.091199">
				<speed>0.000000</speed>
				<ele>119.000000</ele>
				<time>2026-08-17T03:41:54Z</time>
			</trkpt>
			<trkpt lat="30.229857" lon="120.091192">
				<speed>0.000000</speed>
				<ele>119.000000</ele>
				<time>2026-08-17T03:41:55Z</time>
			</trkpt>
			<trkpt lat="30.229856" lon="120.091187">
				<speed>0.000000</speed>
				<ele>119.000000</ele>
				<time>2026-08-17T03:41:56Z</time>
			</trkpt>
			<trkpt lat="30.229856" lon="120.091180">
				<speed>0.000000</speed>
				<ele>120.000000</ele>
				<time>2026-08-17T03:41:57Z</time>
			</trkpt>
			<trkpt lat="30.229857" lon="120.091163">
				<speed>0.000000</speed>
				<ele>120.000000</ele>
				<time>2026-08-17T03:41:58Z</time>
			</trkpt>
			<trkpt lat="30.229858" lon="120.091158">
				<speed>0.000000</speed>
				<ele>120.000000</ele>
				<time>2026-08-17T03:41:59Z</time>
			</trkpt>
			<trkpt lat="30.229859" lon="120.091153">
				<speed>0.000000</speed>
				<ele>120.000000</ele>
				<time>2026-08-17T03:42:00Z</time>
			</trkpt>
			<trkpt lat="30.229860" lon="120.091148">
				<speed>0.000000</speed>
				<ele>120.000000</ele>
				<time>2026-08-17T03:42:01Z</time>
			</trkpt>
			<trkpt lat="30.229863" lon="120.091135">
				<speed>0.000000</speed>
				<ele>120.000000</ele>
				<time>2026-08-17T03:42:02Z</time>
			</trkpt>
			<trkpt lat="30.229864" lon="120.091130">
				<speed>0.000000</speed>
				<ele>120.000000</ele>
				<time>2026-08-17T03:42:03Z</time>
			</trkpt>
			<trkpt lat="30.229865" lon="120.091126">
				<speed>0.000000</speed>
				<ele>120.000000</ele>
				<time>2026-08-17T03:42:04Z</time>
			</trkpt>
			<trkpt lat="30.229866" lon="120.091121">
				<speed>0.000000</speed>
				<ele>121.000000</ele>
				<time>2026-08-17T03:42:05Z</time>
			</trkpt>
			<trkpt lat="30.229868" lon="120.091113">
				<speed>0.000000</speed>
				<ele>121.000000</ele>
				<time>2026-08-17T03:42:06Z</time>
			</trkpt>
			<trkpt lat="30.229873" lon="120.091090">
				<speed>0.000000</speed>
				<ele>123.000000</ele>
				<time>2026-08-17T03:42:18Z</time>
			</trkpt>
			<trkpt lat="30.229881" lon="120.091058">
				<speed>0.000000</speed>
				<ele>125.000000</ele>
				<time>2026-08-17T03:42:29Z</time>
			</trkpt>
			<trkpt lat="30.229892" lon="120.091018">
				<speed>0.000000</speed>
				<ele>127.000000</ele>
				<time>2026-08-17T03:42:40Z</time>
			</trkpt>
			<trkpt lat="30.229904" lon="120.090973">
				<speed>0.000000</speed>
				<ele>128.000000</ele>
				<time>2026-08-17T03:42:41Z</time>
			</trkpt>
			<trkpt lat="30.229908" lon="120.090964">
				<speed>0.000000</speed>
				<ele>128.000000</ele>
				<time>2026-08-17T03:42:42Z</time>
			</trkpt>
			<trkpt lat="30.229911" lon="120.090956">
				<speed>0.000000</speed>
				<ele>128.000000</ele>
				<time>2026-08-17T03:42:43Z</time>
			</trkpt>
			<trkpt lat="30.229914" lon="120.090948">
				<speed>0.000000</speed>
				<ele>128.000000</ele>
				<time>2026-08-17T03:42:44Z</time>
			</trkpt>
			<trkpt lat="30.229923" lon="120.090929">
				<speed>0.000000</speed>
				<ele>128.000000</ele>
				<time>2026-08-17T03:42:45Z</time>
			</trkpt>
			<trkpt lat="30.229926" lon="120.090924">
				<speed>0.000000</speed>
				<ele>128.000000</ele>
				<time>2026-08-17T03:42:46Z</time>
			</trkpt>
			<trkpt lat="30.229929" lon="120.090919">
				<speed>0.000000</speed>
				<ele>128.000000</ele>
				<time>2026-08-17T03:42:47Z</time>
			</trkpt>
			<trkpt lat="30.229932" lon="120.090914">
				<speed>0.000000</speed>
				<ele>128.000000</ele>
				<time>2026-08-17T03:42:48Z</time>
			</trkpt>
			<trkpt lat="30.229934" lon="120.090912">
				<speed>0.000000</speed>
				<ele>129.000000</ele>
				<time>2026-08-17T03:42:49Z</time>
			</trkpt>
			<trkpt lat="30.229935" lon="120.090910">
				<speed>0.000000</speed>
				<ele>129.000000</ele>
				<time>2026-08-17T03:42:50Z</time>
			</trkpt>
			<trkpt lat="30.229937" lon="120.090908">
				<speed>0.000000</speed>
				<ele>129.000000</ele>
				<time>2026-08-17T03:42:51Z</time>
			</trkpt>
			<trkpt lat="30.229939" lon="120.090906">
				<speed>0.000000</speed>
				<ele>129.000000</ele>
				<time>2026-08-17T03:42:52Z</time>
			</trkpt>
			<trkpt lat="30.229941" lon="120.090904">
				<speed>0.000000</speed>
				<ele>130.000000</ele>
				<time>2026-08-17T03:42:53Z</time>
			</trkpt>
			<trkpt lat="30.229955" lon="120.090892">
				<speed>0.000000</speed>
				<ele>130.000000</ele>
				<time>2026-08-17T03:42:54Z</time>
			</trkpt>
			<trkpt lat="30.229959" lon="120.090889">
				<speed>0.000000</speed>
				<ele>130.000000</ele>
				<time>2026-08-17T03:42:55Z</time>
			</trkpt>
			<trkpt lat="30.229964" lon="120.090886">
				<speed>0.000000</speed>
				<ele>130.000000</ele>
				<time>2026-08-17T03:42:56Z</time>
			</trkpt>
			<trkpt lat="30.229968" lon="120.090883">
				<speed>0.000000</speed>
				<ele>131.000000</ele>
				<time>2026-08-17T03:42:57Z</time>
			</trkpt>
			<trkpt lat="30.229980" lon="120.090873">
				<speed>0.000000</speed>
				<ele>131.000000</ele>
				<time>2026-08-17T03:42:58Z</time>
			</trkpt>
			<trkpt lat="30.229983" lon="120.090869">
				<speed>0.000000</speed>
				<ele>131.000000</ele>
				<time>2026-08-17T03:42:59Z</time>
			</trkpt>
			<trkpt lat="30.229986" lon="120.090865">
				<speed>0.000000</speed>
				<ele>131.000000</ele>
				<time>2026-08-17T03:43:00Z</time>
			</trkpt>
			<trkpt lat="30.229990" lon="120.090861">
				<speed>0.000000</speed>
				<ele>131.000000</ele>
				<time>2026-08-17T03:43:01Z</time>
			</trkpt>
			<trkpt lat="30.229999" lon="120.090847">
				<speed>0.000000</speed>
				<ele>131.000000</ele>
				<time>2026-08-17T03:43:02Z</time>
			</trkpt>
			<trkpt lat="30.230002" lon="120.090842">
				<speed>0.000000</speed>
				<ele>131.000000</ele>
				<time>2026-08-17T03:43:03Z</time>
			</trkpt>
			<trkpt lat="30.230004" lon="120.090837">
				<speed>0.000000</speed>
				<ele>131.000000</ele>
				<time>2026-08-17T03:43:04Z</time>
			</trkpt>
			<trkpt lat="30.230006" lon="120.090832">
				<speed>0.000000</speed>
				<ele>132.000000</ele>
				<time>2026-08-17T03:43:05Z</time>
			</trkpt>
			<trkpt lat="30.230010" lon="120.090815">
				<speed>0.000000</speed>
				<ele>132.000000</ele>
				<time>2026-08-17T03:43:06Z</time>
			</trkpt>
			<trkpt lat="30.230012" lon="120.090808">
				<speed>0.000000</speed>
				<ele>132.000000</ele>
				<time>2026-08-17T03:43:07Z</time>
			</trkpt>
			<trkpt lat="30.230013" lon="120.090802">
				<speed>0.000000</speed>
				<ele>132.000000</ele>
				<time>2026-08-17T03:43:08Z</time>
			</trkpt>
			<trkpt lat="30.230014" lon="120.090796">
				<speed>0.000000</speed>
				<ele>133.000000</ele>
				<time>2026-08-17T03:43:09Z</time>
			</trkpt>
			<trkpt lat="30.230019" lon="120.090776">
				<speed>0.000000</speed>
				<ele>133.000000</ele>
				<time>2026-08-17T03:43:10Z</time>
			</trkpt>
			<trkpt lat="30.230021" lon="120.090770">
				<speed>0.000000</speed>
				<ele>133.000000</ele>
				<time>2026-08-17T03:43:11Z</time>
			</trkpt>
			<trkpt lat="30.230022" lon="120.090764">
				<speed>0.000000</speed>
				<ele>133.000000</ele>
				<time>2026-08-17T03:43:12Z</time>
			</trkpt>
			<trkpt lat="30.230024" lon="120.090758">
				<speed>0.000000</speed>
				<ele>133.000000</ele>
				<time>2026-08-17T03:43:13Z</time>
			</trkpt>
			<trkpt lat="30.230026" lon="120.090755">
				<speed>0.000000</speed>
				<ele>133.000000</ele>
				<time>2026-08-17T03:43:14Z</time>
			</trkpt>
			<trkpt lat="30.230027" lon="120.090751">
				<speed>0.000000</speed>
				<ele>133.000000</ele>
				<time>2026-08-17T03:43:15Z</time>
			</trkpt>
			<trkpt lat="30.230029" lon="120.090747">
				<speed>0.000000</speed>
				<ele>133.000000</ele>
				<time>2026-08-17T03:43:16Z</time>
			</trkpt>
			<trkpt lat="30.230037" lon="120.090733">
				<speed>0.000000</speed>
				<ele>134.000000</ele>
				<time>2026-08-17T03:43:17Z</time>
			</trkpt>
			<trkpt lat="30.230039" lon="120.090730">
				<speed>0.000000</speed>
				<ele>134.000000</ele>
				<time>2026-08-17T03:43:18Z</time>
			</trkpt>
			<trkpt lat="30.230041" lon="120.090728">
				<speed>0.000000</speed>
				<ele>134.000000</ele>
				<time>2026-08-17T03:43:19Z</time>
			</trkpt>
			<trkpt lat="30.230044" lon="120.090726">
				<speed>0.000000</speed>
				<ele>134.000000</ele>
				<time>2026-08-17T03:43:20Z</time>
			</trkpt>
			<trkpt lat="30.230047" lon="120.090724">
				<speed>0.000000</speed>
				<ele>134.000000</ele>
				<time>2026-08-17T03:43:21Z</time>
			</trkpt>
			<trkpt lat="30.230057" lon="120.090718">
				<speed>0.000000</speed>
				<ele>134.000000</ele>
				<time>2026-08-17T03:43:22Z</time>
			</trkpt>
			<trkpt lat="30.230065" lon="120.090703">
				<speed>0.000000</speed>
				<ele>135.000000</ele>
				<time>2026-08-17T03:43:30Z</time>
			</trkpt>
			<trkpt lat="30.230068" lon="120.090686">
				<speed>0.000000</speed>
				<ele>135.000000</ele>
				<time>2026-08-17T03:43:31Z</time>
			</trkpt>
			<trkpt lat="30.230068" lon="120.090681">
				<speed>0.000000</speed>
				<ele>135.000000</ele>
				<time>2026-08-17T03:43:32Z</time>
			</trkpt>
			<trkpt lat="30.230069" lon="120.090677">
				<speed>0.000000</speed>
				<ele>136.000000</ele>
				<time>2026-08-17T03:43:33Z</time>
			</trkpt>
			<trkpt lat="30.230070" lon="120.090672">
				<speed>0.000000</speed>
				<ele>136.000000</ele>
				<time>2026-08-17T03:43:34Z</time>
			</trkpt>
			<trkpt lat="30.230074" lon="120.090659">
				<speed>0.000000</speed>
				<ele>136.000000</ele>
				<time>2026-08-17T03:43:35Z</time>
			</trkpt>
			<trkpt lat="30.230076" lon="120.090655">
				<speed>0.000000</speed>
				<ele>136.000000</ele>
				<time>2026-08-17T03:43:36Z</time>
			</trkpt>
			<trkpt lat="30.230077" lon="120.090651">
				<speed>0.000000</speed>
				<ele>137.000000</ele>
				<time>2026-08-17T03:43:37Z</time>
			</trkpt>
			<trkpt lat="30.230078" lon="120.090647">
				<speed>0.000000</speed>
				<ele>137.000000</ele>
				<time>2026-08-17T03:43:38Z</time>
			</trkpt>
			<trkpt lat="30.230082" lon="120.090634">
				<speed>0.000000</speed>
				<ele>137.000000</ele>
				<time>2026-08-17T03:43:39Z</time>
			</trkpt>
			<trkpt lat="30.230084" lon="120.090629">
				<speed>0.000000</speed>
				<ele>137.000000</ele>
				<time>2026-08-17T03:43:40Z</time>
			</trkpt>
			<trkpt lat="30.230086" lon="120.090625">
				<speed>0.000000</speed>
				<ele>138.000000</ele>
				<time>2026-08-17T03:43:41Z</time>
			</trkpt>
			<trkpt lat="30.230088" lon="120.090620">
				<speed>0.000000</speed>
				<ele>138.000000</ele>
				<time>2026-08-17T03:43:42Z</time>
			</trkpt>
			<trkpt lat="30.230094" lon="120.090608">
				<speed>0.000000</speed>
				<ele>138.000000</ele>
				<time>2026-08-17T03:43:43Z</time>
			</trkpt>
			<trkpt lat="30.230096" lon="120.090603">
				<speed>0.000000</speed>
				<ele>138.000000</ele>
				<time>2026-08-17T03:43:44Z</time>
			</trkpt>
			<trkpt lat="30.230098" lon="120.090598">
				<speed>0.000000</speed>
				<ele>139.000000</ele>
				<time>2026-08-17T03:43:45Z</time>
			</trkpt>
			<trkpt lat="30.230101" lon="120.090593">
				<speed>0.000000</speed>
				<ele>139.000000</ele>
				<time>2026-08-17T03:43:46Z</time>
			</trkpt>
			<trkpt lat="30.230109" lon="120.090577">
				<speed>0.000000</speed>
				<ele>139.000000</ele>
				<time>2026-08-17T03:43:47Z</time>
			</trkpt>
			<trkpt lat="30.230111" lon="120.090572">
				<speed>0.000000</speed>
				<ele>139.000000</ele>
				<time>2026-08-17T03:43:48Z</time>
			</trkpt>
			<trkpt lat="30.230114" lon="120.090567">
				<speed>0.000000</speed>
				<ele>140.000000</ele>
				<time>2026-08-17T03:43:49Z</time>
			</trkpt>
			<trkpt lat="30.230116" lon="120.090562">
				<speed>0.000000</speed>
				<ele>140.000000</ele>
				<time>2026-08-17T03:43:50Z</time>
			</trkpt>
			<trkpt lat="30.230127" lon="120.090549">
				<speed>0.000000</speed>
				<ele>140.000000</ele>
				<time>2026-08-17T03:43:51Z</time>
			</trkpt>
			<trkpt lat="30.230130" lon="120.090544">
				<speed>0.000000</speed>
				<ele>140.000000</ele>
				<time>2026-08-17T03:43:52Z</time>
			</trkpt>
			<trkpt lat="30.230134" lon="120.090540">
				<speed>0.000000</speed>
				<ele>141.000000</ele>
				<time>2026-08-17T03:43:53Z</time>
			</trkpt>
			<trkpt lat="30.230138" lon="120.090535">
				<speed>0.000000</speed>
				<ele>141.000000</ele>
				<time>2026-08-17T03:43:54Z</time>
			</trkpt>
			<trkpt lat="30.230150" lon="120.090524">
				<speed>0.000000</speed>
				<ele>141.000000</ele>
				<time>2026-08-17T03:43:55Z</time>
			</trkpt>
			<trkpt lat="30.230154" lon="120.090520">
				<speed>0.000000</speed>
				<ele>141.000000</ele>
				<time>2026-08-17T03:43:56Z</time>
			</trkpt>
			<trkpt lat="30.230157" lon="120.090517">
				<speed>0.000000</speed>
				<ele>142.000000</ele>
				<time>2026-08-17T03:43:57Z</time>
			</trkpt>
			<trkpt lat="30.230161" lon="120.090513">
				<speed>0.000000</speed>
				<ele>142.000000</ele>
				<time>2026-08-17T03:43:58Z</time>
			</trkpt>
			<trkpt lat="30.230172" lon="120.090502">
				<speed>0.000000</speed>
				<ele>142.000000</ele>
				<time>2026-08-17T03:43:59Z</time>
			</trkpt>
			<trkpt lat="30.230175" lon="120.090499">
				<speed>0.000000</speed>
				<ele>142.000000</ele>
				<time>2026-08-17T03:44:00Z</time>
			</trkpt>
			<trkpt lat="30.230178" lon="120.090496">
				<speed>0.000000</speed>
				<ele>143.000000</ele>
				<time>2026-08-17T03:44:01Z</time>
			</trkpt>
			<trkpt lat="30.230182" lon="120.090493">
				<speed>0.000000</speed>
				<ele>143.000000</ele>
				<time>2026-08-17T03:44:02Z</time>
			</trkpt>
			<trkpt lat="30.230189" lon="120.090483">
				<speed>0.000000</speed>
				<ele>143.000000</ele>
				<time>2026-08-17T03:44:03Z</time>
			</trkpt>
			<trkpt lat="30.230192" lon="120.090480">
				<speed>0.000000</speed>
				<ele>143.000000</ele>
				<time>2026-08-17T03:44:04Z</time>
			</trkpt>
			<trkpt lat="30.230194" lon="120.090476">
				<speed>0.000000</speed>
				<ele>143.000000</ele>
				<time>2026-08-17T03:44:05Z</time>
			</trkpt>
			<trkpt lat="30.230196" lon="120.090473">
				<speed>0.000000</speed>
				<ele>143.000000</ele>
				<time>2026-08-17T03:44:06Z</time>
			</trkpt>
			<trkpt lat="30.230204" lon="120.090463">
				<speed>0.000000</speed>
				<ele>143.000000</ele>
				<time>2026-08-17T03:44:07Z</time>
			</trkpt>
			<trkpt lat="30.230207" lon="120.090460">
				<speed>0.000000</speed>
				<ele>143.000000</ele>
				<time>2026-08-17T03:44:08Z</time>
			</trkpt>
			<trkpt lat="30.230209" lon="120.090456">
				<speed>0.000000</speed>
				<ele>144.000000</ele>
				<time>2026-08-17T03:44:09Z</time>
			</trkpt>
			<trkpt lat="30.230212" lon="120.090453">
				<speed>0.000000</speed>
				<ele>144.000000</ele>
				<time>2026-08-17T03:44:10Z</time>
			</trkpt>
			<trkpt lat="30.230219" lon="120.090441">
				<speed>0.000000</speed>
				<ele>144.000000</ele>
				<time>2026-08-17T03:44:11Z</time>
			</trkpt>
			<trkpt lat="30.230221" lon="120.090437">
				<speed>0.000000</speed>
				<ele>144.000000</ele>
				<time>2026-08-17T03:44:12Z</time>
			</trkpt>
			<trkpt lat="30.230223" lon="120.090433">
				<speed>0.000000</speed>
				<ele>145.000000</ele>
				<time>2026-08-17T03:44:13Z</time>
			</trkpt>
			<trkpt lat="30.230225" lon="120.090428">
				<speed>0.000000</speed>
				<ele>145.000000</ele>
				<time>2026-08-17T03:44:14Z</time>
			</trkpt>
			<trkpt lat="30.230232" lon="120.090417">
				<speed>0.000000</speed>
				<ele>145.000000</ele>
				<time>2026-08-17T03:44:15Z</time>
			</trkpt>
			<trkpt lat="30.230234" lon="120.090415">
				<speed>0.000000</speed>
				<ele>145.000000</ele>
				<time>2026-08-17T03:44:16Z</time>
			</trkpt>
			<trkpt lat="30.230236" lon="120.090412">
				<speed>0.000000</speed>
				<ele>146.000000</ele>
				<time>2026-08-17T03:44:17Z</time>
			</trkpt>
			<trkpt lat="30.230238" lon="120.090411">
				<speed>0.000000</speed>
				<ele>146.000000</ele>
				<time>2026-08-17T03:44:18Z</time>
			</trkpt>
			<trkpt lat="30.230249" lon="120.090400">
				<speed>0.000000</speed>
				<ele>146.000000</ele>
				<time>2026-08-17T03:44:19Z</time>
			</trkpt>
			<trkpt lat="30.230253" lon="120.090397">
				<speed>0.000000</speed>
				<ele>146.000000</ele>
				<time>2026-08-17T03:44:20Z</time>
			</trkpt>
			<trkpt lat="30.230256" lon="120.090393">
				<speed>0.000000</speed>
				<ele>147.000000</ele>
				<time>2026-08-17T03:44:21Z</time>
			</trkpt>
			<trkpt lat="30.230260" lon="120.090390">
				<speed>0.000000</speed>
				<ele>147.000000</ele>
				<time>2026-08-17T03:44:22Z</time>
			</trkpt>
			<trkpt lat="30.230269" lon="120.090379">
				<speed>0.000000</speed>
				<ele>147.000000</ele>
				<time>2026-08-17T03:44:23Z</time>
			</trkpt>
			<trkpt lat="30.230272" lon="120.090376">
				<speed>0.000000</speed>
				<ele>147.000000</ele>
				<time>2026-08-17T03:44:24Z</time>
			</trkpt>
			<trkpt lat="30.230274" lon="120.090372">
				<speed>0.000000</speed>
				<ele>148.000000</ele>
				<time>2026-08-17T03:44:25Z</time>
			</trkpt>
			<trkpt lat="30.230277" lon="120.090369">
				<speed>0.000000</speed>
				<ele>148.000000</ele>
				<time>2026-08-17T03:44:26Z</time>
			</trkpt>
			<trkpt lat="30.230285" lon="120.090359">
				<speed>0.000000</speed>
				<ele>148.000000</ele>
				<time>2026-08-17T03:44:27Z</time>
			</trkpt>
			<trkpt lat="30.230288" lon="120.090355">
				<speed>0.000000</speed>
				<ele>148.000000</ele>
				<time>2026-08-17T03:44:28Z</time>
			</trkpt>
			<trkpt lat="30.230292" lon="120.090351">
				<speed>0.000000</speed>
				<ele>148.000000</ele>
				<time>2026-08-17T03:44:29Z</time>
			</trkpt>
			<trkpt lat="30.230295" lon="120.090347">
				<speed>0.000000</speed>
				<ele>148.000000</ele>
				<time>2026-08-17T03:44:30Z</time>
			</trkpt>
			<trkpt lat="30.230306" lon="120.090333">
				<speed>0.000000</speed>
				<ele>148.000000</ele>
				<time>2026-08-17T03:44:31Z</time>
			</trkpt>
			<trkpt lat="30.230310" lon="120.090327">
				<speed>0.000000</speed>
				<ele>148.000000</ele>
				<time>2026-08-17T03:44:32Z</time>
			</trkpt>
			<trkpt lat="30.230313" lon="120.090322">
				<speed>0.000000</speed>
				<ele>149.000000</ele>
				<time>2026-08-17T03:44:33Z</time>
			</trkpt>
			<trkpt lat="30.230317" lon="120.090316">
				<speed>0.000000</speed>
				<ele>149.000000</ele>
				<time>2026-08-17T03:44:34Z</time>
			</trkpt>
			<trkpt lat="30.230327" lon="120.090298">
				<speed>0.000000</speed>
				<ele>149.000000</ele>
				<time>2026-08-17T03:44:35Z</time>
			</trkpt>
			<trkpt lat="30.230329" lon="120.090292">
				<speed>0.000000</speed>
				<ele>149.000000</ele>
				<time>2026-08-17T03:44:36Z</time>
			</trkpt>
			<trkpt lat="30.230332" lon="120.090286">
				<speed>0.000000</speed>
				<ele>150.000000</ele>
				<time>2026-08-17T03:44:37Z</time>
			</trkpt>
			<trkpt lat="30.230335" lon="120.090280">
				<speed>0.000000</speed>
				<ele>150.000000</ele>
				<time>2026-08-17T03:44:38Z</time>
			</trkpt>
			<trkpt lat="30.230342" lon="120.090260">
				<speed>0.000000</speed>
				<ele>150.000000</ele>
				<time>2026-08-17T03:44:39Z</time>
			</trkpt>
			<trkpt lat="30.230345" lon="120.090254">
				<speed>0.000000</speed>
				<ele>150.000000</ele>
				<time>2026-08-17T03:44:40Z</time>
			</trkpt>
			<trkpt lat="30.230348" lon="120.090248">
				<speed>0.000000</speed>
				<ele>151.000000</ele>
				<time>2026-08-17T03:44:41Z</time>
			</trkpt>
			<trkpt lat="30.230351" lon="120.090243">
				<speed>0.000000</speed>
				<ele>151.000000</ele>
				<time>2026-08-17T03:44:42Z</time>
			</trkpt>
			<trkpt lat="30.230361" lon="120.090227">
				<speed>0.000000</speed>
				<ele>151.000000</ele>
				<time>2026-08-17T03:44:43Z</time>
			</trkpt>
			<trkpt lat="30.230364" lon="120.090221">
				<speed>0.000000</speed>
				<ele>151.000000</ele>
				<time>2026-08-17T03:44:44Z</time>
			</trkpt>
			<trkpt lat="30.230367" lon="120.090215">
				<speed>0.000000</speed>
				<ele>151.000000</ele>
				<time>2026-08-17T03:44:45Z</time>
			</trkpt>
			<trkpt lat="30.230370" lon="120.090209">
				<speed>0.000000</speed>
				<ele>151.000000</ele>
				<time>2026-08-17T03:44:46Z</time>
			</trkpt>
			<trkpt lat="30.230381" lon="120.090192">
				<speed>0.000000</speed>
				<ele>151.000000</ele>
				<time>2026-08-17T03:44:47Z</time>
			</trkpt>
			<trkpt lat="30.230385" lon="120.090186">
				<speed>0.000000</speed>
				<ele>151.000000</ele>
				<time>2026-08-17T03:44:48Z</time>
			</trkpt>
			<trkpt lat="30.230389" lon="120.090180">
				<speed>0.000000</speed>
				<ele>152.000000</ele>
				<time>2026-08-17T03:44:49Z</time>
			</trkpt>
			<trkpt lat="30.230393" lon="120.090174">
				<speed>0.000000</speed>
				<ele>152.000000</ele>
				<time>2026-08-17T03:44:50Z</time>
			</trkpt>
			<trkpt lat="30.230405" lon="120.090156">
				<speed>0.000000</speed>
				<ele>152.000000</ele>
				<time>2026-08-17T03:44:51Z</time>
			</trkpt>
			<trkpt lat="30.230409" lon="120.090150">
				<speed>0.000000</speed>
				<ele>152.000000</ele>
				<time>2026-08-17T03:44:52Z</time>
			</trkpt>
			<trkpt lat="30.230413" lon="120.090143">
				<speed>0.000000</speed>
				<ele>152.000000</ele>
				<time>2026-08-17T03:44:53Z</time>
			</trkpt>
			<trkpt lat="30.230417" lon="120.090137">
				<speed>0.000000</speed>
				<ele>152.000000</ele>
				<time>2026-08-17T03:44:54Z</time>
			</trkpt>
			<trkpt lat="30.230428" lon="120.090116">
				<speed>0.000000</speed>
				<ele>152.000000</ele>
				<time>2026-08-17T03:44:55Z</time>
			</trkpt>
			<trkpt lat="30.230431" lon="120.090109">
				<speed>0.000000</speed>
				<ele>152.000000</ele>
				<time>2026-08-17T03:44:56Z</time>
			</trkpt>
			<trkpt lat="30.230435" lon="120.090101">
				<speed>0.000000</speed>
				<ele>152.000000</ele>
				<time>2026-08-17T03:44:57Z</time>
			</trkpt>
			<trkpt lat="30.230438" lon="120.090093">
				<speed>0.000000</speed>
				<ele>152.000000</ele>
				<time>2026-08-17T03:44:58Z</time>
			</trkpt>
			<trkpt lat="30.230450" lon="120.090070">
				<speed>0.000000</speed>
				<ele>152.000000</ele>
				<time>2026-08-17T03:44:59Z</time>
			</trkpt>
			<trkpt lat="30.230455" lon="120.090063">
				<speed>0.000000</speed>
				<ele>152.000000</ele>
				<time>2026-08-17T03:45:00Z</time>
			</trkpt>
			<trkpt lat="30.230459" lon="120.090056">
				<speed>0.000000</speed>
				<ele>152.000000</ele>
				<time>2026-08-17T03:45:01Z</time>
			</trkpt>
			<trkpt lat="30.230464" lon="120.090050">
				<speed>0.000000</speed>
				<ele>152.000000</ele>
				<time>2026-08-17T03:45:02Z</time>
			</trkpt>
			<trkpt lat="30.230480" lon="120.090029">
				<speed>0.000000</speed>
				<ele>152.000000</ele>
				<time>2026-08-17T03:45:03Z</time>
			</trkpt>
			<trkpt lat="30.230485" lon="120.090022">
				<speed>0.000000</speed>
				<ele>152.000000</ele>
				<time>2026-08-17T03:45:04Z</time>
			</trkpt>
			<trkpt lat="30.230490" lon="120.090014">
				<speed>0.000000</speed>
				<ele>152.000000</ele>
				<time>2026-08-17T03:45:05Z</time>
			</trkpt>
			<trkpt lat="30.230496" lon="120.090007">
				<speed>0.000000</speed>
				<ele>152.000000</ele>
				<time>2026-08-17T03:45:06Z</time>
			</trkpt>
			<trkpt lat="30.230511" lon="120.089986">
				<speed>0.000000</speed>
				<ele>152.000000</ele>
				<time>2026-08-17T03:45:07Z</time>
			</trkpt>
			<trkpt lat="30.230516" lon="120.089980">
				<speed>0.000000</speed>
				<ele>152.000000</ele>
				<time>2026-08-17T03:45:08Z</time>
			</trkpt>
			<trkpt lat="30.230521" lon="120.089974">
				<speed>0.000000</speed>
				<ele>152.000000</ele>
				<time>2026-08-17T03:45:09Z</time>
			</trkpt>
			<trkpt lat="30.230526" lon="120.089968">
				<speed>0.000000</speed>
				<ele>152.000000</ele>
				<time>2026-08-17T03:45:10Z</time>
			</trkpt>
			<trkpt lat="30.230546" lon="120.089953">
				<speed>0.000000</speed>
				<ele>152.000000</ele>
				<time>2026-08-17T03:45:11Z</time>
			</trkpt>
			<trkpt lat="30.230556" lon="120.089947">
				<speed>0.000000</speed>
				<ele>152.000000</ele>
				<time>2026-08-17T03:45:12Z</time>
			</trkpt>
			<trkpt lat="30.230566" lon="120.089941">
				<speed>0.000000</speed>
				<ele>152.000000</ele>
				<time>2026-08-17T03:45:13Z</time>
			</trkpt>
			<trkpt lat="30.230576" lon="120.089935">
				<speed>0.000000</speed>
				<ele>152.000000</ele>
				<time>2026-08-17T03:45:14Z</time>
			</trkpt>
			<trkpt lat="30.230614" lon="120.089904">
				<speed>0.000000</speed>
				<ele>152.000000</ele>
				<time>2026-08-17T03:45:15Z</time>
			</trkpt>
			<trkpt lat="30.230628" lon="120.089890">
				<speed>0.000000</speed>
				<ele>152.000000</ele>
				<time>2026-08-17T03:45:16Z</time>
			</trkpt>
			<trkpt lat="30.230641" lon="120.089875">
				<speed>0.000000</speed>
				<ele>152.000000</ele>
				<time>2026-08-17T03:45:17Z</time>
			</trkpt>
			<trkpt lat="30.230655" lon="120.089861">
				<speed>0.000000</speed>
				<ele>152.000000</ele>
				<time>2026-08-17T03:45:18Z</time>
			</trkpt>
			<trkpt lat="30.230694" lon="120.089812">
				<speed>0.000000</speed>
				<ele>152.000000</ele>
				<time>2026-08-17T03:45:19Z</time>
			</trkpt>
			<trkpt lat="30.230704" lon="120.089797">
				<speed>0.000000</speed>
				<ele>152.000000</ele>
				<time>2026-08-17T03:45:20Z</time>
			</trkpt>
			<trkpt lat="30.230715" lon="120.089783">
				<speed>0.000000</speed>
				<ele>152.000000</ele>
				<time>2026-08-17T03:45:21Z</time>
			</trkpt>
			<trkpt lat="30.230726" lon="120.089768">
				<speed>0.000000</speed>
				<ele>152.000000</ele>
				<time>2026-08-17T03:45:22Z</time>
			</trkpt>
			<trkpt lat="30.230757" lon="120.089724">
				<speed>0.000000</speed>
				<ele>152.000000</ele>
				<time>2026-08-17T03:45:23Z</time>
			</trkpt>
			<trkpt lat="30.230768" lon="120.089710">
				<speed>0.000000</speed>
				<ele>152.000000</ele>
				<time>2026-08-17T03:45:24Z</time>
			</trkpt>
			<trkpt lat="30.230778" lon="120.089695">
				<speed>0.000000</speed>
				<ele>152.000000</ele>
				<time>2026-08-17T03:45:25Z</time>
			</trkpt>
			<trkpt lat="30.230788" lon="120.089681">
				<speed>0.000000</speed>
				<ele>151.000000</ele>
				<time>2026-08-17T03:45:26Z</time>
			</trkpt>
			<trkpt lat="30.230815" lon="120.089648">
				<speed>0.000000</speed>
				<ele>151.000000</ele>
				<time>2026-08-17T03:45:27Z</time>
			</trkpt>
			<trkpt lat="30.230823" lon="120.089640">
				<speed>0.000000</speed>
				<ele>151.000000</ele>
				<time>2026-08-17T03:45:28Z</time>
			</trkpt>
			<trkpt lat="30.230831" lon="120.089634">
				<speed>0.000000</speed>
				<ele>151.000000</ele>
				<time>2026-08-17T03:45:29Z</time>
			</trkpt>
			<trkpt lat="30.230839" lon="120.089627">
				<speed>0.000000</speed>
				<ele>150.000000</ele>
				<time>2026-08-17T03:45:30Z</time>
			</trkpt>
			<trkpt lat="30.230862" lon="120.089614">
				<speed>0.000000</speed>
				<ele>150.000000</ele>
				<time>2026-08-17T03:45:31Z</time>
			</trkpt>
			<trkpt lat="30.230870" lon="120.089610">
				<speed>0.000000</speed>
				<ele>150.000000</ele>
				<time>2026-08-17T03:45:32Z</time>
			</trkpt>
			<trkpt lat="30.230877" lon="120.089607">
				<speed>0.000000</speed>
				<ele>150.000000</ele>
				<time>2026-08-17T03:45:33Z</time>
			</trkpt>
			<trkpt lat="30.230885" lon="120.089603">
				<speed>0.000000</speed>
				<ele>149.000000</ele>
				<time>2026-08-17T03:45:34Z</time>
			</trkpt>
			<trkpt lat="30.230910" lon="120.089591">
				<speed>0.000000</speed>
				<ele>149.000000</ele>
				<time>2026-08-17T03:45:35Z</time>
			</trkpt>
			<trkpt lat="30.230919" lon="120.089586">
				<speed>0.000000</speed>
				<ele>148.000000</ele>
				<time>2026-08-17T03:45:36Z</time>
			</trkpt>
			<trkpt lat="30.230928" lon="120.089580">
				<speed>0.000000</speed>
				<ele>148.000000</ele>
				<time>2026-08-17T03:45:37Z</time>
			</trkpt>
			<trkpt lat="30.230937" lon="120.089575">
				<speed>0.000000</speed>
				<ele>148.000000</ele>
				<time>2026-08-17T03:45:38Z</time>
			</trkpt>
			<trkpt lat="30.230967" lon="120.089558">
				<speed>0.000000</speed>
				<ele>148.000000</ele>
				<time>2026-08-17T03:45:39Z</time>
			</trkpt>
			<trkpt lat="30.230977" lon="120.089553">
				<speed>0.000000</speed>
				<ele>148.000000</ele>
				<time>2026-08-17T03:45:40Z</time>
			</trkpt>
			<trkpt lat="30.230987" lon="120.089548">
				<speed>0.000000</speed>
				<ele>148.000000</ele>
				<time>2026-08-17T03:45:41Z</time>
			</trkpt>
			<trkpt lat="30.230997" lon="120.089544">
				<speed>0.000000</speed>
				<ele>147.000000</ele>
				<time>2026-08-17T03:45:42Z</time>
			</trkpt>
			<trkpt lat="30.231028" lon="120.089532">
				<speed>0.000000</speed>
				<ele>147.000000</ele>
				<time>2026-08-17T03:45:43Z</time>
			</trkpt>
			<trkpt lat="30.231040" lon="120.089530">
				<speed>0.000000</speed>
				<ele>146.000000</ele>
				<time>2026-08-17T03:45:44Z</time>
			</trkpt>
			<trkpt lat="30.231052" lon="120.089527">
				<speed>0.000000</speed>
				<ele>146.000000</ele>
				<time>2026-08-17T03:45:45Z</time>
			</trkpt>
			<trkpt lat="30.231064" lon="120.089524">
				<speed>0.000000</speed>
				<ele>145.000000</ele>
				<time>2026-08-17T03:45:46Z</time>
			</trkpt>
			<trkpt lat="30.231102" lon="120.089520">
				<speed>0.000000</speed>
				<ele>145.000000</ele>
				<time>2026-08-17T03:45:47Z</time>
			</trkpt>
			<trkpt lat="30.231114" lon="120.089519">
				<speed>0.000000</speed>
				<ele>144.000000</ele>
				<time>2026-08-17T03:45:48Z</time>
			</trkpt>
			<trkpt lat="30.231127" lon="120.089519">
				<speed>0.000000</speed>
				<ele>144.000000</ele>
				<time>2026-08-17T03:45:49Z</time>
			</trkpt>
			<trkpt lat="30.231140" lon="120.089519">
				<speed>0.000000</speed>
				<ele>143.000000</ele>
				<time>2026-08-17T03:45:50Z</time>
			</trkpt>
			<trkpt lat="30.231179" lon="120.089518">
				<speed>0.000000</speed>
				<ele>143.000000</ele>
				<time>2026-08-17T03:45:51Z</time>
			</trkpt>
			<trkpt lat="30.231193" lon="120.089517">
				<speed>0.000000</speed>
				<ele>142.000000</ele>
				<time>2026-08-17T03:45:52Z</time>
			</trkpt>
			<trkpt lat="30.231207" lon="120.089516">
				<speed>0.000000</speed>
				<ele>142.000000</ele>
				<time>2026-08-17T03:45:53Z</time>
			</trkpt>
			<trkpt lat="30.231221" lon="120.089515">
				<speed>0.000000</speed>
				<ele>141.000000</ele>
				<time>2026-08-17T03:45:54Z</time>
			</trkpt>
			<trkpt lat="30.231264" lon="120.089507">
				<speed>0.000000</speed>
				<ele>141.000000</ele>
				<time>2026-08-17T03:45:55Z</time>
			</trkpt>
			<trkpt lat="30.231279" lon="120.089504">
				<speed>0.000000</speed>
				<ele>140.000000</ele>
				<time>2026-08-17T03:45:56Z</time>
			</trkpt>
			<trkpt lat="30.231293" lon="120.089501">
				<speed>0.000000</speed>
				<ele>140.000000</ele>
				<time>2026-08-17T03:45:57Z</time>
			</trkpt>
			<trkpt lat="30.231307" lon="120.089498">
				<speed>0.000000</speed>
				<ele>139.000000</ele>
				<time>2026-08-17T03:45:58Z</time>
			</trkpt>
			<trkpt lat="30.231349" lon="120.089486">
				<speed>0.000000</speed>
				<ele>138.000000</ele>
				<time>2026-08-17T03:45:59Z</time>
			</trkpt>
			<trkpt lat="30.231362" lon="120.089480">
				<speed>0.000000</speed>
				<ele>137.000000</ele>
				<time>2026-08-17T03:46:00Z</time>
			</trkpt>
			<trkpt lat="30.231375" lon="120.089474">
				<speed>0.000000</speed>
				<ele>137.000000</ele>
				<time>2026-08-17T03:46:01Z</time>
			</trkpt>
			<trkpt lat="30.231388" lon="120.089468">
				<speed>0.000000</speed>
				<ele>136.000000</ele>
				<time>2026-08-17T03:46:02Z</time>
			</trkpt>
			<trkpt lat="30.231425" lon="120.089442">
				<speed>0.000000</speed>
				<ele>136.000000</ele>
				<time>2026-08-17T03:46:03Z</time>
			</trkpt>
			<trkpt lat="30.231437" lon="120.089432">
				<speed>0.000000</speed>
				<ele>136.000000</ele>
				<time>2026-08-17T03:46:04Z</time>
			</trkpt>
			<trkpt lat="30.231449" lon="120.089422">
				<speed>0.000000</speed>
				<ele>136.000000</ele>
				<time>2026-08-17T03:46:05Z</time>
			</trkpt>
			<trkpt lat="30.231462" lon="120.089413">
				<speed>0.000000</speed>
				<ele>135.000000</ele>
				<time>2026-08-17T03:46:06Z</time>
			</trkpt>
			<trkpt lat="30.231497" lon="120.089387">
				<speed>0.000000</speed>
				<ele>135.000000</ele>
				<time>2026-08-17T03:46:07Z</time>
			</trkpt>
			<trkpt lat="30.231508" lon="120.089382">
				<speed>0.000000</speed>
				<ele>134.000000</ele>
				<time>2026-08-17T03:46:08Z</time>
			</trkpt>
			<trkpt lat="30.231519" lon="120.089378">
				<speed>0.000000</speed>
				<ele>134.000000</ele>
				<time>2026-08-17T03:46:09Z</time>
			</trkpt>
			<trkpt lat="30.231530" lon="120.089373">
				<speed>0.000000</speed>
				<ele>133.000000</ele>
				<time>2026-08-17T03:46:10Z</time>
			</trkpt>
			<trkpt lat="30.231558" lon="120.089369">
				<speed>0.000000</speed>
				<ele>133.000000</ele>
				<time>2026-08-17T03:46:11Z</time>
			</trkpt>
			<trkpt lat="30.231568" lon="120.089371">
				<speed>0.000000</speed>
				<ele>132.000000</ele>
				<time>2026-08-17T03:46:12Z</time>
			</trkpt>
			<trkpt lat="30.231578" lon="120.089372">
				<speed>0.000000</speed>
				<ele>132.000000</ele>
				<time>2026-08-17T03:46:13Z</time>
			</trkpt>
			<trkpt lat="30.231588" lon="120.089373">
				<speed>0.000000</speed>
				<ele>131.000000</ele>
				<time>2026-08-17T03:46:14Z</time>
			</trkpt>
			<trkpt lat="30.231626" lon="120.089381">
				<speed>0.000000</speed>
				<ele>131.000000</ele>
				<time>2026-08-17T03:46:15Z</time>
			</trkpt>
			<trkpt lat="30.231638" lon="120.089385">
				<speed>0.000000</speed>
				<ele>130.000000</ele>
				<time>2026-08-17T03:46:16Z</time>
			</trkpt>
			<trkpt lat="30.231651" lon="120.089389">
				<speed>0.000000</speed>
				<ele>130.000000</ele>
				<time>2026-08-17T03:46:17Z</time>
			</trkpt>
			<trkpt lat="30.231664" lon="120.089392">
				<speed>0.000000</speed>
				<ele>129.000000</ele>
				<time>2026-08-17T03:46:18Z</time>
			</trkpt>
			<trkpt lat="30.231699" lon="120.089402">
				<speed>0.000000</speed>
				<ele>129.000000</ele>
				<time>2026-08-17T03:46:19Z</time>
			</trkpt>
			<trkpt lat="30.231711" lon="120.089403">
				<speed>0.000000</speed>
				<ele>129.000000</ele>
				<time>2026-08-17T03:46:20Z</time>
			</trkpt>
			<trkpt lat="30.231723" lon="120.089404">
				<speed>0.000000</speed>
				<ele>129.000000</ele>
				<time>2026-08-17T03:46:21Z</time>
			</trkpt>
			<trkpt lat="30.231735" lon="120.089404">
				<speed>0.000000</speed>
				<ele>128.000000</ele>
				<time>2026-08-17T03:46:22Z</time>
			</trkpt>
			<trkpt lat="30.231770" lon="120.089399">
				<speed>0.000000</speed>
				<ele>128.000000</ele>
				<time>2026-08-17T03:46:23Z</time>
			</trkpt>
			<trkpt lat="30.231781" lon="120.089396">
				<speed>0.000000</speed>
				<ele>127.000000</ele>
				<time>2026-08-17T03:46:24Z</time>
			</trkpt>
			<trkpt lat="30.231793" lon="120.089393">
				<speed>0.000000</speed>
				<ele>127.000000</ele>
				<time>2026-08-17T03:46:25Z</time>
			</trkpt>
			<trkpt lat="30.231804" lon="120.089390">
				<speed>0.000000</speed>
				<ele>126.000000</ele>
				<time>2026-08-17T03:46:26Z</time>
			</trkpt>
			<trkpt lat="30.231836" lon="120.089385">
				<speed>0.000000</speed>
				<ele>126.000000</ele>
				<time>2026-08-17T03:46:27Z</time>
			</trkpt>
			<trkpt lat="30.231846" lon="120.089386">
				<speed>0.000000</speed>
				<ele>126.000000</ele>
				<time>2026-08-17T03:46:28Z</time>
			</trkpt>
			<trkpt lat="30.231856" lon="120.089387">
				<speed>0.000000</speed>
				<ele>126.000000</ele>
				<time>2026-08-17T03:46:29Z</time>
			</trkpt>
			<trkpt lat="30.231866" lon="120.089388">
				<speed>0.000000</speed>
				<ele>126.000000</ele>
				<time>2026-08-17T03:46:30Z</time>
			</trkpt>
			<trkpt lat="30.231895" lon="120.089397">
				<speed>0.000000</speed>
				<ele>126.000000</ele>
				<time>2026-08-17T03:46:31Z</time>
			</trkpt>
			<trkpt lat="30.231905" lon="120.089400">
				<speed>0.000000</speed>
				<ele>126.000000</ele>
				<time>2026-08-17T03:46:32Z</time>
			</trkpt>
			<trkpt lat="30.231914" lon="120.089403">
				<speed>0.000000</speed>
				<ele>126.000000</ele>
				<time>2026-08-17T03:46:33Z</time>
			</trkpt>
			<trkpt lat="30.231923" lon="120.089406">
				<speed>0.000000</speed>
				<ele>125.000000</ele>
				<time>2026-08-17T03:46:34Z</time>
			</trkpt>
			<trkpt lat="30.231954" lon="120.089411">
				<speed>0.000000</speed>
				<ele>125.000000</ele>
				<time>2026-08-17T03:46:35Z</time>
			</trkpt>
			<trkpt lat="30.231965" lon="120.089412">
				<speed>0.000000</speed>
				<ele>125.000000</ele>
				<time>2026-08-17T03:46:36Z</time>
			</trkpt>
			<trkpt lat="30.231976" lon="120.089414">
				<speed>0.000000</speed>
				<ele>125.000000</ele>
				<time>2026-08-17T03:46:37Z</time>
			</trkpt>
			<trkpt lat="30.231987" lon="120.089415">
				<speed>0.000000</speed>
				<ele>124.000000</ele>
				<time>2026-08-17T03:46:38Z</time>
			</trkpt>
			<trkpt lat="30.232022" lon="120.089418">
				<speed>0.000000</speed>
				<ele>124.000000</ele>
				<time>2026-08-17T03:46:39Z</time>
			</trkpt>
			<trkpt lat="30.232034" lon="120.089420">
				<speed>0.000000</speed>
				<ele>124.000000</ele>
				<time>2026-08-17T03:46:40Z</time>
			</trkpt>
			<trkpt lat="30.232046" lon="120.089422">
				<speed>0.000000</speed>
				<ele>124.000000</ele>
				<time>2026-08-17T03:46:41Z</time>
			</trkpt>
			<trkpt lat="30.232058" lon="120.089425">
				<speed>0.000000</speed>
				<ele>123.000000</ele>
				<time>2026-08-17T03:46:42Z</time>
			</trkpt>
			<trkpt lat="30.232086" lon="120.089445">
				<speed>0.000000</speed>
				<ele>123.000000</ele>
				<time>2026-08-17T03:46:43Z</time>
			</trkpt>
			<trkpt lat="30.232091" lon="120.089453">
				<speed>0.000000</speed>
				<ele>123.000000</ele>
				<time>2026-08-17T03:46:44Z</time>
			</trkpt>
			<trkpt lat="30.232097" lon="120.089463">
				<speed>0.000000</speed>
				<ele>123.000000</ele>
				<time>2026-08-17T03:46:45Z</time>
			</trkpt>
			<trkpt lat="30.232103" lon="120.089472">
				<speed>0.000000</speed>
				<ele>122.000000</ele>
				<time>2026-08-17T03:46:46Z</time>
			</trkpt>
			<trkpt lat="30.232125" lon="120.089495">
				<speed>0.000000</speed>
				<ele>122.000000</ele>
				<time>2026-08-17T03:46:47Z</time>
			</trkpt>
			<trkpt lat="30.232135" lon="120.089501">
				<speed>0.000000</speed>
				<ele>121.000000</ele>
				<time>2026-08-17T03:46:48Z</time>
			</trkpt>
			<trkpt lat="30.232145" lon="120.089506">
				<speed>0.000000</speed>
				<ele>121.000000</ele>
				<time>2026-08-17T03:46:49Z</time>
			</trkpt>
			<trkpt lat="30.232156" lon="120.089512">
				<speed>0.000000</speed>
				<ele>120.000000</ele>
				<time>2026-08-17T03:46:50Z</time>
			</trkpt>
			<trkpt lat="30.232195" lon="120.089522">
				<speed>0.000000</speed>
				<ele>120.000000</ele>
				<time>2026-08-17T03:46:51Z</time>
			</trkpt>
			<trkpt lat="30.232209" lon="120.089524">
				<speed>0.000000</speed>
				<ele>120.000000</ele>
				<time>2026-08-17T03:46:52Z</time>
			</trkpt>
			<trkpt lat="30.232223" lon="120.089526">
				<speed>0.000000</speed>
				<ele>120.000000</ele>
				<time>2026-08-17T03:46:53Z</time>
			</trkpt>
			<trkpt lat="30.232238" lon="120.089529">
				<speed>0.000000</speed>
				<ele>119.000000</ele>
				<time>2026-08-17T03:46:54Z</time>
			</trkpt>
			<trkpt lat="30.232281" lon="120.089536">
				<speed>0.000000</speed>
				<ele>119.000000</ele>
				<time>2026-08-17T03:46:55Z</time>
			</trkpt>
			<trkpt lat="30.232295" lon="120.089539">
				<speed>0.000000</speed>
				<ele>118.000000</ele>
				<time>2026-08-17T03:46:56Z</time>
			</trkpt>
			<trkpt lat="30.232308" lon="120.089542">
				<speed>0.000000</speed>
				<ele>118.000000</ele>
				<time>2026-08-17T03:46:57Z</time>
			</trkpt>
			<trkpt lat="30.232322" lon="120.089546">
				<speed>0.000000</speed>
				<ele>117.000000</ele>
				<time>2026-08-17T03:46:58Z</time>
			</trkpt>
			<trkpt lat="30.232364" lon="120.089556">
				<speed>0.000000</speed>
				<ele>117.000000</ele>
				<time>2026-08-17T03:46:59Z</time>
			</trkpt>
			<trkpt lat="30.232379" lon="120.089561">
				<speed>0.000000</speed>
				<ele>117.000000</ele>
				<time>2026-08-17T03:47:00Z</time>
			</trkpt>
			<trkpt lat="30.232394" lon="120.089565">
				<speed>0.000000</speed>
				<ele>117.000000</ele>
				<time>2026-08-17T03:47:01Z</time>
			</trkpt>
			<trkpt lat="30.232409" lon="120.089570">
				<speed>0.000000</speed>
				<ele>116.000000</ele>
				<time>2026-08-17T03:47:02Z</time>
			</trkpt>
			<trkpt lat="30.232453" lon="120.089586">
				<speed>0.000000</speed>
				<ele>116.000000</ele>
				<time>2026-08-17T03:47:03Z</time>
			</trkpt>
			<trkpt lat="30.232468" lon="120.089591">
				<speed>0.000000</speed>
				<ele>115.000000</ele>
				<time>2026-08-17T03:47:04Z</time>
			</trkpt>
			<trkpt lat="30.232483" lon="120.089595">
				<speed>0.000000</speed>
				<ele>115.000000</ele>
				<time>2026-08-17T03:47:05Z</time>
			</trkpt>
			<trkpt lat="30.232498" lon="120.089600">
				<speed>0.000000</speed>
				<ele>114.000000</ele>
				<time>2026-08-17T03:47:06Z</time>
			</trkpt>
			<trkpt lat="30.232544" lon="120.089611">
				<speed>0.000000</speed>
				<ele>114.000000</ele>
				<time>2026-08-17T03:47:07Z</time>
			</trkpt>
			<trkpt lat="30.232561" lon="120.089613">
				<speed>0.000000</speed>
				<ele>114.000000</ele>
				<time>2026-08-17T03:47:08Z</time>
			</trkpt>
			<trkpt lat="30.232578" lon="120.089616">
				<speed>0.000000</speed>
				<ele>114.000000</ele>
				<time>2026-08-17T03:47:09Z</time>
			</trkpt>
			<trkpt lat="30.232594" lon="120.089618">
				<speed>0.000000</speed>
				<ele>114.000000</ele>
				<time>2026-08-17T03:47:10Z</time>
			</trkpt>
			<trkpt lat="30.232644" lon="120.089623">
				<speed>0.000000</speed>
				<ele>114.000000</ele>
				<time>2026-08-17T03:47:11Z</time>
			</trkpt>
			<trkpt lat="30.232660" lon="120.089626">
				<speed>0.000000</speed>
				<ele>114.000000</ele>
				<time>2026-08-17T03:47:12Z</time>
			</trkpt>
			<trkpt lat="30.232676" lon="120.089630">
				<speed>0.000000</speed>
				<ele>114.000000</ele>
				<time>2026-08-17T03:47:13Z</time>
			</trkpt>
			<trkpt lat="30.232692" lon="120.089633">
				<speed>0.000000</speed>
				<ele>113.000000</ele>
				<time>2026-08-17T03:47:14Z</time>
			</trkpt>
			<trkpt lat="30.232736" lon="120.089649">
				<speed>0.000000</speed>
				<ele>113.000000</ele>
				<time>2026-08-17T03:47:15Z</time>
			</trkpt>
			<trkpt lat="30.232751" lon="120.089655">
				<speed>0.000000</speed>
				<ele>113.000000</ele>
				<time>2026-08-17T03:47:16Z</time>
			</trkpt>
			<trkpt lat="30.232765" lon="120.089662">
				<speed>0.000000</speed>
				<ele>113.000000</ele>
				<time>2026-08-17T03:47:17Z</time>
			</trkpt>
			<trkpt lat="30.232780" lon="120.089668">
				<speed>0.000000</speed>
				<ele>112.000000</ele>
				<time>2026-08-17T03:47:18Z</time>
			</trkpt>
			<trkpt lat="30.232820" lon="120.089687">
				<speed>0.000000</speed>
				<ele>112.000000</ele>
				<time>2026-08-17T03:47:19Z</time>
			</trkpt>
			<trkpt lat="30.232833" lon="120.089692">
				<speed>0.000000</speed>
				<ele>112.000000</ele>
				<time>2026-08-17T03:47:20Z</time>
			</trkpt>
			<trkpt lat="30.232847" lon="120.089696">
				<speed>0.000000</speed>
				<ele>112.000000</ele>
				<time>2026-08-17T03:47:21Z</time>
			</trkpt>
			<trkpt lat="30.232860" lon="120.089701">
				<speed>0.000000</speed>
				<ele>112.000000</ele>
				<time>2026-08-17T03:47:22Z</time>
			</trkpt>
			<trkpt lat="30.232900" lon="120.089707">
				<speed>0.000000</speed>
				<ele>112.000000</ele>
				<time>2026-08-17T03:47:23Z</time>
			</trkpt>
			<trkpt lat="30.232913" lon="120.089706">
				<speed>0.000000</speed>
				<ele>112.000000</ele>
				<time>2026-08-17T03:47:24Z</time>
			</trkpt>
			<trkpt lat="30.232926" lon="120.089704">
				<speed>0.000000</speed>
				<ele>112.000000</ele>
				<time>2026-08-17T03:47:25Z</time>
			</trkpt>
			<trkpt lat="30.232939" lon="120.089703">
				<speed>0.000000</speed>
				<ele>111.000000</ele>
				<time>2026-08-17T03:47:26Z</time>
			</trkpt>
			<trkpt lat="30.232979" lon="120.089688">
				<speed>0.000000</speed>
				<ele>111.000000</ele>
				<time>2026-08-17T03:47:27Z</time>
			</trkpt>
			<trkpt lat="30.232992" lon="120.089681">
				<speed>0.000000</speed>
				<ele>111.000000</ele>
				<time>2026-08-17T03:47:28Z</time>
			</trkpt>
			<trkpt lat="30.233005" lon="120.089674">
				<speed>0.000000</speed>
				<ele>111.000000</ele>
				<time>2026-08-17T03:47:29Z</time>
			</trkpt>
			<trkpt lat="30.233019" lon="120.089667">
				<speed>0.000000</speed>
				<ele>111.000000</ele>
				<time>2026-08-17T03:47:30Z</time>
			</trkpt>
			<trkpt lat="30.233059" lon="120.089640">
				<speed>0.000000</speed>
				<ele>111.000000</ele>
				<time>2026-08-17T03:47:31Z</time>
			</trkpt>
			<trkpt lat="30.233074" lon="120.089630">
				<speed>0.000000</speed>
				<ele>111.000000</ele>
				<time>2026-08-17T03:47:32Z</time>
			</trkpt>
			<trkpt lat="30.233089" lon="120.089620">
				<speed>0.000000</speed>
				<ele>111.000000</ele>
				<time>2026-08-17T03:47:33Z</time>
			</trkpt>
			<trkpt lat="30.233103" lon="120.089610">
				<speed>0.000000</speed>
				<ele>110.000000</ele>
				<time>2026-08-17T03:47:34Z</time>
			</trkpt>
			<trkpt lat="30.233148" lon="120.089578">
				<speed>0.000000</speed>
				<ele>110.000000</ele>
				<time>2026-08-17T03:47:35Z</time>
			</trkpt>
			<trkpt lat="30.233162" lon="120.089567">
				<speed>0.000000</speed>
				<ele>110.000000</ele>
				<time>2026-08-17T03:47:36Z</time>
			</trkpt>
			<trkpt lat="30.233177" lon="120.089555">
				<speed>0.000000</speed>
				<ele>110.000000</ele>
				<time>2026-08-17T03:47:37Z</time>
			</trkpt>
			<trkpt lat="30.233192" lon="120.089544">
				<speed>0.000000</speed>
				<ele>109.000000</ele>
				<time>2026-08-17T03:47:38Z</time>
			</trkpt>
			<trkpt lat="30.233232" lon="120.089508">
				<speed>0.000000</speed>
				<ele>109.000000</ele>
				<time>2026-08-17T03:47:39Z</time>
			</trkpt>
			<trkpt lat="30.233244" lon="120.089495">
				<speed>0.000000</speed>
				<ele>109.000000</ele>
				<time>2026-08-17T03:47:40Z</time>
			</trkpt>
			<trkpt lat="30.233255" lon="120.089482">
				<speed>0.000000</speed>
				<ele>109.000000</ele>
				<time>2026-08-17T03:47:41Z</time>
			</trkpt>
			<trkpt lat="30.233267" lon="120.089469">
				<speed>0.000000</speed>
				<ele>108.000000</ele>
				<time>2026-08-17T03:47:42Z</time>
			</trkpt>
			<trkpt lat="30.233295" lon="120.089427">
				<speed>0.000000</speed>
				<ele>108.000000</ele>
				<time>2026-08-17T03:47:43Z</time>
			</trkpt>
			<trkpt lat="30.233302" lon="120.089413">
				<speed>0.000000</speed>
				<ele>108.000000</ele>
				<time>2026-08-17T03:47:44Z</time>
			</trkpt>
			<trkpt lat="30.233308" lon="120.089398">
				<speed>0.000000</speed>
				<ele>108.000000</ele>
				<time>2026-08-17T03:47:45Z</time>
			</trkpt>
			<trkpt lat="30.233315" lon="120.089384">
				<speed>0.000000</speed>
				<ele>108.000000</ele>
				<time>2026-08-17T03:47:46Z</time>
			</trkpt>
			<trkpt lat="30.233324" lon="120.089341">
				<speed>0.000000</speed>
				<ele>108.000000</ele>
				<time>2026-08-17T03:47:47Z</time>
			</trkpt>
			<trkpt lat="30.233324" lon="120.089325">
				<speed>0.000000</speed>
				<ele>108.000000</ele>
				<time>2026-08-17T03:47:48Z</time>
			</trkpt>
			<trkpt lat="30.233324" lon="120.089309">
				<speed>0.000000</speed>
				<ele>108.000000</ele>
				<time>2026-08-17T03:47:49Z</time>
			</trkpt>
			<trkpt lat="30.233325" lon="120.089294">
				<speed>0.000000</speed>
				<ele>107.000000</ele>
				<time>2026-08-17T03:47:50Z</time>
			</trkpt>
			<trkpt lat="30.233316" lon="120.089244">
				<speed>0.000000</speed>
				<ele>107.000000</ele>
				<time>2026-08-17T03:47:51Z</time>
			</trkpt>
			<trkpt lat="30.233312" lon="120.089227">
				<speed>0.000000</speed>
				<ele>107.000000</ele>
				<time>2026-08-17T03:47:52Z</time>
			</trkpt>
			<trkpt lat="30.233308" lon="120.089209">
				<speed>0.000000</speed>
				<ele>107.000000</ele>
				<time>2026-08-17T03:47:53Z</time>
			</trkpt>
			<trkpt lat="30.233303" lon="120.089192">
				<speed>0.000000</speed>
				<ele>106.000000</ele>
				<time>2026-08-17T03:47:54Z</time>
			</trkpt>
			<trkpt lat="30.233289" lon="120.089141">
				<speed>0.000000</speed>
				<ele>106.000000</ele>
				<time>2026-08-17T03:47:55Z</time>
			</trkpt>
			<trkpt lat="30.233284" lon="120.089123">
				<speed>0.000000</speed>
				<ele>106.000000</ele>
				<time>2026-08-17T03:47:56Z</time>
			</trkpt>
			<trkpt lat="30.233279" lon="120.089107">
				<speed>0.000000</speed>
				<ele>106.000000</ele>
				<time>2026-08-17T03:47:57Z</time>
			</trkpt>
			<trkpt lat="30.233274" lon="120.089090">
				<speed>0.000000</speed>
				<ele>106.000000</ele>
				<time>2026-08-17T03:47:58Z</time>
			</trkpt>
			<trkpt lat="30.233264" lon="120.089037">
				<speed>0.000000</speed>
				<ele>106.000000</ele>
				<time>2026-08-17T03:47:59Z</time>
			</trkpt>
			<trkpt lat="30.233264" lon="120.089018">
				<speed>0.000000</speed>
				<ele>106.000000</ele>
				<time>2026-08-17T03:48:00Z</time>
			</trkpt>
			<trkpt lat="30.233265" lon="120.088999">
				<speed>0.000000</speed>
				<ele>106.000000</ele>
				<time>2026-08-17T03:48:01Z</time>
			</trkpt>
			<trkpt lat="30.233265" lon="120.088980">
				<speed>0.000000</speed>
				<ele>105.000000</ele>
				<time>2026-08-17T03:48:02Z</time>
			</trkpt>
			<trkpt lat="30.233284" lon="120.088925">
				<speed>0.000000</speed>
				<ele>105.000000</ele>
				<time>2026-08-17T03:48:03Z</time>
			</trkpt>
			<trkpt lat="30.233294" lon="120.088909">
				<speed>0.000000</speed>
				<ele>105.000000</ele>
				<time>2026-08-17T03:48:04Z</time>
			</trkpt>
			<trkpt lat="30.233304" lon="120.088893">
				<speed>0.000000</speed>
				<ele>105.000000</ele>
				<time>2026-08-17T03:48:05Z</time>
			</trkpt>
			<trkpt lat="30.233315" lon="120.088877">
				<speed>0.000000</speed>
				<ele>105.000000</ele>
				<time>2026-08-17T03:48:06Z</time>
			</trkpt>
			<trkpt lat="30.233350" lon="120.088833">
				<speed>0.000000</speed>
				<ele>105.000000</ele>
				<time>2026-08-17T03:48:07Z</time>
			</trkpt>
			<trkpt lat="30.233360" lon="120.088817">
				<speed>0.000000</speed>
				<ele>105.000000</ele>
				<time>2026-08-17T03:48:08Z</time>
			</trkpt>
			<trkpt lat="30.233370" lon="120.088802">
				<speed>0.000000</speed>
				<ele>105.000000</ele>
				<time>2026-08-17T03:48:09Z</time>
			</trkpt>
			<trkpt lat="30.233380" lon="120.088787">
				<speed>0.000000</speed>
				<ele>105.000000</ele>
				<time>2026-08-17T03:48:10Z</time>
			</trkpt>
			<trkpt lat="30.233401" lon="120.088736">
				<speed>0.000000</speed>
				<ele>105.000000</ele>
				<time>2026-08-17T03:48:11Z</time>
			</trkpt>
			<trkpt lat="30.233405" lon="120.088717">
				<speed>0.000000</speed>
				<ele>105.000000</ele>
				<time>2026-08-17T03:48:12Z</time>
			</trkpt>
			<trkpt lat="30.233409" lon="120.088699">
				<speed>0.000000</speed>
				<ele>105.000000</ele>
				<time>2026-08-17T03:48:13Z</time>
			</trkpt>
			<trkpt lat="30.233413" lon="120.088680">
				<speed>0.000000</speed>
				<ele>104.000000</ele>
				<time>2026-08-17T03:48:14Z</time>
			</trkpt>
			<trkpt lat="30.233416" lon="120.088623">
				<speed>0.000000</speed>
				<ele>104.000000</ele>
				<time>2026-08-17T03:48:15Z</time>
			</trkpt>
			<trkpt lat="30.233413" lon="120.088605">
				<speed>0.000000</speed>
				<ele>104.000000</ele>
				<time>2026-08-17T03:48:16Z</time>
			</trkpt>
			<trkpt lat="30.233411" lon="120.088587">
				<speed>0.000000</speed>
				<ele>104.000000</ele>
				<time>2026-08-17T03:48:17Z</time>
			</trkpt>
			<trkpt lat="30.233408" lon="120.088569">
				<speed>0.000000</speed>
				<ele>104.000000</ele>
				<time>2026-08-17T03:48:18Z</time>
			</trkpt>
			<trkpt lat="30.233394" lon="120.088517">
				<speed>0.000000</speed>
				<ele>104.000000</ele>
				<time>2026-08-17T03:48:19Z</time>
			</trkpt>
			<trkpt lat="30.233387" lon="120.088501">
				<speed>0.000000</speed>
				<ele>104.000000</ele>
				<time>2026-08-17T03:48:20Z</time>
			</trkpt>
			<trkpt lat="30.233380" lon="120.088484">
				<speed>0.000000</speed>
				<ele>104.000000</ele>
				<time>2026-08-17T03:48:21Z</time>
			</trkpt>
			<trkpt lat="30.233374" lon="120.088467">
				<speed>0.000000</speed>
				<ele>103.000000</ele>
				<time>2026-08-17T03:48:22Z</time>
			</trkpt>
			<trkpt lat="30.233351" lon="120.088418">
				<speed>0.000000</speed>
				<ele>103.000000</ele>
				<time>2026-08-17T03:48:23Z</time>
			</trkpt>
			<trkpt lat="30.233344" lon="120.088401">
				<speed>0.000000</speed>
				<ele>103.000000</ele>
				<time>2026-08-17T03:48:24Z</time>
			</trkpt>
			<trkpt lat="30.233337" lon="120.088385">
				<speed>0.000000</speed>
				<ele>103.000000</ele>
				<time>2026-08-17T03:48:25Z</time>
			</trkpt>
			<trkpt lat="30.233330" lon="120.088369">
				<speed>0.000000</speed>
				<ele>103.000000</ele>
				<time>2026-08-17T03:48:26Z</time>
			</trkpt>
			<trkpt lat="30.233320" lon="120.088317">
				<speed>0.000000</speed>
				<ele>103.000000</ele>
				<time>2026-08-17T03:48:27Z</time>
			</trkpt>
			<trkpt lat="30.233323" lon="120.088298">
				<speed>0.000000</speed>
				<ele>103.000000</ele>
				<time>2026-08-17T03:48:28Z</time>
			</trkpt>
			<trkpt lat="30.233327" lon="120.088280">
				<speed>0.000000</speed>
				<ele>103.000000</ele>
				<time>2026-08-17T03:48:29Z</time>
			</trkpt>
			<trkpt lat="30.233330" lon="120.088261">
				<speed>0.000000</speed>
				<ele>103.000000</ele>
				<time>2026-08-17T03:48:30Z</time>
			</trkpt>
			<trkpt lat="30.233356" lon="120.088203">
				<speed>0.000000</speed>
				<ele>103.000000</ele>
				<time>2026-08-17T03:48:31Z</time>
			</trkpt>
			<trkpt lat="30.233368" lon="120.088185">
				<speed>0.000000</speed>
				<ele>103.000000</ele>
				<time>2026-08-17T03:48:32Z</time>
			</trkpt>
			<trkpt lat="30.233380" lon="120.088168">
				<speed>0.000000</speed>
				<ele>103.000000</ele>
				<time>2026-08-17T03:48:33Z</time>
			</trkpt>
			<trkpt lat="30.233393" lon="120.088151">
				<speed>0.000000</speed>
				<ele>103.000000</ele>
				<time>2026-08-17T03:48:34Z</time>
			</trkpt>
			<trkpt lat="30.233435" lon="120.088109">
				<speed>0.000000</speed>
				<ele>103.000000</ele>
				<time>2026-08-17T03:48:35Z</time>
			</trkpt>
			<trkpt lat="30.233448" lon="120.088098">
				<speed>0.000000</speed>
				<ele>103.000000</ele>
				<time>2026-08-17T03:48:36Z</time>
			</trkpt>
			<trkpt lat="30.233462" lon="120.088087">
				<speed>0.000000</speed>
				<ele>103.000000</ele>
				<time>2026-08-17T03:48:37Z</time>
			</trkpt>
			<trkpt lat="30.233475" lon="120.088076">
				<speed>0.000000</speed>
				<ele>103.000000</ele>
				<time>2026-08-17T03:48:38Z</time>
			</trkpt>
			<trkpt lat="30.233508" lon="120.088044">
				<speed>0.000000</speed>
				<ele>103.000000</ele>
				<time>2026-08-17T03:48:39Z</time>
			</trkpt>
			<trkpt lat="30.233516" lon="120.088031">
				<speed>0.000000</speed>
				<ele>103.000000</ele>
				<time>2026-08-17T03:48:40Z</time>
			</trkpt>
			<trkpt lat="30.233524" lon="120.088019">
				<speed>0.000000</speed>
				<ele>103.000000</ele>
				<time>2026-08-17T03:48:41Z</time>
			</trkpt>
			<trkpt lat="30.233532" lon="120.088006">
				<speed>0.000000</speed>
				<ele>103.000000</ele>
				<time>2026-08-17T03:48:42Z</time>
			</trkpt>
			<trkpt lat="30.233551" lon="120.087963">
				<speed>0.000000</speed>
				<ele>103.000000</ele>
				<time>2026-08-17T03:48:43Z</time>
			</trkpt>
			<trkpt lat="30.233557" lon="120.087948">
				<speed>0.000000</speed>
				<ele>103.000000</ele>
				<time>2026-08-17T03:48:44Z</time>
			</trkpt>
			<trkpt lat="30.233562" lon="120.087933">
				<speed>0.000000</speed>
				<ele>103.000000</ele>
				<time>2026-08-17T03:48:45Z</time>
			</trkpt>
			<trkpt lat="30.233568" lon="120.087918">
				<speed>0.000000</speed>
				<ele>103.000000</ele>
				<time>2026-08-17T03:48:46Z</time>
			</trkpt>
			<trkpt lat="30.233584" lon="120.087875">
				<speed>0.000000</speed>
				<ele>103.000000</ele>
				<time>2026-08-17T03:48:47Z</time>
			</trkpt>
			<trkpt lat="30.233589" lon="120.087861">
				<speed>0.000000</speed>
				<ele>103.000000</ele>
				<time>2026-08-17T03:48:48Z</time>
			</trkpt>
			<trkpt lat="30.233594" lon="120.087847">
				<speed>0.000000</speed>
				<ele>103.000000</ele>
				<time>2026-08-17T03:48:49Z</time>
			</trkpt>
			<trkpt lat="30.233599" lon="120.087833">
				<speed>0.000000</speed>
				<ele>103.000000</ele>
				<time>2026-08-17T03:48:50Z</time>
			</trkpt>
			<trkpt lat="30.233612" lon="120.087788">
				<speed>0.000000</speed>
				<ele>103.000000</ele>
				<time>2026-08-17T03:48:51Z</time>
			</trkpt>
			<trkpt lat="30.233614" lon="120.087774">
				<speed>0.000000</speed>
				<ele>103.000000</ele>
				<time>2026-08-17T03:48:52Z</time>
			</trkpt>
			<trkpt lat="30.233617" lon="120.087759">
				<speed>0.000000</speed>
				<ele>103.000000</ele>
				<time>2026-08-17T03:48:53Z</time>
			</trkpt>
			<trkpt lat="30.233620" lon="120.087744">
				<speed>0.000000</speed>
				<ele>103.000000</ele>
				<time>2026-08-17T03:48:54Z</time>
			</trkpt>
			<trkpt lat="30.233626" lon="120.087704">
				<speed>0.000000</speed>
				<ele>103.000000</ele>
				<time>2026-08-17T03:48:55Z</time>
			</trkpt>
			<trkpt lat="30.233629" lon="120.087691">
				<speed>0.000000</speed>
				<ele>103.000000</ele>
				<time>2026-08-17T03:48:56Z</time>
			</trkpt>
			<trkpt lat="30.233632" lon="120.087678">
				<speed>0.000000</speed>
				<ele>104.000000</ele>
				<time>2026-08-17T03:48:57Z</time>
			</trkpt>
			<trkpt lat="30.233635" lon="120.087665">
				<speed>0.000000</speed>
				<ele>104.000000</ele>
				<time>2026-08-17T03:48:58Z</time>
			</trkpt>
			<trkpt lat="30.233641" lon="120.087625">
				<speed>0.000000</speed>
				<ele>104.000000</ele>
				<time>2026-08-17T03:48:59Z</time>
			</trkpt>
			<trkpt lat="30.233641" lon="120.087612">
				<speed>0.000000</speed>
				<ele>104.000000</ele>
				<time>2026-08-17T03:49:00Z</time>
			</trkpt>
			<trkpt lat="30.233640" lon="120.087600">
				<speed>0.000000</speed>
				<ele>104.000000</ele>
				<time>2026-08-17T03:49:01Z</time>
			</trkpt>
			<trkpt lat="30.233640" lon="120.087587">
				<speed>0.000000</speed>
				<ele>104.000000</ele>
				<time>2026-08-17T03:49:02Z</time>
			</trkpt>
			<trkpt lat="30.233637" lon="120.087551">
				<speed>0.000000</speed>
				<ele>104.000000</ele>
				<time>2026-08-17T03:49:03Z</time>
			</trkpt>
			<trkpt lat="30.233635" lon="120.087538">
				<speed>0.000000</speed>
				<ele>104.000000</ele>
				<time>2026-08-17T03:49:04Z</time>
			</trkpt>
			<trkpt lat="30.233632" lon="120.087525">
				<speed>0.000000</speed>
				<ele>105.000000</ele>
				<time>2026-08-17T03:49:05Z</time>
			</trkpt>
			<trkpt lat="30.233630" lon="120.087512">
				<speed>0.000000</speed>
				<ele>105.000000</ele>
				<time>2026-08-17T03:49:06Z</time>
			</trkpt>
			<trkpt lat="30.233621" lon="120.087469">
				<speed>0.000000</speed>
				<ele>105.000000</ele>
				<time>2026-08-17T03:49:07Z</time>
			</trkpt>
			<trkpt lat="30.233619" lon="120.087455">
				<speed>0.000000</speed>
				<ele>105.000000</ele>
				<time>2026-08-17T03:49:08Z</time>
			</trkpt>
			<trkpt lat="30.233618" lon="120.087441">
				<speed>0.000000</speed>
				<ele>105.000000</ele>
				<time>2026-08-17T03:49:09Z</time>
			</trkpt>
			<trkpt lat="30.233616" lon="120.087427">
				<speed>0.000000</speed>
				<ele>105.000000</ele>
				<time>2026-08-17T03:49:10Z</time>
			</trkpt>
			<trkpt lat="30.233624" lon="120.087385">
				<speed>0.000000</speed>
				<ele>105.000000</ele>
				<time>2026-08-17T03:49:11Z</time>
			</trkpt>
			<trkpt lat="30.233633" lon="120.087375">
				<speed>0.000000</speed>
				<ele>105.000000</ele>
				<time>2026-08-17T03:49:12Z</time>
			</trkpt>
			<trkpt lat="30.233641" lon="120.087365">
				<speed>0.000000</speed>
				<ele>106.000000</ele>
				<time>2026-08-17T03:49:13Z</time>
			</trkpt>
			<trkpt lat="30.233650" lon="120.087355">
				<speed>0.000000</speed>
				<ele>106.000000</ele>
				<time>2026-08-17T03:49:14Z</time>
			</trkpt>
			<trkpt lat="30.233686" lon="120.087348">
				<speed>0.000000</speed>
				<ele>106.000000</ele>
				<time>2026-08-17T03:49:15Z</time>
			</trkpt>
			<trkpt lat="30.233700" lon="120.087353">
				<speed>0.000000</speed>
				<ele>106.000000</ele>
				<time>2026-08-17T03:49:16Z</time>
			</trkpt>
			<trkpt lat="30.233714" lon="120.087358">
				<speed>0.000000</speed>
				<ele>106.000000</ele>
				<time>2026-08-17T03:49:17Z</time>
			</trkpt>
			<trkpt lat="30.233728" lon="120.087363">
				<speed>0.000000</speed>
				<ele>106.000000</ele>
				<time>2026-08-17T03:49:18Z</time>
			</trkpt>
			<trkpt lat="30.233773" lon="120.087388">
				<speed>0.000000</speed>
				<ele>106.000000</ele>
				<time>2026-08-17T03:49:19Z</time>
			</trkpt>
			<trkpt lat="30.233787" lon="120.087396">
				<speed>0.000000</speed>
				<ele>106.000000</ele>
				<time>2026-08-17T03:49:20Z</time>
			</trkpt>
			<trkpt lat="30.233800" lon="120.087405">
				<speed>0.000000</speed>
				<ele>106.000000</ele>
				<time>2026-08-17T03:49:21Z</time>
			</trkpt>
			<trkpt lat="30.233814" lon="120.087413">
				<speed>0.000000</speed>
				<ele>106.000000</ele>
				<time>2026-08-17T03:49:22Z</time>
			</trkpt>
			<trkpt lat="30.233853" lon="120.087432">
				<speed>0.000000</speed>
				<ele>106.000000</ele>
				<time>2026-08-17T03:49:23Z</time>
			</trkpt>
			<trkpt lat="30.233866" lon="120.087436">
				<speed>0.000000</speed>
				<ele>106.000000</ele>
				<time>2026-08-17T03:49:24Z</time>
			</trkpt>
			<trkpt lat="30.233880" lon="120.087439">
				<speed>0.000000</speed>
				<ele>106.000000</ele>
				<time>2026-08-17T03:49:25Z</time>
			</trkpt>
			<trkpt lat="30.233893" lon="120.087444">
				<speed>0.000000</speed>
				<ele>106.000000</ele>
				<time>2026-08-17T03:49:26Z</time>
			</trkpt>
			<trkpt lat="30.233932" lon="120.087455">
				<speed>0.000000</speed>
				<ele>106.000000</ele>
				<time>2026-08-17T03:49:27Z</time>
			</trkpt>
			<trkpt lat="30.233944" lon="120.087460">
				<speed>0.000000</speed>
				<ele>106.000000</ele>
				<time>2026-08-17T03:49:28Z</time>
			</trkpt>
			<trkpt lat="30.233957" lon="120.087466">
				<speed>0.000000</speed>
				<ele>106.000000</ele>
				<time>2026-08-17T03:49:29Z</time>
			</trkpt>
			<trkpt lat="30.233969" lon="120.087471">
				<speed>0.000000</speed>
				<ele>106.000000</ele>
				<time>2026-08-17T03:49:30Z</time>
			</trkpt>
			<trkpt lat="30.234004" lon="120.087493">
				<speed>0.000000</speed>
				<ele>106.000000</ele>
				<time>2026-08-17T03:49:31Z</time>
			</trkpt>
			<trkpt lat="30.234014" lon="120.087503">
				<speed>0.000000</speed>
				<ele>106.000000</ele>
				<time>2026-08-17T03:49:32Z</time>
			</trkpt>
			<trkpt lat="30.234024" lon="120.087513">
				<speed>0.000000</speed>
				<ele>107.000000</ele>
				<time>2026-08-17T03:49:33Z</time>
			</trkpt>
			<trkpt lat="30.234035" lon="120.087522">
				<speed>0.000000</speed>
				<ele>107.000000</ele>
				<time>2026-08-17T03:49:34Z</time>
			</trkpt>
			<trkpt lat="30.234067" lon="120.087553">
				<speed>0.000000</speed>
				<ele>107.000000</ele>
				<time>2026-08-17T03:49:35Z</time>
			</trkpt>
			<trkpt lat="30.234079" lon="120.087561">
				<speed>0.000000</speed>
				<ele>107.000000</ele>
				<time>2026-08-17T03:49:36Z</time>
			</trkpt>
			<trkpt lat="30.234092" lon="120.087569">
				<speed>0.000000</speed>
				<ele>107.000000</ele>
				<time>2026-08-17T03:49:37Z</time>
			</trkpt>
			<trkpt lat="30.234104" lon="120.087577">
				<speed>0.000000</speed>
				<ele>107.000000</ele>
				<time>2026-08-17T03:49:38Z</time>
			</trkpt>
			<trkpt lat="30.234143" lon="120.087599">
				<speed>0.000000</speed>
				<ele>107.000000</ele>
				<time>2026-08-17T03:49:39Z</time>
			</trkpt>
			<trkpt lat="30.234156" lon="120.087607">
				<speed>0.000000</speed>
				<ele>107.000000</ele>
				<time>2026-08-17T03:49:40Z</time>
			</trkpt>
			<trkpt lat="30.234168" lon="120.087614">
				<speed>0.000000</speed>
				<ele>107.000000</ele>
				<time>2026-08-17T03:49:41Z</time>
			</trkpt>
			<trkpt lat="30.234181" lon="120.087622">
				<speed>0.000000</speed>
				<ele>107.000000</ele>
				<time>2026-08-17T03:49:42Z</time>
			</trkpt>
			<trkpt lat="30.234219" lon="120.087645">
				<speed>0.000000</speed>
				<ele>107.000000</ele>
				<time>2026-08-17T03:49:43Z</time>
			</trkpt>
			<trkpt lat="30.234232" lon="120.087654">
				<speed>0.000000</speed>
				<ele>107.000000</ele>
				<time>2026-08-17T03:49:44Z</time>
			</trkpt>
			<trkpt lat="30.234245" lon="120.087662">
				<speed>0.000000</speed>
				<ele>107.000000</ele>
				<time>2026-08-17T03:49:45Z</time>
			</trkpt>
			<trkpt lat="30.234258" lon="120.087671">
				<speed>0.000000</speed>
				<ele>107.000000</ele>
				<time>2026-08-17T03:49:46Z</time>
			</trkpt>
			<trkpt lat="30.234299" lon="120.087698">
				<speed>0.000000</speed>
				<ele>107.000000</ele>
				<time>2026-08-17T03:49:47Z</time>
			</trkpt>
			<trkpt lat="30.234312" lon="120.087707">
				<speed>0.000000</speed>
				<ele>107.000000</ele>
				<time>2026-08-17T03:49:48Z</time>
			</trkpt>
			<trkpt lat="30.234326" lon="120.087715">
				<speed>0.000000</speed>
				<ele>107.000000</ele>
				<time>2026-08-17T03:49:49Z</time>
			</trkpt>
			<trkpt lat="30.234339" lon="120.087723">
				<speed>0.000000</speed>
				<ele>107.000000</ele>
				<time>2026-08-17T03:49:50Z</time>
			</trkpt>
			<trkpt lat="30.234380" lon="120.087742">
				<speed>0.000000</speed>
				<ele>107.000000</ele>
				<time>2026-08-17T03:49:51Z</time>
			</trkpt>
			<trkpt lat="30.234393" lon="120.087747">
				<speed>0.000000</speed>
				<ele>107.000000</ele>
				<time>2026-08-17T03:49:52Z</time>
			</trkpt>
			<trkpt lat="30.234406" lon="120.087752">
				<speed>0.000000</speed>
				<ele>107.000000</ele>
				<time>2026-08-17T03:49:53Z</time>
			</trkpt>
			<trkpt lat="30.234420" lon="120.087757">
				<speed>0.000000</speed>
				<ele>107.000000</ele>
				<time>2026-08-17T03:49:54Z</time>
			</trkpt>
			<trkpt lat="30.234459" lon="120.087775">
				<speed>0.000000</speed>
				<ele>107.000000</ele>
				<time>2026-08-17T03:49:55Z</time>
			</trkpt>
			<trkpt lat="30.234471" lon="120.087782">
				<speed>0.000000</speed>
				<ele>107.000000</ele>
				<time>2026-08-17T03:49:56Z</time>
			</trkpt>
			<trkpt lat="30.234483" lon="120.087790">
				<speed>0.000000</speed>
				<ele>107.000000</ele>
				<time>2026-08-17T03:49:57Z</time>
			</trkpt>
			<trkpt lat="30.234495" lon="120.087798">
				<speed>0.000000</speed>
				<ele>107.000000</ele>
				<time>2026-08-17T03:49:58Z</time>
			</trkpt>
			<trkpt lat="30.234531" lon="120.087821">
				<speed>0.000000</speed>
				<ele>107.000000</ele>
				<time>2026-08-17T03:49:59Z</time>
			</trkpt>
			<trkpt lat="30.234544" lon="120.087827">
				<speed>0.000000</speed>
				<ele>107.000000</ele>
				<time>2026-08-17T03:50:00Z</time>
			</trkpt>
			<trkpt lat="30.234557" lon="120.087834">
				<speed>0.000000</speed>
				<ele>107.000000</ele>
				<time>2026-08-17T03:50:01Z</time>
			</trkpt>
			<trkpt lat="30.234571" lon="120.087840">
				<speed>0.000000</speed>
				<ele>107.000000</ele>
				<time>2026-08-17T03:50:02Z</time>
			</trkpt>
			<trkpt lat="30.234615" lon="120.087858">
				<speed>0.000000</speed>
				<ele>107.000000</ele>
				<time>2026-08-17T03:50:03Z</time>
			</trkpt>
			<trkpt lat="30.234630" lon="120.087863">
				<speed>0.000000</speed>
				<ele>107.000000</ele>
				<time>2026-08-17T03:50:04Z</time>
			</trkpt>
			<trkpt lat="30.234645" lon="120.087867">
				<speed>0.000000</speed>
				<ele>107.000000</ele>
				<time>2026-08-17T03:50:05Z</time>
			</trkpt>
			<trkpt lat="30.234659" lon="120.087872">
				<speed>0.000000</speed>
				<ele>107.000000</ele>
				<time>2026-08-17T03:50:06Z</time>
			</trkpt>
			<trkpt lat="30.234702" lon="120.087884">
				<speed>0.000000</speed>
				<ele>107.000000</ele>
				<time>2026-08-17T03:50:07Z</time>
			</trkpt>
			<trkpt lat="30.234716" lon="120.087888">
				<speed>0.000000</speed>
				<ele>107.000000</ele>
				<time>2026-08-17T03:50:08Z</time>
			</trkpt>
			<trkpt lat="30.234729" lon="120.087893">
				<speed>0.000000</speed>
				<ele>107.000000</ele>
				<time>2026-08-17T03:50:09Z</time>
			</trkpt>
			<trkpt lat="30.234743" lon="120.087897">
				<speed>0.000000</speed>
				<ele>107.000000</ele>
				<time>2026-08-17T03:50:10Z</time>
			</trkpt>
			<trkpt lat="30.234781" lon="120.087913">
				<speed>0.000000</speed>
				<ele>107.000000</ele>
				<time>2026-08-17T03:50:11Z</time>
			</trkpt>
			<trkpt lat="30.234794" lon="120.087919">
				<speed>0.000000</speed>
				<ele>107.000000</ele>
				<time>2026-08-17T03:50:12Z</time>
			</trkpt>
			<trkpt lat="30.234806" lon="120.087925">
				<speed>0.000000</speed>
				<ele>107.000000</ele>
				<time>2026-08-17T03:50:13Z</time>
			</trkpt>
			<trkpt lat="30.234818" lon="120.087932">
				<speed>0.000000</speed>
				<ele>107.000000</ele>
				<time>2026-08-17T03:50:14Z</time>
			</trkpt>
			<trkpt lat="30.234855" lon="120.087953">
				<speed>0.000000</speed>
				<ele>107.000000</ele>
				<time>2026-08-17T03:50:15Z</time>
			</trkpt>
			<trkpt lat="30.234867" lon="120.087963">
				<speed>0.000000</speed>
				<ele>107.000000</ele>
				<time>2026-08-17T03:50:16Z</time>
			</trkpt>
			<trkpt lat="30.234879" lon="120.087972">
				<speed>0.000000</speed>
				<ele>107.000000</ele>
				<time>2026-08-17T03:50:17Z</time>
			</trkpt>
			<trkpt lat="30.234891" lon="120.087981">
				<speed>0.000000</speed>
				<ele>107.000000</ele>
				<time>2026-08-17T03:50:18Z</time>
			</trkpt>
			<trkpt lat="30.234926" lon="120.088020">
				<speed>0.000000</speed>
				<ele>107.000000</ele>
				<time>2026-08-17T03:50:19Z</time>
			</trkpt>
			<trkpt lat="30.234937" lon="120.088034">
				<speed>0.000000</speed>
				<ele>107.000000</ele>
				<time>2026-08-17T03:50:20Z</time>
			</trkpt>
			<trkpt lat="30.234948" lon="120.088048">
				<speed>0.000000</speed>
				<ele>107.000000</ele>
				<time>2026-08-17T03:50:21Z</time>
			</trkpt>
			<trkpt lat="30.234960" lon="120.088062">
				<speed>0.000000</speed>
				<ele>107.000000</ele>
				<time>2026-08-17T03:50:22Z</time>
			</trkpt>
			<trkpt lat="30.234988" lon="120.088109">
				<speed>0.000000</speed>
				<ele>107.000000</ele>
				<time>2026-08-17T03:50:23Z</time>
			</trkpt>
			<trkpt lat="30.234998" lon="120.088126">
				<speed>0.000000</speed>
				<ele>107.000000</ele>
				<time>2026-08-17T03:50:24Z</time>
			</trkpt>
			<trkpt lat="30.235007" lon="120.088142">
				<speed>0.000000</speed>
				<ele>107.000000</ele>
				<time>2026-08-17T03:50:25Z</time>
			</trkpt>
			<trkpt lat="30.235016" lon="120.088158">
				<speed>0.000000</speed>
				<ele>107.000000</ele>
				<time>2026-08-17T03:50:26Z</time>
			</trkpt>
			<trkpt lat="30.235050" lon="120.088206">
				<speed>0.000000</speed>
				<ele>107.000000</ele>
				<time>2026-08-17T03:50:27Z</time>
			</trkpt>
			<trkpt lat="30.235063" lon="120.088220">
				<speed>0.000000</speed>
				<ele>107.000000</ele>
				<time>2026-08-17T03:50:28Z</time>
			</trkpt>
			<trkpt lat="30.235076" lon="120.088234">
				<speed>0.000000</speed>
				<ele>107.000000</ele>
				<time>2026-08-17T03:50:29Z</time>
			</trkpt>
			<trkpt lat="30.235088" lon="120.088248">
				<speed>0.000000</speed>
				<ele>107.000000</ele>
				<time>2026-08-17T03:50:30Z</time>
			</trkpt>
			<trkpt lat="30.235127" lon="120.088286">
				<speed>0.000000</speed>
				<ele>107.000000</ele>
				<time>2026-08-17T03:50:31Z</time>
			</trkpt>
			<trkpt lat="30.235139" lon="120.088298">
				<speed>0.000000</speed>
				<ele>107.000000</ele>
				<time>2026-08-17T03:50:32Z</time>
			</trkpt>
			<trkpt lat="30.235150" lon="120.088311">
				<speed>0.000000</speed>
				<ele>107.000000</ele>
				<time>2026-08-17T03:50:33Z</time>
			</trkpt>
			<trkpt lat="30.235162" lon="120.088324">
				<speed>0.000000</speed>
				<ele>107.000000</ele>
				<time>2026-08-17T03:50:34Z</time>
			</trkpt>
			<trkpt lat="30.235195" lon="120.088361">
				<speed>0.000000</speed>
				<ele>107.000000</ele>
				<time>2026-08-17T03:50:35Z</time>
			</trkpt>
			<trkpt lat="30.235205" lon="120.088373">
				<speed>0.000000</speed>
				<ele>107.000000</ele>
				<time>2026-08-17T03:50:36Z</time>
			</trkpt>
			<trkpt lat="30.235216" lon="120.088384">
				<speed>0.000000</speed>
				<ele>107.000000</ele>
				<time>2026-08-17T03:50:37Z</time>
			</trkpt>
			<trkpt lat="30.235227" lon="120.088395">
				<speed>0.000000</speed>
				<ele>106.000000</ele>
				<time>2026-08-17T03:50:38Z</time>
			</trkpt>
			<trkpt lat="30.235263" lon="120.088423">
				<speed>0.000000</speed>
				<ele>106.000000</ele>
				<time>2026-08-17T03:50:39Z</time>
			</trkpt>
			<trkpt lat="30.235277" lon="120.088431">
				<speed>0.000000</speed>
				<ele>106.000000</ele>
				<time>2026-08-17T03:50:40Z</time>
			</trkpt>
			<trkpt lat="30.235290" lon="120.088439">
				<speed>0.000000</speed>
				<ele>106.000000</ele>
				<time>2026-08-17T03:50:41Z</time>
			</trkpt>
			<trkpt lat="30.235304" lon="120.088447">
				<speed>0.000000</speed>
				<ele>105.000000</ele>
				<time>2026-08-17T03:50:42Z</time>
			</trkpt>
			<trkpt lat="30.235346" lon="120.088472">
				<speed>0.000000</speed>
				<ele>105.000000</ele>
				<time>2026-08-17T03:50:43Z</time>
			</trkpt>
			<trkpt lat="30.235360" lon="120.088483">
				<speed>0.000000</speed>
				<ele>105.000000</ele>
				<time>2026-08-17T03:50:44Z</time>
			</trkpt>
			<trkpt lat="30.235374" lon="120.088493">
				<speed>0.000000</speed>
				<ele>105.000000</ele>
				<time>2026-08-17T03:50:45Z</time>
			</trkpt>
			<trkpt lat="30.235388" lon="120.088503">
				<speed>0.000000</speed>
				<ele>105.000000</ele>
				<time>2026-08-17T03:50:46Z</time>
			</trkpt>
			<trkpt lat="30.235426" lon="120.088541">
				<speed>0.000000</speed>
				<ele>105.000000</ele>
				<time>2026-08-17T03:50:47Z</time>
			</trkpt>
			<trkpt lat="30.235437" lon="120.088554">
				<speed>0.000000</speed>
				<ele>105.000000</ele>
				<time>2026-08-17T03:50:48Z</time>
			</trkpt>
			<trkpt lat="30.235448" lon="120.088567">
				<speed>0.000000</speed>
				<ele>105.000000</ele>
				<time>2026-08-17T03:50:49Z</time>
			</trkpt>
			<trkpt lat="30.235459" lon="120.088581">
				<speed>0.000000</speed>
				<ele>104.000000</ele>
				<time>2026-08-17T03:50:50Z</time>
			</trkpt>
			<trkpt lat="30.235489" lon="120.088623">
				<speed>0.000000</speed>
				<ele>104.000000</ele>
				<time>2026-08-17T03:50:51Z</time>
			</trkpt>
			<trkpt lat="30.235498" lon="120.088638">
				<speed>0.000000</speed>
				<ele>104.000000</ele>
				<time>2026-08-17T03:50:52Z</time>
			</trkpt>
			<trkpt lat="30.235507" lon="120.088653">
				<speed>0.000000</speed>
				<ele>104.000000</ele>
				<time>2026-08-17T03:50:53Z</time>
			</trkpt>
			<trkpt lat="30.235516" lon="120.088668">
				<speed>0.000000</speed>
				<ele>104.000000</ele>
				<time>2026-08-17T03:50:54Z</time>
			</trkpt>
			<trkpt lat="30.235543" lon="120.088715">
				<speed>0.000000</speed>
				<ele>104.000000</ele>
				<time>2026-08-17T03:50:55Z</time>
			</trkpt>
			<trkpt lat="30.235553" lon="120.088729">
				<speed>0.000000</speed>
				<ele>104.000000</ele>
				<time>2026-08-17T03:50:56Z</time>
			</trkpt>
			<trkpt lat="30.235563" lon="120.088744">
				<speed>0.000000</speed>
				<ele>104.000000</ele>
				<time>2026-08-17T03:50:57Z</time>
			</trkpt>
			<trkpt lat="30.235573" lon="120.088759">
				<speed>0.000000</speed>
				<ele>103.000000</ele>
				<time>2026-08-17T03:50:58Z</time>
			</trkpt>
			<trkpt lat="30.235605" lon="120.088801">
				<speed>0.000000</speed>
				<ele>103.000000</ele>
				<time>2026-08-17T03:50:59Z</time>
			</trkpt>
			<trkpt lat="30.235616" lon="120.088814">
				<speed>0.000000</speed>
				<ele>103.000000</ele>
				<time>2026-08-17T03:51:00Z</time>
			</trkpt>
			<trkpt lat="30.235627" lon="120.088827">
				<speed>0.000000</speed>
				<ele>103.000000</ele>
				<time>2026-08-17T03:51:01Z</time>
			</trkpt>
			<trkpt lat="30.235638" lon="120.088840">
				<speed>0.000000</speed>
				<ele>103.000000</ele>
				<time>2026-08-17T03:51:02Z</time>
			</trkpt>
			<trkpt lat="30.235670" lon="120.088876">
				<speed>0.000000</speed>
				<ele>103.000000</ele>
				<time>2026-08-17T03:51:03Z</time>
			</trkpt>
			<trkpt lat="30.235680" lon="120.088889">
				<speed>0.000000</speed>
				<ele>103.000000</ele>
				<time>2026-08-17T03:51:04Z</time>
			</trkpt>
			<trkpt lat="30.235691" lon="120.088901">
				<speed>0.000000</speed>
				<ele>103.000000</ele>
				<time>2026-08-17T03:51:05Z</time>
			</trkpt>
			<trkpt lat="30.235702" lon="120.088914">
				<speed>0.000000</speed>
				<ele>102.000000</ele>
				<time>2026-08-17T03:51:06Z</time>
			</trkpt>
			<trkpt lat="30.235734" lon="120.088953">
				<speed>0.000000</speed>
				<ele>102.000000</ele>
				<time>2026-08-17T03:51:07Z</time>
			</trkpt>
			<trkpt lat="30.235745" lon="120.088965">
				<speed>0.000000</speed>
				<ele>102.000000</ele>
				<time>2026-08-17T03:51:08Z</time>
			</trkpt>
			<trkpt lat="30.235757" lon="120.088978">
				<speed>0.000000</speed>
				<ele>102.000000</ele>
				<time>2026-08-17T03:51:09Z</time>
			</trkpt>
			<trkpt lat="30.235768" lon="120.088990">
				<speed>0.000000</speed>
				<ele>102.000000</ele>
				<time>2026-08-17T03:51:10Z</time>
			</trkpt>
			<trkpt lat="30.235803" lon="120.089026">
				<speed>0.000000</speed>
				<ele>102.000000</ele>
				<time>2026-08-17T03:51:11Z</time>
			</trkpt>
			<trkpt lat="30.235814" lon="120.089036">
				<speed>0.000000</speed>
				<ele>102.000000</ele>
				<time>2026-08-17T03:51:12Z</time>
			</trkpt>
			<trkpt lat="30.235825" lon="120.089047">
				<speed>0.000000</speed>
				<ele>102.000000</ele>
				<time>2026-08-17T03:51:13Z</time>
			</trkpt>
			<trkpt lat="30.235836" lon="120.089057">
				<speed>0.000000</speed>
				<ele>101.000000</ele>
				<time>2026-08-17T03:51:14Z</time>
			</trkpt>
			<trkpt lat="30.235870" lon="120.089086">
				<speed>0.000000</speed>
				<ele>101.000000</ele>
				<time>2026-08-17T03:51:15Z</time>
			</trkpt>
			<trkpt lat="30.235883" lon="120.089094">
				<speed>0.000000</speed>
				<ele>101.000000</ele>
				<time>2026-08-17T03:51:16Z</time>
			</trkpt>
			<trkpt lat="30.235896" lon="120.089102">
				<speed>0.000000</speed>
				<ele>101.000000</ele>
				<time>2026-08-17T03:51:17Z</time>
			</trkpt>
			<trkpt lat="30.235909" lon="120.089110">
				<speed>0.000000</speed>
				<ele>101.000000</ele>
				<time>2026-08-17T03:51:18Z</time>
			</trkpt>
			<trkpt lat="30.235951" lon="120.089134">
				<speed>0.000000</speed>
				<ele>101.000000</ele>
				<time>2026-08-17T03:51:19Z</time>
			</trkpt>
			<trkpt lat="30.235965" lon="120.089142">
				<speed>0.000000</speed>
				<ele>101.000000</ele>
				<time>2026-08-17T03:51:20Z</time>
			</trkpt>
			<trkpt lat="30.235980" lon="120.089151">
				<speed>0.000000</speed>
				<ele>101.000000</ele>
				<time>2026-08-17T03:51:21Z</time>
			</trkpt>
			<trkpt lat="30.235994" lon="120.089159">
				<speed>0.000000</speed>
				<ele>101.000000</ele>
				<time>2026-08-17T03:51:22Z</time>
			</trkpt>
			<trkpt lat="30.236036" lon="120.089186">
				<speed>0.000000</speed>
				<ele>101.000000</ele>
				<time>2026-08-17T03:51:23Z</time>
			</trkpt>
			<trkpt lat="30.236048" lon="120.089195">
				<speed>0.000000</speed>
				<ele>101.000000</ele>
				<time>2026-08-17T03:51:24Z</time>
			</trkpt>
			<trkpt lat="30.236060" lon="120.089205">
				<speed>0.000000</speed>
				<ele>101.000000</ele>
				<time>2026-08-17T03:51:25Z</time>
			</trkpt>
			<trkpt lat="30.236072" lon="120.089214">
				<speed>0.000000</speed>
				<ele>101.000000</ele>
				<time>2026-08-17T03:51:26Z</time>
			</trkpt>
			<trkpt lat="30.236105" lon="120.089244">
				<speed>0.000000</speed>
				<ele>101.000000</ele>
				<time>2026-08-17T03:51:27Z</time>
			</trkpt>
			<trkpt lat="30.236116" lon="120.089253">
				<speed>0.000000</speed>
				<ele>101.000000</ele>
				<time>2026-08-17T03:51:28Z</time>
			</trkpt>
			<trkpt lat="30.236126" lon="120.089262">
				<speed>0.000000</speed>
				<ele>101.000000</ele>
				<time>2026-08-17T03:51:29Z</time>
			</trkpt>
			<trkpt lat="30.236137" lon="120.089271">
				<speed>0.000000</speed>
				<ele>101.000000</ele>
				<time>2026-08-17T03:51:30Z</time>
			</trkpt>
			<trkpt lat="30.236164" lon="120.089297">
				<speed>0.000000</speed>
				<ele>101.000000</ele>
				<time>2026-08-17T03:51:31Z</time>
			</trkpt>
			<trkpt lat="30.236172" lon="120.089305">
				<speed>0.000000</speed>
				<ele>101.000000</ele>
				<time>2026-08-17T03:51:32Z</time>
			</trkpt>
			<trkpt lat="30.236181" lon="120.089314">
				<speed>0.000000</speed>
				<ele>101.000000</ele>
				<time>2026-08-17T03:51:33Z</time>
			</trkpt>
			<trkpt lat="30.236190" lon="120.089323">
				<speed>0.000000</speed>
				<ele>101.000000</ele>
				<time>2026-08-17T03:51:34Z</time>
			</trkpt>
			<trkpt lat="30.236221" lon="120.089347">
				<speed>0.000000</speed>
				<ele>101.000000</ele>
				<time>2026-08-17T03:51:35Z</time>
			</trkpt>
			<trkpt lat="30.236232" lon="120.089356">
				<speed>0.000000</speed>
				<ele>101.000000</ele>
				<time>2026-08-17T03:51:36Z</time>
			</trkpt>
			<trkpt lat="30.236244" lon="120.089365">
				<speed>0.000000</speed>
				<ele>101.000000</ele>
				<time>2026-08-17T03:51:37Z</time>
			</trkpt>
			<trkpt lat="30.236256" lon="120.089373">
				<speed>0.000000</speed>
				<ele>101.000000</ele>
				<time>2026-08-17T03:51:38Z</time>
			</trkpt>
			<trkpt lat="30.236294" lon="120.089407">
				<speed>0.000000</speed>
				<ele>101.000000</ele>
				<time>2026-08-17T03:51:39Z</time>
			</trkpt>
			<trkpt lat="30.236309" lon="120.089419">
				<speed>0.000000</speed>
				<ele>101.000000</ele>
				<time>2026-08-17T03:51:40Z</time>
			</trkpt>
			<trkpt lat="30.236323" lon="120.089431">
				<speed>0.000000</speed>
				<ele>101.000000</ele>
				<time>2026-08-17T03:51:41Z</time>
			</trkpt>
			<trkpt lat="30.236337" lon="120.089443">
				<speed>0.000000</speed>
				<ele>101.000000</ele>
				<time>2026-08-17T03:51:42Z</time>
			</trkpt>
			<trkpt lat="30.236383" lon="120.089469">
				<speed>0.000000</speed>
				<ele>101.000000</ele>
				<time>2026-08-17T03:51:43Z</time>
			</trkpt>
			<trkpt lat="30.236397" lon="120.089474">
				<speed>0.000000</speed>
				<ele>101.000000</ele>
				<time>2026-08-17T03:51:44Z</time>
			</trkpt>
			<trkpt lat="30.236412" lon="120.089479">
				<speed>0.000000</speed>
				<ele>101.000000</ele>
				<time>2026-08-17T03:51:45Z</time>
			</trkpt>
			<trkpt lat="30.236426" lon="120.089484">
				<speed>0.000000</speed>
				<ele>101.000000</ele>
				<time>2026-08-17T03:51:46Z</time>
			</trkpt>
			<trkpt lat="30.236467" lon="120.089489">
				<speed>0.000000</speed>
				<ele>101.000000</ele>
				<time>2026-08-17T03:51:47Z</time>
			</trkpt>
			<trkpt lat="30.236479" lon="120.089489">
				<speed>0.000000</speed>
				<ele>101.000000</ele>
				<time>2026-08-17T03:51:48Z</time>
			</trkpt>
			<trkpt lat="30.236490" lon="120.089489">
				<speed>0.000000</speed>
				<ele>101.000000</ele>
				<time>2026-08-17T03:51:49Z</time>
			</trkpt>
			<trkpt lat="30.236502" lon="120.089490">
				<speed>0.000000</speed>
				<ele>101.000000</ele>
				<time>2026-08-17T03:51:50Z</time>
			</trkpt>
			<trkpt lat="30.236533" lon="120.089488">
				<speed>0.000000</speed>
				<ele>101.000000</ele>
				<time>2026-08-17T03:51:51Z</time>
			</trkpt>
			<trkpt lat="30.236543" lon="120.089486">
				<speed>0.000000</speed>
				<ele>101.000000</ele>
				<time>2026-08-17T03:51:52Z</time>
			</trkpt>
			<trkpt lat="30.236552" lon="120.089485">
				<speed>0.000000</speed>
				<ele>101.000000</ele>
				<time>2026-08-17T03:51:53Z</time>
			</trkpt>
			<trkpt lat="30.236562" lon="120.089483">
				<speed>0.000000</speed>
				<ele>101.000000</ele>
				<time>2026-08-17T03:51:54Z</time>
			</trkpt>
			<trkpt lat="30.236589" lon="120.089482">
				<speed>0.000000</speed>
				<ele>101.000000</ele>
				<time>2026-08-17T03:51:55Z</time>
			</trkpt>
			<trkpt lat="30.236598" lon="120.089482">
				<speed>0.000000</speed>
				<ele>101.000000</ele>
				<time>2026-08-17T03:51:56Z</time>
			</trkpt>
			<trkpt lat="30.236607" lon="120.089481">
				<speed>0.000000</speed>
				<ele>101.000000</ele>
				<time>2026-08-17T03:51:57Z</time>
			</trkpt>
			<trkpt lat="30.236616" lon="120.089480">
				<speed>0.000000</speed>
				<ele>101.000000</ele>
				<time>2026-08-17T03:51:58Z</time>
			</trkpt>
			<trkpt lat="30.236646" lon="120.089477">
				<speed>0.000000</speed>
				<ele>101.000000</ele>
				<time>2026-08-17T03:51:59Z</time>
			</trkpt>
			<trkpt lat="30.236658" lon="120.089475">
				<speed>0.000000</speed>
				<ele>101.000000</ele>
				<time>2026-08-17T03:52:00Z</time>
			</trkpt>
			<trkpt lat="30.236670" lon="120.089474">
				<speed>0.000000</speed>
				<ele>101.000000</ele>
				<time>2026-08-17T03:52:01Z</time>
			</trkpt>
			<trkpt lat="30.236682" lon="120.089472">
				<speed>0.000000</speed>
				<ele>101.000000</ele>
				<time>2026-08-17T03:52:02Z</time>
			</trkpt>
			<trkpt lat="30.236722" lon="120.089470">
				<speed>0.000000</speed>
				<ele>101.000000</ele>
				<time>2026-08-17T03:52:03Z</time>
			</trkpt>
			<trkpt lat="30.236736" lon="120.089470">
				<speed>0.000000</speed>
				<ele>101.000000</ele>
				<time>2026-08-17T03:52:04Z</time>
			</trkpt>
			<trkpt lat="30.236750" lon="120.089470">
				<speed>0.000000</speed>
				<ele>102.000000</ele>
				<time>2026-08-17T03:52:05Z</time>
			</trkpt>
			<trkpt lat="30.236764" lon="120.089470">
				<speed>0.000000</speed>
				<ele>102.000000</ele>
				<time>2026-08-17T03:52:06Z</time>
			</trkpt>
			<trkpt lat="30.236807" lon="120.089474">
				<speed>0.000000</speed>
				<ele>102.000000</ele>
				<time>2026-08-17T03:52:07Z</time>
			</trkpt>
			<trkpt lat="30.236822" lon="120.089479">
				<speed>0.000000</speed>
				<ele>102.000000</ele>
				<time>2026-08-17T03:52:08Z</time>
			</trkpt>
			<trkpt lat="30.236837" lon="120.089483">
				<speed>0.000000</speed>
				<ele>102.000000</ele>
				<time>2026-08-17T03:52:09Z</time>
			</trkpt>
			<trkpt lat="30.236851" lon="120.089488">
				<speed>0.000000</speed>
				<ele>102.000000</ele>
				<time>2026-08-17T03:52:10Z</time>
			</trkpt>
			<trkpt lat="30.236896" lon="120.089512">
				<speed>0.000000</speed>
				<ele>102.000000</ele>
				<time>2026-08-17T03:52:11Z</time>
			</trkpt>
			<trkpt lat="30.236911" lon="120.089521">
				<speed>0.000000</speed>
				<ele>102.000000</ele>
				<time>2026-08-17T03:52:12Z</time>
			</trkpt>
			<trkpt lat="30.236925" lon="120.089531">
				<speed>0.000000</speed>
				<ele>102.000000</ele>
				<time>2026-08-17T03:52:13Z</time>
			</trkpt>
			<trkpt lat="30.236940" lon="120.089540">
				<speed>0.000000</speed>
				<ele>102.000000</ele>
				<time>2026-08-17T03:52:14Z</time>
			</trkpt>
			<trkpt lat="30.236986" lon="120.089564">
				<speed>0.000000</speed>
				<ele>102.000000</ele>
				<time>2026-08-17T03:52:15Z</time>
			</trkpt>
			<trkpt lat="30.237003" lon="120.089570">
				<speed>0.000000</speed>
				<ele>102.000000</ele>
				<time>2026-08-17T03:52:16Z</time>
			</trkpt>
			<trkpt lat="30.237019" lon="120.089577">
				<speed>0.000000</speed>
				<ele>102.000000</ele>
				<time>2026-08-17T03:52:17Z</time>
			</trkpt>
			<trkpt lat="30.237036" lon="120.089583">
				<speed>0.000000</speed>
				<ele>102.000000</ele>
				<time>2026-08-17T03:52:18Z</time>
			</trkpt>
			<trkpt lat="30.237089" lon="120.089598">
				<speed>0.000000</speed>
				<ele>102.000000</ele>
				<time>2026-08-17T03:52:19Z</time>
			</trkpt>
			<trkpt lat="30.237106" lon="120.089603">
				<speed>0.000000</speed>
				<ele>102.000000</ele>
				<time>2026-08-17T03:52:20Z</time>
			</trkpt>
			<trkpt lat="30.237123" lon="120.089607">
				<speed>0.000000</speed>
				<ele>102.000000</ele>
				<time>2026-08-17T03:52:21Z</time>
			</trkpt>
			<trkpt lat="30.237139" lon="120.089611">
				<speed>0.000000</speed>
				<ele>102.000000</ele>
				<time>2026-08-17T03:52:22Z</time>
			</trkpt>
			<trkpt lat="30.237186" lon="120.089622">
				<speed>0.000000</speed>
				<ele>102.000000</ele>
				<time>2026-08-17T03:52:23Z</time>
			</trkpt>
			<trkpt lat="30.237201" lon="120.089625">
				<speed>0.000000</speed>
				<ele>102.000000</ele>
				<time>2026-08-17T03:52:24Z</time>
			</trkpt>
			<trkpt lat="30.237216" lon="120.089628">
				<speed>0.000000</speed>
				<ele>102.000000</ele>
				<time>2026-08-17T03:52:25Z</time>
			</trkpt>
			<trkpt lat="30.237231" lon="120.089631">
				<speed>0.000000</speed>
				<ele>102.000000</ele>
				<time>2026-08-17T03:52:26Z</time>
			</trkpt>
			<trkpt lat="30.237276" lon="120.089642">
				<speed>0.000000</speed>
				<ele>102.000000</ele>
				<time>2026-08-17T03:52:27Z</time>
			</trkpt>
			<trkpt lat="30.237291" lon="120.089646">
				<speed>0.000000</speed>
				<ele>102.000000</ele>
				<time>2026-08-17T03:52:28Z</time>
			</trkpt>
			<trkpt lat="30.237306" lon="120.089650">
				<speed>0.000000</speed>
				<ele>102.000000</ele>
				<time>2026-08-17T03:52:29Z</time>
			</trkpt>
			<trkpt lat="30.237321" lon="120.089654">
				<speed>0.000000</speed>
				<ele>102.000000</ele>
				<time>2026-08-17T03:52:30Z</time>
			</trkpt>
			<trkpt lat="30.237365" lon="120.089665">
				<speed>0.000000</speed>
				<ele>102.000000</ele>
				<time>2026-08-17T03:52:31Z</time>
			</trkpt>
			<trkpt lat="30.237379" lon="120.089668">
				<speed>0.000000</speed>
				<ele>102.000000</ele>
				<time>2026-08-17T03:52:32Z</time>
			</trkpt>
			<trkpt lat="30.237392" lon="120.089671">
				<speed>0.000000</speed>
				<ele>102.000000</ele>
				<time>2026-08-17T03:52:33Z</time>
			</trkpt>
			<trkpt lat="30.237406" lon="120.089675">
				<speed>0.000000</speed>
				<ele>102.000000</ele>
				<time>2026-08-17T03:52:34Z</time>
			</trkpt>
			<trkpt lat="30.237446" lon="120.089690">
				<speed>0.000000</speed>
				<ele>102.000000</ele>
				<time>2026-08-17T03:52:35Z</time>
			</trkpt>
			<trkpt lat="30.237457" lon="120.089699">
				<speed>0.000000</speed>
				<ele>102.000000</ele>
				<time>2026-08-17T03:52:36Z</time>
			</trkpt>
			<trkpt lat="30.237469" lon="120.089708">
				<speed>0.000000</speed>
				<ele>102.000000</ele>
				<time>2026-08-17T03:52:37Z</time>
			</trkpt>
			<trkpt lat="30.237480" lon="120.089717">
				<speed>0.000000</speed>
				<ele>102.000000</ele>
				<time>2026-08-17T03:52:38Z</time>
			</trkpt>
			<trkpt lat="30.237501" lon="120.089761">
				<speed>0.000000</speed>
				<ele>102.000000</ele>
				<time>2026-08-17T03:52:39Z</time>
			</trkpt>
			<trkpt lat="30.237505" lon="120.089781">
				<speed>0.000000</speed>
				<ele>102.000000</ele>
				<time>2026-08-17T03:52:40Z</time>
			</trkpt>
			<trkpt lat="30.237509" lon="120.089800">
				<speed>0.000000</speed>
				<ele>102.000000</ele>
				<time>2026-08-17T03:52:41Z</time>
			</trkpt>
			<trkpt lat="30.237513" lon="120.089820">
				<speed>0.000000</speed>
				<ele>102.000000</ele>
				<time>2026-08-17T03:52:42Z</time>
			</trkpt>
			<trkpt lat="30.237521" lon="120.089885">
				<speed>0.000000</speed>
				<ele>102.000000</ele>
				<time>2026-08-17T03:52:43Z</time>
			</trkpt>
			<trkpt lat="30.237523" lon="120.089907">
				<speed>0.000000</speed>
				<ele>102.000000</ele>
				<time>2026-08-17T03:52:44Z</time>
			</trkpt>
			<trkpt lat="30.237526" lon="120.089930">
				<speed>0.000000</speed>
				<ele>102.000000</ele>
				<time>2026-08-17T03:52:45Z</time>
			</trkpt>
			<trkpt lat="30.237529" lon="120.089952">
				<speed>0.000000</speed>
				<ele>102.000000</ele>
				<time>2026-08-17T03:52:46Z</time>
			</trkpt>
			<trkpt lat="30.237536" lon="120.090017">
				<speed>0.000000</speed>
				<ele>102.000000</ele>
				<time>2026-08-17T03:52:47Z</time>
			</trkpt>
			<trkpt lat="30.237539" lon="120.090037">
				<speed>0.000000</speed>
				<ele>102.000000</ele>
				<time>2026-08-17T03:52:48Z</time>
			</trkpt>
			<trkpt lat="30.237541" lon="120.090057">
				<speed>0.000000</speed>
				<ele>102.000000</ele>
				<time>2026-08-17T03:52:49Z</time>
			</trkpt>
			<trkpt lat="30.237544" lon="120.090078">
				<speed>0.000000</speed>
				<ele>102.000000</ele>
				<time>2026-08-17T03:52:50Z</time>
			</trkpt>
			<trkpt lat="30.237548" lon="120.090136">
				<speed>0.000000</speed>
				<ele>102.000000</ele>
				<time>2026-08-17T03:52:51Z</time>
			</trkpt>
			<trkpt lat="30.237547" lon="120.090156">
				<speed>0.000000</speed>
				<ele>102.000000</ele>
				<time>2026-08-17T03:52:52Z</time>
			</trkpt>
			<trkpt lat="30.237547" lon="120.090176">
				<speed>0.000000</speed>
				<ele>102.000000</ele>
				<time>2026-08-17T03:52:53Z</time>
			</trkpt>
			<trkpt lat="30.237547" lon="120.090195">
				<speed>0.000000</speed>
				<ele>102.000000</ele>
				<time>2026-08-17T03:52:54Z</time>
			</trkpt>
			<trkpt lat="30.237544" lon="120.090254">
				<speed>0.000000</speed>
				<ele>102.000000</ele>
				<time>2026-08-17T03:52:55Z</time>
			</trkpt>
			<trkpt lat="30.237544" lon="120.090273">
				<speed>0.000000</speed>
				<ele>102.000000</ele>
				<time>2026-08-17T03:52:56Z</time>
			</trkpt>
			<trkpt lat="30.237543" lon="120.090292">
				<speed>0.000000</speed>
				<ele>102.000000</ele>
				<time>2026-08-17T03:52:57Z</time>
			</trkpt>
			<trkpt lat="30.237543" lon="120.090311">
				<speed>0.000000</speed>
				<ele>101.000000</ele>
				<time>2026-08-17T03:52:58Z</time>
			</trkpt>
			<trkpt lat="30.237547" lon="120.090367">
				<speed>0.000000</speed>
				<ele>101.000000</ele>
				<time>2026-08-17T03:52:59Z</time>
			</trkpt>
			<trkpt lat="30.237549" lon="120.090386">
				<speed>0.000000</speed>
				<ele>101.000000</ele>
				<time>2026-08-17T03:53:00Z</time>
			</trkpt>
			<trkpt lat="30.237552" lon="120.090404">
				<speed>0.000000</speed>
				<ele>101.000000</ele>
				<time>2026-08-17T03:53:01Z</time>
			</trkpt>
			<trkpt lat="30.237554" lon="120.090423">
				<speed>0.000000</speed>
				<ele>100.000000</ele>
				<time>2026-08-17T03:53:02Z</time>
			</trkpt>
			<trkpt lat="30.237561" lon="120.090478">
				<speed>0.000000</speed>
				<ele>100.000000</ele>
				<time>2026-08-17T03:53:03Z</time>
			</trkpt>
			<trkpt lat="30.237561" lon="120.090496">
				<speed>0.000000</speed>
				<ele>100.000000</ele>
				<time>2026-08-17T03:53:04Z</time>
			</trkpt>
			<trkpt lat="30.237562" lon="120.090514">
				<speed>0.000000</speed>
				<ele>100.000000</ele>
				<time>2026-08-17T03:53:05Z</time>
			</trkpt>
			<trkpt lat="30.237562" lon="120.090532">
				<speed>0.000000</speed>
				<ele>99.000000</ele>
				<time>2026-08-17T03:53:06Z</time>
			</trkpt>
			<trkpt lat="30.237557" lon="120.090585">
				<speed>0.000000</speed>
				<ele>99.000000</ele>
				<time>2026-08-17T03:53:07Z</time>
			</trkpt>
			<trkpt lat="30.237555" lon="120.090602">
				<speed>0.000000</speed>
				<ele>99.000000</ele>
				<time>2026-08-17T03:53:08Z</time>
			</trkpt>
			<trkpt lat="30.237552" lon="120.090620">
				<speed>0.000000</speed>
				<ele>99.000000</ele>
				<time>2026-08-17T03:53:09Z</time>
			</trkpt>
			<trkpt lat="30.237550" lon="120.090638">
				<speed>0.000000</speed>
				<ele>98.000000</ele>
				<time>2026-08-17T03:53:10Z</time>
			</trkpt>
			<trkpt lat="30.237549" lon="120.090693">
				<speed>0.000000</speed>
				<ele>98.000000</ele>
				<time>2026-08-17T03:53:11Z</time>
			</trkpt>
			<trkpt lat="30.237551" lon="120.090712">
				<speed>0.000000</speed>
				<ele>98.000000</ele>
				<time>2026-08-17T03:53:12Z</time>
			</trkpt>
			<trkpt lat="30.237552" lon="120.090730">
				<speed>0.000000</speed>
				<ele>98.000000</ele>
				<time>2026-08-17T03:53:13Z</time>
			</trkpt>
			<trkpt lat="30.237554" lon="120.090749">
				<speed>0.000000</speed>
				<ele>97.000000</ele>
				<time>2026-08-17T03:53:14Z</time>
			</trkpt>
			<trkpt lat="30.237566" lon="120.090806">
				<speed>0.000000</speed>
				<ele>97.000000</ele>
				<time>2026-08-17T03:53:15Z</time>
			</trkpt>
			<trkpt lat="30.237570" lon="120.090825">
				<speed>0.000000</speed>
				<ele>97.000000</ele>
				<time>2026-08-17T03:53:16Z</time>
			</trkpt>
			<trkpt lat="30.237575" lon="120.090845">
				<speed>0.000000</speed>
				<ele>97.000000</ele>
				<time>2026-08-17T03:53:17Z</time>
			</trkpt>
			<trkpt lat="30.237579" lon="120.090864">
				<speed>0.000000</speed>
				<ele>97.000000</ele>
				<time>2026-08-17T03:53:18Z</time>
			</trkpt>
			<trkpt lat="30.237589" lon="120.090922">
				<speed>0.000000</speed>
				<ele>97.000000</ele>
				<time>2026-08-17T03:53:19Z</time>
			</trkpt>
			<trkpt lat="30.237593" lon="120.090942">
				<speed>0.000000</speed>
				<ele>97.000000</ele>
				<time>2026-08-17T03:53:20Z</time>
			</trkpt>
			<trkpt lat="30.237596" lon="120.090962">
				<speed>0.000000</speed>
				<ele>97.000000</ele>
				<time>2026-08-17T03:53:21Z</time>
			</trkpt>
			<trkpt lat="30.237599" lon="120.090982">
				<speed>0.000000</speed>
				<ele>96.000000</ele>
				<time>2026-08-17T03:53:22Z</time>
			</trkpt>
			<trkpt lat="30.237606" lon="120.091042">
				<speed>0.000000</speed>
				<ele>96.000000</ele>
				<time>2026-08-17T03:53:23Z</time>
			</trkpt>
			<trkpt lat="30.237606" lon="120.091061">
				<speed>0.000000</speed>
				<ele>96.000000</ele>
				<time>2026-08-17T03:53:24Z</time>
			</trkpt>
			<trkpt lat="30.237607" lon="120.091080">
				<speed>0.000000</speed>
				<ele>96.000000</ele>
				<time>2026-08-17T03:53:25Z</time>
			</trkpt>
			<trkpt lat="30.237608" lon="120.091099">
				<speed>0.000000</speed>
				<ele>96.000000</ele>
				<time>2026-08-17T03:53:26Z</time>
			</trkpt>
			<trkpt lat="30.237606" lon="120.091155">
				<speed>0.000000</speed>
				<ele>96.000000</ele>
				<time>2026-08-17T03:53:27Z</time>
			</trkpt>
			<trkpt lat="30.237605" lon="120.091173">
				<speed>0.000000</speed>
				<ele>96.000000</ele>
				<time>2026-08-17T03:53:28Z</time>
			</trkpt>
			<trkpt lat="30.237603" lon="120.091191">
				<speed>0.000000</speed>
				<ele>96.000000</ele>
				<time>2026-08-17T03:53:29Z</time>
			</trkpt>
			<trkpt lat="30.237602" lon="120.091210">
				<speed>0.000000</speed>
				<ele>95.000000</ele>
				<time>2026-08-17T03:53:30Z</time>
			</trkpt>
			<trkpt lat="30.237592" lon="120.091262">
				<speed>0.000000</speed>
				<ele>95.000000</ele>
				<time>2026-08-17T03:53:31Z</time>
			</trkpt>
			<trkpt lat="30.237586" lon="120.091279">
				<speed>0.000000</speed>
				<ele>95.000000</ele>
				<time>2026-08-17T03:53:32Z</time>
			</trkpt>
			<trkpt lat="30.237581" lon="120.091295">
				<speed>0.000000</speed>
				<ele>95.000000</ele>
				<time>2026-08-17T03:53:33Z</time>
			</trkpt>
			<trkpt lat="30.237575" lon="120.091311">
				<speed>0.000000</speed>
				<ele>94.000000</ele>
				<time>2026-08-17T03:53:34Z</time>
			</trkpt>
			<trkpt lat="30.237553" lon="120.091361">
				<speed>0.000000</speed>
				<ele>94.000000</ele>
				<time>2026-08-17T03:53:35Z</time>
			</trkpt>
			<trkpt lat="30.237545" lon="120.091378">
				<speed>0.000000</speed>
				<ele>94.000000</ele>
				<time>2026-08-17T03:53:36Z</time>
			</trkpt>
			<trkpt lat="30.237537" lon="120.091396">
				<speed>0.000000</speed>
				<ele>94.000000</ele>
				<time>2026-08-17T03:53:37Z</time>
			</trkpt>
			<trkpt lat="30.237529" lon="120.091413">
				<speed>0.000000</speed>
				<ele>93.000000</ele>
				<time>2026-08-17T03:53:38Z</time>
			</trkpt>
			<trkpt lat="30.237510" lon="120.091466">
				<speed>0.000000</speed>
				<ele>93.000000</ele>
				<time>2026-08-17T03:53:39Z</time>
			</trkpt>
			<trkpt lat="30.237506" lon="120.091482">
				<speed>0.000000</speed>
				<ele>93.000000</ele>
				<time>2026-08-17T03:53:40Z</time>
			</trkpt>
			<trkpt lat="30.237502" lon="120.091498">
				<speed>0.000000</speed>
				<ele>93.000000</ele>
				<time>2026-08-17T03:53:41Z</time>
			</trkpt>
			<trkpt lat="30.237498" lon="120.091514">
				<speed>0.000000</speed>
				<ele>92.000000</ele>
				<time>2026-08-17T03:53:42Z</time>
			</trkpt>
			<trkpt lat="30.237489" lon="120.091558">
				<speed>0.000000</speed>
				<ele>92.000000</ele>
				<time>2026-08-17T03:53:43Z</time>
			</trkpt>
			<trkpt lat="30.237484" lon="120.091573">
				<speed>0.000000</speed>
				<ele>92.000000</ele>
				<time>2026-08-17T03:53:44Z</time>
			</trkpt>
			<trkpt lat="30.237480" lon="120.091588">
				<speed>0.000000</speed>
				<ele>92.000000</ele>
				<time>2026-08-17T03:53:45Z</time>
			</trkpt>
			<trkpt lat="30.237476" lon="120.091603">
				<speed>0.000000</speed>
				<ele>91.000000</ele>
				<time>2026-08-17T03:53:46Z</time>
			</trkpt>
			<trkpt lat="30.237459" lon="120.091650">
				<speed>0.000000</speed>
				<ele>91.000000</ele>
				<time>2026-08-17T03:53:47Z</time>
			</trkpt>
			<trkpt lat="30.237454" lon="120.091667">
				<speed>0.000000</speed>
				<ele>91.000000</ele>
				<time>2026-08-17T03:53:48Z</time>
			</trkpt>
			<trkpt lat="30.237449" lon="120.091684">
				<speed>0.000000</speed>
				<ele>91.000000</ele>
				<time>2026-08-17T03:53:49Z</time>
			</trkpt>
			<trkpt lat="30.237444" lon="120.091701">
				<speed>0.000000</speed>
				<ele>90.000000</ele>
				<time>2026-08-17T03:53:50Z</time>
			</trkpt>
			<trkpt lat="30.237441" lon="120.091754">
				<speed>0.000000</speed>
				<ele>90.000000</ele>
				<time>2026-08-17T03:53:51Z</time>
			</trkpt>
			<trkpt lat="30.237445" lon="120.091769">
				<speed>0.000000</speed>
				<ele>90.000000</ele>
				<time>2026-08-17T03:53:52Z</time>
			</trkpt>
			<trkpt lat="30.237450" lon="120.091785">
				<speed>0.000000</speed>
				<ele>90.000000</ele>
				<time>2026-08-17T03:53:53Z</time>
			</trkpt>
			<trkpt lat="30.237455" lon="120.091800">
				<speed>0.000000</speed>
				<ele>90.000000</ele>
				<time>2026-08-17T03:53:54Z</time>
			</trkpt>
			<trkpt lat="30.237484" lon="120.091824">
				<speed>0.000000</speed>
				<ele>90.000000</ele>
				<time>2026-08-17T03:53:55Z</time>
			</trkpt>
			<trkpt lat="30.237496" lon="120.091826">
				<speed>0.000000</speed>
				<ele>90.000000</ele>
				<time>2026-08-17T03:53:56Z</time>
			</trkpt>
			<trkpt lat="30.237508" lon="120.091828">
				<speed>0.000000</speed>
				<ele>90.000000</ele>
				<time>2026-08-17T03:53:57Z</time>
			</trkpt>
			<trkpt lat="30.237521" lon="120.091830">
				<speed>0.000000</speed>
				<ele>89.000000</ele>
				<time>2026-08-17T03:53:58Z</time>
			</trkpt>
			<trkpt lat="30.237558" lon="120.091822">
				<speed>0.000000</speed>
				<ele>89.000000</ele>
				<time>2026-08-17T03:53:59Z</time>
			</trkpt>
			<trkpt lat="30.237569" lon="120.091821">
				<speed>0.000000</speed>
				<ele>89.000000</ele>
				<time>2026-08-17T03:54:00Z</time>
			</trkpt>
			<trkpt lat="30.237581" lon="120.091819">
				<speed>0.000000</speed>
				<ele>89.000000</ele>
				<time>2026-08-17T03:54:01Z</time>
			</trkpt>
			<trkpt lat="30.237593" lon="120.091817">
				<speed>0.000000</speed>
				<ele>88.000000</ele>
				<time>2026-08-17T03:54:02Z</time>
			</trkpt>
			<trkpt lat="30.237627" lon="120.091826">
				<speed>0.000000</speed>
				<ele>88.000000</ele>
				<time>2026-08-17T03:54:03Z</time>
			</trkpt>
			<trkpt lat="30.237639" lon="120.091832">
				<speed>0.000000</speed>
				<ele>88.000000</ele>
				<time>2026-08-17T03:54:04Z</time>
			</trkpt>
			<trkpt lat="30.237650" lon="120.091838">
				<speed>0.000000</speed>
				<ele>88.000000</ele>
				<time>2026-08-17T03:54:05Z</time>
			</trkpt>
			<trkpt lat="30.237662" lon="120.091845">
				<speed>0.000000</speed>
				<ele>88.000000</ele>
				<time>2026-08-17T03:54:06Z</time>
			</trkpt>
			<trkpt lat="30.237697" lon="120.091866">
				<speed>0.000000</speed>
				<ele>88.000000</ele>
				<time>2026-08-17T03:54:07Z</time>
			</trkpt>
			<trkpt lat="30.237708" lon="120.091873">
				<speed>0.000000</speed>
				<ele>88.000000</ele>
				<time>2026-08-17T03:54:08Z</time>
			</trkpt>
			<trkpt lat="30.237720" lon="120.091880">
				<speed>0.000000</speed>
				<ele>88.000000</ele>
				<time>2026-08-17T03:54:09Z</time>
			</trkpt>
			<trkpt lat="30.237732" lon="120.091886">
				<speed>0.000000</speed>
				<ele>88.000000</ele>
				<time>2026-08-17T03:54:10Z</time>
			</trkpt>
			<trkpt lat="30.237769" lon="120.091902">
				<speed>0.000000</speed>
				<ele>88.000000</ele>
				<time>2026-08-17T03:54:11Z</time>
			</trkpt>
			<trkpt lat="30.237781" lon="120.091907">
				<speed>0.000000</speed>
				<ele>88.000000</ele>
				<time>2026-08-17T03:54:12Z</time>
			</trkpt>
			<trkpt lat="30.237794" lon="120.091912">
				<speed>0.000000</speed>
				<ele>88.000000</ele>
				<time>2026-08-17T03:54:13Z</time>
			</trkpt>
			<trkpt lat="30.237807" lon="120.091916">
				<speed>0.000000</speed>
				<ele>88.000000</ele>
				<time>2026-08-17T03:54:14Z</time>
			</trkpt>
			<trkpt lat="30.237846" lon="120.091930">
				<speed>0.000000</speed>
				<ele>88.000000</ele>
				<time>2026-08-17T03:54:15Z</time>
			</trkpt>
			<trkpt lat="30.237858" lon="120.091934">
				<speed>0.000000</speed>
				<ele>88.000000</ele>
				<time>2026-08-17T03:54:16Z</time>
			</trkpt>
			<trkpt lat="30.237871" lon="120.091939">
				<speed>0.000000</speed>
				<ele>88.000000</ele>
				<time>2026-08-17T03:54:17Z</time>
			</trkpt>
			<trkpt lat="30.237884" lon="120.091943">
				<speed>0.000000</speed>
				<ele>88.000000</ele>
				<time>2026-08-17T03:54:18Z</time>
			</trkpt>
			<trkpt lat="30.237922" lon="120.091957">
				<speed>0.000000</speed>
				<ele>88.000000</ele>
				<time>2026-08-17T03:54:19Z</time>
			</trkpt>
			<trkpt lat="30.237934" lon="120.091962">
				<speed>0.000000</speed>
				<ele>88.000000</ele>
				<time>2026-08-17T03:54:20Z</time>
			</trkpt>
			<trkpt lat="30.237947" lon="120.091968">
				<speed>0.000000</speed>
				<ele>88.000000</ele>
				<time>2026-08-17T03:54:21Z</time>
			</trkpt>
			<trkpt lat="30.237959" lon="120.091973">
				<speed>0.000000</speed>
				<ele>88.000000</ele>
				<time>2026-08-17T03:54:22Z</time>
			</trkpt>
			<trkpt lat="30.237995" lon="120.091991">
				<speed>0.000000</speed>
				<ele>88.000000</ele>
				<time>2026-08-17T03:54:23Z</time>
			</trkpt>
			<trkpt lat="30.238007" lon="120.091998">
				<speed>0.000000</speed>
				<ele>88.000000</ele>
				<time>2026-08-17T03:54:24Z</time>
			</trkpt>
			<trkpt lat="30.238019" lon="120.092005">
				<speed>0.000000</speed>
				<ele>88.000000</ele>
				<time>2026-08-17T03:54:25Z</time>
			</trkpt>
			<trkpt lat="30.238032" lon="120.092011">
				<speed>0.000000</speed>
				<ele>88.000000</ele>
				<time>2026-08-17T03:54:26Z</time>
			</trkpt>
			<trkpt lat="30.238068" lon="120.092031">
				<speed>0.000000</speed>
				<ele>88.000000</ele>
				<time>2026-08-17T03:54:27Z</time>
			</trkpt>
			<trkpt lat="30.238081" lon="120.092038">
				<speed>0.000000</speed>
				<ele>88.000000</ele>
				<time>2026-08-17T03:54:28Z</time>
			</trkpt>
			<trkpt lat="30.238094" lon="120.092046">
				<speed>0.000000</speed>
				<ele>89.000000</ele>
				<time>2026-08-17T03:54:29Z</time>
			</trkpt>
			<trkpt lat="30.238107" lon="120.092053">
				<speed>0.000000</speed>
				<ele>89.000000</ele>
				<time>2026-08-17T03:54:30Z</time>
			</trkpt>
			<trkpt lat="30.238147" lon="120.092077">
				<speed>0.000000</speed>
				<ele>89.000000</ele>
				<time>2026-08-17T03:54:31Z</time>
			</trkpt>
			<trkpt lat="30.238159" lon="120.092086">
				<speed>0.000000</speed>
				<ele>89.000000</ele>
				<time>2026-08-17T03:54:32Z</time>
			</trkpt>
			<trkpt lat="30.238172" lon="120.092094">
				<speed>0.000000</speed>
				<ele>89.000000</ele>
				<time>2026-08-17T03:54:33Z</time>
			</trkpt>
			<trkpt lat="30.238184" lon="120.092103">
				<speed>0.000000</speed>
				<ele>89.000000</ele>
				<time>2026-08-17T03:54:34Z</time>
			</trkpt>
			<trkpt lat="30.238222" lon="120.092125">
				<speed>0.000000</speed>
				<ele>89.000000</ele>
				<time>2026-08-17T03:54:35Z</time>
			</trkpt>
			<trkpt lat="30.238234" lon="120.092131">
				<speed>0.000000</speed>
				<ele>89.000000</ele>
				<time>2026-08-17T03:54:36Z</time>
			</trkpt>
			<trkpt lat="30.238247" lon="120.092138">
				<speed>0.000000</speed>
				<ele>89.000000</ele>
				<time>2026-08-17T03:54:37Z</time>
			</trkpt>
			<trkpt lat="30.238260" lon="120.092144">
				<speed>0.000000</speed>
				<ele>89.000000</ele>
				<time>2026-08-17T03:54:38Z</time>
			</trkpt>
			<trkpt lat="30.238298" lon="120.092163">
				<speed>0.000000</speed>
				<ele>89.000000</ele>
				<time>2026-08-17T03:54:39Z</time>
			</trkpt>
			<trkpt lat="30.238310" lon="120.092168">
				<speed>0.000000</speed>
				<ele>89.000000</ele>
				<time>2026-08-17T03:54:40Z</time>
			</trkpt>
			<trkpt lat="30.238322" lon="120.092173">
				<speed>0.000000</speed>
				<ele>89.000000</ele>
				<time>2026-08-17T03:54:41Z</time>
			</trkpt>
			<trkpt lat="30.238334" lon="120.092179">
				<speed>0.000000</speed>
				<ele>89.000000</ele>
				<time>2026-08-17T03:54:42Z</time>
			</trkpt>
			<trkpt lat="30.238369" lon="120.092192">
				<speed>0.000000</speed>
				<ele>89.000000</ele>
				<time>2026-08-17T03:54:43Z</time>
			</trkpt>
			<trkpt lat="30.238381" lon="120.092196">
				<speed>0.000000</speed>
				<ele>89.000000</ele>
				<time>2026-08-17T03:54:44Z</time>
			</trkpt>
			<trkpt lat="30.238394" lon="120.092200">
				<speed>0.000000</speed>
				<ele>89.000000</ele>
				<time>2026-08-17T03:54:45Z</time>
			</trkpt>
			<trkpt lat="30.238406" lon="120.092204">
				<speed>0.000000</speed>
				<ele>88.000000</ele>
				<time>2026-08-17T03:54:46Z</time>
			</trkpt>
			<trkpt lat="30.238444" lon="120.092216">
				<speed>0.000000</speed>
				<ele>88.000000</ele>
				<time>2026-08-17T03:54:47Z</time>
			</trkpt>
			<trkpt lat="30.238458" lon="120.092220">
				<speed>0.000000</speed>
				<ele>88.000000</ele>
				<time>2026-08-17T03:54:48Z</time>
			</trkpt>
			<trkpt lat="30.238471" lon="120.092224">
				<speed>0.000000</speed>
				<ele>88.000000</ele>
				<time>2026-08-17T03:54:49Z</time>
			</trkpt>
			<trkpt lat="30.238485" lon="120.092227">
				<speed>0.000000</speed>
				<ele>88.000000</ele>
				<time>2026-08-17T03:54:50Z</time>
			</trkpt>
			<trkpt lat="30.238527" lon="120.092237">
				<speed>0.000000</speed>
				<ele>88.000000</ele>
				<time>2026-08-17T03:54:51Z</time>
			</trkpt>
			<trkpt lat="30.238541" lon="120.092239">
				<speed>0.000000</speed>
				<ele>88.000000</ele>
				<time>2026-08-17T03:54:52Z</time>
			</trkpt>
			<trkpt lat="30.238555" lon="120.092242">
				<speed>0.000000</speed>
				<ele>88.000000</ele>
				<time>2026-08-17T03:54:53Z</time>
			</trkpt>
			<trkpt lat="30.238569" lon="120.092244">
				<speed>0.000000</speed>
				<ele>88.000000</ele>
				<time>2026-08-17T03:54:54Z</time>
			</trkpt>
			<trkpt lat="30.238610" lon="120.092249">
				<speed>0.000000</speed>
				<ele>88.000000</ele>
				<time>2026-08-17T03:54:55Z</time>
			</trkpt>
			<trkpt lat="30.238624" lon="120.092250">
				<speed>0.000000</speed>
				<ele>88.000000</ele>
				<time>2026-08-17T03:54:56Z</time>
			</trkpt>
			<trkpt lat="30.238637" lon="120.092251">
				<speed>0.000000</speed>
				<ele>88.000000</ele>
				<time>2026-08-17T03:54:57Z</time>
			</trkpt>
			<trkpt lat="30.238650" lon="120.092251">
				<speed>0.000000</speed>
				<ele>88.000000</ele>
				<time>2026-08-17T03:54:58Z</time>
			</trkpt>
			<trkpt lat="30.238689" lon="120.092250">
				<speed>0.000000</speed>
				<ele>88.000000</ele>
				<time>2026-08-17T03:54:59Z</time>
			</trkpt>
			<trkpt lat="30.238702" lon="120.092248">
				<speed>0.000000</speed>
				<ele>88.000000</ele>
				<time>2026-08-17T03:55:00Z</time>
			</trkpt>
			<trkpt lat="30.238716" lon="120.092246">
				<speed>0.000000</speed>
				<ele>88.000000</ele>
				<time>2026-08-17T03:55:01Z</time>
			</trkpt>
			<trkpt lat="30.238729" lon="120.092244">
				<speed>0.000000</speed>
				<ele>88.000000</ele>
				<time>2026-08-17T03:55:02Z</time>
			</trkpt>
			<trkpt lat="30.238770" lon="120.092238">
				<speed>0.000000</speed>
				<ele>88.000000</ele>
				<time>2026-08-17T03:55:03Z</time>
			</trkpt>
			<trkpt lat="30.238784" lon="120.092236">
				<speed>0.000000</speed>
				<ele>88.000000</ele>
				<time>2026-08-17T03:55:04Z</time>
			</trkpt>
			<trkpt lat="30.238798" lon="120.092234">
				<speed>0.000000</speed>
				<ele>88.000000</ele>
				<time>2026-08-17T03:55:05Z</time>
			</trkpt>
			<trkpt lat="30.238812" lon="120.092232">
				<speed>0.000000</speed>
				<ele>88.000000</ele>
				<time>2026-08-17T03:55:06Z</time>
			</trkpt>
			<trkpt lat="30.238853" lon="120.092226">
				<speed>0.000000</speed>
				<ele>88.000000</ele>
				<time>2026-08-17T03:55:07Z</time>
			</trkpt>
			<trkpt lat="30.238866" lon="120.092223">
				<speed>0.000000</speed>
				<ele>88.000000</ele>
				<time>2026-08-17T03:55:08Z</time>
			</trkpt>
			<trkpt lat="30.238879" lon="120.092219">
				<speed>0.000000</speed>
				<ele>88.000000</ele>
				<time>2026-08-17T03:55:09Z</time>
			</trkpt>
			<trkpt lat="30.238892" lon="120.092216">
				<speed>0.000000</speed>
				<ele>88.000000</ele>
				<time>2026-08-17T03:55:10Z</time>
			</trkpt>
			<trkpt lat="30.238932" lon="120.092208">
				<speed>0.000000</speed>
				<ele>88.000000</ele>
				<time>2026-08-17T03:55:11Z</time>
			</trkpt>
			<trkpt lat="30.238945" lon="120.092206">
				<speed>0.000000</speed>
				<ele>88.000000</ele>
				<time>2026-08-17T03:55:12Z</time>
			</trkpt>
			<trkpt lat="30.238958" lon="120.092205">
				<speed>0.000000</speed>
				<ele>88.000000</ele>
				<time>2026-08-17T03:55:13Z</time>
			</trkpt>
			<trkpt lat="30.238972" lon="120.092203">
				<speed>0.000000</speed>
				<ele>88.000000</ele>
				<time>2026-08-17T03:55:14Z</time>
			</trkpt>
			<trkpt lat="30.239014" lon="120.092200">
				<speed>0.000000</speed>
				<ele>88.000000</ele>
				<time>2026-08-17T03:55:15Z</time>
			</trkpt>
			<trkpt lat="30.239028" lon="120.092200">
				<speed>0.000000</speed>
				<ele>88.000000</ele>
				<time>2026-08-17T03:55:16Z</time>
			</trkpt>
			<trkpt lat="30.239042" lon="120.092199">
				<speed>0.000000</speed>
				<ele>88.000000</ele>
				<time>2026-08-17T03:55:17Z</time>
			</trkpt>
			<trkpt lat="30.239057" lon="120.092198">
				<speed>0.000000</speed>
				<ele>88.000000</ele>
				<time>2026-08-17T03:55:18Z</time>
			</trkpt>
			<trkpt lat="30.239102" lon="120.092195">
				<speed>0.000000</speed>
				<ele>88.000000</ele>
				<time>2026-08-17T03:55:19Z</time>
			</trkpt>
			<trkpt lat="30.239116" lon="120.092194">
				<speed>0.000000</speed>
				<ele>88.000000</ele>
				<time>2026-08-17T03:55:20Z</time>
			</trkpt>
			<trkpt lat="30.239131" lon="120.092192">
				<speed>0.000000</speed>
				<ele>88.000000</ele>
				<time>2026-08-17T03:55:21Z</time>
			</trkpt>
			<trkpt lat="30.239145" lon="120.092191">
				<speed>0.000000</speed>
				<ele>88.000000</ele>
				<time>2026-08-17T03:55:22Z</time>
			</trkpt>
			<trkpt lat="30.239184" lon="120.092185">
				<speed>0.000000</speed>
				<ele>88.000000</ele>
				<time>2026-08-17T03:55:23Z</time>
			</trkpt>
			<trkpt lat="30.239196" lon="120.092183">
				<speed>0.000000</speed>
				<ele>88.000000</ele>
				<time>2026-08-17T03:55:24Z</time>
			</trkpt>
			<trkpt lat="30.239208" lon="120.092181">
				<speed>0.000000</speed>
				<ele>88.000000</ele>
				<time>2026-08-17T03:55:25Z</time>
			</trkpt>
			<trkpt lat="30.239219" lon="120.092178">
				<speed>0.000000</speed>
				<ele>88.000000</ele>
				<time>2026-08-17T03:55:26Z</time>
			</trkpt>
			<trkpt lat="30.239253" lon="120.092171">
				<speed>0.000000</speed>
				<ele>88.000000</ele>
				<time>2026-08-17T03:55:27Z</time>
			</trkpt>
			<trkpt lat="30.239265" lon="120.092170">
				<speed>0.000000</speed>
				<ele>88.000000</ele>
				<time>2026-08-17T03:55:28Z</time>
			</trkpt>
			<trkpt lat="30.239276" lon="120.092169">
				<speed>0.000000</speed>
				<ele>88.000000</ele>
				<time>2026-08-17T03:55:29Z</time>
			</trkpt>
			<trkpt lat="30.239288" lon="120.092168">
				<speed>0.000000</speed>
				<ele>88.000000</ele>
				<time>2026-08-17T03:55:30Z</time>
			</trkpt>
			<trkpt lat="30.239324" lon="120.092164">
				<speed>0.000000</speed>
				<ele>88.000000</ele>
				<time>2026-08-17T03:55:31Z</time>
			</trkpt>
			<trkpt lat="30.239336" lon="120.092163">
				<speed>0.000000</speed>
				<ele>88.000000</ele>
				<time>2026-08-17T03:55:32Z</time>
			</trkpt>
			<trkpt lat="30.239347" lon="120.092162">
				<speed>0.000000</speed>
				<ele>88.000000</ele>
				<time>2026-08-17T03:55:33Z</time>
			</trkpt>
			<trkpt lat="30.239359" lon="120.092161">
				<speed>0.000000</speed>
				<ele>88.000000</ele>
				<time>2026-08-17T03:55:34Z</time>
			</trkpt>
			<trkpt lat="30.239391" lon="120.092161">
				<speed>0.000000</speed>
				<ele>88.000000</ele>
				<time>2026-08-17T03:55:35Z</time>
			</trkpt>
			<trkpt lat="30.239401" lon="120.092162">
				<speed>0.000000</speed>
				<ele>88.000000</ele>
				<time>2026-08-17T03:55:36Z</time>
			</trkpt>
			<trkpt lat="30.239411" lon="120.092163">
				<speed>0.000000</speed>
				<ele>89.000000</ele>
				<time>2026-08-17T03:55:37Z</time>
			</trkpt>
			<trkpt lat="30.239422" lon="120.092164">
				<speed>0.000000</speed>
				<ele>89.000000</ele>
				<time>2026-08-17T03:55:38Z</time>
			</trkpt>
			<trkpt lat="30.239451" lon="120.092164">
				<speed>0.000000</speed>
				<ele>89.000000</ele>
				<time>2026-08-17T03:55:39Z</time>
			</trkpt>
			<trkpt lat="30.239460" lon="120.092162">
				<speed>0.000000</speed>
				<ele>89.000000</ele>
				<time>2026-08-17T03:55:40Z</time>
			</trkpt>
			<trkpt lat="30.239470" lon="120.092160">
				<speed>0.000000</speed>
				<ele>89.000000</ele>
				<time>2026-08-17T03:55:41Z</time>
			</trkpt>
			<trkpt lat="30.239479" lon="120.092159">
				<speed>0.000000</speed>
				<ele>89.000000</ele>
				<time>2026-08-17T03:55:42Z</time>
			</trkpt>
			<trkpt lat="30.239508" lon="120.092150">
				<speed>0.000000</speed>
				<ele>89.000000</ele>
				<time>2026-08-17T03:55:43Z</time>
			</trkpt>
			<trkpt lat="30.239518" lon="120.092147">
				<speed>0.000000</speed>
				<ele>89.000000</ele>
				<time>2026-08-17T03:55:44Z</time>
			</trkpt>
			<trkpt lat="30.239529" lon="120.092144">
				<speed>0.000000</speed>
				<ele>90.000000</ele>
				<time>2026-08-17T03:55:45Z</time>
			</trkpt>
			<trkpt lat="30.239539" lon="120.092141">
				<speed>0.000000</speed>
				<ele>90.000000</ele>
				<time>2026-08-17T03:55:46Z</time>
			</trkpt>
			<trkpt lat="30.239574" lon="120.092133">
				<speed>0.000000</speed>
				<ele>90.000000</ele>
				<time>2026-08-17T03:55:47Z</time>
			</trkpt>
			<trkpt lat="30.239587" lon="120.092131">
				<speed>0.000000</speed>
				<ele>90.000000</ele>
				<time>2026-08-17T03:55:48Z</time>
			</trkpt>
			<trkpt lat="30.239600" lon="120.092129">
				<speed>0.000000</speed>
				<ele>91.000000</ele>
				<time>2026-08-17T03:55:49Z</time>
			</trkpt>
			<trkpt lat="30.239613" lon="120.092127">
				<speed>0.000000</speed>
				<ele>91.000000</ele>
				<time>2026-08-17T03:55:50Z</time>
			</trkpt>
			<trkpt lat="30.239649" lon="120.092124">
				<speed>0.000000</speed>
				<ele>91.000000</ele>
				<time>2026-08-17T03:55:51Z</time>
			</trkpt>
			<trkpt lat="30.239660" lon="120.092123">
				<speed>0.000000</speed>
				<ele>91.000000</ele>
				<time>2026-08-17T03:55:52Z</time>
			</trkpt>
			<trkpt lat="30.239671" lon="120.092122">
				<speed>0.000000</speed>
				<ele>92.000000</ele>
				<time>2026-08-17T03:55:53Z</time>
			</trkpt>
			<trkpt lat="30.239682" lon="120.092122">
				<speed>0.000000</speed>
				<ele>92.000000</ele>
				<time>2026-08-17T03:55:54Z</time>
			</trkpt>
			<trkpt lat="30.239714" lon="120.092118">
				<speed>0.000000</speed>
				<ele>92.000000</ele>
				<time>2026-08-17T03:55:55Z</time>
			</trkpt>
			<trkpt lat="30.239726" lon="120.092116">
				<speed>0.000000</speed>
				<ele>92.000000</ele>
				<time>2026-08-17T03:55:56Z</time>
			</trkpt>
			<trkpt lat="30.239737" lon="120.092114">
				<speed>0.000000</speed>
				<ele>92.000000</ele>
				<time>2026-08-17T03:55:57Z</time>
			</trkpt>
			<trkpt lat="30.239749" lon="120.092112">
				<speed>0.000000</speed>
				<ele>92.000000</ele>
				<time>2026-08-17T03:55:58Z</time>
			</trkpt>
			<trkpt lat="30.239787" lon="120.092103">
				<speed>0.000000</speed>
				<ele>92.000000</ele>
				<time>2026-08-17T03:55:59Z</time>
			</trkpt>
			<trkpt lat="30.239800" lon="120.092101">
				<speed>0.000000</speed>
				<ele>92.000000</ele>
				<time>2026-08-17T03:56:00Z</time>
			</trkpt>
			<trkpt lat="30.239814" lon="120.092099">
				<speed>0.000000</speed>
				<ele>93.000000</ele>
				<time>2026-08-17T03:56:01Z</time>
			</trkpt>
			<trkpt lat="30.239827" lon="120.092097">
				<speed>0.000000</speed>
				<ele>93.000000</ele>
				<time>2026-08-17T03:56:02Z</time>
			</trkpt>
			<trkpt lat="30.239867" lon="120.092100">
				<speed>0.000000</speed>
				<ele>93.000000</ele>
				<time>2026-08-17T03:56:03Z</time>
			</trkpt>
			<trkpt lat="30.239880" lon="120.092105">
				<speed>0.000000</speed>
				<ele>93.000000</ele>
				<time>2026-08-17T03:56:04Z</time>
			</trkpt>
			<trkpt lat="30.239893" lon="120.092109">
				<speed>0.000000</speed>
				<ele>94.000000</ele>
				<time>2026-08-17T03:56:05Z</time>
			</trkpt>
			<trkpt lat="30.239906" lon="120.092114">
				<speed>0.000000</speed>
				<ele>94.000000</ele>
				<time>2026-08-17T03:56:06Z</time>
			</trkpt>
			<trkpt lat="30.239943" lon="120.092137">
				<speed>0.000000</speed>
				<ele>94.000000</ele>
				<time>2026-08-17T03:56:07Z</time>
			</trkpt>
			<trkpt lat="30.239956" lon="120.092148">
				<speed>0.000000</speed>
				<ele>94.000000</ele>
				<time>2026-08-17T03:56:08Z</time>
			</trkpt>
			<trkpt lat="30.239970" lon="120.092158">
				<speed>0.000000</speed>
				<ele>94.000000</ele>
				<time>2026-08-17T03:56:09Z</time>
			</trkpt>
			<trkpt lat="30.239983" lon="120.092168">
				<speed>0.000000</speed>
				<ele>94.000000</ele>
				<time>2026-08-17T03:56:10Z</time>
			</trkpt>
			<trkpt lat="30.240022" lon="120.092206">
				<speed>0.000000</speed>
				<ele>94.000000</ele>
				<time>2026-08-17T03:56:11Z</time>
			</trkpt>
			<trkpt lat="30.240035" lon="120.092218">
				<speed>0.000000</speed>
				<ele>94.000000</ele>
				<time>2026-08-17T03:56:12Z</time>
			</trkpt>
			<trkpt lat="30.240048" lon="120.092229">
				<speed>0.000000</speed>
				<ele>94.000000</ele>
				<time>2026-08-17T03:56:13Z</time>
			</trkpt>
			<trkpt lat="30.240061" lon="120.092241">
				<speed>0.000000</speed>
				<ele>94.000000</ele>
				<time>2026-08-17T03:56:14Z</time>
			</trkpt>
			<trkpt lat="30.240099" lon="120.092274">
				<speed>0.000000</speed>
				<ele>94.000000</ele>
				<time>2026-08-17T03:56:15Z</time>
			</trkpt>
			<trkpt lat="30.240112" lon="120.092285">
				<speed>0.000000</speed>
				<ele>94.000000</ele>
				<time>2026-08-17T03:56:16Z</time>
			</trkpt>
			<trkpt lat="30.240124" lon="120.092296">
				<speed>0.000000</speed>
				<ele>94.000000</ele>
				<time>2026-08-17T03:56:17Z</time>
			</trkpt>
			<trkpt lat="30.240137" lon="120.092306">
				<speed>0.000000</speed>
				<ele>94.000000</ele>
				<time>2026-08-17T03:56:18Z</time>
			</trkpt>
			<trkpt lat="30.240174" lon="120.092337">
				<speed>0.000000</speed>
				<ele>94.000000</ele>
				<time>2026-08-17T03:56:19Z</time>
			</trkpt>
			<trkpt lat="30.240186" lon="120.092349">
				<speed>0.000000</speed>
				<ele>94.000000</ele>
				<time>2026-08-17T03:56:20Z</time>
			</trkpt>
			<trkpt lat="30.240198" lon="120.092361">
				<speed>0.000000</speed>
				<ele>94.000000</ele>
				<time>2026-08-17T03:56:21Z</time>
			</trkpt>
			<trkpt lat="30.240210" lon="120.092373">
				<speed>0.000000</speed>
				<ele>94.000000</ele>
				<time>2026-08-17T03:56:22Z</time>
			</trkpt>
			<trkpt lat="30.240247" lon="120.092418">
				<speed>0.000000</speed>
				<ele>94.000000</ele>
				<time>2026-08-17T03:56:23Z</time>
			</trkpt>
			<trkpt lat="30.240259" lon="120.092431">
				<speed>0.000000</speed>
				<ele>94.000000</ele>
				<time>2026-08-17T03:56:24Z</time>
			</trkpt>
			<trkpt lat="30.240272" lon="120.092444">
				<speed>0.000000</speed>
				<ele>94.000000</ele>
				<time>2026-08-17T03:56:25Z</time>
			</trkpt>
			<trkpt lat="30.240284" lon="120.092457">
				<speed>0.000000</speed>
				<ele>93.000000</ele>
				<time>2026-08-17T03:56:26Z</time>
			</trkpt>
			<trkpt lat="30.240322" lon="120.092472">
				<speed>0.000000</speed>
				<ele>93.000000</ele>
				<time>2026-08-17T03:56:27Z</time>
			</trkpt>
			<trkpt lat="30.240334" lon="120.092469">
				<speed>0.000000</speed>
				<ele>93.000000</ele>
				<time>2026-08-17T03:56:28Z</time>
			</trkpt>
			<trkpt lat="30.240345" lon="120.092465">
				<speed>0.000000</speed>
				<ele>93.000000</ele>
				<time>2026-08-17T03:56:29Z</time>
			</trkpt>
			<trkpt lat="30.240356" lon="120.092462">
				<speed>0.000000</speed>
				<ele>93.000000</ele>
				<time>2026-08-17T03:56:30Z</time>
			</trkpt>
			<trkpt lat="30.240383" lon="120.092436">
				<speed>0.000000</speed>
				<ele>93.000000</ele>
				<time>2026-08-17T03:56:31Z</time>
			</trkpt>
			<trkpt lat="30.240389" lon="120.092425">
				<speed>0.000000</speed>
				<ele>93.000000</ele>
				<time>2026-08-17T03:56:32Z</time>
			</trkpt>
			<trkpt lat="30.240394" lon="120.092415">
				<speed>0.000000</speed>
				<ele>93.000000</ele>
				<time>2026-08-17T03:56:33Z</time>
			</trkpt>
			<trkpt lat="30.240400" lon="120.092405">
				<speed>0.000000</speed>
				<ele>93.000000</ele>
				<time>2026-08-17T03:56:34Z</time>
			</trkpt>
			<trkpt lat="30.240412" lon="120.092378">
				<speed>0.000000</speed>
				<ele>93.000000</ele>
				<time>2026-08-17T03:56:35Z</time>
			</trkpt>
			<trkpt lat="30.240414" lon="120.092370">
				<speed>0.000000</speed>
				<ele>93.000000</ele>
				<time>2026-08-17T03:56:36Z</time>
			</trkpt>
			<trkpt lat="30.240417" lon="120.092362">
				<speed>0.000000</speed>
				<ele>93.000000</ele>
				<time>2026-08-17T03:56:37Z</time>
			</trkpt>
			<trkpt lat="30.240419" lon="120.092355">
				<speed>0.000000</speed>
				<ele>93.000000</ele>
				<time>2026-08-17T03:56:38Z</time>
			</trkpt>
			<trkpt lat="30.240427" lon="120.092335">
				<speed>0.000000</speed>
				<ele>93.000000</ele>
				<time>2026-08-17T03:56:39Z</time>
			</trkpt>
			<trkpt lat="30.240429" lon="120.092327">
				<speed>0.000000</speed>
				<ele>93.000000</ele>
				<time>2026-08-17T03:56:40Z</time>
			</trkpt>
			<trkpt lat="30.240432" lon="120.092320">
				<speed>0.000000</speed>
				<ele>93.000000</ele>
				<time>2026-08-17T03:56:41Z</time>
			</trkpt>
			<trkpt lat="30.240434" lon="120.092313">
				<speed>0.000000</speed>
				<ele>93.000000</ele>
				<time>2026-08-17T03:56:42Z</time>
			</trkpt>
			<trkpt lat="30.240440" lon="120.092293">
				<speed>0.000000</speed>
				<ele>93.000000</ele>
				<time>2026-08-17T03:56:43Z</time>
			</trkpt>
			<trkpt lat="30.240442" lon="120.092286">
				<speed>0.000000</speed>
				<ele>93.000000</ele>
				<time>2026-08-17T03:56:44Z</time>
			</trkpt>
			<trkpt lat="30.240444" lon="120.092279">
				<speed>0.000000</speed>
				<ele>93.000000</ele>
				<time>2026-08-17T03:56:45Z</time>
			</trkpt>
			<trkpt lat="30.240445" lon="120.092272">
				<speed>0.000000</speed>
				<ele>93.000000</ele>
				<time>2026-08-17T03:56:46Z</time>
			</trkpt>
			<trkpt lat="30.240450" lon="120.092252">
				<speed>0.000000</speed>
				<ele>93.000000</ele>
				<time>2026-08-17T03:56:47Z</time>
			</trkpt>
			<trkpt lat="30.240450" lon="120.092245">
				<speed>0.000000</speed>
				<ele>93.000000</ele>
				<time>2026-08-17T03:56:48Z</time>
			</trkpt>
			<trkpt lat="30.240451" lon="120.092239">
				<speed>0.000000</speed>
				<ele>93.000000</ele>
				<time>2026-08-17T03:56:49Z</time>
			</trkpt>
			<trkpt lat="30.240452" lon="120.092232">
				<speed>0.000000</speed>
				<ele>93.000000</ele>
				<time>2026-08-17T03:56:50Z</time>
			</trkpt>
			<trkpt lat="30.240454" lon="120.092210">
				<speed>0.000000</speed>
				<ele>93.000000</ele>
				<time>2026-08-17T03:56:51Z</time>
			</trkpt>
			<trkpt lat="30.240454" lon="120.092202">
				<speed>0.000000</speed>
				<ele>93.000000</ele>
				<time>2026-08-17T03:56:52Z</time>
			</trkpt>
			<trkpt lat="30.240455" lon="120.092195">
				<speed>0.000000</speed>
				<ele>93.000000</ele>
				<time>2026-08-17T03:56:53Z</time>
			</trkpt>
			<trkpt lat="30.240455" lon="120.092187">
				<speed>0.000000</speed>
				<ele>93.000000</ele>
				<time>2026-08-17T03:56:54Z</time>
			</trkpt>
			<trkpt lat="30.240457" lon="120.092164">
				<speed>0.000000</speed>
				<ele>93.000000</ele>
				<time>2026-08-17T03:56:55Z</time>
			</trkpt>
			<trkpt lat="30.240457" lon="120.092156">
				<speed>0.000000</speed>
				<ele>93.000000</ele>
				<time>2026-08-17T03:56:56Z</time>
			</trkpt>
			<trkpt lat="30.240458" lon="120.092148">
				<speed>0.000000</speed>
				<ele>94.000000</ele>
				<time>2026-08-17T03:56:57Z</time>
			</trkpt>
			<trkpt lat="30.240458" lon="120.092140">
				<speed>0.000000</speed>
				<ele>94.000000</ele>
				<time>2026-08-17T03:56:58Z</time>
			</trkpt>
			<trkpt lat="30.240459" lon="120.092116">
				<speed>0.000000</speed>
				<ele>94.000000</ele>
				<time>2026-08-17T03:56:59Z</time>
			</trkpt>
			<trkpt lat="30.240459" lon="120.092109">
				<speed>0.000000</speed>
				<ele>94.000000</ele>
				<time>2026-08-17T03:57:00Z</time>
			</trkpt>
			<trkpt lat="30.240459" lon="120.092101">
				<speed>0.000000</speed>
				<ele>95.000000</ele>
				<time>2026-08-17T03:57:01Z</time>
			</trkpt>
			<trkpt lat="30.240459" lon="120.092094">
				<speed>0.000000</speed>
				<ele>95.000000</ele>
				<time>2026-08-17T03:57:02Z</time>
			</trkpt>
			<trkpt lat="30.240460" lon="120.092072">
				<speed>0.000000</speed>
				<ele>95.000000</ele>
				<time>2026-08-17T03:57:03Z</time>
			</trkpt>
			<trkpt lat="30.240461" lon="120.092064">
				<speed>0.000000</speed>
				<ele>95.000000</ele>
				<time>2026-08-17T03:57:04Z</time>
			</trkpt>
			<trkpt lat="30.240461" lon="120.092057">
				<speed>0.000000</speed>
				<ele>95.000000</ele>
				<time>2026-08-17T03:57:05Z</time>
			</trkpt>
			<trkpt lat="30.240462" lon="120.092050">
				<speed>0.000000</speed>
				<ele>95.000000</ele>
				<time>2026-08-17T03:57:06Z</time>
			</trkpt>
			<trkpt lat="30.240462" lon="120.092028">
				<speed>0.000000</speed>
				<ele>95.000000</ele>
				<time>2026-08-17T03:57:07Z</time>
			</trkpt>
			<trkpt lat="30.240463" lon="120.092021">
				<speed>0.000000</speed>
				<ele>95.000000</ele>
				<time>2026-08-17T03:57:08Z</time>
			</trkpt>
			<trkpt lat="30.240463" lon="120.092013">
				<speed>0.000000</speed>
				<ele>96.000000</ele>
				<time>2026-08-17T03:57:09Z</time>
			</trkpt>
			<trkpt lat="30.240463" lon="120.092006">
				<speed>0.000000</speed>
				<ele>96.000000</ele>
				<time>2026-08-17T03:57:10Z</time>
			</trkpt>
			<trkpt lat="30.240463" lon="120.091982">
				<speed>0.000000</speed>
				<ele>96.000000</ele>
				<time>2026-08-17T03:57:11Z</time>
			</trkpt>
			<trkpt lat="30.240462" lon="120.091975">
				<speed>0.000000</speed>
				<ele>96.000000</ele>
				<time>2026-08-17T03:57:12Z</time>
			</trkpt>
			<trkpt lat="30.240462" lon="120.091967">
				<speed>0.000000</speed>
				<ele>96.000000</ele>
				<time>2026-08-17T03:57:13Z</time>
			</trkpt>
			<trkpt lat="30.240461" lon="120.091959">
				<speed>0.000000</speed>
				<ele>96.000000</ele>
				<time>2026-08-17T03:57:14Z</time>
			</trkpt>
			<trkpt lat="30.240458" lon="120.091937">
				<speed>0.000000</speed>
				<ele>96.000000</ele>
				<time>2026-08-17T03:57:15Z</time>
			</trkpt>
			<trkpt lat="30.240457" lon="120.091930">
				<speed>0.000000</speed>
				<ele>96.000000</ele>
				<time>2026-08-17T03:57:16Z</time>
			</trkpt>
			<trkpt lat="30.240456" lon="120.091923">
				<speed>0.000000</speed>
				<ele>97.000000</ele>
				<time>2026-08-17T03:57:17Z</time>
			</trkpt>
			<trkpt lat="30.240455" lon="120.091917">
				<speed>0.000000</speed>
				<ele>97.000000</ele>
				<time>2026-08-17T03:57:18Z</time>
			</trkpt>
			<trkpt lat="30.240455" lon="120.091896">
				<speed>0.000000</speed>
				<ele>97.000000</ele>
				<time>2026-08-17T03:57:19Z</time>
			</trkpt>
			<trkpt lat="30.240455" lon="120.091889">
				<speed>0.000000</speed>
				<ele>97.000000</ele>
				<time>2026-08-17T03:57:20Z</time>
			</trkpt>
			<trkpt lat="30.240456" lon="120.091881">
				<speed>0.000000</speed>
				<ele>98.000000</ele>
				<time>2026-08-17T03:57:21Z</time>
			</trkpt>
			<trkpt lat="30.240457" lon="120.091875">
				<speed>0.000000</speed>
				<ele>98.000000</ele>
				<time>2026-08-17T03:57:22Z</time>
			</trkpt>
			<trkpt lat="30.240459" lon="120.091852">
				<speed>0.000000</speed>
				<ele>98.000000</ele>
				<time>2026-08-17T03:57:23Z</time>
			</trkpt>
			<trkpt lat="30.240459" lon="120.091844">
				<speed>0.000000</speed>
				<ele>98.000000</ele>
				<time>2026-08-17T03:57:24Z</time>
			</trkpt>
			<trkpt lat="30.240460" lon="120.091836">
				<speed>0.000000</speed>
				<ele>98.000000</ele>
				<time>2026-08-17T03:57:25Z</time>
			</trkpt>
			<trkpt lat="30.240460" lon="120.091828">
				<speed>0.000000</speed>
				<ele>98.000000</ele>
				<time>2026-08-17T03:57:26Z</time>
			</trkpt>
			<trkpt lat="30.240461" lon="120.091806">
				<speed>0.000000</speed>
				<ele>98.000000</ele>
				<time>2026-08-17T03:57:27Z</time>
			</trkpt>
			<trkpt lat="30.240461" lon="120.091798">
				<speed>0.000000</speed>
				<ele>98.000000</ele>
				<time>2026-08-17T03:57:28Z</time>
			</trkpt>
			<trkpt lat="30.240461" lon="120.091791">
				<speed>0.000000</speed>
				<ele>99.000000</ele>
				<time>2026-08-17T03:57:29Z</time>
			</trkpt>
			<trkpt lat="30.240461" lon="120.091784">
				<speed>0.000000</speed>
				<ele>99.000000</ele>
				<time>2026-08-17T03:57:30Z</time>
			</trkpt>
			<trkpt lat="30.240460" lon="120.091762">
				<speed>0.000000</speed>
				<ele>99.000000</ele>
				<time>2026-08-17T03:57:31Z</time>
			</trkpt>
			<trkpt lat="30.240459" lon="120.091753">
				<speed>0.000000</speed>
				<ele>99.000000</ele>
				<time>2026-08-17T03:57:32Z</time>
			</trkpt>
			<trkpt lat="30.240459" lon="120.091745">
				<speed>0.000000</speed>
				<ele>100.000000</ele>
				<time>2026-08-17T03:57:33Z</time>
			</trkpt>
			<trkpt lat="30.240458" lon="120.091737">
				<speed>0.000000</speed>
				<ele>100.000000</ele>
				<time>2026-08-17T03:57:34Z</time>
			</trkpt>
			<trkpt lat="30.240455" lon="120.091710">
				<speed>0.000000</speed>
				<ele>100.000000</ele>
				<time>2026-08-17T03:57:35Z</time>
			</trkpt>
			<trkpt lat="30.240455" lon="120.091700">
				<speed>0.000000</speed>
				<ele>100.000000</ele>
				<time>2026-08-17T03:57:36Z</time>
			</trkpt>
			<trkpt lat="30.240454" lon="120.091691">
				<speed>0.000000</speed>
				<ele>100.000000</ele>
				<time>2026-08-17T03:57:37Z</time>
			</trkpt>
			<trkpt lat="30.240453" lon="120.091682">
				<speed>0.000000</speed>
				<ele>100.000000</ele>
				<time>2026-08-17T03:57:38Z</time>
			</trkpt>
			<trkpt lat="30.240451" lon="120.091656">
				<speed>0.000000</speed>
				<ele>100.000000</ele>
				<time>2026-08-17T03:57:39Z</time>
			</trkpt>
			<trkpt lat="30.240451" lon="120.091648">
				<speed>0.000000</speed>
				<ele>100.000000</ele>
				<time>2026-08-17T03:57:40Z</time>
			</trkpt>
			<trkpt lat="30.240450" lon="120.091640">
				<speed>0.000000</speed>
				<ele>101.000000</ele>
				<time>2026-08-17T03:57:41Z</time>
			</trkpt>
			<trkpt lat="30.240449" lon="120.091632">
				<speed>0.000000</speed>
				<ele>101.000000</ele>
				<time>2026-08-17T03:57:42Z</time>
			</trkpt>
			<trkpt lat="30.240446" lon="120.091609">
				<speed>0.000000</speed>
				<ele>101.000000</ele>
				<time>2026-08-17T03:57:43Z</time>
			</trkpt>
			<trkpt lat="30.240444" lon="120.091601">
				<speed>0.000000</speed>
				<ele>101.000000</ele>
				<time>2026-08-17T03:57:44Z</time>
			</trkpt>
			<trkpt lat="30.240443" lon="120.091594">
				<speed>0.000000</speed>
				<ele>102.000000</ele>
				<time>2026-08-17T03:57:45Z</time>
			</trkpt>
			<trkpt lat="30.240441" lon="120.091586">
				<speed>0.000000</speed>
				<ele>102.000000</ele>
				<time>2026-08-17T03:57:46Z</time>
			</trkpt>
			<trkpt lat="30.240436" lon="120.091563">
				<speed>0.000000</speed>
				<ele>102.000000</ele>
				<time>2026-08-17T03:57:47Z</time>
			</trkpt>
			<trkpt lat="30.240434" lon="120.091556">
				<speed>0.000000</speed>
				<ele>102.000000</ele>
				<time>2026-08-17T03:57:48Z</time>
			</trkpt>
			<trkpt lat="30.240432" lon="120.091548">
				<speed>0.000000</speed>
				<ele>102.000000</ele>
				<time>2026-08-17T03:57:49Z</time>
			</trkpt>
			<trkpt lat="30.240430" lon="120.091541">
				<speed>0.000000</speed>
				<ele>102.000000</ele>
				<time>2026-08-17T03:57:50Z</time>
			</trkpt>
			<trkpt lat="30.240422" lon="120.091519">
				<speed>0.000000</speed>
				<ele>102.000000</ele>
				<time>2026-08-17T03:57:51Z</time>
			</trkpt>
			<trkpt lat="30.240419" lon="120.091511">
				<speed>0.000000</speed>
				<ele>102.000000</ele>
				<time>2026-08-17T03:57:52Z</time>
			</trkpt>
			<trkpt lat="30.240417" lon="120.091504">
				<speed>0.000000</speed>
				<ele>103.000000</ele>
				<time>2026-08-17T03:57:53Z</time>
			</trkpt>
			<trkpt lat="30.240415" lon="120.091497">
				<speed>0.000000</speed>
				<ele>103.000000</ele>
				<time>2026-08-17T03:57:54Z</time>
			</trkpt>
			<trkpt lat="30.240409" lon="120.091476">
				<speed>0.000000</speed>
				<ele>103.000000</ele>
				<time>2026-08-17T03:57:55Z</time>
			</trkpt>
			<trkpt lat="30.240408" lon="120.091469">
				<speed>0.000000</speed>
				<ele>103.000000</ele>
				<time>2026-08-17T03:57:56Z</time>
			</trkpt>
			<trkpt lat="30.240407" lon="120.091462">
				<speed>0.000000</speed>
				<ele>103.000000</ele>
				<time>2026-08-17T03:57:57Z</time>
			</trkpt>
			<trkpt lat="30.240405" lon="120.091455">
				<speed>0.000000</speed>
				<ele>103.000000</ele>
				<time>2026-08-17T03:57:58Z</time>
			</trkpt>
			<trkpt lat="30.240403" lon="120.091433">
				<speed>0.000000</speed>
				<ele>103.000000</ele>
				<time>2026-08-17T03:57:59Z</time>
			</trkpt>
			<trkpt lat="30.240403" lon="120.091426">
				<speed>0.000000</speed>
				<ele>103.000000</ele>
				<time>2026-08-17T03:58:00Z</time>
			</trkpt>
			<trkpt lat="30.240402" lon="120.091419">
				<speed>0.000000</speed>
				<ele>104.000000</ele>
				<time>2026-08-17T03:58:01Z</time>
			</trkpt>
			<trkpt lat="30.240401" lon="120.091411">
				<speed>0.000000</speed>
				<ele>104.000000</ele>
				<time>2026-08-17T03:58:02Z</time>
			</trkpt>
			<trkpt lat="30.240397" lon="120.091390">
				<speed>0.000000</speed>
				<ele>104.000000</ele>
				<time>2026-08-17T03:58:03Z</time>
			</trkpt>
			<trkpt lat="30.240395" lon="120.091384">
				<speed>0.000000</speed>
				<ele>104.000000</ele>
				<time>2026-08-17T03:58:04Z</time>
			</trkpt>
			<trkpt lat="30.240393" lon="120.091377">
				<speed>0.000000</speed>
				<ele>105.000000</ele>
				<time>2026-08-17T03:58:05Z</time>
			</trkpt>
			<trkpt lat="30.240391" lon="120.091371">
				<speed>0.000000</speed>
				<ele>105.000000</ele>
				<time>2026-08-17T03:58:06Z</time>
			</trkpt>
			<trkpt lat="30.240381" lon="120.091353">
				<speed>0.000000</speed>
				<ele>105.000000</ele>
				<time>2026-08-17T03:58:07Z</time>
			</trkpt>
			<trkpt lat="30.240377" lon="120.091346">
				<speed>0.000000</speed>
				<ele>105.000000</ele>
				<time>2026-08-17T03:58:08Z</time>
			</trkpt>
			<trkpt lat="30.240374" lon="120.091340">
				<speed>0.000000</speed>
				<ele>105.000000</ele>
				<time>2026-08-17T03:58:09Z</time>
			</trkpt>
			<trkpt lat="30.240370" lon="120.091333">
				<speed>0.000000</speed>
				<ele>105.000000</ele>
				<time>2026-08-17T03:58:10Z</time>
			</trkpt>
			<trkpt lat="30.240360" lon="120.091314">
				<speed>0.000000</speed>
				<ele>105.000000</ele>
				<time>2026-08-17T03:58:11Z</time>
			</trkpt>
			<trkpt lat="30.240357" lon="120.091307">
				<speed>0.000000</speed>
				<ele>105.000000</ele>
				<time>2026-08-17T03:58:12Z</time>
			</trkpt>
			<trkpt lat="30.240355" lon="120.091301">
				<speed>0.000000</speed>
				<ele>106.000000</ele>
				<time>2026-08-17T03:58:13Z</time>
			</trkpt>
			<trkpt lat="30.240352" lon="120.091294">
				<speed>0.000000</speed>
				<ele>106.000000</ele>
				<time>2026-08-17T03:58:14Z</time>
			</trkpt>
			<trkpt lat="30.240345" lon="120.091276">
				<speed>0.000000</speed>
				<ele>106.000000</ele>
				<time>2026-08-17T03:58:15Z</time>
			</trkpt>
			<trkpt lat="30.240343" lon="120.091270">
				<speed>0.000000</speed>
				<ele>106.000000</ele>
				<time>2026-08-17T03:58:16Z</time>
			</trkpt>
			<trkpt lat="30.240341" lon="120.091264">
				<speed>0.000000</speed>
				<ele>106.000000</ele>
				<time>2026-08-17T03:58:17Z</time>
			</trkpt>
			<trkpt lat="30.240339" lon="120.091259">
				<speed>0.000000</speed>
				<ele>106.000000</ele>
				<time>2026-08-17T03:58:18Z</time>
			</trkpt>
			<trkpt lat="30.240332" lon="120.091242">
				<speed>0.000000</speed>
				<ele>106.000000</ele>
				<time>2026-08-17T03:58:19Z</time>
			</trkpt>
			<trkpt lat="30.240329" lon="120.091236">
				<speed>0.000000</speed>
				<ele>106.000000</ele>
				<time>2026-08-17T03:58:20Z</time>
			</trkpt>
			<trkpt lat="30.240326" lon="120.091231">
				<speed>0.000000</speed>
				<ele>107.000000</ele>
				<time>2026-08-17T03:58:21Z</time>
			</trkpt>
			<trkpt lat="30.240324" lon="120.091225">
				<speed>0.000000</speed>
				<ele>107.000000</ele>
				<time>2026-08-17T03:58:22Z</time>
			</trkpt>
			<trkpt lat="30.240315" lon="120.091208">
				<speed>0.000000</speed>
				<ele>107.000000</ele>
				<time>2026-08-17T03:58:23Z</time>
			</trkpt>
			<trkpt lat="30.240312" lon="120.091203">
				<speed>0.000000</speed>
				<ele>107.000000</ele>
				<time>2026-08-17T03:58:24Z</time>
			</trkpt>
			<trkpt lat="30.240309" lon="120.091197">
				<speed>0.000000</speed>
				<ele>107.000000</ele>
				<time>2026-08-17T03:58:25Z</time>
			</trkpt>
			<trkpt lat="30.240306" lon="120.091192">
				<speed>0.000000</speed>
				<ele>107.000000</ele>
				<time>2026-08-17T03:58:26Z</time>
			</trkpt>
			<trkpt lat="30.240299" lon="120.091175">
				<speed>0.000000</speed>
				<ele>107.000000</ele>
				<time>2026-08-17T03:58:27Z</time>
			</trkpt>
			<trkpt lat="30.240298" lon="120.091168">
				<speed>0.000000</speed>
				<ele>107.000000</ele>
				<time>2026-08-17T03:58:28Z</time>
			</trkpt>
			<trkpt lat="30.240297" lon="120.091161">
				<speed>0.000000</speed>
				<ele>108.000000</ele>
				<time>2026-08-17T03:58:29Z</time>
			</trkpt>
			<trkpt lat="30.240295" lon="120.091155">
				<speed>0.000000</speed>
				<ele>108.000000</ele>
				<time>2026-08-17T03:58:30Z</time>
			</trkpt>
			<trkpt lat="30.240291" lon="120.091135">
				<speed>0.000000</speed>
				<ele>108.000000</ele>
				<time>2026-08-17T03:58:31Z</time>
			</trkpt>
			<trkpt lat="30.240289" lon="120.091128">
				<speed>0.000000</speed>
				<ele>108.000000</ele>
				<time>2026-08-17T03:58:32Z</time>
			</trkpt>
			<trkpt lat="30.240288" lon="120.091121">
				<speed>0.000000</speed>
				<ele>109.000000</ele>
				<time>2026-08-17T03:58:33Z</time>
			</trkpt>
			<trkpt lat="30.240286" lon="120.091114">
				<speed>0.000000</speed>
				<ele>109.000000</ele>
				<time>2026-08-17T03:58:34Z</time>
			</trkpt>
			<trkpt lat="30.240280" lon="120.091090">
				<speed>0.000000</speed>
				<ele>109.000000</ele>
				<time>2026-08-17T03:58:35Z</time>
			</trkpt>
			<trkpt lat="30.240277" lon="120.091082">
				<speed>0.000000</speed>
				<ele>109.000000</ele>
				<time>2026-08-17T03:58:36Z</time>
			</trkpt>
			<trkpt lat="30.240274" lon="120.091073">
				<speed>0.000000</speed>
				<ele>109.000000</ele>
				<time>2026-08-17T03:58:37Z</time>
			</trkpt>
			<trkpt lat="30.240272" lon="120.091065">
				<speed>0.000000</speed>
				<ele>109.000000</ele>
				<time>2026-08-17T03:58:38Z</time>
			</trkpt>
			<trkpt lat="30.240261" lon="120.091040">
				<speed>0.000000</speed>
				<ele>109.000000</ele>
				<time>2026-08-17T03:58:39Z</time>
			</trkpt>
			<trkpt lat="30.240257" lon="120.091032">
				<speed>0.000000</speed>
				<ele>109.000000</ele>
				<time>2026-08-17T03:58:40Z</time>
			</trkpt>
			<trkpt lat="30.240253" lon="120.091025">
				<speed>0.000000</speed>
				<ele>110.000000</ele>
				<time>2026-08-17T03:58:41Z</time>
			</trkpt>
			<trkpt lat="30.240249" lon="120.091017">
				<speed>0.000000</speed>
				<ele>110.000000</ele>
				<time>2026-08-17T03:58:42Z</time>
			</trkpt>
			<trkpt lat="30.240237" lon="120.090999">
				<speed>0.000000</speed>
				<ele>110.000000</ele>
				<time>2026-08-17T03:58:43Z</time>
			</trkpt>
			<trkpt lat="30.240233" lon="120.090993">
				<speed>0.000000</speed>
				<ele>110.000000</ele>
				<time>2026-08-17T03:58:44Z</time>
			</trkpt>
			<trkpt lat="30.240228" lon="120.090987">
				<speed>0.000000</speed>
				<ele>111.000000</ele>
				<time>2026-08-17T03:58:45Z</time>
			</trkpt>
			<trkpt lat="30.240224" lon="120.090981">
				<speed>0.000000</speed>
				<ele>111.000000</ele>
				<time>2026-08-17T03:58:46Z</time>
			</trkpt>
			<trkpt lat="30.240211" lon="120.090964">
				<speed>0.000000</speed>
				<ele>111.000000</ele>
				<time>2026-08-17T03:58:47Z</time>
			</trkpt>
			<trkpt lat="30.240206" lon="120.090959">
				<speed>0.000000</speed>
				<ele>111.000000</ele>
				<time>2026-08-17T03:58:48Z</time>
			</trkpt>
			<trkpt lat="30.240202" lon="120.090954">
				<speed>0.000000</speed>
				<ele>111.000000</ele>
				<time>2026-08-17T03:58:49Z</time>
			</trkpt>
			<trkpt lat="30.240198" lon="120.090949">
				<speed>0.000000</speed>
				<ele>111.000000</ele>
				<time>2026-08-17T03:58:50Z</time>
			</trkpt>
			<trkpt lat="30.240185" lon="120.090934">
				<speed>0.000000</speed>
				<ele>111.000000</ele>
				<time>2026-08-17T03:58:51Z</time>
			</trkpt>
			<trkpt lat="30.240182" lon="120.090929">
				<speed>0.000000</speed>
				<ele>111.000000</ele>
				<time>2026-08-17T03:58:52Z</time>
			</trkpt>
			<trkpt lat="30.240178" lon="120.090924">
				<speed>0.000000</speed>
				<ele>112.000000</ele>
				<time>2026-08-17T03:58:53Z</time>
			</trkpt>
			<trkpt lat="30.240175" lon="120.090919">
				<speed>0.000000</speed>
				<ele>112.000000</ele>
				<time>2026-08-17T03:58:54Z</time>
			</trkpt>
			<trkpt lat="30.240166" lon="120.090903">
				<speed>0.000000</speed>
				<ele>112.000000</ele>
				<time>2026-08-17T03:58:55Z</time>
			</trkpt>
			<trkpt lat="30.240164" lon="120.090898">
				<speed>0.000000</speed>
				<ele>112.000000</ele>
				<time>2026-08-17T03:58:56Z</time>
			</trkpt>
			<trkpt lat="30.240162" lon="120.090893">
				<speed>0.000000</speed>
				<ele>113.000000</ele>
				<time>2026-08-17T03:58:57Z</time>
			</trkpt>
			<trkpt lat="30.240159" lon="120.090888">
				<speed>0.000000</speed>
				<ele>113.000000</ele>
				<time>2026-08-17T03:58:58Z</time>
			</trkpt>
			<trkpt lat="30.240151" lon="120.090871">
				<speed>0.000000</speed>
				<ele>113.000000</ele>
				<time>2026-08-17T03:58:59Z</time>
			</trkpt>
			<trkpt lat="30.240149" lon="120.090863">
				<speed>0.000000</speed>
				<ele>113.000000</ele>
				<time>2026-08-17T03:59:00Z</time>
			</trkpt>
			<trkpt lat="30.240146" lon="120.090856">
				<speed>0.000000</speed>
				<ele>113.000000</ele>
				<time>2026-08-17T03:59:01Z</time>
			</trkpt>
			<trkpt lat="30.240144" lon="120.090848">
				<speed>0.000000</speed>
				<ele>113.000000</ele>
				<time>2026-08-17T03:59:02Z</time>
			</trkpt>
			<trkpt lat="30.240140" lon="120.090824">
				<speed>0.000000</speed>
				<ele>113.000000</ele>
				<time>2026-08-17T03:59:03Z</time>
			</trkpt>
			<trkpt lat="30.240139" lon="120.090817">
				<speed>0.000000</speed>
				<ele>113.000000</ele>
				<time>2026-08-17T03:59:04Z</time>
			</trkpt>
			<trkpt lat="30.240138" lon="120.090811">
				<speed>0.000000</speed>
				<ele>114.000000</ele>
				<time>2026-08-17T03:59:05Z</time>
			</trkpt>
			<trkpt lat="30.240137" lon="120.090804">
				<speed>0.000000</speed>
				<ele>114.000000</ele>
				<time>2026-08-17T03:59:06Z</time>
			</trkpt>
			<trkpt lat="30.240131" lon="120.090789">
				<speed>0.000000</speed>
				<ele>114.000000</ele>
				<time>2026-08-17T03:59:07Z</time>
			</trkpt>
			<trkpt lat="30.240129" lon="120.090785">
				<speed>0.000000</speed>
				<ele>114.000000</ele>
				<time>2026-08-17T03:59:08Z</time>
			</trkpt>
			<trkpt lat="30.240126" lon="120.090781">
				<speed>0.000000</speed>
				<ele>114.000000</ele>
				<time>2026-08-17T03:59:09Z</time>
			</trkpt>
			<trkpt lat="30.240124" lon="120.090776">
				<speed>0.000000</speed>
				<ele>114.000000</ele>
				<time>2026-08-17T03:59:10Z</time>
			</trkpt>
			<trkpt lat="30.240116" lon="120.090762">
				<speed>0.000000</speed>
				<ele>114.000000</ele>
				<time>2026-08-17T03:59:11Z</time>
			</trkpt>
			<trkpt lat="30.240113" lon="120.090757">
				<speed>0.000000</speed>
				<ele>114.000000</ele>
				<time>2026-08-17T03:59:12Z</time>
			</trkpt>
			<trkpt lat="30.240110" lon="120.090752">
				<speed>0.000000</speed>
				<ele>115.000000</ele>
				<time>2026-08-17T03:59:13Z</time>
			</trkpt>
			<trkpt lat="30.240107" lon="120.090748">
				<speed>0.000000</speed>
				<ele>115.000000</ele>
				<time>2026-08-17T03:59:14Z</time>
			</trkpt>
			<trkpt lat="30.240100" lon="120.090734">
				<speed>0.000000</speed>
				<ele>115.000000</ele>
				<time>2026-08-17T03:59:15Z</time>
			</trkpt>
			<trkpt lat="30.240097" lon="120.090730">
				<speed>0.000000</speed>
				<ele>115.000000</ele>
				<time>2026-08-17T03:59:16Z</time>
			</trkpt>
			<trkpt lat="30.240095" lon="120.090726">
				<speed>0.000000</speed>
				<ele>115.000000</ele>
				<time>2026-08-17T03:59:17Z</time>
			</trkpt>
			<trkpt lat="30.240093" lon="120.090722">
				<speed>0.000000</speed>
				<ele>115.000000</ele>
				<time>2026-08-17T03:59:18Z</time>
			</trkpt>
			<trkpt lat="30.240086" lon="120.090710">
				<speed>0.000000</speed>
				<ele>115.000000</ele>
				<time>2026-08-17T03:59:19Z</time>
			</trkpt>
			<trkpt lat="30.240083" lon="120.090706">
				<speed>0.000000</speed>
				<ele>115.000000</ele>
				<time>2026-08-17T03:59:20Z</time>
			</trkpt>
			<trkpt lat="30.240081" lon="120.090701">
				<speed>0.000000</speed>
				<ele>116.000000</ele>
				<time>2026-08-17T03:59:21Z</time>
			</trkpt>
			<trkpt lat="30.240078" lon="120.090697">
				<speed>0.000000</speed>
				<ele>116.000000</ele>
				<time>2026-08-17T03:59:22Z</time>
			</trkpt>
			<trkpt lat="30.240072" lon="120.090684">
				<speed>0.000000</speed>
				<ele>116.000000</ele>
				<time>2026-08-17T03:59:23Z</time>
			</trkpt>
			<trkpt lat="30.240071" lon="120.090680">
				<speed>0.000000</speed>
				<ele>116.000000</ele>
				<time>2026-08-17T03:59:24Z</time>
			</trkpt>
			<trkpt lat="30.240069" lon="120.090675">
				<speed>0.000000</speed>
				<ele>116.000000</ele>
				<time>2026-08-17T03:59:25Z</time>
			</trkpt>
			<trkpt lat="30.240068" lon="120.090670">
				<speed>0.000000</speed>
				<ele>116.000000</ele>
				<time>2026-08-17T03:59:26Z</time>
			</trkpt>
			<trkpt lat="30.240066" lon="120.090654">
				<speed>0.000000</speed>
				<ele>116.000000</ele>
				<time>2026-08-17T03:59:27Z</time>
			</trkpt>
			<trkpt lat="30.240066" lon="120.090648">
				<speed>0.000000</speed>
				<ele>116.000000</ele>
				<time>2026-08-17T03:59:28Z</time>
			</trkpt>
			<trkpt lat="30.240066" lon="120.090642">
				<speed>0.000000</speed>
				<ele>117.000000</ele>
				<time>2026-08-17T03:59:29Z</time>
			</trkpt>
			<trkpt lat="30.240066" lon="120.090636">
				<speed>0.000000</speed>
				<ele>117.000000</ele>
				<time>2026-08-17T03:59:30Z</time>
			</trkpt>
			<trkpt lat="30.240066" lon="120.090616">
				<speed>0.000000</speed>
				<ele>117.000000</ele>
				<time>2026-08-17T03:59:31Z</time>
			</trkpt>
			<trkpt lat="30.240066" lon="120.090609">
				<speed>0.000000</speed>
				<ele>117.000000</ele>
				<time>2026-08-17T03:59:32Z</time>
			</trkpt>
			<trkpt lat="30.240066" lon="120.090602">
				<speed>0.000000</speed>
				<ele>117.000000</ele>
				<time>2026-08-17T03:59:33Z</time>
			</trkpt>
			<trkpt lat="30.240067" lon="120.090596">
				<speed>0.000000</speed>
				<ele>117.000000</ele>
				<time>2026-08-17T03:59:34Z</time>
			</trkpt>
			<trkpt lat="30.240067" lon="120.090576">
				<speed>0.000000</speed>
				<ele>117.000000</ele>
				<time>2026-08-17T03:59:35Z</time>
			</trkpt>
			<trkpt lat="30.240066" lon="120.090569">
				<speed>0.000000</speed>
				<ele>117.000000</ele>
				<time>2026-08-17T03:59:36Z</time>
			</trkpt>
			<trkpt lat="30.240066" lon="120.090562">
				<speed>0.000000</speed>
				<ele>118.000000</ele>
				<time>2026-08-17T03:59:37Z</time>
			</trkpt>
			<trkpt lat="30.240065" lon="120.090556">
				<speed>0.000000</speed>
				<ele>118.000000</ele>
				<time>2026-08-17T03:59:38Z</time>
			</trkpt>
			<trkpt lat="30.240063" lon="120.090536">
				<speed>0.000000</speed>
				<ele>118.000000</ele>
				<time>2026-08-17T03:59:39Z</time>
			</trkpt>
			<trkpt lat="30.240062" lon="120.090529">
				<speed>0.000000</speed>
				<ele>118.000000</ele>
				<time>2026-08-17T03:59:40Z</time>
			</trkpt>
			<trkpt lat="30.240061" lon="120.090523">
				<speed>0.000000</speed>
				<ele>119.000000</ele>
				<time>2026-08-17T03:59:41Z</time>
			</trkpt>
			<trkpt lat="30.240060" lon="120.090516">
				<speed>0.000000</speed>
				<ele>119.000000</ele>
				<time>2026-08-17T03:59:42Z</time>
			</trkpt>
			<trkpt lat="30.240056" lon="120.090497">
				<speed>0.000000</speed>
				<ele>119.000000</ele>
				<time>2026-08-17T03:59:43Z</time>
			</trkpt>
			<trkpt lat="30.240055" lon="120.090491">
				<speed>0.000000</speed>
				<ele>119.000000</ele>
				<time>2026-08-17T03:59:44Z</time>
			</trkpt>
			<trkpt lat="30.240054" lon="120.090485">
				<speed>0.000000</speed>
				<ele>120.000000</ele>
				<time>2026-08-17T03:59:45Z</time>
			</trkpt>
			<trkpt lat="30.240053" lon="120.090479">
				<speed>0.000000</speed>
				<ele>120.000000</ele>
				<time>2026-08-17T03:59:46Z</time>
			</trkpt>
			<trkpt lat="30.240051" lon="120.090460">
				<speed>0.000000</speed>
				<ele>120.000000</ele>
				<time>2026-08-17T03:59:47Z</time>
			</trkpt>
			<trkpt lat="30.240050" lon="120.090454">
				<speed>0.000000</speed>
				<ele>120.000000</ele>
				<time>2026-08-17T03:59:48Z</time>
			</trkpt>
			<trkpt lat="30.240050" lon="120.090448">
				<speed>0.000000</speed>
				<ele>120.000000</ele>
				<time>2026-08-17T03:59:49Z</time>
			</trkpt>
			<trkpt lat="30.240050" lon="120.090442">
				<speed>0.000000</speed>
				<ele>120.000000</ele>
				<time>2026-08-17T03:59:50Z</time>
			</trkpt>
			<trkpt lat="30.240050" lon="120.090424">
				<speed>0.000000</speed>
				<ele>120.000000</ele>
				<time>2026-08-17T03:59:51Z</time>
			</trkpt>
			<trkpt lat="30.240050" lon="120.090416">
				<speed>0.000000</speed>
				<ele>120.000000</ele>
				<time>2026-08-17T03:59:52Z</time>
			</trkpt>
			<trkpt lat="30.240050" lon="120.090409">
				<speed>0.000000</speed>
				<ele>121.000000</ele>
				<time>2026-08-17T03:59:53Z</time>
			</trkpt>
			<trkpt lat="30.240050" lon="120.090401">
				<speed>0.000000</speed>
				<ele>121.000000</ele>
				<time>2026-08-17T03:59:54Z</time>
			</trkpt>
			<trkpt lat="30.240049" lon="120.090377">
				<speed>0.000000</speed>
				<ele>121.000000</ele>
				<time>2026-08-17T03:59:55Z</time>
			</trkpt>
			<trkpt lat="30.240048" lon="120.090369">
				<speed>0.000000</speed>
				<ele>121.000000</ele>
				<time>2026-08-17T03:59:56Z</time>
			</trkpt>
			<trkpt lat="30.240048" lon="120.090361">
				<speed>0.000000</speed>
				<ele>121.000000</ele>
				<time>2026-08-17T03:59:57Z</time>
			</trkpt>
			<trkpt lat="30.240047" lon="120.090354">
				<speed>0.000000</speed>
				<ele>121.000000</ele>
				<time>2026-08-17T03:59:58Z</time>
			</trkpt>
			<trkpt lat="30.240045" lon="120.090331">
				<speed>0.000000</speed>
				<ele>121.000000</ele>
				<time>2026-08-17T03:59:59Z</time>
			</trkpt>
			<trkpt lat="30.240045" lon="120.090325">
				<speed>0.000000</speed>
				<ele>121.000000</ele>
				<time>2026-08-17T04:00:00Z</time>
			</trkpt>
			<trkpt lat="30.240044" lon="120.090319">
				<speed>0.000000</speed>
				<ele>122.000000</ele>
				<time>2026-08-17T04:00:01Z</time>
			</trkpt>
			<trkpt lat="30.240044" lon="120.090313">
				<speed>0.000000</speed>
				<ele>122.000000</ele>
				<time>2026-08-17T04:00:02Z</time>
			</trkpt>
			<trkpt lat="30.240043" lon="120.090295">
				<speed>0.000000</speed>
				<ele>122.000000</ele>
				<time>2026-08-17T04:00:03Z</time>
			</trkpt>
			<trkpt lat="30.240043" lon="120.090289">
				<speed>0.000000</speed>
				<ele>122.000000</ele>
				<time>2026-08-17T04:00:04Z</time>
			</trkpt>
			<trkpt lat="30.240043" lon="120.090283">
				<speed>0.000000</speed>
				<ele>123.000000</ele>
				<time>2026-08-17T04:00:05Z</time>
			</trkpt>
			<trkpt lat="30.240043" lon="120.090278">
				<speed>0.000000</speed>
				<ele>123.000000</ele>
				<time>2026-08-17T04:00:06Z</time>
			</trkpt>
			<trkpt lat="30.240044" lon="120.090260">
				<speed>0.000000</speed>
				<ele>123.000000</ele>
				<time>2026-08-17T04:00:07Z</time>
			</trkpt>
			<trkpt lat="30.240044" lon="120.090255">
				<speed>0.000000</speed>
				<ele>123.000000</ele>
				<time>2026-08-17T04:00:08Z</time>
			</trkpt>
			<trkpt lat="30.240045" lon="120.090250">
				<speed>0.000000</speed>
				<ele>123.000000</ele>
				<time>2026-08-17T04:00:09Z</time>
			</trkpt>
			<trkpt lat="30.240045" lon="120.090244">
				<speed>0.000000</speed>
				<ele>123.000000</ele>
				<time>2026-08-17T04:00:10Z</time>
			</trkpt>
			<trkpt lat="30.240047" lon="120.090228">
				<speed>0.000000</speed>
				<ele>123.000000</ele>
				<time>2026-08-17T04:00:11Z</time>
			</trkpt>
			<trkpt lat="30.240048" lon="120.090223">
				<speed>0.000000</speed>
				<ele>123.000000</ele>
				<time>2026-08-17T04:00:12Z</time>
			</trkpt>
			<trkpt lat="30.240049" lon="120.090217">
				<speed>0.000000</speed>
				<ele>124.000000</ele>
				<time>2026-08-17T04:00:13Z</time>
			</trkpt>
			<trkpt lat="30.240050" lon="120.090212">
				<speed>0.000000</speed>
				<ele>124.000000</ele>
				<time>2026-08-17T04:00:14Z</time>
			</trkpt>
			<trkpt lat="30.240053" lon="120.090196">
				<speed>0.000000</speed>
				<ele>124.000000</ele>
				<time>2026-08-17T04:00:15Z</time>
			</trkpt>
			<trkpt lat="30.240054" lon="120.090190">
				<speed>0.000000</speed>
				<ele>124.000000</ele>
				<time>2026-08-17T04:00:16Z</time>
			</trkpt>
			<trkpt lat="30.240056" lon="120.090185">
				<speed>0.000000</speed>
				<ele>124.000000</ele>
				<time>2026-08-17T04:00:17Z</time>
			</trkpt>
			<trkpt lat="30.240057" lon="120.090180">
				<speed>0.000000</speed>
				<ele>124.000000</ele>
				<time>2026-08-17T04:00:18Z</time>
			</trkpt>
			<trkpt lat="30.240060" lon="120.090166">
				<speed>0.000000</speed>
				<ele>124.000000</ele>
				<time>2026-08-17T04:00:19Z</time>
			</trkpt>
			<trkpt lat="30.240061" lon="120.090160">
				<speed>0.000000</speed>
				<ele>124.000000</ele>
				<time>2026-08-17T04:00:20Z</time>
			</trkpt>
			<trkpt lat="30.240062" lon="120.090155">
				<speed>0.000000</speed>
				<ele>125.000000</ele>
				<time>2026-08-17T04:00:21Z</time>
			</trkpt>
			<trkpt lat="30.240063" lon="120.090150">
				<speed>0.000000</speed>
				<ele>125.000000</ele>
				<time>2026-08-17T04:00:22Z</time>
			</trkpt>
			<trkpt lat="30.240068" lon="120.090133">
				<speed>0.000000</speed>
				<ele>125.000000</ele>
				<time>2026-08-17T04:00:23Z</time>
			</trkpt>
			<trkpt lat="30.240070" lon="120.090127">
				<speed>0.000000</speed>
				<ele>125.000000</ele>
				<time>2026-08-17T04:00:24Z</time>
			</trkpt>
			<trkpt lat="30.240072" lon="120.090121">
				<speed>0.000000</speed>
				<ele>125.000000</ele>
				<time>2026-08-17T04:00:25Z</time>
			</trkpt>
			<trkpt lat="30.240074" lon="120.090115">
				<speed>0.000000</speed>
				<ele>125.000000</ele>
				<time>2026-08-17T04:00:26Z</time>
			</trkpt>
			<trkpt lat="30.240081" lon="120.090098">
				<speed>0.000000</speed>
				<ele>125.000000</ele>
				<time>2026-08-17T04:00:27Z</time>
			</trkpt>
			<trkpt lat="30.240084" lon="120.090092">
				<speed>0.000000</speed>
				<ele>125.000000</ele>
				<time>2026-08-17T04:00:28Z</time>
			</trkpt>
			<trkpt lat="30.240087" lon="120.090086">
				<speed>0.000000</speed>
				<ele>126.000000</ele>
				<time>2026-08-17T04:00:29Z</time>
			</trkpt>
			<trkpt lat="30.240091" lon="120.090080">
				<speed>0.000000</speed>
				<ele>126.000000</ele>
				<time>2026-08-17T04:00:30Z</time>
			</trkpt>
			<trkpt lat="30.240099" lon="120.090060">
				<speed>0.000000</speed>
				<ele>126.000000</ele>
				<time>2026-08-17T04:00:31Z</time>
			</trkpt>
			<trkpt lat="30.240101" lon="120.090053">
				<speed>0.000000</speed>
				<ele>126.000000</ele>
				<time>2026-08-17T04:00:32Z</time>
			</trkpt>
			<trkpt lat="30.240103" lon="120.090046">
				<speed>0.000000</speed>
				<ele>127.000000</ele>
				<time>2026-08-17T04:00:33Z</time>
			</trkpt>
			<trkpt lat="30.240106" lon="120.090040">
				<speed>0.000000</speed>
				<ele>127.000000</ele>
				<time>2026-08-17T04:00:34Z</time>
			</trkpt>
			<trkpt lat="30.240107" lon="120.090034">
				<speed>0.000000</speed>
				<ele>127.000000</ele>
				<time>2026-08-17T04:00:35Z</time>
			</trkpt>
			<trkpt lat="30.240109" lon="120.090027">
				<speed>0.000000</speed>
				<ele>127.000000</ele>
				<time>2026-08-17T04:00:36Z</time>
			</trkpt>
			<trkpt lat="30.240110" lon="120.090021">
				<speed>0.000000</speed>
				<ele>128.000000</ele>
				<time>2026-08-17T04:00:37Z</time>
			</trkpt>
			<trkpt lat="30.240111" lon="120.090011">
				<speed>0.000000</speed>
				<ele>128.000000</ele>
				<time>2026-08-17T04:00:38Z</time>
			</trkpt>
			<trkpt lat="30.240111" lon="120.090004">
				<speed>0.000000</speed>
				<ele>128.000000</ele>
				<time>2026-08-17T04:00:39Z</time>
			</trkpt>
			<trkpt lat="30.240111" lon="120.089998">
				<speed>0.000000</speed>
				<ele>128.000000</ele>
				<time>2026-08-17T04:00:40Z</time>
			</trkpt>
			<trkpt lat="30.240111" lon="120.089992">
				<speed>0.000000</speed>
				<ele>128.000000</ele>
				<time>2026-08-17T04:00:41Z</time>
			</trkpt>
			<trkpt lat="30.240108" lon="120.089972">
				<speed>0.000000</speed>
				<ele>128.000000</ele>
				<time>2026-08-17T04:00:42Z</time>
			</trkpt>
			<trkpt lat="30.240107" lon="120.089966">
				<speed>0.000000</speed>
				<ele>128.000000</ele>
				<time>2026-08-17T04:00:43Z</time>
			</trkpt>
			<trkpt lat="30.240106" lon="120.089960">
				<speed>0.000000</speed>
				<ele>128.000000</ele>
				<time>2026-08-17T04:00:44Z</time>
			</trkpt>
			<trkpt lat="30.240105" lon="120.089953">
				<speed>0.000000</speed>
				<ele>129.000000</ele>
				<time>2026-08-17T04:00:45Z</time>
			</trkpt>
			<trkpt lat="30.240104" lon="120.089936">
				<speed>0.000000</speed>
				<ele>129.000000</ele>
				<time>2026-08-17T04:00:46Z</time>
			</trkpt>
			<trkpt lat="30.240105" lon="120.089930">
				<speed>0.000000</speed>
				<ele>129.000000</ele>
				<time>2026-08-17T04:00:47Z</time>
			</trkpt>
			<trkpt lat="30.240106" lon="120.089924">
				<speed>0.000000</speed>
				<ele>129.000000</ele>
				<time>2026-08-17T04:00:48Z</time>
			</trkpt>
			<trkpt lat="30.240107" lon="120.089918">
				<speed>0.000000</speed>
				<ele>129.000000</ele>
				<time>2026-08-17T04:00:49Z</time>
			</trkpt>
			<trkpt lat="30.240112" lon="120.089901">
				<speed>0.000000</speed>
				<ele>129.000000</ele>
				<time>2026-08-17T04:00:50Z</time>
			</trkpt>
			<trkpt lat="30.240114" lon="120.089895">
				<speed>0.000000</speed>
				<ele>129.000000</ele>
				<time>2026-08-17T04:00:51Z</time>
			</trkpt>
			<trkpt lat="30.240116" lon="120.089889">
				<speed>0.000000</speed>
				<ele>129.000000</ele>
				<time>2026-08-17T04:00:52Z</time>
			</trkpt>
			<trkpt lat="30.240118" lon="120.089884">
				<speed>0.000000</speed>
				<ele>130.000000</ele>
				<time>2026-08-17T04:00:53Z</time>
			</trkpt>
			<trkpt lat="30.240126" lon="120.089866">
				<speed>0.000000</speed>
				<ele>130.000000</ele>
				<time>2026-08-17T04:00:54Z</time>
			</trkpt>
			<trkpt lat="30.240130" lon="120.089860">
				<speed>0.000000</speed>
				<ele>130.000000</ele>
				<time>2026-08-17T04:00:55Z</time>
			</trkpt>
			<trkpt lat="30.240134" lon="120.089853">
				<speed>0.000000</speed>
				<ele>130.000000</ele>
				<time>2026-08-17T04:00:56Z</time>
			</trkpt>
			<trkpt lat="30.240138" lon="120.089847">
				<speed>0.000000</speed>
				<ele>131.000000</ele>
				<time>2026-08-17T04:00:57Z</time>
			</trkpt>
			<trkpt lat="30.240152" lon="120.089829">
				<speed>0.000000</speed>
				<ele>131.000000</ele>
				<time>2026-08-17T04:00:58Z</time>
			</trkpt>
			<trkpt lat="30.240158" lon="120.089824">
				<speed>0.000000</speed>
				<ele>131.000000</ele>
				<time>2026-08-17T04:00:59Z</time>
			</trkpt>
			<trkpt lat="30.240163" lon="120.089820">
				<speed>0.000000</speed>
				<ele>131.000000</ele>
				<time>2026-08-17T04:01:00Z</time>
			</trkpt>
			<trkpt lat="30.240168" lon="120.089815">
				<speed>0.000000</speed>
				<ele>131.000000</ele>
				<time>2026-08-17T04:01:01Z</time>
			</trkpt>
			<trkpt lat="30.240181" lon="120.089805">
				<speed>0.000000</speed>
				<ele>131.000000</ele>
				<time>2026-08-17T04:01:02Z</time>
			</trkpt>
			<trkpt lat="30.240185" lon="120.089802">
				<speed>0.000000</speed>
				<ele>131.000000</ele>
				<time>2026-08-17T04:01:03Z</time>
			</trkpt>
			<trkpt lat="30.240188" lon="120.089798">
				<speed>0.000000</speed>
				<ele>131.000000</ele>
				<time>2026-08-17T04:01:04Z</time>
			</trkpt>
			<trkpt lat="30.240192" lon="120.089795">
				<speed>0.000000</speed>
				<ele>132.000000</ele>
				<time>2026-08-17T04:01:05Z</time>
			</trkpt>
			<trkpt lat="30.240196" lon="120.089789">
				<speed>0.000000</speed>
				<ele>132.000000</ele>
				<time>2026-08-17T04:01:06Z</time>
			</trkpt>
			<trkpt lat="30.240197" lon="120.089785">
				<speed>0.000000</speed>
				<ele>132.000000</ele>
				<time>2026-08-17T04:01:07Z</time>
			</trkpt>
			<trkpt lat="30.240199" lon="120.089781">
				<speed>0.000000</speed>
				<ele>132.000000</ele>
				<time>2026-08-17T04:01:08Z</time>
			</trkpt>
			<trkpt lat="30.240201" lon="120.089777">
				<speed>0.000000</speed>
				<ele>133.000000</ele>
				<time>2026-08-17T04:01:09Z</time>
			</trkpt>
			<trkpt lat="30.240202" lon="120.089772">
				<speed>0.000000</speed>
				<ele>133.000000</ele>
				<time>2026-08-17T04:01:10Z</time>
			</trkpt>
			<trkpt lat="30.240203" lon="120.089767">
				<speed>0.000000</speed>
				<ele>133.000000</ele>
				<time>2026-08-17T04:01:11Z</time>
			</trkpt>
			<trkpt lat="30.240205" lon="120.089762">
				<speed>0.000000</speed>
				<ele>133.000000</ele>
				<time>2026-08-17T04:01:12Z</time>
			</trkpt>
			<trkpt lat="30.240203" lon="120.089749">
				<speed>0.000000</speed>
				<ele>134.000000</ele>
				<time>2026-08-17T04:01:13Z</time>
			</trkpt>
			<trkpt lat="30.240201" lon="120.089744">
				<speed>0.000000</speed>
				<ele>134.000000</ele>
				<time>2026-08-17T04:01:14Z</time>
			</trkpt>
			<trkpt lat="30.240198" lon="120.089740">
				<speed>0.000000</speed>
				<ele>134.000000</ele>
				<time>2026-08-17T04:01:15Z</time>
			</trkpt>
			<trkpt lat="30.240196" lon="120.089736">
				<speed>0.000000</speed>
				<ele>134.000000</ele>
				<time>2026-08-17T04:01:16Z</time>
			</trkpt>
			<trkpt lat="30.240186" lon="120.089724">
				<speed>0.000000</speed>
				<ele>134.000000</ele>
				<time>2026-08-17T04:01:17Z</time>
			</trkpt>
			<trkpt lat="30.240183" lon="120.089720">
				<speed>0.000000</speed>
				<ele>134.000000</ele>
				<time>2026-08-17T04:01:18Z</time>
			</trkpt>
			<trkpt lat="30.240180" lon="120.089716">
				<speed>0.000000</speed>
				<ele>134.000000</ele>
				<time>2026-08-17T04:01:19Z</time>
			</trkpt>
			<trkpt lat="30.240178" lon="120.089712">
				<speed>0.000000</speed>
				<ele>134.000000</ele>
				<time>2026-08-17T04:01:20Z</time>
			</trkpt>
			<trkpt lat="30.240169" lon="120.089701">
				<speed>0.000000</speed>
				<ele>135.000000</ele>
				<time>2026-08-17T04:01:21Z</time>
			</trkpt>
			<trkpt lat="30.240167" lon="120.089698">
				<speed>0.000000</speed>
				<ele>135.000000</ele>
				<time>2026-08-17T04:01:22Z</time>
			</trkpt>
			<trkpt lat="30.240164" lon="120.089695">
				<speed>0.000000</speed>
				<ele>135.000000</ele>
				<time>2026-08-17T04:01:23Z</time>
			</trkpt>
			<trkpt lat="30.240161" lon="120.089692">
				<speed>0.000000</speed>
				<ele>135.000000</ele>
				<time>2026-08-17T04:01:24Z</time>
			</trkpt>
			<trkpt lat="30.240154" lon="120.089680">
				<speed>0.000000</speed>
				<ele>135.000000</ele>
				<time>2026-08-17T04:01:25Z</time>
			</trkpt>
			<trkpt lat="30.240152" lon="120.089675">
				<speed>0.000000</speed>
				<ele>135.000000</ele>
				<time>2026-08-17T04:01:26Z</time>
			</trkpt>
			<trkpt lat="30.240151" lon="120.089669">
				<speed>0.000000</speed>
				<ele>135.000000</ele>
				<time>2026-08-17T04:01:27Z</time>
			</trkpt>
			<trkpt lat="30.240149" lon="120.089664">
				<speed>0.000000</speed>
				<ele>135.000000</ele>
				<time>2026-08-17T04:01:28Z</time>
			</trkpt>
			<trkpt lat="30.240147" lon="120.089645">
				<speed>0.000000</speed>
				<ele>135.000000</ele>
				<time>2026-08-17T04:01:29Z</time>
			</trkpt>
			<trkpt lat="30.240147" lon="120.089639">
				<speed>0.000000</speed>
				<ele>135.000000</ele>
				<time>2026-08-17T04:01:30Z</time>
			</trkpt>
			<trkpt lat="30.240147" lon="120.089633">
				<speed>0.000000</speed>
				<ele>135.000000</ele>
				<time>2026-08-17T04:01:31Z</time>
			</trkpt>
			<trkpt lat="30.240147" lon="120.089627">
				<speed>0.000000</speed>
				<ele>135.000000</ele>
				<time>2026-08-17T04:01:32Z</time>
			</trkpt>
			<trkpt lat="30.240147" lon="120.089612">
				<speed>0.000000</speed>
				<ele>135.000000</ele>
				<time>2026-08-17T04:01:33Z</time>
			</trkpt>
			<trkpt lat="30.240147" lon="120.089607">
				<speed>0.000000</speed>
				<ele>135.000000</ele>
				<time>2026-08-17T04:01:34Z</time>
			</trkpt>
			<trkpt lat="30.240147" lon="120.089602">
				<speed>0.000000</speed>
				<ele>135.000000</ele>
				<time>2026-08-17T04:01:35Z</time>
			</trkpt>
			<trkpt lat="30.240147" lon="120.089598">
				<speed>0.000000</speed>
				<ele>135.000000</ele>
				<time>2026-08-17T04:01:36Z</time>
			</trkpt>
			<trkpt lat="30.240148" lon="120.089584">
				<speed>0.000000</speed>
				<ele>136.000000</ele>
				<time>2026-08-17T04:01:37Z</time>
			</trkpt>
			<trkpt lat="30.240148" lon="120.089579">
				<speed>0.000000</speed>
				<ele>136.000000</ele>
				<time>2026-08-17T04:01:38Z</time>
			</trkpt>
			<trkpt lat="30.240148" lon="120.089574">
				<speed>0.000000</speed>
				<ele>136.000000</ele>
				<time>2026-08-17T04:01:39Z</time>
			</trkpt>
			<trkpt lat="30.240148" lon="120.089569">
				<speed>0.000000</speed>
				<ele>136.000000</ele>
				<time>2026-08-17T04:01:40Z</time>
			</trkpt>
			<trkpt lat="30.240149" lon="120.089553">
				<speed>0.000000</speed>
				<ele>136.000000</ele>
				<time>2026-08-17T04:01:41Z</time>
			</trkpt>
			<trkpt lat="30.240149" lon="120.089549">
				<speed>0.000000</speed>
				<ele>136.000000</ele>
				<time>2026-08-17T04:01:42Z</time>
			</trkpt>
			<trkpt lat="30.240149" lon="120.089544">
				<speed>0.000000</speed>
				<ele>136.000000</ele>
				<time>2026-08-17T04:01:43Z</time>
			</trkpt>
			<trkpt lat="30.240150" lon="120.089539">
				<speed>0.000000</speed>
				<ele>136.000000</ele>
				<time>2026-08-17T04:01:44Z</time>
			</trkpt>
			<trkpt lat="30.240154" lon="120.089529">
				<speed>0.000000</speed>
				<ele>137.000000</ele>
				<time>2026-08-17T04:01:45Z</time>
			</trkpt>
			<trkpt lat="30.240155" lon="120.089527">
				<speed>0.000000</speed>
				<ele>137.000000</ele>
				<time>2026-08-17T04:01:46Z</time>
			</trkpt>
			<trkpt lat="30.240156" lon="120.089526">
				<speed>0.000000</speed>
				<ele>137.000000</ele>
				<time>2026-08-17T04:01:47Z</time>
			</trkpt>
			<trkpt lat="30.240158" lon="120.089525">
				<speed>0.000000</speed>
				<ele>137.000000</ele>
				<time>2026-08-17T04:01:48Z</time>
			</trkpt>
			<trkpt lat="30.240159" lon="120.089523">
				<speed>0.000000</speed>
				<ele>138.000000</ele>
				<time>2026-08-17T04:01:49Z</time>
			</trkpt>
			<trkpt lat="30.240166" lon="120.089514">
				<speed>0.000000</speed>
				<ele>138.000000</ele>
				<time>2026-08-17T04:01:50Z</time>
			</trkpt>
			<trkpt lat="30.240167" lon="120.089509">
				<speed>0.000000</speed>
				<ele>138.000000</ele>
				<time>2026-08-17T04:01:51Z</time>
			</trkpt>
			<trkpt lat="30.240169" lon="120.089505">
				<speed>0.000000</speed>
				<ele>138.000000</ele>
				<time>2026-08-17T04:01:52Z</time>
			</trkpt>
			<trkpt lat="30.240170" lon="120.089501">
				<speed>0.000000</speed>
				<ele>139.000000</ele>
				<time>2026-08-17T04:01:53Z</time>
			</trkpt>
			<trkpt lat="30.240171" lon="120.089486">
				<speed>0.000000</speed>
				<ele>139.000000</ele>
				<time>2026-08-17T04:01:54Z</time>
			</trkpt>
			<trkpt lat="30.240171" lon="120.089480">
				<speed>0.000000</speed>
				<ele>139.000000</ele>
				<time>2026-08-17T04:01:55Z</time>
			</trkpt>
			<trkpt lat="30.240171" lon="120.089475">
				<speed>0.000000</speed>
				<ele>139.000000</ele>
				<time>2026-08-17T04:01:56Z</time>
			</trkpt>
			<trkpt lat="30.240171" lon="120.089469">
				<speed>0.000000</speed>
				<ele>140.000000</ele>
				<time>2026-08-17T04:01:57Z</time>
			</trkpt>
			<trkpt lat="30.240170" lon="120.089453">
				<speed>0.000000</speed>
				<ele>140.000000</ele>
				<time>2026-08-17T04:01:58Z</time>
			</trkpt>
			<trkpt lat="30.240168" lon="120.089449">
				<speed>0.000000</speed>
				<ele>140.000000</ele>
				<time>2026-08-17T04:01:59Z</time>
			</trkpt>
			<trkpt lat="30.240167" lon="120.089444">
				<speed>0.000000</speed>
				<ele>140.000000</ele>
				<time>2026-08-17T04:02:00Z</time>
			</trkpt>
			<trkpt lat="30.240166" lon="120.089440">
				<speed>0.000000</speed>
				<ele>141.000000</ele>
				<time>2026-08-17T04:02:01Z</time>
			</trkpt>
			<trkpt lat="30.240159" lon="120.089430">
				<speed>0.000000</speed>
				<ele>141.000000</ele>
				<time>2026-08-17T04:02:02Z</time>
			</trkpt>
			<trkpt lat="30.240156" lon="120.089426">
				<speed>0.000000</speed>
				<ele>141.000000</ele>
				<time>2026-08-17T04:02:03Z</time>
			</trkpt>
			<trkpt lat="30.240154" lon="120.089423">
				<speed>0.000000</speed>
				<ele>141.000000</ele>
				<time>2026-08-17T04:02:04Z</time>
			</trkpt>
			<trkpt lat="30.240151" lon="120.089419">
				<speed>0.000000</speed>
				<ele>142.000000</ele>
				<time>2026-08-17T04:02:05Z</time>
			</trkpt>
			<trkpt lat="30.240146" lon="120.089408">
				<speed>0.000000</speed>
				<ele>142.000000</ele>
				<time>2026-08-17T04:02:06Z</time>
			</trkpt>
			<trkpt lat="30.240144" lon="120.089404">
				<speed>0.000000</speed>
				<ele>142.000000</ele>
				<time>2026-08-17T04:02:07Z</time>
			</trkpt>
			<trkpt lat="30.240142" lon="120.089399">
				<speed>0.000000</speed>
				<ele>142.000000</ele>
				<time>2026-08-17T04:02:08Z</time>
			</trkpt>
			<trkpt lat="30.240141" lon="120.089395">
				<speed>0.000000</speed>
				<ele>143.000000</ele>
				<time>2026-08-17T04:02:09Z</time>
			</trkpt>
			<trkpt lat="30.240135" lon="120.089382">
				<speed>0.000000</speed>
				<ele>143.000000</ele>
				<time>2026-08-17T04:02:10Z</time>
			</trkpt>
			<trkpt lat="30.240139" lon="120.089358">
				<speed>0.000000</speed>
				<ele>147.000000</ele>
				<time>2026-08-17T04:02:51Z</time>
			</trkpt>
			<trkpt lat="30.240143" lon="120.089330">
				<speed>0.000000</speed>
				<ele>147.000000</ele>
				<time>2026-08-17T04:02:52Z</time>
			</trkpt>
			<trkpt lat="30.240144" lon="120.089323">
				<speed>0.000000</speed>
				<ele>147.000000</ele>
				<time>2026-08-17T04:02:53Z</time>
			</trkpt>
			<trkpt lat="30.240145" lon="120.089317">
				<speed>0.000000</speed>
				<ele>147.000000</ele>
				<time>2026-08-17T04:02:54Z</time>
			</trkpt>
			<trkpt lat="30.240146" lon="120.089311">
				<speed>0.000000</speed>
				<ele>147.000000</ele>
				<time>2026-08-17T04:02:55Z</time>
			</trkpt>
			<trkpt lat="30.240148" lon="120.089295">
				<speed>0.000000</speed>
				<ele>147.000000</ele>
				<time>2026-08-17T04:02:56Z</time>
			</trkpt>
			<trkpt lat="30.240158" lon="120.089265">
				<speed>0.000000</speed>
				<ele>148.000000</ele>
				<time>2026-08-17T04:03:11Z</time>
			</trkpt>
			<trkpt lat="30.240169" lon="120.089234">
				<speed>0.000000</speed>
				<ele>148.000000</ele>
				<time>2026-08-17T04:03:12Z</time>
			</trkpt>
			<trkpt lat="30.240172" lon="120.089228">
				<speed>0.000000</speed>
				<ele>149.000000</ele>
				<time>2026-08-17T04:03:13Z</time>
			</trkpt>
			<trkpt lat="30.240174" lon="120.089221">
				<speed>0.000000</speed>
				<ele>149.000000</ele>
				<time>2026-08-17T04:03:14Z</time>
			</trkpt>
			<trkpt lat="30.240177" lon="120.089215">
				<speed>0.000000</speed>
				<ele>149.000000</ele>
				<time>2026-08-17T04:03:15Z</time>
			</trkpt>
			<trkpt lat="30.240183" lon="120.089199">
				<speed>0.000000</speed>
				<ele>149.000000</ele>
				<time>2026-08-17T04:03:16Z</time>
			</trkpt>
			<trkpt lat="30.240185" lon="120.089195">
				<speed>0.000000</speed>
				<ele>149.000000</ele>
				<time>2026-08-17T04:03:17Z</time>
			</trkpt>
			<trkpt lat="30.240187" lon="120.089191">
				<speed>0.000000</speed>
				<ele>149.000000</ele>
				<time>2026-08-17T04:03:18Z</time>
			</trkpt>
			<trkpt lat="30.240188" lon="120.089187">
				<speed>0.000000</speed>
				<ele>149.000000</ele>
				<time>2026-08-17T04:03:19Z</time>
			</trkpt>
			<trkpt lat="30.240183" lon="120.089166">
				<speed>0.000000</speed>
				<ele>153.000000</ele>
				<time>2026-08-17T04:03:43Z</time>
			</trkpt>
			<trkpt lat="30.240176" lon="120.089139">
				<speed>0.000000</speed>
				<ele>153.000000</ele>
				<time>2026-08-17T04:03:44Z</time>
			</trkpt>
			<trkpt lat="30.240174" lon="120.089116">
				<speed>0.000000</speed>
				<ele>154.000000</ele>
				<time>2026-08-17T04:03:51Z</time>
			</trkpt>
			<trkpt lat="30.240173" lon="120.089095">
				<speed>0.000000</speed>
				<ele>154.000000</ele>
				<time>2026-08-17T04:03:52Z</time>
			</trkpt>
			<trkpt lat="30.240181" lon="120.089069">
				<speed>0.000000</speed>
				<ele>158.000000</ele>
				<time>2026-08-17T04:04:11Z</time>
			</trkpt>
			<trkpt lat="30.240193" lon="120.089048">
				<speed>0.000000</speed>
				<ele>158.000000</ele>
				<time>2026-08-17T04:04:12Z</time>
			</trkpt>
			<trkpt lat="30.240197" lon="120.089044">
				<speed>0.000000</speed>
				<ele>159.000000</ele>
				<time>2026-08-17T04:04:13Z</time>
			</trkpt>
			<trkpt lat="30.240201" lon="120.089040">
				<speed>0.000000</speed>
				<ele>159.000000</ele>
				<time>2026-08-17T04:04:14Z</time>
			</trkpt>
			<trkpt lat="30.240205" lon="120.089036">
				<speed>0.000000</speed>
				<ele>159.000000</ele>
				<time>2026-08-17T04:04:15Z</time>
			</trkpt>
			<trkpt lat="30.240218" lon="120.089028">
				<speed>0.000000</speed>
				<ele>159.000000</ele>
				<time>2026-08-17T04:04:16Z</time>
			</trkpt>
			<trkpt lat="30.240222" lon="120.089024">
				<speed>0.000000</speed>
				<ele>160.000000</ele>
				<time>2026-08-17T04:04:17Z</time>
			</trkpt>
			<trkpt lat="30.240226" lon="120.089019">
				<speed>0.000000</speed>
				<ele>160.000000</ele>
				<time>2026-08-17T04:04:18Z</time>
			</trkpt>
			<trkpt lat="30.240230" lon="120.089015">
				<speed>0.000000</speed>
				<ele>160.000000</ele>
				<time>2026-08-17T04:04:19Z</time>
			</trkpt>
			<trkpt lat="30.240243" lon="120.088997">
				<speed>0.000000</speed>
				<ele>160.000000</ele>
				<time>2026-08-17T04:04:20Z</time>
			</trkpt>
			<trkpt lat="30.240246" lon="120.088994">
				<speed>0.000000</speed>
				<ele>160.000000</ele>
				<time>2026-08-17T04:04:21Z</time>
			</trkpt>
			<trkpt lat="30.240249" lon="120.088990">
				<speed>0.000000</speed>
				<ele>160.000000</ele>
				<time>2026-08-17T04:04:22Z</time>
			</trkpt>
			<trkpt lat="30.240251" lon="120.088987">
				<speed>0.000000</speed>
				<ele>160.000000</ele>
				<time>2026-08-17T04:04:23Z</time>
			</trkpt>
			<trkpt lat="30.240265" lon="120.088972">
				<speed>0.000000</speed>
				<ele>160.000000</ele>
				<time>2026-08-17T04:04:24Z</time>
			</trkpt>
			<trkpt lat="30.240268" lon="120.088969">
				<speed>0.000000</speed>
				<ele>161.000000</ele>
				<time>2026-08-17T04:04:25Z</time>
			</trkpt>
			<trkpt lat="30.240272" lon="120.088966">
				<speed>0.000000</speed>
				<ele>161.000000</ele>
				<time>2026-08-17T04:04:26Z</time>
			</trkpt>
			<trkpt lat="30.240275" lon="120.088963">
				<speed>0.000000</speed>
				<ele>161.000000</ele>
				<time>2026-08-17T04:04:27Z</time>
			</trkpt>
			<trkpt lat="30.240279" lon="120.088960">
				<speed>0.000000</speed>
				<ele>161.000000</ele>
				<time>2026-08-17T04:04:28Z</time>
			</trkpt>
			<trkpt lat="30.240288" lon="120.088952">
				<speed>0.000000</speed>
				<ele>164.000000</ele>
				<time>2026-08-17T04:05:25Z</time>
			</trkpt>
			<trkpt lat="30.240301" lon="120.088941">
				<speed>0.000000</speed>
				<ele>164.000000</ele>
				<time>2026-08-17T04:05:26Z</time>
			</trkpt>
			<trkpt lat="30.240305" lon="120.088938">
				<speed>0.000000</speed>
				<ele>164.000000</ele>
				<time>2026-08-17T04:05:27Z</time>
			</trkpt>
			<trkpt lat="30.240309" lon="120.088935">
				<speed>0.000000</speed>
				<ele>164.000000</ele>
				<time>2026-08-17T04:05:28Z</time>
			</trkpt>
			<trkpt lat="30.240313" lon="120.088932">
				<speed>0.000000</speed>
				<ele>165.000000</ele>
				<time>2026-08-17T04:05:29Z</time>
			</trkpt>
			<trkpt lat="30.240327" lon="120.088920">
				<speed>0.000000</speed>
				<ele>165.000000</ele>
				<time>2026-08-17T04:05:30Z</time>
			</trkpt>
			<trkpt lat="30.240331" lon="120.088916">
				<speed>0.000000</speed>
				<ele>165.000000</ele>
				<time>2026-08-17T04:05:31Z</time>
			</trkpt>
			<trkpt lat="30.240336" lon="120.088911">
				<speed>0.000000</speed>
				<ele>165.000000</ele>
				<time>2026-08-17T04:05:32Z</time>
			</trkpt>
			<trkpt lat="30.240340" lon="120.088906">
				<speed>0.000000</speed>
				<ele>165.000000</ele>
				<time>2026-08-17T04:05:33Z</time>
			</trkpt>
			<trkpt lat="30.240343" lon="120.088897">
				<speed>0.000000</speed>
				<ele>165.000000</ele>
				<time>2026-08-17T04:05:34Z</time>
			</trkpt>
			<trkpt lat="30.240343" lon="120.088894">
				<speed>0.000000</speed>
				<ele>165.000000</ele>
				<time>2026-08-17T04:05:35Z</time>
			</trkpt>
			<trkpt lat="30.240344" lon="120.088891">
				<speed>0.000000</speed>
				<ele>165.000000</ele>
				<time>2026-08-17T04:05:36Z</time>
			</trkpt>
			<trkpt lat="30.240344" lon="120.088888">
				<speed>0.000000</speed>
				<ele>165.000000</ele>
				<time>2026-08-17T04:05:37Z</time>
			</trkpt>
			<trkpt lat="30.240339" lon="120.088876">
				<speed>0.000000</speed>
				<ele>165.000000</ele>
				<time>2026-08-17T04:05:38Z</time>
			</trkpt>
			<trkpt lat="30.240337" lon="120.088873">
				<speed>0.000000</speed>
				<ele>165.000000</ele>
				<time>2026-08-17T04:05:39Z</time>
			</trkpt>
			<trkpt lat="30.240335" lon="120.088870">
				<speed>0.000000</speed>
				<ele>165.000000</ele>
				<time>2026-08-17T04:05:40Z</time>
			</trkpt>
			<trkpt lat="30.240332" lon="120.088866">
				<speed>0.000000</speed>
				<ele>165.000000</ele>
				<time>2026-08-17T04:05:41Z</time>
			</trkpt>
			<trkpt lat="30.240326" lon="120.088852">
				<speed>0.000000</speed>
				<ele>165.000000</ele>
				<time>2026-08-17T04:05:42Z</time>
			</trkpt>
			<trkpt lat="30.240324" lon="120.088847">
				<speed>0.000000</speed>
				<ele>165.000000</ele>
				<time>2026-08-17T04:05:43Z</time>
			</trkpt>
			<trkpt lat="30.240322" lon="120.088842">
				<speed>0.000000</speed>
				<ele>165.000000</ele>
				<time>2026-08-17T04:05:44Z</time>
			</trkpt>
			<trkpt lat="30.240320" lon="120.088837">
				<speed>0.000000</speed>
				<ele>166.000000</ele>
				<time>2026-08-17T04:05:45Z</time>
			</trkpt>
			<trkpt lat="30.240313" lon="120.088823">
				<speed>0.000000</speed>
				<ele>166.000000</ele>
				<time>2026-08-17T04:05:46Z</time>
			</trkpt>
			<trkpt lat="30.240310" lon="120.088819">
				<speed>0.000000</speed>
				<ele>166.000000</ele>
				<time>2026-08-17T04:05:47Z</time>
			</trkpt>
			<trkpt lat="30.240307" lon="120.088814">
				<speed>0.000000</speed>
				<ele>166.000000</ele>
				<time>2026-08-17T04:05:48Z</time>
			</trkpt>
			<trkpt lat="30.240305" lon="120.088810">
				<speed>0.000000</speed>
				<ele>167.000000</ele>
				<time>2026-08-17T04:05:49Z</time>
			</trkpt>
			<trkpt lat="30.240301" lon="120.088796">
				<speed>0.000000</speed>
				<ele>167.000000</ele>
				<time>2026-08-17T04:05:50Z</time>
			</trkpt>
			<trkpt lat="30.240301" lon="120.088793">
				<speed>0.000000</speed>
				<ele>167.000000</ele>
				<time>2026-08-17T04:05:51Z</time>
			</trkpt>
			<trkpt lat="30.240301" lon="120.088791">
				<speed>0.000000</speed>
				<ele>167.000000</ele>
				<time>2026-08-17T04:05:52Z</time>
			</trkpt>
			<trkpt lat="30.240302" lon="120.088789">
				<speed>0.000000</speed>
				<ele>168.000000</ele>
				<time>2026-08-17T04:05:53Z</time>
			</trkpt>
			<trkpt lat="30.240302" lon="120.088787">
				<speed>0.000000</speed>
				<ele>168.000000</ele>
				<time>2026-08-17T04:05:54Z</time>
			</trkpt>
			<trkpt lat="30.240304" lon="120.088772">
				<speed>0.000000</speed>
				<ele>168.000000</ele>
				<time>2026-08-17T04:05:55Z</time>
			</trkpt>
			<trkpt lat="30.240304" lon="120.088767">
				<speed>0.000000</speed>
				<ele>168.000000</ele>
				<time>2026-08-17T04:05:56Z</time>
			</trkpt>
			<trkpt lat="30.240304" lon="120.088762">
				<speed>0.000000</speed>
				<ele>169.000000</ele>
				<time>2026-08-17T04:05:57Z</time>
			</trkpt>
			<trkpt lat="30.240304" lon="120.088758">
				<speed>0.000000</speed>
				<ele>169.000000</ele>
				<time>2026-08-17T04:05:58Z</time>
			</trkpt>
			<trkpt lat="30.240299" lon="120.088725">
				<speed>0.000000</speed>
				<ele>173.000000</ele>
				<time>2026-08-17T04:06:15Z</time>
			</trkpt>
			<trkpt lat="30.240296" lon="120.088706">
				<speed>0.000000</speed>
				<ele>173.000000</ele>
				<time>2026-08-17T04:06:16Z</time>
			</trkpt>
			<trkpt lat="30.240295" lon="120.088697">
				<speed>0.000000</speed>
				<ele>174.000000</ele>
				<time>2026-08-17T04:06:17Z</time>
			</trkpt>
			<trkpt lat="30.240294" lon="120.088689">
				<speed>0.000000</speed>
				<ele>174.000000</ele>
				<time>2026-08-17T04:06:18Z</time>
			</trkpt>
			<trkpt lat="30.240293" lon="120.088680">
				<speed>0.000000</speed>
				<ele>174.000000</ele>
				<time>2026-08-17T04:06:19Z</time>
			</trkpt>
			<trkpt lat="30.240295" lon="120.088656">
				<speed>0.000000</speed>
				<ele>175.000000</ele>
				<time>2026-08-17T04:06:26Z</time>
			</trkpt>
			<trkpt lat="30.240302" lon="120.088636">
				<speed>0.000000</speed>
				<ele>175.000000</ele>
				<time>2026-08-17T04:06:27Z</time>
			</trkpt>
			<trkpt lat="30.240312" lon="120.088616">
				<speed>0.000000</speed>
				<ele>177.000000</ele>
				<time>2026-08-17T04:06:34Z</time>
			</trkpt>
			<trkpt lat="30.240321" lon="120.088597">
				<speed>0.000000</speed>
				<ele>177.000000</ele>
				<time>2026-08-17T04:06:35Z</time>
			</trkpt>
			<trkpt lat="30.240324" lon="120.088593">
				<speed>0.000000</speed>
				<ele>177.000000</ele>
				<time>2026-08-17T04:06:36Z</time>
			</trkpt>
			<trkpt lat="30.240326" lon="120.088589">
				<speed>0.000000</speed>
				<ele>178.000000</ele>
				<time>2026-08-17T04:06:37Z</time>
			</trkpt>
			<trkpt lat="30.240329" lon="120.088585">
				<speed>0.000000</speed>
				<ele>178.000000</ele>
				<time>2026-08-17T04:06:38Z</time>
			</trkpt>
			<trkpt lat="30.240338" lon="120.088576">
				<speed>0.000000</speed>
				<ele>178.000000</ele>
				<time>2026-08-17T04:06:39Z</time>
			</trkpt>
			<trkpt lat="30.240342" lon="120.088574">
				<speed>0.000000</speed>
				<ele>178.000000</ele>
				<time>2026-08-17T04:06:40Z</time>
			</trkpt>
			<trkpt lat="30.240345" lon="120.088571">
				<speed>0.000000</speed>
				<ele>179.000000</ele>
				<time>2026-08-17T04:06:41Z</time>
			</trkpt>
			<trkpt lat="30.240349" lon="120.088569">
				<speed>0.000000</speed>
				<ele>179.000000</ele>
				<time>2026-08-17T04:06:42Z</time>
			</trkpt>
			<trkpt lat="30.240359" lon="120.088561">
				<speed>0.000000</speed>
				<ele>179.000000</ele>
				<time>2026-08-17T04:06:43Z</time>
			</trkpt>
			<trkpt lat="30.240362" lon="120.088558">
				<speed>0.000000</speed>
				<ele>179.000000</ele>
				<time>2026-08-17T04:06:44Z</time>
			</trkpt>
			<trkpt lat="30.240365" lon="120.088555">
				<speed>0.000000</speed>
				<ele>180.000000</ele>
				<time>2026-08-17T04:06:45Z</time>
			</trkpt>
			<trkpt lat="30.240367" lon="120.088553">
				<speed>0.000000</speed>
				<ele>180.000000</ele>
				<time>2026-08-17T04:06:46Z</time>
			</trkpt>
			<trkpt lat="30.240375" lon="120.088536">
				<speed>0.000000</speed>
				<ele>182.000000</ele>
				<time>2026-08-17T04:06:56Z</time>
			</trkpt>
			<trkpt lat="30.240383" lon="120.088515">
				<speed>0.000000</speed>
				<ele>183.000000</ele>
				<time>2026-08-17T04:06:57Z</time>
			</trkpt>
			<trkpt lat="30.240383" lon="120.088511">
				<speed>0.000000</speed>
				<ele>183.000000</ele>
				<time>2026-08-17T04:06:58Z</time>
			</trkpt>
			<trkpt lat="30.240384" lon="120.088506">
				<speed>0.000000</speed>
				<ele>183.000000</ele>
				<time>2026-08-17T04:06:59Z</time>
			</trkpt>
			<trkpt lat="30.240385" lon="120.088501">
				<speed>0.000000</speed>
				<ele>183.000000</ele>
				<time>2026-08-17T04:07:00Z</time>
			</trkpt>
			<trkpt lat="30.240385" lon="120.088497">
				<speed>0.000000</speed>
				<ele>184.000000</ele>
				<time>2026-08-17T04:07:01Z</time>
			</trkpt>
			<trkpt lat="30.240385" lon="120.088487">
				<speed>0.000000</speed>
				<ele>184.000000</ele>
				<time>2026-08-17T04:07:02Z</time>
			</trkpt>
			<trkpt lat="30.240385" lon="120.088482">
				<speed>0.000000</speed>
				<ele>184.000000</ele>
				<time>2026-08-17T04:07:03Z</time>
			</trkpt>
			<trkpt lat="30.240386" lon="120.088476">
				<speed>0.000000</speed>
				<ele>184.000000</ele>
				<time>2026-08-17T04:07:04Z</time>
			</trkpt>
			<trkpt lat="30.240386" lon="120.088471">
				<speed>0.000000</speed>
				<ele>185.000000</ele>
				<time>2026-08-17T04:07:05Z</time>
			</trkpt>
			<trkpt lat="30.240388" lon="120.088457">
				<speed>0.000000</speed>
				<ele>185.000000</ele>
				<time>2026-08-17T04:07:06Z</time>
			</trkpt>
			<trkpt lat="30.240390" lon="120.088453">
				<speed>0.000000</speed>
				<ele>185.000000</ele>
				<time>2026-08-17T04:07:07Z</time>
			</trkpt>
			<trkpt lat="30.240393" lon="120.088449">
				<speed>0.000000</speed>
				<ele>185.000000</ele>
				<time>2026-08-17T04:07:08Z</time>
			</trkpt>
			<trkpt lat="30.240395" lon="120.088445">
				<speed>0.000000</speed>
				<ele>186.000000</ele>
				<time>2026-08-17T04:07:09Z</time>
			</trkpt>
			<trkpt lat="30.240398" lon="120.088441">
				<speed>0.000000</speed>
				<ele>186.000000</ele>
				<time>2026-08-17T04:07:10Z</time>
			</trkpt>
			<trkpt lat="30.240401" lon="120.088437">
				<speed>0.000000</speed>
				<ele>186.000000</ele>
				<time>2026-08-17T04:07:11Z</time>
			</trkpt>
			<trkpt lat="30.240404" lon="120.088433">
				<speed>0.000000</speed>
				<ele>186.000000</ele>
				<time>2026-08-17T04:07:12Z</time>
			</trkpt>
			<trkpt lat="30.240407" lon="120.088421">
				<speed>0.000000</speed>
				<ele>186.000000</ele>
				<time>2026-08-17T04:07:13Z</time>
			</trkpt>
			<trkpt lat="30.240407" lon="120.088417">
				<speed>0.000000</speed>
				<ele>186.000000</ele>
				<time>2026-08-17T04:07:14Z</time>
			</trkpt>
			<trkpt lat="30.240407" lon="120.088413">
				<speed>0.000000</speed>
				<ele>186.000000</ele>
				<time>2026-08-17T04:07:15Z</time>
			</trkpt>
			<trkpt lat="30.240407" lon="120.088409">
				<speed>0.000000</speed>
				<ele>186.000000</ele>
				<time>2026-08-17T04:07:16Z</time>
			</trkpt>
			<trkpt lat="30.240409" lon="120.088402">
				<speed>0.000000</speed>
				<ele>187.000000</ele>
				<time>2026-08-17T04:07:17Z</time>
			</trkpt>
			<trkpt lat="30.240412" lon="120.088400">
				<speed>0.000000</speed>
				<ele>187.000000</ele>
				<time>2026-08-17T04:07:18Z</time>
			</trkpt>
			<trkpt lat="30.240414" lon="120.088399">
				<speed>0.000000</speed>
				<ele>187.000000</ele>
				<time>2026-08-17T04:07:19Z</time>
			</trkpt>
			<trkpt lat="30.240417" lon="120.088397">
				<speed>0.000000</speed>
				<ele>187.000000</ele>
				<time>2026-08-17T04:07:20Z</time>
			</trkpt>
			<trkpt lat="30.240429" lon="120.088396">
				<speed>0.000000</speed>
				<ele>189.000000</ele>
				<time>2026-08-17T04:07:27Z</time>
			</trkpt>
			<trkpt lat="30.240447" lon="120.088394">
				<speed>0.000000</speed>
				<ele>189.000000</ele>
				<time>2026-08-17T04:07:28Z</time>
			</trkpt>
			<trkpt lat="30.240451" lon="120.088392">
				<speed>0.000000</speed>
				<ele>190.000000</ele>
				<time>2026-08-17T04:07:29Z</time>
			</trkpt>
			<trkpt lat="30.240454" lon="120.088390">
				<speed>0.000000</speed>
				<ele>190.000000</ele>
				<time>2026-08-17T04:07:30Z</time>
			</trkpt>
			<trkpt lat="30.240458" lon="120.088389">
				<speed>0.000000</speed>
				<ele>190.000000</ele>
				<time>2026-08-17T04:07:31Z</time>
			</trkpt>
			<trkpt lat="30.240462" lon="120.088378">
				<speed>0.000000</speed>
				<ele>190.000000</ele>
				<time>2026-08-17T04:07:32Z</time>
			</trkpt>
			<trkpt lat="30.240463" lon="120.088374">
				<speed>0.000000</speed>
				<ele>190.000000</ele>
				<time>2026-08-17T04:07:33Z</time>
			</trkpt>
			<trkpt lat="30.240463" lon="120.088369">
				<speed>0.000000</speed>
				<ele>190.000000</ele>
				<time>2026-08-17T04:07:34Z</time>
			</trkpt>
			<trkpt lat="30.240464" lon="120.088365">
				<speed>0.000000</speed>
				<ele>190.000000</ele>
				<time>2026-08-17T04:07:35Z</time>
			</trkpt>
			<trkpt lat="30.240467" lon="120.088350">
				<speed>0.000000</speed>
				<ele>190.000000</ele>
				<time>2026-08-17T04:07:36Z</time>
			</trkpt>
			<trkpt lat="30.240469" lon="120.088345">
				<speed>0.000000</speed>
				<ele>191.000000</ele>
				<time>2026-08-17T04:07:37Z</time>
			</trkpt>
			<trkpt lat="30.240470" lon="120.088341">
				<speed>0.000000</speed>
				<ele>191.000000</ele>
				<time>2026-08-17T04:07:38Z</time>
			</trkpt>
			<trkpt lat="30.240472" lon="120.088336">
				<speed>0.000000</speed>
				<ele>191.000000</ele>
				<time>2026-08-17T04:07:39Z</time>
			</trkpt>
			<trkpt lat="30.240476" lon="120.088321">
				<speed>0.000000</speed>
				<ele>191.000000</ele>
				<time>2026-08-17T04:07:40Z</time>
			</trkpt>
			<trkpt lat="30.240483" lon="120.088299">
				<speed>0.000000</speed>
				<ele>194.000000</ele>
				<time>2026-08-17T04:07:52Z</time>
			</trkpt>
			<trkpt lat="30.240494" lon="120.088271">
				<speed>0.000000</speed>
				<ele>195.000000</ele>
				<time>2026-08-17T04:07:53Z</time>
			</trkpt>
			<trkpt lat="30.240497" lon="120.088266">
				<speed>0.000000</speed>
				<ele>195.000000</ele>
				<time>2026-08-17T04:07:54Z</time>
			</trkpt>
			<trkpt lat="30.240501" lon="120.088260">
				<speed>0.000000</speed>
				<ele>195.000000</ele>
				<time>2026-08-17T04:07:55Z</time>
			</trkpt>
			<trkpt lat="30.240504" lon="120.088255">
				<speed>0.000000</speed>
				<ele>195.000000</ele>
				<time>2026-08-17T04:07:56Z</time>
			</trkpt>
			<trkpt lat="30.240510" lon="120.088233">
				<speed>0.000000</speed>
				<ele>198.000000</ele>
				<time>2026-08-17T04:08:06Z</time>
			</trkpt>
			<trkpt lat="30.240510" lon="120.088212">
				<speed>0.000000</speed>
				<ele>198.000000</ele>
				<time>2026-08-17T04:08:07Z</time>
			</trkpt>
			<trkpt lat="30.240508" lon="120.088208">
				<speed>0.000000</speed>
				<ele>198.000000</ele>
				<time>2026-08-17T04:08:08Z</time>
			</trkpt>
			<trkpt lat="30.240507" lon="120.088203">
				<speed>0.000000</speed>
				<ele>199.000000</ele>
				<time>2026-08-17T04:08:09Z</time>
			</trkpt>
			<trkpt lat="30.240506" lon="120.088198">
				<speed>0.000000</speed>
				<ele>199.000000</ele>
				<time>2026-08-17T04:08:10Z</time>
			</trkpt>
			<trkpt lat="30.240499" lon="120.088188">
				<speed>0.000000</speed>
				<ele>199.000000</ele>
				<time>2026-08-17T04:08:11Z</time>
			</trkpt>
			<trkpt lat="30.240498" lon="120.088185">
				<speed>0.000000</speed>
				<ele>199.000000</ele>
				<time>2026-08-17T04:08:12Z</time>
			</trkpt>
			<trkpt lat="30.240496" lon="120.088183">
				<speed>0.000000</speed>
				<ele>200.000000</ele>
				<time>2026-08-17T04:08:13Z</time>
			</trkpt>
			<trkpt lat="30.240495" lon="120.088181">
				<speed>0.000000</speed>
				<ele>200.000000</ele>
				<time>2026-08-17T04:08:14Z</time>
			</trkpt>
			<trkpt lat="30.240490" lon="120.088170">
				<speed>0.000000</speed>
				<ele>200.000000</ele>
				<time>2026-08-17T04:08:15Z</time>
			</trkpt>
			<trkpt lat="30.240493" lon="120.088142">
				<speed>0.000000</speed>
				<ele>205.000000</ele>
				<time>2026-08-17T04:08:37Z</time>
			</trkpt>
			<trkpt lat="30.240501" lon="120.088117">
				<speed>0.000000</speed>
				<ele>205.000000</ele>
				<time>2026-08-17T04:08:38Z</time>
			</trkpt>
			<trkpt lat="30.240504" lon="120.088112">
				<speed>0.000000</speed>
				<ele>205.000000</ele>
				<time>2026-08-17T04:08:39Z</time>
			</trkpt>
			<trkpt lat="30.240507" lon="120.088108">
				<speed>0.000000</speed>
				<ele>205.000000</ele>
				<time>2026-08-17T04:08:40Z</time>
			</trkpt>
			<trkpt lat="30.240510" lon="120.088103">
				<speed>0.000000</speed>
				<ele>205.000000</ele>
				<time>2026-08-17T04:08:41Z</time>
			</trkpt>
			<trkpt lat="30.240521" lon="120.088094">
				<speed>0.000000</speed>
				<ele>205.000000</ele>
				<time>2026-08-17T04:08:42Z</time>
			</trkpt>
			<trkpt lat="30.240523" lon="120.088093">
				<speed>0.000000</speed>
				<ele>205.000000</ele>
				<time>2026-08-17T04:08:43Z</time>
			</trkpt>
			<trkpt lat="30.240526" lon="120.088091">
				<speed>0.000000</speed>
				<ele>205.000000</ele>
				<time>2026-08-17T04:08:44Z</time>
			</trkpt>
			<trkpt lat="30.240529" lon="120.088090">
				<speed>0.000000</speed>
				<ele>206.000000</ele>
				<time>2026-08-17T04:08:45Z</time>
			</trkpt>
			<trkpt lat="30.240543" lon="120.088084">
				<speed>0.000000</speed>
				<ele>206.000000</ele>
				<time>2026-08-17T04:08:46Z</time>
			</trkpt>
			<trkpt lat="30.240548" lon="120.088082">
				<speed>0.000000</speed>
				<ele>206.000000</ele>
				<time>2026-08-17T04:08:47Z</time>
			</trkpt>
			<trkpt lat="30.240552" lon="120.088081">
				<speed>0.000000</speed>
				<ele>206.000000</ele>
				<time>2026-08-17T04:08:48Z</time>
			</trkpt>
			<trkpt lat="30.240557" lon="120.088079">
				<speed>0.000000</speed>
				<ele>206.000000</ele>
				<time>2026-08-17T04:08:49Z</time>
			</trkpt>
			<trkpt lat="30.240570" lon="120.088072">
				<speed>0.000000</speed>
				<ele>206.000000</ele>
				<time>2026-08-17T04:08:50Z</time>
			</trkpt>
			<trkpt lat="30.240574" lon="120.088070">
				<speed>0.000000</speed>
				<ele>206.000000</ele>
				<time>2026-08-17T04:08:51Z</time>
			</trkpt>
			<trkpt lat="30.240579" lon="120.088067">
				<speed>0.000000</speed>
				<ele>206.000000</ele>
				<time>2026-08-17T04:08:52Z</time>
			</trkpt>
			<trkpt lat="30.240583" lon="120.088065">
				<speed>0.000000</speed>
				<ele>207.000000</ele>
				<time>2026-08-17T04:08:53Z</time>
			</trkpt>
			<trkpt lat="30.240595" lon="120.088058">
				<speed>0.000000</speed>
				<ele>207.000000</ele>
				<time>2026-08-17T04:08:54Z</time>
			</trkpt>
			<trkpt lat="30.240596" lon="120.088056">
				<speed>0.000000</speed>
				<ele>207.000000</ele>
				<time>2026-08-17T04:08:55Z</time>
			</trkpt>
			<trkpt lat="30.240598" lon="120.088055">
				<speed>0.000000</speed>
				<ele>207.000000</ele>
				<time>2026-08-17T04:08:56Z</time>
			</trkpt>
			<trkpt lat="30.240599" lon="120.088053">
				<speed>0.000000</speed>
				<ele>208.000000</ele>
				<time>2026-08-17T04:08:57Z</time>
			</trkpt>
			<trkpt lat="30.240604" lon="120.088044">
				<speed>0.000000</speed>
				<ele>208.000000</ele>
				<time>2026-08-17T04:08:58Z</time>
			</trkpt>
			<trkpt lat="30.240604" lon="120.088041">
				<speed>0.000000</speed>
				<ele>208.000000</ele>
				<time>2026-08-17T04:08:59Z</time>
			</trkpt>
			<trkpt lat="30.240605" lon="120.088038">
				<speed>0.000000</speed>
				<ele>208.000000</ele>
				<time>2026-08-17T04:09:00Z</time>
			</trkpt>
			<trkpt lat="30.240605" lon="120.088035">
				<speed>0.000000</speed>
				<ele>209.000000</ele>
				<time>2026-08-17T04:09:01Z</time>
			</trkpt>
			<trkpt lat="30.240605" lon="120.088031">
				<speed>0.000000</speed>
				<ele>209.000000</ele>
				<time>2026-08-17T04:09:02Z</time>
			</trkpt>
			<trkpt lat="30.240604" lon="120.088023">
				<speed>0.000000</speed>
				<ele>209.000000</ele>
				<time>2026-08-17T04:09:03Z</time>
			</trkpt>
			<trkpt lat="30.240602" lon="120.088018">
				<speed>0.000000</speed>
				<ele>209.000000</ele>
				<time>2026-08-17T04:09:04Z</time>
			</trkpt>
			<trkpt lat="30.240600" lon="120.088013">
				<speed>0.000000</speed>
				<ele>210.000000</ele>
				<time>2026-08-17T04:09:05Z</time>
			</trkpt>
			<trkpt lat="30.240598" lon="120.088008">
				<speed>0.000000</speed>
				<ele>210.000000</ele>
				<time>2026-08-17T04:09:06Z</time>
			</trkpt>
			<trkpt lat="30.240591" lon="120.087995">
				<speed>0.000000</speed>
				<ele>210.000000</ele>
				<time>2026-08-17T04:09:07Z</time>
			</trkpt>
			<trkpt lat="30.240590" lon="120.087991">
				<speed>0.000000</speed>
				<ele>210.000000</ele>
				<time>2026-08-17T04:09:08Z</time>
			</trkpt>
			<trkpt lat="30.240589" lon="120.087987">
				<speed>0.000000</speed>
				<ele>211.000000</ele>
				<time>2026-08-17T04:09:09Z</time>
			</trkpt>
			<trkpt lat="30.240588" lon="120.087982">
				<speed>0.000000</speed>
				<ele>211.000000</ele>
				<time>2026-08-17T04:09:10Z</time>
			</trkpt>
			<trkpt lat="30.240587" lon="120.087977">
				<speed>0.000000</speed>
				<ele>211.000000</ele>
				<time>2026-08-17T04:09:11Z</time>
			</trkpt>
			<trkpt lat="30.240587" lon="120.087972">
				<speed>0.000000</speed>
				<ele>211.000000</ele>
				<time>2026-08-17T04:09:12Z</time>
			</trkpt>
			<trkpt lat="30.240587" lon="120.087967">
				<speed>0.000000</speed>
				<ele>212.000000</ele>
				<time>2026-08-17T04:09:13Z</time>
			</trkpt>
			<trkpt lat="30.240587" lon="120.087965">
				<speed>0.000000</speed>
				<ele>212.000000</ele>
				<time>2026-08-17T04:09:14Z</time>
			</trkpt>
			<trkpt lat="30.240588" lon="120.087962">
				<speed>0.000000</speed>
				<ele>212.000000</ele>
				<time>2026-08-17T04:09:15Z</time>
			</trkpt>
			<trkpt lat="30.240589" lon="120.087959">
				<speed>0.000000</speed>
				<ele>212.000000</ele>
				<time>2026-08-17T04:09:16Z</time>
			</trkpt>
			<trkpt lat="30.240590" lon="120.087957">
				<speed>0.000000</speed>
				<ele>212.000000</ele>
				<time>2026-08-17T04:09:17Z</time>
			</trkpt>
			<trkpt lat="30.240591" lon="120.087955">
				<speed>0.000000</speed>
				<ele>212.000000</ele>
				<time>2026-08-17T04:09:18Z</time>
			</trkpt>
			<trkpt lat="30.240600" lon="120.087939">
				<speed>0.000000</speed>
				<ele>212.000000</ele>
				<time>2026-08-17T04:09:19Z</time>
			</trkpt>
			<trkpt lat="30.240603" lon="120.087935">
				<speed>0.000000</speed>
				<ele>212.000000</ele>
				<time>2026-08-17T04:09:20Z</time>
			</trkpt>
			<trkpt lat="30.240607" lon="120.087932">
				<speed>0.000000</speed>
				<ele>213.000000</ele>
				<time>2026-08-17T04:09:21Z</time>
			</trkpt>
			<trkpt lat="30.240610" lon="120.087928">
				<speed>0.000000</speed>
				<ele>213.000000</ele>
				<time>2026-08-17T04:09:22Z</time>
			</trkpt>
			<trkpt lat="30.240622" lon="120.087919">
				<speed>0.000000</speed>
				<ele>213.000000</ele>
				<time>2026-08-17T04:09:23Z</time>
			</trkpt>
			<trkpt lat="30.240625" lon="120.087916">
				<speed>0.000000</speed>
				<ele>213.000000</ele>
				<time>2026-08-17T04:09:24Z</time>
			</trkpt>
			<trkpt lat="30.240629" lon="120.087913">
				<speed>0.000000</speed>
				<ele>214.000000</ele>
				<time>2026-08-17T04:09:25Z</time>
			</trkpt>
			<trkpt lat="30.240633" lon="120.087910">
				<speed>0.000000</speed>
				<ele>214.000000</ele>
				<time>2026-08-17T04:09:26Z</time>
			</trkpt>
			<trkpt lat="30.240642" lon="120.087899">
				<speed>0.000000</speed>
				<ele>214.000000</ele>
				<time>2026-08-17T04:09:27Z</time>
			</trkpt>
			<trkpt lat="30.240643" lon="120.087898">
				<speed>0.000000</speed>
				<ele>214.000000</ele>
				<time>2026-08-17T04:09:28Z</time>
			</trkpt>
			<trkpt lat="30.240643" lon="120.087896">
				<speed>0.000000</speed>
				<ele>215.000000</ele>
				<time>2026-08-17T04:09:29Z</time>
			</trkpt>
			<trkpt lat="30.240643" lon="120.087895">
				<speed>0.000000</speed>
				<ele>215.000000</ele>
				<time>2026-08-17T04:09:30Z</time>
			</trkpt>
			<trkpt lat="30.240643" lon="120.087893">
				<speed>0.000000</speed>
				<ele>215.000000</ele>
				<time>2026-08-17T04:09:31Z</time>
			</trkpt>
			<trkpt lat="30.240644" lon="120.087891">
				<speed>0.000000</speed>
				<ele>215.000000</ele>
				<time>2026-08-17T04:09:32Z</time>
			</trkpt>
			<trkpt lat="30.240642" lon="120.087879">
				<speed>0.000000</speed>
				<ele>216.000000</ele>
				<time>2026-08-17T04:09:33Z</time>
			</trkpt>
			<trkpt lat="30.240640" lon="120.087875">
				<speed>0.000000</speed>
				<ele>216.000000</ele>
				<time>2026-08-17T04:09:34Z</time>
			</trkpt>
			<trkpt lat="30.240639" lon="120.087872">
				<speed>0.000000</speed>
				<ele>217.000000</ele>
				<time>2026-08-17T04:09:35Z</time>
			</trkpt>
			<trkpt lat="30.240637" lon="120.087868">
				<speed>0.000000</speed>
				<ele>217.000000</ele>
				<time>2026-08-17T04:09:36Z</time>
			</trkpt>
			<trkpt lat="30.240627" lon="120.087858">
				<speed>0.000000</speed>
				<ele>218.000000</ele>
				<time>2026-08-17T04:09:37Z</time>
			</trkpt>
			<trkpt lat="30.240623" lon="120.087854">
				<speed>0.000000</speed>
				<ele>218.000000</ele>
				<time>2026-08-17T04:09:38Z</time>
			</trkpt>
			<trkpt lat="30.240619" lon="120.087851">
				<speed>0.000000</speed>
				<ele>218.000000</ele>
				<time>2026-08-17T04:09:39Z</time>
			</trkpt>
			<trkpt lat="30.240615" lon="120.087848">
				<speed>0.000000</speed>
				<ele>218.000000</ele>
				<time>2026-08-17T04:09:40Z</time>
			</trkpt>
			<trkpt lat="30.240623" lon="120.087833">
				<speed>0.000000</speed>
				<ele>222.000000</ele>
				<time>2026-08-17T04:09:53Z</time>
			</trkpt>
			<trkpt lat="30.240627" lon="120.087811">
				<speed>0.000000</speed>
				<ele>226.000000</ele>
				<time>2026-08-17T04:10:34Z</time>
			</trkpt>
			<trkpt lat="30.240632" lon="120.087784">
				<speed>0.000000</speed>
				<ele>226.000000</ele>
				<time>2026-08-17T04:10:35Z</time>
			</trkpt>
			<trkpt lat="30.240634" lon="120.087778">
				<speed>0.000000</speed>
				<ele>226.000000</ele>
				<time>2026-08-17T04:10:36Z</time>
			</trkpt>
			<trkpt lat="30.240635" lon="120.087772">
				<speed>0.000000</speed>
				<ele>226.000000</ele>
				<time>2026-08-17T04:10:37Z</time>
			</trkpt>
			<trkpt lat="30.240637" lon="120.087767">
				<speed>0.000000</speed>
				<ele>226.000000</ele>
				<time>2026-08-17T04:10:38Z</time>
			</trkpt>
			<trkpt lat="30.240646" lon="120.087752">
				<speed>0.000000</speed>
				<ele>226.000000</ele>
				<time>2026-08-17T04:10:39Z</time>
			</trkpt>
			<trkpt lat="30.240649" lon="120.087747">
				<speed>0.000000</speed>
				<ele>226.000000</ele>
				<time>2026-08-17T04:10:40Z</time>
			</trkpt>
			<trkpt lat="30.240653" lon="120.087742">
				<speed>0.000000</speed>
				<ele>227.000000</ele>
				<time>2026-08-17T04:10:41Z</time>
			</trkpt>
			<trkpt lat="30.240657" lon="120.087737">
				<speed>0.000000</speed>
				<ele>227.000000</ele>
				<time>2026-08-17T04:10:42Z</time>
			</trkpt>
			<trkpt lat="30.240667" lon="120.087722">
				<speed>0.000000</speed>
				<ele>227.000000</ele>
				<time>2026-08-17T04:10:43Z</time>
			</trkpt>
			<trkpt lat="30.240669" lon="120.087718">
				<speed>0.000000</speed>
				<ele>227.000000</ele>
				<time>2026-08-17T04:10:44Z</time>
			</trkpt>
			<trkpt lat="30.240671" lon="120.087713">
				<speed>0.000000</speed>
				<ele>227.000000</ele>
				<time>2026-08-17T04:10:45Z</time>
			</trkpt>
			<trkpt lat="30.240673" lon="120.087709">
				<speed>0.000000</speed>
				<ele>227.000000</ele>
				<time>2026-08-17T04:10:46Z</time>
			</trkpt>
			<trkpt lat="30.240672" lon="120.087697">
				<speed>0.000000</speed>
				<ele>227.000000</ele>
				<time>2026-08-17T04:10:47Z</time>
			</trkpt>
			<trkpt lat="30.240670" lon="120.087695">
				<speed>0.000000</speed>
				<ele>227.000000</ele>
				<time>2026-08-17T04:10:48Z</time>
			</trkpt>
			<trkpt lat="30.240669" lon="120.087693">
				<speed>0.000000</speed>
				<ele>228.000000</ele>
				<time>2026-08-17T04:10:49Z</time>
			</trkpt>
			<trkpt lat="30.240668" lon="120.087691">
				<speed>0.000000</speed>
				<ele>228.000000</ele>
				<time>2026-08-17T04:10:50Z</time>
			</trkpt>
			<trkpt lat="30.240659" lon="120.087679">
				<speed>0.000000</speed>
				<ele>229.000000</ele>
				<time>2026-08-17T04:10:51Z</time>
			</trkpt>
			<trkpt lat="30.240657" lon="120.087675">
				<speed>0.000000</speed>
				<ele>229.000000</ele>
				<time>2026-08-17T04:10:52Z</time>
			</trkpt>
			<trkpt lat="30.240655" lon="120.087670">
				<speed>0.000000</speed>
				<ele>230.000000</ele>
				<time>2026-08-17T04:10:53Z</time>
			</trkpt>
			<trkpt lat="30.240654" lon="120.087666">
				<speed>0.000000</speed>
				<ele>230.000000</ele>
				<time>2026-08-17T04:10:54Z</time>
			</trkpt>
			<trkpt lat="30.240648" lon="120.087653">
				<speed>0.000000</speed>
				<ele>230.000000</ele>
				<time>2026-08-17T04:10:55Z</time>
			</trkpt>
			<trkpt lat="30.240646" lon="120.087649">
				<speed>0.000000</speed>
				<ele>230.000000</ele>
				<time>2026-08-17T04:10:56Z</time>
			</trkpt>
			<trkpt lat="30.240644" lon="120.087645">
				<speed>0.000000</speed>
				<ele>231.000000</ele>
				<time>2026-08-17T04:10:57Z</time>
			</trkpt>
			<trkpt lat="30.240642" lon="120.087641">
				<speed>0.000000</speed>
				<ele>231.000000</ele>
				<time>2026-08-17T04:10:58Z</time>
			</trkpt>
			<trkpt lat="30.240635" lon="120.087629">
				<speed>0.000000</speed>
				<ele>231.000000</ele>
				<time>2026-08-17T04:10:59Z</time>
			</trkpt>
			<trkpt lat="30.240633" lon="120.087624">
				<speed>0.000000</speed>
				<ele>231.000000</ele>
				<time>2026-08-17T04:11:00Z</time>
			</trkpt>
			<trkpt lat="30.240630" lon="120.087620">
				<speed>0.000000</speed>
				<ele>232.000000</ele>
				<time>2026-08-17T04:11:01Z</time>
			</trkpt>
			<trkpt lat="30.240628" lon="120.087615">
				<speed>0.000000</speed>
				<ele>232.000000</ele>
				<time>2026-08-17T04:11:02Z</time>
			</trkpt>
			<trkpt lat="30.240622" lon="120.087602">
				<speed>0.000000</speed>
				<ele>232.000000</ele>
				<time>2026-08-17T04:11:03Z</time>
			</trkpt>
			<trkpt lat="30.240622" lon="120.087600">
				<speed>0.000000</speed>
				<ele>232.000000</ele>
				<time>2026-08-17T04:11:04Z</time>
			</trkpt>
			<trkpt lat="30.240621" lon="120.087597">
				<speed>0.000000</speed>
				<ele>233.000000</ele>
				<time>2026-08-17T04:11:05Z</time>
			</trkpt>
			<trkpt lat="30.240620" lon="120.087595">
				<speed>0.000000</speed>
				<ele>233.000000</ele>
				<time>2026-08-17T04:11:06Z</time>
			</trkpt>
			<trkpt lat="30.240619" lon="120.087593">
				<speed>0.000000</speed>
				<ele>234.000000</ele>
				<time>2026-08-17T04:11:07Z</time>
			</trkpt>
			<trkpt lat="30.240619" lon="120.087579">
				<speed>0.000000</speed>
				<ele>234.000000</ele>
				<time>2026-08-17T04:11:08Z</time>
			</trkpt>
			<trkpt lat="30.240620" lon="120.087575">
				<speed>0.000000</speed>
				<ele>235.000000</ele>
				<time>2026-08-17T04:11:09Z</time>
			</trkpt>
			<trkpt lat="30.240622" lon="120.087572">
				<speed>0.000000</speed>
				<ele>235.000000</ele>
				<time>2026-08-17T04:11:10Z</time>
			</trkpt>
			<trkpt lat="30.240624" lon="120.087568">
				<speed>0.000000</speed>
				<ele>235.000000</ele>
				<time>2026-08-17T04:11:11Z</time>
			</trkpt>
			<trkpt lat="30.240633" lon="120.087559">
				<speed>0.000000</speed>
				<ele>235.000000</ele>
				<time>2026-08-17T04:11:12Z</time>
			</trkpt>
			<trkpt lat="30.240636" lon="120.087555">
				<speed>0.000000</speed>
				<ele>236.000000</ele>
				<time>2026-08-17T04:11:13Z</time>
			</trkpt>
			<trkpt lat="30.240639" lon="120.087551">
				<speed>0.000000</speed>
				<ele>236.000000</ele>
				<time>2026-08-17T04:11:14Z</time>
			</trkpt>
			<trkpt lat="30.240643" lon="120.087547">
				<speed>0.000000</speed>
				<ele>236.000000</ele>
				<time>2026-08-17T04:11:15Z</time>
			</trkpt>
			<trkpt lat="30.240652" lon="120.087535">
				<speed>0.000000</speed>
				<ele>236.000000</ele>
				<time>2026-08-17T04:11:16Z</time>
			</trkpt>
			<trkpt lat="30.240654" lon="120.087531">
				<speed>0.000000</speed>
				<ele>237.000000</ele>
				<time>2026-08-17T04:11:17Z</time>
			</trkpt>
			<trkpt lat="30.240656" lon="120.087527">
				<speed>0.000000</speed>
				<ele>237.000000</ele>
				<time>2026-08-17T04:11:18Z</time>
			</trkpt>
			<trkpt lat="30.240658" lon="120.087522">
				<speed>0.000000</speed>
				<ele>237.000000</ele>
				<time>2026-08-17T04:11:19Z</time>
			</trkpt>
			<trkpt lat="30.240660" lon="120.087508">
				<speed>0.000000</speed>
				<ele>237.000000</ele>
				<time>2026-08-17T04:11:20Z</time>
			</trkpt>
			<trkpt lat="30.240654" lon="120.087491">
				<speed>0.000000</speed>
				<ele>239.000000</ele>
				<time>2026-08-17T04:11:26Z</time>
			</trkpt>
			<trkpt lat="30.240646" lon="120.087477">
				<speed>0.000000</speed>
				<ele>239.000000</ele>
				<time>2026-08-17T04:11:27Z</time>
			</trkpt>
			<trkpt lat="30.240642" lon="120.087474">
				<speed>0.000000</speed>
				<ele>239.000000</ele>
				<time>2026-08-17T04:11:28Z</time>
			</trkpt>
			<trkpt lat="30.240639" lon="120.087470">
				<speed>0.000000</speed>
				<ele>240.000000</ele>
				<time>2026-08-17T04:11:29Z</time>
			</trkpt>
			<trkpt lat="30.240636" lon="120.087467">
				<speed>0.000000</speed>
				<ele>240.000000</ele>
				<time>2026-08-17T04:11:30Z</time>
			</trkpt>
			<trkpt lat="30.240625" lon="120.087458">
				<speed>0.000000</speed>
				<ele>240.000000</ele>
				<time>2026-08-17T04:11:31Z</time>
			</trkpt>
			<trkpt lat="30.240623" lon="120.087454">
				<speed>0.000000</speed>
				<ele>240.000000</ele>
				<time>2026-08-17T04:11:32Z</time>
			</trkpt>
			<trkpt lat="30.240620" lon="120.087450">
				<speed>0.000000</speed>
				<ele>241.000000</ele>
				<time>2026-08-17T04:11:33Z</time>
			</trkpt>
			<trkpt lat="30.240617" lon="120.087446">
				<speed>0.000000</speed>
				<ele>241.000000</ele>
				<time>2026-08-17T04:11:34Z</time>
			</trkpt>
			<trkpt lat="30.240614" lon="120.087437">
				<speed>0.000000</speed>
				<ele>241.000000</ele>
				<time>2026-08-17T04:11:35Z</time>
			</trkpt>
			<trkpt lat="30.240624" lon="120.087419">
				<speed>0.000000</speed>
				<ele>246.000000</ele>
				<time>2026-08-17T04:12:18Z</time>
			</trkpt>
			<trkpt lat="30.240642" lon="120.087399">
				<speed>0.000000</speed>
				<ele>248.000000</ele>
				<time>2026-08-17T04:12:35Z</time>
			</trkpt>
			<trkpt lat="30.240662" lon="120.087374">
				<speed>0.000000</speed>
				<ele>248.000000</ele>
				<time>2026-08-17T04:12:36Z</time>
			</trkpt>
			<trkpt lat="30.240664" lon="120.087368">
				<speed>0.000000</speed>
				<ele>249.000000</ele>
				<time>2026-08-17T04:12:37Z</time>
			</trkpt>
			<trkpt lat="30.240666" lon="120.087362">
				<speed>0.000000</speed>
				<ele>249.000000</ele>
				<time>2026-08-17T04:12:38Z</time>
			</trkpt>
			<trkpt lat="30.240668" lon="120.087356">
				<speed>0.000000</speed>
				<ele>249.000000</ele>
				<time>2026-08-17T04:12:39Z</time>
			</trkpt>
			<trkpt lat="30.240671" lon="120.087340">
				<speed>0.000000</speed>
				<ele>249.000000</ele>
				<time>2026-08-17T04:12:40Z</time>
			</trkpt>
			<trkpt lat="30.240671" lon="120.087335">
				<speed>0.000000</speed>
				<ele>249.000000</ele>
				<time>2026-08-17T04:12:41Z</time>
			</trkpt>
			<trkpt lat="30.240671" lon="120.087330">
				<speed>0.000000</speed>
				<ele>249.000000</ele>
				<time>2026-08-17T04:12:42Z</time>
			</trkpt>
			<trkpt lat="30.240672" lon="120.087326">
				<speed>0.000000</speed>
				<ele>249.000000</ele>
				<time>2026-08-17T04:12:43Z</time>
			</trkpt>
			<trkpt lat="30.240672" lon="120.087318">
				<speed>0.000000</speed>
				<ele>249.000000</ele>
				<time>2026-08-17T04:12:44Z</time>
			</trkpt>
			<trkpt lat="30.240671" lon="120.087315">
				<speed>0.000000</speed>
				<ele>249.000000</ele>
				<time>2026-08-17T04:12:45Z</time>
			</trkpt>
			<trkpt lat="30.240670" lon="120.087311">
				<speed>0.000000</speed>
				<ele>249.000000</ele>
				<time>2026-08-17T04:12:46Z</time>
			</trkpt>
			<trkpt lat="30.240669" lon="120.087307">
				<speed>0.000000</speed>
				<ele>249.000000</ele>
				<time>2026-08-17T04:12:47Z</time>
			</trkpt>
			<trkpt lat="30.240665" lon="120.087297">
				<speed>0.000000</speed>
				<ele>249.000000</ele>
				<time>2026-08-17T04:12:48Z</time>
			</trkpt>
			<trkpt lat="30.240659" lon="120.087282">
				<speed>0.000000</speed>
				<ele>252.000000</ele>
				<time>2026-08-17T04:12:57Z</time>
			</trkpt>
			<trkpt lat="30.240651" lon="120.087262">
				<speed>0.000000</speed>
				<ele>252.000000</ele>
				<time>2026-08-17T04:12:58Z</time>
			</trkpt>
			<trkpt lat="30.240644" lon="120.087235">
				<speed>0.000000</speed>
				<ele>254.000000</ele>
				<time>2026-08-17T04:13:08Z</time>
			</trkpt>
			<trkpt lat="30.240638" lon="120.087210">
				<speed>0.000000</speed>
				<ele>255.000000</ele>
				<time>2026-08-17T04:13:09Z</time>
			</trkpt>
			<trkpt lat="30.240637" lon="120.087204">
				<speed>0.000000</speed>
				<ele>255.000000</ele>
				<time>2026-08-17T04:13:10Z</time>
			</trkpt>
			<trkpt lat="30.240636" lon="120.087198">
				<speed>0.000000</speed>
				<ele>255.000000</ele>
				<time>2026-08-17T04:13:11Z</time>
			</trkpt>
			<trkpt lat="30.240636" lon="120.087192">
				<speed>0.000000</speed>
				<ele>255.000000</ele>
				<time>2026-08-17T04:13:12Z</time>
			</trkpt>
			<trkpt lat="30.240637" lon="120.087182">
				<speed>0.000000</speed>
				<ele>256.000000</ele>
				<time>2026-08-17T04:13:13Z</time>
			</trkpt>
			<trkpt lat="30.240638" lon="120.087177">
				<speed>0.000000</speed>
				<ele>256.000000</ele>
				<time>2026-08-17T04:13:14Z</time>
			</trkpt>
			<trkpt lat="30.240639" lon="120.087171">
				<speed>0.000000</speed>
				<ele>256.000000</ele>
				<time>2026-08-17T04:13:15Z</time>
			</trkpt>
			<trkpt lat="30.240640" lon="120.087166">
				<speed>0.000000</speed>
				<ele>256.000000</ele>
				<time>2026-08-17T04:13:16Z</time>
			</trkpt>
			<trkpt lat="30.240640" lon="120.087151">
				<speed>0.000000</speed>
				<ele>257.000000</ele>
				<time>2026-08-17T04:13:17Z</time>
			</trkpt>
			<trkpt lat="30.240641" lon="120.087148">
				<speed>0.000000</speed>
				<ele>257.000000</ele>
				<time>2026-08-17T04:13:18Z</time>
			</trkpt>
			<trkpt lat="30.240641" lon="120.087145">
				<speed>0.000000</speed>
				<ele>257.000000</ele>
				<time>2026-08-17T04:13:19Z</time>
			</trkpt>
			<trkpt lat="30.240642" lon="120.087142">
				<speed>0.000000</speed>
				<ele>257.000000</ele>
				<time>2026-08-17T04:13:20Z</time>
			</trkpt>
			<trkpt lat="30.240642" lon="120.087139">
				<speed>0.000000</speed>
				<ele>258.000000</ele>
				<time>2026-08-17T04:13:21Z</time>
			</trkpt>
			<trkpt lat="30.240643" lon="120.087136">
				<speed>0.000000</speed>
				<ele>258.000000</ele>
				<time>2026-08-17T04:13:22Z</time>
			</trkpt>
			<trkpt lat="30.240648" lon="120.087124">
				<speed>0.000000</speed>
				<ele>258.000000</ele>
				<time>2026-08-17T04:13:23Z</time>
			</trkpt>
			<trkpt lat="30.240649" lon="120.087120">
				<speed>0.000000</speed>
				<ele>258.000000</ele>
				<time>2026-08-17T04:13:24Z</time>
			</trkpt>
			<trkpt lat="30.240651" lon="120.087116">
				<speed>0.000000</speed>
				<ele>259.000000</ele>
				<time>2026-08-17T04:13:25Z</time>
			</trkpt>
			<trkpt lat="30.240652" lon="120.087113">
				<speed>0.000000</speed>
				<ele>259.000000</ele>
				<time>2026-08-17T04:13:26Z</time>
			</trkpt>
			<trkpt lat="30.240654" lon="120.087109">
				<speed>0.000000</speed>
				<ele>259.000000</ele>
				<time>2026-08-17T04:13:27Z</time>
			</trkpt>
			<trkpt lat="30.240659" lon="120.087094">
				<speed>0.000000</speed>
				<ele>259.000000</ele>
				<time>2026-08-17T04:13:28Z</time>
			</trkpt>
			<trkpt lat="30.240660" lon="120.087090">
				<speed>0.000000</speed>
				<ele>260.000000</ele>
				<time>2026-08-17T04:13:29Z</time>
			</trkpt>
			<trkpt lat="30.240661" lon="120.087085">
				<speed>0.000000</speed>
				<ele>260.000000</ele>
				<time>2026-08-17T04:13:30Z</time>
			</trkpt>
			<trkpt lat="30.240663" lon="120.087081">
				<speed>0.000000</speed>
				<ele>260.000000</ele>
				<time>2026-08-17T04:13:31Z</time>
			</trkpt>
			<trkpt lat="30.240667" lon="120.087070">
				<speed>0.000000</speed>
				<ele>260.000000</ele>
				<time>2026-08-17T04:13:32Z</time>
			</trkpt>
			<trkpt lat="30.240669" lon="120.087066">
				<speed>0.000000</speed>
				<ele>261.000000</ele>
				<time>2026-08-17T04:13:33Z</time>
			</trkpt>
			<trkpt lat="30.240671" lon="120.087063">
				<speed>0.000000</speed>
				<ele>261.000000</ele>
				<time>2026-08-17T04:13:34Z</time>
			</trkpt>
			<trkpt lat="30.240673" lon="120.087060">
				<speed>0.000000</speed>
				<ele>261.000000</ele>
				<time>2026-08-17T04:13:35Z</time>
			</trkpt>
			<trkpt lat="30.240679" lon="120.087052">
				<speed>0.000000</speed>
				<ele>261.000000</ele>
				<time>2026-08-17T04:13:36Z</time>
			</trkpt>
			<trkpt lat="30.240681" lon="120.087049">
				<speed>0.000000</speed>
				<ele>262.000000</ele>
				<time>2026-08-17T04:13:37Z</time>
			</trkpt>
			<trkpt lat="30.240683" lon="120.087046">
				<speed>0.000000</speed>
				<ele>262.000000</ele>
				<time>2026-08-17T04:13:38Z</time>
			</trkpt>
			<trkpt lat="30.240685" lon="120.087043">
				<speed>0.000000</speed>
				<ele>262.000000</ele>
				<time>2026-08-17T04:13:39Z</time>
			</trkpt>
			<trkpt lat="30.240689" lon="120.087031">
				<speed>0.000000</speed>
				<ele>262.000000</ele>
				<time>2026-08-17T04:13:40Z</time>
			</trkpt>
			<trkpt lat="30.240690" lon="120.087026">
				<speed>0.000000</speed>
				<ele>263.000000</ele>
				<time>2026-08-17T04:13:41Z</time>
			</trkpt>
			<trkpt lat="30.240692" lon="120.087022">
				<speed>0.000000</speed>
				<ele>263.000000</ele>
				<time>2026-08-17T04:13:42Z</time>
			</trkpt>
			<trkpt lat="30.240694" lon="120.087017">
				<speed>0.000000</speed>
				<ele>263.000000</ele>
				<time>2026-08-17T04:13:43Z</time>
			</trkpt>
			<trkpt lat="30.240699" lon="120.087003">
				<speed>0.000000</speed>
				<ele>263.000000</ele>
				<time>2026-08-17T04:13:44Z</time>
			</trkpt>
			<trkpt lat="30.240701" lon="120.086997">
				<speed>0.000000</speed>
				<ele>264.000000</ele>
				<time>2026-08-17T04:13:45Z</time>
			</trkpt>
			<trkpt lat="30.240702" lon="120.086992">
				<speed>0.000000</speed>
				<ele>264.000000</ele>
				<time>2026-08-17T04:13:46Z</time>
			</trkpt>
			<trkpt lat="30.240704" lon="120.086987">
				<speed>0.000000</speed>
				<ele>264.000000</ele>
				<time>2026-08-17T04:13:47Z</time>
			</trkpt>
			<trkpt lat="30.240709" lon="120.086973">
				<speed>0.000000</speed>
				<ele>264.000000</ele>
				<time>2026-08-17T04:13:48Z</time>
			</trkpt>
			<trkpt lat="30.240710" lon="120.086968">
				<speed>0.000000</speed>
				<ele>264.000000</ele>
				<time>2026-08-17T04:13:49Z</time>
			</trkpt>
			<trkpt lat="30.240711" lon="120.086963">
				<speed>0.000000</speed>
				<ele>264.000000</ele>
				<time>2026-08-17T04:13:50Z</time>
			</trkpt>
			<trkpt lat="30.240713" lon="120.086958">
				<speed>0.000000</speed>
				<ele>264.000000</ele>
				<time>2026-08-17T04:13:51Z</time>
			</trkpt>
			<trkpt lat="30.240719" lon="120.086942">
				<speed>0.000000</speed>
				<ele>264.000000</ele>
				<time>2026-08-17T04:13:52Z</time>
			</trkpt>
			<trkpt lat="30.240722" lon="120.086937">
				<speed>0.000000</speed>
				<ele>265.000000</ele>
				<time>2026-08-17T04:13:53Z</time>
			</trkpt>
			<trkpt lat="30.240725" lon="120.086932">
				<speed>0.000000</speed>
				<ele>265.000000</ele>
				<time>2026-08-17T04:13:54Z</time>
			</trkpt>
			<trkpt lat="30.240728" lon="120.086927">
				<speed>0.000000</speed>
				<ele>265.000000</ele>
				<time>2026-08-17T04:13:55Z</time>
			</trkpt>
			<trkpt lat="30.240738" lon="120.086913">
				<speed>0.000000</speed>
				<ele>265.000000</ele>
				<time>2026-08-17T04:13:56Z</time>
			</trkpt>
			<trkpt lat="30.240741" lon="120.086909">
				<speed>0.000000</speed>
				<ele>266.000000</ele>
				<time>2026-08-17T04:13:57Z</time>
			</trkpt>
			<trkpt lat="30.240744" lon="120.086904">
				<speed>0.000000</speed>
				<ele>266.000000</ele>
				<time>2026-08-17T04:13:58Z</time>
			</trkpt>
			<trkpt lat="30.240747" lon="120.086900">
				<speed>0.000000</speed>
				<ele>266.000000</ele>
				<time>2026-08-17T04:13:59Z</time>
			</trkpt>
			<trkpt lat="30.240754" lon="120.086885">
				<speed>0.000000</speed>
				<ele>266.000000</ele>
				<time>2026-08-17T04:14:00Z</time>
			</trkpt>
			<trkpt lat="30.240756" lon="120.086880">
				<speed>0.000000</speed>
				<ele>267.000000</ele>
				<time>2026-08-17T04:14:01Z</time>
			</trkpt>
			<trkpt lat="30.240758" lon="120.086875">
				<speed>0.000000</speed>
				<ele>267.000000</ele>
				<time>2026-08-17T04:14:02Z</time>
			</trkpt>
			<trkpt lat="30.240760" lon="120.086870">
				<speed>0.000000</speed>
				<ele>267.000000</ele>
				<time>2026-08-17T04:14:03Z</time>
			</trkpt>
			<trkpt lat="30.240766" lon="120.086856">
				<speed>0.000000</speed>
				<ele>267.000000</ele>
				<time>2026-08-17T04:14:04Z</time>
			</trkpt>
			<trkpt lat="30.240769" lon="120.086851">
				<speed>0.000000</speed>
				<ele>268.000000</ele>
				<time>2026-08-17T04:14:05Z</time>
			</trkpt>
			<trkpt lat="30.240771" lon="120.086846">
				<speed>0.000000</speed>
				<ele>268.000000</ele>
				<time>2026-08-17T04:14:06Z</time>
			</trkpt>
			<trkpt lat="30.240774" lon="120.086841">
				<speed>0.000000</speed>
				<ele>268.000000</ele>
				<time>2026-08-17T04:14:07Z</time>
			</trkpt>
			<trkpt lat="30.240781" lon="120.086825">
				<speed>0.000000</speed>
				<ele>268.000000</ele>
				<time>2026-08-17T04:14:08Z</time>
			</trkpt>
			<trkpt lat="30.240783" lon="120.086819">
				<speed>0.000000</speed>
				<ele>269.000000</ele>
				<time>2026-08-17T04:14:09Z</time>
			</trkpt>
			<trkpt lat="30.240785" lon="120.086814">
				<speed>0.000000</speed>
				<ele>269.000000</ele>
				<time>2026-08-17T04:14:10Z</time>
			</trkpt>
			<trkpt lat="30.240787" lon="120.086809">
				<speed>0.000000</speed>
				<ele>269.000000</ele>
				<time>2026-08-17T04:14:11Z</time>
			</trkpt>
			<trkpt lat="30.240792" lon="120.086793">
				<speed>0.000000</speed>
				<ele>269.000000</ele>
				<time>2026-08-17T04:14:12Z</time>
			</trkpt>
			<trkpt lat="30.240792" lon="120.086790">
				<speed>0.000000</speed>
				<ele>270.000000</ele>
				<time>2026-08-17T04:14:13Z</time>
			</trkpt>
			<trkpt lat="30.240792" lon="120.086787">
				<speed>0.000000</speed>
				<ele>270.000000</ele>
				<time>2026-08-17T04:14:14Z</time>
			</trkpt>
			<trkpt lat="30.240793" lon="120.086783">
				<speed>0.000000</speed>
				<ele>270.000000</ele>
				<time>2026-08-17T04:14:15Z</time>
			</trkpt>
			<trkpt lat="30.240794" lon="120.086767">
				<speed>0.000000</speed>
				<ele>270.000000</ele>
				<time>2026-08-17T04:14:16Z</time>
			</trkpt>
			<trkpt lat="30.240795" lon="120.086762">
				<speed>0.000000</speed>
				<ele>271.000000</ele>
				<time>2026-08-17T04:14:17Z</time>
			</trkpt>
			<trkpt lat="30.240796" lon="120.086757">
				<speed>0.000000</speed>
				<ele>271.000000</ele>
				<time>2026-08-17T04:14:18Z</time>
			</trkpt>
			<trkpt lat="30.240796" lon="120.086752">
				<speed>0.000000</speed>
				<ele>271.000000</ele>
				<time>2026-08-17T04:14:19Z</time>
			</trkpt>
			<trkpt lat="30.240800" lon="120.086736">
				<speed>0.000000</speed>
				<ele>271.000000</ele>
				<time>2026-08-17T04:14:20Z</time>
			</trkpt>
			<trkpt lat="30.240803" lon="120.086730">
				<speed>0.000000</speed>
				<ele>272.000000</ele>
				<time>2026-08-17T04:14:21Z</time>
			</trkpt>
			<trkpt lat="30.240805" lon="120.086725">
				<speed>0.000000</speed>
				<ele>272.000000</ele>
				<time>2026-08-17T04:14:22Z</time>
			</trkpt>
			<trkpt lat="30.240808" lon="120.086720">
				<speed>0.000000</speed>
				<ele>272.000000</ele>
				<time>2026-08-17T04:14:23Z</time>
			</trkpt>
			<trkpt lat="30.240815" lon="120.086707">
				<speed>0.000000</speed>
				<ele>272.000000</ele>
				<time>2026-08-17T04:14:24Z</time>
			</trkpt>
			<trkpt lat="30.240817" lon="120.086702">
				<speed>0.000000</speed>
				<ele>273.000000</ele>
				<time>2026-08-17T04:14:25Z</time>
			</trkpt>
			<trkpt lat="30.240819" lon="120.086698">
				<speed>0.000000</speed>
				<ele>273.000000</ele>
				<time>2026-08-17T04:14:26Z</time>
			</trkpt>
			<trkpt lat="30.240821" lon="120.086694">
				<speed>0.000000</speed>
				<ele>273.000000</ele>
				<time>2026-08-17T04:14:27Z</time>
			</trkpt>
			<trkpt lat="30.240826" lon="120.086679">
				<speed>0.000000</speed>
				<ele>273.000000</ele>
				<time>2026-08-17T04:14:28Z</time>
			</trkpt>
			<trkpt lat="30.240828" lon="120.086674">
				<speed>0.000000</speed>
				<ele>274.000000</ele>
				<time>2026-08-17T04:14:29Z</time>
			</trkpt>
			<trkpt lat="30.240830" lon="120.086669">
				<speed>0.000000</speed>
				<ele>274.000000</ele>
				<time>2026-08-17T04:14:30Z</time>
			</trkpt>
			<trkpt lat="30.240832" lon="120.086664">
				<speed>0.000000</speed>
				<ele>274.000000</ele>
				<time>2026-08-17T04:14:31Z</time>
			</trkpt>
			<trkpt lat="30.240837" lon="120.086648">
				<speed>0.000000</speed>
				<ele>274.000000</ele>
				<time>2026-08-17T04:14:32Z</time>
			</trkpt>
			<trkpt lat="30.240839" lon="120.086643">
				<speed>0.000000</speed>
				<ele>274.000000</ele>
				<time>2026-08-17T04:14:33Z</time>
			</trkpt>
			<trkpt lat="30.240841" lon="120.086637">
				<speed>0.000000</speed>
				<ele>274.000000</ele>
				<time>2026-08-17T04:14:34Z</time>
			</trkpt>
			<trkpt lat="30.240842" lon="120.086632">
				<speed>0.000000</speed>
				<ele>274.000000</ele>
				<time>2026-08-17T04:14:35Z</time>
			</trkpt>
			<trkpt lat="30.240845" lon="120.086617">
				<speed>0.000000</speed>
				<ele>274.000000</ele>
				<time>2026-08-17T04:14:36Z</time>
			</trkpt>
			<trkpt lat="30.240845" lon="120.086612">
				<speed>0.000000</speed>
				<ele>275.000000</ele>
				<time>2026-08-17T04:14:37Z</time>
			</trkpt>
			<trkpt lat="30.240846" lon="120.086608">
				<speed>0.000000</speed>
				<ele>275.000000</ele>
				<time>2026-08-17T04:14:38Z</time>
			</trkpt>
			<trkpt lat="30.240846" lon="120.086603">
				<speed>0.000000</speed>
				<ele>275.000000</ele>
				<time>2026-08-17T04:14:39Z</time>
			</trkpt>
			<trkpt lat="30.240847" lon="120.086599">
				<speed>0.000000</speed>
				<ele>275.000000</ele>
				<time>2026-08-17T04:14:40Z</time>
			</trkpt>
			<trkpt lat="30.240850" lon="120.086581">
				<speed>0.000000</speed>
				<ele>276.000000</ele>
				<time>2026-08-17T04:14:41Z</time>
			</trkpt>
			<trkpt lat="30.240852" lon="120.086575">
				<speed>0.000000</speed>
				<ele>276.000000</ele>
				<time>2026-08-17T04:14:42Z</time>
			</trkpt>
			<trkpt lat="30.240854" lon="120.086569">
				<speed>0.000000</speed>
				<ele>276.000000</ele>
				<time>2026-08-17T04:14:43Z</time>
			</trkpt>
			<trkpt lat="30.240856" lon="120.086563">
				<speed>0.000000</speed>
				<ele>276.000000</ele>
				<time>2026-08-17T04:14:44Z</time>
			</trkpt>
			<trkpt lat="30.240865" lon="120.086547">
				<speed>0.000000</speed>
				<ele>277.000000</ele>
				<time>2026-08-17T04:14:45Z</time>
			</trkpt>
			<trkpt lat="30.240868" lon="120.086543">
				<speed>0.000000</speed>
				<ele>277.000000</ele>
				<time>2026-08-17T04:14:46Z</time>
			</trkpt>
			<trkpt lat="30.240871" lon="120.086539">
				<speed>0.000000</speed>
				<ele>277.000000</ele>
				<time>2026-08-17T04:14:47Z</time>
			</trkpt>
			<trkpt lat="30.240874" lon="120.086535">
				<speed>0.000000</speed>
				<ele>277.000000</ele>
				<time>2026-08-17T04:14:48Z</time>
			</trkpt>
			<trkpt lat="30.240883" lon="120.086524">
				<speed>0.000000</speed>
				<ele>277.000000</ele>
				<time>2026-08-17T04:14:49Z</time>
			</trkpt>
			<trkpt lat="30.240885" lon="120.086521">
				<speed>0.000000</speed>
				<ele>277.000000</ele>
				<time>2026-08-17T04:14:50Z</time>
			</trkpt>
			<trkpt lat="30.240888" lon="120.086519">
				<speed>0.000000</speed>
				<ele>277.000000</ele>
				<time>2026-08-17T04:14:51Z</time>
			</trkpt>
			<trkpt lat="30.240891" lon="120.086516">
				<speed>0.000000</speed>
				<ele>277.000000</ele>
				<time>2026-08-17T04:14:52Z</time>
			</trkpt>
			<trkpt lat="30.240894" lon="120.086514">
				<speed>0.000000</speed>
				<ele>278.000000</ele>
				<time>2026-08-17T04:14:53Z</time>
			</trkpt>
			<trkpt lat="30.240905" lon="120.086504">
				<speed>0.000000</speed>
				<ele>278.000000</ele>
				<time>2026-08-17T04:14:54Z</time>
			</trkpt>
			<trkpt lat="30.240909" lon="120.086501">
				<speed>0.000000</speed>
				<ele>278.000000</ele>
				<time>2026-08-17T04:14:55Z</time>
			</trkpt>
			<trkpt lat="30.240912" lon="120.086498">
				<speed>0.000000</speed>
				<ele>278.000000</ele>
				<time>2026-08-17T04:14:56Z</time>
			</trkpt>
			<trkpt lat="30.240915" lon="120.086494">
				<speed>0.000000</speed>
				<ele>279.000000</ele>
				<time>2026-08-17T04:14:57Z</time>
			</trkpt>
			<trkpt lat="30.240924" lon="120.086482">
				<speed>0.000000</speed>
				<ele>279.000000</ele>
				<time>2026-08-17T04:14:58Z</time>
			</trkpt>
			<trkpt lat="30.240926" lon="120.086477">
				<speed>0.000000</speed>
				<ele>279.000000</ele>
				<time>2026-08-17T04:14:59Z</time>
			</trkpt>
			<trkpt lat="30.240929" lon="120.086473">
				<speed>0.000000</speed>
				<ele>279.000000</ele>
				<time>2026-08-17T04:15:00Z</time>
			</trkpt>
			<trkpt lat="30.240931" lon="120.086468">
				<speed>0.000000</speed>
				<ele>280.000000</ele>
				<time>2026-08-17T04:15:01Z</time>
			</trkpt>
			<trkpt lat="30.240937" lon="120.086460">
				<speed>0.000000</speed>
				<ele>280.000000</ele>
				<time>2026-08-17T04:15:02Z</time>
			</trkpt>
			<trkpt lat="30.240941" lon="120.086456">
				<speed>0.000000</speed>
				<ele>280.000000</ele>
				<time>2026-08-17T04:15:03Z</time>
			</trkpt>
			<trkpt lat="30.240945" lon="120.086451">
				<speed>0.000000</speed>
				<ele>280.000000</ele>
				<time>2026-08-17T04:15:04Z</time>
			</trkpt>
			<trkpt lat="30.240949" lon="120.086447">
				<speed>0.000000</speed>
				<ele>281.000000</ele>
				<time>2026-08-17T04:15:05Z</time>
			</trkpt>
			<trkpt lat="30.240961" lon="120.086437">
				<speed>0.000000</speed>
				<ele>281.000000</ele>
				<time>2026-08-17T04:15:06Z</time>
			</trkpt>
			<trkpt lat="30.240965" lon="120.086434">
				<speed>0.000000</speed>
				<ele>281.000000</ele>
				<time>2026-08-17T04:15:07Z</time>
			</trkpt>
			<trkpt lat="30.240969" lon="120.086432">
				<speed>0.000000</speed>
				<ele>281.000000</ele>
				<time>2026-08-17T04:15:08Z</time>
			</trkpt>
			<trkpt lat="30.240973" lon="120.086429">
				<speed>0.000000</speed>
				<ele>282.000000</ele>
				<time>2026-08-17T04:15:09Z</time>
			</trkpt>
			<trkpt lat="30.240984" lon="120.086421">
				<speed>0.000000</speed>
				<ele>282.000000</ele>
				<time>2026-08-17T04:15:10Z</time>
			</trkpt>
			<trkpt lat="30.240988" lon="120.086418">
				<speed>0.000000</speed>
				<ele>282.000000</ele>
				<time>2026-08-17T04:15:11Z</time>
			</trkpt>
			<trkpt lat="30.240992" lon="120.086415">
				<speed>0.000000</speed>
				<ele>282.000000</ele>
				<time>2026-08-17T04:15:12Z</time>
			</trkpt>
			<trkpt lat="30.240996" lon="120.086412">
				<speed>0.000000</speed>
				<ele>282.000000</ele>
				<time>2026-08-17T04:15:13Z</time>
			</trkpt>
			<trkpt lat="30.241008" lon="120.086400">
				<speed>0.000000</speed>
				<ele>282.000000</ele>
				<time>2026-08-17T04:15:14Z</time>
			</trkpt>
			<trkpt lat="30.241012" lon="120.086396">
				<speed>0.000000</speed>
				<ele>282.000000</ele>
				<time>2026-08-17T04:15:15Z</time>
			</trkpt>
			<trkpt lat="30.241015" lon="120.086392">
				<speed>0.000000</speed>
				<ele>282.000000</ele>
				<time>2026-08-17T04:15:16Z</time>
			</trkpt>
			<trkpt lat="30.241019" lon="120.086388">
				<speed>0.000000</speed>
				<ele>283.000000</ele>
				<time>2026-08-17T04:15:17Z</time>
			</trkpt>
			<trkpt lat="30.241030" lon="120.086376">
				<speed>0.000000</speed>
				<ele>283.000000</ele>
				<time>2026-08-17T04:15:18Z</time>
			</trkpt>
			<trkpt lat="30.241034" lon="120.086372">
				<speed>0.000000</speed>
				<ele>283.000000</ele>
				<time>2026-08-17T04:15:19Z</time>
			</trkpt>
			<trkpt lat="30.241038" lon="120.086369">
				<speed>0.000000</speed>
				<ele>283.000000</ele>
				<time>2026-08-17T04:15:20Z</time>
			</trkpt>
			<trkpt lat="30.241041" lon="120.086365">
				<speed>0.000000</speed>
				<ele>284.000000</ele>
				<time>2026-08-17T04:15:21Z</time>
			</trkpt>
			<trkpt lat="30.241051" lon="120.086356">
				<speed>0.000000</speed>
				<ele>284.000000</ele>
				<time>2026-08-17T04:15:22Z</time>
			</trkpt>
			<trkpt lat="30.241055" lon="120.086353">
				<speed>0.000000</speed>
				<ele>284.000000</ele>
				<time>2026-08-17T04:15:23Z</time>
			</trkpt>
			<trkpt lat="30.241058" lon="120.086350">
				<speed>0.000000</speed>
				<ele>284.000000</ele>
				<time>2026-08-17T04:15:24Z</time>
			</trkpt>
			<trkpt lat="30.241061" lon="120.086347">
				<speed>0.000000</speed>
				<ele>285.000000</ele>
				<time>2026-08-17T04:15:25Z</time>
			</trkpt>
			<trkpt lat="30.241070" lon="120.086339">
				<speed>0.000000</speed>
				<ele>285.000000</ele>
				<time>2026-08-17T04:15:26Z</time>
			</trkpt>
			<trkpt lat="30.241073" lon="120.086336">
				<speed>0.000000</speed>
				<ele>285.000000</ele>
				<time>2026-08-17T04:15:27Z</time>
			</trkpt>
			<trkpt lat="30.241076" lon="120.086333">
				<speed>0.000000</speed>
				<ele>285.000000</ele>
				<time>2026-08-17T04:15:28Z</time>
			</trkpt>
			<trkpt lat="30.241079" lon="120.086330">
				<speed>0.000000</speed>
				<ele>285.000000</ele>
				<time>2026-08-17T04:15:29Z</time>
			</trkpt>
			<trkpt lat="30.241089" lon="120.086319">
				<speed>0.000000</speed>
				<ele>285.000000</ele>
				<time>2026-08-17T04:15:30Z</time>
			</trkpt>
			<trkpt lat="30.241092" lon="120.086314">
				<speed>0.000000</speed>
				<ele>285.000000</ele>
				<time>2026-08-17T04:15:31Z</time>
			</trkpt>
			<trkpt lat="30.241095" lon="120.086310">
				<speed>0.000000</speed>
				<ele>285.000000</ele>
				<time>2026-08-17T04:15:32Z</time>
			</trkpt>
			<trkpt lat="30.241098" lon="120.086306">
				<speed>0.000000</speed>
				<ele>286.000000</ele>
				<time>2026-08-17T04:15:33Z</time>
			</trkpt>
			<trkpt lat="30.241107" lon="120.086292">
				<speed>0.000000</speed>
				<ele>286.000000</ele>
				<time>2026-08-17T04:15:34Z</time>
			</trkpt>
			<trkpt lat="30.241109" lon="120.086287">
				<speed>0.000000</speed>
				<ele>286.000000</ele>
				<time>2026-08-17T04:15:35Z</time>
			</trkpt>
			<trkpt lat="30.241111" lon="120.086283">
				<speed>0.000000</speed>
				<ele>286.000000</ele>
				<time>2026-08-17T04:15:36Z</time>
			</trkpt>
			<trkpt lat="30.241113" lon="120.086279">
				<speed>0.000000</speed>
				<ele>286.000000</ele>
				<time>2026-08-17T04:15:37Z</time>
			</trkpt>
			<trkpt lat="30.241119" lon="120.086266">
				<speed>0.000000</speed>
				<ele>286.000000</ele>
				<time>2026-08-17T04:15:38Z</time>
			</trkpt>
			<trkpt lat="30.241121" lon="120.086260">
				<speed>0.000000</speed>
				<ele>286.000000</ele>
				<time>2026-08-17T04:15:39Z</time>
			</trkpt>
			<trkpt lat="30.241122" lon="120.086255">
				<speed>0.000000</speed>
				<ele>286.000000</ele>
				<time>2026-08-17T04:15:40Z</time>
			</trkpt>
			<trkpt lat="30.241124" lon="120.086249">
				<speed>0.000000</speed>
				<ele>287.000000</ele>
				<time>2026-08-17T04:15:41Z</time>
			</trkpt>
			<trkpt lat="30.241129" lon="120.086228">
				<speed>0.000000</speed>
				<ele>287.000000</ele>
				<time>2026-08-17T04:15:42Z</time>
			</trkpt>
			<trkpt lat="30.241131" lon="120.086222">
				<speed>0.000000</speed>
				<ele>287.000000</ele>
				<time>2026-08-17T04:15:43Z</time>
			</trkpt>
			<trkpt lat="30.241133" lon="120.086215">
				<speed>0.000000</speed>
				<ele>287.000000</ele>
				<time>2026-08-17T04:15:44Z</time>
			</trkpt>
			<trkpt lat="30.241135" lon="120.086208">
				<speed>0.000000</speed>
				<ele>288.000000</ele>
				<time>2026-08-17T04:15:45Z</time>
			</trkpt>
			<trkpt lat="30.241142" lon="120.086192">
				<speed>0.000000</speed>
				<ele>288.000000</ele>
				<time>2026-08-17T04:15:46Z</time>
			</trkpt>
			<trkpt lat="30.241145" lon="120.086188">
				<speed>0.000000</speed>
				<ele>288.000000</ele>
				<time>2026-08-17T04:15:47Z</time>
			</trkpt>
			<trkpt lat="30.241148" lon="120.086184">
				<speed>0.000000</speed>
				<ele>288.000000</ele>
				<time>2026-08-17T04:15:48Z</time>
			</trkpt>
			<trkpt lat="30.241152" lon="120.086180">
				<speed>0.000000</speed>
				<ele>289.000000</ele>
				<time>2026-08-17T04:15:49Z</time>
			</trkpt>
			<trkpt lat="30.241164" lon="120.086170">
				<speed>0.000000</speed>
				<ele>289.000000</ele>
				<time>2026-08-17T04:15:50Z</time>
			</trkpt>
			<trkpt lat="30.241169" lon="120.086165">
				<speed>0.000000</speed>
				<ele>289.000000</ele>
				<time>2026-08-17T04:15:51Z</time>
			</trkpt>
			<trkpt lat="30.241173" lon="120.086161">
				<speed>0.000000</speed>
				<ele>289.000000</ele>
				<time>2026-08-17T04:15:52Z</time>
			</trkpt>
			<trkpt lat="30.241178" lon="120.086157">
				<speed>0.000000</speed>
				<ele>290.000000</ele>
				<time>2026-08-17T04:15:53Z</time>
			</trkpt>
			<trkpt lat="30.241193" lon="120.086146">
				<speed>0.000000</speed>
				<ele>290.000000</ele>
				<time>2026-08-17T04:15:54Z</time>
			</trkpt>
			<trkpt lat="30.241198" lon="120.086141">
				<speed>0.000000</speed>
				<ele>290.000000</ele>
				<time>2026-08-17T04:15:55Z</time>
			</trkpt>
			<trkpt lat="30.241203" lon="120.086137">
				<speed>0.000000</speed>
				<ele>290.000000</ele>
				<time>2026-08-17T04:15:56Z</time>
			</trkpt>
			<trkpt lat="30.241209" lon="120.086132">
				<speed>0.000000</speed>
				<ele>291.000000</ele>
				<time>2026-08-17T04:15:57Z</time>
			</trkpt>
			<trkpt lat="30.241222" lon="120.086119">
				<speed>0.000000</speed>
				<ele>291.000000</ele>
				<time>2026-08-17T04:15:58Z</time>
			</trkpt>
			<trkpt lat="30.241225" lon="120.086114">
				<speed>0.000000</speed>
				<ele>291.000000</ele>
				<time>2026-08-17T04:15:59Z</time>
			</trkpt>
			<trkpt lat="30.241228" lon="120.086109">
				<speed>0.000000</speed>
				<ele>291.000000</ele>
				<time>2026-08-17T04:16:00Z</time>
			</trkpt>
			<trkpt lat="30.241231" lon="120.086104">
				<speed>0.000000</speed>
				<ele>292.000000</ele>
				<time>2026-08-17T04:16:01Z</time>
			</trkpt>
			<trkpt lat="30.241236" lon="120.086087">
				<speed>0.000000</speed>
				<ele>292.000000</ele>
				<time>2026-08-17T04:16:02Z</time>
			</trkpt>
			<trkpt lat="30.241237" lon="120.086081">
				<speed>0.000000</speed>
				<ele>292.000000</ele>
				<time>2026-08-17T04:16:03Z</time>
			</trkpt>
			<trkpt lat="30.241238" lon="120.086075">
				<speed>0.000000</speed>
				<ele>292.000000</ele>
				<time>2026-08-17T04:16:04Z</time>
			</trkpt>
			<trkpt lat="30.241239" lon="120.086069">
				<speed>0.000000</speed>
				<ele>293.000000</ele>
				<time>2026-08-17T04:16:05Z</time>
			</trkpt>
			<trkpt lat="30.241241" lon="120.086053">
				<speed>0.000000</speed>
				<ele>293.000000</ele>
				<time>2026-08-17T04:16:06Z</time>
			</trkpt>
			<trkpt lat="30.241242" lon="120.086048">
				<speed>0.000000</speed>
				<ele>293.000000</ele>
				<time>2026-08-17T04:16:07Z</time>
			</trkpt>
			<trkpt lat="30.241242" lon="120.086044">
				<speed>0.000000</speed>
				<ele>293.000000</ele>
				<time>2026-08-17T04:16:08Z</time>
			</trkpt>
			<trkpt lat="30.241243" lon="120.086039">
				<speed>0.000000</speed>
				<ele>294.000000</ele>
				<time>2026-08-17T04:16:09Z</time>
			</trkpt>
			<trkpt lat="30.241244" lon="120.086035">
				<speed>0.000000</speed>
				<ele>294.000000</ele>
				<time>2026-08-17T04:16:10Z</time>
			</trkpt>
			<trkpt lat="30.241253" lon="120.086017">
				<speed>0.000000</speed>
				<ele>294.000000</ele>
				<time>2026-08-17T04:16:11Z</time>
			</trkpt>
			<trkpt lat="30.241258" lon="120.086012">
				<speed>0.000000</speed>
				<ele>294.000000</ele>
				<time>2026-08-17T04:16:12Z</time>
			</trkpt>
			<trkpt lat="30.241263" lon="120.086007">
				<speed>0.000000</speed>
				<ele>295.000000</ele>
				<time>2026-08-17T04:16:13Z</time>
			</trkpt>
			<trkpt lat="30.241267" lon="120.086002">
				<speed>0.000000</speed>
				<ele>295.000000</ele>
				<time>2026-08-17T04:16:14Z</time>
			</trkpt>
			<trkpt lat="30.241282" lon="120.085988">
				<speed>0.000000</speed>
				<ele>296.000000</ele>
				<time>2026-08-17T04:16:15Z</time>
			</trkpt>
			<trkpt lat="30.241285" lon="120.085983">
				<speed>0.000000</speed>
				<ele>296.000000</ele>
				<time>2026-08-17T04:16:16Z</time>
			</trkpt>
			<trkpt lat="30.241289" lon="120.085979">
				<speed>0.000000</speed>
				<ele>297.000000</ele>
				<time>2026-08-17T04:16:17Z</time>
			</trkpt>
			<trkpt lat="30.241293" lon="120.085974">
				<speed>0.000000</speed>
				<ele>297.000000</ele>
				<time>2026-08-17T04:16:18Z</time>
			</trkpt>
			<trkpt lat="30.241303" lon="120.085963">
				<speed>0.000000</speed>
				<ele>297.000000</ele>
				<time>2026-08-17T04:16:19Z</time>
			</trkpt>
			<trkpt lat="30.241306" lon="120.085959">
				<speed>0.000000</speed>
				<ele>297.000000</ele>
				<time>2026-08-17T04:16:20Z</time>
			</trkpt>
			<trkpt lat="30.241309" lon="120.085956">
				<speed>0.000000</speed>
				<ele>298.000000</ele>
				<time>2026-08-17T04:16:21Z</time>
			</trkpt>
			<trkpt lat="30.241312" lon="120.085952">
				<speed>0.000000</speed>
				<ele>298.000000</ele>
				<time>2026-08-17T04:16:22Z</time>
			</trkpt>
			<trkpt lat="30.241321" lon="120.085942">
				<speed>0.000000</speed>
				<ele>298.000000</ele>
				<time>2026-08-17T04:16:23Z</time>
			</trkpt>
			<trkpt lat="30.241325" lon="120.085938">
				<speed>0.000000</speed>
				<ele>298.000000</ele>
				<time>2026-08-17T04:16:24Z</time>
			</trkpt>
			<trkpt lat="30.241328" lon="120.085935">
				<speed>0.000000</speed>
				<ele>299.000000</ele>
				<time>2026-08-17T04:16:25Z</time>
			</trkpt>
			<trkpt lat="30.241332" lon="120.085931">
				<speed>0.000000</speed>
				<ele>299.000000</ele>
				<time>2026-08-17T04:16:26Z</time>
			</trkpt>
			<trkpt lat="30.241344" lon="120.085921">
				<speed>0.000000</speed>
				<ele>299.000000</ele>
				<time>2026-08-17T04:16:27Z</time>
			</trkpt>
			<trkpt lat="30.241348" lon="120.085918">
				<speed>0.000000</speed>
				<ele>299.000000</ele>
				<time>2026-08-17T04:16:28Z</time>
			</trkpt>
			<trkpt lat="30.241353" lon="120.085914">
				<speed>0.000000</speed>
				<ele>300.000000</ele>
				<time>2026-08-17T04:16:29Z</time>
			</trkpt>
			<trkpt lat="30.241357" lon="120.085911">
				<speed>0.000000</speed>
				<ele>300.000000</ele>
				<time>2026-08-17T04:16:30Z</time>
			</trkpt>
			<trkpt lat="30.241371" lon="120.085901">
				<speed>0.000000</speed>
				<ele>300.000000</ele>
				<time>2026-08-17T04:16:31Z</time>
			</trkpt>
			<trkpt lat="30.241375" lon="120.085897">
				<speed>0.000000</speed>
				<ele>300.000000</ele>
				<time>2026-08-17T04:16:32Z</time>
			</trkpt>
			<trkpt lat="30.241380" lon="120.085894">
				<speed>0.000000</speed>
				<ele>301.000000</ele>
				<time>2026-08-17T04:16:33Z</time>
			</trkpt>
			<trkpt lat="30.241384" lon="120.085890">
				<speed>0.000000</speed>
				<ele>301.000000</ele>
				<time>2026-08-17T04:16:34Z</time>
			</trkpt>
			<trkpt lat="30.241396" lon="120.085880">
				<speed>0.000000</speed>
				<ele>301.000000</ele>
				<time>2026-08-17T04:16:35Z</time>
			</trkpt>
			<trkpt lat="30.241400" lon="120.085876">
				<speed>0.000000</speed>
				<ele>301.000000</ele>
				<time>2026-08-17T04:16:36Z</time>
			</trkpt>
			<trkpt lat="30.241404" lon="120.085873">
				<speed>0.000000</speed>
				<ele>302.000000</ele>
				<time>2026-08-17T04:16:37Z</time>
			</trkpt>
			<trkpt lat="30.241408" lon="120.085870">
				<speed>0.000000</speed>
				<ele>302.000000</ele>
				<time>2026-08-17T04:16:38Z</time>
			</trkpt>
			<trkpt lat="30.241418" lon="120.085859">
				<speed>0.000000</speed>
				<ele>302.000000</ele>
				<time>2026-08-17T04:16:39Z</time>
			</trkpt>
			<trkpt lat="30.241422" lon="120.085854">
				<speed>0.000000</speed>
				<ele>302.000000</ele>
				<time>2026-08-17T04:16:40Z</time>
			</trkpt>
			<trkpt lat="30.241425" lon="120.085850">
				<speed>0.000000</speed>
				<ele>303.000000</ele>
				<time>2026-08-17T04:16:41Z</time>
			</trkpt>
			<trkpt lat="30.241429" lon="120.085846">
				<speed>0.000000</speed>
				<ele>303.000000</ele>
				<time>2026-08-17T04:16:42Z</time>
			</trkpt>
			<trkpt lat="30.241441" lon="120.085833">
				<speed>0.000000</speed>
				<ele>303.000000</ele>
				<time>2026-08-17T04:16:43Z</time>
			</trkpt>
			<trkpt lat="30.241446" lon="120.085830">
				<speed>0.000000</speed>
				<ele>303.000000</ele>
				<time>2026-08-17T04:16:44Z</time>
			</trkpt>
			<trkpt lat="30.241452" lon="120.085826">
				<speed>0.000000</speed>
				<ele>304.000000</ele>
				<time>2026-08-17T04:16:45Z</time>
			</trkpt>
			<trkpt lat="30.241457" lon="120.085823">
				<speed>0.000000</speed>
				<ele>304.000000</ele>
				<time>2026-08-17T04:16:46Z</time>
			</trkpt>
			<trkpt lat="30.241475" lon="120.085813">
				<speed>0.000000</speed>
				<ele>304.000000</ele>
				<time>2026-08-17T04:16:47Z</time>
			</trkpt>
			<trkpt lat="30.241481" lon="120.085810">
				<speed>0.000000</speed>
				<ele>304.000000</ele>
				<time>2026-08-17T04:16:48Z</time>
			</trkpt>
			<trkpt lat="30.241487" lon="120.085807">
				<speed>0.000000</speed>
				<ele>304.000000</ele>
				<time>2026-08-17T04:16:49Z</time>
			</trkpt>
			<trkpt lat="30.241494" lon="120.085804">
				<speed>0.000000</speed>
				<ele>304.000000</ele>
				<time>2026-08-17T04:16:50Z</time>
			</trkpt>
			<trkpt lat="30.241509" lon="120.085797">
				<speed>0.000000</speed>
				<ele>304.000000</ele>
				<time>2026-08-17T04:16:51Z</time>
			</trkpt>
			<trkpt lat="30.241513" lon="120.085795">
				<speed>0.000000</speed>
				<ele>304.000000</ele>
				<time>2026-08-17T04:16:52Z</time>
			</trkpt>
			<trkpt lat="30.241517" lon="120.085794">
				<speed>0.000000</speed>
				<ele>305.000000</ele>
				<time>2026-08-17T04:16:53Z</time>
			</trkpt>
			<trkpt lat="30.241520" lon="120.085793">
				<speed>0.000000</speed>
				<ele>305.000000</ele>
				<time>2026-08-17T04:16:54Z</time>
			</trkpt>
			<trkpt lat="30.241531" lon="120.085795">
				<speed>0.000000</speed>
				<ele>305.000000</ele>
				<time>2026-08-17T04:17:01Z</time>
			</trkpt>
			<trkpt lat="30.241545" lon="120.085795">
				<speed>0.000000</speed>
				<ele>305.000000</ele>
				<time>2026-08-17T04:17:02Z</time>
			</trkpt>
			<trkpt lat="30.241549" lon="120.085794">
				<speed>0.000000</speed>
				<ele>305.000000</ele>
				<time>2026-08-17T04:17:03Z</time>
			</trkpt>
			<trkpt lat="30.241553" lon="120.085793">
				<speed>0.000000</speed>
				<ele>305.000000</ele>
				<time>2026-08-17T04:17:04Z</time>
			</trkpt>
			<trkpt lat="30.241556" lon="120.085791">
				<speed>0.000000</speed>
				<ele>305.000000</ele>
				<time>2026-08-17T04:17:05Z</time>
			</trkpt>
			<trkpt lat="30.241568" lon="120.085787">
				<speed>0.000000</speed>
				<ele>305.000000</ele>
				<time>2026-08-17T04:17:06Z</time>
			</trkpt>
			<trkpt lat="30.241573" lon="120.085785">
				<speed>0.000000</speed>
				<ele>305.000000</ele>
				<time>2026-08-17T04:17:07Z</time>
			</trkpt>
			<trkpt lat="30.241578" lon="120.085784">
				<speed>0.000000</speed>
				<ele>305.000000</ele>
				<time>2026-08-17T04:17:08Z</time>
			</trkpt>
			<trkpt lat="30.241583" lon="120.085783">
				<speed>0.000000</speed>
				<ele>305.000000</ele>
				<time>2026-08-17T04:17:09Z</time>
			</trkpt>
			<trkpt lat="30.241599" lon="120.085780">
				<speed>0.000000</speed>
				<ele>305.000000</ele>
				<time>2026-08-17T04:17:10Z</time>
			</trkpt>
			<trkpt lat="30.241605" lon="120.085780">
				<speed>0.000000</speed>
				<ele>305.000000</ele>
				<time>2026-08-17T04:17:11Z</time>
			</trkpt>
			<trkpt lat="30.241611" lon="120.085779">
				<speed>0.000000</speed>
				<ele>305.000000</ele>
				<time>2026-08-17T04:17:12Z</time>
			</trkpt>
			<trkpt lat="30.241616" lon="120.085778">
				<speed>0.000000</speed>
				<ele>305.000000</ele>
				<time>2026-08-17T04:17:13Z</time>
			</trkpt>
			<trkpt lat="30.241635" lon="120.085778">
				<speed>0.000000</speed>
				<ele>305.000000</ele>
				<time>2026-08-17T04:17:14Z</time>
			</trkpt>
			<trkpt lat="30.241641" lon="120.085778">
				<speed>0.000000</speed>
				<ele>305.000000</ele>
				<time>2026-08-17T04:17:15Z</time>
			</trkpt>
			<trkpt lat="30.241647" lon="120.085779">
				<speed>0.000000</speed>
				<ele>305.000000</ele>
				<time>2026-08-17T04:17:16Z</time>
			</trkpt>
			<trkpt lat="30.241653" lon="120.085780">
				<speed>0.000000</speed>
				<ele>305.000000</ele>
				<time>2026-08-17T04:17:17Z</time>
			</trkpt>
			<trkpt lat="30.241673" lon="120.085785">
				<speed>0.000000</speed>
				<ele>305.000000</ele>
				<time>2026-08-17T04:17:18Z</time>
			</trkpt>
			<trkpt lat="30.241680" lon="120.085788">
				<speed>0.000000</speed>
				<ele>305.000000</ele>
				<time>2026-08-17T04:17:19Z</time>
			</trkpt>
			<trkpt lat="30.241687" lon="120.085790">
				<speed>0.000000</speed>
				<ele>305.000000</ele>
				<time>2026-08-17T04:17:20Z</time>
			</trkpt>
			<trkpt lat="30.241694" lon="120.085793">
				<speed>0.000000</speed>
				<ele>305.000000</ele>
				<time>2026-08-17T04:17:21Z</time>
			</trkpt>
			<trkpt lat="30.241716" lon="120.085802">
				<speed>0.000000</speed>
				<ele>304.000000</ele>
				<time>2026-08-17T04:17:22Z</time>
			</trkpt>
			<trkpt lat="30.241723" lon="120.085806">
				<speed>0.000000</speed>
				<ele>304.000000</ele>
				<time>2026-08-17T04:17:23Z</time>
			</trkpt>
			<trkpt lat="30.241731" lon="120.085809">
				<speed>0.000000</speed>
				<ele>304.000000</ele>
				<time>2026-08-17T04:17:24Z</time>
			</trkpt>
			<trkpt lat="30.241738" lon="120.085813">
				<speed>0.000000</speed>
				<ele>304.000000</ele>
				<time>2026-08-17T04:17:25Z</time>
			</trkpt>
			<trkpt lat="30.241759" lon="120.085824">
				<speed>0.000000</speed>
				<ele>304.000000</ele>
				<time>2026-08-17T04:17:26Z</time>
			</trkpt>
			<trkpt lat="30.241765" lon="120.085827">
				<speed>0.000000</speed>
				<ele>304.000000</ele>
				<time>2026-08-17T04:17:27Z</time>
			</trkpt>
			<trkpt lat="30.241771" lon="120.085829">
				<speed>0.000000</speed>
				<ele>304.000000</ele>
				<time>2026-08-17T04:17:28Z</time>
			</trkpt>
			<trkpt lat="30.241777" lon="120.085833">
				<speed>0.000000</speed>
				<ele>304.000000</ele>
				<time>2026-08-17T04:17:29Z</time>
			</trkpt>
			<trkpt lat="30.241796" lon="120.085839">
				<speed>0.000000</speed>
				<ele>304.000000</ele>
				<time>2026-08-17T04:17:30Z</time>
			</trkpt>
			<trkpt lat="30.241802" lon="120.085841">
				<speed>0.000000</speed>
				<ele>304.000000</ele>
				<time>2026-08-17T04:17:31Z</time>
			</trkpt>
			<trkpt lat="30.241808" lon="120.085843">
				<speed>0.000000</speed>
				<ele>304.000000</ele>
				<time>2026-08-17T04:17:32Z</time>
			</trkpt>
			<trkpt lat="30.241815" lon="120.085845">
				<speed>0.000000</speed>
				<ele>304.000000</ele>
				<time>2026-08-17T04:17:33Z</time>
			</trkpt>
			<trkpt lat="30.241831" lon="120.085851">
				<speed>0.000000</speed>
				<ele>304.000000</ele>
				<time>2026-08-17T04:17:34Z</time>
			</trkpt>
			<trkpt lat="30.241835" lon="120.085853">
				<speed>0.000000</speed>
				<ele>304.000000</ele>
				<time>2026-08-17T04:17:35Z</time>
			</trkpt>
			<trkpt lat="30.241840" lon="120.085854">
				<speed>0.000000</speed>
				<ele>304.000000</ele>
				<time>2026-08-17T04:17:36Z</time>
			</trkpt>
			<trkpt lat="30.241844" lon="120.085856">
				<speed>0.000000</speed>
				<ele>304.000000</ele>
				<time>2026-08-17T04:17:37Z</time>
			</trkpt>
			<trkpt lat="30.241856" lon="120.085862">
				<speed>0.000000</speed>
				<ele>304.000000</ele>
				<time>2026-08-17T04:17:38Z</time>
			</trkpt>
			<trkpt lat="30.241872" lon="120.085867">
				<speed>0.000000</speed>
				<ele>305.000000</ele>
				<time>2026-08-17T04:17:47Z</time>
			</trkpt>
			<trkpt lat="30.241893" lon="120.085874">
				<speed>0.000000</speed>
				<ele>305.000000</ele>
				<time>2026-08-17T04:17:48Z</time>
			</trkpt>
			<trkpt lat="30.241918" lon="120.085893">
				<speed>0.000000</speed>
				<ele>306.000000</ele>
				<time>2026-08-17T04:18:03Z</time>
			</trkpt>
			<trkpt lat="30.241938" lon="120.085910">
				<speed>0.000000</speed>
				<ele>307.000000</ele>
				<time>2026-08-17T04:18:19Z</time>
			</trkpt>
			<trkpt lat="30.241962" lon="120.085928">
				<speed>0.000000</speed>
				<ele>307.000000</ele>
				<time>2026-08-17T04:18:20Z</time>
			</trkpt>
			<trkpt lat="30.241967" lon="120.085931">
				<speed>0.000000</speed>
				<ele>307.000000</ele>
				<time>2026-08-17T04:18:21Z</time>
			</trkpt>
			<trkpt lat="30.241973" lon="120.085933">
				<speed>0.000000</speed>
				<ele>307.000000</ele>
				<time>2026-08-17T04:18:22Z</time>
			</trkpt>
			<trkpt lat="30.241978" lon="120.085936">
				<speed>0.000000</speed>
				<ele>307.000000</ele>
				<time>2026-08-17T04:18:23Z</time>
			</trkpt>
			<trkpt lat="30.241992" lon="120.085940">
				<speed>0.000000</speed>
				<ele>307.000000</ele>
				<time>2026-08-17T04:18:24Z</time>
			</trkpt>
			<trkpt lat="30.242017" lon="120.085955">
				<speed>0.000000</speed>
				<ele>309.000000</ele>
				<time>2026-08-17T04:18:40Z</time>
			</trkpt>
			<trkpt lat="30.242020" lon="120.085957">
				<speed>0.000000</speed>
				<ele>309.000000</ele>
				<time>2026-08-17T04:18:41Z</time>
			</trkpt>
			<trkpt lat="30.242024" lon="120.085959">
				<speed>0.000000</speed>
				<ele>309.000000</ele>
				<time>2026-08-17T04:18:42Z</time>
			</trkpt>
			<trkpt lat="30.242027" lon="120.085961">
				<speed>0.000000</speed>
				<ele>309.000000</ele>
				<time>2026-08-17T04:18:43Z</time>
			</trkpt>
			<trkpt lat="30.242031" lon="120.085963">
				<speed>0.000000</speed>
				<ele>309.000000</ele>
				<time>2026-08-17T04:18:44Z</time>
			</trkpt>
			<trkpt lat="30.242034" lon="120.085965">
				<speed>0.000000</speed>
				<ele>310.000000</ele>
				<time>2026-08-17T04:18:45Z</time>
			</trkpt>
			<trkpt lat="30.242057" lon="120.085976">
				<speed>0.000000</speed>
				<ele>310.000000</ele>
				<time>2026-08-17T04:18:46Z</time>
			</trkpt>
			<trkpt lat="30.242062" lon="120.085978">
				<speed>0.000000</speed>
				<ele>310.000000</ele>
				<time>2026-08-17T04:18:47Z</time>
			</trkpt>
			<trkpt lat="30.242067" lon="120.085980">
				<speed>0.000000</speed>
				<ele>310.000000</ele>
				<time>2026-08-17T04:18:48Z</time>
			</trkpt>
			<trkpt lat="30.242072" lon="120.085982">
				<speed>0.000000</speed>
				<ele>311.000000</ele>
				<time>2026-08-17T04:18:49Z</time>
			</trkpt>
			<trkpt lat="30.242084" lon="120.085988">
				<speed>0.000000</speed>
				<ele>311.000000</ele>
				<time>2026-08-17T04:18:50Z</time>
			</trkpt>
			<trkpt lat="30.242087" lon="120.085989">
				<speed>0.000000</speed>
				<ele>311.000000</ele>
				<time>2026-08-17T04:18:51Z</time>
			</trkpt>
			<trkpt lat="30.242089" lon="120.085991">
				<speed>0.000000</speed>
				<ele>311.000000</ele>
				<time>2026-08-17T04:18:52Z</time>
			</trkpt>
			<trkpt lat="30.242091" lon="120.085992">
				<speed>0.000000</speed>
				<ele>311.000000</ele>
				<time>2026-08-17T04:18:53Z</time>
			</trkpt>
			<trkpt lat="30.242105" lon="120.086002">
				<speed>0.000000</speed>
				<ele>311.000000</ele>
				<time>2026-08-17T04:18:54Z</time>
			</trkpt>
			<trkpt lat="30.242109" lon="120.086006">
				<speed>0.000000</speed>
				<ele>311.000000</ele>
				<time>2026-08-17T04:18:55Z</time>
			</trkpt>
			<trkpt lat="30.242113" lon="120.086010">
				<speed>0.000000</speed>
				<ele>311.000000</ele>
				<time>2026-08-17T04:18:56Z</time>
			</trkpt>
			<trkpt lat="30.242118" lon="120.086013">
				<speed>0.000000</speed>
				<ele>312.000000</ele>
				<time>2026-08-17T04:18:57Z</time>
			</trkpt>
			<trkpt lat="30.242129" lon="120.086026">
				<speed>0.000000</speed>
				<ele>312.000000</ele>
				<time>2026-08-17T04:18:58Z</time>
			</trkpt>
			<trkpt lat="30.242133" lon="120.086030">
				<speed>0.000000</speed>
				<ele>312.000000</ele>
				<time>2026-08-17T04:18:59Z</time>
			</trkpt>
			<trkpt lat="30.242137" lon="120.086034">
				<speed>0.000000</speed>
				<ele>312.000000</ele>
				<time>2026-08-17T04:19:00Z</time>
			</trkpt>
			<trkpt lat="30.242141" lon="120.086037">
				<speed>0.000000</speed>
				<ele>313.000000</ele>
				<time>2026-08-17T04:19:01Z</time>
			</trkpt>
			<trkpt lat="30.242153" lon="120.086048">
				<speed>0.000000</speed>
				<ele>313.000000</ele>
				<time>2026-08-17T04:19:02Z</time>
			</trkpt>
			<trkpt lat="30.242157" lon="120.086051">
				<speed>0.000000</speed>
				<ele>313.000000</ele>
				<time>2026-08-17T04:19:03Z</time>
			</trkpt>
			<trkpt lat="30.242161" lon="120.086054">
				<speed>0.000000</speed>
				<ele>313.000000</ele>
				<time>2026-08-17T04:19:04Z</time>
			</trkpt>
			<trkpt lat="30.242165" lon="120.086057">
				<speed>0.000000</speed>
				<ele>314.000000</ele>
				<time>2026-08-17T04:19:05Z</time>
			</trkpt>
			<trkpt lat="30.242177" lon="120.086066">
				<speed>0.000000</speed>
				<ele>314.000000</ele>
				<time>2026-08-17T04:19:06Z</time>
			</trkpt>
			<trkpt lat="30.242182" lon="120.086069">
				<speed>0.000000</speed>
				<ele>314.000000</ele>
				<time>2026-08-17T04:19:07Z</time>
			</trkpt>
			<trkpt lat="30.242186" lon="120.086072">
				<speed>0.000000</speed>
				<ele>314.000000</ele>
				<time>2026-08-17T04:19:08Z</time>
			</trkpt>
			<trkpt lat="30.242190" lon="120.086075">
				<speed>0.000000</speed>
				<ele>315.000000</ele>
				<time>2026-08-17T04:19:09Z</time>
			</trkpt>
			<trkpt lat="30.242204" lon="120.086086">
				<speed>0.000000</speed>
				<ele>315.000000</ele>
				<time>2026-08-17T04:19:10Z</time>
			</trkpt>
			<trkpt lat="30.242208" lon="120.086090">
				<speed>0.000000</speed>
				<ele>315.000000</ele>
				<time>2026-08-17T04:19:11Z</time>
			</trkpt>
			<trkpt lat="30.242213" lon="120.086094">
				<speed>0.000000</speed>
				<ele>315.000000</ele>
				<time>2026-08-17T04:19:12Z</time>
			</trkpt>
			<trkpt lat="30.242218" lon="120.086098">
				<speed>0.000000</speed>
				<ele>315.000000</ele>
				<time>2026-08-17T04:19:13Z</time>
			</trkpt>
			<trkpt lat="30.242233" lon="120.086112">
				<speed>0.000000</speed>
				<ele>315.000000</ele>
				<time>2026-08-17T04:19:14Z</time>
			</trkpt>
			<trkpt lat="30.242238" lon="120.086117">
				<speed>0.000000</speed>
				<ele>315.000000</ele>
				<time>2026-08-17T04:19:15Z</time>
			</trkpt>
			<trkpt lat="30.242243" lon="120.086123">
				<speed>0.000000</speed>
				<ele>315.000000</ele>
				<time>2026-08-17T04:19:16Z</time>
			</trkpt>
			<trkpt lat="30.242248" lon="120.086128">
				<speed>0.000000</speed>
				<ele>316.000000</ele>
				<time>2026-08-17T04:19:17Z</time>
			</trkpt>
			<trkpt lat="30.242263" lon="120.086146">
				<speed>0.000000</speed>
				<ele>316.000000</ele>
				<time>2026-08-17T04:19:18Z</time>
			</trkpt>
			<trkpt lat="30.242267" lon="120.086152">
				<speed>0.000000</speed>
				<ele>316.000000</ele>
				<time>2026-08-17T04:19:19Z</time>
			</trkpt>
			<trkpt lat="30.242272" lon="120.086159">
				<speed>0.000000</speed>
				<ele>316.000000</ele>
				<time>2026-08-17T04:19:20Z</time>
			</trkpt>
			<trkpt lat="30.242276" lon="120.086165">
				<speed>0.000000</speed>
				<ele>317.000000</ele>
				<time>2026-08-17T04:19:21Z</time>
			</trkpt>
			<trkpt lat="30.242289" lon="120.086182">
				<speed>0.000000</speed>
				<ele>317.000000</ele>
				<time>2026-08-17T04:19:22Z</time>
			</trkpt>
			<trkpt lat="30.242293" lon="120.086188">
				<speed>0.000000</speed>
				<ele>317.000000</ele>
				<time>2026-08-17T04:19:23Z</time>
			</trkpt>
			<trkpt lat="30.242298" lon="120.086193">
				<speed>0.000000</speed>
				<ele>317.000000</ele>
				<time>2026-08-17T04:19:24Z</time>
			</trkpt>
			<trkpt lat="30.242302" lon="120.086198">
				<speed>0.000000</speed>
				<ele>317.000000</ele>
				<time>2026-08-17T04:19:25Z</time>
			</trkpt>
			<trkpt lat="30.242316" lon="120.086213">
				<speed>0.000000</speed>
				<ele>317.000000</ele>
				<time>2026-08-17T04:19:26Z</time>
			</trkpt>
			<trkpt lat="30.242321" lon="120.086218">
				<speed>0.000000</speed>
				<ele>317.000000</ele>
				<time>2026-08-17T04:19:27Z</time>
			</trkpt>
			<trkpt lat="30.242325" lon="120.086223">
				<speed>0.000000</speed>
				<ele>317.000000</ele>
				<time>2026-08-17T04:19:28Z</time>
			</trkpt>
			<trkpt lat="30.242330" lon="120.086227">
				<speed>0.000000</speed>
				<ele>317.000000</ele>
				<time>2026-08-17T04:19:29Z</time>
			</trkpt>
			<trkpt lat="30.242344" lon="120.086240">
				<speed>0.000000</speed>
				<ele>317.000000</ele>
				<time>2026-08-17T04:19:30Z</time>
			</trkpt>
			<trkpt lat="30.242348" lon="120.086244">
				<speed>0.000000</speed>
				<ele>317.000000</ele>
				<time>2026-08-17T04:19:31Z</time>
			</trkpt>
			<trkpt lat="30.242352" lon="120.086247">
				<speed>0.000000</speed>
				<ele>317.000000</ele>
				<time>2026-08-17T04:19:32Z</time>
			</trkpt>
			<trkpt lat="30.242356" lon="120.086251">
				<speed>0.000000</speed>
				<ele>317.000000</ele>
				<time>2026-08-17T04:19:33Z</time>
			</trkpt>
			<trkpt lat="30.242368" lon="120.086262">
				<speed>0.000000</speed>
				<ele>317.000000</ele>
				<time>2026-08-17T04:19:34Z</time>
			</trkpt>
			<trkpt lat="30.242373" lon="120.086265">
				<speed>0.000000</speed>
				<ele>317.000000</ele>
				<time>2026-08-17T04:19:35Z</time>
			</trkpt>
			<trkpt lat="30.242377" lon="120.086269">
				<speed>0.000000</speed>
				<ele>317.000000</ele>
				<time>2026-08-17T04:19:36Z</time>
			</trkpt>
			<trkpt lat="30.242381" lon="120.086273">
				<speed>0.000000</speed>
				<ele>317.000000</ele>
				<time>2026-08-17T04:19:37Z</time>
			</trkpt>
			<trkpt lat="30.242394" lon="120.086285">
				<speed>0.000000</speed>
				<ele>317.000000</ele>
				<time>2026-08-17T04:19:38Z</time>
			</trkpt>
			<trkpt lat="30.242398" lon="120.086289">
				<speed>0.000000</speed>
				<ele>317.000000</ele>
				<time>2026-08-17T04:19:39Z</time>
			</trkpt>
			<trkpt lat="30.242402" lon="120.086293">
				<speed>0.000000</speed>
				<ele>317.000000</ele>
				<time>2026-08-17T04:19:40Z</time>
			</trkpt>
			<trkpt lat="30.242407" lon="120.086297">
				<speed>0.000000</speed>
				<ele>317.000000</ele>
				<time>2026-08-17T04:19:41Z</time>
			</trkpt>
			<trkpt lat="30.242421" lon="120.086310">
				<speed>0.000000</speed>
				<ele>317.000000</ele>
				<time>2026-08-17T04:19:42Z</time>
			</trkpt>
			<trkpt lat="30.242426" lon="120.086315">
				<speed>0.000000</speed>
				<ele>317.000000</ele>
				<time>2026-08-17T04:19:43Z</time>
			</trkpt>
			<trkpt lat="30.242432" lon="120.086320">
				<speed>0.000000</speed>
				<ele>317.000000</ele>
				<time>2026-08-17T04:19:44Z</time>
			</trkpt>
			<trkpt lat="30.242437" lon="120.086325">
				<speed>0.000000</speed>
				<ele>318.000000</ele>
				<time>2026-08-17T04:19:45Z</time>
			</trkpt>
			<trkpt lat="30.242453" lon="120.086340">
				<speed>0.000000</speed>
				<ele>318.000000</ele>
				<time>2026-08-17T04:19:46Z</time>
			</trkpt>
			<trkpt lat="30.242458" lon="120.086344">
				<speed>0.000000</speed>
				<ele>318.000000</ele>
				<time>2026-08-17T04:19:47Z</time>
			</trkpt>
			<trkpt lat="30.242464" lon="120.086349">
				<speed>0.000000</speed>
				<ele>318.000000</ele>
				<time>2026-08-17T04:19:48Z</time>
			</trkpt>
			<trkpt lat="30.242469" lon="120.086354">
				<speed>0.000000</speed>
				<ele>318.000000</ele>
				<time>2026-08-17T04:19:49Z</time>
			</trkpt>
			<trkpt lat="30.242484" lon="120.086366">
				<speed>0.000000</speed>
				<ele>318.000000</ele>
				<time>2026-08-17T04:19:50Z</time>
			</trkpt>
			<trkpt lat="30.242489" lon="120.086370">
				<speed>0.000000</speed>
				<ele>318.000000</ele>
				<time>2026-08-17T04:19:51Z</time>
			</trkpt>
			<trkpt lat="30.242494" lon="120.086374">
				<speed>0.000000</speed>
				<ele>318.000000</ele>
				<time>2026-08-17T04:19:52Z</time>
			</trkpt>
			<trkpt lat="30.242499" lon="120.086378">
				<speed>0.000000</speed>
				<ele>319.000000</ele>
				<time>2026-08-17T04:19:53Z</time>
			</trkpt>
			<trkpt lat="30.242512" lon="120.086390">
				<speed>0.000000</speed>
				<ele>319.000000</ele>
				<time>2026-08-17T04:19:54Z</time>
			</trkpt>
			<trkpt lat="30.242517" lon="120.086394">
				<speed>0.000000</speed>
				<ele>319.000000</ele>
				<time>2026-08-17T04:19:55Z</time>
			</trkpt>
			<trkpt lat="30.242521" lon="120.086398">
				<speed>0.000000</speed>
				<ele>319.000000</ele>
				<time>2026-08-17T04:19:56Z</time>
			</trkpt>
			<trkpt lat="30.242525" lon="120.086402">
				<speed>0.000000</speed>
				<ele>320.000000</ele>
				<time>2026-08-17T04:19:57Z</time>
			</trkpt>
			<trkpt lat="30.242539" lon="120.086416">
				<speed>0.000000</speed>
				<ele>320.000000</ele>
				<time>2026-08-17T04:19:58Z</time>
			</trkpt>
			<trkpt lat="30.242544" lon="120.086422">
				<speed>0.000000</speed>
				<ele>320.000000</ele>
				<time>2026-08-17T04:19:59Z</time>
			</trkpt>
			<trkpt lat="30.242549" lon="120.086428">
				<speed>0.000000</speed>
				<ele>320.000000</ele>
				<time>2026-08-17T04:20:00Z</time>
			</trkpt>
			<trkpt lat="30.242554" lon="120.086433">
				<speed>0.000000</speed>
				<ele>320.000000</ele>
				<time>2026-08-17T04:20:01Z</time>
			</trkpt>
			<trkpt lat="30.242570" lon="120.086453">
				<speed>0.000000</speed>
				<ele>320.000000</ele>
				<time>2026-08-17T04:20:02Z</time>
			</trkpt>
			<trkpt lat="30.242577" lon="120.086460">
				<speed>0.000000</speed>
				<ele>320.000000</ele>
				<time>2026-08-17T04:20:03Z</time>
			</trkpt>
			<trkpt lat="30.242583" lon="120.086467">
				<speed>0.000000</speed>
				<ele>320.000000</ele>
				<time>2026-08-17T04:20:04Z</time>
			</trkpt>
			<trkpt lat="30.242589" lon="120.086474">
				<speed>0.000000</speed>
				<ele>321.000000</ele>
				<time>2026-08-17T04:20:05Z</time>
			</trkpt>
			<trkpt lat="30.242607" lon="120.086495">
				<speed>0.000000</speed>
				<ele>321.000000</ele>
				<time>2026-08-17T04:20:06Z</time>
			</trkpt>
			<trkpt lat="30.242613" lon="120.086501">
				<speed>0.000000</speed>
				<ele>321.000000</ele>
				<time>2026-08-17T04:20:07Z</time>
			</trkpt>
			<trkpt lat="30.242619" lon="120.086509">
				<speed>0.000000</speed>
				<ele>321.000000</ele>
				<time>2026-08-17T04:20:08Z</time>
			</trkpt>
			<trkpt lat="30.242624" lon="120.086516">
				<speed>0.000000</speed>
				<ele>321.000000</ele>
				<time>2026-08-17T04:20:09Z</time>
			</trkpt>
			<trkpt lat="30.242642" lon="120.086536">
				<speed>0.000000</speed>
				<ele>321.000000</ele>
				<time>2026-08-17T04:20:10Z</time>
			</trkpt>
			<trkpt lat="30.242648" lon="120.086543">
				<speed>0.000000</speed>
				<ele>321.000000</ele>
				<time>2026-08-17T04:20:11Z</time>
			</trkpt>
			<trkpt lat="30.242653" lon="120.086549">
				<speed>0.000000</speed>
				<ele>321.000000</ele>
				<time>2026-08-17T04:20:12Z</time>
			</trkpt>
			<trkpt lat="30.242659" lon="120.086556">
				<speed>0.000000</speed>
				<ele>321.000000</ele>
				<time>2026-08-17T04:20:13Z</time>
			</trkpt>
			<trkpt lat="30.242675" lon="120.086576">
				<speed>0.000000</speed>
				<ele>321.000000</ele>
				<time>2026-08-17T04:20:14Z</time>
			</trkpt>
			<trkpt lat="30.242679" lon="120.086583">
				<speed>0.000000</speed>
				<ele>321.000000</ele>
				<time>2026-08-17T04:20:15Z</time>
			</trkpt>
			<trkpt lat="30.242684" lon="120.086589">
				<speed>0.000000</speed>
				<ele>321.000000</ele>
				<time>2026-08-17T04:20:16Z</time>
			</trkpt>
			<trkpt lat="30.242689" lon="120.086596">
				<speed>0.000000</speed>
				<ele>321.000000</ele>
				<time>2026-08-17T04:20:17Z</time>
			</trkpt>
			<trkpt lat="30.242701" lon="120.086619">
				<speed>0.000000</speed>
				<ele>321.000000</ele>
				<time>2026-08-17T04:20:18Z</time>
			</trkpt>
			<trkpt lat="30.242705" lon="120.086627">
				<speed>0.000000</speed>
				<ele>321.000000</ele>
				<time>2026-08-17T04:20:19Z</time>
			</trkpt>
			<trkpt lat="30.242709" lon="120.086636">
				<speed>0.000000</speed>
				<ele>321.000000</ele>
				<time>2026-08-17T04:20:20Z</time>
			</trkpt>
			<trkpt lat="30.242712" lon="120.086644">
				<speed>0.000000</speed>
				<ele>321.000000</ele>
				<time>2026-08-17T04:20:21Z</time>
			</trkpt>
			<trkpt lat="30.242721" lon="120.086671">
				<speed>0.000000</speed>
				<ele>321.000000</ele>
				<time>2026-08-17T04:20:22Z</time>
			</trkpt>
			<trkpt lat="30.242724" lon="120.086680">
				<speed>0.000000</speed>
				<ele>321.000000</ele>
				<time>2026-08-17T04:20:23Z</time>
			</trkpt>
			<trkpt lat="30.242727" lon="120.086689">
				<speed>0.000000</speed>
				<ele>321.000000</ele>
				<time>2026-08-17T04:20:24Z</time>
			</trkpt>
			<trkpt lat="30.242730" lon="120.086698">
				<speed>0.000000</speed>
				<ele>322.000000</ele>
				<time>2026-08-17T04:20:25Z</time>
			</trkpt>
			<trkpt lat="30.242740" lon="120.086724">
				<speed>0.000000</speed>
				<ele>322.000000</ele>
				<time>2026-08-17T04:20:26Z</time>
			</trkpt>
			<trkpt lat="30.242743" lon="120.086731">
				<speed>0.000000</speed>
				<ele>322.000000</ele>
				<time>2026-08-17T04:20:27Z</time>
			</trkpt>
			<trkpt lat="30.242747" lon="120.086739">
				<speed>0.000000</speed>
				<ele>322.000000</ele>
				<time>2026-08-17T04:20:28Z</time>
			</trkpt>
			<trkpt lat="30.242751" lon="120.086747">
				<speed>0.000000</speed>
				<ele>322.000000</ele>
				<time>2026-08-17T04:20:29Z</time>
			</trkpt>
			<trkpt lat="30.242762" lon="120.086769">
				<speed>0.000000</speed>
				<ele>322.000000</ele>
				<time>2026-08-17T04:20:30Z</time>
			</trkpt>
			<trkpt lat="30.242765" lon="120.086776">
				<speed>0.000000</speed>
				<ele>322.000000</ele>
				<time>2026-08-17T04:20:31Z</time>
			</trkpt>
			<trkpt lat="30.242769" lon="120.086783">
				<speed>0.000000</speed>
				<ele>322.000000</ele>
				<time>2026-08-17T04:20:32Z</time>
			</trkpt>
			<trkpt lat="30.242773" lon="120.086789">
				<speed>0.000000</speed>
				<ele>322.000000</ele>
				<time>2026-08-17T04:20:33Z</time>
			</trkpt>
			<trkpt lat="30.242783" lon="120.086808">
				<speed>0.000000</speed>
				<ele>322.000000</ele>
				<time>2026-08-17T04:20:34Z</time>
			</trkpt>
			<trkpt lat="30.242786" lon="120.086814">
				<speed>0.000000</speed>
				<ele>322.000000</ele>
				<time>2026-08-17T04:20:35Z</time>
			</trkpt>
			<trkpt lat="30.242789" lon="120.086820">
				<speed>0.000000</speed>
				<ele>322.000000</ele>
				<time>2026-08-17T04:20:36Z</time>
			</trkpt>
			<trkpt lat="30.242793" lon="120.086826">
				<speed>0.000000</speed>
				<ele>322.000000</ele>
				<time>2026-08-17T04:20:37Z</time>
			</trkpt>
			<trkpt lat="30.242801" lon="120.086844">
				<speed>0.000000</speed>
				<ele>322.000000</ele>
				<time>2026-08-17T04:20:38Z</time>
			</trkpt>
			<trkpt lat="30.242812" lon="120.086854">
				<speed>0.000000</speed>
				<ele>325.000000</ele>
				<time>2026-08-17T04:21:53Z</time>
			</trkpt>
			<trkpt lat="30.242825" lon="120.086868">
				<speed>0.000000</speed>
				<ele>325.000000</ele>
				<time>2026-08-17T04:21:54Z</time>
			</trkpt>
			<trkpt lat="30.242829" lon="120.086873">
				<speed>0.000000</speed>
				<ele>325.000000</ele>
				<time>2026-08-17T04:21:55Z</time>
			</trkpt>
			<trkpt lat="30.242833" lon="120.086878">
				<speed>0.000000</speed>
				<ele>325.000000</ele>
				<time>2026-08-17T04:21:56Z</time>
			</trkpt>
			<trkpt lat="30.242837" lon="120.086883">
				<speed>0.000000</speed>
				<ele>325.000000</ele>
				<time>2026-08-17T04:21:57Z</time>
			</trkpt>
			<trkpt lat="30.242850" lon="120.086901">
				<speed>0.000000</speed>
				<ele>325.000000</ele>
				<time>2026-08-17T04:21:58Z</time>
			</trkpt>
			<trkpt lat="30.242855" lon="120.086907">
				<speed>0.000000</speed>
				<ele>325.000000</ele>
				<time>2026-08-17T04:21:59Z</time>
			</trkpt>
			<trkpt lat="30.242860" lon="120.086913">
				<speed>0.000000</speed>
				<ele>325.000000</ele>
				<time>2026-08-17T04:22:00Z</time>
			</trkpt>
			<trkpt lat="30.242865" lon="120.086919">
				<speed>0.000000</speed>
				<ele>325.000000</ele>
				<time>2026-08-17T04:22:01Z</time>
			</trkpt>
			<trkpt lat="30.242880" lon="120.086939">
				<speed>0.000000</speed>
				<ele>325.000000</ele>
				<time>2026-08-17T04:22:02Z</time>
			</trkpt>
			<trkpt lat="30.242885" lon="120.086945">
				<speed>0.000000</speed>
				<ele>325.000000</ele>
				<time>2026-08-17T04:22:03Z</time>
			</trkpt>
			<trkpt lat="30.242891" lon="120.086951">
				<speed>0.000000</speed>
				<ele>325.000000</ele>
				<time>2026-08-17T04:22:04Z</time>
			</trkpt>
			<trkpt lat="30.242896" lon="120.086958">
				<speed>0.000000</speed>
				<ele>325.000000</ele>
				<time>2026-08-17T04:22:05Z</time>
			</trkpt>
			<trkpt lat="30.242912" lon="120.086975">
				<speed>0.000000</speed>
				<ele>325.000000</ele>
				<time>2026-08-17T04:22:06Z</time>
			</trkpt>
			<trkpt lat="30.242918" lon="120.086980">
				<speed>0.000000</speed>
				<ele>325.000000</ele>
				<time>2026-08-17T04:22:07Z</time>
			</trkpt>
			<trkpt lat="30.242924" lon="120.086985">
				<speed>0.000000</speed>
				<ele>325.000000</ele>
				<time>2026-08-17T04:22:08Z</time>
			</trkpt>
			<trkpt lat="30.242930" lon="120.086990">
				<speed>0.000000</speed>
				<ele>325.000000</ele>
				<time>2026-08-17T04:22:09Z</time>
			</trkpt>
			<trkpt lat="30.242950" lon="120.087004">
				<speed>0.000000</speed>
				<ele>325.000000</ele>
				<time>2026-08-17T04:22:10Z</time>
			</trkpt>
			<trkpt lat="30.242957" lon="120.087008">
				<speed>0.000000</speed>
				<ele>325.000000</ele>
				<time>2026-08-17T04:22:11Z</time>
			</trkpt>
			<trkpt lat="30.242965" lon="120.087012">
				<speed>0.000000</speed>
				<ele>325.000000</ele>
				<time>2026-08-17T04:22:12Z</time>
			</trkpt>
			<trkpt lat="30.242972" lon="120.087016">
				<speed>0.000000</speed>
				<ele>325.000000</ele>
				<time>2026-08-17T04:22:13Z</time>
			</trkpt>
			<trkpt lat="30.242994" lon="120.087027">
				<speed>0.000000</speed>
				<ele>325.000000</ele>
				<time>2026-08-17T04:22:14Z</time>
			</trkpt>
			<trkpt lat="30.243002" lon="120.087030">
				<speed>0.000000</speed>
				<ele>325.000000</ele>
				<time>2026-08-17T04:22:15Z</time>
			</trkpt>
			<trkpt lat="30.243009" lon="120.087033">
				<speed>0.000000</speed>
				<ele>325.000000</ele>
				<time>2026-08-17T04:22:16Z</time>
			</trkpt>
			<trkpt lat="30.243016" lon="120.087036">
				<speed>0.000000</speed>
				<ele>326.000000</ele>
				<time>2026-08-17T04:22:17Z</time>
			</trkpt>
			<trkpt lat="30.243037" lon="120.087044">
				<speed>0.000000</speed>
				<ele>326.000000</ele>
				<time>2026-08-17T04:22:18Z</time>
			</trkpt>
			<trkpt lat="30.243044" lon="120.087047">
				<speed>0.000000</speed>
				<ele>326.000000</ele>
				<time>2026-08-17T04:22:19Z</time>
			</trkpt>
			<trkpt lat="30.243051" lon="120.087049">
				<speed>0.000000</speed>
				<ele>326.000000</ele>
				<time>2026-08-17T04:22:20Z</time>
			</trkpt>
			<trkpt lat="30.243058" lon="120.087052">
				<speed>0.000000</speed>
				<ele>327.000000</ele>
				<time>2026-08-17T04:22:21Z</time>
			</trkpt>
			<trkpt lat="30.243081" lon="120.087058">
				<speed>0.000000</speed>
				<ele>327.000000</ele>
				<time>2026-08-17T04:22:22Z</time>
			</trkpt>
			<trkpt lat="30.243089" lon="120.087059">
				<speed>0.000000</speed>
				<ele>327.000000</ele>
				<time>2026-08-17T04:22:23Z</time>
			</trkpt>
			<trkpt lat="30.243097" lon="120.087060">
				<speed>0.000000</speed>
				<ele>327.000000</ele>
				<time>2026-08-17T04:22:24Z</time>
			</trkpt>
			<trkpt lat="30.243105" lon="120.087061">
				<speed>0.000000</speed>
				<ele>327.000000</ele>
				<time>2026-08-17T04:22:25Z</time>
			</trkpt>
			<trkpt lat="30.243129" lon="120.087061">
				<speed>0.000000</speed>
				<ele>327.000000</ele>
				<time>2026-08-17T04:22:26Z</time>
			</trkpt>
			<trkpt lat="30.243138" lon="120.087060">
				<speed>0.000000</speed>
				<ele>327.000000</ele>
				<time>2026-08-17T04:22:27Z</time>
			</trkpt>
			<trkpt lat="30.243147" lon="120.087060">
				<speed>0.000000</speed>
				<ele>327.000000</ele>
				<time>2026-08-17T04:22:28Z</time>
			</trkpt>
			<trkpt lat="30.243156" lon="120.087060">
				<speed>0.000000</speed>
				<ele>328.000000</ele>
				<time>2026-08-17T04:22:29Z</time>
			</trkpt>
			<trkpt lat="30.243183" lon="120.087060">
				<speed>0.000000</speed>
				<ele>328.000000</ele>
				<time>2026-08-17T04:22:30Z</time>
			</trkpt>
			<trkpt lat="30.243193" lon="120.087060">
				<speed>0.000000</speed>
				<ele>328.000000</ele>
				<time>2026-08-17T04:22:31Z</time>
			</trkpt>
			<trkpt lat="30.243202" lon="120.087061">
				<speed>0.000000</speed>
				<ele>328.000000</ele>
				<time>2026-08-17T04:22:32Z</time>
			</trkpt>
			<trkpt lat="30.243211" lon="120.087061">
				<speed>0.000000</speed>
				<ele>328.000000</ele>
				<time>2026-08-17T04:22:33Z</time>
			</trkpt>
			<trkpt lat="30.243239" lon="120.087062">
				<speed>0.000000</speed>
				<ele>328.000000</ele>
				<time>2026-08-17T04:22:34Z</time>
			</trkpt>
			<trkpt lat="30.243247" lon="120.087062">
				<speed>0.000000</speed>
				<ele>328.000000</ele>
				<time>2026-08-17T04:22:35Z</time>
			</trkpt>
			<trkpt lat="30.243256" lon="120.087063">
				<speed>0.000000</speed>
				<ele>328.000000</ele>
				<time>2026-08-17T04:22:36Z</time>
			</trkpt>
			<trkpt lat="30.243265" lon="120.087063">
				<speed>0.000000</speed>
				<ele>328.000000</ele>
				<time>2026-08-17T04:22:37Z</time>
			</trkpt>
			<trkpt lat="30.243289" lon="120.087065">
				<speed>0.000000</speed>
				<ele>328.000000</ele>
				<time>2026-08-17T04:22:38Z</time>
			</trkpt>
			<trkpt lat="30.243297" lon="120.087066">
				<speed>0.000000</speed>
				<ele>328.000000</ele>
				<time>2026-08-17T04:22:39Z</time>
			</trkpt>
			<trkpt lat="30.243305" lon="120.087067">
				<speed>0.000000</speed>
				<ele>328.000000</ele>
				<time>2026-08-17T04:22:40Z</time>
			</trkpt>
			<trkpt lat="30.243313" lon="120.087067">
				<speed>0.000000</speed>
				<ele>329.000000</ele>
				<time>2026-08-17T04:22:41Z</time>
			</trkpt>
			<trkpt lat="30.243334" lon="120.087070">
				<speed>0.000000</speed>
				<ele>329.000000</ele>
				<time>2026-08-17T04:22:42Z</time>
			</trkpt>
			<trkpt lat="30.243340" lon="120.087071">
				<speed>0.000000</speed>
				<ele>329.000000</ele>
				<time>2026-08-17T04:22:43Z</time>
			</trkpt>
			<trkpt lat="30.243346" lon="120.087072">
				<speed>0.000000</speed>
				<ele>329.000000</ele>
				<time>2026-08-17T04:22:44Z</time>
			</trkpt>
			<trkpt lat="30.243353" lon="120.087073">
				<speed>0.000000</speed>
				<ele>329.000000</ele>
				<time>2026-08-17T04:22:45Z</time>
			</trkpt>
			<trkpt lat="30.243371" lon="120.087076">
				<speed>0.000000</speed>
				<ele>329.000000</ele>
				<time>2026-08-17T04:22:46Z</time>
			</trkpt>
			<trkpt lat="30.243376" lon="120.087077">
				<speed>0.000000</speed>
				<ele>329.000000</ele>
				<time>2026-08-17T04:22:47Z</time>
			</trkpt>
			<trkpt lat="30.243381" lon="120.087078">
				<speed>0.000000</speed>
				<ele>329.000000</ele>
				<time>2026-08-17T04:22:48Z</time>
			</trkpt>
			<trkpt lat="30.243386" lon="120.087079">
				<speed>0.000000</speed>
				<ele>329.000000</ele>
				<time>2026-08-17T04:22:49Z</time>
			</trkpt>
			<trkpt lat="30.243401" lon="120.087083">
				<speed>0.000000</speed>
				<ele>329.000000</ele>
				<time>2026-08-17T04:22:50Z</time>
			</trkpt>
			<trkpt lat="30.243406" lon="120.087084">
				<speed>0.000000</speed>
				<ele>329.000000</ele>
				<time>2026-08-17T04:22:51Z</time>
			</trkpt>
			<trkpt lat="30.243412" lon="120.087085">
				<speed>0.000000</speed>
				<ele>329.000000</ele>
				<time>2026-08-17T04:22:52Z</time>
			</trkpt>
			<trkpt lat="30.243417" lon="120.087086">
				<speed>0.000000</speed>
				<ele>329.000000</ele>
				<time>2026-08-17T04:22:53Z</time>
			</trkpt>
			<trkpt lat="30.243431" lon="120.087090">
				<speed>0.000000</speed>
				<ele>329.000000</ele>
				<time>2026-08-17T04:22:54Z</time>
			</trkpt>
			<trkpt lat="30.243436" lon="120.087091">
				<speed>0.000000</speed>
				<ele>329.000000</ele>
				<time>2026-08-17T04:22:55Z</time>
			</trkpt>
			<trkpt lat="30.243441" lon="120.087093">
				<speed>0.000000</speed>
				<ele>329.000000</ele>
				<time>2026-08-17T04:22:56Z</time>
			</trkpt>
			<trkpt lat="30.243446" lon="120.087094">
				<speed>0.000000</speed>
				<ele>330.000000</ele>
				<time>2026-08-17T04:22:57Z</time>
			</trkpt>
			<trkpt lat="30.243460" lon="120.087100">
				<speed>0.000000</speed>
				<ele>330.000000</ele>
				<time>2026-08-17T04:22:58Z</time>
			</trkpt>
			<trkpt lat="30.243465" lon="120.087101">
				<speed>0.000000</speed>
				<ele>330.000000</ele>
				<time>2026-08-17T04:22:59Z</time>
			</trkpt>
			<trkpt lat="30.243470" lon="120.087103">
				<speed>0.000000</speed>
				<ele>330.000000</ele>
				<time>2026-08-17T04:23:00Z</time>
			</trkpt>
			<trkpt lat="30.243475" lon="120.087105">
				<speed>0.000000</speed>
				<ele>330.000000</ele>
				<time>2026-08-17T04:23:01Z</time>
			</trkpt>
			<trkpt lat="30.243489" lon="120.087110">
				<speed>0.000000</speed>
				<ele>330.000000</ele>
				<time>2026-08-17T04:23:02Z</time>
			</trkpt>
			<trkpt lat="30.243494" lon="120.087112">
				<speed>0.000000</speed>
				<ele>330.000000</ele>
				<time>2026-08-17T04:23:03Z</time>
			</trkpt>
			<trkpt lat="30.243499" lon="120.087114">
				<speed>0.000000</speed>
				<ele>330.000000</ele>
				<time>2026-08-17T04:23:04Z</time>
			</trkpt>
			<trkpt lat="30.243504" lon="120.087116">
				<speed>0.000000</speed>
				<ele>331.000000</ele>
				<time>2026-08-17T04:23:05Z</time>
			</trkpt>
			<trkpt lat="30.243509" lon="120.087118">
				<speed>0.000000</speed>
				<ele>331.000000</ele>
				<time>2026-08-17T04:23:06Z</time>
			</trkpt>
			<trkpt lat="30.243514" lon="120.087119">
				<speed>0.000000</speed>
				<ele>331.000000</ele>
				<time>2026-08-17T04:23:07Z</time>
			</trkpt>
			<trkpt lat="30.243519" lon="120.087120">
				<speed>0.000000</speed>
				<ele>331.000000</ele>
				<time>2026-08-17T04:23:08Z</time>
			</trkpt>
			<trkpt lat="30.243531" lon="120.087121">
				<speed>0.000000</speed>
				<ele>332.000000</ele>
				<time>2026-08-17T04:23:09Z</time>
			</trkpt>
			<trkpt lat="30.243535" lon="120.087120">
				<speed>0.000000</speed>
				<ele>332.000000</ele>
				<time>2026-08-17T04:23:10Z</time>
			</trkpt>
			<trkpt lat="30.243540" lon="120.087120">
				<speed>0.000000</speed>
				<ele>332.000000</ele>
				<time>2026-08-17T04:23:11Z</time>
			</trkpt>
			<trkpt lat="30.243544" lon="120.087120">
				<speed>0.000000</speed>
				<ele>332.000000</ele>
				<time>2026-08-17T04:23:12Z</time>
			</trkpt>
			<trkpt lat="30.243557" lon="120.087120">
				<speed>0.000000</speed>
				<ele>333.000000</ele>
				<time>2026-08-17T04:23:13Z</time>
			</trkpt>
			<trkpt lat="30.243561" lon="120.087120">
				<speed>0.000000</speed>
				<ele>333.000000</ele>
				<time>2026-08-17T04:23:14Z</time>
			</trkpt>
			<trkpt lat="30.243566" lon="120.087120">
				<speed>0.000000</speed>
				<ele>333.000000</ele>
				<time>2026-08-17T04:23:15Z</time>
			</trkpt>
			<trkpt lat="30.243570" lon="120.087121">
				<speed>0.000000</speed>
				<ele>333.000000</ele>
				<time>2026-08-17T04:23:16Z</time>
			</trkpt>
			<trkpt lat="30.243582" lon="120.087128">
				<speed>0.000000</speed>
				<ele>335.000000</ele>
				<time>2026-08-17T04:23:27Z</time>
			</trkpt>
			<trkpt lat="30.243598" lon="120.087138">
				<speed>0.000000</speed>
				<ele>335.000000</ele>
				<time>2026-08-17T04:23:28Z</time>
			</trkpt>
			<trkpt lat="30.243603" lon="120.087140">
				<speed>0.000000</speed>
				<ele>336.000000</ele>
				<time>2026-08-17T04:23:29Z</time>
			</trkpt>
			<trkpt lat="30.243608" lon="120.087142">
				<speed>0.000000</speed>
				<ele>336.000000</ele>
				<time>2026-08-17T04:23:30Z</time>
			</trkpt>
			<trkpt lat="30.243612" lon="120.087144">
				<speed>0.000000</speed>
				<ele>336.000000</ele>
				<time>2026-08-17T04:23:31Z</time>
			</trkpt>
			<trkpt lat="30.243630" lon="120.087151">
				<speed>0.000000</speed>
				<ele>336.000000</ele>
				<time>2026-08-17T04:23:32Z</time>
			</trkpt>
			<trkpt lat="30.243637" lon="120.087154">
				<speed>0.000000</speed>
				<ele>336.000000</ele>
				<time>2026-08-17T04:23:33Z</time>
			</trkpt>
			<trkpt lat="30.243644" lon="120.087157">
				<speed>0.000000</speed>
				<ele>336.000000</ele>
				<time>2026-08-17T04:23:34Z</time>
			</trkpt>
			<trkpt lat="30.243651" lon="120.087160">
				<speed>0.000000</speed>
				<ele>336.000000</ele>
				<time>2026-08-17T04:23:35Z</time>
			</trkpt>
			<trkpt lat="30.243674" lon="120.087168">
				<speed>0.000000</speed>
				<ele>336.000000</ele>
				<time>2026-08-17T04:23:36Z</time>
			</trkpt>
			<trkpt lat="30.243683" lon="120.087171">
				<speed>0.000000</speed>
				<ele>337.000000</ele>
				<time>2026-08-17T04:23:37Z</time>
			</trkpt>
			<trkpt lat="30.243691" lon="120.087174">
				<speed>0.000000</speed>
				<ele>337.000000</ele>
				<time>2026-08-17T04:23:38Z</time>
			</trkpt>
			<trkpt lat="30.243700" lon="120.087177">
				<speed>0.000000</speed>
				<ele>337.000000</ele>
				<time>2026-08-17T04:23:39Z</time>
			</trkpt>
			<trkpt lat="30.243725" lon="120.087190">
				<speed>0.000000</speed>
				<ele>337.000000</ele>
				<time>2026-08-17T04:23:40Z</time>
			</trkpt>
			<trkpt lat="30.243732" lon="120.087196">
				<speed>0.000000</speed>
				<ele>337.000000</ele>
				<time>2026-08-17T04:23:41Z</time>
			</trkpt>
			<trkpt lat="30.243740" lon="120.087201">
				<speed>0.000000</speed>
				<ele>337.000000</ele>
				<time>2026-08-17T04:23:42Z</time>
			</trkpt>
			<trkpt lat="30.243748" lon="120.087207">
				<speed>0.000000</speed>
				<ele>337.000000</ele>
				<time>2026-08-17T04:23:43Z</time>
			</trkpt>
			<trkpt lat="30.243770" lon="120.087224">
				<speed>0.000000</speed>
				<ele>337.000000</ele>
				<time>2026-08-17T04:23:44Z</time>
			</trkpt>
			<trkpt lat="30.243776" lon="120.087229">
				<speed>0.000000</speed>
				<ele>338.000000</ele>
				<time>2026-08-17T04:23:45Z</time>
			</trkpt>
			<trkpt lat="30.243783" lon="120.087235">
				<speed>0.000000</speed>
				<ele>338.000000</ele>
				<time>2026-08-17T04:23:46Z</time>
			</trkpt>
			<trkpt lat="30.243789" lon="120.087240">
				<speed>0.000000</speed>
				<ele>338.000000</ele>
				<time>2026-08-17T04:23:47Z</time>
			</trkpt>
			<trkpt lat="30.243810" lon="120.087254">
				<speed>0.000000</speed>
				<ele>338.000000</ele>
				<time>2026-08-17T04:23:48Z</time>
			</trkpt>
			<trkpt lat="30.243817" lon="120.087259">
				<speed>0.000000</speed>
				<ele>338.000000</ele>
				<time>2026-08-17T04:23:49Z</time>
			</trkpt>
			<trkpt lat="30.243824" lon="120.087264">
				<speed>0.000000</speed>
				<ele>338.000000</ele>
				<time>2026-08-17T04:23:50Z</time>
			</trkpt>
			<trkpt lat="30.243832" lon="120.087270">
				<speed>0.000000</speed>
				<ele>338.000000</ele>
				<time>2026-08-17T04:23:51Z</time>
			</trkpt>
			<trkpt lat="30.243854" lon="120.087287">
				<speed>0.000000</speed>
				<ele>338.000000</ele>
				<time>2026-08-17T04:23:52Z</time>
			</trkpt>
			<trkpt lat="30.243861" lon="120.087292">
				<speed>0.000000</speed>
				<ele>338.000000</ele>
				<time>2026-08-17T04:23:53Z</time>
			</trkpt>
			<trkpt lat="30.243869" lon="120.087297">
				<speed>0.000000</speed>
				<ele>338.000000</ele>
				<time>2026-08-17T04:23:54Z</time>
			</trkpt>
			<trkpt lat="30.243876" lon="120.087302">
				<speed>0.000000</speed>
				<ele>338.000000</ele>
				<time>2026-08-17T04:23:55Z</time>
			</trkpt>
			<trkpt lat="30.243898" lon="120.087315">
				<speed>0.000000</speed>
				<ele>338.000000</ele>
				<time>2026-08-17T04:23:56Z</time>
			</trkpt>
			<trkpt lat="30.243904" lon="120.087318">
				<speed>0.000000</speed>
				<ele>338.000000</ele>
				<time>2026-08-17T04:23:57Z</time>
			</trkpt>
			<trkpt lat="30.243911" lon="120.087322">
				<speed>0.000000</speed>
				<ele>338.000000</ele>
				<time>2026-08-17T04:23:58Z</time>
			</trkpt>
			<trkpt lat="30.243918" lon="120.087326">
				<speed>0.000000</speed>
				<ele>338.000000</ele>
				<time>2026-08-17T04:23:59Z</time>
			</trkpt>
			<trkpt lat="30.243937" lon="120.087337">
				<speed>0.000000</speed>
				<ele>338.000000</ele>
				<time>2026-08-17T04:24:00Z</time>
			</trkpt>
			<trkpt lat="30.243944" lon="120.087341">
				<speed>0.000000</speed>
				<ele>338.000000</ele>
				<time>2026-08-17T04:24:01Z</time>
			</trkpt>
			<trkpt lat="30.243949" lon="120.087345">
				<speed>0.000000</speed>
				<ele>338.000000</ele>
				<time>2026-08-17T04:24:02Z</time>
			</trkpt>
			<trkpt lat="30.243956" lon="120.087348">
				<speed>0.000000</speed>
				<ele>338.000000</ele>
				<time>2026-08-17T04:24:03Z</time>
			</trkpt>
			<trkpt lat="30.243974" lon="120.087359">
				<speed>0.000000</speed>
				<ele>338.000000</ele>
				<time>2026-08-17T04:24:04Z</time>
			</trkpt>
			<trkpt lat="30.243981" lon="120.087362">
				<speed>0.000000</speed>
				<ele>338.000000</ele>
				<time>2026-08-17T04:24:05Z</time>
			</trkpt>
			<trkpt lat="30.243987" lon="120.087366">
				<speed>0.000000</speed>
				<ele>338.000000</ele>
				<time>2026-08-17T04:24:06Z</time>
			</trkpt>
			<trkpt lat="30.243993" lon="120.087369">
				<speed>0.000000</speed>
				<ele>338.000000</ele>
				<time>2026-08-17T04:24:07Z</time>
			</trkpt>
			<trkpt lat="30.244011" lon="120.087380">
				<speed>0.000000</speed>
				<ele>338.000000</ele>
				<time>2026-08-17T04:24:08Z</time>
			</trkpt>
			<trkpt lat="30.244017" lon="120.087383">
				<speed>0.000000</speed>
				<ele>339.000000</ele>
				<time>2026-08-17T04:24:09Z</time>
			</trkpt>
			<trkpt lat="30.244023" lon="120.087387">
				<speed>0.000000</speed>
				<ele>339.000000</ele>
				<time>2026-08-17T04:24:10Z</time>
			</trkpt>
			<trkpt lat="30.244029" lon="120.087391">
				<speed>0.000000</speed>
				<ele>339.000000</ele>
				<time>2026-08-17T04:24:11Z</time>
			</trkpt>
			<trkpt lat="30.244045" lon="120.087402">
				<speed>0.000000</speed>
				<ele>339.000000</ele>
				<time>2026-08-17T04:24:12Z</time>
			</trkpt>
			<trkpt lat="30.244049" lon="120.087406">
				<speed>0.000000</speed>
				<ele>339.000000</ele>
				<time>2026-08-17T04:24:13Z</time>
			</trkpt>
			<trkpt lat="30.244053" lon="120.087411">
				<speed>0.000000</speed>
				<ele>339.000000</ele>
				<time>2026-08-17T04:24:14Z</time>
			</trkpt>
			<trkpt lat="30.244058" lon="120.087415">
				<speed>0.000000</speed>
				<ele>339.000000</ele>
				<time>2026-08-17T04:24:15Z</time>
			</trkpt>
			<trkpt lat="30.244068" lon="120.087426">
				<speed>0.000000</speed>
				<ele>339.000000</ele>
				<time>2026-08-17T04:24:16Z</time>
			</trkpt>
			<trkpt lat="30.244071" lon="120.087430">
				<speed>0.000000</speed>
				<ele>339.000000</ele>
				<time>2026-08-17T04:24:17Z</time>
			</trkpt>
			<trkpt lat="30.244075" lon="120.087433">
				<speed>0.000000</speed>
				<ele>339.000000</ele>
				<time>2026-08-17T04:24:18Z</time>
			</trkpt>
			<trkpt lat="30.244078" lon="120.087436">
				<speed>0.000000</speed>
				<ele>339.000000</ele>
				<time>2026-08-17T04:24:19Z</time>
			</trkpt>
			<trkpt lat="30.244089" lon="120.087447">
				<speed>0.000000</speed>
				<ele>339.000000</ele>
				<time>2026-08-17T04:24:20Z</time>
			</trkpt>
			<trkpt lat="30.244092" lon="120.087451">
				<speed>0.000000</speed>
				<ele>340.000000</ele>
				<time>2026-08-17T04:24:21Z</time>
			</trkpt>
			<trkpt lat="30.244095" lon="120.087455">
				<speed>0.000000</speed>
				<ele>340.000000</ele>
				<time>2026-08-17T04:24:22Z</time>
			</trkpt>
			<trkpt lat="30.244098" lon="120.087460">
				<speed>0.000000</speed>
				<ele>340.000000</ele>
				<time>2026-08-17T04:24:23Z</time>
			</trkpt>
			<trkpt lat="30.244107" lon="120.087469">
				<speed>0.000000</speed>
				<ele>340.000000</ele>
				<time>2026-08-17T04:24:24Z</time>
			</trkpt>
			<trkpt lat="30.244111" lon="120.087471">
				<speed>0.000000</speed>
				<ele>340.000000</ele>
				<time>2026-08-17T04:24:25Z</time>
			</trkpt>
			<trkpt lat="30.244116" lon="120.087472">
				<speed>0.000000</speed>
				<ele>340.000000</ele>
				<time>2026-08-17T04:24:26Z</time>
			</trkpt>
			<trkpt lat="30.244120" lon="120.087474">
				<speed>0.000000</speed>
				<ele>340.000000</ele>
				<time>2026-08-17T04:24:27Z</time>
			</trkpt>
			<trkpt lat="30.244134" lon="120.087481">
				<speed>0.000000</speed>
				<ele>340.000000</ele>
				<time>2026-08-17T04:24:28Z</time>
			</trkpt>
			<trkpt lat="30.244137" lon="120.087483">
				<speed>0.000000</speed>
				<ele>341.000000</ele>
				<time>2026-08-17T04:24:29Z</time>
			</trkpt>
			<trkpt lat="30.244140" lon="120.087485">
				<speed>0.000000</speed>
				<ele>341.000000</ele>
				<time>2026-08-17T04:24:30Z</time>
			</trkpt>
			<trkpt lat="30.244143" lon="120.087487">
				<speed>0.000000</speed>
				<ele>341.000000</ele>
				<time>2026-08-17T04:24:31Z</time>
			</trkpt>
			<trkpt lat="30.244156" lon="120.087496">
				<speed>0.000000</speed>
				<ele>341.000000</ele>
				<time>2026-08-17T04:24:32Z</time>
			</trkpt>
			<trkpt lat="30.244160" lon="120.087500">
				<speed>0.000000</speed>
				<ele>342.000000</ele>
				<time>2026-08-17T04:24:33Z</time>
			</trkpt>
			<trkpt lat="30.244164" lon="120.087503">
				<speed>0.000000</speed>
				<ele>342.000000</ele>
				<time>2026-08-17T04:24:34Z</time>
			</trkpt>
			<trkpt lat="30.244168" lon="120.087507">
				<speed>0.000000</speed>
				<ele>342.000000</ele>
				<time>2026-08-17T04:24:35Z</time>
			</trkpt>
			<trkpt lat="30.244177" lon="120.087522">
				<speed>0.000000</speed>
				<ele>342.000000</ele>
				<time>2026-08-17T04:24:36Z</time>
			</trkpt>
			<trkpt lat="30.244179" lon="120.087527">
				<speed>0.000000</speed>
				<ele>343.000000</ele>
				<time>2026-08-17T04:24:37Z</time>
			</trkpt>
			<trkpt lat="30.244181" lon="120.087533">
				<speed>0.000000</speed>
				<ele>343.000000</ele>
				<time>2026-08-17T04:24:38Z</time>
			</trkpt>
			<trkpt lat="30.244184" lon="120.087538">
				<speed>0.000000</speed>
				<ele>343.000000</ele>
				<time>2026-08-17T04:24:39Z</time>
			</trkpt>
			<trkpt lat="30.244193" lon="120.087553">
				<speed>0.000000</speed>
				<ele>343.000000</ele>
				<time>2026-08-17T04:24:40Z</time>
			</trkpt>
			<trkpt lat="30.244196" lon="120.087557">
				<speed>0.000000</speed>
				<ele>344.000000</ele>
				<time>2026-08-17T04:24:41Z</time>
			</trkpt>
			<trkpt lat="30.244199" lon="120.087561">
				<speed>0.000000</speed>
				<ele>344.000000</ele>
				<time>2026-08-17T04:24:42Z</time>
			</trkpt>
			<trkpt lat="30.244203" lon="120.087565">
				<speed>0.000000</speed>
				<ele>344.000000</ele>
				<time>2026-08-17T04:24:43Z</time>
			</trkpt>
			<trkpt lat="30.244213" lon="120.087576">
				<speed>0.000000</speed>
				<ele>344.000000</ele>
				<time>2026-08-17T04:24:44Z</time>
			</trkpt>
			<trkpt lat="30.244216" lon="120.087578">
				<speed>0.000000</speed>
				<ele>345.000000</ele>
				<time>2026-08-17T04:24:45Z</time>
			</trkpt>
			<trkpt lat="30.244220" lon="120.087581">
				<speed>0.000000</speed>
				<ele>345.000000</ele>
				<time>2026-08-17T04:24:46Z</time>
			</trkpt>
			<trkpt lat="30.244223" lon="120.087584">
				<speed>0.000000</speed>
				<ele>345.000000</ele>
				<time>2026-08-17T04:24:47Z</time>
			</trkpt>
			<trkpt lat="30.244233" lon="120.087590">
				<speed>0.000000</speed>
				<ele>345.000000</ele>
				<time>2026-08-17T04:24:48Z</time>
			</trkpt>
			<trkpt lat="30.244236" lon="120.087592">
				<speed>0.000000</speed>
				<ele>346.000000</ele>
				<time>2026-08-17T04:24:49Z</time>
			</trkpt>
			<trkpt lat="30.244240" lon="120.087594">
				<speed>0.000000</speed>
				<ele>346.000000</ele>
				<time>2026-08-17T04:24:50Z</time>
			</trkpt>
			<trkpt lat="30.244244" lon="120.087596">
				<speed>0.000000</speed>
				<ele>346.000000</ele>
				<time>2026-08-17T04:24:51Z</time>
			</trkpt>
			<trkpt lat="30.244254" lon="120.087601">
				<speed>0.000000</speed>
				<ele>346.000000</ele>
				<time>2026-08-17T04:24:52Z</time>
			</trkpt>
			<trkpt lat="30.244258" lon="120.087603">
				<speed>0.000000</speed>
				<ele>347.000000</ele>
				<time>2026-08-17T04:24:53Z</time>
			</trkpt>
			<trkpt lat="30.244262" lon="120.087604">
				<speed>0.000000</speed>
				<ele>347.000000</ele>
				<time>2026-08-17T04:24:54Z</time>
			</trkpt>
			<trkpt lat="30.244266" lon="120.087606">
				<speed>0.000000</speed>
				<ele>347.000000</ele>
				<time>2026-08-17T04:24:55Z</time>
			</trkpt>
			<trkpt lat="30.244280" lon="120.087611">
				<speed>0.000000</speed>
				<ele>347.000000</ele>
				<time>2026-08-17T04:24:56Z</time>
			</trkpt>
			<trkpt lat="30.244282" lon="120.087612">
				<speed>0.000000</speed>
				<ele>348.000000</ele>
				<time>2026-08-17T04:24:57Z</time>
			</trkpt>
			<trkpt lat="30.244284" lon="120.087613">
				<speed>0.000000</speed>
				<ele>348.000000</ele>
				<time>2026-08-17T04:24:58Z</time>
			</trkpt>
			<trkpt lat="30.244286" lon="120.087613">
				<speed>0.000000</speed>
				<ele>348.000000</ele>
				<time>2026-08-17T04:24:59Z</time>
			</trkpt>
			<trkpt lat="30.244288" lon="120.087614">
				<speed>0.000000</speed>
				<ele>348.000000</ele>
				<time>2026-08-17T04:25:00Z</time>
			</trkpt>
			<trkpt lat="30.244290" lon="120.087615">
				<speed>0.000000</speed>
				<ele>349.000000</ele>
				<time>2026-08-17T04:25:01Z</time>
			</trkpt>
			<trkpt lat="30.244304" lon="120.087619">
				<speed>0.000000</speed>
				<ele>349.000000</ele>
				<time>2026-08-17T04:25:02Z</time>
			</trkpt>
			<trkpt lat="30.244308" lon="120.087620">
				<speed>0.000000</speed>
				<ele>349.000000</ele>
				<time>2026-08-17T04:25:03Z</time>
			</trkpt>
			<trkpt lat="30.244312" lon="120.087622">
				<speed>0.000000</speed>
				<ele>349.000000</ele>
				<time>2026-08-17T04:25:04Z</time>
			</trkpt>
			<trkpt lat="30.244316" lon="120.087624">
				<speed>0.000000</speed>
				<ele>350.000000</ele>
				<time>2026-08-17T04:25:05Z</time>
			</trkpt>
			<trkpt lat="30.244326" lon="120.087631">
				<speed>0.000000</speed>
				<ele>350.000000</ele>
				<time>2026-08-17T04:25:06Z</time>
			</trkpt>
			<trkpt lat="30.244330" lon="120.087633">
				<speed>0.000000</speed>
				<ele>350.000000</ele>
				<time>2026-08-17T04:25:07Z</time>
			</trkpt>
			<trkpt lat="30.244334" lon="120.087635">
				<speed>0.000000</speed>
				<ele>350.000000</ele>
				<time>2026-08-17T04:25:08Z</time>
			</trkpt>
			<trkpt lat="30.244338" lon="120.087637">
				<speed>0.000000</speed>
				<ele>351.000000</ele>
				<time>2026-08-17T04:25:09Z</time>
			</trkpt>
			<trkpt lat="30.244350" lon="120.087642">
				<speed>0.000000</speed>
				<ele>351.000000</ele>
				<time>2026-08-17T04:25:10Z</time>
			</trkpt>
			<trkpt lat="30.244354" lon="120.087643">
				<speed>0.000000</speed>
				<ele>351.000000</ele>
				<time>2026-08-17T04:25:11Z</time>
			</trkpt>
			<trkpt lat="30.244358" lon="120.087645">
				<speed>0.000000</speed>
				<ele>351.000000</ele>
				<time>2026-08-17T04:25:12Z</time>
			</trkpt>
			<trkpt lat="30.244362" lon="120.087647">
				<speed>0.000000</speed>
				<ele>351.000000</ele>
				<time>2026-08-17T04:25:13Z</time>
			</trkpt>
			<trkpt lat="30.244375" lon="120.087652">
				<speed>0.000000</speed>
				<ele>351.000000</ele>
				<time>2026-08-17T04:25:14Z</time>
			</trkpt>
			<trkpt lat="30.244380" lon="120.087655">
				<speed>0.000000</speed>
				<ele>351.000000</ele>
				<time>2026-08-17T04:25:15Z</time>
			</trkpt>
			<trkpt lat="30.244384" lon="120.087659">
				<speed>0.000000</speed>
				<ele>351.000000</ele>
				<time>2026-08-17T04:25:16Z</time>
			</trkpt>
			<trkpt lat="30.244389" lon="120.087662">
				<speed>0.000000</speed>
				<ele>352.000000</ele>
				<time>2026-08-17T04:25:17Z</time>
			</trkpt>
			<trkpt lat="30.244399" lon="120.087670">
				<speed>0.000000</speed>
				<ele>352.000000</ele>
				<time>2026-08-17T04:25:18Z</time>
			</trkpt>
			<trkpt lat="30.244402" lon="120.087671">
				<speed>0.000000</speed>
				<ele>352.000000</ele>
				<time>2026-08-17T04:25:19Z</time>
			</trkpt>
			<trkpt lat="30.244406" lon="120.087673">
				<speed>0.000000</speed>
				<ele>352.000000</ele>
				<time>2026-08-17T04:25:20Z</time>
			</trkpt>
			<trkpt lat="30.244410" lon="120.087675">
				<speed>0.000000</speed>
				<ele>353.000000</ele>
				<time>2026-08-17T04:25:21Z</time>
			</trkpt>
			<trkpt lat="30.244420" lon="120.087682">
				<speed>0.000000</speed>
				<ele>353.000000</ele>
				<time>2026-08-17T04:25:22Z</time>
			</trkpt>
			<trkpt lat="30.244423" lon="120.087686">
				<speed>0.000000</speed>
				<ele>353.000000</ele>
				<time>2026-08-17T04:25:23Z</time>
			</trkpt>
			<trkpt lat="30.244426" lon="120.087689">
				<speed>0.000000</speed>
				<ele>353.000000</ele>
				<time>2026-08-17T04:25:24Z</time>
			</trkpt>
			<trkpt lat="30.244430" lon="120.087693">
				<speed>0.000000</speed>
				<ele>354.000000</ele>
				<time>2026-08-17T04:25:25Z</time>
			</trkpt>
			<trkpt lat="30.244440" lon="120.087704">
				<speed>0.000000</speed>
				<ele>354.000000</ele>
				<time>2026-08-17T04:25:26Z</time>
			</trkpt>
			<trkpt lat="30.244443" lon="120.087708">
				<speed>0.000000</speed>
				<ele>354.000000</ele>
				<time>2026-08-17T04:25:27Z</time>
			</trkpt>
			<trkpt lat="30.244446" lon="120.087712">
				<speed>0.000000</speed>
				<ele>354.000000</ele>
				<time>2026-08-17T04:25:28Z</time>
			</trkpt>
			<trkpt lat="30.244449" lon="120.087715">
				<speed>0.000000</speed>
				<ele>354.000000</ele>
				<time>2026-08-17T04:25:29Z</time>
			</trkpt>
			<trkpt lat="30.244457" lon="120.087726">
				<speed>0.000000</speed>
				<ele>354.000000</ele>
				<time>2026-08-17T04:25:30Z</time>
			</trkpt>
			<trkpt lat="30.244460" lon="120.087729">
				<speed>0.000000</speed>
				<ele>354.000000</ele>
				<time>2026-08-17T04:25:31Z</time>
			</trkpt>
			<trkpt lat="30.244463" lon="120.087732">
				<speed>0.000000</speed>
				<ele>354.000000</ele>
				<time>2026-08-17T04:25:32Z</time>
			</trkpt>
			<trkpt lat="30.244466" lon="120.087736">
				<speed>0.000000</speed>
				<ele>355.000000</ele>
				<time>2026-08-17T04:25:33Z</time>
			</trkpt>
			<trkpt lat="30.244478" lon="120.087748">
				<speed>0.000000</speed>
				<ele>355.000000</ele>
				<time>2026-08-17T04:25:34Z</time>
			</trkpt>
			<trkpt lat="30.244482" lon="120.087752">
				<speed>0.000000</speed>
				<ele>355.000000</ele>
				<time>2026-08-17T04:25:35Z</time>
			</trkpt>
			<trkpt lat="30.244485" lon="120.087757">
				<speed>0.000000</speed>
				<ele>355.000000</ele>
				<time>2026-08-17T04:25:36Z</time>
			</trkpt>
			<trkpt lat="30.244489" lon="120.087762">
				<speed>0.000000</speed>
				<ele>355.000000</ele>
				<time>2026-08-17T04:25:37Z</time>
			</trkpt>
			<trkpt lat="30.244500" lon="120.087775">
				<speed>0.000000</speed>
				<ele>355.000000</ele>
				<time>2026-08-17T04:25:38Z</time>
			</trkpt>
			<trkpt lat="30.244503" lon="120.087779">
				<speed>0.000000</speed>
				<ele>355.000000</ele>
				<time>2026-08-17T04:25:39Z</time>
			</trkpt>
			<trkpt lat="30.244506" lon="120.087782">
				<speed>0.000000</speed>
				<ele>355.000000</ele>
				<time>2026-08-17T04:25:40Z</time>
			</trkpt>
			<trkpt lat="30.244509" lon="120.087786">
				<speed>0.000000</speed>
				<ele>356.000000</ele>
				<time>2026-08-17T04:25:41Z</time>
			</trkpt>
			<trkpt lat="30.244520" lon="120.087800">
				<speed>0.000000</speed>
				<ele>356.000000</ele>
				<time>2026-08-17T04:25:42Z</time>
			</trkpt>
			<trkpt lat="30.244523" lon="120.087805">
				<speed>0.000000</speed>
				<ele>356.000000</ele>
				<time>2026-08-17T04:25:43Z</time>
			</trkpt>
			<trkpt lat="30.244526" lon="120.087811">
				<speed>0.000000</speed>
				<ele>356.000000</ele>
				<time>2026-08-17T04:25:44Z</time>
			</trkpt>
			<trkpt lat="30.244529" lon="120.087817">
				<speed>0.000000</speed>
				<ele>356.000000</ele>
				<time>2026-08-17T04:25:45Z</time>
			</trkpt>
			<trkpt lat="30.244536" lon="120.087836">
				<speed>0.000000</speed>
				<ele>356.000000</ele>
				<time>2026-08-17T04:25:46Z</time>
			</trkpt>
			<trkpt lat="30.244538" lon="120.087842">
				<speed>0.000000</speed>
				<ele>356.000000</ele>
				<time>2026-08-17T04:25:47Z</time>
			</trkpt>
			<trkpt lat="30.244539" lon="120.087849">
				<speed>0.000000</speed>
				<ele>356.000000</ele>
				<time>2026-08-17T04:25:48Z</time>
			</trkpt>
			<trkpt lat="30.244541" lon="120.087855">
				<speed>0.000000</speed>
				<ele>356.000000</ele>
				<time>2026-08-17T04:25:49Z</time>
			</trkpt>
			<trkpt lat="30.244545" lon="120.087875">
				<speed>0.000000</speed>
				<ele>356.000000</ele>
				<time>2026-08-17T04:25:50Z</time>
			</trkpt>
			<trkpt lat="30.244547" lon="120.087882">
				<speed>0.000000</speed>
				<ele>356.000000</ele>
				<time>2026-08-17T04:25:51Z</time>
			</trkpt>
			<trkpt lat="30.244549" lon="120.087889">
				<speed>0.000000</speed>
				<ele>356.000000</ele>
				<time>2026-08-17T04:25:52Z</time>
			</trkpt>
			<trkpt lat="30.244550" lon="120.087896">
				<speed>0.000000</speed>
				<ele>356.000000</ele>
				<time>2026-08-17T04:25:53Z</time>
			</trkpt>
			<trkpt lat="30.244563" lon="120.087919">
				<speed>0.000000</speed>
				<ele>355.000000</ele>
				<time>2026-08-17T04:25:54Z</time>
			</trkpt>
			<trkpt lat="30.244568" lon="120.087927">
				<speed>0.000000</speed>
				<ele>355.000000</ele>
				<time>2026-08-17T04:25:55Z</time>
			</trkpt>
			<trkpt lat="30.244574" lon="120.087935">
				<speed>0.000000</speed>
				<ele>355.000000</ele>
				<time>2026-08-17T04:25:56Z</time>
			</trkpt>
			<trkpt lat="30.244579" lon="120.087943">
				<speed>0.000000</speed>
				<ele>355.000000</ele>
				<time>2026-08-17T04:25:57Z</time>
			</trkpt>
			<trkpt lat="30.244590" lon="120.087968">
				<speed>0.000000</speed>
				<ele>354.000000</ele>
				<time>2026-08-17T04:25:58Z</time>
			</trkpt>
			<trkpt lat="30.244592" lon="120.087975">
				<speed>0.000000</speed>
				<ele>354.000000</ele>
				<time>2026-08-17T04:25:59Z</time>
			</trkpt>
			<trkpt lat="30.244594" lon="120.087982">
				<speed>0.000000</speed>
				<ele>354.000000</ele>
				<time>2026-08-17T04:26:00Z</time>
			</trkpt>
			<trkpt lat="30.244596" lon="120.087989">
				<speed>0.000000</speed>
				<ele>354.000000</ele>
				<time>2026-08-17T04:26:01Z</time>
			</trkpt>
			<trkpt lat="30.244603" lon="120.088011">
				<speed>0.000000</speed>
				<ele>353.000000</ele>
				<time>2026-08-17T04:26:02Z</time>
			</trkpt>
			<trkpt lat="30.244606" lon="120.088019">
				<speed>0.000000</speed>
				<ele>353.000000</ele>
				<time>2026-08-17T04:26:03Z</time>
			</trkpt>
			<trkpt lat="30.244609" lon="120.088027">
				<speed>0.000000</speed>
				<ele>353.000000</ele>
				<time>2026-08-17T04:26:04Z</time>
			</trkpt>
			<trkpt lat="30.244612" lon="120.088035">
				<speed>0.000000</speed>
				<ele>353.000000</ele>
				<time>2026-08-17T04:26:05Z</time>
			</trkpt>
			<trkpt lat="30.244623" lon="120.088063">
				<speed>0.000000</speed>
				<ele>352.000000</ele>
				<time>2026-08-17T04:26:06Z</time>
			</trkpt>
			<trkpt lat="30.244625" lon="120.088072">
				<speed>0.000000</speed>
				<ele>352.000000</ele>
				<time>2026-08-17T04:26:07Z</time>
			</trkpt>
			<trkpt lat="30.244628" lon="120.088081">
				<speed>0.000000</speed>
				<ele>351.000000</ele>
				<time>2026-08-17T04:26:08Z</time>
			</trkpt>
			<trkpt lat="30.244631" lon="120.088091">
				<speed>0.000000</speed>
				<ele>351.000000</ele>
				<time>2026-08-17T04:26:09Z</time>
			</trkpt>
			<trkpt lat="30.244638" lon="120.088122">
				<speed>0.000000</speed>
				<ele>350.000000</ele>
				<time>2026-08-17T04:26:10Z</time>
			</trkpt>
			<trkpt lat="30.244643" lon="120.088133">
				<speed>0.000000</speed>
				<ele>350.000000</ele>
				<time>2026-08-17T04:26:11Z</time>
			</trkpt>
			<trkpt lat="30.244647" lon="120.088145">
				<speed>0.000000</speed>
				<ele>349.000000</ele>
				<time>2026-08-17T04:26:12Z</time>
			</trkpt>
			<trkpt lat="30.244651" lon="120.088156">
				<speed>0.000000</speed>
				<ele>349.000000</ele>
				<time>2026-08-17T04:26:13Z</time>
			</trkpt>
			<trkpt lat="30.244666" lon="120.088194">
				<speed>0.000000</speed>
				<ele>348.000000</ele>
				<time>2026-08-17T04:26:14Z</time>
			</trkpt>
			<trkpt lat="30.244670" lon="120.088207">
				<speed>0.000000</speed>
				<ele>348.000000</ele>
				<time>2026-08-17T04:26:15Z</time>
			</trkpt>
			<trkpt lat="30.244674" lon="120.088219">
				<speed>0.000000</speed>
				<ele>347.000000</ele>
				<time>2026-08-17T04:26:16Z</time>
			</trkpt>
			<trkpt lat="30.244677" lon="120.088232">
				<speed>0.000000</speed>
				<ele>347.000000</ele>
				<time>2026-08-17T04:26:17Z</time>
			</trkpt>
			<trkpt lat="30.244683" lon="120.088268">
				<speed>0.000000</speed>
				<ele>346.000000</ele>
				<time>2026-08-17T04:26:18Z</time>
			</trkpt>
			<trkpt lat="30.244685" lon="120.088279">
				<speed>0.000000</speed>
				<ele>346.000000</ele>
				<time>2026-08-17T04:26:19Z</time>
			</trkpt>
			<trkpt lat="30.244687" lon="120.088289">
				<speed>0.000000</speed>
				<ele>345.000000</ele>
				<time>2026-08-17T04:26:20Z</time>
			</trkpt>
			<trkpt lat="30.244688" lon="120.088300">
				<speed>0.000000</speed>
				<ele>345.000000</ele>
				<time>2026-08-17T04:26:21Z</time>
			</trkpt>
			<trkpt lat="30.244696" lon="120.088331">
				<speed>0.000000</speed>
				<ele>344.000000</ele>
				<time>2026-08-17T04:26:22Z</time>
			</trkpt>
			<trkpt lat="30.244700" lon="120.088341">
				<speed>0.000000</speed>
				<ele>344.000000</ele>
				<time>2026-08-17T04:26:23Z</time>
			</trkpt>
			<trkpt lat="30.244704" lon="120.088351">
				<speed>0.000000</speed>
				<ele>343.000000</ele>
				<time>2026-08-17T04:26:24Z</time>
			</trkpt>
			<trkpt lat="30.244707" lon="120.088361">
				<speed>0.000000</speed>
				<ele>343.000000</ele>
				<time>2026-08-17T04:26:25Z</time>
			</trkpt>
			<trkpt lat="30.244721" lon="120.088391">
				<speed>0.000000</speed>
				<ele>342.000000</ele>
				<time>2026-08-17T04:26:26Z</time>
			</trkpt>
			<trkpt lat="30.244726" lon="120.088402">
				<speed>0.000000</speed>
				<ele>342.000000</ele>
				<time>2026-08-17T04:26:27Z</time>
			</trkpt>
			<trkpt lat="30.244732" lon="120.088414">
				<speed>0.000000</speed>
				<ele>341.000000</ele>
				<time>2026-08-17T04:26:28Z</time>
			</trkpt>
			<trkpt lat="30.244737" lon="120.088425">
				<speed>0.000000</speed>
				<ele>341.000000</ele>
				<time>2026-08-17T04:26:29Z</time>
			</trkpt>
			<trkpt lat="30.244749" lon="120.088463">
				<speed>0.000000</speed>
				<ele>340.000000</ele>
				<time>2026-08-17T04:26:30Z</time>
			</trkpt>
			<trkpt lat="30.244753" lon="120.088475">
				<speed>0.000000</speed>
				<ele>340.000000</ele>
				<time>2026-08-17T04:26:31Z</time>
			</trkpt>
			<trkpt lat="30.244757" lon="120.088487">
				<speed>0.000000</speed>
				<ele>339.000000</ele>
				<time>2026-08-17T04:26:32Z</time>
			</trkpt>
			<trkpt lat="30.244761" lon="120.088499">
				<speed>0.000000</speed>
				<ele>339.000000</ele>
				<time>2026-08-17T04:26:33Z</time>
			</trkpt>
			<trkpt lat="30.244777" lon="120.088530">
				<speed>0.000000</speed>
				<ele>338.000000</ele>
				<time>2026-08-17T04:26:34Z</time>
			</trkpt>
			<trkpt lat="30.244784" lon="120.088539">
				<speed>0.000000</speed>
				<ele>338.000000</ele>
				<time>2026-08-17T04:26:35Z</time>
			</trkpt>
			<trkpt lat="30.244791" lon="120.088547">
				<speed>0.000000</speed>
				<ele>337.000000</ele>
				<time>2026-08-17T04:26:36Z</time>
			</trkpt>
			<trkpt lat="30.244797" lon="120.088555">
				<speed>0.000000</speed>
				<ele>337.000000</ele>
				<time>2026-08-17T04:26:37Z</time>
			</trkpt>
			<trkpt lat="30.244819" lon="120.088575">
				<speed>0.000000</speed>
				<ele>336.000000</ele>
				<time>2026-08-17T04:26:38Z</time>
			</trkpt>
			<trkpt lat="30.244825" lon="120.088581">
				<speed>0.000000</speed>
				<ele>336.000000</ele>
				<time>2026-08-17T04:26:39Z</time>
			</trkpt>
			<trkpt lat="30.244831" lon="120.088586">
				<speed>0.000000</speed>
				<ele>336.000000</ele>
				<time>2026-08-17T04:26:40Z</time>
			</trkpt>
			<trkpt lat="30.244837" lon="120.088591">
				<speed>0.000000</speed>
				<ele>336.000000</ele>
				<time>2026-08-17T04:26:41Z</time>
			</trkpt>
			<trkpt lat="30.244852" lon="120.088608">
				<speed>0.000000</speed>
				<ele>335.000000</ele>
				<time>2026-08-17T04:26:42Z</time>
			</trkpt>
			<trkpt lat="30.244857" lon="120.088614">
				<speed>0.000000</speed>
				<ele>335.000000</ele>
				<time>2026-08-17T04:26:43Z</time>
			</trkpt>
			<trkpt lat="30.244862" lon="120.088620">
				<speed>0.000000</speed>
				<ele>334.000000</ele>
				<time>2026-08-17T04:26:44Z</time>
			</trkpt>
			<trkpt lat="30.244867" lon="120.088626">
				<speed>0.000000</speed>
				<ele>334.000000</ele>
				<time>2026-08-17T04:26:45Z</time>
			</trkpt>
			<trkpt lat="30.244885" lon="120.088644">
				<speed>0.000000</speed>
				<ele>333.000000</ele>
				<time>2026-08-17T04:26:46Z</time>
			</trkpt>
			<trkpt lat="30.244891" lon="120.088651">
				<speed>0.000000</speed>
				<ele>333.000000</ele>
				<time>2026-08-17T04:26:47Z</time>
			</trkpt>
			<trkpt lat="30.244897" lon="120.088657">
				<speed>0.000000</speed>
				<ele>333.000000</ele>
				<time>2026-08-17T04:26:48Z</time>
			</trkpt>
			<trkpt lat="30.244904" lon="120.088664">
				<speed>0.000000</speed>
				<ele>333.000000</ele>
				<time>2026-08-17T04:26:49Z</time>
			</trkpt>
			<trkpt lat="30.244921" lon="120.088684">
				<speed>0.000000</speed>
				<ele>332.000000</ele>
				<time>2026-08-17T04:26:50Z</time>
			</trkpt>
			<trkpt lat="30.244925" lon="120.088691">
				<speed>0.000000</speed>
				<ele>332.000000</ele>
				<time>2026-08-17T04:26:51Z</time>
			</trkpt>
			<trkpt lat="30.244930" lon="120.088698">
				<speed>0.000000</speed>
				<ele>331.000000</ele>
				<time>2026-08-17T04:26:52Z</time>
			</trkpt>
			<trkpt lat="30.244935" lon="120.088705">
				<speed>0.000000</speed>
				<ele>331.000000</ele>
				<time>2026-08-17T04:26:53Z</time>
			</trkpt>
			<trkpt lat="30.244947" lon="120.088727">
				<speed>0.000000</speed>
				<ele>330.000000</ele>
				<time>2026-08-17T04:26:54Z</time>
			</trkpt>
			<trkpt lat="30.244951" lon="120.088735">
				<speed>0.000000</speed>
				<ele>330.000000</ele>
				<time>2026-08-17T04:26:55Z</time>
			</trkpt>
			<trkpt lat="30.244955" lon="120.088743">
				<speed>0.000000</speed>
				<ele>330.000000</ele>
				<time>2026-08-17T04:26:56Z</time>
			</trkpt>
			<trkpt lat="30.244958" lon="120.088750">
				<speed>0.000000</speed>
				<ele>330.000000</ele>
				<time>2026-08-17T04:26:57Z</time>
			</trkpt>
			<trkpt lat="30.244969" lon="120.088773">
				<speed>0.000000</speed>
				<ele>329.000000</ele>
				<time>2026-08-17T04:26:58Z</time>
			</trkpt>
			<trkpt lat="30.244972" lon="120.088779">
				<speed>0.000000</speed>
				<ele>329.000000</ele>
				<time>2026-08-17T04:26:59Z</time>
			</trkpt>
			<trkpt lat="30.244975" lon="120.088786">
				<speed>0.000000</speed>
				<ele>328.000000</ele>
				<time>2026-08-17T04:27:00Z</time>
			</trkpt>
			<trkpt lat="30.244979" lon="120.088792">
				<speed>0.000000</speed>
				<ele>328.000000</ele>
				<time>2026-08-17T04:27:01Z</time>
			</trkpt>
			<trkpt lat="30.244989" lon="120.088808">
				<speed>0.000000</speed>
				<ele>327.000000</ele>
				<time>2026-08-17T04:27:02Z</time>
			</trkpt>
			<trkpt lat="30.244992" lon="120.088813">
				<speed>0.000000</speed>
				<ele>326.000000</ele>
				<time>2026-08-17T04:27:03Z</time>
			</trkpt>
			<trkpt lat="30.244996" lon="120.088819">
				<speed>0.000000</speed>
				<ele>325.000000</ele>
				<time>2026-08-17T04:27:04Z</time>
			</trkpt>
			<trkpt lat="30.244999" lon="120.088824">
				<speed>0.000000</speed>
				<ele>325.000000</ele>
				<time>2026-08-17T04:27:05Z</time>
			</trkpt>
			<trkpt lat="30.245012" lon="120.088844">
				<speed>0.000000</speed>
				<ele>324.000000</ele>
				<time>2026-08-17T04:27:06Z</time>
			</trkpt>
			<trkpt lat="30.245017" lon="120.088850">
				<speed>0.000000</speed>
				<ele>324.000000</ele>
				<time>2026-08-17T04:27:07Z</time>
			</trkpt>
			<trkpt lat="30.245021" lon="120.088857">
				<speed>0.000000</speed>
				<ele>323.000000</ele>
				<time>2026-08-17T04:27:08Z</time>
			</trkpt>
			<trkpt lat="30.245026" lon="120.088863">
				<speed>0.000000</speed>
				<ele>323.000000</ele>
				<time>2026-08-17T04:27:09Z</time>
			</trkpt>
			<trkpt lat="30.245041" lon="120.088884">
				<speed>0.000000</speed>
				<ele>322.000000</ele>
				<time>2026-08-17T04:27:10Z</time>
			</trkpt>
			<trkpt lat="30.245045" lon="120.088892">
				<speed>0.000000</speed>
				<ele>322.000000</ele>
				<time>2026-08-17T04:27:11Z</time>
			</trkpt>
			<trkpt lat="30.245049" lon="120.088900">
				<speed>0.000000</speed>
				<ele>321.000000</ele>
				<time>2026-08-17T04:27:12Z</time>
			</trkpt>
			<trkpt lat="30.245053" lon="120.088908">
				<speed>0.000000</speed>
				<ele>321.000000</ele>
				<time>2026-08-17T04:27:13Z</time>
			</trkpt>
			<trkpt lat="30.245062" lon="120.088933">
				<speed>0.000000</speed>
				<ele>320.000000</ele>
				<time>2026-08-17T04:27:14Z</time>
			</trkpt>
			<trkpt lat="30.245065" lon="120.088940">
				<speed>0.000000</speed>
				<ele>320.000000</ele>
				<time>2026-08-17T04:27:15Z</time>
			</trkpt>
			<trkpt lat="30.245068" lon="120.088947">
				<speed>0.000000</speed>
				<ele>319.000000</ele>
				<time>2026-08-17T04:27:16Z</time>
			</trkpt>
			<trkpt lat="30.245071" lon="120.088954">
				<speed>0.000000</speed>
				<ele>319.000000</ele>
				<time>2026-08-17T04:27:17Z</time>
			</trkpt>
			<trkpt lat="30.245081" lon="120.088967">
				<speed>0.000000</speed>
				<ele>318.000000</ele>
				<time>2026-08-17T04:27:18Z</time>
			</trkpt>
			<trkpt lat="30.245084" lon="120.088970">
				<speed>0.000000</speed>
				<ele>318.000000</ele>
				<time>2026-08-17T04:27:19Z</time>
			</trkpt>
			<trkpt lat="30.245087" lon="120.088973">
				<speed>0.000000</speed>
				<ele>317.000000</ele>
				<time>2026-08-17T04:27:20Z</time>
			</trkpt>
			<trkpt lat="30.245090" lon="120.088976">
				<speed>0.000000</speed>
				<ele>317.000000</ele>
				<time>2026-08-17T04:27:21Z</time>
			</trkpt>
			<trkpt lat="30.245095" lon="120.088980">
				<speed>0.000000</speed>
				<ele>316.000000</ele>
				<time>2026-08-17T04:27:22Z</time>
			</trkpt>
			<trkpt lat="30.245098" lon="120.088982">
				<speed>0.000000</speed>
				<ele>315.000000</ele>
				<time>2026-08-17T04:27:23Z</time>
			</trkpt>
			<trkpt lat="30.245101" lon="120.088985">
				<speed>0.000000</speed>
				<ele>314.000000</ele>
				<time>2026-08-17T04:27:24Z</time>
			</trkpt>
			<trkpt lat="30.245103" lon="120.088987">
				<speed>0.000000</speed>
				<ele>314.000000</ele>
				<time>2026-08-17T04:27:25Z</time>
			</trkpt>
			<trkpt lat="30.245106" lon="120.088990">
				<speed>0.000000</speed>
				<ele>313.000000</ele>
				<time>2026-08-17T04:27:26Z</time>
			</trkpt>
			<trkpt lat="30.245108" lon="120.088994">
				<speed>0.000000</speed>
				<ele>313.000000</ele>
				<time>2026-08-17T04:27:27Z</time>
			</trkpt>
			<trkpt lat="30.245111" lon="120.088997">
				<speed>0.000000</speed>
				<ele>312.000000</ele>
				<time>2026-08-17T04:27:28Z</time>
			</trkpt>
			<trkpt lat="30.245118" lon="120.089008">
				<speed>0.000000</speed>
				<ele>312.000000</ele>
				<time>2026-08-17T04:27:29Z</time>
			</trkpt>
			<trkpt lat="30.245120" lon="120.089012">
				<speed>0.000000</speed>
				<ele>311.000000</ele>
				<time>2026-08-17T04:27:30Z</time>
			</trkpt>
			<trkpt lat="30.245123" lon="120.089016">
				<speed>0.000000</speed>
				<ele>311.000000</ele>
				<time>2026-08-17T04:27:31Z</time>
			</trkpt>
			<trkpt lat="30.245125" lon="120.089020">
				<speed>0.000000</speed>
				<ele>310.000000</ele>
				<time>2026-08-17T04:27:32Z</time>
			</trkpt>
			<trkpt lat="30.245134" lon="120.089032">
				<speed>0.000000</speed>
				<ele>310.000000</ele>
				<time>2026-08-17T04:27:33Z</time>
			</trkpt>
			<trkpt lat="30.245137" lon="120.089035">
				<speed>0.000000</speed>
				<ele>309.000000</ele>
				<time>2026-08-17T04:27:34Z</time>
			</trkpt>
			<trkpt lat="30.245141" lon="120.089038">
				<speed>0.000000</speed>
				<ele>309.000000</ele>
				<time>2026-08-17T04:27:35Z</time>
			</trkpt>
			<trkpt lat="30.245144" lon="120.089042">
				<speed>0.000000</speed>
				<ele>309.000000</ele>
				<time>2026-08-17T04:27:36Z</time>
			</trkpt>
			<trkpt lat="30.245156" lon="120.089051">
				<speed>0.000000</speed>
				<ele>309.000000</ele>
				<time>2026-08-17T04:27:37Z</time>
			</trkpt>
			<trkpt lat="30.245160" lon="120.089055">
				<speed>0.000000</speed>
				<ele>308.000000</ele>
				<time>2026-08-17T04:27:38Z</time>
			</trkpt>
			<trkpt lat="30.245164" lon="120.089059">
				<speed>0.000000</speed>
				<ele>308.000000</ele>
				<time>2026-08-17T04:27:39Z</time>
			</trkpt>
			<trkpt lat="30.245168" lon="120.089062">
				<speed>0.000000</speed>
				<ele>308.000000</ele>
				<time>2026-08-17T04:27:40Z</time>
			</trkpt>
			<trkpt lat="30.245180" lon="120.089074">
				<speed>0.000000</speed>
				<ele>308.000000</ele>
				<time>2026-08-17T04:27:41Z</time>
			</trkpt>
			<trkpt lat="30.245184" lon="120.089079">
				<speed>0.000000</speed>
				<ele>307.000000</ele>
				<time>2026-08-17T04:27:42Z</time>
			</trkpt>
			<trkpt lat="30.245189" lon="120.089083">
				<speed>0.000000</speed>
				<ele>307.000000</ele>
				<time>2026-08-17T04:27:43Z</time>
			</trkpt>
			<trkpt lat="30.245194" lon="120.089088">
				<speed>0.000000</speed>
				<ele>307.000000</ele>
				<time>2026-08-17T04:27:44Z</time>
			</trkpt>
			<trkpt lat="30.245210" lon="120.089100">
				<speed>0.000000</speed>
				<ele>307.000000</ele>
				<time>2026-08-17T04:27:45Z</time>
			</trkpt>
			<trkpt lat="30.245216" lon="120.089102">
				<speed>0.000000</speed>
				<ele>306.000000</ele>
				<time>2026-08-17T04:27:46Z</time>
			</trkpt>
			<trkpt lat="30.245223" lon="120.089105">
				<speed>0.000000</speed>
				<ele>306.000000</ele>
				<time>2026-08-17T04:27:47Z</time>
			</trkpt>
			<trkpt lat="30.245229" lon="120.089108">
				<speed>0.000000</speed>
				<ele>306.000000</ele>
				<time>2026-08-17T04:27:48Z</time>
			</trkpt>
			<trkpt lat="30.245250" lon="120.089113">
				<speed>0.000000</speed>
				<ele>306.000000</ele>
				<time>2026-08-17T04:27:49Z</time>
			</trkpt>
			<trkpt lat="30.245257" lon="120.089114">
				<speed>0.000000</speed>
				<ele>306.000000</ele>
				<time>2026-08-17T04:27:50Z</time>
			</trkpt>
			<trkpt lat="30.245264" lon="120.089115">
				<speed>0.000000</speed>
				<ele>306.000000</ele>
				<time>2026-08-17T04:27:51Z</time>
			</trkpt>
			<trkpt lat="30.245271" lon="120.089116">
				<speed>0.000000</speed>
				<ele>306.000000</ele>
				<time>2026-08-17T04:27:52Z</time>
			</trkpt>
			<trkpt lat="30.245289" lon="120.089120">
				<speed>0.000000</speed>
				<ele>306.000000</ele>
				<time>2026-08-17T04:27:53Z</time>
			</trkpt>
			<trkpt lat="30.245294" lon="120.089121">
				<speed>0.000000</speed>
				<ele>305.000000</ele>
				<time>2026-08-17T04:27:54Z</time>
			</trkpt>
			<trkpt lat="30.245298" lon="120.089122">
				<speed>0.000000</speed>
				<ele>305.000000</ele>
				<time>2026-08-17T04:27:55Z</time>
			</trkpt>
			<trkpt lat="30.245303" lon="120.089123">
				<speed>0.000000</speed>
				<ele>305.000000</ele>
				<time>2026-08-17T04:27:56Z</time>
			</trkpt>
			<trkpt lat="30.245317" lon="120.089125">
				<speed>0.000000</speed>
				<ele>305.000000</ele>
				<time>2026-08-17T04:27:57Z</time>
			</trkpt>
			<trkpt lat="30.245322" lon="120.089126">
				<speed>0.000000</speed>
				<ele>305.000000</ele>
				<time>2026-08-17T04:27:58Z</time>
			</trkpt>
			<trkpt lat="30.245327" lon="120.089127">
				<speed>0.000000</speed>
				<ele>305.000000</ele>
				<time>2026-08-17T04:27:59Z</time>
			</trkpt>
			<trkpt lat="30.245332" lon="120.089128">
				<speed>0.000000</speed>
				<ele>305.000000</ele>
				<time>2026-08-17T04:28:00Z</time>
			</trkpt>
			<trkpt lat="30.245347" lon="120.089131">
				<speed>0.000000</speed>
				<ele>305.000000</ele>
				<time>2026-08-17T04:28:01Z</time>
			</trkpt>
			<trkpt lat="30.245353" lon="120.089131">
				<speed>0.000000</speed>
				<ele>304.000000</ele>
				<time>2026-08-17T04:28:02Z</time>
			</trkpt>
			<trkpt lat="30.245358" lon="120.089132">
				<speed>0.000000</speed>
				<ele>304.000000</ele>
				<time>2026-08-17T04:28:03Z</time>
			</trkpt>
			<trkpt lat="30.245364" lon="120.089132">
				<speed>0.000000</speed>
				<ele>304.000000</ele>
				<time>2026-08-17T04:28:04Z</time>
			</trkpt>
			<trkpt lat="30.245381" lon="120.089134">
				<speed>0.000000</speed>
				<ele>304.000000</ele>
				<time>2026-08-17T04:28:05Z</time>
			</trkpt>
			<trkpt lat="30.245386" lon="120.089133">
				<speed>0.000000</speed>
				<ele>303.000000</ele>
				<time>2026-08-17T04:28:06Z</time>
			</trkpt>
			<trkpt lat="30.245392" lon="120.089132">
				<speed>0.000000</speed>
				<ele>303.000000</ele>
				<time>2026-08-17T04:28:07Z</time>
			</trkpt>
			<trkpt lat="30.245397" lon="120.089131">
				<speed>0.000000</speed>
				<ele>303.000000</ele>
				<time>2026-08-17T04:28:08Z</time>
			</trkpt>
			<trkpt lat="30.245413" lon="120.089127">
				<speed>0.000000</speed>
				<ele>303.000000</ele>
				<time>2026-08-17T04:28:09Z</time>
			</trkpt>
			<trkpt lat="30.245419" lon="120.089126">
				<speed>0.000000</speed>
				<ele>302.000000</ele>
				<time>2026-08-17T04:28:10Z</time>
			</trkpt>
			<trkpt lat="30.245424" lon="120.089125">
				<speed>0.000000</speed>
				<ele>302.000000</ele>
				<time>2026-08-17T04:28:11Z</time>
			</trkpt>
			<trkpt lat="30.245429" lon="120.089125">
				<speed>0.000000</speed>
				<ele>302.000000</ele>
				<time>2026-08-17T04:28:12Z</time>
			</trkpt>
			<trkpt lat="30.245443" lon="120.089125">
				<speed>0.000000</speed>
				<ele>302.000000</ele>
				<time>2026-08-17T04:28:13Z</time>
			</trkpt>
			<trkpt lat="30.245448" lon="120.089127">
				<speed>0.000000</speed>
				<ele>301.000000</ele>
				<time>2026-08-17T04:28:14Z</time>
			</trkpt>
			<trkpt lat="30.245452" lon="120.089128">
				<speed>0.000000</speed>
				<ele>301.000000</ele>
				<time>2026-08-17T04:28:15Z</time>
			</trkpt>
			<trkpt lat="30.245457" lon="120.089130">
				<speed>0.000000</speed>
				<ele>301.000000</ele>
				<time>2026-08-17T04:28:16Z</time>
			</trkpt>
			<trkpt lat="30.245469" lon="120.089136">
				<speed>0.000000</speed>
				<ele>301.000000</ele>
				<time>2026-08-17T04:28:17Z</time>
			</trkpt>
			<trkpt lat="30.245473" lon="120.089138">
				<speed>0.000000</speed>
				<ele>300.000000</ele>
				<time>2026-08-17T04:28:18Z</time>
			</trkpt>
			<trkpt lat="30.245477" lon="120.089141">
				<speed>0.000000</speed>
				<ele>300.000000</ele>
				<time>2026-08-17T04:28:19Z</time>
			</trkpt>
			<trkpt lat="30.245481" lon="120.089143">
				<speed>0.000000</speed>
				<ele>300.000000</ele>
				<time>2026-08-17T04:28:20Z</time>
			</trkpt>
			<trkpt lat="30.245493" lon="120.089148">
				<speed>0.000000</speed>
				<ele>300.000000</ele>
				<time>2026-08-17T04:28:21Z</time>
			</trkpt>
			<trkpt lat="30.245498" lon="120.089149">
				<speed>0.000000</speed>
				<ele>299.000000</ele>
				<time>2026-08-17T04:28:22Z</time>
			</trkpt>
			<trkpt lat="30.245502" lon="120.089150">
				<speed>0.000000</speed>
				<ele>299.000000</ele>
				<time>2026-08-17T04:28:23Z</time>
			</trkpt>
			<trkpt lat="30.245507" lon="120.089151">
				<speed>0.000000</speed>
				<ele>299.000000</ele>
				<time>2026-08-17T04:28:24Z</time>
			</trkpt>
			<trkpt lat="30.245521" lon="120.089154">
				<speed>0.000000</speed>
				<ele>299.000000</ele>
				<time>2026-08-17T04:28:25Z</time>
			</trkpt>
			<trkpt lat="30.245527" lon="120.089155">
				<speed>0.000000</speed>
				<ele>298.000000</ele>
				<time>2026-08-17T04:28:26Z</time>
			</trkpt>
			<trkpt lat="30.245532" lon="120.089156">
				<speed>0.000000</speed>
				<ele>298.000000</ele>
				<time>2026-08-17T04:28:27Z</time>
			</trkpt>
			<trkpt lat="30.245537" lon="120.089157">
				<speed>0.000000</speed>
				<ele>298.000000</ele>
				<time>2026-08-17T04:28:28Z</time>
			</trkpt>
			<trkpt lat="30.245554" lon="120.089157">
				<speed>0.000000</speed>
				<ele>298.000000</ele>
				<time>2026-08-17T04:28:29Z</time>
			</trkpt>
			<trkpt lat="30.245559" lon="120.089157">
				<speed>0.000000</speed>
				<ele>297.000000</ele>
				<time>2026-08-17T04:28:30Z</time>
			</trkpt>
			<trkpt lat="30.245565" lon="120.089158">
				<speed>0.000000</speed>
				<ele>297.000000</ele>
				<time>2026-08-17T04:28:31Z</time>
			</trkpt>
			<trkpt lat="30.245571" lon="120.089159">
				<speed>0.000000</speed>
				<ele>297.000000</ele>
				<time>2026-08-17T04:28:32Z</time>
			</trkpt>
			<trkpt lat="30.245588" lon="120.089162">
				<speed>0.000000</speed>
				<ele>297.000000</ele>
				<time>2026-08-17T04:28:33Z</time>
			</trkpt>
			<trkpt lat="30.245594" lon="120.089164">
				<speed>0.000000</speed>
				<ele>296.000000</ele>
				<time>2026-08-17T04:28:34Z</time>
			</trkpt>
			<trkpt lat="30.245599" lon="120.089167">
				<speed>0.000000</speed>
				<ele>296.000000</ele>
				<time>2026-08-17T04:28:35Z</time>
			</trkpt>
			<trkpt lat="30.245605" lon="120.089170">
				<speed>0.000000</speed>
				<ele>296.000000</ele>
				<time>2026-08-17T04:28:36Z</time>
			</trkpt>
			<trkpt lat="30.245623" lon="120.089179">
				<speed>0.000000</speed>
				<ele>296.000000</ele>
				<time>2026-08-17T04:28:37Z</time>
			</trkpt>
			<trkpt lat="30.245630" lon="120.089180">
				<speed>0.000000</speed>
				<ele>295.000000</ele>
				<time>2026-08-17T04:28:38Z</time>
			</trkpt>
			<trkpt lat="30.245638" lon="120.089180">
				<speed>0.000000</speed>
				<ele>295.000000</ele>
				<time>2026-08-17T04:28:39Z</time>
			</trkpt>
			<trkpt lat="30.245645" lon="120.089181">
				<speed>0.000000</speed>
				<ele>294.000000</ele>
				<time>2026-08-17T04:28:40Z</time>
			</trkpt>
			<trkpt lat="30.245669" lon="120.089189">
				<speed>0.000000</speed>
				<ele>294.000000</ele>
				<time>2026-08-17T04:28:41Z</time>
			</trkpt>
			<trkpt lat="30.245676" lon="120.089196">
				<speed>0.000000</speed>
				<ele>293.000000</ele>
				<time>2026-08-17T04:28:42Z</time>
			</trkpt>
			<trkpt lat="30.245684" lon="120.089203">
				<speed>0.000000</speed>
				<ele>293.000000</ele>
				<time>2026-08-17T04:28:43Z</time>
			</trkpt>
			<trkpt lat="30.245691" lon="120.089209">
				<speed>0.000000</speed>
				<ele>293.000000</ele>
				<time>2026-08-17T04:28:44Z</time>
			</trkpt>
			<trkpt lat="30.245707" lon="120.089229">
				<speed>0.000000</speed>
				<ele>293.000000</ele>
				<time>2026-08-17T04:28:45Z</time>
			</trkpt>
			<trkpt lat="30.245712" lon="120.089233">
				<speed>0.000000</speed>
				<ele>292.000000</ele>
				<time>2026-08-17T04:28:46Z</time>
			</trkpt>
			<trkpt lat="30.245716" lon="120.089237">
				<speed>0.000000</speed>
				<ele>292.000000</ele>
				<time>2026-08-17T04:28:47Z</time>
			</trkpt>
			<trkpt lat="30.245721" lon="120.089242">
				<speed>0.000000</speed>
				<ele>291.000000</ele>
				<time>2026-08-17T04:28:48Z</time>
			</trkpt>
			<trkpt lat="30.245733" lon="120.089251">
				<speed>0.000000</speed>
				<ele>291.000000</ele>
				<time>2026-08-17T04:28:49Z</time>
			</trkpt>
			<trkpt lat="30.245737" lon="120.089254">
				<speed>0.000000</speed>
				<ele>290.000000</ele>
				<time>2026-08-17T04:28:50Z</time>
			</trkpt>
			<trkpt lat="30.245741" lon="120.089256">
				<speed>0.000000</speed>
				<ele>290.000000</ele>
				<time>2026-08-17T04:28:51Z</time>
			</trkpt>
			<trkpt lat="30.245745" lon="120.089258">
				<speed>0.000000</speed>
				<ele>289.000000</ele>
				<time>2026-08-17T04:28:52Z</time>
			</trkpt>
			<trkpt lat="30.245760" lon="120.089262">
				<speed>0.000000</speed>
				<ele>289.000000</ele>
				<time>2026-08-17T04:28:53Z</time>
			</trkpt>
			<trkpt lat="30.245766" lon="120.089262">
				<speed>0.000000</speed>
				<ele>288.000000</ele>
				<time>2026-08-17T04:28:54Z</time>
			</trkpt>
			<trkpt lat="30.245772" lon="120.089262">
				<speed>0.000000</speed>
				<ele>288.000000</ele>
				<time>2026-08-17T04:28:55Z</time>
			</trkpt>
			<trkpt lat="30.245778" lon="120.089262">
				<speed>0.000000</speed>
				<ele>287.000000</ele>
				<time>2026-08-17T04:28:56Z</time>
			</trkpt>
			<trkpt lat="30.245798" lon="120.089262">
				<speed>0.000000</speed>
				<ele>287.000000</ele>
				<time>2026-08-17T04:28:57Z</time>
			</trkpt>
			<trkpt lat="30.245804" lon="120.089263">
				<speed>0.000000</speed>
				<ele>286.000000</ele>
				<time>2026-08-17T04:28:58Z</time>
			</trkpt>
			<trkpt lat="30.245811" lon="120.089265">
				<speed>0.000000</speed>
				<ele>286.000000</ele>
				<time>2026-08-17T04:28:59Z</time>
			</trkpt>
			<trkpt lat="30.245817" lon="120.089266">
				<speed>0.000000</speed>
				<ele>285.000000</ele>
				<time>2026-08-17T04:29:00Z</time>
			</trkpt>
			<trkpt lat="30.245835" lon="120.089278">
				<speed>0.000000</speed>
				<ele>285.000000</ele>
				<time>2026-08-17T04:29:01Z</time>
			</trkpt>
			<trkpt lat="30.245840" lon="120.089282">
				<speed>0.000000</speed>
				<ele>284.000000</ele>
				<time>2026-08-17T04:29:02Z</time>
			</trkpt>
			<trkpt lat="30.245845" lon="120.089286">
				<speed>0.000000</speed>
				<ele>284.000000</ele>
				<time>2026-08-17T04:29:03Z</time>
			</trkpt>
			<trkpt lat="30.245851" lon="120.089291">
				<speed>0.000000</speed>
				<ele>284.000000</ele>
				<time>2026-08-17T04:29:04Z</time>
			</trkpt>
			<trkpt lat="30.245868" lon="120.089297">
				<speed>0.000000</speed>
				<ele>284.000000</ele>
				<time>2026-08-17T04:29:05Z</time>
			</trkpt>
			<trkpt lat="30.245875" lon="120.089297">
				<speed>0.000000</speed>
				<ele>283.000000</ele>
				<time>2026-08-17T04:29:06Z</time>
			</trkpt>
			<trkpt lat="30.245882" lon="120.089298">
				<speed>0.000000</speed>
				<ele>283.000000</ele>
				<time>2026-08-17T04:29:07Z</time>
			</trkpt>
			<trkpt lat="30.245889" lon="120.089299">
				<speed>0.000000</speed>
				<ele>282.000000</ele>
				<time>2026-08-17T04:29:08Z</time>
			</trkpt>
			<trkpt lat="30.245914" lon="120.089303">
				<speed>0.000000</speed>
				<ele>282.000000</ele>
				<time>2026-08-17T04:29:09Z</time>
			</trkpt>
			<trkpt lat="30.245922" lon="120.089305">
				<speed>0.000000</speed>
				<ele>281.000000</ele>
				<time>2026-08-17T04:29:10Z</time>
			</trkpt>
			<trkpt lat="30.245930" lon="120.089307">
				<speed>0.000000</speed>
				<ele>281.000000</ele>
				<time>2026-08-17T04:29:11Z</time>
			</trkpt>
			<trkpt lat="30.245939" lon="120.089310">
				<speed>0.000000</speed>
				<ele>281.000000</ele>
				<time>2026-08-17T04:29:12Z</time>
			</trkpt>
			<trkpt lat="30.245962" lon="120.089319">
				<speed>0.000000</speed>
				<ele>281.000000</ele>
				<time>2026-08-17T04:29:13Z</time>
			</trkpt>
			<trkpt lat="30.245969" lon="120.089322">
				<speed>0.000000</speed>
				<ele>280.000000</ele>
				<time>2026-08-17T04:29:14Z</time>
			</trkpt>
			<trkpt lat="30.245976" lon="120.089326">
				<speed>0.000000</speed>
				<ele>280.000000</ele>
				<time>2026-08-17T04:29:15Z</time>
			</trkpt>
			<trkpt lat="30.245983" lon="120.089329">
				<speed>0.000000</speed>
				<ele>280.000000</ele>
				<time>2026-08-17T04:29:16Z</time>
			</trkpt>
			<trkpt lat="30.246002" lon="120.089338">
				<speed>0.000000</speed>
				<ele>280.000000</ele>
				<time>2026-08-17T04:29:17Z</time>
			</trkpt>
			<trkpt lat="30.246008" lon="120.089341">
				<speed>0.000000</speed>
				<ele>279.000000</ele>
				<time>2026-08-17T04:29:18Z</time>
			</trkpt>
			<trkpt lat="30.246014" lon="120.089344">
				<speed>0.000000</speed>
				<ele>279.000000</ele>
				<time>2026-08-17T04:29:19Z</time>
			</trkpt>
			<trkpt lat="30.246020" lon="120.089347">
				<speed>0.000000</speed>
				<ele>279.000000</ele>
				<time>2026-08-17T04:29:20Z</time>
			</trkpt>
			<trkpt lat="30.246040" lon="120.089353">
				<speed>0.000000</speed>
				<ele>279.000000</ele>
				<time>2026-08-17T04:29:21Z</time>
			</trkpt>
			<trkpt lat="30.246046" lon="120.089354">
				<speed>0.000000</speed>
				<ele>279.000000</ele>
				<time>2026-08-17T04:29:22Z</time>
			</trkpt>
			<trkpt lat="30.246053" lon="120.089356">
				<speed>0.000000</speed>
				<ele>279.000000</ele>
				<time>2026-08-17T04:29:23Z</time>
			</trkpt>
			<trkpt lat="30.246060" lon="120.089358">
				<speed>0.000000</speed>
				<ele>279.000000</ele>
				<time>2026-08-17T04:29:24Z</time>
			</trkpt>
			<trkpt lat="30.246079" lon="120.089363">
				<speed>0.000000</speed>
				<ele>279.000000</ele>
				<time>2026-08-17T04:29:25Z</time>
			</trkpt>
			<trkpt lat="30.246085" lon="120.089365">
				<speed>0.000000</speed>
				<ele>279.000000</ele>
				<time>2026-08-17T04:29:26Z</time>
			</trkpt>
			<trkpt lat="30.246091" lon="120.089367">
				<speed>0.000000</speed>
				<ele>279.000000</ele>
				<time>2026-08-17T04:29:27Z</time>
			</trkpt>
			<trkpt lat="30.246097" lon="120.089369">
				<speed>0.000000</speed>
				<ele>279.000000</ele>
				<time>2026-08-17T04:29:28Z</time>
			</trkpt>
			<trkpt lat="30.246114" lon="120.089375">
				<speed>0.000000</speed>
				<ele>280.000000</ele>
				<time>2026-08-17T04:29:29Z</time>
			</trkpt>
			<trkpt lat="30.246119" lon="120.089377">
				<speed>0.000000</speed>
				<ele>280.000000</ele>
				<time>2026-08-17T04:29:30Z</time>
			</trkpt>
			<trkpt lat="30.246124" lon="120.089378">
				<speed>0.000000</speed>
				<ele>280.000000</ele>
				<time>2026-08-17T04:29:31Z</time>
			</trkpt>
			<trkpt lat="30.246130" lon="120.089380">
				<speed>0.000000</speed>
				<ele>280.000000</ele>
				<time>2026-08-17T04:29:32Z</time>
			</trkpt>
			<trkpt lat="30.246146" lon="120.089386">
				<speed>0.000000</speed>
				<ele>280.000000</ele>
				<time>2026-08-17T04:29:33Z</time>
			</trkpt>
			<trkpt lat="30.246152" lon="120.089389">
				<speed>0.000000</speed>
				<ele>280.000000</ele>
				<time>2026-08-17T04:29:34Z</time>
			</trkpt>
			<trkpt lat="30.246158" lon="120.089392">
				<speed>0.000000</speed>
				<ele>280.000000</ele>
				<time>2026-08-17T04:29:35Z</time>
			</trkpt>
			<trkpt lat="30.246164" lon="120.089394">
				<speed>0.000000</speed>
				<ele>280.000000</ele>
				<time>2026-08-17T04:29:36Z</time>
			</trkpt>
			<trkpt lat="30.246182" lon="120.089405">
				<speed>0.000000</speed>
				<ele>281.000000</ele>
				<time>2026-08-17T04:29:37Z</time>
			</trkpt>
			<trkpt lat="30.246188" lon="120.089409">
				<speed>0.000000</speed>
				<ele>281.000000</ele>
				<time>2026-08-17T04:29:38Z</time>
			</trkpt>
			<trkpt lat="30.246194" lon="120.089413">
				<speed>0.000000</speed>
				<ele>281.000000</ele>
				<time>2026-08-17T04:29:39Z</time>
			</trkpt>
			<trkpt lat="30.246200" lon="120.089417">
				<speed>0.000000</speed>
				<ele>281.000000</ele>
				<time>2026-08-17T04:29:40Z</time>
			</trkpt>
			<trkpt lat="30.246217" lon="120.089429">
				<speed>0.000000</speed>
				<ele>282.000000</ele>
				<time>2026-08-17T04:29:41Z</time>
			</trkpt>
			<trkpt lat="30.246222" lon="120.089433">
				<speed>0.000000</speed>
				<ele>282.000000</ele>
				<time>2026-08-17T04:29:42Z</time>
			</trkpt>
			<trkpt lat="30.246228" lon="120.089437">
				<speed>0.000000</speed>
				<ele>282.000000</ele>
				<time>2026-08-17T04:29:43Z</time>
			</trkpt>
			<trkpt lat="30.246233" lon="120.089442">
				<speed>0.000000</speed>
				<ele>282.000000</ele>
				<time>2026-08-17T04:29:44Z</time>
			</trkpt>
			<trkpt lat="30.246249" lon="120.089454">
				<speed>0.000000</speed>
				<ele>282.000000</ele>
				<time>2026-08-17T04:29:45Z</time>
			</trkpt>
			<trkpt lat="30.246254" lon="120.089458">
				<speed>0.000000</speed>
				<ele>282.000000</ele>
				<time>2026-08-17T04:29:46Z</time>
			</trkpt>
			<trkpt lat="30.246259" lon="120.089461">
				<speed>0.000000</speed>
				<ele>282.000000</ele>
				<time>2026-08-17T04:29:47Z</time>
			</trkpt>
			<trkpt lat="30.246264" lon="120.089465">
				<speed>0.000000</speed>
				<ele>282.000000</ele>
				<time>2026-08-17T04:29:48Z</time>
			</trkpt>
			<trkpt lat="30.246281" lon="120.089474">
				<speed>0.000000</speed>
				<ele>283.000000</ele>
				<time>2026-08-17T04:29:49Z</time>
			</trkpt>
			<trkpt lat="30.246287" lon="120.089476">
				<speed>0.000000</speed>
				<ele>283.000000</ele>
				<time>2026-08-17T04:29:50Z</time>
			</trkpt>
			<trkpt lat="30.246294" lon="120.089478">
				<speed>0.000000</speed>
				<ele>283.000000</ele>
				<time>2026-08-17T04:29:51Z</time>
			</trkpt>
			<trkpt lat="30.246300" lon="120.089481">
				<speed>0.000000</speed>
				<ele>283.000000</ele>
				<time>2026-08-17T04:29:52Z</time>
			</trkpt>
			<trkpt lat="30.246320" lon="120.089486">
				<speed>0.000000</speed>
				<ele>284.000000</ele>
				<time>2026-08-17T04:29:53Z</time>
			</trkpt>
			<trkpt lat="30.246327" lon="120.089487">
				<speed>0.000000</speed>
				<ele>284.000000</ele>
				<time>2026-08-17T04:29:54Z</time>
			</trkpt>
			<trkpt lat="30.246334" lon="120.089489">
				<speed>0.000000</speed>
				<ele>284.000000</ele>
				<time>2026-08-17T04:29:55Z</time>
			</trkpt>
			<trkpt lat="30.246341" lon="120.089490">
				<speed>0.000000</speed>
				<ele>284.000000</ele>
				<time>2026-08-17T04:29:56Z</time>
			</trkpt>
			<trkpt lat="30.246362" lon="120.089494">
				<speed>0.000000</speed>
				<ele>284.000000</ele>
				<time>2026-08-17T04:29:57Z</time>
			</trkpt>
			<trkpt lat="30.246367" lon="120.089496">
				<speed>0.000000</speed>
				<ele>284.000000</ele>
				<time>2026-08-17T04:29:58Z</time>
			</trkpt>
			<trkpt lat="30.246373" lon="120.089497">
				<speed>0.000000</speed>
				<ele>284.000000</ele>
				<time>2026-08-17T04:29:59Z</time>
			</trkpt>
			<trkpt lat="30.246379" lon="120.089498">
				<speed>0.000000</speed>
				<ele>284.000000</ele>
				<time>2026-08-17T04:30:00Z</time>
			</trkpt>
			<trkpt lat="30.246395" lon="120.089505">
				<speed>0.000000</speed>
				<ele>285.000000</ele>
				<time>2026-08-17T04:30:01Z</time>
			</trkpt>
			<trkpt lat="30.246399" lon="120.089507">
				<speed>0.000000</speed>
				<ele>285.000000</ele>
				<time>2026-08-17T04:30:02Z</time>
			</trkpt>
			<trkpt lat="30.246404" lon="120.089509">
				<speed>0.000000</speed>
				<ele>285.000000</ele>
				<time>2026-08-17T04:30:03Z</time>
			</trkpt>
			<trkpt lat="30.246408" lon="120.089512">
				<speed>0.000000</speed>
				<ele>285.000000</ele>
				<time>2026-08-17T04:30:04Z</time>
			</trkpt>
			<trkpt lat="30.246420" lon="120.089519">
				<speed>0.000000</speed>
				<ele>285.000000</ele>
				<time>2026-08-17T04:30:05Z</time>
			</trkpt>
			<trkpt lat="30.246424" lon="120.089521">
				<speed>0.000000</speed>
				<ele>285.000000</ele>
				<time>2026-08-17T04:30:06Z</time>
			</trkpt>
			<trkpt lat="30.246428" lon="120.089522">
				<speed>0.000000</speed>
				<ele>285.000000</ele>
				<time>2026-08-17T04:30:07Z</time>
			</trkpt>
			<trkpt lat="30.246432" lon="120.089524">
				<speed>0.000000</speed>
				<ele>285.000000</ele>
				<time>2026-08-17T04:30:08Z</time>
			</trkpt>
			<trkpt lat="30.246445" lon="120.089529">
				<speed>0.000000</speed>
				<ele>286.000000</ele>
				<time>2026-08-17T04:30:09Z</time>
			</trkpt>
			<trkpt lat="30.246449" lon="120.089530">
				<speed>0.000000</speed>
				<ele>286.000000</ele>
				<time>2026-08-17T04:30:10Z</time>
			</trkpt>
			<trkpt lat="30.246453" lon="120.089530">
				<speed>0.000000</speed>
				<ele>286.000000</ele>
				<time>2026-08-17T04:30:11Z</time>
			</trkpt>
			<trkpt lat="30.246458" lon="120.089531">
				<speed>0.000000</speed>
				<ele>286.000000</ele>
				<time>2026-08-17T04:30:12Z</time>
			</trkpt>
			<trkpt lat="30.246470" lon="120.089532">
				<speed>0.000000</speed>
				<ele>287.000000</ele>
				<time>2026-08-17T04:30:13Z</time>
			</trkpt>
			<trkpt lat="30.246474" lon="120.089531">
				<speed>0.000000</speed>
				<ele>287.000000</ele>
				<time>2026-08-17T04:30:14Z</time>
			</trkpt>
			<trkpt lat="30.246479" lon="120.089531">
				<speed>0.000000</speed>
				<ele>287.000000</ele>
				<time>2026-08-17T04:30:15Z</time>
			</trkpt>
			<trkpt lat="30.246483" lon="120.089531">
				<speed>0.000000</speed>
				<ele>287.000000</ele>
				<time>2026-08-17T04:30:16Z</time>
			</trkpt>
			<trkpt lat="30.246498" lon="120.089528">
				<speed>0.000000</speed>
				<ele>287.000000</ele>
				<time>2026-08-17T04:30:17Z</time>
			</trkpt>
			<trkpt lat="30.246504" lon="120.089527">
				<speed>0.000000</speed>
				<ele>287.000000</ele>
				<time>2026-08-17T04:30:18Z</time>
			</trkpt>
			<trkpt lat="30.246509" lon="120.089526">
				<speed>0.000000</speed>
				<ele>287.000000</ele>
				<time>2026-08-17T04:30:19Z</time>
			</trkpt>
			<trkpt lat="30.246515" lon="120.089525">
				<speed>0.000000</speed>
				<ele>287.000000</ele>
				<time>2026-08-17T04:30:20Z</time>
			</trkpt>
			<trkpt lat="30.246534" lon="120.089522">
				<speed>0.000000</speed>
				<ele>288.000000</ele>
				<time>2026-08-17T04:30:21Z</time>
			</trkpt>
			<trkpt lat="30.246541" lon="120.089521">
				<speed>0.000000</speed>
				<ele>288.000000</ele>
				<time>2026-08-17T04:30:22Z</time>
			</trkpt>
			<trkpt lat="30.246548" lon="120.089520">
				<speed>0.000000</speed>
				<ele>288.000000</ele>
				<time>2026-08-17T04:30:23Z</time>
			</trkpt>
			<trkpt lat="30.246554" lon="120.089519">
				<speed>0.000000</speed>
				<ele>288.000000</ele>
				<time>2026-08-17T04:30:24Z</time>
			</trkpt>
			<trkpt lat="30.246572" lon="120.089515">
				<speed>0.000000</speed>
				<ele>289.000000</ele>
				<time>2026-08-17T04:30:25Z</time>
			</trkpt>
			<trkpt lat="30.246577" lon="120.089513">
				<speed>0.000000</speed>
				<ele>289.000000</ele>
				<time>2026-08-17T04:30:26Z</time>
			</trkpt>
			<trkpt lat="30.246581" lon="120.089512">
				<speed>0.000000</speed>
				<ele>289.000000</ele>
				<time>2026-08-17T04:30:27Z</time>
			</trkpt>
			<trkpt lat="30.246586" lon="120.089511">
				<speed>0.000000</speed>
				<ele>289.000000</ele>
				<time>2026-08-17T04:30:28Z</time>
			</trkpt>
			<trkpt lat="30.246599" lon="120.089507">
				<speed>0.000000</speed>
				<ele>290.000000</ele>
				<time>2026-08-17T04:30:29Z</time>
			</trkpt>
			<trkpt lat="30.246603" lon="120.089507">
				<speed>0.000000</speed>
				<ele>290.000000</ele>
				<time>2026-08-17T04:30:30Z</time>
			</trkpt>
			<trkpt lat="30.246608" lon="120.089506">
				<speed>0.000000</speed>
				<ele>290.000000</ele>
				<time>2026-08-17T04:30:31Z</time>
			</trkpt>
			<trkpt lat="30.246612" lon="120.089506">
				<speed>0.000000</speed>
				<ele>290.000000</ele>
				<time>2026-08-17T04:30:32Z</time>
			</trkpt>
			<trkpt lat="30.246618" lon="120.089506">
				<speed>0.000000</speed>
				<ele>290.000000</ele>
				<time>2026-08-17T04:30:33Z</time>
			</trkpt>
			<trkpt lat="30.246622" lon="120.089505">
				<speed>0.000000</speed>
				<ele>290.000000</ele>
				<time>2026-08-17T04:30:34Z</time>
			</trkpt>
			<trkpt lat="30.246626" lon="120.089505">
				<speed>0.000000</speed>
				<ele>290.000000</ele>
				<time>2026-08-17T04:30:35Z</time>
			</trkpt>
			<trkpt lat="30.246630" lon="120.089505">
				<speed>0.000000</speed>
				<ele>290.000000</ele>
				<time>2026-08-17T04:30:36Z</time>
			</trkpt>
			<trkpt lat="30.246645" lon="120.089504">
				<speed>0.000000</speed>
				<ele>291.000000</ele>
				<time>2026-08-17T04:30:37Z</time>
			</trkpt>
			<trkpt lat="30.246651" lon="120.089503">
				<speed>0.000000</speed>
				<ele>291.000000</ele>
				<time>2026-08-17T04:30:38Z</time>
			</trkpt>
			<trkpt lat="30.246657" lon="120.089502">
				<speed>0.000000</speed>
				<ele>291.000000</ele>
				<time>2026-08-17T04:30:39Z</time>
			</trkpt>
			<trkpt lat="30.246663" lon="120.089502">
				<speed>0.000000</speed>
				<ele>291.000000</ele>
				<time>2026-08-17T04:30:40Z</time>
			</trkpt>
			<trkpt lat="30.246682" lon="120.089503">
				<speed>0.000000</speed>
				<ele>292.000000</ele>
				<time>2026-08-17T04:30:41Z</time>
			</trkpt>
			<trkpt lat="30.246688" lon="120.089505">
				<speed>0.000000</speed>
				<ele>292.000000</ele>
				<time>2026-08-17T04:30:42Z</time>
			</trkpt>
			<trkpt lat="30.246694" lon="120.089507">
				<speed>0.000000</speed>
				<ele>292.000000</ele>
				<time>2026-08-17T04:30:43Z</time>
			</trkpt>
			<trkpt lat="30.246701" lon="120.089509">
				<speed>0.000000</speed>
				<ele>292.000000</ele>
				<time>2026-08-17T04:30:44Z</time>
			</trkpt>
			<trkpt lat="30.246719" lon="120.089518">
				<speed>0.000000</speed>
				<ele>292.000000</ele>
				<time>2026-08-17T04:30:45Z</time>
			</trkpt>
			<trkpt lat="30.246725" lon="120.089522">
				<speed>0.000000</speed>
				<ele>292.000000</ele>
				<time>2026-08-17T04:30:46Z</time>
			</trkpt>
			<trkpt lat="30.246731" lon="120.089525">
				<speed>0.000000</speed>
				<ele>292.000000</ele>
				<time>2026-08-17T04:30:47Z</time>
			</trkpt>
			<trkpt lat="30.246737" lon="120.089528">
				<speed>0.000000</speed>
				<ele>292.000000</ele>
				<time>2026-08-17T04:30:48Z</time>
			</trkpt>
			<trkpt lat="30.246756" lon="120.089535">
				<speed>0.000000</speed>
				<ele>292.000000</ele>
				<time>2026-08-17T04:30:49Z</time>
			</trkpt>
			<trkpt lat="30.246762" lon="120.089535">
				<speed>0.000000</speed>
				<ele>292.000000</ele>
				<time>2026-08-17T04:30:50Z</time>
			</trkpt>
			<trkpt lat="30.246768" lon="120.089536">
				<speed>0.000000</speed>
				<ele>292.000000</ele>
				<time>2026-08-17T04:30:51Z</time>
			</trkpt>
			<trkpt lat="30.246775" lon="120.089538">
				<speed>0.000000</speed>
				<ele>292.000000</ele>
				<time>2026-08-17T04:30:52Z</time>
			</trkpt>
			<trkpt lat="30.246794" lon="120.089540">
				<speed>0.000000</speed>
				<ele>293.000000</ele>
				<time>2026-08-17T04:30:53Z</time>
			</trkpt>
			<trkpt lat="30.246799" lon="120.089542">
				<speed>0.000000</speed>
				<ele>293.000000</ele>
				<time>2026-08-17T04:30:54Z</time>
			</trkpt>
			<trkpt lat="30.246805" lon="120.089545">
				<speed>0.000000</speed>
				<ele>293.000000</ele>
				<time>2026-08-17T04:30:55Z</time>
			</trkpt>
			<trkpt lat="30.246811" lon="120.089547">
				<speed>0.000000</speed>
				<ele>293.000000</ele>
				<time>2026-08-17T04:30:56Z</time>
			</trkpt>
			<trkpt lat="30.246826" lon="120.089559">
				<speed>0.000000</speed>
				<ele>293.000000</ele>
				<time>2026-08-17T04:30:57Z</time>
			</trkpt>
			<trkpt lat="30.246829" lon="120.089564">
				<speed>0.000000</speed>
				<ele>293.000000</ele>
				<time>2026-08-17T04:30:58Z</time>
			</trkpt>
			<trkpt lat="30.246833" lon="120.089569">
				<speed>0.000000</speed>
				<ele>293.000000</ele>
				<time>2026-08-17T04:30:59Z</time>
			</trkpt>
			<trkpt lat="30.246837" lon="120.089575">
				<speed>0.000000</speed>
				<ele>293.000000</ele>
				<time>2026-08-17T04:31:00Z</time>
			</trkpt>
			<trkpt lat="30.246846" lon="120.089593">
				<speed>0.000000</speed>
				<ele>294.000000</ele>
				<time>2026-08-17T04:31:01Z</time>
			</trkpt>
			<trkpt lat="30.246848" lon="120.089600">
				<speed>0.000000</speed>
				<ele>294.000000</ele>
				<time>2026-08-17T04:31:02Z</time>
			</trkpt>
			<trkpt lat="30.246850" lon="120.089607">
				<speed>0.000000</speed>
				<ele>294.000000</ele>
				<time>2026-08-17T04:31:03Z</time>
			</trkpt>
			<trkpt lat="30.246853" lon="120.089613">
				<speed>0.000000</speed>
				<ele>294.000000</ele>
				<time>2026-08-17T04:31:04Z</time>
			</trkpt>
			<trkpt lat="30.246857" lon="120.089634">
				<speed>0.000000</speed>
				<ele>295.000000</ele>
				<time>2026-08-17T04:31:05Z</time>
			</trkpt>
			<trkpt lat="30.246857" lon="120.089641">
				<speed>0.000000</speed>
				<ele>295.000000</ele>
				<time>2026-08-17T04:31:06Z</time>
			</trkpt>
			<trkpt lat="30.246858" lon="120.089648">
				<speed>0.000000</speed>
				<ele>295.000000</ele>
				<time>2026-08-17T04:31:07Z</time>
			</trkpt>
			<trkpt lat="30.246859" lon="120.089655">
				<speed>0.000000</speed>
				<ele>295.000000</ele>
				<time>2026-08-17T04:31:08Z</time>
			</trkpt>
			<trkpt lat="30.246860" lon="120.089676">
				<speed>0.000000</speed>
				<ele>296.000000</ele>
				<time>2026-08-17T04:31:09Z</time>
			</trkpt>
			<trkpt lat="30.246860" lon="120.089682">
				<speed>0.000000</speed>
				<ele>296.000000</ele>
				<time>2026-08-17T04:31:10Z</time>
			</trkpt>
			<trkpt lat="30.246860" lon="120.089689">
				<speed>0.000000</speed>
				<ele>296.000000</ele>
				<time>2026-08-17T04:31:11Z</time>
			</trkpt>
			<trkpt lat="30.246860" lon="120.089695">
				<speed>0.000000</speed>
				<ele>296.000000</ele>
				<time>2026-08-17T04:31:12Z</time>
			</trkpt>
			<trkpt lat="30.246859" lon="120.089717">
				<speed>0.000000</speed>
				<ele>296.000000</ele>
				<time>2026-08-17T04:31:13Z</time>
			</trkpt>
			<trkpt lat="30.246857" lon="120.089725">
				<speed>0.000000</speed>
				<ele>296.000000</ele>
				<time>2026-08-17T04:31:14Z</time>
			</trkpt>
			<trkpt lat="30.246856" lon="120.089733">
				<speed>0.000000</speed>
				<ele>296.000000</ele>
				<time>2026-08-17T04:31:15Z</time>
			</trkpt>
			<trkpt lat="30.246855" lon="120.089741">
				<speed>0.000000</speed>
				<ele>296.000000</ele>
				<time>2026-08-17T04:31:16Z</time>
			</trkpt>
			<trkpt lat="30.246851" lon="120.089766">
				<speed>0.000000</speed>
				<ele>297.000000</ele>
				<time>2026-08-17T04:31:17Z</time>
			</trkpt>
			<trkpt lat="30.246850" lon="120.089774">
				<speed>0.000000</speed>
				<ele>297.000000</ele>
				<time>2026-08-17T04:31:18Z</time>
			</trkpt>
			<trkpt lat="30.246848" lon="120.089782">
				<speed>0.000000</speed>
				<ele>297.000000</ele>
				<time>2026-08-17T04:31:19Z</time>
			</trkpt>
			<trkpt lat="30.246847" lon="120.089789">
				<speed>0.000000</speed>
				<ele>297.000000</ele>
				<time>2026-08-17T04:31:20Z</time>
			</trkpt>
			<trkpt lat="30.246845" lon="120.089811">
				<speed>0.000000</speed>
				<ele>297.000000</ele>
				<time>2026-08-17T04:31:21Z</time>
			</trkpt>
			<trkpt lat="30.246845" lon="120.089818">
				<speed>0.000000</speed>
				<ele>297.000000</ele>
				<time>2026-08-17T04:31:22Z</time>
			</trkpt>
			<trkpt lat="30.246844" lon="120.089825">
				<speed>0.000000</speed>
				<ele>297.000000</ele>
				<time>2026-08-17T04:31:23Z</time>
			</trkpt>
			<trkpt lat="30.246844" lon="120.089832">
				<speed>0.000000</speed>
				<ele>297.000000</ele>
				<time>2026-08-17T04:31:24Z</time>
			</trkpt>
			<trkpt lat="30.246843" lon="120.089851">
				<speed>0.000000</speed>
				<ele>298.000000</ele>
				<time>2026-08-17T04:31:25Z</time>
			</trkpt>
			<trkpt lat="30.246843" lon="120.089859">
				<speed>0.000000</speed>
				<ele>298.000000</ele>
				<time>2026-08-17T04:31:26Z</time>
			</trkpt>
			<trkpt lat="30.246843" lon="120.089866">
				<speed>0.000000</speed>
				<ele>298.000000</ele>
				<time>2026-08-17T04:31:27Z</time>
			</trkpt>
			<trkpt lat="30.246843" lon="120.089874">
				<speed>0.000000</speed>
				<ele>298.000000</ele>
				<time>2026-08-17T04:31:28Z</time>
			</trkpt>
			<trkpt lat="30.246845" lon="120.089898">
				<speed>0.000000</speed>
				<ele>298.000000</ele>
				<time>2026-08-17T04:31:29Z</time>
			</trkpt>
			<trkpt lat="30.246846" lon="120.089907">
				<speed>0.000000</speed>
				<ele>298.000000</ele>
				<time>2026-08-17T04:31:30Z</time>
			</trkpt>
			<trkpt lat="30.246848" lon="120.089915">
				<speed>0.000000</speed>
				<ele>298.000000</ele>
				<time>2026-08-17T04:31:31Z</time>
			</trkpt>
			<trkpt lat="30.246849" lon="120.089923">
				<speed>0.000000</speed>
				<ele>298.000000</ele>
				<time>2026-08-17T04:31:32Z</time>
			</trkpt>
			<trkpt lat="30.246852" lon="120.089945">
				<speed>0.000000</speed>
				<ele>299.000000</ele>
				<time>2026-08-17T04:31:33Z</time>
			</trkpt>
			<trkpt lat="30.246853" lon="120.089951">
				<speed>0.000000</speed>
				<ele>299.000000</ele>
				<time>2026-08-17T04:31:34Z</time>
			</trkpt>
			<trkpt lat="30.246854" lon="120.089957">
				<speed>0.000000</speed>
				<ele>299.000000</ele>
				<time>2026-08-17T04:31:35Z</time>
			</trkpt>
			<trkpt lat="30.246855" lon="120.089964">
				<speed>0.000000</speed>
				<ele>299.000000</ele>
				<time>2026-08-17T04:31:36Z</time>
			</trkpt>
			<trkpt lat="30.246859" lon="120.089981">
				<speed>0.000000</speed>
				<ele>299.000000</ele>
				<time>2026-08-17T04:31:37Z</time>
			</trkpt>
			<trkpt lat="30.246860" lon="120.089987">
				<speed>0.000000</speed>
				<ele>299.000000</ele>
				<time>2026-08-17T04:31:38Z</time>
			</trkpt>
			<trkpt lat="30.246861" lon="120.089994">
				<speed>0.000000</speed>
				<ele>299.000000</ele>
				<time>2026-08-17T04:31:39Z</time>
			</trkpt>
			<trkpt lat="30.246862" lon="120.090000">
				<speed>0.000000</speed>
				<ele>299.000000</ele>
				<time>2026-08-17T04:31:40Z</time>
			</trkpt>
			<trkpt lat="30.246866" lon="120.090022">
				<speed>0.000000</speed>
				<ele>300.000000</ele>
				<time>2026-08-17T04:31:41Z</time>
			</trkpt>
			<trkpt lat="30.246867" lon="120.090030">
				<speed>0.000000</speed>
				<ele>300.000000</ele>
				<time>2026-08-17T04:31:42Z</time>
			</trkpt>
			<trkpt lat="30.246869" lon="120.090038">
				<speed>0.000000</speed>
				<ele>300.000000</ele>
				<time>2026-08-17T04:31:43Z</time>
			</trkpt>
			<trkpt lat="30.246871" lon="120.090046">
				<speed>0.000000</speed>
				<ele>300.000000</ele>
				<time>2026-08-17T04:31:44Z</time>
			</trkpt>
			<trkpt lat="30.246877" lon="120.090070">
				<speed>0.000000</speed>
				<ele>300.000000</ele>
				<time>2026-08-17T04:31:45Z</time>
			</trkpt>
			<trkpt lat="30.246879" lon="120.090077">
				<speed>0.000000</speed>
				<ele>300.000000</ele>
				<time>2026-08-17T04:31:46Z</time>
			</trkpt>
			<trkpt lat="30.246881" lon="120.090085">
				<speed>0.000000</speed>
				<ele>300.000000</ele>
				<time>2026-08-17T04:31:47Z</time>
			</trkpt>
			<trkpt lat="30.246883" lon="120.090092">
				<speed>0.000000</speed>
				<ele>300.000000</ele>
				<time>2026-08-17T04:31:48Z</time>
			</trkpt>
			<trkpt lat="30.246891" lon="120.090114">
				<speed>0.000000</speed>
				<ele>301.000000</ele>
				<time>2026-08-17T04:31:49Z</time>
			</trkpt>
			<trkpt lat="30.246894" lon="120.090120">
				<speed>0.000000</speed>
				<ele>301.000000</ele>
				<time>2026-08-17T04:31:50Z</time>
			</trkpt>
			<trkpt lat="30.246896" lon="120.090127">
				<speed>0.000000</speed>
				<ele>301.000000</ele>
				<time>2026-08-17T04:31:51Z</time>
			</trkpt>
			<trkpt lat="30.246899" lon="120.090134">
				<speed>0.000000</speed>
				<ele>301.000000</ele>
				<time>2026-08-17T04:31:52Z</time>
			</trkpt>
			<trkpt lat="30.246907" lon="120.090153">
				<speed>0.000000</speed>
				<ele>301.000000</ele>
				<time>2026-08-17T04:31:53Z</time>
			</trkpt>
			<trkpt lat="30.246909" lon="120.090159">
				<speed>0.000000</speed>
				<ele>301.000000</ele>
				<time>2026-08-17T04:31:54Z</time>
			</trkpt>
			<trkpt lat="30.246912" lon="120.090165">
				<speed>0.000000</speed>
				<ele>301.000000</ele>
				<time>2026-08-17T04:31:55Z</time>
			</trkpt>
			<trkpt lat="30.246915" lon="120.090171">
				<speed>0.000000</speed>
				<ele>301.000000</ele>
				<time>2026-08-17T04:31:56Z</time>
			</trkpt>
			<trkpt lat="30.246922" lon="120.090188">
				<speed>0.000000</speed>
				<ele>302.000000</ele>
				<time>2026-08-17T04:31:57Z</time>
			</trkpt>
			<trkpt lat="30.246925" lon="120.090194">
				<speed>0.000000</speed>
				<ele>302.000000</ele>
				<time>2026-08-17T04:31:58Z</time>
			</trkpt>
			<trkpt lat="30.246927" lon="120.090200">
				<speed>0.000000</speed>
				<ele>302.000000</ele>
				<time>2026-08-17T04:31:59Z</time>
			</trkpt>
			<trkpt lat="30.246930" lon="120.090207">
				<speed>0.000000</speed>
				<ele>302.000000</ele>
				<time>2026-08-17T04:32:00Z</time>
			</trkpt>
			<trkpt lat="30.246939" lon="120.090228">
				<speed>0.000000</speed>
				<ele>303.000000</ele>
				<time>2026-08-17T04:32:01Z</time>
			</trkpt>
			<trkpt lat="30.246943" lon="120.090236">
				<speed>0.000000</speed>
				<ele>303.000000</ele>
				<time>2026-08-17T04:32:02Z</time>
			</trkpt>
			<trkpt lat="30.246946" lon="120.090244">
				<speed>0.000000</speed>
				<ele>303.000000</ele>
				<time>2026-08-17T04:32:03Z</time>
			</trkpt>
			<trkpt lat="30.246950" lon="120.090252">
				<speed>0.000000</speed>
				<ele>303.000000</ele>
				<time>2026-08-17T04:32:04Z</time>
			</trkpt>
			<trkpt lat="30.246961" lon="120.090276">
				<speed>0.000000</speed>
				<ele>303.000000</ele>
				<time>2026-08-17T04:32:05Z</time>
			</trkpt>
			<trkpt lat="30.246965" lon="120.090284">
				<speed>0.000000</speed>
				<ele>303.000000</ele>
				<time>2026-08-17T04:32:06Z</time>
			</trkpt>
			<trkpt lat="30.246968" lon="120.090293">
				<speed>0.000000</speed>
				<ele>303.000000</ele>
				<time>2026-08-17T04:32:07Z</time>
			</trkpt>
			<trkpt lat="30.246973" lon="120.090301">
				<speed>0.000000</speed>
				<ele>303.000000</ele>
				<time>2026-08-17T04:32:08Z</time>
			</trkpt>
			<trkpt lat="30.246985" lon="120.090330">
				<speed>0.000000</speed>
				<ele>304.000000</ele>
				<time>2026-08-17T04:32:09Z</time>
			</trkpt>
			<trkpt lat="30.246989" lon="120.090339">
				<speed>0.000000</speed>
				<ele>304.000000</ele>
				<time>2026-08-17T04:32:10Z</time>
			</trkpt>
			<trkpt lat="30.246993" lon="120.090349">
				<speed>0.000000</speed>
				<ele>304.000000</ele>
				<time>2026-08-17T04:32:11Z</time>
			</trkpt>
			<trkpt lat="30.246998" lon="120.090358">
				<speed>0.000000</speed>
				<ele>304.000000</ele>
				<time>2026-08-17T04:32:12Z</time>
			</trkpt>
			<trkpt lat="30.247011" lon="120.090384">
				<speed>0.000000</speed>
				<ele>304.000000</ele>
				<time>2026-08-17T04:32:13Z</time>
			</trkpt>
			<trkpt lat="30.247016" lon="120.090391">
				<speed>0.000000</speed>
				<ele>304.000000</ele>
				<time>2026-08-17T04:32:14Z</time>
			</trkpt>
			<trkpt lat="30.247021" lon="120.090398">
				<speed>0.000000</speed>
				<ele>304.000000</ele>
				<time>2026-08-17T04:32:15Z</time>
			</trkpt>
			<trkpt lat="30.247025" lon="120.090406">
				<speed>0.000000</speed>
				<ele>304.000000</ele>
				<time>2026-08-17T04:32:16Z</time>
			</trkpt>
			<trkpt lat="30.247041" lon="120.090426">
				<speed>0.000000</speed>
				<ele>305.000000</ele>
				<time>2026-08-17T04:32:17Z</time>
			</trkpt>
			<trkpt lat="30.247046" lon="120.090432">
				<speed>0.000000</speed>
				<ele>305.000000</ele>
				<time>2026-08-17T04:32:18Z</time>
			</trkpt>
			<trkpt lat="30.247052" lon="120.090439">
				<speed>0.000000</speed>
				<ele>305.000000</ele>
				<time>2026-08-17T04:32:19Z</time>
			</trkpt>
			<trkpt lat="30.247057" lon="120.090445">
				<speed>0.000000</speed>
				<ele>305.000000</ele>
				<time>2026-08-17T04:32:20Z</time>
			</trkpt>
			<trkpt lat="30.247074" lon="120.090462">
				<speed>0.000000</speed>
				<ele>305.000000</ele>
				<time>2026-08-17T04:32:21Z</time>
			</trkpt>
			<trkpt lat="30.247080" lon="120.090469">
				<speed>0.000000</speed>
				<ele>305.000000</ele>
				<time>2026-08-17T04:32:22Z</time>
			</trkpt>
			<trkpt lat="30.247085" lon="120.090475">
				<speed>0.000000</speed>
				<ele>305.000000</ele>
				<time>2026-08-17T04:32:23Z</time>
			</trkpt>
			<trkpt lat="30.247091" lon="120.090482">
				<speed>0.000000</speed>
				<ele>305.000000</ele>
				<time>2026-08-17T04:32:24Z</time>
			</trkpt>
			<trkpt lat="30.247103" lon="120.090507">
				<speed>0.000000</speed>
				<ele>305.000000</ele>
				<time>2026-08-17T04:32:25Z</time>
			</trkpt>
			<trkpt lat="30.247106" lon="120.090516">
				<speed>0.000000</speed>
				<ele>305.000000</ele>
				<time>2026-08-17T04:32:26Z</time>
			</trkpt>
			<trkpt lat="30.247109" lon="120.090525">
				<speed>0.000000</speed>
				<ele>305.000000</ele>
				<time>2026-08-17T04:32:27Z</time>
			</trkpt>
			<trkpt lat="30.247112" lon="120.090535">
				<speed>0.000000</speed>
				<ele>305.000000</ele>
				<time>2026-08-17T04:32:28Z</time>
			</trkpt>
			<trkpt lat="30.247117" lon="120.090564">
				<speed>0.000000</speed>
				<ele>305.000000</ele>
				<time>2026-08-17T04:32:29Z</time>
			</trkpt>
			<trkpt lat="30.247118" lon="120.090574">
				<speed>0.000000</speed>
				<ele>305.000000</ele>
				<time>2026-08-17T04:32:30Z</time>
			</trkpt>
			<trkpt lat="30.247118" lon="120.090584">
				<speed>0.000000</speed>
				<ele>305.000000</ele>
				<time>2026-08-17T04:32:31Z</time>
			</trkpt>
			<trkpt lat="30.247119" lon="120.090594">
				<speed>0.000000</speed>
				<ele>305.000000</ele>
				<time>2026-08-17T04:32:32Z</time>
			</trkpt>
			<trkpt lat="30.247123" lon="120.090624">
				<speed>0.000000</speed>
				<ele>306.000000</ele>
				<time>2026-08-17T04:32:33Z</time>
			</trkpt>
			<trkpt lat="30.247125" lon="120.090634">
				<speed>0.000000</speed>
				<ele>306.000000</ele>
				<time>2026-08-17T04:32:34Z</time>
			</trkpt>
			<trkpt lat="30.247127" lon="120.090644">
				<speed>0.000000</speed>
				<ele>306.000000</ele>
				<time>2026-08-17T04:32:35Z</time>
			</trkpt>
			<trkpt lat="30.247129" lon="120.090654">
				<speed>0.000000</speed>
				<ele>306.000000</ele>
				<time>2026-08-17T04:32:36Z</time>
			</trkpt>
			<trkpt lat="30.247137" lon="120.090683">
				<speed>0.000000</speed>
				<ele>306.000000</ele>
				<time>2026-08-17T04:32:37Z</time>
			</trkpt>
			<trkpt lat="30.247140" lon="120.090693">
				<speed>0.000000</speed>
				<ele>305.000000</ele>
				<time>2026-08-17T04:32:38Z</time>
			</trkpt>
			<trkpt lat="30.247143" lon="120.090703">
				<speed>0.000000</speed>
				<ele>305.000000</ele>
				<time>2026-08-17T04:32:39Z</time>
			</trkpt>
			<trkpt lat="30.247146" lon="120.090712">
				<speed>0.000000</speed>
				<ele>305.000000</ele>
				<time>2026-08-17T04:32:40Z</time>
			</trkpt>
			<trkpt lat="30.247155" lon="120.090739">
				<speed>0.000000</speed>
				<ele>305.000000</ele>
				<time>2026-08-17T04:32:41Z</time>
			</trkpt>
			<trkpt lat="30.247159" lon="120.090746">
				<speed>0.000000</speed>
				<ele>305.000000</ele>
				<time>2026-08-17T04:32:42Z</time>
			</trkpt>
			<trkpt lat="30.247162" lon="120.090754">
				<speed>0.000000</speed>
				<ele>305.000000</ele>
				<time>2026-08-17T04:32:43Z</time>
			</trkpt>
			<trkpt lat="30.247166" lon="120.090762">
				<speed>0.000000</speed>
				<ele>305.000000</ele>
				<time>2026-08-17T04:32:44Z</time>
			</trkpt>
			<trkpt lat="30.247179" lon="120.090785">
				<speed>0.000000</speed>
				<ele>305.000000</ele>
				<time>2026-08-17T04:32:45Z</time>
			</trkpt>
			<trkpt lat="30.247184" lon="120.090792">
				<speed>0.000000</speed>
				<ele>305.000000</ele>
				<time>2026-08-17T04:32:46Z</time>
			</trkpt>
			<trkpt lat="30.247189" lon="120.090799">
				<speed>0.000000</speed>
				<ele>305.000000</ele>
				<time>2026-08-17T04:32:47Z</time>
			</trkpt>
			<trkpt lat="30.247194" lon="120.090806">
				<speed>0.000000</speed>
				<ele>305.000000</ele>
				<time>2026-08-17T04:32:48Z</time>
			</trkpt>
			<trkpt lat="30.247211" lon="120.090826">
				<speed>0.000000</speed>
				<ele>305.000000</ele>
				<time>2026-08-17T04:32:49Z</time>
			</trkpt>
			<trkpt lat="30.247216" lon="120.090832">
				<speed>0.000000</speed>
				<ele>304.000000</ele>
				<time>2026-08-17T04:32:50Z</time>
			</trkpt>
			<trkpt lat="30.247222" lon="120.090839">
				<speed>0.000000</speed>
				<ele>304.000000</ele>
				<time>2026-08-17T04:32:51Z</time>
			</trkpt>
			<trkpt lat="30.247228" lon="120.090845">
				<speed>0.000000</speed>
				<ele>304.000000</ele>
				<time>2026-08-17T04:32:52Z</time>
			</trkpt>
			<trkpt lat="30.247248" lon="120.090866">
				<speed>0.000000</speed>
				<ele>304.000000</ele>
				<time>2026-08-17T04:32:53Z</time>
			</trkpt>
			<trkpt lat="30.247257" lon="120.090873">
				<speed>0.000000</speed>
				<ele>304.000000</ele>
				<time>2026-08-17T04:32:54Z</time>
			</trkpt>
			<trkpt lat="30.247265" lon="120.090881">
				<speed>0.000000</speed>
				<ele>304.000000</ele>
				<time>2026-08-17T04:32:55Z</time>
			</trkpt>
			<trkpt lat="30.247273" lon="120.090888">
				<speed>0.000000</speed>
				<ele>304.000000</ele>
				<time>2026-08-17T04:32:56Z</time>
			</trkpt>
			<trkpt lat="30.247304" lon="120.090912">
				<speed>0.000000</speed>
				<ele>304.000000</ele>
				<time>2026-08-17T04:32:57Z</time>
			</trkpt>
			<trkpt lat="30.247315" lon="120.090921">
				<speed>0.000000</speed>
				<ele>304.000000</ele>
				<time>2026-08-17T04:32:58Z</time>
			</trkpt>
			<trkpt lat="30.247326" lon="120.090929">
				<speed>0.000000</speed>
				<ele>304.000000</ele>
				<time>2026-08-17T04:32:59Z</time>
			</trkpt>
			<trkpt lat="30.247337" lon="120.090938">
				<speed>0.000000</speed>
				<ele>304.000000</ele>
				<time>2026-08-17T04:33:00Z</time>
			</trkpt>
			<trkpt lat="30.247371" lon="120.090964">
				<speed>0.000000</speed>
				<ele>304.000000</ele>
				<time>2026-08-17T04:33:01Z</time>
			</trkpt>
			<trkpt lat="30.247383" lon="120.090974">
				<speed>0.000000</speed>
				<ele>304.000000</ele>
				<time>2026-08-17T04:33:02Z</time>
			</trkpt>
			<trkpt lat="30.247395" lon="120.090983">
				<speed>0.000000</speed>
				<ele>304.000000</ele>
				<time>2026-08-17T04:33:03Z</time>
			</trkpt>
			<trkpt lat="30.247407" lon="120.090993">
				<speed>0.000000</speed>
				<ele>304.000000</ele>
				<time>2026-08-17T04:33:04Z</time>
			</trkpt>
			<trkpt lat="30.247445" lon="120.091026">
				<speed>0.000000</speed>
				<ele>304.000000</ele>
				<time>2026-08-17T04:33:05Z</time>
			</trkpt>
			<trkpt lat="30.247457" lon="120.091038">
				<speed>0.000000</speed>
				<ele>304.000000</ele>
				<time>2026-08-17T04:33:06Z</time>
			</trkpt>
			<trkpt lat="30.247469" lon="120.091051">
				<speed>0.000000</speed>
				<ele>304.000000</ele>
				<time>2026-08-17T04:33:07Z</time>
			</trkpt>
			<trkpt lat="30.247481" lon="120.091063">
				<speed>0.000000</speed>
				<ele>304.000000</ele>
				<time>2026-08-17T04:33:08Z</time>
			</trkpt>
			<trkpt lat="30.247515" lon="120.091102">
				<speed>0.000000</speed>
				<ele>305.000000</ele>
				<time>2026-08-17T04:33:09Z</time>
			</trkpt>
			<trkpt lat="30.247526" lon="120.091115">
				<speed>0.000000</speed>
				<ele>305.000000</ele>
				<time>2026-08-17T04:33:10Z</time>
			</trkpt>
			<trkpt lat="30.247536" lon="120.091129">
				<speed>0.000000</speed>
				<ele>305.000000</ele>
				<time>2026-08-17T04:33:11Z</time>
			</trkpt>
			<trkpt lat="30.247547" lon="120.091142">
				<speed>0.000000</speed>
				<ele>305.000000</ele>
				<time>2026-08-17T04:33:12Z</time>
			</trkpt>
			<trkpt lat="30.247576" lon="120.091182">
				<speed>0.000000</speed>
				<ele>306.000000</ele>
				<time>2026-08-17T04:33:13Z</time>
			</trkpt>
			<trkpt lat="30.247585" lon="120.091196">
				<speed>0.000000</speed>
				<ele>306.000000</ele>
				<time>2026-08-17T04:33:14Z</time>
			</trkpt>
			<trkpt lat="30.247595" lon="120.091209">
				<speed>0.000000</speed>
				<ele>306.000000</ele>
				<time>2026-08-17T04:33:15Z</time>
			</trkpt>
			<trkpt lat="30.247604" lon="120.091223">
				<speed>0.000000</speed>
				<ele>306.000000</ele>
				<time>2026-08-17T04:33:16Z</time>
			</trkpt>
			<trkpt lat="30.247629" lon="120.091264">
				<speed>0.000000</speed>
				<ele>306.000000</ele>
				<time>2026-08-17T04:33:17Z</time>
			</trkpt>
			<trkpt lat="30.247637" lon="120.091277">
				<speed>0.000000</speed>
				<ele>306.000000</ele>
				<time>2026-08-17T04:33:18Z</time>
			</trkpt>
			<trkpt lat="30.247645" lon="120.091291">
				<speed>0.000000</speed>
				<ele>306.000000</ele>
				<time>2026-08-17T04:33:19Z</time>
			</trkpt>
			<trkpt lat="30.247653" lon="120.091305">
				<speed>0.000000</speed>
				<ele>306.000000</ele>
				<time>2026-08-17T04:33:20Z</time>
			</trkpt>
			<trkpt lat="30.247679" lon="120.091349">
				<speed>0.000000</speed>
				<ele>307.000000</ele>
				<time>2026-08-17T04:33:21Z</time>
			</trkpt>
			<trkpt lat="30.247688" lon="120.091364">
				<speed>0.000000</speed>
				<ele>307.000000</ele>
				<time>2026-08-17T04:33:22Z</time>
			</trkpt>
			<trkpt lat="30.247697" lon="120.091379">
				<speed>0.000000</speed>
				<ele>307.000000</ele>
				<time>2026-08-17T04:33:23Z</time>
			</trkpt>
			<trkpt lat="30.247707" lon="120.091395">
				<speed>0.000000</speed>
				<ele>307.000000</ele>
				<time>2026-08-17T04:33:24Z</time>
			</trkpt>
			<trkpt lat="30.247734" lon="120.091441">
				<speed>0.000000</speed>
				<ele>308.000000</ele>
				<time>2026-08-17T04:33:25Z</time>
			</trkpt>
			<trkpt lat="30.247742" lon="120.091456">
				<speed>0.000000</speed>
				<ele>308.000000</ele>
				<time>2026-08-17T04:33:26Z</time>
			</trkpt>
			<trkpt lat="30.247751" lon="120.091471">
				<speed>0.000000</speed>
				<ele>308.000000</ele>
				<time>2026-08-17T04:33:27Z</time>
			</trkpt>
			<trkpt lat="30.247759" lon="120.091487">
				<speed>0.000000</speed>
				<ele>308.000000</ele>
				<time>2026-08-17T04:33:28Z</time>
			</trkpt>
			<trkpt lat="30.247784" lon="120.091532">
				<speed>0.000000</speed>
				<ele>308.000000</ele>
				<time>2026-08-17T04:33:29Z</time>
			</trkpt>
			<trkpt lat="30.247793" lon="120.091547">
				<speed>0.000000</speed>
				<ele>308.000000</ele>
				<time>2026-08-17T04:33:30Z</time>
			</trkpt>
			<trkpt lat="30.247801" lon="120.091561">
				<speed>0.000000</speed>
				<ele>308.000000</ele>
				<time>2026-08-17T04:33:31Z</time>
			</trkpt>
			<trkpt lat="30.247810" lon="120.091576">
				<speed>0.000000</speed>
				<ele>308.000000</ele>
				<time>2026-08-17T04:33:32Z</time>
			</trkpt>
			<trkpt lat="30.247839" lon="120.091615">
				<speed>0.000000</speed>
				<ele>309.000000</ele>
				<time>2026-08-17T04:33:33Z</time>
			</trkpt>
			<trkpt lat="30.247850" lon="120.091626">
				<speed>0.000000</speed>
				<ele>309.000000</ele>
				<time>2026-08-17T04:33:34Z</time>
			</trkpt>
			<trkpt lat="30.247860" lon="120.091637">
				<speed>0.000000</speed>
				<ele>309.000000</ele>
				<time>2026-08-17T04:33:35Z</time>
			</trkpt>
			<trkpt lat="30.247871" lon="120.091648">
				<speed>0.000000</speed>
				<ele>309.000000</ele>
				<time>2026-08-17T04:33:36Z</time>
			</trkpt>
			<trkpt lat="30.247909" lon="120.091673">
				<speed>0.000000</speed>
				<ele>309.000000</ele>
				<time>2026-08-17T04:33:37Z</time>
			</trkpt>
			<trkpt lat="30.247921" lon="120.091678">
				<speed>0.000000</speed>
				<ele>309.000000</ele>
				<time>2026-08-17T04:33:38Z</time>
			</trkpt>
			<trkpt lat="30.247934" lon="120.091683">
				<speed>0.000000</speed>
				<ele>309.000000</ele>
				<time>2026-08-17T04:33:39Z</time>
			</trkpt>
			<trkpt lat="30.247947" lon="120.091688">
				<speed>0.000000</speed>
				<ele>309.000000</ele>
				<time>2026-08-17T04:33:40Z</time>
			</trkpt>
			<trkpt lat="30.247981" lon="120.091697">
				<speed>0.000000</speed>
				<ele>309.000000</ele>
				<time>2026-08-17T04:33:41Z</time>
			</trkpt>
			<trkpt lat="30.247991" lon="120.091698">
				<speed>0.000000</speed>
				<ele>309.000000</ele>
				<time>2026-08-17T04:33:42Z</time>
			</trkpt>
			<trkpt lat="30.248002" lon="120.091700">
				<speed>0.000000</speed>
				<ele>309.000000</ele>
				<time>2026-08-17T04:33:43Z</time>
			</trkpt>
			<trkpt lat="30.248012" lon="120.091701">
				<speed>0.000000</speed>
				<ele>309.000000</ele>
				<time>2026-08-17T04:33:44Z</time>
			</trkpt>
			<trkpt lat="30.248048" lon="120.091709">
				<speed>0.000000</speed>
				<ele>309.000000</ele>
				<time>2026-08-17T04:33:45Z</time>
			</trkpt>
			<trkpt lat="30.248061" lon="120.091713">
				<speed>0.000000</speed>
				<ele>309.000000</ele>
				<time>2026-08-17T04:33:46Z</time>
			</trkpt>
			<trkpt lat="30.248075" lon="120.091717">
				<speed>0.000000</speed>
				<ele>309.000000</ele>
				<time>2026-08-17T04:33:47Z</time>
			</trkpt>
			<trkpt lat="30.248089" lon="120.091721">
				<speed>0.000000</speed>
				<ele>309.000000</ele>
				<time>2026-08-17T04:33:48Z</time>
			</trkpt>
			<trkpt lat="30.248134" lon="120.091733">
				<speed>0.000000</speed>
				<ele>309.000000</ele>
				<time>2026-08-17T04:33:49Z</time>
			</trkpt>
			<trkpt lat="30.248149" lon="120.091738">
				<speed>0.000000</speed>
				<ele>309.000000</ele>
				<time>2026-08-17T04:33:50Z</time>
			</trkpt>
			<trkpt lat="30.248164" lon="120.091743">
				<speed>0.000000</speed>
				<ele>309.000000</ele>
				<time>2026-08-17T04:33:51Z</time>
			</trkpt>
			<trkpt lat="30.248179" lon="120.091748">
				<speed>0.000000</speed>
				<ele>309.000000</ele>
				<time>2026-08-17T04:33:52Z</time>
			</trkpt>
			<trkpt lat="30.248223" lon="120.091766">
				<speed>0.000000</speed>
				<ele>309.000000</ele>
				<time>2026-08-17T04:33:53Z</time>
			</trkpt>
			<trkpt lat="30.248238" lon="120.091775">
				<speed>0.000000</speed>
				<ele>309.000000</ele>
				<time>2026-08-17T04:33:54Z</time>
			</trkpt>
			<trkpt lat="30.248252" lon="120.091783">
				<speed>0.000000</speed>
				<ele>309.000000</ele>
				<time>2026-08-17T04:33:55Z</time>
			</trkpt>
			<trkpt lat="30.248266" lon="120.091792">
				<speed>0.000000</speed>
				<ele>309.000000</ele>
				<time>2026-08-17T04:33:56Z</time>
			</trkpt>
			<trkpt lat="30.248304" lon="120.091822">
				<speed>0.000000</speed>
				<ele>309.000000</ele>
				<time>2026-08-17T04:33:57Z</time>
			</trkpt>
			<trkpt lat="30.248314" lon="120.091834">
				<speed>0.000000</speed>
				<ele>309.000000</ele>
				<time>2026-08-17T04:33:58Z</time>
			</trkpt>
			<trkpt lat="30.248323" lon="120.091845">
				<speed>0.000000</speed>
				<ele>309.000000</ele>
				<time>2026-08-17T04:33:59Z</time>
			</trkpt>
			<trkpt lat="30.248333" lon="120.091856">
				<speed>0.000000</speed>
				<ele>309.000000</ele>
				<time>2026-08-17T04:34:00Z</time>
			</trkpt>
			<trkpt lat="30.248354" lon="120.091885">
				<speed>0.000000</speed>
				<ele>310.000000</ele>
				<time>2026-08-17T04:34:01Z</time>
			</trkpt>
			<trkpt lat="30.248359" lon="120.091891">
				<speed>0.000000</speed>
				<ele>310.000000</ele>
				<time>2026-08-17T04:34:02Z</time>
			</trkpt>
			<trkpt lat="30.248365" lon="120.091896">
				<speed>0.000000</speed>
				<ele>310.000000</ele>
				<time>2026-08-17T04:34:03Z</time>
			</trkpt>
			<trkpt lat="30.248370" lon="120.091901">
				<speed>0.000000</speed>
				<ele>310.000000</ele>
				<time>2026-08-17T04:34:04Z</time>
			</trkpt>
			<trkpt lat="30.248387" lon="120.091900">
				<speed>0.000000</speed>
				<ele>310.000000</ele>
				<time>2026-08-17T04:34:05Z</time>
			</trkpt>
			<trkpt lat="30.248393" lon="120.091895">
				<speed>0.000000</speed>
				<ele>310.000000</ele>
				<time>2026-08-17T04:34:06Z</time>
			</trkpt>
			<trkpt lat="30.248399" lon="120.091891">
				<speed>0.000000</speed>
				<ele>310.000000</ele>
				<time>2026-08-17T04:34:07Z</time>
			</trkpt>
			<trkpt lat="30.248404" lon="120.091886">
				<speed>0.000000</speed>
				<ele>310.000000</ele>
				<time>2026-08-17T04:34:08Z</time>
			</trkpt>
			<trkpt lat="30.248420" lon="120.091866">
				<speed>0.000000</speed>
				<ele>310.000000</ele>
				<time>2026-08-17T04:34:09Z</time>
			</trkpt>
			<trkpt lat="30.248426" lon="120.091859">
				<speed>0.000000</speed>
				<ele>310.000000</ele>
				<time>2026-08-17T04:34:10Z</time>
			</trkpt>
			<trkpt lat="30.248431" lon="120.091852">
				<speed>0.000000</speed>
				<ele>310.000000</ele>
				<time>2026-08-17T04:34:11Z</time>
			</trkpt>
			<trkpt lat="30.248437" lon="120.091845">
				<speed>0.000000</speed>
				<ele>310.000000</ele>
				<time>2026-08-17T04:34:12Z</time>
			</trkpt>
			<trkpt lat="30.248457" lon="120.091831">
				<speed>0.000000</speed>
				<ele>310.000000</ele>
				<time>2026-08-17T04:34:13Z</time>
			</trkpt>
			<trkpt lat="30.248464" lon="120.091833">
				<speed>0.000000</speed>
				<ele>309.000000</ele>
				<time>2026-08-17T04:34:14Z</time>
			</trkpt>
			<trkpt lat="30.248471" lon="120.091835">
				<speed>0.000000</speed>
				<ele>309.000000</ele>
				<time>2026-08-17T04:34:15Z</time>
			</trkpt>
			<trkpt lat="30.248479" lon="120.091837">
				<speed>0.000000</speed>
				<ele>309.000000</ele>
				<time>2026-08-17T04:34:16Z</time>
			</trkpt>
			<trkpt lat="30.248498" lon="120.091863">
				<speed>0.000000</speed>
				<ele>309.000000</ele>
				<time>2026-08-17T04:34:17Z</time>
			</trkpt>
			<trkpt lat="30.248504" lon="120.091875">
				<speed>0.000000</speed>
				<ele>308.000000</ele>
				<time>2026-08-17T04:34:18Z</time>
			</trkpt>
			<trkpt lat="30.248509" lon="120.091887">
				<speed>0.000000</speed>
				<ele>308.000000</ele>
				<time>2026-08-17T04:34:19Z</time>
			</trkpt>
			<trkpt lat="30.248514" lon="120.091899">
				<speed>0.000000</speed>
				<ele>308.000000</ele>
				<time>2026-08-17T04:34:20Z</time>
			</trkpt>
			<trkpt lat="30.248529" lon="120.091933">
				<speed>0.000000</speed>
				<ele>308.000000</ele>
				<time>2026-08-17T04:34:21Z</time>
			</trkpt>
			<trkpt lat="30.248535" lon="120.091940">
				<speed>0.000000</speed>
				<ele>307.000000</ele>
				<time>2026-08-17T04:34:22Z</time>
			</trkpt>
			<trkpt lat="30.248541" lon="120.091948">
				<speed>0.000000</speed>
				<ele>307.000000</ele>
				<time>2026-08-17T04:34:23Z</time>
			</trkpt>
			<trkpt lat="30.248547" lon="120.091955">
				<speed>0.000000</speed>
				<ele>306.000000</ele>
				<time>2026-08-17T04:34:24Z</time>
			</trkpt>
			<trkpt lat="30.248569" lon="120.091973">
				<speed>0.000000</speed>
				<ele>306.000000</ele>
				<time>2026-08-17T04:34:25Z</time>
			</trkpt>
			<trkpt lat="30.248576" lon="120.091978">
				<speed>0.000000</speed>
				<ele>305.000000</ele>
				<time>2026-08-17T04:34:26Z</time>
			</trkpt>
			<trkpt lat="30.248584" lon="120.091983">
				<speed>0.000000</speed>
				<ele>305.000000</ele>
				<time>2026-08-17T04:34:27Z</time>
			</trkpt>
			<trkpt lat="30.248591" lon="120.091989">
				<speed>0.000000</speed>
				<ele>305.000000</ele>
				<time>2026-08-17T04:34:28Z</time>
			</trkpt>
			<trkpt lat="30.248612" lon="120.092000">
				<speed>0.000000</speed>
				<ele>305.000000</ele>
				<time>2026-08-17T04:34:29Z</time>
			</trkpt>
			<trkpt lat="30.248618" lon="120.092003">
				<speed>0.000000</speed>
				<ele>304.000000</ele>
				<time>2026-08-17T04:34:30Z</time>
			</trkpt>
			<trkpt lat="30.248624" lon="120.092006">
				<speed>0.000000</speed>
				<ele>304.000000</ele>
				<time>2026-08-17T04:34:31Z</time>
			</trkpt>
			<trkpt lat="30.248631" lon="120.092009">
				<speed>0.000000</speed>
				<ele>303.000000</ele>
				<time>2026-08-17T04:34:32Z</time>
			</trkpt>
			<trkpt lat="30.248649" lon="120.092016">
				<speed>0.000000</speed>
				<ele>303.000000</ele>
				<time>2026-08-17T04:34:33Z</time>
			</trkpt>
			<trkpt lat="30.248655" lon="120.092019">
				<speed>0.000000</speed>
				<ele>302.000000</ele>
				<time>2026-08-17T04:34:34Z</time>
			</trkpt>
			<trkpt lat="30.248661" lon="120.092022">
				<speed>0.000000</speed>
				<ele>302.000000</ele>
				<time>2026-08-17T04:34:35Z</time>
			</trkpt>
			<trkpt lat="30.248668" lon="120.092025">
				<speed>0.000000</speed>
				<ele>301.000000</ele>
				<time>2026-08-17T04:34:36Z</time>
			</trkpt>
			<trkpt lat="30.248688" lon="120.092036">
				<speed>0.000000</speed>
				<ele>301.000000</ele>
				<time>2026-08-17T04:34:37Z</time>
			</trkpt>
			<trkpt lat="30.248695" lon="120.092039">
				<speed>0.000000</speed>
				<ele>300.000000</ele>
				<time>2026-08-17T04:34:38Z</time>
			</trkpt>
			<trkpt lat="30.248702" lon="120.092043">
				<speed>0.000000</speed>
				<ele>300.000000</ele>
				<time>2026-08-17T04:34:39Z</time>
			</trkpt>
			<trkpt lat="30.248708" lon="120.092047">
				<speed>0.000000</speed>
				<ele>299.000000</ele>
				<time>2026-08-17T04:34:40Z</time>
			</trkpt>
			<trkpt lat="30.248731" lon="120.092058">
				<speed>0.000000</speed>
				<ele>299.000000</ele>
				<time>2026-08-17T04:34:41Z</time>
			</trkpt>
			<trkpt lat="30.248740" lon="120.092061">
				<speed>0.000000</speed>
				<ele>298.000000</ele>
				<time>2026-08-17T04:34:42Z</time>
			</trkpt>
			<trkpt lat="30.248748" lon="120.092064">
				<speed>0.000000</speed>
				<ele>298.000000</ele>
				<time>2026-08-17T04:34:43Z</time>
			</trkpt>
			<trkpt lat="30.248757" lon="120.092066">
				<speed>0.000000</speed>
				<ele>297.000000</ele>
				<time>2026-08-17T04:34:44Z</time>
			</trkpt>
			<trkpt lat="30.248783" lon="120.092068">
				<speed>0.000000</speed>
				<ele>297.000000</ele>
				<time>2026-08-17T04:34:45Z</time>
			</trkpt>
			<trkpt lat="30.248791" lon="120.092066">
				<speed>0.000000</speed>
				<ele>296.000000</ele>
				<time>2026-08-17T04:34:46Z</time>
			</trkpt>
			<trkpt lat="30.248800" lon="120.092065">
				<speed>0.000000</speed>
				<ele>296.000000</ele>
				<time>2026-08-17T04:34:47Z</time>
			</trkpt>
			<trkpt lat="30.248808" lon="120.092064">
				<speed>0.000000</speed>
				<ele>295.000000</ele>
				<time>2026-08-17T04:34:48Z</time>
			</trkpt>
			<trkpt lat="30.248831" lon="120.092059">
				<speed>0.000000</speed>
				<ele>295.000000</ele>
				<time>2026-08-17T04:34:49Z</time>
			</trkpt>
			<trkpt lat="30.248837" lon="120.092057">
				<speed>0.000000</speed>
				<ele>294.000000</ele>
				<time>2026-08-17T04:34:50Z</time>
			</trkpt>
			<trkpt lat="30.248843" lon="120.092055">
				<speed>0.000000</speed>
				<ele>294.000000</ele>
				<time>2026-08-17T04:34:51Z</time>
			</trkpt>
			<trkpt lat="30.248849" lon="120.092054">
				<speed>0.000000</speed>
				<ele>293.000000</ele>
				<time>2026-08-17T04:34:52Z</time>
			</trkpt>
			<trkpt lat="30.248861" lon="120.092043">
				<speed>0.000000</speed>
				<ele>293.000000</ele>
				<time>2026-08-17T04:34:53Z</time>
			</trkpt>
			<trkpt lat="30.248864" lon="120.092038">
				<speed>0.000000</speed>
				<ele>292.000000</ele>
				<time>2026-08-17T04:34:54Z</time>
			</trkpt>
			<trkpt lat="30.248867" lon="120.092033">
				<speed>0.000000</speed>
				<ele>292.000000</ele>
				<time>2026-08-17T04:34:55Z</time>
			</trkpt>
			<trkpt lat="30.248870" lon="120.092027">
				<speed>0.000000</speed>
				<ele>291.000000</ele>
				<time>2026-08-17T04:34:56Z</time>
			</trkpt>
			<trkpt lat="30.248872" lon="120.092022">
				<speed>0.000000</speed>
				<ele>291.000000</ele>
				<time>2026-08-17T04:34:57Z</time>
			</trkpt>
			<trkpt lat="30.248874" lon="120.092017">
				<speed>0.000000</speed>
				<ele>290.000000</ele>
				<time>2026-08-17T04:34:58Z</time>
			</trkpt>
			<trkpt lat="30.248876" lon="120.092012">
				<speed>0.000000</speed>
				<ele>290.000000</ele>
				<time>2026-08-17T04:34:59Z</time>
			</trkpt>
			<trkpt lat="30.248878" lon="120.092007">
				<speed>0.000000</speed>
				<ele>289.000000</ele>
				<time>2026-08-17T04:35:00Z</time>
			</trkpt>
			<trkpt lat="30.248884" lon="120.091992">
				<speed>0.000000</speed>
				<ele>289.000000</ele>
				<time>2026-08-17T04:35:01Z</time>
			</trkpt>
			<trkpt lat="30.248887" lon="120.091988">
				<speed>0.000000</speed>
				<ele>288.000000</ele>
				<time>2026-08-17T04:35:02Z</time>
			</trkpt>
			<trkpt lat="30.248890" lon="120.091984">
				<speed>0.000000</speed>
				<ele>288.000000</ele>
				<time>2026-08-17T04:35:03Z</time>
			</trkpt>
			<trkpt lat="30.248892" lon="120.091980">
				<speed>0.000000</speed>
				<ele>288.000000</ele>
				<time>2026-08-17T04:35:04Z</time>
			</trkpt>
			<trkpt lat="30.248901" lon="120.091968">
				<speed>0.000000</speed>
				<ele>288.000000</ele>
				<time>2026-08-17T04:35:05Z</time>
			</trkpt>
			<trkpt lat="30.248903" lon="120.091964">
				<speed>0.000000</speed>
				<ele>287.000000</ele>
				<time>2026-08-17T04:35:06Z</time>
			</trkpt>
			<trkpt lat="30.248906" lon="120.091959">
				<speed>0.000000</speed>
				<ele>287.000000</ele>
				<time>2026-08-17T04:35:07Z</time>
			</trkpt>
			<trkpt lat="30.248908" lon="120.091955">
				<speed>0.000000</speed>
				<ele>287.000000</ele>
				<time>2026-08-17T04:35:08Z</time>
			</trkpt>
			<trkpt lat="30.248912" lon="120.091938">
				<speed>0.000000</speed>
				<ele>287.000000</ele>
				<time>2026-08-17T04:35:09Z</time>
			</trkpt>
			<trkpt lat="30.248913" lon="120.091933">
				<speed>0.000000</speed>
				<ele>286.000000</ele>
				<time>2026-08-17T04:35:10Z</time>
			</trkpt>
			<trkpt lat="30.248913" lon="120.091927">
				<speed>0.000000</speed>
				<ele>286.000000</ele>
				<time>2026-08-17T04:35:11Z</time>
			</trkpt>
			<trkpt lat="30.248914" lon="120.091922">
				<speed>0.000000</speed>
				<ele>286.000000</ele>
				<time>2026-08-17T04:35:12Z</time>
			</trkpt>
			<trkpt lat="30.248912" lon="120.091906">
				<speed>0.000000</speed>
				<ele>286.000000</ele>
				<time>2026-08-17T04:35:13Z</time>
			</trkpt>
			<trkpt lat="30.248911" lon="120.091901">
				<speed>0.000000</speed>
				<ele>286.000000</ele>
				<time>2026-08-17T04:35:14Z</time>
			</trkpt>
			<trkpt lat="30.248910" lon="120.091896">
				<speed>0.000000</speed>
				<ele>286.000000</ele>
				<time>2026-08-17T04:35:15Z</time>
			</trkpt>
			<trkpt lat="30.248908" lon="120.091891">
				<speed>0.000000</speed>
				<ele>286.000000</ele>
				<time>2026-08-17T04:35:16Z</time>
			</trkpt>
			<trkpt lat="30.248902" lon="120.091877">
				<speed>0.000000</speed>
				<ele>286.000000</ele>
				<time>2026-08-17T04:35:17Z</time>
			</trkpt>
			<trkpt lat="30.248899" lon="120.091872">
				<speed>0.000000</speed>
				<ele>285.000000</ele>
				<time>2026-08-17T04:35:18Z</time>
			</trkpt>
			<trkpt lat="30.248897" lon="120.091868">
				<speed>0.000000</speed>
				<ele>285.000000</ele>
				<time>2026-08-17T04:35:19Z</time>
			</trkpt>
			<trkpt lat="30.248894" lon="120.091863">
				<speed>0.000000</speed>
				<ele>285.000000</ele>
				<time>2026-08-17T04:35:20Z</time>
			</trkpt>
			<trkpt lat="30.248888" lon="120.091850">
				<speed>0.000000</speed>
				<ele>285.000000</ele>
				<time>2026-08-17T04:35:21Z</time>
			</trkpt>
			<trkpt lat="30.248886" lon="120.091845">
				<speed>0.000000</speed>
				<ele>284.000000</ele>
				<time>2026-08-17T04:35:22Z</time>
			</trkpt>
			<trkpt lat="30.248885" lon="120.091840">
				<speed>0.000000</speed>
				<ele>284.000000</ele>
				<time>2026-08-17T04:35:23Z</time>
			</trkpt>
			<trkpt lat="30.248883" lon="120.091835">
				<speed>0.000000</speed>
				<ele>283.000000</ele>
				<time>2026-08-17T04:35:24Z</time>
			</trkpt>
			<trkpt lat="30.248878" lon="120.091817">
				<speed>0.000000</speed>
				<ele>283.000000</ele>
				<time>2026-08-17T04:35:25Z</time>
			</trkpt>
			<trkpt lat="30.248876" lon="120.091810">
				<speed>0.000000</speed>
				<ele>282.000000</ele>
				<time>2026-08-17T04:35:26Z</time>
			</trkpt>
			<trkpt lat="30.248874" lon="120.091804">
				<speed>0.000000</speed>
				<ele>282.000000</ele>
				<time>2026-08-17T04:35:27Z</time>
			</trkpt>
			<trkpt lat="30.248872" lon="120.091797">
				<speed>0.000000</speed>
				<ele>282.000000</ele>
				<time>2026-08-17T04:35:28Z</time>
			</trkpt>
			<trkpt lat="30.248865" lon="120.091777">
				<speed>0.000000</speed>
				<ele>282.000000</ele>
				<time>2026-08-17T04:35:29Z</time>
			</trkpt>
			<trkpt lat="30.248863" lon="120.091771">
				<speed>0.000000</speed>
				<ele>282.000000</ele>
				<time>2026-08-17T04:35:30Z</time>
			</trkpt>
			<trkpt lat="30.248860" lon="120.091765">
				<speed>0.000000</speed>
				<ele>282.000000</ele>
				<time>2026-08-17T04:35:31Z</time>
			</trkpt>
			<trkpt lat="30.248857" lon="120.091759">
				<speed>0.000000</speed>
				<ele>282.000000</ele>
				<time>2026-08-17T04:35:32Z</time>
			</trkpt>
			<trkpt lat="30.248852" lon="120.091738">
				<speed>0.000000</speed>
				<ele>282.000000</ele>
				<time>2026-08-17T04:35:33Z</time>
			</trkpt>
			<trkpt lat="30.248851" lon="120.091730">
				<speed>0.000000</speed>
				<ele>281.000000</ele>
				<time>2026-08-17T04:35:34Z</time>
			</trkpt>
			<trkpt lat="30.248850" lon="120.091721">
				<speed>0.000000</speed>
				<ele>281.000000</ele>
				<time>2026-08-17T04:35:35Z</time>
			</trkpt>
			<trkpt lat="30.248850" lon="120.091713">
				<speed>0.000000</speed>
				<ele>280.000000</ele>
				<time>2026-08-17T04:35:36Z</time>
			</trkpt>
			<trkpt lat="30.248854" lon="120.091686">
				<speed>0.000000</speed>
				<ele>280.000000</ele>
				<time>2026-08-17T04:35:37Z</time>
			</trkpt>
			<trkpt lat="30.248859" lon="120.091678">
				<speed>0.000000</speed>
				<ele>279.000000</ele>
				<time>2026-08-17T04:35:38Z</time>
			</trkpt>
			<trkpt lat="30.248863" lon="120.091670">
				<speed>0.000000</speed>
				<ele>279.000000</ele>
				<time>2026-08-17T04:35:39Z</time>
			</trkpt>
			<trkpt lat="30.248868" lon="120.091663">
				<speed>0.000000</speed>
				<ele>279.000000</ele>
				<time>2026-08-17T04:35:40Z</time>
			</trkpt>
			<trkpt lat="30.248887" lon="120.091646">
				<speed>0.000000</speed>
				<ele>279.000000</ele>
				<time>2026-08-17T04:35:41Z</time>
			</trkpt>
			<trkpt lat="30.248895" lon="120.091642">
				<speed>0.000000</speed>
				<ele>278.000000</ele>
				<time>2026-08-17T04:35:42Z</time>
			</trkpt>
			<trkpt lat="30.248902" lon="120.091638">
				<speed>0.000000</speed>
				<ele>278.000000</ele>
				<time>2026-08-17T04:35:43Z</time>
			</trkpt>
			<trkpt lat="30.248910" lon="120.091635">
				<speed>0.000000</speed>
				<ele>278.000000</ele>
				<time>2026-08-17T04:35:44Z</time>
			</trkpt>
			<trkpt lat="30.248933" lon="120.091629">
				<speed>0.000000</speed>
				<ele>278.000000</ele>
				<time>2026-08-17T04:35:45Z</time>
			</trkpt>
			<trkpt lat="30.248941" lon="120.091629">
				<speed>0.000000</speed>
				<ele>277.000000</ele>
				<time>2026-08-17T04:35:46Z</time>
			</trkpt>
			<trkpt lat="30.248948" lon="120.091628">
				<speed>0.000000</speed>
				<ele>277.000000</ele>
				<time>2026-08-17T04:35:47Z</time>
			</trkpt>
			<trkpt lat="30.248956" lon="120.091628">
				<speed>0.000000</speed>
				<ele>276.000000</ele>
				<time>2026-08-17T04:35:48Z</time>
			</trkpt>
			<trkpt lat="30.248976" lon="120.091632">
				<speed>0.000000</speed>
				<ele>276.000000</ele>
				<time>2026-08-17T04:35:49Z</time>
			</trkpt>
			<trkpt lat="30.248983" lon="120.091634">
				<speed>0.000000</speed>
				<ele>275.000000</ele>
				<time>2026-08-17T04:35:50Z</time>
			</trkpt>
			<trkpt lat="30.248989" lon="120.091636">
				<speed>0.000000</speed>
				<ele>275.000000</ele>
				<time>2026-08-17T04:35:51Z</time>
			</trkpt>
			<trkpt lat="30.248995" lon="120.091638">
				<speed>0.000000</speed>
				<ele>274.000000</ele>
				<time>2026-08-17T04:35:52Z</time>
			</trkpt>
			<trkpt lat="30.249016" lon="120.091648">
				<speed>0.000000</speed>
				<ele>274.000000</ele>
				<time>2026-08-17T04:35:53Z</time>
			</trkpt>
			<trkpt lat="30.249024" lon="120.091651">
				<speed>0.000000</speed>
				<ele>273.000000</ele>
				<time>2026-08-17T04:35:54Z</time>
			</trkpt>
			<trkpt lat="30.249031" lon="120.091654">
				<speed>0.000000</speed>
				<ele>272.000000</ele>
				<time>2026-08-17T04:35:55Z</time>
			</trkpt>
			<trkpt lat="30.249039" lon="120.091657">
				<speed>0.000000</speed>
				<ele>271.000000</ele>
				<time>2026-08-17T04:35:56Z</time>
			</trkpt>
			<trkpt lat="30.249063" lon="120.091660">
				<speed>0.000000</speed>
				<ele>271.000000</ele>
				<time>2026-08-17T04:35:57Z</time>
			</trkpt>
			<trkpt lat="30.249072" lon="120.091658">
				<speed>0.000000</speed>
				<ele>270.000000</ele>
				<time>2026-08-17T04:35:58Z</time>
			</trkpt>
			<trkpt lat="30.249080" lon="120.091657">
				<speed>0.000000</speed>
				<ele>270.000000</ele>
				<time>2026-08-17T04:35:59Z</time>
			</trkpt>
			<trkpt lat="30.249089" lon="120.091655">
				<speed>0.000000</speed>
				<ele>270.000000</ele>
				<time>2026-08-17T04:36:00Z</time>
			</trkpt>
			<trkpt lat="30.249114" lon="120.091647">
				<speed>0.000000</speed>
				<ele>270.000000</ele>
				<time>2026-08-17T04:36:01Z</time>
			</trkpt>
			<trkpt lat="30.249123" lon="120.091643">
				<speed>0.000000</speed>
				<ele>269.000000</ele>
				<time>2026-08-17T04:36:02Z</time>
			</trkpt>
			<trkpt lat="30.249132" lon="120.091640">
				<speed>0.000000</speed>
				<ele>269.000000</ele>
				<time>2026-08-17T04:36:03Z</time>
			</trkpt>
			<trkpt lat="30.249140" lon="120.091637">
				<speed>0.000000</speed>
				<ele>268.000000</ele>
				<time>2026-08-17T04:36:04Z</time>
			</trkpt>
			<trkpt lat="30.249166" lon="120.091627">
				<speed>0.000000</speed>
				<ele>268.000000</ele>
				<time>2026-08-17T04:36:05Z</time>
			</trkpt>
			<trkpt lat="30.249174" lon="120.091623">
				<speed>0.000000</speed>
				<ele>267.000000</ele>
				<time>2026-08-17T04:36:06Z</time>
			</trkpt>
			<trkpt lat="30.249181" lon="120.091619">
				<speed>0.000000</speed>
				<ele>267.000000</ele>
				<time>2026-08-17T04:36:07Z</time>
			</trkpt>
			<trkpt lat="30.249189" lon="120.091615">
				<speed>0.000000</speed>
				<ele>267.000000</ele>
				<time>2026-08-17T04:36:08Z</time>
			</trkpt>
			<trkpt lat="30.249199" lon="120.091604">
				<speed>0.000000</speed>
				<ele>267.000000</ele>
				<time>2026-08-17T04:36:09Z</time>
			</trkpt>
			<trkpt lat="30.249196" lon="120.091600">
				<speed>0.000000</speed>
				<ele>266.000000</ele>
				<time>2026-08-17T04:36:10Z</time>
			</trkpt>
			<trkpt lat="30.249193" lon="120.091595">
				<speed>0.000000</speed>
				<ele>266.000000</ele>
				<time>2026-08-17T04:36:11Z</time>
			</trkpt>
			<trkpt lat="30.249190" lon="120.091591">
				<speed>0.000000</speed>
				<ele>265.000000</ele>
				<time>2026-08-17T04:36:12Z</time>
			</trkpt>
			<trkpt lat="30.249169" lon="120.091576">
				<speed>0.000000</speed>
				<ele>265.000000</ele>
				<time>2026-08-17T04:36:13Z</time>
			</trkpt>
			<trkpt lat="30.249162" lon="120.091571">
				<speed>0.000000</speed>
				<ele>264.000000</ele>
				<time>2026-08-17T04:36:14Z</time>
			</trkpt>
			<trkpt lat="30.249154" lon="120.091565">
				<speed>0.000000</speed>
				<ele>264.000000</ele>
				<time>2026-08-17T04:36:15Z</time>
			</trkpt>
			<trkpt lat="30.249146" lon="120.091560">
				<speed>0.000000</speed>
				<ele>263.000000</ele>
				<time>2026-08-17T04:36:16Z</time>
			</trkpt>
			<trkpt lat="30.249123" lon="120.091543">
				<speed>0.000000</speed>
				<ele>263.000000</ele>
				<time>2026-08-17T04:36:17Z</time>
			</trkpt>
			<trkpt lat="30.249116" lon="120.091538">
				<speed>0.000000</speed>
				<ele>262.000000</ele>
				<time>2026-08-17T04:36:18Z</time>
			</trkpt>
			<trkpt lat="30.249109" lon="120.091532">
				<speed>0.000000</speed>
				<ele>262.000000</ele>
				<time>2026-08-17T04:36:19Z</time>
			</trkpt>
			<trkpt lat="30.249102" lon="120.091527">
				<speed>0.000000</speed>
				<ele>261.000000</ele>
				<time>2026-08-17T04:36:20Z</time>
			</trkpt>
			<trkpt lat="30.249092" lon="120.091508">
				<speed>0.000000</speed>
				<ele>261.000000</ele>
				<time>2026-08-17T04:36:21Z</time>
			</trkpt>
			<trkpt lat="30.249094" lon="120.091503">
				<speed>0.000000</speed>
				<ele>260.000000</ele>
				<time>2026-08-17T04:36:22Z</time>
			</trkpt>
			<trkpt lat="30.249096" lon="120.091498">
				<speed>0.000000</speed>
				<ele>260.000000</ele>
				<time>2026-08-17T04:36:23Z</time>
			</trkpt>
			<trkpt lat="30.249098" lon="120.091493">
				<speed>0.000000</speed>
				<ele>260.000000</ele>
				<time>2026-08-17T04:36:24Z</time>
			</trkpt>
			<trkpt lat="30.249118" lon="120.091486">
				<speed>0.000000</speed>
				<ele>260.000000</ele>
				<time>2026-08-17T04:36:25Z</time>
			</trkpt>
			<trkpt lat="30.249127" lon="120.091484">
				<speed>0.000000</speed>
				<ele>259.000000</ele>
				<time>2026-08-17T04:36:26Z</time>
			</trkpt>
			<trkpt lat="30.249135" lon="120.091483">
				<speed>0.000000</speed>
				<ele>259.000000</ele>
				<time>2026-08-17T04:36:27Z</time>
			</trkpt>
			<trkpt lat="30.249144" lon="120.091481">
				<speed>0.000000</speed>
				<ele>258.000000</ele>
				<time>2026-08-17T04:36:28Z</time>
			</trkpt>
			<trkpt lat="30.249167" lon="120.091472">
				<speed>0.000000</speed>
				<ele>258.000000</ele>
				<time>2026-08-17T04:36:29Z</time>
			</trkpt>
			<trkpt lat="30.249172" lon="120.091466">
				<speed>0.000000</speed>
				<ele>257.000000</ele>
				<time>2026-08-17T04:36:30Z</time>
			</trkpt>
			<trkpt lat="30.249178" lon="120.091460">
				<speed>0.000000</speed>
				<ele>257.000000</ele>
				<time>2026-08-17T04:36:31Z</time>
			</trkpt>
			<trkpt lat="30.249183" lon="120.091454">
				<speed>0.000000</speed>
				<ele>256.000000</ele>
				<time>2026-08-17T04:36:32Z</time>
			</trkpt>
			<trkpt lat="30.249197" lon="120.091432">
				<speed>0.000000</speed>
				<ele>256.000000</ele>
				<time>2026-08-17T04:36:33Z</time>
			</trkpt>
			<trkpt lat="30.249201" lon="120.091424">
				<speed>0.000000</speed>
				<ele>255.000000</ele>
				<time>2026-08-17T04:36:34Z</time>
			</trkpt>
			<trkpt lat="30.249205" lon="120.091416">
				<speed>0.000000</speed>
				<ele>255.000000</ele>
				<time>2026-08-17T04:36:35Z</time>
			</trkpt>
			<trkpt lat="30.249208" lon="120.091408">
				<speed>0.000000</speed>
				<ele>254.000000</ele>
				<time>2026-08-17T04:36:36Z</time>
			</trkpt>
			<trkpt lat="30.249220" lon="120.091385">
				<speed>0.000000</speed>
				<ele>254.000000</ele>
				<time>2026-08-17T04:36:37Z</time>
			</trkpt>
			<trkpt lat="30.249223" lon="120.091378">
				<speed>0.000000</speed>
				<ele>253.000000</ele>
				<time>2026-08-17T04:36:38Z</time>
			</trkpt>
			<trkpt lat="30.249227" lon="120.091371">
				<speed>0.000000</speed>
				<ele>253.000000</ele>
				<time>2026-08-17T04:36:39Z</time>
			</trkpt>
			<trkpt lat="30.249231" lon="120.091364">
				<speed>0.000000</speed>
				<ele>252.000000</ele>
				<time>2026-08-17T04:36:40Z</time>
			</trkpt>
			<trkpt lat="30.249246" lon="120.091352">
				<speed>0.000000</speed>
				<ele>252.000000</ele>
				<time>2026-08-17T04:36:41Z</time>
			</trkpt>
			<trkpt lat="30.249252" lon="120.091352">
				<speed>0.000000</speed>
				<ele>251.000000</ele>
				<time>2026-08-17T04:36:42Z</time>
			</trkpt>
			<trkpt lat="30.249259" lon="120.091352">
				<speed>0.000000</speed>
				<ele>251.000000</ele>
				<time>2026-08-17T04:36:43Z</time>
			</trkpt>
			<trkpt lat="30.249265" lon="120.091352">
				<speed>0.000000</speed>
				<ele>250.000000</ele>
				<time>2026-08-17T04:36:44Z</time>
			</trkpt>
			<trkpt lat="30.249285" lon="120.091352">
				<speed>0.000000</speed>
				<ele>250.000000</ele>
				<time>2026-08-17T04:36:45Z</time>
			</trkpt>
			<trkpt lat="30.249289" lon="120.091349">
				<speed>0.000000</speed>
				<ele>249.000000</ele>
				<time>2026-08-17T04:36:46Z</time>
			</trkpt>
			<trkpt lat="30.249294" lon="120.091346">
				<speed>0.000000</speed>
				<ele>249.000000</ele>
				<time>2026-08-17T04:36:47Z</time>
			</trkpt>
			<trkpt lat="30.249298" lon="120.091343">
				<speed>0.000000</speed>
				<ele>248.000000</ele>
				<time>2026-08-17T04:36:48Z</time>
			</trkpt>
			<trkpt lat="30.249299" lon="120.091322">
				<speed>0.000000</speed>
				<ele>248.000000</ele>
				<time>2026-08-17T04:36:49Z</time>
			</trkpt>
			<trkpt lat="30.249295" lon="120.091313">
				<speed>0.000000</speed>
				<ele>247.000000</ele>
				<time>2026-08-17T04:36:50Z</time>
			</trkpt>
			<trkpt lat="30.249292" lon="120.091304">
				<speed>0.000000</speed>
				<ele>247.000000</ele>
				<time>2026-08-17T04:36:51Z</time>
			</trkpt>
			<trkpt lat="30.249288" lon="120.091294">
				<speed>0.000000</speed>
				<ele>247.000000</ele>
				<time>2026-08-17T04:36:52Z</time>
			</trkpt>
			<trkpt lat="30.249279" lon="120.091261">
				<speed>0.000000</speed>
				<ele>247.000000</ele>
				<time>2026-08-17T04:36:53Z</time>
			</trkpt>
			<trkpt lat="30.249281" lon="120.091250">
				<speed>0.000000</speed>
				<ele>246.000000</ele>
				<time>2026-08-17T04:36:54Z</time>
			</trkpt>
			<trkpt lat="30.249284" lon="120.091239">
				<speed>0.000000</speed>
				<ele>246.000000</ele>
				<time>2026-08-17T04:36:55Z</time>
			</trkpt>
			<trkpt lat="30.249286" lon="120.091228">
				<speed>0.000000</speed>
				<ele>245.000000</ele>
				<time>2026-08-17T04:36:56Z</time>
			</trkpt>
			<trkpt lat="30.249311" lon="120.091207">
				<speed>0.000000</speed>
				<ele>245.000000</ele>
				<time>2026-08-17T04:36:57Z</time>
			</trkpt>
			<trkpt lat="30.249322" lon="120.091202">
				<speed>0.000000</speed>
				<ele>244.000000</ele>
				<time>2026-08-17T04:36:58Z</time>
			</trkpt>
			<trkpt lat="30.249333" lon="120.091197">
				<speed>0.000000</speed>
				<ele>243.000000</ele>
				<time>2026-08-17T04:36:59Z</time>
			</trkpt>
			<trkpt lat="30.249344" lon="120.091192">
				<speed>0.000000</speed>
				<ele>242.000000</ele>
				<time>2026-08-17T04:37:00Z</time>
			</trkpt>
			<trkpt lat="30.249370" lon="120.091175">
				<speed>0.000000</speed>
				<ele>242.000000</ele>
				<time>2026-08-17T04:37:01Z</time>
			</trkpt>
			<trkpt lat="30.249374" lon="120.091169">
				<speed>0.000000</speed>
				<ele>241.000000</ele>
				<time>2026-08-17T04:37:02Z</time>
			</trkpt>
			<trkpt lat="30.249378" lon="120.091163">
				<speed>0.000000</speed>
				<ele>241.000000</ele>
				<time>2026-08-17T04:37:03Z</time>
			</trkpt>
			<trkpt lat="30.249382" lon="120.091156">
				<speed>0.000000</speed>
				<ele>240.000000</ele>
				<time>2026-08-17T04:37:04Z</time>
			</trkpt>
			<trkpt lat="30.249375" lon="120.091137">
				<speed>0.000000</speed>
				<ele>240.000000</ele>
				<time>2026-08-17T04:37:05Z</time>
			</trkpt>
			<trkpt lat="30.249368" lon="120.091131">
				<speed>0.000000</speed>
				<ele>239.000000</ele>
				<time>2026-08-17T04:37:06Z</time>
			</trkpt>
			<trkpt lat="30.249362" lon="120.091126">
				<speed>0.000000</speed>
				<ele>238.000000</ele>
				<time>2026-08-17T04:37:07Z</time>
			</trkpt>
			<trkpt lat="30.249356" lon="120.091121">
				<speed>0.000000</speed>
				<ele>237.000000</ele>
				<time>2026-08-17T04:37:08Z</time>
			</trkpt>
			<trkpt lat="30.249332" lon="120.091111">
				<speed>0.000000</speed>
				<ele>237.000000</ele>
				<time>2026-08-17T04:37:09Z</time>
			</trkpt>
			<trkpt lat="30.249324" lon="120.091109">
				<speed>0.000000</speed>
				<ele>236.000000</ele>
				<time>2026-08-17T04:37:10Z</time>
			</trkpt>
			<trkpt lat="30.249315" lon="120.091106">
				<speed>0.000000</speed>
				<ele>236.000000</ele>
				<time>2026-08-17T04:37:11Z</time>
			</trkpt>
			<trkpt lat="30.249307" lon="120.091104">
				<speed>0.000000</speed>
				<ele>235.000000</ele>
				<time>2026-08-17T04:37:12Z</time>
			</trkpt>
			<trkpt lat="30.249282" lon="120.091101">
				<speed>0.000000</speed>
				<ele>235.000000</ele>
				<time>2026-08-17T04:37:13Z</time>
			</trkpt>
			<trkpt lat="30.249276" lon="120.091098">
				<speed>0.000000</speed>
				<ele>234.000000</ele>
				<time>2026-08-17T04:37:14Z</time>
			</trkpt>
			<trkpt lat="30.249270" lon="120.091096">
				<speed>0.000000</speed>
				<ele>233.000000</ele>
				<time>2026-08-17T04:37:15Z</time>
			</trkpt>
			<trkpt lat="30.249264" lon="120.091094">
				<speed>0.000000</speed>
				<ele>232.000000</ele>
				<time>2026-08-17T04:37:16Z</time>
			</trkpt>
			<trkpt lat="30.249260" lon="120.091084">
				<speed>0.000000</speed>
				<ele>232.000000</ele>
				<time>2026-08-17T04:37:17Z</time>
			</trkpt>
			<trkpt lat="30.249264" lon="120.091080">
				<speed>0.000000</speed>
				<ele>231.000000</ele>
				<time>2026-08-17T04:37:18Z</time>
			</trkpt>
			<trkpt lat="30.249267" lon="120.091076">
				<speed>0.000000</speed>
				<ele>231.000000</ele>
				<time>2026-08-17T04:37:19Z</time>
			</trkpt>
			<trkpt lat="30.249270" lon="120.091071">
				<speed>0.000000</speed>
				<ele>230.000000</ele>
				<time>2026-08-17T04:37:20Z</time>
			</trkpt>
			<trkpt lat="30.249288" lon="120.091054">
				<speed>0.000000</speed>
				<ele>230.000000</ele>
				<time>2026-08-17T04:37:21Z</time>
			</trkpt>
			<trkpt lat="30.249295" lon="120.091047">
				<speed>0.000000</speed>
				<ele>229.000000</ele>
				<time>2026-08-17T04:37:22Z</time>
			</trkpt>
			<trkpt lat="30.249303" lon="120.091039">
				<speed>0.000000</speed>
				<ele>229.000000</ele>
				<time>2026-08-17T04:37:23Z</time>
			</trkpt>
			<trkpt lat="30.249311" lon="120.091032">
				<speed>0.000000</speed>
				<ele>228.000000</ele>
				<time>2026-08-17T04:37:24Z</time>
			</trkpt>
			<trkpt lat="30.249336" lon="120.091007">
				<speed>0.000000</speed>
				<ele>228.000000</ele>
				<time>2026-08-17T04:37:25Z</time>
			</trkpt>
			<trkpt lat="30.249343" lon="120.090998">
				<speed>0.000000</speed>
				<ele>227.000000</ele>
				<time>2026-08-17T04:37:26Z</time>
			</trkpt>
			<trkpt lat="30.249351" lon="120.090990">
				<speed>0.000000</speed>
				<ele>227.000000</ele>
				<time>2026-08-17T04:37:27Z</time>
			</trkpt>
			<trkpt lat="30.249358" lon="120.090982">
				<speed>0.000000</speed>
				<ele>227.000000</ele>
				<time>2026-08-17T04:37:28Z</time>
			</trkpt>
			<trkpt lat="30.249375" lon="120.090956">
				<speed>0.000000</speed>
				<ele>227.000000</ele>
				<time>2026-08-17T04:37:29Z</time>
			</trkpt>
			<trkpt lat="30.249381" lon="120.090948">
				<speed>0.000000</speed>
				<ele>226.000000</ele>
				<time>2026-08-17T04:37:30Z</time>
			</trkpt>
			<trkpt lat="30.249386" lon="120.090940">
				<speed>0.000000</speed>
				<ele>226.000000</ele>
				<time>2026-08-17T04:37:31Z</time>
			</trkpt>
			<trkpt lat="30.249391" lon="120.090931">
				<speed>0.000000</speed>
				<ele>225.000000</ele>
				<time>2026-08-17T04:37:32Z</time>
			</trkpt>
			<trkpt lat="30.249410" lon="120.090910">
				<speed>0.000000</speed>
				<ele>225.000000</ele>
				<time>2026-08-17T04:37:33Z</time>
			</trkpt>
			<trkpt lat="30.249418" lon="120.090902">
				<speed>0.000000</speed>
				<ele>224.000000</ele>
				<time>2026-08-17T04:37:34Z</time>
			</trkpt>
			<trkpt lat="30.249426" lon="120.090894">
				<speed>0.000000</speed>
				<ele>224.000000</ele>
				<time>2026-08-17T04:37:35Z</time>
			</trkpt>
			<trkpt lat="30.249434" lon="120.090887">
				<speed>0.000000</speed>
				<ele>224.000000</ele>
				<time>2026-08-17T04:37:36Z</time>
			</trkpt>
			<trkpt lat="30.249460" lon="120.090865">
				<speed>0.000000</speed>
				<ele>224.000000</ele>
				<time>2026-08-17T04:37:37Z</time>
			</trkpt>
			<trkpt lat="30.249469" lon="120.090859">
				<speed>0.000000</speed>
				<ele>223.000000</ele>
				<time>2026-08-17T04:37:38Z</time>
			</trkpt>
			<trkpt lat="30.249477" lon="120.090853">
				<speed>0.000000</speed>
				<ele>223.000000</ele>
				<time>2026-08-17T04:37:39Z</time>
			</trkpt>
			<trkpt lat="30.249486" lon="120.090846">
				<speed>0.000000</speed>
				<ele>222.000000</ele>
				<time>2026-08-17T04:37:40Z</time>
			</trkpt>
			<trkpt lat="30.249506" lon="120.090827">
				<speed>0.000000</speed>
				<ele>222.000000</ele>
				<time>2026-08-17T04:37:41Z</time>
			</trkpt>
			<trkpt lat="30.249511" lon="120.090818">
				<speed>0.000000</speed>
				<ele>221.000000</ele>
				<time>2026-08-17T04:37:42Z</time>
			</trkpt>
			<trkpt lat="30.249517" lon="120.090810">
				<speed>0.000000</speed>
				<ele>220.000000</ele>
				<time>2026-08-17T04:37:43Z</time>
			</trkpt>
			<trkpt lat="30.249523" lon="120.090802">
				<speed>0.000000</speed>
				<ele>219.000000</ele>
				<time>2026-08-17T04:37:44Z</time>
			</trkpt>
			<trkpt lat="30.249542" lon="120.090769">
				<speed>0.000000</speed>
				<ele>219.000000</ele>
				<time>2026-08-17T04:37:45Z</time>
			</trkpt>
			<trkpt lat="30.249549" lon="120.090757">
				<speed>0.000000</speed>
				<ele>218.000000</ele>
				<time>2026-08-17T04:37:46Z</time>
			</trkpt>
			<trkpt lat="30.249556" lon="120.090744">
				<speed>0.000000</speed>
				<ele>218.000000</ele>
				<time>2026-08-17T04:37:47Z</time>
			</trkpt>
			<trkpt lat="30.249563" lon="120.090732">
				<speed>0.000000</speed>
				<ele>217.000000</ele>
				<time>2026-08-17T04:37:48Z</time>
			</trkpt>
			<trkpt lat="30.249579" lon="120.090701">
				<speed>0.000000</speed>
				<ele>217.000000</ele>
				<time>2026-08-17T04:37:49Z</time>
			</trkpt>
			<trkpt lat="30.249595" lon="120.090684">
				<speed>0.000000</speed>
				<ele>207.000000</ele>
				<time>2026-08-17T04:38:32Z</time>
			</trkpt>
			<trkpt lat="30.249608" lon="120.090676">
				<speed>0.000000</speed>
				<ele>207.000000</ele>
				<time>2026-08-17T04:38:33Z</time>
			</trkpt>
			<trkpt lat="30.249612" lon="120.090672">
				<speed>0.000000</speed>
				<ele>207.000000</ele>
				<time>2026-08-17T04:38:34Z</time>
			</trkpt>
			<trkpt lat="30.249615" lon="120.090668">
				<speed>0.000000</speed>
				<ele>207.000000</ele>
				<time>2026-08-17T04:38:35Z</time>
			</trkpt>
			<trkpt lat="30.249618" lon="120.090664">
				<speed>0.000000</speed>
				<ele>207.000000</ele>
				<time>2026-08-17T04:38:36Z</time>
			</trkpt>
			<trkpt lat="30.249625" lon="120.090645">
				<speed>0.000000</speed>
				<ele>207.000000</ele>
				<time>2026-08-17T04:38:37Z</time>
			</trkpt>
			<trkpt lat="30.249625" lon="120.090638">
				<speed>0.000000</speed>
				<ele>207.000000</ele>
				<time>2026-08-17T04:38:38Z</time>
			</trkpt>
			<trkpt lat="30.249625" lon="120.090630">
				<speed>0.000000</speed>
				<ele>207.000000</ele>
				<time>2026-08-17T04:38:39Z</time>
			</trkpt>
			<trkpt lat="30.249624" lon="120.090623">
				<speed>0.000000</speed>
				<ele>207.000000</ele>
				<time>2026-08-17T04:38:40Z</time>
			</trkpt>
			<trkpt lat="30.249618" lon="120.090597">
				<speed>0.000000</speed>
				<ele>207.000000</ele>
				<time>2026-08-17T04:38:41Z</time>
			</trkpt>
			<trkpt lat="30.249616" lon="120.090587">
				<speed>0.000000</speed>
				<ele>206.000000</ele>
				<time>2026-08-17T04:38:42Z</time>
			</trkpt>
			<trkpt lat="30.249615" lon="120.090578">
				<speed>0.000000</speed>
				<ele>206.000000</ele>
				<time>2026-08-17T04:38:43Z</time>
			</trkpt>
			<trkpt lat="30.249614" lon="120.090568">
				<speed>0.000000</speed>
				<ele>206.000000</ele>
				<time>2026-08-17T04:38:44Z</time>
			</trkpt>
			<trkpt lat="30.249619" lon="120.090538">
				<speed>0.000000</speed>
				<ele>206.000000</ele>
				<time>2026-08-17T04:38:45Z</time>
			</trkpt>
			<trkpt lat="30.249623" lon="120.090529">
				<speed>0.000000</speed>
				<ele>205.000000</ele>
				<time>2026-08-17T04:38:46Z</time>
			</trkpt>
			<trkpt lat="30.249627" lon="120.090520">
				<speed>0.000000</speed>
				<ele>205.000000</ele>
				<time>2026-08-17T04:38:47Z</time>
			</trkpt>
			<trkpt lat="30.249631" lon="120.090511">
				<speed>0.000000</speed>
				<ele>205.000000</ele>
				<time>2026-08-17T04:38:48Z</time>
			</trkpt>
			<trkpt lat="30.249649" lon="120.090488">
				<speed>0.000000</speed>
				<ele>205.000000</ele>
				<time>2026-08-17T04:38:49Z</time>
			</trkpt>
			<trkpt lat="30.249655" lon="120.090482">
				<speed>0.000000</speed>
				<ele>204.000000</ele>
				<time>2026-08-17T04:38:50Z</time>
			</trkpt>
			<trkpt lat="30.249662" lon="120.090477">
				<speed>0.000000</speed>
				<ele>204.000000</ele>
				<time>2026-08-17T04:38:51Z</time>
			</trkpt>
			<trkpt lat="30.249669" lon="120.090471">
				<speed>0.000000</speed>
				<ele>204.000000</ele>
				<time>2026-08-17T04:38:52Z</time>
			</trkpt>
			<trkpt lat="30.249687" lon="120.090458">
				<speed>0.000000</speed>
				<ele>204.000000</ele>
				<time>2026-08-17T04:38:53Z</time>
			</trkpt>
			<trkpt lat="30.249692" lon="120.090452">
				<speed>0.000000</speed>
				<ele>203.000000</ele>
				<time>2026-08-17T04:38:54Z</time>
			</trkpt>
			<trkpt lat="30.249696" lon="120.090447">
				<speed>0.000000</speed>
				<ele>203.000000</ele>
				<time>2026-08-17T04:38:55Z</time>
			</trkpt>
			<trkpt lat="30.249699" lon="120.090441">
				<speed>0.000000</speed>
				<ele>202.000000</ele>
				<time>2026-08-17T04:38:56Z</time>
			</trkpt>
			<trkpt lat="30.249701" lon="120.090422">
				<speed>0.000000</speed>
				<ele>202.000000</ele>
				<time>2026-08-17T04:38:57Z</time>
			</trkpt>
			<trkpt lat="30.249699" lon="120.090415">
				<speed>0.000000</speed>
				<ele>201.000000</ele>
				<time>2026-08-17T04:38:58Z</time>
			</trkpt>
			<trkpt lat="30.249697" lon="120.090409">
				<speed>0.000000</speed>
				<ele>201.000000</ele>
				<time>2026-08-17T04:38:59Z</time>
			</trkpt>
			<trkpt lat="30.249695" lon="120.090402">
				<speed>0.000000</speed>
				<ele>200.000000</ele>
				<time>2026-08-17T04:39:00Z</time>
			</trkpt>
			<trkpt lat="30.249684" lon="120.090385">
				<speed>0.000000</speed>
				<ele>200.000000</ele>
				<time>2026-08-17T04:39:01Z</time>
			</trkpt>
			<trkpt lat="30.249680" lon="120.090379">
				<speed>0.000000</speed>
				<ele>199.000000</ele>
				<time>2026-08-17T04:39:02Z</time>
			</trkpt>
			<trkpt lat="30.249677" lon="120.090372">
				<speed>0.000000</speed>
				<ele>199.000000</ele>
				<time>2026-08-17T04:39:03Z</time>
			</trkpt>
			<trkpt lat="30.249673" lon="120.090366">
				<speed>0.000000</speed>
				<ele>198.000000</ele>
				<time>2026-08-17T04:39:04Z</time>
			</trkpt>
			<trkpt lat="30.249668" lon="120.090345">
				<speed>0.000000</speed>
				<ele>198.000000</ele>
				<time>2026-08-17T04:39:05Z</time>
			</trkpt>
			<trkpt lat="30.249668" lon="120.090339">
				<speed>0.000000</speed>
				<ele>197.000000</ele>
				<time>2026-08-17T04:39:06Z</time>
			</trkpt>
			<trkpt lat="30.249669" lon="120.090334">
				<speed>0.000000</speed>
				<ele>197.000000</ele>
				<time>2026-08-17T04:39:07Z</time>
			</trkpt>
			<trkpt lat="30.249669" lon="120.090328">
				<speed>0.000000</speed>
				<ele>196.000000</ele>
				<time>2026-08-17T04:39:08Z</time>
			</trkpt>
			<trkpt lat="30.249680" lon="120.090317">
				<speed>0.000000</speed>
				<ele>196.000000</ele>
				<time>2026-08-17T04:39:09Z</time>
			</trkpt>
			<trkpt lat="30.249687" lon="120.090313">
				<speed>0.000000</speed>
				<ele>195.000000</ele>
				<time>2026-08-17T04:39:10Z</time>
			</trkpt>
			<trkpt lat="30.249694" lon="120.090309">
				<speed>0.000000</speed>
				<ele>195.000000</ele>
				<time>2026-08-17T04:39:11Z</time>
			</trkpt>
			<trkpt lat="30.249700" lon="120.090306">
				<speed>0.000000</speed>
				<ele>194.000000</ele>
				<time>2026-08-17T04:39:12Z</time>
			</trkpt>
			<trkpt lat="30.249731" lon="120.090289">
				<speed>0.000000</speed>
				<ele>194.000000</ele>
				<time>2026-08-17T04:39:13Z</time>
			</trkpt>
			<trkpt lat="30.249744" lon="120.090282">
				<speed>0.000000</speed>
				<ele>193.000000</ele>
				<time>2026-08-17T04:39:14Z</time>
			</trkpt>
			<trkpt lat="30.249757" lon="120.090275">
				<speed>0.000000</speed>
				<ele>193.000000</ele>
				<time>2026-08-17T04:39:15Z</time>
			</trkpt>
			<trkpt lat="30.249769" lon="120.090268">
				<speed>0.000000</speed>
				<ele>192.000000</ele>
				<time>2026-08-17T04:39:16Z</time>
			</trkpt>
			<trkpt lat="30.249811" lon="120.090249">
				<speed>0.000000</speed>
				<ele>192.000000</ele>
				<time>2026-08-17T04:39:17Z</time>
			</trkpt>
			<trkpt lat="30.249825" lon="120.090245">
				<speed>0.000000</speed>
				<ele>191.000000</ele>
				<time>2026-08-17T04:39:18Z</time>
			</trkpt>
			<trkpt lat="30.249839" lon="120.090241">
				<speed>0.000000</speed>
				<ele>191.000000</ele>
				<time>2026-08-17T04:39:19Z</time>
			</trkpt>
			<trkpt lat="30.249853" lon="120.090238">
				<speed>0.000000</speed>
				<ele>191.000000</ele>
				<time>2026-08-17T04:39:20Z</time>
			</trkpt>
			<trkpt lat="30.249895" lon="120.090231">
				<speed>0.000000</speed>
				<ele>191.000000</ele>
				<time>2026-08-17T04:39:21Z</time>
			</trkpt>
			<trkpt lat="30.249906" lon="120.090228">
				<speed>0.000000</speed>
				<ele>190.000000</ele>
				<time>2026-08-17T04:39:22Z</time>
			</trkpt>
			<trkpt lat="30.249918" lon="120.090226">
				<speed>0.000000</speed>
				<ele>190.000000</ele>
				<time>2026-08-17T04:39:23Z</time>
			</trkpt>
			<trkpt lat="30.249930" lon="120.090223">
				<speed>0.000000</speed>
				<ele>189.000000</ele>
				<time>2026-08-17T04:39:24Z</time>
			</trkpt>
			<trkpt lat="30.249951" lon="120.090205">
				<speed>0.000000</speed>
				<ele>189.000000</ele>
				<time>2026-08-17T04:39:25Z</time>
			</trkpt>
			<trkpt lat="30.249952" lon="120.090195">
				<speed>0.000000</speed>
				<ele>188.000000</ele>
				<time>2026-08-17T04:39:26Z</time>
			</trkpt>
			<trkpt lat="30.249954" lon="120.090185">
				<speed>0.000000</speed>
				<ele>188.000000</ele>
				<time>2026-08-17T04:39:27Z</time>
			</trkpt>
			<trkpt lat="30.249955" lon="120.090175">
				<speed>0.000000</speed>
				<ele>187.000000</ele>
				<time>2026-08-17T04:39:28Z</time>
			</trkpt>
			<trkpt lat="30.249947" lon="120.090141">
				<speed>0.000000</speed>
				<ele>187.000000</ele>
				<time>2026-08-17T04:39:29Z</time>
			</trkpt>
			<trkpt lat="30.249943" lon="120.090129">
				<speed>0.000000</speed>
				<ele>186.000000</ele>
				<time>2026-08-17T04:39:30Z</time>
			</trkpt>
			<trkpt lat="30.249938" lon="120.090117">
				<speed>0.000000</speed>
				<ele>185.000000</ele>
				<time>2026-08-17T04:39:31Z</time>
			</trkpt>
			<trkpt lat="30.249934" lon="120.090105">
				<speed>0.000000</speed>
				<ele>184.000000</ele>
				<time>2026-08-17T04:39:32Z</time>
			</trkpt>
			<trkpt lat="30.249913" lon="120.090069">
				<speed>0.000000</speed>
				<ele>184.000000</ele>
				<time>2026-08-17T04:39:33Z</time>
			</trkpt>
			<trkpt lat="30.249905" lon="120.090057">
				<speed>0.000000</speed>
				<ele>183.000000</ele>
				<time>2026-08-17T04:39:34Z</time>
			</trkpt>
			<trkpt lat="30.249896" lon="120.090044">
				<speed>0.000000</speed>
				<ele>182.000000</ele>
				<time>2026-08-17T04:39:35Z</time>
			</trkpt>
			<trkpt lat="30.249888" lon="120.090032">
				<speed>0.000000</speed>
				<ele>181.000000</ele>
				<time>2026-08-17T04:39:36Z</time>
			</trkpt>
			<trkpt lat="30.249861" lon="120.089994">
				<speed>0.000000</speed>
				<ele>181.000000</ele>
				<time>2026-08-17T04:39:37Z</time>
			</trkpt>
			<trkpt lat="30.249857" lon="120.089988">
				<speed>0.000000</speed>
				<ele>180.000000</ele>
				<time>2026-08-17T04:39:38Z</time>
			</trkpt>
			<trkpt lat="30.249854" lon="120.089981">
				<speed>0.000000</speed>
				<ele>179.000000</ele>
				<time>2026-08-17T04:39:39Z</time>
			</trkpt>
			<trkpt lat="30.249851" lon="120.089975">
				<speed>0.000000</speed>
				<ele>178.000000</ele>
				<time>2026-08-17T04:39:40Z</time>
			</trkpt>
			<trkpt lat="30.249850" lon="120.089957">
				<speed>0.000000</speed>
				<ele>169.000000</ele>
				<time>2026-08-17T04:39:55Z</time>
			</trkpt>
			<trkpt lat="30.249855" lon="120.089938">
				<speed>0.000000</speed>
				<ele>168.000000</ele>
				<time>2026-08-17T04:39:56Z</time>
			</trkpt>
			<trkpt lat="30.249859" lon="120.089935">
				<speed>0.000000</speed>
				<ele>168.000000</ele>
				<time>2026-08-17T04:39:57Z</time>
			</trkpt>
			<trkpt lat="30.249863" lon="120.089931">
				<speed>0.000000</speed>
				<ele>167.000000</ele>
				<time>2026-08-17T04:39:58Z</time>
			</trkpt>
			<trkpt lat="30.249867" lon="120.089928">
				<speed>0.000000</speed>
				<ele>167.000000</ele>
				<time>2026-08-17T04:39:59Z</time>
			</trkpt>
			<trkpt lat="30.249888" lon="120.089918">
				<speed>0.000000</speed>
				<ele>167.000000</ele>
				<time>2026-08-17T04:40:00Z</time>
			</trkpt>
			<trkpt lat="30.249896" lon="120.089913">
				<speed>0.000000</speed>
				<ele>167.000000</ele>
				<time>2026-08-17T04:40:01Z</time>
			</trkpt>
			<trkpt lat="30.249904" lon="120.089909">
				<speed>0.000000</speed>
				<ele>167.000000</ele>
				<time>2026-08-17T04:40:02Z</time>
			</trkpt>
			<trkpt lat="30.249912" lon="120.089904">
				<speed>0.000000</speed>
				<ele>167.000000</ele>
				<time>2026-08-17T04:40:03Z</time>
			</trkpt>
			<trkpt lat="30.249937" lon="120.089890">
				<speed>0.000000</speed>
				<ele>167.000000</ele>
				<time>2026-08-17T04:40:04Z</time>
			</trkpt>
			<trkpt lat="30.249946" lon="120.089886">
				<speed>0.000000</speed>
				<ele>167.000000</ele>
				<time>2026-08-17T04:40:05Z</time>
			</trkpt>
			<trkpt lat="30.249954" lon="120.089882">
				<speed>0.000000</speed>
				<ele>166.000000</ele>
				<time>2026-08-17T04:40:06Z</time>
			</trkpt>
			<trkpt lat="30.249963" lon="120.089878">
				<speed>0.000000</speed>
				<ele>166.000000</ele>
				<time>2026-08-17T04:40:07Z</time>
			</trkpt>
			<trkpt lat="30.249988" lon="120.089869">
				<speed>0.000000</speed>
				<ele>166.000000</ele>
				<time>2026-08-17T04:40:08Z</time>
			</trkpt>
			<trkpt lat="30.249996" lon="120.089866">
				<speed>0.000000</speed>
				<ele>166.000000</ele>
				<time>2026-08-17T04:40:09Z</time>
			</trkpt>
			<trkpt lat="30.250003" lon="120.089863">
				<speed>0.000000</speed>
				<ele>165.000000</ele>
				<time>2026-08-17T04:40:10Z</time>
			</trkpt>
			<trkpt lat="30.250011" lon="120.089861">
				<speed>0.000000</speed>
				<ele>165.000000</ele>
				<time>2026-08-17T04:40:11Z</time>
			</trkpt>
			<trkpt lat="30.250030" lon="120.089852">
				<speed>0.000000</speed>
				<ele>165.000000</ele>
				<time>2026-08-17T04:40:12Z</time>
			</trkpt>
			<trkpt lat="30.250033" lon="120.089848">
				<speed>0.000000</speed>
				<ele>165.000000</ele>
				<time>2026-08-17T04:40:13Z</time>
			</trkpt>
			<trkpt lat="30.250035" lon="120.089845">
				<speed>0.000000</speed>
				<ele>164.000000</ele>
				<time>2026-08-17T04:40:14Z</time>
			</trkpt>
			<trkpt lat="30.250038" lon="120.089841">
				<speed>0.000000</speed>
				<ele>164.000000</ele>
				<time>2026-08-17T04:40:15Z</time>
			</trkpt>
			<trkpt lat="30.250032" lon="120.089833">
				<speed>0.000000</speed>
				<ele>164.000000</ele>
				<time>2026-08-17T04:40:16Z</time>
			</trkpt>
			<trkpt lat="30.250026" lon="120.089831">
				<speed>0.000000</speed>
				<ele>164.000000</ele>
				<time>2026-08-17T04:40:17Z</time>
			</trkpt>
			<trkpt lat="30.250019" lon="120.089829">
				<speed>0.000000</speed>
				<ele>163.000000</ele>
				<time>2026-08-17T04:40:18Z</time>
			</trkpt>
			<trkpt lat="30.250013" lon="120.089827">
				<speed>0.000000</speed>
				<ele>163.000000</ele>
				<time>2026-08-17T04:40:19Z</time>
			</trkpt>
			<trkpt lat="30.249991" lon="120.089817">
				<speed>0.000000</speed>
				<ele>162.000000</ele>
				<time>2026-08-17T04:40:20Z</time>
			</trkpt>
			<trkpt lat="30.249988" lon="120.089810">
				<speed>0.000000</speed>
				<ele>162.000000</ele>
				<time>2026-08-17T04:40:21Z</time>
			</trkpt>
			<trkpt lat="30.249984" lon="120.089803">
				<speed>0.000000</speed>
				<ele>161.000000</ele>
				<time>2026-08-17T04:40:22Z</time>
			</trkpt>
			<trkpt lat="30.249981" lon="120.089796">
				<speed>0.000000</speed>
				<ele>161.000000</ele>
				<time>2026-08-17T04:40:23Z</time>
			</trkpt>
			<trkpt lat="30.249989" lon="120.089768">
				<speed>0.000000</speed>
				<ele>161.000000</ele>
				<time>2026-08-17T04:40:24Z</time>
			</trkpt>
			<trkpt lat="30.249998" lon="120.089761">
				<speed>0.000000</speed>
				<ele>161.000000</ele>
				<time>2026-08-17T04:40:25Z</time>
			</trkpt>
			<trkpt lat="30.250006" lon="120.089753">
				<speed>0.000000</speed>
				<ele>160.000000</ele>
				<time>2026-08-17T04:40:26Z</time>
			</trkpt>
			<trkpt lat="30.250014" lon="120.089745">
				<speed>0.000000</speed>
				<ele>160.000000</ele>
				<time>2026-08-17T04:40:27Z</time>
			</trkpt>
			<trkpt lat="30.250049" lon="120.089724">
				<speed>0.000000</speed>
				<ele>159.000000</ele>
				<time>2026-08-17T04:40:28Z</time>
			</trkpt>
			<trkpt lat="30.250060" lon="120.089718">
				<speed>0.000000</speed>
				<ele>159.000000</ele>
				<time>2026-08-17T04:40:29Z</time>
			</trkpt>
			<trkpt lat="30.250070" lon="120.089712">
				<speed>0.000000</speed>
				<ele>158.000000</ele>
				<time>2026-08-17T04:40:30Z</time>
			</trkpt>
			<trkpt lat="30.250081" lon="120.089706">
				<speed>0.000000</speed>
				<ele>158.000000</ele>
				<time>2026-08-17T04:40:31Z</time>
			</trkpt>
			<trkpt lat="30.250091" lon="120.089688">
				<speed>0.000000</speed>
				<ele>155.000000</ele>
				<time>2026-08-17T04:40:39Z</time>
			</trkpt>
			<trkpt lat="30.250084" lon="120.089678">
				<speed>0.000000</speed>
				<ele>154.000000</ele>
				<time>2026-08-17T04:40:40Z</time>
			</trkpt>
			<trkpt lat="30.250080" lon="120.089676">
				<speed>0.000000</speed>
				<ele>154.000000</ele>
				<time>2026-08-17T04:40:41Z</time>
			</trkpt>
			<trkpt lat="30.250076" lon="120.089675">
				<speed>0.000000</speed>
				<ele>153.000000</ele>
				<time>2026-08-17T04:40:42Z</time>
			</trkpt>
			<trkpt lat="30.250072" lon="120.089673">
				<speed>0.000000</speed>
				<ele>152.000000</ele>
				<time>2026-08-17T04:40:43Z</time>
			</trkpt>
			<trkpt lat="30.250057" lon="120.089668">
				<speed>0.000000</speed>
				<ele>151.000000</ele>
				<time>2026-08-17T04:40:44Z</time>
			</trkpt>
			<trkpt lat="30.250052" lon="120.089665">
				<speed>0.000000</speed>
				<ele>151.000000</ele>
				<time>2026-08-17T04:40:45Z</time>
			</trkpt>
			<trkpt lat="30.250047" lon="120.089662">
				<speed>0.000000</speed>
				<ele>150.000000</ele>
				<time>2026-08-17T04:40:46Z</time>
			</trkpt>
			<trkpt lat="30.250043" lon="120.089658">
				<speed>0.000000</speed>
				<ele>150.000000</ele>
				<time>2026-08-17T04:40:47Z</time>
			</trkpt>
			<trkpt lat="30.250038" lon="120.089646">
				<speed>0.000000</speed>
				<ele>150.000000</ele>
				<time>2026-08-17T04:40:48Z</time>
			</trkpt>
			<trkpt lat="30.250040" lon="120.089641">
				<speed>0.000000</speed>
				<ele>150.000000</ele>
				<time>2026-08-17T04:40:49Z</time>
			</trkpt>
			<trkpt lat="30.250042" lon="120.089637">
				<speed>0.000000</speed>
				<ele>149.000000</ele>
				<time>2026-08-17T04:40:50Z</time>
			</trkpt>
			<trkpt lat="30.250045" lon="120.089633">
				<speed>0.000000</speed>
				<ele>149.000000</ele>
				<time>2026-08-17T04:40:51Z</time>
			</trkpt>
			<trkpt lat="30.250060" lon="120.089619">
				<speed>0.000000</speed>
				<ele>148.000000</ele>
				<time>2026-08-17T04:40:52Z</time>
			</trkpt>
			<trkpt lat="30.250067" lon="120.089615">
				<speed>0.000000</speed>
				<ele>148.000000</ele>
				<time>2026-08-17T04:40:53Z</time>
			</trkpt>
			<trkpt lat="30.250074" lon="120.089610">
				<speed>0.000000</speed>
				<ele>147.000000</ele>
				<time>2026-08-17T04:40:54Z</time>
			</trkpt>
			<trkpt lat="30.250081" lon="120.089606">
				<speed>0.000000</speed>
				<ele>147.000000</ele>
				<time>2026-08-17T04:40:55Z</time>
			</trkpt>
			<trkpt lat="30.250102" lon="120.089591">
				<speed>0.000000</speed>
				<ele>147.000000</ele>
				<time>2026-08-17T04:40:56Z</time>
			</trkpt>
			<trkpt lat="30.250109" lon="120.089586">
				<speed>0.000000</speed>
				<ele>147.000000</ele>
				<time>2026-08-17T04:40:57Z</time>
			</trkpt>
			<trkpt lat="30.250116" lon="120.089582">
				<speed>0.000000</speed>
				<ele>146.000000</ele>
				<time>2026-08-17T04:40:58Z</time>
			</trkpt>
			<trkpt lat="30.250123" lon="120.089577">
				<speed>0.000000</speed>
				<ele>146.000000</ele>
				<time>2026-08-17T04:40:59Z</time>
			</trkpt>
			<trkpt lat="30.250142" lon="120.089561">
				<speed>0.000000</speed>
				<ele>146.000000</ele>
				<time>2026-08-17T04:41:00Z</time>
			</trkpt>
			<trkpt lat="30.250148" lon="120.089555">
				<speed>0.000000</speed>
				<ele>146.000000</ele>
				<time>2026-08-17T04:41:01Z</time>
			</trkpt>
			<trkpt lat="30.250153" lon="120.089549">
				<speed>0.000000</speed>
				<ele>145.000000</ele>
				<time>2026-08-17T04:41:02Z</time>
			</trkpt>
			<trkpt lat="30.250159" lon="120.089544">
				<speed>0.000000</speed>
				<ele>145.000000</ele>
				<time>2026-08-17T04:41:03Z</time>
			</trkpt>
			<trkpt lat="30.250173" lon="120.089526">
				<speed>0.000000</speed>
				<ele>145.000000</ele>
				<time>2026-08-17T04:41:04Z</time>
			</trkpt>
			<trkpt lat="30.250174" lon="120.089521">
				<speed>0.000000</speed>
				<ele>145.000000</ele>
				<time>2026-08-17T04:41:05Z</time>
			</trkpt>
			<trkpt lat="30.250176" lon="120.089516">
				<speed>0.000000</speed>
				<ele>144.000000</ele>
				<time>2026-08-17T04:41:06Z</time>
			</trkpt>
			<trkpt lat="30.250178" lon="120.089511">
				<speed>0.000000</speed>
				<ele>144.000000</ele>
				<time>2026-08-17T04:41:07Z</time>
			</trkpt>
			<trkpt lat="30.250174" lon="120.089499">
				<speed>0.000000</speed>
				<ele>143.000000</ele>
				<time>2026-08-17T04:41:08Z</time>
			</trkpt>
			<trkpt lat="30.250171" lon="120.089494">
				<speed>0.000000</speed>
				<ele>143.000000</ele>
				<time>2026-08-17T04:41:09Z</time>
			</trkpt>
			<trkpt lat="30.250167" lon="120.089490">
				<speed>0.000000</speed>
				<ele>142.000000</ele>
				<time>2026-08-17T04:41:10Z</time>
			</trkpt>
			<trkpt lat="30.250163" lon="120.089486">
				<speed>0.000000</speed>
				<ele>142.000000</ele>
				<time>2026-08-17T04:41:11Z</time>
			</trkpt>
			<trkpt lat="30.250151" lon="120.089472">
				<speed>0.000000</speed>
				<ele>142.000000</ele>
				<time>2026-08-17T04:41:12Z</time>
			</trkpt>
			<trkpt lat="30.250148" lon="120.089467">
				<speed>0.000000</speed>
				<ele>142.000000</ele>
				<time>2026-08-17T04:41:13Z</time>
			</trkpt>
			<trkpt lat="30.250145" lon="120.089462">
				<speed>0.000000</speed>
				<ele>141.000000</ele>
				<time>2026-08-17T04:41:14Z</time>
			</trkpt>
			<trkpt lat="30.250142" lon="120.089457">
				<speed>0.000000</speed>
				<ele>141.000000</ele>
				<time>2026-08-17T04:41:15Z</time>
			</trkpt>
			<trkpt lat="30.250138" lon="120.089442">
				<speed>0.000000</speed>
				<ele>140.000000</ele>
				<time>2026-08-17T04:41:16Z</time>
			</trkpt>
			<trkpt lat="30.250139" lon="120.089440">
				<speed>0.000000</speed>
				<ele>140.000000</ele>
				<time>2026-08-17T04:41:17Z</time>
			</trkpt>
			<trkpt lat="30.250139" lon="120.089438">
				<speed>0.000000</speed>
				<ele>139.000000</ele>
				<time>2026-08-17T04:41:18Z</time>
			</trkpt>
			<trkpt lat="30.250139" lon="120.089436">
				<speed>0.000000</speed>
				<ele>139.000000</ele>
				<time>2026-08-17T04:41:19Z</time>
			</trkpt>
			<trkpt lat="30.250140" lon="120.089434">
				<speed>0.000000</speed>
				<ele>138.000000</ele>
				<time>2026-08-17T04:41:20Z</time>
			</trkpt>
			<trkpt lat="30.250144" lon="120.089422">
				<speed>0.000000</speed>
				<ele>138.000000</ele>
				<time>2026-08-17T04:41:21Z</time>
			</trkpt>
			<trkpt lat="30.250145" lon="120.089418">
				<speed>0.000000</speed>
				<ele>137.000000</ele>
				<time>2026-08-17T04:41:22Z</time>
			</trkpt>
			<trkpt lat="30.250146" lon="120.089415">
				<speed>0.000000</speed>
				<ele>137.000000</ele>
				<time>2026-08-17T04:41:23Z</time>
			</trkpt>
			<trkpt lat="30.250148" lon="120.089411">
				<speed>0.000000</speed>
				<ele>136.000000</ele>
				<time>2026-08-17T04:41:24Z</time>
			</trkpt>
			<trkpt lat="30.250153" lon="120.089396">
				<speed>0.000000</speed>
				<ele>136.000000</ele>
				<time>2026-08-17T04:41:25Z</time>
			</trkpt>
			<trkpt lat="30.250154" lon="120.089391">
				<speed>0.000000</speed>
				<ele>135.000000</ele>
				<time>2026-08-17T04:41:26Z</time>
			</trkpt>
			<trkpt lat="30.250156" lon="120.089385">
				<speed>0.000000</speed>
				<ele>135.000000</ele>
				<time>2026-08-17T04:41:27Z</time>
			</trkpt>
			<trkpt lat="30.250158" lon="120.089380">
				<speed>0.000000</speed>
				<ele>134.000000</ele>
				<time>2026-08-17T04:41:28Z</time>
			</trkpt>
			<trkpt lat="30.250163" lon="120.089365">
				<speed>0.000000</speed>
				<ele>134.000000</ele>
				<time>2026-08-17T04:41:29Z</time>
			</trkpt>
			<trkpt lat="30.250164" lon="120.089361">
				<speed>0.000000</speed>
				<ele>133.000000</ele>
				<time>2026-08-17T04:41:30Z</time>
			</trkpt>
			<trkpt lat="30.250164" lon="120.089356">
				<speed>0.000000</speed>
				<ele>133.000000</ele>
				<time>2026-08-17T04:41:31Z</time>
			</trkpt>
			<trkpt lat="30.250165" lon="120.089352">
				<speed>0.000000</speed>
				<ele>132.000000</ele>
				<time>2026-08-17T04:41:32Z</time>
			</trkpt>
			<trkpt lat="30.250164" lon="120.089338">
				<speed>0.000000</speed>
				<ele>132.000000</ele>
				<time>2026-08-17T04:41:33Z</time>
			</trkpt>
			<trkpt lat="30.250163" lon="120.089332">
				<speed>0.000000</speed>
				<ele>131.000000</ele>
				<time>2026-08-17T04:41:34Z</time>
			</trkpt>
			<trkpt lat="30.250161" lon="120.089327">
				<speed>0.000000</speed>
				<ele>131.000000</ele>
				<time>2026-08-17T04:41:35Z</time>
			</trkpt>
			<trkpt lat="30.250160" lon="120.089322">
				<speed>0.000000</speed>
				<ele>131.000000</ele>
				<time>2026-08-17T04:41:36Z</time>
			</trkpt>
			<trkpt lat="30.250154" lon="120.089307">
				<speed>0.000000</speed>
				<ele>131.000000</ele>
				<time>2026-08-17T04:41:37Z</time>
			</trkpt>
			<trkpt lat="30.250152" lon="120.089302">
				<speed>0.000000</speed>
				<ele>130.000000</ele>
				<time>2026-08-17T04:41:38Z</time>
			</trkpt>
			<trkpt lat="30.250150" lon="120.089298">
				<speed>0.000000</speed>
				<ele>130.000000</ele>
				<time>2026-08-17T04:41:39Z</time>
			</trkpt>
			<trkpt lat="30.250147" lon="120.089294">
				<speed>0.000000</speed>
				<ele>129.000000</ele>
				<time>2026-08-17T04:41:40Z</time>
			</trkpt>
			<trkpt lat="30.250140" lon="120.089286">
				<speed>0.000000</speed>
				<ele>129.000000</ele>
				<time>2026-08-17T04:41:41Z</time>
			</trkpt>
			<trkpt lat="30.250136" lon="120.089286">
				<speed>0.000000</speed>
				<ele>128.000000</ele>
				<time>2026-08-17T04:41:42Z</time>
			</trkpt>
			<trkpt lat="30.250132" lon="120.089286">
				<speed>0.000000</speed>
				<ele>128.000000</ele>
				<time>2026-08-17T04:41:43Z</time>
			</trkpt>
			<trkpt lat="30.250129" lon="120.089286">
				<speed>0.000000</speed>
				<ele>127.000000</ele>
				<time>2026-08-17T04:41:44Z</time>
			</trkpt>
			<trkpt lat="30.250116" lon="120.089290">
				<speed>0.000000</speed>
				<ele>127.000000</ele>
				<time>2026-08-17T04:41:45Z</time>
			</trkpt>
			<trkpt lat="30.250105" lon="120.089288">
				<speed>0.000000</speed>
				<ele>126.000000</ele>
				<time>2026-08-17T04:42:27Z</time>
			</trkpt>
			<trkpt lat="30.250104" lon="120.089281">
				<speed>0.000000</speed>
				<ele>126.000000</ele>
				<time>2026-08-17T04:42:28Z</time>
			</trkpt>
			<trkpt lat="30.250107" lon="120.089279">
				<speed>0.000000</speed>
				<ele>126.000000</ele>
				<time>2026-08-17T04:42:29Z</time>
			</trkpt>
			<trkpt lat="30.250110" lon="120.089277">
				<speed>0.000000</speed>
				<ele>126.000000</ele>
				<time>2026-08-17T04:42:30Z</time>
			</trkpt>
			<trkpt lat="30.250113" lon="120.089275">
				<speed>0.000000</speed>
				<ele>126.000000</ele>
				<time>2026-08-17T04:42:31Z</time>
			</trkpt>
			<trkpt lat="30.250129" lon="120.089268">
				<speed>0.000000</speed>
				<ele>126.000000</ele>
				<time>2026-08-17T04:42:32Z</time>
			</trkpt>
			<trkpt lat="30.250146" lon="120.089259">
				<speed>0.000000</speed>
				<ele>125.000000</ele>
				<time>2026-08-17T04:42:56Z</time>
			</trkpt>
			<trkpt lat="30.250154" lon="120.089250">
				<speed>0.000000</speed>
				<ele>125.000000</ele>
				<time>2026-08-17T04:42:57Z</time>
			</trkpt>
			<trkpt lat="30.250155" lon="120.089246">
				<speed>0.000000</speed>
				<ele>125.000000</ele>
				<time>2026-08-17T04:42:58Z</time>
			</trkpt>
			<trkpt lat="30.250156" lon="120.089242">
				<speed>0.000000</speed>
				<ele>125.000000</ele>
				<time>2026-08-17T04:42:59Z</time>
			</trkpt>
			<trkpt lat="30.250158" lon="120.089238">
				<speed>0.000000</speed>
				<ele>125.000000</ele>
				<time>2026-08-17T04:43:00Z</time>
			</trkpt>
			<trkpt lat="30.250160" lon="120.089221">
				<speed>0.000000</speed>
				<ele>125.000000</ele>
				<time>2026-08-17T04:43:01Z</time>
			</trkpt>
			<trkpt lat="30.250161" lon="120.089214">
				<speed>0.000000</speed>
				<ele>125.000000</ele>
				<time>2026-08-17T04:43:02Z</time>
			</trkpt>
			<trkpt lat="30.250162" lon="120.089207">
				<speed>0.000000</speed>
				<ele>125.000000</ele>
				<time>2026-08-17T04:43:03Z</time>
			</trkpt>
			<trkpt lat="30.250163" lon="120.089199">
				<speed>0.000000</speed>
				<ele>125.000000</ele>
				<time>2026-08-17T04:43:04Z</time>
			</trkpt>
			<trkpt lat="30.250165" lon="120.089175">
				<speed>0.000000</speed>
				<ele>125.000000</ele>
				<time>2026-08-17T04:43:05Z</time>
			</trkpt>
			<trkpt lat="30.250165" lon="120.089167">
				<speed>0.000000</speed>
				<ele>125.000000</ele>
				<time>2026-08-17T04:43:06Z</time>
			</trkpt>
			<trkpt lat="30.250166" lon="120.089159">
				<speed>0.000000</speed>
				<ele>125.000000</ele>
				<time>2026-08-17T04:43:07Z</time>
			</trkpt>
			<trkpt lat="30.250166" lon="120.089152">
				<speed>0.000000</speed>
				<ele>125.000000</ele>
				<time>2026-08-17T04:43:08Z</time>
			</trkpt>
			<trkpt lat="30.250167" lon="120.089130">
				<speed>0.000000</speed>
				<ele>125.000000</ele>
				<time>2026-08-17T04:43:09Z</time>
			</trkpt>
			<trkpt lat="30.250167" lon="120.089123">
				<speed>0.000000</speed>
				<ele>125.000000</ele>
				<time>2026-08-17T04:43:10Z</time>
			</trkpt>
			<trkpt lat="30.250167" lon="120.089116">
				<speed>0.000000</speed>
				<ele>125.000000</ele>
				<time>2026-08-17T04:43:11Z</time>
			</trkpt>
			<trkpt lat="30.250168" lon="120.089109">
				<speed>0.000000</speed>
				<ele>125.000000</ele>
				<time>2026-08-17T04:43:12Z</time>
			</trkpt>
			<trkpt lat="30.250171" lon="120.089086">
				<speed>0.000000</speed>
				<ele>125.000000</ele>
				<time>2026-08-17T04:43:13Z</time>
			</trkpt>
			<trkpt lat="30.250173" lon="120.089080">
				<speed>0.000000</speed>
				<ele>124.000000</ele>
				<time>2026-08-17T04:43:14Z</time>
			</trkpt>
			<trkpt lat="30.250175" lon="120.089074">
				<speed>0.000000</speed>
				<ele>124.000000</ele>
				<time>2026-08-17T04:43:15Z</time>
			</trkpt>
			<trkpt lat="30.250178" lon="120.089067">
				<speed>0.000000</speed>
				<ele>124.000000</ele>
				<time>2026-08-17T04:43:16Z</time>
			</trkpt>
			<trkpt lat="30.250185" lon="120.089049">
				<speed>0.000000</speed>
				<ele>124.000000</ele>
				<time>2026-08-17T04:43:17Z</time>
			</trkpt>
			<trkpt lat="30.250187" lon="120.089043">
				<speed>0.000000</speed>
				<ele>124.000000</ele>
				<time>2026-08-17T04:43:18Z</time>
			</trkpt>
			<trkpt lat="30.250190" lon="120.089037">
				<speed>0.000000</speed>
				<ele>124.000000</ele>
				<time>2026-08-17T04:43:19Z</time>
			</trkpt>
			<trkpt lat="30.250192" lon="120.089031">
				<speed>0.000000</speed>
				<ele>124.000000</ele>
				<time>2026-08-17T04:43:20Z</time>
			</trkpt>
			<trkpt lat="30.250201" lon="120.089011">
				<speed>0.000000</speed>
				<ele>124.000000</ele>
				<time>2026-08-17T04:43:21Z</time>
			</trkpt>
			<trkpt lat="30.250203" lon="120.089004">
				<speed>0.000000</speed>
				<ele>123.000000</ele>
				<time>2026-08-17T04:43:22Z</time>
			</trkpt>
			<trkpt lat="30.250206" lon="120.088997">
				<speed>0.000000</speed>
				<ele>123.000000</ele>
				<time>2026-08-17T04:43:23Z</time>
			</trkpt>
			<trkpt lat="30.250210" lon="120.088990">
				<speed>0.000000</speed>
				<ele>123.000000</ele>
				<time>2026-08-17T04:43:24Z</time>
			</trkpt>
			<trkpt lat="30.250219" lon="120.088969">
				<speed>0.000000</speed>
				<ele>123.000000</ele>
				<time>2026-08-17T04:43:25Z</time>
			</trkpt>
			<trkpt lat="30.250222" lon="120.088962">
				<speed>0.000000</speed>
				<ele>123.000000</ele>
				<time>2026-08-17T04:43:26Z</time>
			</trkpt>
			<trkpt lat="30.250225" lon="120.088955">
				<speed>0.000000</speed>
				<ele>123.000000</ele>
				<time>2026-08-17T04:43:27Z</time>
			</trkpt>
			<trkpt lat="30.250228" lon="120.088948">
				<speed>0.000000</speed>
				<ele>123.000000</ele>
				<time>2026-08-17T04:43:28Z</time>
			</trkpt>
			<trkpt lat="30.250237" lon="120.088928">
				<speed>0.000000</speed>
				<ele>123.000000</ele>
				<time>2026-08-17T04:43:29Z</time>
			</trkpt>
			<trkpt lat="30.250239" lon="120.088921">
				<speed>0.000000</speed>
				<ele>122.000000</ele>
				<time>2026-08-17T04:43:30Z</time>
			</trkpt>
			<trkpt lat="30.250242" lon="120.088915">
				<speed>0.000000</speed>
				<ele>122.000000</ele>
				<time>2026-08-17T04:43:31Z</time>
			</trkpt>
			<trkpt lat="30.250245" lon="120.088908">
				<speed>0.000000</speed>
				<ele>122.000000</ele>
				<time>2026-08-17T04:43:32Z</time>
			</trkpt>
			<trkpt lat="30.250253" lon="120.088889">
				<speed>0.000000</speed>
				<ele>122.000000</ele>
				<time>2026-08-17T04:43:33Z</time>
			</trkpt>
			<trkpt lat="30.250255" lon="120.088883">
				<speed>0.000000</speed>
				<ele>121.000000</ele>
				<time>2026-08-17T04:43:34Z</time>
			</trkpt>
			<trkpt lat="30.250258" lon="120.088877">
				<speed>0.000000</speed>
				<ele>121.000000</ele>
				<time>2026-08-17T04:43:35Z</time>
			</trkpt>
			<trkpt lat="30.250261" lon="120.088871">
				<speed>0.000000</speed>
				<ele>121.000000</ele>
				<time>2026-08-17T04:43:36Z</time>
			</trkpt>
			<trkpt lat="30.250268" lon="120.088855">
				<speed>0.000000</speed>
				<ele>121.000000</ele>
				<time>2026-08-17T04:43:37Z</time>
			</trkpt>
			<trkpt lat="30.250270" lon="120.088849">
				<speed>0.000000</speed>
				<ele>121.000000</ele>
				<time>2026-08-17T04:43:38Z</time>
			</trkpt>
			<trkpt lat="30.250272" lon="120.088843">
				<speed>0.000000</speed>
				<ele>121.000000</ele>
				<time>2026-08-17T04:43:39Z</time>
			</trkpt>
			<trkpt lat="30.250274" lon="120.088837">
				<speed>0.000000</speed>
				<ele>121.000000</ele>
				<time>2026-08-17T04:43:40Z</time>
			</trkpt>
			<trkpt lat="30.250278" lon="120.088817">
				<speed>0.000000</speed>
				<ele>121.000000</ele>
				<time>2026-08-17T04:43:41Z</time>
			</trkpt>
			<trkpt lat="30.250278" lon="120.088811">
				<speed>0.000000</speed>
				<ele>121.000000</ele>
				<time>2026-08-17T04:43:42Z</time>
			</trkpt>
			<trkpt lat="30.250279" lon="120.088804">
				<speed>0.000000</speed>
				<ele>121.000000</ele>
				<time>2026-08-17T04:43:43Z</time>
			</trkpt>
			<trkpt lat="30.250279" lon="120.088797">
				<speed>0.000000</speed>
				<ele>121.000000</ele>
				<time>2026-08-17T04:43:44Z</time>
			</trkpt>
			<trkpt lat="30.250279" lon="120.088776">
				<speed>0.000000</speed>
				<ele>121.000000</ele>
				<time>2026-08-17T04:43:45Z</time>
			</trkpt>
			<trkpt lat="30.250278" lon="120.088769">
				<speed>0.000000</speed>
				<ele>120.000000</ele>
				<time>2026-08-17T04:43:46Z</time>
			</trkpt>
			<trkpt lat="30.250278" lon="120.088762">
				<speed>0.000000</speed>
				<ele>120.000000</ele>
				<time>2026-08-17T04:43:47Z</time>
			</trkpt>
			<trkpt lat="30.250278" lon="120.088755">
				<speed>0.000000</speed>
				<ele>120.000000</ele>
				<time>2026-08-17T04:43:48Z</time>
			</trkpt>
			<trkpt lat="30.250275" lon="120.088734">
				<speed>0.000000</speed>
				<ele>120.000000</ele>
				<time>2026-08-17T04:43:49Z</time>
			</trkpt>
			<trkpt lat="30.250273" lon="120.088726">
				<speed>0.000000</speed>
				<ele>119.000000</ele>
				<time>2026-08-17T04:43:50Z</time>
			</trkpt>
			<trkpt lat="30.250272" lon="120.088719">
				<speed>0.000000</speed>
				<ele>119.000000</ele>
				<time>2026-08-17T04:43:51Z</time>
			</trkpt>
			<trkpt lat="30.250271" lon="120.088712">
				<speed>0.000000</speed>
				<ele>119.000000</ele>
				<time>2026-08-17T04:43:52Z</time>
			</trkpt>
			<trkpt lat="30.250267" lon="120.088690">
				<speed>0.000000</speed>
				<ele>119.000000</ele>
				<time>2026-08-17T04:43:53Z</time>
			</trkpt>
			<trkpt lat="30.250266" lon="120.088683">
				<speed>0.000000</speed>
				<ele>119.000000</ele>
				<time>2026-08-17T04:43:54Z</time>
			</trkpt>
			<trkpt lat="30.250266" lon="120.088676">
				<speed>0.000000</speed>
				<ele>119.000000</ele>
				<time>2026-08-17T04:43:55Z</time>
			</trkpt>
			<trkpt lat="30.250265" lon="120.088669">
				<speed>0.000000</speed>
				<ele>119.000000</ele>
				<time>2026-08-17T04:43:56Z</time>
			</trkpt>
			<trkpt lat="30.250269" lon="120.088649">
				<speed>0.000000</speed>
				<ele>119.000000</ele>
				<time>2026-08-17T04:43:57Z</time>
			</trkpt>
			<trkpt lat="30.250272" lon="120.088643">
				<speed>0.000000</speed>
				<ele>118.000000</ele>
				<time>2026-08-17T04:43:58Z</time>
			</trkpt>
			<trkpt lat="30.250276" lon="120.088637">
				<speed>0.000000</speed>
				<ele>118.000000</ele>
				<time>2026-08-17T04:43:59Z</time>
			</trkpt>
			<trkpt lat="30.250279" lon="120.088631">
				<speed>0.000000</speed>
				<ele>118.000000</ele>
				<time>2026-08-17T04:44:00Z</time>
			</trkpt>
			<trkpt lat="30.250292" lon="120.088615">
				<speed>0.000000</speed>
				<ele>118.000000</ele>
				<time>2026-08-17T04:44:01Z</time>
			</trkpt>
			<trkpt lat="30.250296" lon="120.088610">
				<speed>0.000000</speed>
				<ele>118.000000</ele>
				<time>2026-08-17T04:44:02Z</time>
			</trkpt>
			<trkpt lat="30.250301" lon="120.088604">
				<speed>0.000000</speed>
				<ele>118.000000</ele>
				<time>2026-08-17T04:44:03Z</time>
			</trkpt>
			<trkpt lat="30.250305" lon="120.088599">
				<speed>0.000000</speed>
				<ele>118.000000</ele>
				<time>2026-08-17T04:44:04Z</time>
			</trkpt>
			<trkpt lat="30.250318" lon="120.088581">
				<speed>0.000000</speed>
				<ele>118.000000</ele>
				<time>2026-08-17T04:44:05Z</time>
			</trkpt>
			<trkpt lat="30.250323" lon="120.088575">
				<speed>0.000000</speed>
				<ele>118.000000</ele>
				<time>2026-08-17T04:44:06Z</time>
			</trkpt>
			<trkpt lat="30.250328" lon="120.088569">
				<speed>0.000000</speed>
				<ele>118.000000</ele>
				<time>2026-08-17T04:44:07Z</time>
			</trkpt>
			<trkpt lat="30.250333" lon="120.088563">
				<speed>0.000000</speed>
				<ele>118.000000</ele>
				<time>2026-08-17T04:44:08Z</time>
			</trkpt>
			<trkpt lat="30.250348" lon="120.088545">
				<speed>0.000000</speed>
				<ele>118.000000</ele>
				<time>2026-08-17T04:44:09Z</time>
			</trkpt>
			<trkpt lat="30.250353" lon="120.088540">
				<speed>0.000000</speed>
				<ele>118.000000</ele>
				<time>2026-08-17T04:44:10Z</time>
			</trkpt>
			<trkpt lat="30.250359" lon="120.088533">
				<speed>0.000000</speed>
				<ele>118.000000</ele>
				<time>2026-08-17T04:44:11Z</time>
			</trkpt>
			<trkpt lat="30.250364" lon="120.088528">
				<speed>0.000000</speed>
				<ele>118.000000</ele>
				<time>2026-08-17T04:44:12Z</time>
			</trkpt>
			<trkpt lat="30.250378" lon="120.088508">
				<speed>0.000000</speed>
				<ele>118.000000</ele>
				<time>2026-08-17T04:44:13Z</time>
			</trkpt>
			<trkpt lat="30.250382" lon="120.088500">
				<speed>0.000000</speed>
				<ele>117.000000</ele>
				<time>2026-08-17T04:44:14Z</time>
			</trkpt>
			<trkpt lat="30.250387" lon="120.088493">
				<speed>0.000000</speed>
				<ele>117.000000</ele>
				<time>2026-08-17T04:44:15Z</time>
			</trkpt>
			<trkpt lat="30.250391" lon="120.088485">
				<speed>0.000000</speed>
				<ele>117.000000</ele>
				<time>2026-08-17T04:44:16Z</time>
			</trkpt>
			<trkpt lat="30.250402" lon="120.088460">
				<speed>0.000000</speed>
				<ele>117.000000</ele>
				<time>2026-08-17T04:44:17Z</time>
			</trkpt>
			<trkpt lat="30.250406" lon="120.088452">
				<speed>0.000000</speed>
				<ele>117.000000</ele>
				<time>2026-08-17T04:44:18Z</time>
			</trkpt>
			<trkpt lat="30.250410" lon="120.088444">
				<speed>0.000000</speed>
				<ele>117.000000</ele>
				<time>2026-08-17T04:44:19Z</time>
			</trkpt>
			<trkpt lat="30.250413" lon="120.088436">
				<speed>0.000000</speed>
				<ele>117.000000</ele>
				<time>2026-08-17T04:44:20Z</time>
			</trkpt>
			<trkpt lat="30.250426" lon="120.088413">
				<speed>0.000000</speed>
				<ele>117.000000</ele>
				<time>2026-08-17T04:44:21Z</time>
			</trkpt>
			<trkpt lat="30.250431" lon="120.088408">
				<speed>0.000000</speed>
				<ele>116.000000</ele>
				<time>2026-08-17T04:44:22Z</time>
			</trkpt>
			<trkpt lat="30.250436" lon="120.088402">
				<speed>0.000000</speed>
				<ele>116.000000</ele>
				<time>2026-08-17T04:44:23Z</time>
			</trkpt>
			<trkpt lat="30.250441" lon="120.088396">
				<speed>0.000000</speed>
				<ele>116.000000</ele>
				<time>2026-08-17T04:44:24Z</time>
			</trkpt>
			<trkpt lat="30.250460" lon="120.088383">
				<speed>0.000000</speed>
				<ele>116.000000</ele>
				<time>2026-08-17T04:44:25Z</time>
			</trkpt>
			<trkpt lat="30.250466" lon="120.088380">
				<speed>0.000000</speed>
				<ele>116.000000</ele>
				<time>2026-08-17T04:44:26Z</time>
			</trkpt>
			<trkpt lat="30.250472" lon="120.088378">
				<speed>0.000000</speed>
				<ele>116.000000</ele>
				<time>2026-08-17T04:44:27Z</time>
			</trkpt>
			<trkpt lat="30.250479" lon="120.088375">
				<speed>0.000000</speed>
				<ele>116.000000</ele>
				<time>2026-08-17T04:44:28Z</time>
			</trkpt>
			<trkpt lat="30.250501" lon="120.088369">
				<speed>0.000000</speed>
				<ele>116.000000</ele>
				<time>2026-08-17T04:44:29Z</time>
			</trkpt>
			<trkpt lat="30.250509" lon="120.088367">
				<speed>0.000000</speed>
				<ele>115.000000</ele>
				<time>2026-08-17T04:44:30Z</time>
			</trkpt>
			<trkpt lat="30.250518" lon="120.088365">
				<speed>0.000000</speed>
				<ele>115.000000</ele>
				<time>2026-08-17T04:44:31Z</time>
			</trkpt>
			<trkpt lat="30.250526" lon="120.088363">
				<speed>0.000000</speed>
				<ele>115.000000</ele>
				<time>2026-08-17T04:44:32Z</time>
			</trkpt>
			<trkpt lat="30.250552" lon="120.088363">
				<speed>0.000000</speed>
				<ele>115.000000</ele>
				<time>2026-08-17T04:44:33Z</time>
			</trkpt>
			<trkpt lat="30.250561" lon="120.088364">
				<speed>0.000000</speed>
				<ele>114.000000</ele>
				<time>2026-08-17T04:44:34Z</time>
			</trkpt>
			<trkpt lat="30.250569" lon="120.088365">
				<speed>0.000000</speed>
				<ele>114.000000</ele>
				<time>2026-08-17T04:44:35Z</time>
			</trkpt>
			<trkpt lat="30.250577" lon="120.088366">
				<speed>0.000000</speed>
				<ele>114.000000</ele>
				<time>2026-08-17T04:44:36Z</time>
			</trkpt>
			<trkpt lat="30.250604" lon="120.088368">
				<speed>0.000000</speed>
				<ele>114.000000</ele>
				<time>2026-08-17T04:44:37Z</time>
			</trkpt>
			<trkpt lat="30.250613" lon="120.088368">
				<speed>0.000000</speed>
				<ele>114.000000</ele>
				<time>2026-08-17T04:44:38Z</time>
			</trkpt>
			<trkpt lat="30.250622" lon="120.088367">
				<speed>0.000000</speed>
				<ele>114.000000</ele>
				<time>2026-08-17T04:44:39Z</time>
			</trkpt>
			<trkpt lat="30.250632" lon="120.088367">
				<speed>0.000000</speed>
				<ele>114.000000</ele>
				<time>2026-08-17T04:44:40Z</time>
			</trkpt>
			<trkpt lat="30.250662" lon="120.088366">
				<speed>0.000000</speed>
				<ele>114.000000</ele>
				<time>2026-08-17T04:44:41Z</time>
			</trkpt>
			<trkpt lat="30.250672" lon="120.088365">
				<speed>0.000000</speed>
				<ele>113.000000</ele>
				<time>2026-08-17T04:44:42Z</time>
			</trkpt>
			<trkpt lat="30.250682" lon="120.088365">
				<speed>0.000000</speed>
				<ele>113.000000</ele>
				<time>2026-08-17T04:44:43Z</time>
			</trkpt>
			<trkpt lat="30.250692" lon="120.088365">
				<speed>0.000000</speed>
				<ele>113.000000</ele>
				<time>2026-08-17T04:44:44Z</time>
			</trkpt>
			<trkpt lat="30.250722" lon="120.088362">
				<speed>0.000000</speed>
				<ele>113.000000</ele>
				<time>2026-08-17T04:44:45Z</time>
			</trkpt>
			<trkpt lat="30.250732" lon="120.088360">
				<speed>0.000000</speed>
				<ele>112.000000</ele>
				<time>2026-08-17T04:44:46Z</time>
			</trkpt>
			<trkpt lat="30.250742" lon="120.088359">
				<speed>0.000000</speed>
				<ele>112.000000</ele>
				<time>2026-08-17T04:44:47Z</time>
			</trkpt>
			<trkpt lat="30.250751" lon="120.088358">
				<speed>0.000000</speed>
				<ele>112.000000</ele>
				<time>2026-08-17T04:44:48Z</time>
			</trkpt>
			<trkpt lat="30.250779" lon="120.088353">
				<speed>0.000000</speed>
				<ele>112.000000</ele>
				<time>2026-08-17T04:44:49Z</time>
			</trkpt>
			<trkpt lat="30.250789" lon="120.088351">
				<speed>0.000000</speed>
				<ele>111.000000</ele>
				<time>2026-08-17T04:44:50Z</time>
			</trkpt>
			<trkpt lat="30.250798" lon="120.088350">
				<speed>0.000000</speed>
				<ele>111.000000</ele>
				<time>2026-08-17T04:44:51Z</time>
			</trkpt>
			<trkpt lat="30.250807" lon="120.088349">
				<speed>0.000000</speed>
				<ele>111.000000</ele>
				<time>2026-08-17T04:44:52Z</time>
			</trkpt>
			<trkpt lat="30.250836" lon="120.088348">
				<speed>0.000000</speed>
				<ele>111.000000</ele>
				<time>2026-08-17T04:44:53Z</time>
			</trkpt>
			<trkpt lat="30.250846" lon="120.088348">
				<speed>0.000000</speed>
				<ele>110.000000</ele>
				<time>2026-08-17T04:44:54Z</time>
			</trkpt>
			<trkpt lat="30.250856" lon="120.088348">
				<speed>0.000000</speed>
				<ele>110.000000</ele>
				<time>2026-08-17T04:44:55Z</time>
			</trkpt>
			<trkpt lat="30.250865" lon="120.088348">
				<speed>0.000000</speed>
				<ele>110.000000</ele>
				<time>2026-08-17T04:44:56Z</time>
			</trkpt>
			<trkpt lat="30.250893" lon="120.088348">
				<speed>0.000000</speed>
				<ele>110.000000</ele>
				<time>2026-08-17T04:44:57Z</time>
			</trkpt>
			<trkpt lat="30.250901" lon="120.088347">
				<speed>0.000000</speed>
				<ele>109.000000</ele>
				<time>2026-08-17T04:44:58Z</time>
			</trkpt>
			<trkpt lat="30.250908" lon="120.088346">
				<speed>0.000000</speed>
				<ele>109.000000</ele>
				<time>2026-08-17T04:44:59Z</time>
			</trkpt>
			<trkpt lat="30.250916" lon="120.088345">
				<speed>0.000000</speed>
				<ele>109.000000</ele>
				<time>2026-08-17T04:45:00Z</time>
			</trkpt>
			<trkpt lat="30.250936" lon="120.088336">
				<speed>0.000000</speed>
				<ele>109.000000</ele>
				<time>2026-08-17T04:45:01Z</time>
			</trkpt>
			<trkpt lat="30.250943" lon="120.088333">
				<speed>0.000000</speed>
				<ele>109.000000</ele>
				<time>2026-08-17T04:45:02Z</time>
			</trkpt>
			<trkpt lat="30.250949" lon="120.088329">
				<speed>0.000000</speed>
				<ele>109.000000</ele>
				<time>2026-08-17T04:45:03Z</time>
			</trkpt>
			<trkpt lat="30.250955" lon="120.088326">
				<speed>0.000000</speed>
				<ele>109.000000</ele>
				<time>2026-08-17T04:45:04Z</time>
			</trkpt>
			<trkpt lat="30.250977" lon="120.088319">
				<speed>0.000000</speed>
				<ele>109.000000</ele>
				<time>2026-08-17T04:45:05Z</time>
			</trkpt>
			<trkpt lat="30.250985" lon="120.088318">
				<speed>0.000000</speed>
				<ele>108.000000</ele>
				<time>2026-08-17T04:45:06Z</time>
			</trkpt>
			<trkpt lat="30.250993" lon="120.088316">
				<speed>0.000000</speed>
				<ele>108.000000</ele>
				<time>2026-08-17T04:45:07Z</time>
			</trkpt>
			<trkpt lat="30.251001" lon="120.088315">
				<speed>0.000000</speed>
				<ele>108.000000</ele>
				<time>2026-08-17T04:45:08Z</time>
			</trkpt>
			<trkpt lat="30.251029" lon="120.088312">
				<speed>0.000000</speed>
				<ele>108.000000</ele>
				<time>2026-08-17T04:45:09Z</time>
			</trkpt>
			<trkpt lat="30.251038" lon="120.088311">
				<speed>0.000000</speed>
				<ele>107.000000</ele>
				<time>2026-08-17T04:45:10Z</time>
			</trkpt>
			<trkpt lat="30.251048" lon="120.088310">
				<speed>0.000000</speed>
				<ele>107.000000</ele>
				<time>2026-08-17T04:45:11Z</time>
			</trkpt>
			<trkpt lat="30.251058" lon="120.088310">
				<speed>0.000000</speed>
				<ele>107.000000</ele>
				<time>2026-08-17T04:45:12Z</time>
			</trkpt>
			<trkpt lat="30.251088" lon="120.088307">
				<speed>0.000000</speed>
				<ele>107.000000</ele>
				<time>2026-08-17T04:45:13Z</time>
			</trkpt>
			<trkpt lat="30.251098" lon="120.088307">
				<speed>0.000000</speed>
				<ele>107.000000</ele>
				<time>2026-08-17T04:45:14Z</time>
			</trkpt>
			<trkpt lat="30.251108" lon="120.088306">
				<speed>0.000000</speed>
				<ele>107.000000</ele>
				<time>2026-08-17T04:45:15Z</time>
			</trkpt>
			<trkpt lat="30.251118" lon="120.088306">
				<speed>0.000000</speed>
				<ele>107.000000</ele>
				<time>2026-08-17T04:45:16Z</time>
			</trkpt>
			<trkpt lat="30.251149" lon="120.088308">
				<speed>0.000000</speed>
				<ele>107.000000</ele>
				<time>2026-08-17T04:45:17Z</time>
			</trkpt>
			<trkpt lat="30.251159" lon="120.088309">
				<speed>0.000000</speed>
				<ele>106.000000</ele>
				<time>2026-08-17T04:45:18Z</time>
			</trkpt>
			<trkpt lat="30.251169" lon="120.088310">
				<speed>0.000000</speed>
				<ele>106.000000</ele>
				<time>2026-08-17T04:45:19Z</time>
			</trkpt>
			<trkpt lat="30.251180" lon="120.088312">
				<speed>0.000000</speed>
				<ele>106.000000</ele>
				<time>2026-08-17T04:45:20Z</time>
			</trkpt>
			<trkpt lat="30.251209" lon="120.088314">
				<speed>0.000000</speed>
				<ele>106.000000</ele>
				<time>2026-08-17T04:45:21Z</time>
			</trkpt>
			<trkpt lat="30.251218" lon="120.088315">
				<speed>0.000000</speed>
				<ele>106.000000</ele>
				<time>2026-08-17T04:45:22Z</time>
			</trkpt>
			<trkpt lat="30.251227" lon="120.088315">
				<speed>0.000000</speed>
				<ele>106.000000</ele>
				<time>2026-08-17T04:45:23Z</time>
			</trkpt>
			<trkpt lat="30.251237" lon="120.088316">
				<speed>0.000000</speed>
				<ele>106.000000</ele>
				<time>2026-08-17T04:45:24Z</time>
			</trkpt>
			<trkpt lat="30.251263" lon="120.088318">
				<speed>0.000000</speed>
				<ele>106.000000</ele>
				<time>2026-08-17T04:45:25Z</time>
			</trkpt>
			<trkpt lat="30.251272" lon="120.088320">
				<speed>0.000000</speed>
				<ele>105.000000</ele>
				<time>2026-08-17T04:45:26Z</time>
			</trkpt>
			<trkpt lat="30.251281" lon="120.088322">
				<speed>0.000000</speed>
				<ele>105.000000</ele>
				<time>2026-08-17T04:45:27Z</time>
			</trkpt>
			<trkpt lat="30.251290" lon="120.088324">
				<speed>0.000000</speed>
				<ele>105.000000</ele>
				<time>2026-08-17T04:45:28Z</time>
			</trkpt>
			<trkpt lat="30.251319" lon="120.088331">
				<speed>0.000000</speed>
				<ele>105.000000</ele>
				<time>2026-08-17T04:45:29Z</time>
			</trkpt>
			<trkpt lat="30.251328" lon="120.088334">
				<speed>0.000000</speed>
				<ele>104.000000</ele>
				<time>2026-08-17T04:45:30Z</time>
			</trkpt>
			<trkpt lat="30.251337" lon="120.088337">
				<speed>0.000000</speed>
				<ele>104.000000</ele>
				<time>2026-08-17T04:45:31Z</time>
			</trkpt>
			<trkpt lat="30.251346" lon="120.088339">
				<speed>0.000000</speed>
				<ele>104.000000</ele>
				<time>2026-08-17T04:45:32Z</time>
			</trkpt>
			<trkpt lat="30.251372" lon="120.088349">
				<speed>0.000000</speed>
				<ele>104.000000</ele>
				<time>2026-08-17T04:45:33Z</time>
			</trkpt>
			<trkpt lat="30.251381" lon="120.088352">
				<speed>0.000000</speed>
				<ele>103.000000</ele>
				<time>2026-08-17T04:45:34Z</time>
			</trkpt>
			<trkpt lat="30.251390" lon="120.088355">
				<speed>0.000000</speed>
				<ele>103.000000</ele>
				<time>2026-08-17T04:45:35Z</time>
			</trkpt>
			<trkpt lat="30.251399" lon="120.088358">
				<speed>0.000000</speed>
				<ele>103.000000</ele>
				<time>2026-08-17T04:45:36Z</time>
			</trkpt>
			<trkpt lat="30.251425" lon="120.088368">
				<speed>0.000000</speed>
				<ele>103.000000</ele>
				<time>2026-08-17T04:45:37Z</time>
			</trkpt>
			<trkpt lat="30.251434" lon="120.088371">
				<speed>0.000000</speed>
				<ele>102.000000</ele>
				<time>2026-08-17T04:45:38Z</time>
			</trkpt>
			<trkpt lat="30.251443" lon="120.088375">
				<speed>0.000000</speed>
				<ele>102.000000</ele>
				<time>2026-08-17T04:45:39Z</time>
			</trkpt>
			<trkpt lat="30.251452" lon="120.088378">
				<speed>0.000000</speed>
				<ele>102.000000</ele>
				<time>2026-08-17T04:45:40Z</time>
			</trkpt>
			<trkpt lat="30.251479" lon="120.088387">
				<speed>0.000000</speed>
				<ele>102.000000</ele>
				<time>2026-08-17T04:45:41Z</time>
			</trkpt>
			<trkpt lat="30.251487" lon="120.088390">
				<speed>0.000000</speed>
				<ele>102.000000</ele>
				<time>2026-08-17T04:45:42Z</time>
			</trkpt>
			<trkpt lat="30.251496" lon="120.088393">
				<speed>0.000000</speed>
				<ele>102.000000</ele>
				<time>2026-08-17T04:45:43Z</time>
			</trkpt>
			<trkpt lat="30.251505" lon="120.088396">
				<speed>0.000000</speed>
				<ele>102.000000</ele>
				<time>2026-08-17T04:45:44Z</time>
			</trkpt>
			<trkpt lat="30.251529" lon="120.088403">
				<speed>0.000000</speed>
				<ele>102.000000</ele>
				<time>2026-08-17T04:45:45Z</time>
			</trkpt>
			<trkpt lat="30.251537" lon="120.088404">
				<speed>0.000000</speed>
				<ele>101.000000</ele>
				<time>2026-08-17T04:45:46Z</time>
			</trkpt>
			<trkpt lat="30.251545" lon="120.088406">
				<speed>0.000000</speed>
				<ele>101.000000</ele>
				<time>2026-08-17T04:45:47Z</time>
			</trkpt>
			<trkpt lat="30.251554" lon="120.088407">
				<speed>0.000000</speed>
				<ele>101.000000</ele>
				<time>2026-08-17T04:45:48Z</time>
			</trkpt>
			<trkpt lat="30.251579" lon="120.088409">
				<speed>0.000000</speed>
				<ele>101.000000</ele>
				<time>2026-08-17T04:45:49Z</time>
			</trkpt>
			<trkpt lat="30.251588" lon="120.088410">
				<speed>0.000000</speed>
				<ele>100.000000</ele>
				<time>2026-08-17T04:45:50Z</time>
			</trkpt>
			<trkpt lat="30.251597" lon="120.088412">
				<speed>0.000000</speed>
				<ele>100.000000</ele>
				<time>2026-08-17T04:45:51Z</time>
			</trkpt>
			<trkpt lat="30.251606" lon="120.088413">
				<speed>0.000000</speed>
				<ele>100.000000</ele>
				<time>2026-08-17T04:45:52Z</time>
			</trkpt>
			<trkpt lat="30.251633" lon="120.088420">
				<speed>0.000000</speed>
				<ele>100.000000</ele>
				<time>2026-08-17T04:45:53Z</time>
			</trkpt>
			<trkpt lat="30.251641" lon="120.088422">
				<speed>0.000000</speed>
				<ele>99.000000</ele>
				<time>2026-08-17T04:45:54Z</time>
			</trkpt>
			<trkpt lat="30.251650" lon="120.088425">
				<speed>0.000000</speed>
				<ele>99.000000</ele>
				<time>2026-08-17T04:45:55Z</time>
			</trkpt>
			<trkpt lat="30.251658" lon="120.088427">
				<speed>0.000000</speed>
				<ele>99.000000</ele>
				<time>2026-08-17T04:45:56Z</time>
			</trkpt>
			<trkpt lat="30.251684" lon="120.088430">
				<speed>0.000000</speed>
				<ele>99.000000</ele>
				<time>2026-08-17T04:45:57Z</time>
			</trkpt>
			<trkpt lat="30.251693" lon="120.088430">
				<speed>0.000000</speed>
				<ele>99.000000</ele>
				<time>2026-08-17T04:45:58Z</time>
			</trkpt>
			<trkpt lat="30.251702" lon="120.088431">
				<speed>0.000000</speed>
				<ele>99.000000</ele>
				<time>2026-08-17T04:45:59Z</time>
			</trkpt>
			<trkpt lat="30.251711" lon="120.088432">
				<speed>0.000000</speed>
				<ele>99.000000</ele>
				<time>2026-08-17T04:46:00Z</time>
			</trkpt>
			<trkpt lat="30.251740" lon="120.088437">
				<speed>0.000000</speed>
				<ele>99.000000</ele>
				<time>2026-08-17T04:46:01Z</time>
			</trkpt>
			<trkpt lat="30.251751" lon="120.088439">
				<speed>0.000000</speed>
				<ele>98.000000</ele>
				<time>2026-08-17T04:46:02Z</time>
			</trkpt>
			<trkpt lat="30.251762" lon="120.088441">
				<speed>0.000000</speed>
				<ele>98.000000</ele>
				<time>2026-08-17T04:46:03Z</time>
			</trkpt>
			<trkpt lat="30.251773" lon="120.088444">
				<speed>0.000000</speed>
				<ele>98.000000</ele>
				<time>2026-08-17T04:46:04Z</time>
			</trkpt>
			<trkpt lat="30.251808" lon="120.088451">
				<speed>0.000000</speed>
				<ele>98.000000</ele>
				<time>2026-08-17T04:46:05Z</time>
			</trkpt>
			<trkpt lat="30.251820" lon="120.088452">
				<speed>0.000000</speed>
				<ele>97.000000</ele>
				<time>2026-08-17T04:46:06Z</time>
			</trkpt>
			<trkpt lat="30.251831" lon="120.088453">
				<speed>0.000000</speed>
				<ele>97.000000</ele>
				<time>2026-08-17T04:46:07Z</time>
			</trkpt>
			<trkpt lat="30.251842" lon="120.088455">
				<speed>0.000000</speed>
				<ele>97.000000</ele>
				<time>2026-08-17T04:46:08Z</time>
			</trkpt>
			<trkpt lat="30.251874" lon="120.088457">
				<speed>0.000000</speed>
				<ele>97.000000</ele>
				<time>2026-08-17T04:46:09Z</time>
			</trkpt>
			<trkpt lat="30.251885" lon="120.088458">
				<speed>0.000000</speed>
				<ele>97.000000</ele>
				<time>2026-08-17T04:46:10Z</time>
			</trkpt>
			<trkpt lat="30.251897" lon="120.088460">
				<speed>0.000000</speed>
				<ele>97.000000</ele>
				<time>2026-08-17T04:46:11Z</time>
			</trkpt>
			<trkpt lat="30.251908" lon="120.088461">
				<speed>0.000000</speed>
				<ele>97.000000</ele>
				<time>2026-08-17T04:46:12Z</time>
			</trkpt>
			<trkpt lat="30.251944" lon="120.088474">
				<speed>0.000000</speed>
				<ele>97.000000</ele>
				<time>2026-08-17T04:46:13Z</time>
			</trkpt>
			<trkpt lat="30.251958" lon="120.088482">
				<speed>0.000000</speed>
				<ele>96.000000</ele>
				<time>2026-08-17T04:46:14Z</time>
			</trkpt>
			<trkpt lat="30.251972" lon="120.088490">
				<speed>0.000000</speed>
				<ele>96.000000</ele>
				<time>2026-08-17T04:46:15Z</time>
			</trkpt>
			<trkpt lat="30.251986" lon="120.088497">
				<speed>0.000000</speed>
				<ele>96.000000</ele>
				<time>2026-08-17T04:46:16Z</time>
			</trkpt>
			<trkpt lat="30.252031" lon="120.088527">
				<speed>0.000000</speed>
				<ele>96.000000</ele>
				<time>2026-08-17T04:46:17Z</time>
			</trkpt>
			<trkpt lat="30.252048" lon="120.088538">
				<speed>0.000000</speed>
				<ele>95.000000</ele>
				<time>2026-08-17T04:46:18Z</time>
			</trkpt>
			<trkpt lat="30.252064" lon="120.088549">
				<speed>0.000000</speed>
				<ele>95.000000</ele>
				<time>2026-08-17T04:46:19Z</time>
			</trkpt>
			<trkpt lat="30.252081" lon="120.088560">
				<speed>0.000000</speed>
				<ele>95.000000</ele>
				<time>2026-08-17T04:46:20Z</time>
			</trkpt>
			<trkpt lat="30.252130" lon="120.088594">
				<speed>0.000000</speed>
				<ele>95.000000</ele>
				<time>2026-08-17T04:46:21Z</time>
			</trkpt>
			<trkpt lat="30.252146" lon="120.088605">
				<speed>0.000000</speed>
				<ele>95.000000</ele>
				<time>2026-08-17T04:46:22Z</time>
			</trkpt>
			<trkpt lat="30.252162" lon="120.088616">
				<speed>0.000000</speed>
				<ele>95.000000</ele>
				<time>2026-08-17T04:46:23Z</time>
			</trkpt>
			<trkpt lat="30.252178" lon="120.088627">
				<speed>0.000000</speed>
				<ele>95.000000</ele>
				<time>2026-08-17T04:46:24Z</time>
			</trkpt>
			<trkpt lat="30.252226" lon="120.088657">
				<speed>0.000000</speed>
				<ele>95.000000</ele>
				<time>2026-08-17T04:46:25Z</time>
			</trkpt>
			<trkpt lat="30.252243" lon="120.088665">
				<speed>0.000000</speed>
				<ele>94.000000</ele>
				<time>2026-08-17T04:46:26Z</time>
			</trkpt>
			<trkpt lat="30.252260" lon="120.088674">
				<speed>0.000000</speed>
				<ele>94.000000</ele>
				<time>2026-08-17T04:46:27Z</time>
			</trkpt>
			<trkpt lat="30.252277" lon="120.088682">
				<speed>0.000000</speed>
				<ele>94.000000</ele>
				<time>2026-08-17T04:46:28Z</time>
			</trkpt>
			<trkpt lat="30.252329" lon="120.088702">
				<speed>0.000000</speed>
				<ele>94.000000</ele>
				<time>2026-08-17T04:46:29Z</time>
			</trkpt>
			<trkpt lat="30.252346" lon="120.088707">
				<speed>0.000000</speed>
				<ele>93.000000</ele>
				<time>2026-08-17T04:46:30Z</time>
			</trkpt>
			<trkpt lat="30.252363" lon="120.088712">
				<speed>0.000000</speed>
				<ele>93.000000</ele>
				<time>2026-08-17T04:46:31Z</time>
			</trkpt>
			<trkpt lat="30.252380" lon="120.088717">
				<speed>0.000000</speed>
				<ele>93.000000</ele>
				<time>2026-08-17T04:46:32Z</time>
			</trkpt>
			<trkpt lat="30.252427" lon="120.088729">
				<speed>0.000000</speed>
				<ele>93.000000</ele>
				<time>2026-08-17T04:46:33Z</time>
			</trkpt>
			<trkpt lat="30.252443" lon="120.088734">
				<speed>0.000000</speed>
				<ele>93.000000</ele>
				<time>2026-08-17T04:46:34Z</time>
			</trkpt>
			<trkpt lat="30.252458" lon="120.088738">
				<speed>0.000000</speed>
				<ele>93.000000</ele>
				<time>2026-08-17T04:46:35Z</time>
			</trkpt>
			<trkpt lat="30.252474" lon="120.088742">
				<speed>0.000000</speed>
				<ele>93.000000</ele>
				<time>2026-08-17T04:46:36Z</time>
			</trkpt>
			<trkpt lat="30.252521" lon="120.088756">
				<speed>0.000000</speed>
				<ele>93.000000</ele>
				<time>2026-08-17T04:46:37Z</time>
			</trkpt>
			<trkpt lat="30.252538" lon="120.088760">
				<speed>0.000000</speed>
				<ele>92.000000</ele>
				<time>2026-08-17T04:46:38Z</time>
			</trkpt>
			<trkpt lat="30.252555" lon="120.088764">
				<speed>0.000000</speed>
				<ele>92.000000</ele>
				<time>2026-08-17T04:46:39Z</time>
			</trkpt>
			<trkpt lat="30.252572" lon="120.088769">
				<speed>0.000000</speed>
				<ele>92.000000</ele>
				<time>2026-08-17T04:46:40Z</time>
			</trkpt>
			<trkpt lat="30.252624" lon="120.088781">
				<speed>0.000000</speed>
				<ele>92.000000</ele>
				<time>2026-08-17T04:46:41Z</time>
			</trkpt>
			<trkpt lat="30.252642" lon="120.088784">
				<speed>0.000000</speed>
				<ele>92.000000</ele>
				<time>2026-08-17T04:46:42Z</time>
			</trkpt>
			<trkpt lat="30.252660" lon="120.088787">
				<speed>0.000000</speed>
				<ele>92.000000</ele>
				<time>2026-08-17T04:46:43Z</time>
			</trkpt>
			<trkpt lat="30.252678" lon="120.088791">
				<speed>0.000000</speed>
				<ele>92.000000</ele>
				<time>2026-08-17T04:46:44Z</time>
			</trkpt>
			<trkpt lat="30.252732" lon="120.088803">
				<speed>0.000000</speed>
				<ele>92.000000</ele>
				<time>2026-08-17T04:46:45Z</time>
			</trkpt>
			<trkpt lat="30.252750" lon="120.088806">
				<speed>0.000000</speed>
				<ele>91.000000</ele>
				<time>2026-08-17T04:46:46Z</time>
			</trkpt>
			<trkpt lat="30.252767" lon="120.088810">
				<speed>0.000000</speed>
				<ele>91.000000</ele>
				<time>2026-08-17T04:46:47Z</time>
			</trkpt>
			<trkpt lat="30.252785" lon="120.088813">
				<speed>0.000000</speed>
				<ele>91.000000</ele>
				<time>2026-08-17T04:46:48Z</time>
			</trkpt>
			<trkpt lat="30.252835" lon="120.088820">
				<speed>0.000000</speed>
				<ele>91.000000</ele>
				<time>2026-08-17T04:46:49Z</time>
			</trkpt>
			<trkpt lat="30.252852" lon="120.088822">
				<speed>0.000000</speed>
				<ele>91.000000</ele>
				<time>2026-08-17T04:46:50Z</time>
			</trkpt>
			<trkpt lat="30.252868" lon="120.088824">
				<speed>0.000000</speed>
				<ele>91.000000</ele>
				<time>2026-08-17T04:46:51Z</time>
			</trkpt>
			<trkpt lat="30.252885" lon="120.088827">
				<speed>0.000000</speed>
				<ele>91.000000</ele>
				<time>2026-08-17T04:46:52Z</time>
			</trkpt>
			<trkpt lat="30.252935" lon="120.088837">
				<speed>0.000000</speed>
				<ele>91.000000</ele>
				<time>2026-08-17T04:46:53Z</time>
			</trkpt>
			<trkpt lat="30.252951" lon="120.088842">
				<speed>0.000000</speed>
				<ele>90.000000</ele>
				<time>2026-08-17T04:46:54Z</time>
			</trkpt>
			<trkpt lat="30.252967" lon="120.088846">
				<speed>0.000000</speed>
				<ele>90.000000</ele>
				<time>2026-08-17T04:46:55Z</time>
			</trkpt>
			<trkpt lat="30.252983" lon="120.088851">
				<speed>0.000000</speed>
				<ele>90.000000</ele>
				<time>2026-08-17T04:46:56Z</time>
			</trkpt>
			<trkpt lat="30.253033" lon="120.088868">
				<speed>0.000000</speed>
				<ele>90.000000</ele>
				<time>2026-08-17T04:46:57Z</time>
			</trkpt>
			<trkpt lat="30.253049" lon="120.088874">
				<speed>0.000000</speed>
				<ele>90.000000</ele>
				<time>2026-08-17T04:46:58Z</time>
			</trkpt>
			<trkpt lat="30.253066" lon="120.088880">
				<speed>0.000000</speed>
				<ele>90.000000</ele>
				<time>2026-08-17T04:46:59Z</time>
			</trkpt>
			<trkpt lat="30.253082" lon="120.088886">
				<speed>0.000000</speed>
				<ele>90.000000</ele>
				<time>2026-08-17T04:47:00Z</time>
			</trkpt>
			<trkpt lat="30.253131" lon="120.088904">
				<speed>0.000000</speed>
				<ele>90.000000</ele>
				<time>2026-08-17T04:47:01Z</time>
			</trkpt>
			<trkpt lat="30.253147" lon="120.088909">
				<speed>0.000000</speed>
				<ele>89.000000</ele>
				<time>2026-08-17T04:47:02Z</time>
			</trkpt>
			<trkpt lat="30.253162" lon="120.088914">
				<speed>0.000000</speed>
				<ele>89.000000</ele>
				<time>2026-08-17T04:47:03Z</time>
			</trkpt>
			<trkpt lat="30.253178" lon="120.088919">
				<speed>0.000000</speed>
				<ele>89.000000</ele>
				<time>2026-08-17T04:47:04Z</time>
			</trkpt>
			<trkpt lat="30.253222" lon="120.088934">
				<speed>0.000000</speed>
				<ele>89.000000</ele>
				<time>2026-08-17T04:47:05Z</time>
			</trkpt>
			<trkpt lat="30.253236" lon="120.088938">
				<speed>0.000000</speed>
				<ele>88.000000</ele>
				<time>2026-08-17T04:47:06Z</time>
			</trkpt>
			<trkpt lat="30.253251" lon="120.088943">
				<speed>0.000000</speed>
				<ele>88.000000</ele>
				<time>2026-08-17T04:47:07Z</time>
			</trkpt>
			<trkpt lat="30.253265" lon="120.088947">
				<speed>0.000000</speed>
				<ele>88.000000</ele>
				<time>2026-08-17T04:47:08Z</time>
			</trkpt>
			<trkpt lat="30.253313" lon="120.088960">
				<speed>0.000000</speed>
				<ele>88.000000</ele>
				<time>2026-08-17T04:47:09Z</time>
			</trkpt>
			<trkpt lat="30.253330" lon="120.088962">
				<speed>0.000000</speed>
				<ele>88.000000</ele>
				<time>2026-08-17T04:47:10Z</time>
			</trkpt>
			<trkpt lat="30.253346" lon="120.088965">
				<speed>0.000000</speed>
				<ele>88.000000</ele>
				<time>2026-08-17T04:47:11Z</time>
			</trkpt>
			<trkpt lat="30.253363" lon="120.088968">
				<speed>0.000000</speed>
				<ele>88.000000</ele>
				<time>2026-08-17T04:47:12Z</time>
			</trkpt>
			<trkpt lat="30.253415" lon="120.088971">
				<speed>0.000000</speed>
				<ele>88.000000</ele>
				<time>2026-08-17T04:47:13Z</time>
			</trkpt>
			<trkpt lat="30.253432" lon="120.088971">
				<speed>0.000000</speed>
				<ele>88.000000</ele>
				<time>2026-08-17T04:47:14Z</time>
			</trkpt>
			<trkpt lat="30.253450" lon="120.088971">
				<speed>0.000000</speed>
				<ele>88.000000</ele>
				<time>2026-08-17T04:47:15Z</time>
			</trkpt>
			<trkpt lat="30.253467" lon="120.088970">
				<speed>0.000000</speed>
				<ele>88.000000</ele>
				<time>2026-08-17T04:47:16Z</time>
			</trkpt>
			<trkpt lat="30.253520" lon="120.088969">
				<speed>0.000000</speed>
				<ele>88.000000</ele>
				<time>2026-08-17T04:47:17Z</time>
			</trkpt>
			<trkpt lat="30.253537" lon="120.088970">
				<speed>0.000000</speed>
				<ele>87.000000</ele>
				<time>2026-08-17T04:47:18Z</time>
			</trkpt>
			<trkpt lat="30.253554" lon="120.088971">
				<speed>0.000000</speed>
				<ele>87.000000</ele>
				<time>2026-08-17T04:47:19Z</time>
			</trkpt>
			<trkpt lat="30.253572" lon="120.088972">
				<speed>0.000000</speed>
				<ele>87.000000</ele>
				<time>2026-08-17T04:47:20Z</time>
			</trkpt>
			<trkpt lat="30.253622" lon="120.088977">
				<speed>0.000000</speed>
				<ele>87.000000</ele>
				<time>2026-08-17T04:47:21Z</time>
			</trkpt>
			<trkpt lat="30.253637" lon="120.088977">
				<speed>0.000000</speed>
				<ele>87.000000</ele>
				<time>2026-08-17T04:47:22Z</time>
			</trkpt>
			<trkpt lat="30.253652" lon="120.088977">
				<speed>0.000000</speed>
				<ele>87.000000</ele>
				<time>2026-08-17T04:47:23Z</time>
			</trkpt>
			<trkpt lat="30.253667" lon="120.088978">
				<speed>0.000000</speed>
				<ele>87.000000</ele>
				<time>2026-08-17T04:47:24Z</time>
			</trkpt>
			<trkpt lat="30.253707" lon="120.088978">
				<speed>0.000000</speed>
				<ele>87.000000</ele>
				<time>2026-08-17T04:47:25Z</time>
			</trkpt>
			<trkpt lat="30.253720" lon="120.088978">
				<speed>0.000000</speed>
				<ele>87.000000</ele>
				<time>2026-08-17T04:47:26Z</time>
			</trkpt>
			<trkpt lat="30.253733" lon="120.088978">
				<speed>0.000000</speed>
				<ele>87.000000</ele>
				<time>2026-08-17T04:47:27Z</time>
			</trkpt>
			<trkpt lat="30.253746" lon="120.088979">
				<speed>0.000000</speed>
				<ele>87.000000</ele>
				<time>2026-08-17T04:47:28Z</time>
			</trkpt>
			<trkpt lat="30.253785" lon="120.088978">
				<speed>0.000000</speed>
				<ele>87.000000</ele>
				<time>2026-08-17T04:47:29Z</time>
			</trkpt>
			<trkpt lat="30.253798" lon="120.088977">
				<speed>0.000000</speed>
				<ele>86.000000</ele>
				<time>2026-08-17T04:47:30Z</time>
			</trkpt>
			<trkpt lat="30.253812" lon="120.088977">
				<speed>0.000000</speed>
				<ele>86.000000</ele>
				<time>2026-08-17T04:47:31Z</time>
			</trkpt>
			<trkpt lat="30.253826" lon="120.088976">
				<speed>0.000000</speed>
				<ele>86.000000</ele>
				<time>2026-08-17T04:47:32Z</time>
			</trkpt>
			<trkpt lat="30.253869" lon="120.088974">
				<speed>0.000000</speed>
				<ele>86.000000</ele>
				<time>2026-08-17T04:47:33Z</time>
			</trkpt>
			<trkpt lat="30.253883" lon="120.088974">
				<speed>0.000000</speed>
				<ele>86.000000</ele>
				<time>2026-08-17T04:47:34Z</time>
			</trkpt>
			<trkpt lat="30.253898" lon="120.088973">
				<speed>0.000000</speed>
				<ele>86.000000</ele>
				<time>2026-08-17T04:47:35Z</time>
			</trkpt>
			<trkpt lat="30.253912" lon="120.088972">
				<speed>0.000000</speed>
				<ele>86.000000</ele>
				<time>2026-08-17T04:47:36Z</time>
			</trkpt>
			<trkpt lat="30.253955" lon="120.088968">
				<speed>0.000000</speed>
				<ele>86.000000</ele>
				<time>2026-08-17T04:47:37Z</time>
			</trkpt>
			<trkpt lat="30.253969" lon="120.088966">
				<speed>0.000000</speed>
				<ele>86.000000</ele>
				<time>2026-08-17T04:47:38Z</time>
			</trkpt>
			<trkpt lat="30.253983" lon="120.088965">
				<speed>0.000000</speed>
				<ele>86.000000</ele>
				<time>2026-08-17T04:47:39Z</time>
			</trkpt>
			<trkpt lat="30.253997" lon="120.088963">
				<speed>0.000000</speed>
				<ele>86.000000</ele>
				<time>2026-08-17T04:47:40Z</time>
			</trkpt>
			<trkpt lat="30.254040" lon="120.088958">
				<speed>0.000000</speed>
				<ele>87.000000</ele>
				<time>2026-08-17T04:47:41Z</time>
			</trkpt>
			<trkpt lat="30.254054" lon="120.088956">
				<speed>0.000000</speed>
				<ele>87.000000</ele>
				<time>2026-08-17T04:47:42Z</time>
			</trkpt>
			<trkpt lat="30.254068" lon="120.088954">
				<speed>0.000000</speed>
				<ele>87.000000</ele>
				<time>2026-08-17T04:47:43Z</time>
			</trkpt>
			<trkpt lat="30.254082" lon="120.088952">
				<speed>0.000000</speed>
				<ele>87.000000</ele>
				<time>2026-08-17T04:47:44Z</time>
			</trkpt>
			<trkpt lat="30.254126" lon="120.088947">
				<speed>0.000000</speed>
				<ele>87.000000</ele>
				<time>2026-08-17T04:47:45Z</time>
			</trkpt>
			<trkpt lat="30.254141" lon="120.088945">
				<speed>0.000000</speed>
				<ele>87.000000</ele>
				<time>2026-08-17T04:47:46Z</time>
			</trkpt>
			<trkpt lat="30.254156" lon="120.088944">
				<speed>0.000000</speed>
				<ele>87.000000</ele>
				<time>2026-08-17T04:47:47Z</time>
			</trkpt>
			<trkpt lat="30.254171" lon="120.088943">
				<speed>0.000000</speed>
				<ele>87.000000</ele>
				<time>2026-08-17T04:47:48Z</time>
			</trkpt>
			<trkpt lat="30.254215" lon="120.088939">
				<speed>0.000000</speed>
				<ele>87.000000</ele>
				<time>2026-08-17T04:47:49Z</time>
			</trkpt>
			<trkpt lat="30.254229" lon="120.088937">
				<speed>0.000000</speed>
				<ele>87.000000</ele>
				<time>2026-08-17T04:47:50Z</time>
			</trkpt>
			<trkpt lat="30.254243" lon="120.088935">
				<speed>0.000000</speed>
				<ele>87.000000</ele>
				<time>2026-08-17T04:47:51Z</time>
			</trkpt>
			<trkpt lat="30.254257" lon="120.088933">
				<speed>0.000000</speed>
				<ele>87.000000</ele>
				<time>2026-08-17T04:47:52Z</time>
			</trkpt>
			<trkpt lat="30.254298" lon="120.088927">
				<speed>0.000000</speed>
				<ele>87.000000</ele>
				<time>2026-08-17T04:47:53Z</time>
			</trkpt>
			<trkpt lat="30.254312" lon="120.088925">
				<speed>0.000000</speed>
				<ele>87.000000</ele>
				<time>2026-08-17T04:47:54Z</time>
			</trkpt>
			<trkpt lat="30.254326" lon="120.088923">
				<speed>0.000000</speed>
				<ele>87.000000</ele>
				<time>2026-08-17T04:47:55Z</time>
			</trkpt>
			<trkpt lat="30.254339" lon="120.088921">
				<speed>0.000000</speed>
				<ele>87.000000</ele>
				<time>2026-08-17T04:47:56Z</time>
			</trkpt>
			<trkpt lat="30.254382" lon="120.088915">
				<speed>0.000000</speed>
				<ele>88.000000</ele>
				<time>2026-08-17T04:47:57Z</time>
			</trkpt>
			<trkpt lat="30.254397" lon="120.088914">
				<speed>0.000000</speed>
				<ele>88.000000</ele>
				<time>2026-08-17T04:47:58Z</time>
			</trkpt>
			<trkpt lat="30.254412" lon="120.088913">
				<speed>0.000000</speed>
				<ele>88.000000</ele>
				<time>2026-08-17T04:47:59Z</time>
			</trkpt>
			<trkpt lat="30.254427" lon="120.088911">
				<speed>0.000000</speed>
				<ele>88.000000</ele>
				<time>2026-08-17T04:48:00Z</time>
			</trkpt>
			<trkpt lat="30.254473" lon="120.088907">
				<speed>0.000000</speed>
				<ele>88.000000</ele>
				<time>2026-08-17T04:48:01Z</time>
			</trkpt>
			<trkpt lat="30.254488" lon="120.088904">
				<speed>0.000000</speed>
				<ele>88.000000</ele>
				<time>2026-08-17T04:48:02Z</time>
			</trkpt>
			<trkpt lat="30.254503" lon="120.088901">
				<speed>0.000000</speed>
				<ele>88.000000</ele>
				<time>2026-08-17T04:48:03Z</time>
			</trkpt>
			<trkpt lat="30.254518" lon="120.088898">
				<speed>0.000000</speed>
				<ele>88.000000</ele>
				<time>2026-08-17T04:48:04Z</time>
			</trkpt>
			<trkpt lat="30.254562" lon="120.088889">
				<speed>0.000000</speed>
				<ele>88.000000</ele>
				<time>2026-08-17T04:48:05Z</time>
			</trkpt>
			<trkpt lat="30.254574" lon="120.088886">
				<speed>0.000000</speed>
				<ele>88.000000</ele>
				<time>2026-08-17T04:48:06Z</time>
			</trkpt>
			<trkpt lat="30.254587" lon="120.088884">
				<speed>0.000000</speed>
				<ele>88.000000</ele>
				<time>2026-08-17T04:48:07Z</time>
			</trkpt>
			<trkpt lat="30.254600" lon="120.088882">
				<speed>0.000000</speed>
				<ele>88.000000</ele>
				<time>2026-08-17T04:48:08Z</time>
			</trkpt>
			<trkpt lat="30.254631" lon="120.088877">
				<speed>0.000000</speed>
				<ele>88.000000</ele>
				<time>2026-08-17T04:48:09Z</time>
			</trkpt>
			<trkpt lat="30.254639" lon="120.088875">
				<speed>0.000000</speed>
				<ele>88.000000</ele>
				<time>2026-08-17T04:48:10Z</time>
			</trkpt>
			<trkpt lat="30.254647" lon="120.088873">
				<speed>0.000000</speed>
				<ele>88.000000</ele>
				<time>2026-08-17T04:48:11Z</time>
			</trkpt>
			<trkpt lat="30.254656" lon="120.088871">
				<speed>0.000000</speed>
				<ele>88.000000</ele>
				<time>2026-08-17T04:48:12Z</time>
			</trkpt>
			<trkpt lat="30.254676" lon="120.088866">
				<speed>0.000000</speed>
				<ele>89.000000</ele>
				<time>2026-08-17T04:48:13Z</time>
			</trkpt>
			<trkpt lat="30.254682" lon="120.088864">
				<speed>0.000000</speed>
				<ele>89.000000</ele>
				<time>2026-08-17T04:48:14Z</time>
			</trkpt>
			<trkpt lat="30.254688" lon="120.088863">
				<speed>0.000000</speed>
				<ele>89.000000</ele>
				<time>2026-08-17T04:48:15Z</time>
			</trkpt>
			<trkpt lat="30.254694" lon="120.088861">
				<speed>0.000000</speed>
				<ele>89.000000</ele>
				<time>2026-08-17T04:48:16Z</time>
			</trkpt>
			<trkpt lat="30.254699" lon="120.088861">
				<speed>0.000000</speed>
				<ele>89.000000</ele>
				<time>2026-08-17T04:48:17Z</time>
			</trkpt>
			<trkpt lat="30.254699" lon="120.088868">
				<speed>0.000000</speed>
				<ele>88.000000</ele>
				<time>2026-08-17T04:48:36Z</time>
			</trkpt>
			<trkpt lat="30.254716" lon="120.088863">
				<speed>0.000000</speed>
				<ele>88.000000</ele>
				<time>2026-08-17T04:48:37Z</time>
			</trkpt>
			<trkpt lat="30.254723" lon="120.088863">
				<speed>0.000000</speed>
				<ele>88.000000</ele>
				<time>2026-08-17T04:48:38Z</time>
			</trkpt>
			<trkpt lat="30.254731" lon="120.088862">
				<speed>0.000000</speed>
				<ele>88.000000</ele>
				<time>2026-08-17T04:48:39Z</time>
			</trkpt>
			<trkpt lat="30.254738" lon="120.088862">
				<speed>0.000000</speed>
				<ele>88.000000</ele>
				<time>2026-08-17T04:48:40Z</time>
			</trkpt>
			<trkpt lat="30.254760" lon="120.088864">
				<speed>0.000000</speed>
				<ele>88.000000</ele>
				<time>2026-08-17T04:48:41Z</time>
			</trkpt>
			<trkpt lat="30.254768" lon="120.088866">
				<speed>0.000000</speed>
				<ele>88.000000</ele>
				<time>2026-08-17T04:48:42Z</time>
			</trkpt>
			<trkpt lat="30.254775" lon="120.088868">
				<speed>0.000000</speed>
				<ele>88.000000</ele>
				<time>2026-08-17T04:48:43Z</time>
			</trkpt>
			<trkpt lat="30.254783" lon="120.088869">
				<speed>0.000000</speed>
				<ele>88.000000</ele>
				<time>2026-08-17T04:48:44Z</time>
			</trkpt>
			<trkpt lat="30.254805" lon="120.088875">
				<speed>0.000000</speed>
				<ele>88.000000</ele>
				<time>2026-08-17T04:48:45Z</time>
			</trkpt>
			<trkpt lat="30.254812" lon="120.088878">
				<speed>0.000000</speed>
				<ele>88.000000</ele>
				<time>2026-08-17T04:48:46Z</time>
			</trkpt>
			<trkpt lat="30.254819" lon="120.088880">
				<speed>0.000000</speed>
				<ele>88.000000</ele>
				<time>2026-08-17T04:48:47Z</time>
			</trkpt>
			<trkpt lat="30.254826" lon="120.088883">
				<speed>0.000000</speed>
				<ele>88.000000</ele>
				<time>2026-08-17T04:48:48Z</time>
			</trkpt>
			<trkpt lat="30.254848" lon="120.088891">
				<speed>0.000000</speed>
				<ele>88.000000</ele>
				<time>2026-08-17T04:48:49Z</time>
			</trkpt>
			<trkpt lat="30.254855" lon="120.088893">
				<speed>0.000000</speed>
				<ele>88.000000</ele>
				<time>2026-08-17T04:48:50Z</time>
			</trkpt>
			<trkpt lat="30.254862" lon="120.088895">
				<speed>0.000000</speed>
				<ele>88.000000</ele>
				<time>2026-08-17T04:48:51Z</time>
			</trkpt>
			<trkpt lat="30.254870" lon="120.088897">
				<speed>0.000000</speed>
				<ele>88.000000</ele>
				<time>2026-08-17T04:48:52Z</time>
			</trkpt>
			<trkpt lat="30.254892" lon="120.088900">
				<speed>0.000000</speed>
				<ele>89.000000</ele>
				<time>2026-08-17T04:48:53Z</time>
			</trkpt>
			<trkpt lat="30.254899" lon="120.088900">
				<speed>0.000000</speed>
				<ele>89.000000</ele>
				<time>2026-08-17T04:48:54Z</time>
			</trkpt>
			<trkpt lat="30.254906" lon="120.088901">
				<speed>0.000000</speed>
				<ele>89.000000</ele>
				<time>2026-08-17T04:48:55Z</time>
			</trkpt>
			<trkpt lat="30.254913" lon="120.088902">
				<speed>0.000000</speed>
				<ele>89.000000</ele>
				<time>2026-08-17T04:48:56Z</time>
			</trkpt>
			<trkpt lat="30.254933" lon="120.088903">
				<speed>0.000000</speed>
				<ele>89.000000</ele>
				<time>2026-08-17T04:48:57Z</time>
			</trkpt>
			<trkpt lat="30.254940" lon="120.088904">
				<speed>0.000000</speed>
				<ele>89.000000</ele>
				<time>2026-08-17T04:48:58Z</time>
			</trkpt>
			<trkpt lat="30.254947" lon="120.088905">
				<speed>0.000000</speed>
				<ele>89.000000</ele>
				<time>2026-08-17T04:48:59Z</time>
			</trkpt>
			<trkpt lat="30.254954" lon="120.088906">
				<speed>0.000000</speed>
				<ele>89.000000</ele>
				<time>2026-08-17T04:49:00Z</time>
			</trkpt>
			<trkpt lat="30.254973" lon="120.088911">
				<speed>0.000000</speed>
				<ele>89.000000</ele>
				<time>2026-08-17T04:49:01Z</time>
			</trkpt>
			<trkpt lat="30.254980" lon="120.088913">
				<speed>0.000000</speed>
				<ele>89.000000</ele>
				<time>2026-08-17T04:49:02Z</time>
			</trkpt>
			<trkpt lat="30.254986" lon="120.088915">
				<speed>0.000000</speed>
				<ele>89.000000</ele>
				<time>2026-08-17T04:49:03Z</time>
			</trkpt>
			<trkpt lat="30.254992" lon="120.088917">
				<speed>0.000000</speed>
				<ele>89.000000</ele>
				<time>2026-08-17T04:49:04Z</time>
			</trkpt>
			<trkpt lat="30.255012" lon="120.088924">
				<speed>0.000000</speed>
				<ele>89.000000</ele>
				<time>2026-08-17T04:49:05Z</time>
			</trkpt>
			<trkpt lat="30.255019" lon="120.088925">
				<speed>0.000000</speed>
				<ele>89.000000</ele>
				<time>2026-08-17T04:49:06Z</time>
			</trkpt>
			<trkpt lat="30.255027" lon="120.088927">
				<speed>0.000000</speed>
				<ele>89.000000</ele>
				<time>2026-08-17T04:49:07Z</time>
			</trkpt>
			<trkpt lat="30.255034" lon="120.088929">
				<speed>0.000000</speed>
				<ele>89.000000</ele>
				<time>2026-08-17T04:49:08Z</time>
			</trkpt>
			<trkpt lat="30.255055" lon="120.088933">
				<speed>0.000000</speed>
				<ele>89.000000</ele>
				<time>2026-08-17T04:49:09Z</time>
			</trkpt>
			<trkpt lat="30.255062" lon="120.088935">
				<speed>0.000000</speed>
				<ele>89.000000</ele>
				<time>2026-08-17T04:49:10Z</time>
			</trkpt>
			<trkpt lat="30.255069" lon="120.088936">
				<speed>0.000000</speed>
				<ele>89.000000</ele>
				<time>2026-08-17T04:49:11Z</time>
			</trkpt>
			<trkpt lat="30.255076" lon="120.088938">
				<speed>0.000000</speed>
				<ele>89.000000</ele>
				<time>2026-08-17T04:49:12Z</time>
			</trkpt>
			<trkpt lat="30.255097" lon="120.088946">
				<speed>0.000000</speed>
				<ele>90.000000</ele>
				<time>2026-08-17T04:49:13Z</time>
			</trkpt>
			<trkpt lat="30.255104" lon="120.088950">
				<speed>0.000000</speed>
				<ele>90.000000</ele>
				<time>2026-08-17T04:49:14Z</time>
			</trkpt>
			<trkpt lat="30.255111" lon="120.088954">
				<speed>0.000000</speed>
				<ele>90.000000</ele>
				<time>2026-08-17T04:49:15Z</time>
			</trkpt>
			<trkpt lat="30.255118" lon="120.088958">
				<speed>0.000000</speed>
				<ele>90.000000</ele>
				<time>2026-08-17T04:49:16Z</time>
			</trkpt>
			<trkpt lat="30.255140" lon="120.088972">
				<speed>0.000000</speed>
				<ele>90.000000</ele>
				<time>2026-08-17T04:49:17Z</time>
			</trkpt>
			<trkpt lat="30.255146" lon="120.088977">
				<speed>0.000000</speed>
				<ele>90.000000</ele>
				<time>2026-08-17T04:49:18Z</time>
			</trkpt>
			<trkpt lat="30.255152" lon="120.088982">
				<speed>0.000000</speed>
				<ele>90.000000</ele>
				<time>2026-08-17T04:49:19Z</time>
			</trkpt>
			<trkpt lat="30.255158" lon="120.088986">
				<speed>0.000000</speed>
				<ele>90.000000</ele>
				<time>2026-08-17T04:49:20Z</time>
			</trkpt>
			<trkpt lat="30.255175" lon="120.088999">
				<speed>0.000000</speed>
				<ele>91.000000</ele>
				<time>2026-08-17T04:49:21Z</time>
			</trkpt>
			<trkpt lat="30.255180" lon="120.089003">
				<speed>0.000000</speed>
				<ele>91.000000</ele>
				<time>2026-08-17T04:49:22Z</time>
			</trkpt>
			<trkpt lat="30.255186" lon="120.089006">
				<speed>0.000000</speed>
				<ele>91.000000</ele>
				<time>2026-08-17T04:49:23Z</time>
			</trkpt>
			<trkpt lat="30.255191" lon="120.089010">
				<speed>0.000000</speed>
				<ele>91.000000</ele>
				<time>2026-08-17T04:49:24Z</time>
			</trkpt>
			<trkpt lat="30.255208" lon="120.089022">
				<speed>0.000000</speed>
				<ele>91.000000</ele>
				<time>2026-08-17T04:49:25Z</time>
			</trkpt>
			<trkpt lat="30.255214" lon="120.089025">
				<speed>0.000000</speed>
				<ele>91.000000</ele>
				<time>2026-08-17T04:49:26Z</time>
			</trkpt>
			<trkpt lat="30.255220" lon="120.089029">
				<speed>0.000000</speed>
				<ele>91.000000</ele>
				<time>2026-08-17T04:49:27Z</time>
			</trkpt>
			<trkpt lat="30.255226" lon="120.089033">
				<speed>0.000000</speed>
				<ele>91.000000</ele>
				<time>2026-08-17T04:49:28Z</time>
			</trkpt>
			<trkpt lat="30.255245" lon="120.089045">
				<speed>0.000000</speed>
				<ele>92.000000</ele>
				<time>2026-08-17T04:49:29Z</time>
			</trkpt>
			<trkpt lat="30.255251" lon="120.089048">
				<speed>0.000000</speed>
				<ele>92.000000</ele>
				<time>2026-08-17T04:49:30Z</time>
			</trkpt>
			<trkpt lat="30.255257" lon="120.089052">
				<speed>0.000000</speed>
				<ele>92.000000</ele>
				<time>2026-08-17T04:49:31Z</time>
			</trkpt>
			<trkpt lat="30.255264" lon="120.089056">
				<speed>0.000000</speed>
				<ele>92.000000</ele>
				<time>2026-08-17T04:49:32Z</time>
			</trkpt>
			<trkpt lat="30.255283" lon="120.089065">
				<speed>0.000000</speed>
				<ele>92.000000</ele>
				<time>2026-08-17T04:49:33Z</time>
			</trkpt>
			<trkpt lat="30.255289" lon="120.089068">
				<speed>0.000000</speed>
				<ele>92.000000</ele>
				<time>2026-08-17T04:49:34Z</time>
			</trkpt>
			<trkpt lat="30.255296" lon="120.089070">
				<speed>0.000000</speed>
				<ele>92.000000</ele>
				<time>2026-08-17T04:49:35Z</time>
			</trkpt>
			<trkpt lat="30.255302" lon="120.089073">
				<speed>0.000000</speed>
				<ele>92.000000</ele>
				<time>2026-08-17T04:49:36Z</time>
			</trkpt>
			<trkpt lat="30.255321" lon="120.089076">
				<speed>0.000000</speed>
				<ele>93.000000</ele>
				<time>2026-08-17T04:49:37Z</time>
			</trkpt>
			<trkpt lat="30.255328" lon="120.089076">
				<speed>0.000000</speed>
				<ele>93.000000</ele>
				<time>2026-08-17T04:49:38Z</time>
			</trkpt>
			<trkpt lat="30.255334" lon="120.089076">
				<speed>0.000000</speed>
				<ele>93.000000</ele>
				<time>2026-08-17T04:49:39Z</time>
			</trkpt>
			<trkpt lat="30.255340" lon="120.089075">
				<speed>0.000000</speed>
				<ele>93.000000</ele>
				<time>2026-08-17T04:49:40Z</time>
			</trkpt>
			<trkpt lat="30.255359" lon="120.089074">
				<speed>0.000000</speed>
				<ele>93.000000</ele>
				<time>2026-08-17T04:49:41Z</time>
			</trkpt>
			<trkpt lat="30.255365" lon="120.089073">
				<speed>0.000000</speed>
				<ele>93.000000</ele>
				<time>2026-08-17T04:49:42Z</time>
			</trkpt>
			<trkpt lat="30.255372" lon="120.089073">
				<speed>0.000000</speed>
				<ele>93.000000</ele>
				<time>2026-08-17T04:49:43Z</time>
			</trkpt>
			<trkpt lat="30.255378" lon="120.089072">
				<speed>0.000000</speed>
				<ele>93.000000</ele>
				<time>2026-08-17T04:49:44Z</time>
			</trkpt>
			<trkpt lat="30.255399" lon="120.089072">
				<speed>0.000000</speed>
				<ele>94.000000</ele>
				<time>2026-08-17T04:49:45Z</time>
			</trkpt>
			<trkpt lat="30.255406" lon="120.089072">
				<speed>0.000000</speed>
				<ele>94.000000</ele>
				<time>2026-08-17T04:49:46Z</time>
			</trkpt>
			<trkpt lat="30.255413" lon="120.089071">
				<speed>0.000000</speed>
				<ele>94.000000</ele>
				<time>2026-08-17T04:49:47Z</time>
			</trkpt>
			<trkpt lat="30.255420" lon="120.089071">
				<speed>0.000000</speed>
				<ele>94.000000</ele>
				<time>2026-08-17T04:49:48Z</time>
			</trkpt>
			<trkpt lat="30.255444" lon="120.089072">
				<speed>0.000000</speed>
				<ele>94.000000</ele>
				<time>2026-08-17T04:49:49Z</time>
			</trkpt>
			<trkpt lat="30.255452" lon="120.089072">
				<speed>0.000000</speed>
				<ele>94.000000</ele>
				<time>2026-08-17T04:49:50Z</time>
			</trkpt>
			<trkpt lat="30.255460" lon="120.089073">
				<speed>0.000000</speed>
				<ele>94.000000</ele>
				<time>2026-08-17T04:49:51Z</time>
			</trkpt>
			<trkpt lat="30.255468" lon="120.089073">
				<speed>0.000000</speed>
				<ele>94.000000</ele>
				<time>2026-08-17T04:49:52Z</time>
			</trkpt>
			<trkpt lat="30.255492" lon="120.089074">
				<speed>0.000000</speed>
				<ele>95.000000</ele>
				<time>2026-08-17T04:49:53Z</time>
			</trkpt>
			<trkpt lat="30.255500" lon="120.089074">
				<speed>0.000000</speed>
				<ele>95.000000</ele>
				<time>2026-08-17T04:49:54Z</time>
			</trkpt>
			<trkpt lat="30.255507" lon="120.089073">
				<speed>0.000000</speed>
				<ele>95.000000</ele>
				<time>2026-08-17T04:49:55Z</time>
			</trkpt>
			<trkpt lat="30.255514" lon="120.089073">
				<speed>0.000000</speed>
				<ele>95.000000</ele>
				<time>2026-08-17T04:49:56Z</time>
			</trkpt>
			<trkpt lat="30.255535" lon="120.089072">
				<speed>0.000000</speed>
				<ele>95.000000</ele>
				<time>2026-08-17T04:49:57Z</time>
			</trkpt>
			<trkpt lat="30.255542" lon="120.089072">
				<speed>0.000000</speed>
				<ele>95.000000</ele>
				<time>2026-08-17T04:49:58Z</time>
			</trkpt>
			<trkpt lat="30.255548" lon="120.089072">
				<speed>0.000000</speed>
				<ele>95.000000</ele>
				<time>2026-08-17T04:49:59Z</time>
			</trkpt>
			<trkpt lat="30.255555" lon="120.089073">
				<speed>0.000000</speed>
				<ele>95.000000</ele>
				<time>2026-08-17T04:50:00Z</time>
			</trkpt>
			<trkpt lat="30.255576" lon="120.089071">
				<speed>0.000000</speed>
				<ele>96.000000</ele>
				<time>2026-08-17T04:50:01Z</time>
			</trkpt>
			<trkpt lat="30.255583" lon="120.089070">
				<speed>0.000000</speed>
				<ele>96.000000</ele>
				<time>2026-08-17T04:50:02Z</time>
			</trkpt>
			<trkpt lat="30.255590" lon="120.089070">
				<speed>0.000000</speed>
				<ele>96.000000</ele>
				<time>2026-08-17T04:50:03Z</time>
			</trkpt>
			<trkpt lat="30.255598" lon="120.089069">
				<speed>0.000000</speed>
				<ele>96.000000</ele>
				<time>2026-08-17T04:50:04Z</time>
			</trkpt>
			<trkpt lat="30.255618" lon="120.089071">
				<speed>0.000000</speed>
				<ele>96.000000</ele>
				<time>2026-08-17T04:50:05Z</time>
			</trkpt>
			<trkpt lat="30.255624" lon="120.089073">
				<speed>0.000000</speed>
				<ele>96.000000</ele>
				<time>2026-08-17T04:50:06Z</time>
			</trkpt>
			<trkpt lat="30.255631" lon="120.089074">
				<speed>0.000000</speed>
				<ele>96.000000</ele>
				<time>2026-08-17T04:50:07Z</time>
			</trkpt>
			<trkpt lat="30.255637" lon="120.089076">
				<speed>0.000000</speed>
				<ele>96.000000</ele>
				<time>2026-08-17T04:50:08Z</time>
			</trkpt>
			<trkpt lat="30.255657" lon="120.089084">
				<speed>0.000000</speed>
				<ele>96.000000</ele>
				<time>2026-08-17T04:50:09Z</time>
			</trkpt>
			<trkpt lat="30.255664" lon="120.089087">
				<speed>0.000000</speed>
				<ele>96.000000</ele>
				<time>2026-08-17T04:50:10Z</time>
			</trkpt>
			<trkpt lat="30.255671" lon="120.089089">
				<speed>0.000000</speed>
				<ele>96.000000</ele>
				<time>2026-08-17T04:50:11Z</time>
			</trkpt>
			<trkpt lat="30.255678" lon="120.089092">
				<speed>0.000000</speed>
				<ele>96.000000</ele>
				<time>2026-08-17T04:50:12Z</time>
			</trkpt>
			<trkpt lat="30.255699" lon="120.089099">
				<speed>0.000000</speed>
				<ele>96.000000</ele>
				<time>2026-08-17T04:50:13Z</time>
			</trkpt>
			<trkpt lat="30.255705" lon="120.089102">
				<speed>0.000000</speed>
				<ele>96.000000</ele>
				<time>2026-08-17T04:50:14Z</time>
			</trkpt>
			<trkpt lat="30.255712" lon="120.089104">
				<speed>0.000000</speed>
				<ele>96.000000</ele>
				<time>2026-08-17T04:50:15Z</time>
			</trkpt>
			<trkpt lat="30.255718" lon="120.089107">
				<speed>0.000000</speed>
				<ele>96.000000</ele>
				<time>2026-08-17T04:50:16Z</time>
			</trkpt>
			<trkpt lat="30.255737" lon="120.089114">
				<speed>0.000000</speed>
				<ele>96.000000</ele>
				<time>2026-08-17T04:50:17Z</time>
			</trkpt>
			<trkpt lat="30.255743" lon="120.089116">
				<speed>0.000000</speed>
				<ele>96.000000</ele>
				<time>2026-08-17T04:50:18Z</time>
			</trkpt>
			<trkpt lat="30.255749" lon="120.089118">
				<speed>0.000000</speed>
				<ele>96.000000</ele>
				<time>2026-08-17T04:50:19Z</time>
			</trkpt>
			<trkpt lat="30.255755" lon="120.089120">
				<speed>0.000000</speed>
				<ele>96.000000</ele>
				<time>2026-08-17T04:50:20Z</time>
			</trkpt>
			<trkpt lat="30.255769" lon="120.089126">
				<speed>0.000000</speed>
				<ele>97.000000</ele>
				<time>2026-08-17T04:50:21Z</time>
			</trkpt>
			<trkpt lat="30.255779" lon="120.089133">
				<speed>0.000000</speed>
				<ele>96.000000</ele>
				<time>2026-08-17T04:50:42Z</time>
			</trkpt>
			<trkpt lat="30.255784" lon="120.089137">
				<speed>0.000000</speed>
				<ele>96.000000</ele>
				<time>2026-08-17T04:50:43Z</time>
			</trkpt>
			<trkpt lat="30.255786" lon="120.089138">
				<speed>0.000000</speed>
				<ele>96.000000</ele>
				<time>2026-08-17T04:50:44Z</time>
			</trkpt>
			<trkpt lat="30.255789" lon="120.089139">
				<speed>0.000000</speed>
				<ele>96.000000</ele>
				<time>2026-08-17T04:50:45Z</time>
			</trkpt>
			<trkpt lat="30.255791" lon="120.089140">
				<speed>0.000000</speed>
				<ele>95.000000</ele>
				<time>2026-08-17T04:50:46Z</time>
			</trkpt>
			<trkpt lat="30.255803" lon="120.089148">
				<speed>0.000000</speed>
				<ele>96.000000</ele>
				<time>2026-08-17T04:51:15Z</time>
			</trkpt>
			<trkpt lat="30.255814" lon="120.089157">
				<speed>0.000000</speed>
				<ele>96.000000</ele>
				<time>2026-08-17T04:51:16Z</time>
			</trkpt>
			<trkpt lat="30.255819" lon="120.089159">
				<speed>0.000000</speed>
				<ele>96.000000</ele>
				<time>2026-08-17T04:51:17Z</time>
			</trkpt>
			<trkpt lat="30.255823" lon="120.089161">
				<speed>0.000000</speed>
				<ele>95.000000</ele>
				<time>2026-08-17T04:51:18Z</time>
			</trkpt>
			<trkpt lat="30.255827" lon="120.089163">
				<speed>0.000000</speed>
				<ele>95.000000</ele>
				<time>2026-08-17T04:51:19Z</time>
			</trkpt>
			<trkpt lat="30.255842" lon="120.089171">
				<speed>0.000000</speed>
				<ele>95.000000</ele>
				<time>2026-08-17T04:51:20Z</time>
			</trkpt>
			<trkpt lat="30.255848" lon="120.089173">
				<speed>0.000000</speed>
				<ele>95.000000</ele>
				<time>2026-08-17T04:51:21Z</time>
			</trkpt>
			<trkpt lat="30.255854" lon="120.089176">
				<speed>0.000000</speed>
				<ele>95.000000</ele>
				<time>2026-08-17T04:51:22Z</time>
			</trkpt>
			<trkpt lat="30.255860" lon="120.089178">
				<speed>0.000000</speed>
				<ele>95.000000</ele>
				<time>2026-08-17T04:51:23Z</time>
			</trkpt>
			<trkpt lat="30.255878" lon="120.089187">
				<speed>0.000000</speed>
				<ele>95.000000</ele>
				<time>2026-08-17T04:51:24Z</time>
			</trkpt>
			<trkpt lat="30.255884" lon="120.089189">
				<speed>0.000000</speed>
				<ele>95.000000</ele>
				<time>2026-08-17T04:51:25Z</time>
			</trkpt>
			<trkpt lat="30.255889" lon="120.089192">
				<speed>0.000000</speed>
				<ele>95.000000</ele>
				<time>2026-08-17T04:51:26Z</time>
			</trkpt>
			<trkpt lat="30.255895" lon="120.089194">
				<speed>0.000000</speed>
				<ele>95.000000</ele>
				<time>2026-08-17T04:51:27Z</time>
			</trkpt>
			<trkpt lat="30.255910" lon="120.089201">
				<speed>0.000000</speed>
				<ele>95.000000</ele>
				<time>2026-08-17T04:51:28Z</time>
			</trkpt>
			<trkpt lat="30.255915" lon="120.089203">
				<speed>0.000000</speed>
				<ele>95.000000</ele>
				<time>2026-08-17T04:51:29Z</time>
			</trkpt>
			<trkpt lat="30.255920" lon="120.089205">
				<speed>0.000000</speed>
				<ele>95.000000</ele>
				<time>2026-08-17T04:51:30Z</time>
			</trkpt>
			<trkpt lat="30.255925" lon="120.089208">
				<speed>0.000000</speed>
				<ele>95.000000</ele>
				<time>2026-08-17T04:51:31Z</time>
			</trkpt>
			<trkpt lat="30.255941" lon="120.089214">
				<speed>0.000000</speed>
				<ele>95.000000</ele>
				<time>2026-08-17T04:51:32Z</time>
			</trkpt>
			<trkpt lat="30.255946" lon="120.089216">
				<speed>0.000000</speed>
				<ele>95.000000</ele>
				<time>2026-08-17T04:51:33Z</time>
			</trkpt>
			<trkpt lat="30.255951" lon="120.089218">
				<speed>0.000000</speed>
				<ele>95.000000</ele>
				<time>2026-08-17T04:51:34Z</time>
			</trkpt>
			<trkpt lat="30.255956" lon="120.089220">
				<speed>0.000000</speed>
				<ele>95.000000</ele>
				<time>2026-08-17T04:51:35Z</time>
			</trkpt>
			<trkpt lat="30.255970" lon="120.089227">
				<speed>0.000000</speed>
				<ele>95.000000</ele>
				<time>2026-08-17T04:51:36Z</time>
			</trkpt>
			<trkpt lat="30.255975" lon="120.089230">
				<speed>0.000000</speed>
				<ele>95.000000</ele>
				<time>2026-08-17T04:51:37Z</time>
			</trkpt>
			<trkpt lat="30.255980" lon="120.089233">
				<speed>0.000000</speed>
				<ele>94.000000</ele>
				<time>2026-08-17T04:51:38Z</time>
			</trkpt>
			<trkpt lat="30.255985" lon="120.089236">
				<speed>0.000000</speed>
				<ele>94.000000</ele>
				<time>2026-08-17T04:51:39Z</time>
			</trkpt>
			<trkpt lat="30.256002" lon="120.089244">
				<speed>0.000000</speed>
				<ele>94.000000</ele>
				<time>2026-08-17T04:51:40Z</time>
			</trkpt>
			<trkpt lat="30.256008" lon="120.089247">
				<speed>0.000000</speed>
				<ele>94.000000</ele>
				<time>2026-08-17T04:51:41Z</time>
			</trkpt>
			<trkpt lat="30.256014" lon="120.089249">
				<speed>0.000000</speed>
				<ele>94.000000</ele>
				<time>2026-08-17T04:51:42Z</time>
			</trkpt>
			<trkpt lat="30.256020" lon="120.089252">
				<speed>0.000000</speed>
				<ele>94.000000</ele>
				<time>2026-08-17T04:51:43Z</time>
			</trkpt>
			<trkpt lat="30.256041" lon="120.089257">
				<speed>0.000000</speed>
				<ele>94.000000</ele>
				<time>2026-08-17T04:51:44Z</time>
			</trkpt>
			<trkpt lat="30.256048" lon="120.089258">
				<speed>0.000000</speed>
				<ele>94.000000</ele>
				<time>2026-08-17T04:51:45Z</time>
			</trkpt>
			<trkpt lat="30.256056" lon="120.089260">
				<speed>0.000000</speed>
				<ele>94.000000</ele>
				<time>2026-08-17T04:51:46Z</time>
			</trkpt>
			<trkpt lat="30.256064" lon="120.089262">
				<speed>0.000000</speed>
				<ele>94.000000</ele>
				<time>2026-08-17T04:51:47Z</time>
			</trkpt>
			<trkpt lat="30.256090" lon="120.089266">
				<speed>0.000000</speed>
				<ele>94.000000</ele>
				<time>2026-08-17T04:51:48Z</time>
			</trkpt>
			<trkpt lat="30.256099" lon="120.089268">
				<speed>0.000000</speed>
				<ele>94.000000</ele>
				<time>2026-08-17T04:51:49Z</time>
			</trkpt>
			<trkpt lat="30.256109" lon="120.089270">
				<speed>0.000000</speed>
				<ele>93.000000</ele>
				<time>2026-08-17T04:51:50Z</time>
			</trkpt>
			<trkpt lat="30.256118" lon="120.089272">
				<speed>0.000000</speed>
				<ele>93.000000</ele>
				<time>2026-08-17T04:51:51Z</time>
			</trkpt>
			<trkpt lat="30.256147" lon="120.089281">
				<speed>0.000000</speed>
				<ele>93.000000</ele>
				<time>2026-08-17T04:51:52Z</time>
			</trkpt>
			<trkpt lat="30.256156" lon="120.089286">
				<speed>0.000000</speed>
				<ele>93.000000</ele>
				<time>2026-08-17T04:51:53Z</time>
			</trkpt>
			<trkpt lat="30.256165" lon="120.089290">
				<speed>0.000000</speed>
				<ele>93.000000</ele>
				<time>2026-08-17T04:51:54Z</time>
			</trkpt>
			<trkpt lat="30.256175" lon="120.089295">
				<speed>0.000000</speed>
				<ele>93.000000</ele>
				<time>2026-08-17T04:51:55Z</time>
			</trkpt>
			<trkpt lat="30.256202" lon="120.089308">
				<speed>0.000000</speed>
				<ele>93.000000</ele>
				<time>2026-08-17T04:51:56Z</time>
			</trkpt>
			<trkpt lat="30.256211" lon="120.089312">
				<speed>0.000000</speed>
				<ele>93.000000</ele>
				<time>2026-08-17T04:51:57Z</time>
			</trkpt>
			<trkpt lat="30.256219" lon="120.089316">
				<speed>0.000000</speed>
				<ele>93.000000</ele>
				<time>2026-08-17T04:51:58Z</time>
			</trkpt>
			<trkpt lat="30.256227" lon="120.089319">
				<speed>0.000000</speed>
				<ele>93.000000</ele>
				<time>2026-08-17T04:51:59Z</time>
			</trkpt>
			<trkpt lat="30.256248" lon="120.089328">
				<speed>0.000000</speed>
				<ele>93.000000</ele>
				<time>2026-08-17T04:52:00Z</time>
			</trkpt>
			<trkpt lat="30.256255" lon="120.089331">
				<speed>0.000000</speed>
				<ele>93.000000</ele>
				<time>2026-08-17T04:52:01Z</time>
			</trkpt>
			<trkpt lat="30.256261" lon="120.089333">
				<speed>0.000000</speed>
				<ele>93.000000</ele>
				<time>2026-08-17T04:52:02Z</time>
			</trkpt>
			<trkpt lat="30.256268" lon="120.089336">
				<speed>0.000000</speed>
				<ele>93.000000</ele>
				<time>2026-08-17T04:52:03Z</time>
			</trkpt>
			<trkpt lat="30.256286" lon="120.089342">
				<speed>0.000000</speed>
				<ele>93.000000</ele>
				<time>2026-08-17T04:52:04Z</time>
			</trkpt>
			<trkpt lat="30.256292" lon="120.089344">
				<speed>0.000000</speed>
				<ele>93.000000</ele>
				<time>2026-08-17T04:52:05Z</time>
			</trkpt>
			<trkpt lat="30.256298" lon="120.089346">
				<speed>0.000000</speed>
				<ele>92.000000</ele>
				<time>2026-08-17T04:52:06Z</time>
			</trkpt>
			<trkpt lat="30.256304" lon="120.089348">
				<speed>0.000000</speed>
				<ele>92.000000</ele>
				<time>2026-08-17T04:52:07Z</time>
			</trkpt>
			<trkpt lat="30.256320" lon="120.089357">
				<speed>0.000000</speed>
				<ele>92.000000</ele>
				<time>2026-08-17T04:52:08Z</time>
			</trkpt>
			<trkpt lat="30.256325" lon="120.089361">
				<speed>0.000000</speed>
				<ele>92.000000</ele>
				<time>2026-08-17T04:52:09Z</time>
			</trkpt>
			<trkpt lat="30.256330" lon="120.089365">
				<speed>0.000000</speed>
				<ele>92.000000</ele>
				<time>2026-08-17T04:52:10Z</time>
			</trkpt>
			<trkpt lat="30.256335" lon="120.089369">
				<speed>0.000000</speed>
				<ele>92.000000</ele>
				<time>2026-08-17T04:52:11Z</time>
			</trkpt>
			<trkpt lat="30.256352" lon="120.089381">
				<speed>0.000000</speed>
				<ele>92.000000</ele>
				<time>2026-08-17T04:52:12Z</time>
			</trkpt>
			<trkpt lat="30.256357" lon="120.089385">
				<speed>0.000000</speed>
				<ele>92.000000</ele>
				<time>2026-08-17T04:52:13Z</time>
			</trkpt>
			<trkpt lat="30.256363" lon="120.089388">
				<speed>0.000000</speed>
				<ele>92.000000</ele>
				<time>2026-08-17T04:52:14Z</time>
			</trkpt>
			<trkpt lat="30.256368" lon="120.089392">
				<speed>0.000000</speed>
				<ele>92.000000</ele>
				<time>2026-08-17T04:52:15Z</time>
			</trkpt>
			<trkpt lat="30.256386" lon="120.089400">
				<speed>0.000000</speed>
				<ele>92.000000</ele>
				<time>2026-08-17T04:52:16Z</time>
			</trkpt>
			<trkpt lat="30.256393" lon="120.089401">
				<speed>0.000000</speed>
				<ele>92.000000</ele>
				<time>2026-08-17T04:52:17Z</time>
			</trkpt>
			<trkpt lat="30.256399" lon="120.089403">
				<speed>0.000000</speed>
				<ele>92.000000</ele>
				<time>2026-08-17T04:52:18Z</time>
			</trkpt>
			<trkpt lat="30.256406" lon="120.089405">
				<speed>0.000000</speed>
				<ele>92.000000</ele>
				<time>2026-08-17T04:52:19Z</time>
			</trkpt>
			<trkpt lat="30.256426" lon="120.089411">
				<speed>0.000000</speed>
				<ele>92.000000</ele>
				<time>2026-08-17T04:52:20Z</time>
			</trkpt>
			<trkpt lat="30.256433" lon="120.089414">
				<speed>0.000000</speed>
				<ele>92.000000</ele>
				<time>2026-08-17T04:52:21Z</time>
			</trkpt>
			<trkpt lat="30.256439" lon="120.089417">
				<speed>0.000000</speed>
				<ele>91.000000</ele>
				<time>2026-08-17T04:52:22Z</time>
			</trkpt>
			<trkpt lat="30.256446" lon="120.089420">
				<speed>0.000000</speed>
				<ele>91.000000</ele>
				<time>2026-08-17T04:52:23Z</time>
			</trkpt>
			<trkpt lat="30.256464" lon="120.089429">
				<speed>0.000000</speed>
				<ele>91.000000</ele>
				<time>2026-08-17T04:52:24Z</time>
			</trkpt>
			<trkpt lat="30.256471" lon="120.089433">
				<speed>0.000000</speed>
				<ele>91.000000</ele>
				<time>2026-08-17T04:52:25Z</time>
			</trkpt>
			<trkpt lat="30.256478" lon="120.089436">
				<speed>0.000000</speed>
				<ele>91.000000</ele>
				<time>2026-08-17T04:52:26Z</time>
			</trkpt>
			<trkpt lat="30.256485" lon="120.089439">
				<speed>0.000000</speed>
				<ele>91.000000</ele>
				<time>2026-08-17T04:52:27Z</time>
			</trkpt>
			<trkpt lat="30.256507" lon="120.089449">
				<speed>0.000000</speed>
				<ele>91.000000</ele>
				<time>2026-08-17T04:52:28Z</time>
			</trkpt>
			<trkpt lat="30.256515" lon="120.089452">
				<speed>0.000000</speed>
				<ele>91.000000</ele>
				<time>2026-08-17T04:52:29Z</time>
			</trkpt>
			<trkpt lat="30.256522" lon="120.089454">
				<speed>0.000000</speed>
				<ele>91.000000</ele>
				<time>2026-08-17T04:52:30Z</time>
			</trkpt>
			<trkpt lat="30.256529" lon="120.089457">
				<speed>0.000000</speed>
				<ele>91.000000</ele>
				<time>2026-08-17T04:52:31Z</time>
			</trkpt>
			<trkpt lat="30.256548" lon="120.089462">
				<speed>0.000000</speed>
				<ele>91.000000</ele>
				<time>2026-08-17T04:52:32Z</time>
			</trkpt>
			<trkpt lat="30.256553" lon="120.089464">
				<speed>0.000000</speed>
				<ele>91.000000</ele>
				<time>2026-08-17T04:52:33Z</time>
			</trkpt>
			<trkpt lat="30.256559" lon="120.089465">
				<speed>0.000000</speed>
				<ele>91.000000</ele>
				<time>2026-08-17T04:52:34Z</time>
			</trkpt>
			<trkpt lat="30.256564" lon="120.089467">
				<speed>0.000000</speed>
				<ele>91.000000</ele>
				<time>2026-08-17T04:52:35Z</time>
			</trkpt>
			<trkpt lat="30.256582" lon="120.089473">
				<speed>0.000000</speed>
				<ele>91.000000</ele>
				<time>2026-08-17T04:52:36Z</time>
			</trkpt>
			<trkpt lat="30.256588" lon="120.089475">
				<speed>0.000000</speed>
				<ele>91.000000</ele>
				<time>2026-08-17T04:52:37Z</time>
			</trkpt>
			<trkpt lat="30.256594" lon="120.089477">
				<speed>0.000000</speed>
				<ele>91.000000</ele>
				<time>2026-08-17T04:52:38Z</time>
			</trkpt>
			<trkpt lat="30.256600" lon="120.089480">
				<speed>0.000000</speed>
				<ele>91.000000</ele>
				<time>2026-08-17T04:52:39Z</time>
			</trkpt>
			<trkpt lat="30.256620" lon="120.089488">
				<speed>0.000000</speed>
				<ele>91.000000</ele>
				<time>2026-08-17T04:52:40Z</time>
			</trkpt>
			<trkpt lat="30.256626" lon="120.089490">
				<speed>0.000000</speed>
				<ele>91.000000</ele>
				<time>2026-08-17T04:52:41Z</time>
			</trkpt>
			<trkpt lat="30.256633" lon="120.089493">
				<speed>0.000000</speed>
				<ele>91.000000</ele>
				<time>2026-08-17T04:52:42Z</time>
			</trkpt>
			<trkpt lat="30.256640" lon="120.089495">
				<speed>0.000000</speed>
				<ele>91.000000</ele>
				<time>2026-08-17T04:52:43Z</time>
			</trkpt>
			<trkpt lat="30.256663" lon="120.089501">
				<speed>0.000000</speed>
				<ele>91.000000</ele>
				<time>2026-08-17T04:52:44Z</time>
			</trkpt>
			<trkpt lat="30.256672" lon="120.089502">
				<speed>0.000000</speed>
				<ele>91.000000</ele>
				<time>2026-08-17T04:52:45Z</time>
			</trkpt>
			<trkpt lat="30.256680" lon="120.089503">
				<speed>0.000000</speed>
				<ele>90.000000</ele>
				<time>2026-08-17T04:52:46Z</time>
			</trkpt>
			<trkpt lat="30.256689" lon="120.089504">
				<speed>0.000000</speed>
				<ele>90.000000</ele>
				<time>2026-08-17T04:52:47Z</time>
			</trkpt>
			<trkpt lat="30.256717" lon="120.089506">
				<speed>0.000000</speed>
				<ele>90.000000</ele>
				<time>2026-08-17T04:52:48Z</time>
			</trkpt>
			<trkpt lat="30.256727" lon="120.089507">
				<speed>0.000000</speed>
				<ele>90.000000</ele>
				<time>2026-08-17T04:52:49Z</time>
			</trkpt>
			<trkpt lat="30.256736" lon="120.089508">
				<speed>0.000000</speed>
				<ele>90.000000</ele>
				<time>2026-08-17T04:52:50Z</time>
			</trkpt>
			<trkpt lat="30.256745" lon="120.089509">
				<speed>0.000000</speed>
				<ele>90.000000</ele>
				<time>2026-08-17T04:52:51Z</time>
			</trkpt>
			<trkpt lat="30.256770" lon="120.089510">
				<speed>0.000000</speed>
				<ele>90.000000</ele>
				<time>2026-08-17T04:52:52Z</time>
			</trkpt>
			<trkpt lat="30.256777" lon="120.089509">
				<speed>0.000000</speed>
				<ele>90.000000</ele>
				<time>2026-08-17T04:52:53Z</time>
			</trkpt>
			<trkpt lat="30.256785" lon="120.089508">
				<speed>0.000000</speed>
				<ele>90.000000</ele>
				<time>2026-08-17T04:52:54Z</time>
			</trkpt>
			<trkpt lat="30.256792" lon="120.089507">
				<speed>0.000000</speed>
				<ele>90.000000</ele>
				<time>2026-08-17T04:52:55Z</time>
			</trkpt>
			<trkpt lat="30.256816" lon="120.089499">
				<speed>0.000000</speed>
				<ele>90.000000</ele>
				<time>2026-08-17T04:52:56Z</time>
			</trkpt>
			<trkpt lat="30.256826" lon="120.089493">
				<speed>0.000000</speed>
				<ele>90.000000</ele>
				<time>2026-08-17T04:52:57Z</time>
			</trkpt>
			<trkpt lat="30.256837" lon="120.089488">
				<speed>0.000000</speed>
				<ele>89.000000</ele>
				<time>2026-08-17T04:52:58Z</time>
			</trkpt>
			<trkpt lat="30.256847" lon="120.089483">
				<speed>0.000000</speed>
				<ele>89.000000</ele>
				<time>2026-08-17T04:52:59Z</time>
			</trkpt>
			<trkpt lat="30.256889" lon="120.089458">
				<speed>0.000000</speed>
				<ele>89.000000</ele>
				<time>2026-08-17T04:53:00Z</time>
			</trkpt>
			<trkpt lat="30.256906" lon="120.089448">
				<speed>0.000000</speed>
				<ele>89.000000</ele>
				<time>2026-08-17T04:53:01Z</time>
			</trkpt>
			<trkpt lat="30.256922" lon="120.089438">
				<speed>0.000000</speed>
				<ele>89.000000</ele>
				<time>2026-08-17T04:53:02Z</time>
			</trkpt>
			<trkpt lat="30.256938" lon="120.089429">
				<speed>0.000000</speed>
				<ele>89.000000</ele>
				<time>2026-08-17T04:53:03Z</time>
			</trkpt>
			<trkpt lat="30.256989" lon="120.089399">
				<speed>0.000000</speed>
				<ele>89.000000</ele>
				<time>2026-08-17T04:53:04Z</time>
			</trkpt>
			<trkpt lat="30.257007" lon="120.089390">
				<speed>0.000000</speed>
				<ele>89.000000</ele>
				<time>2026-08-17T04:53:05Z</time>
			</trkpt>
			<trkpt lat="30.257024" lon="120.089380">
				<speed>0.000000</speed>
				<ele>88.000000</ele>
				<time>2026-08-17T04:53:06Z</time>
			</trkpt>
			<trkpt lat="30.257042" lon="120.089370">
				<speed>0.000000</speed>
				<ele>88.000000</ele>
				<time>2026-08-17T04:53:07Z</time>
			</trkpt>
			<trkpt lat="30.257094" lon="120.089338">
				<speed>0.000000</speed>
				<ele>88.000000</ele>
				<time>2026-08-17T04:53:08Z</time>
			</trkpt>
			<trkpt lat="30.257111" lon="120.089326">
				<speed>0.000000</speed>
				<ele>88.000000</ele>
				<time>2026-08-17T04:53:09Z</time>
			</trkpt>
			<trkpt lat="30.257128" lon="120.089314">
				<speed>0.000000</speed>
				<ele>88.000000</ele>
				<time>2026-08-17T04:53:10Z</time>
			</trkpt>
			<trkpt lat="30.257146" lon="120.089302">
				<speed>0.000000</speed>
				<ele>88.000000</ele>
				<time>2026-08-17T04:53:11Z</time>
			</trkpt>
			<trkpt lat="30.257196" lon="120.089259">
				<speed>0.000000</speed>
				<ele>88.000000</ele>
				<time>2026-08-17T04:53:12Z</time>
			</trkpt>
			<trkpt lat="30.257213" lon="120.089245">
				<speed>0.000000</speed>
				<ele>88.000000</ele>
				<time>2026-08-17T04:53:13Z</time>
			</trkpt>
			<trkpt lat="30.257230" lon="120.089232">
				<speed>0.000000</speed>
				<ele>87.000000</ele>
				<time>2026-08-17T04:53:14Z</time>
			</trkpt>
			<trkpt lat="30.257247" lon="120.089218">
				<speed>0.000000</speed>
				<ele>87.000000</ele>
				<time>2026-08-17T04:53:15Z</time>
			</trkpt>
			<trkpt lat="30.257304" lon="120.089197">
				<speed>0.000000</speed>
				<ele>87.000000</ele>
				<time>2026-08-17T04:53:16Z</time>
			</trkpt>
			<trkpt lat="30.257325" lon="120.089202">
				<speed>0.000000</speed>
				<ele>87.000000</ele>
				<time>2026-08-17T04:53:17Z</time>
			</trkpt>
			<trkpt lat="30.257347" lon="120.089208">
				<speed>0.000000</speed>
				<ele>86.000000</ele>
				<time>2026-08-17T04:53:18Z</time>
			</trkpt>
			<trkpt lat="30.257368" lon="120.089213">
				<speed>0.000000</speed>
				<ele>86.000000</ele>
				<time>2026-08-17T04:53:19Z</time>
			</trkpt>
			<trkpt lat="30.257433" lon="120.089263">
				<speed>0.000000</speed>
				<ele>85.000000</ele>
				<time>2026-08-17T04:53:20Z</time>
			</trkpt>
			<trkpt lat="30.257452" lon="120.089285">
				<speed>0.000000</speed>
				<ele>85.000000</ele>
				<time>2026-08-17T04:53:21Z</time>
			</trkpt>
			<trkpt lat="30.257471" lon="120.089307">
				<speed>0.000000</speed>
				<ele>84.000000</ele>
				<time>2026-08-17T04:53:22Z</time>
			</trkpt>
			<trkpt lat="30.257489" lon="120.089330">
				<speed>0.000000</speed>
				<ele>84.000000</ele>
				<time>2026-08-17T04:53:23Z</time>
			</trkpt>
			<trkpt lat="30.257523" lon="120.089402">
				<speed>0.000000</speed>
				<ele>83.000000</ele>
				<time>2026-08-17T04:53:24Z</time>
			</trkpt>
			<trkpt lat="30.257521" lon="120.089425">
				<speed>0.000000</speed>
				<ele>83.000000</ele>
				<time>2026-08-17T04:53:25Z</time>
			</trkpt>
			<trkpt lat="30.257520" lon="120.089448">
				<speed>0.000000</speed>
				<ele>82.000000</ele>
				<time>2026-08-17T04:53:26Z</time>
			</trkpt>
			<trkpt lat="30.257518" lon="120.089471">
				<speed>0.000000</speed>
				<ele>82.000000</ele>
				<time>2026-08-17T04:53:27Z</time>
			</trkpt>
			<trkpt lat="30.257474" lon="120.089532">
				<speed>0.000000</speed>
				<ele>81.000000</ele>
				<time>2026-08-17T04:53:28Z</time>
			</trkpt>
			<trkpt lat="30.257454" lon="120.089552">
				<speed>0.000000</speed>
				<ele>81.000000</ele>
				<time>2026-08-17T04:53:29Z</time>
			</trkpt>
			<trkpt lat="30.257434" lon="120.089573">
				<speed>0.000000</speed>
				<ele>80.000000</ele>
				<time>2026-08-17T04:53:30Z</time>
			</trkpt>
			<trkpt lat="30.257415" lon="120.089593">
				<speed>0.000000</speed>
				<ele>80.000000</ele>
				<time>2026-08-17T04:53:31Z</time>
			</trkpt>
			<trkpt lat="30.257364" lon="120.089656">
				<speed>0.000000</speed>
				<ele>79.000000</ele>
				<time>2026-08-17T04:53:32Z</time>
			</trkpt>
			<trkpt lat="30.257357" lon="120.089675">
				<speed>0.000000</speed>
				<ele>79.000000</ele>
				<time>2026-08-17T04:53:33Z</time>
			</trkpt>
			<trkpt lat="30.257350" lon="120.089695">
				<speed>0.000000</speed>
				<ele>78.000000</ele>
				<time>2026-08-17T04:53:34Z</time>
			</trkpt>
			<trkpt lat="30.257343" lon="120.089715">
				<speed>0.000000</speed>
				<ele>78.000000</ele>
				<time>2026-08-17T04:53:35Z</time>
			</trkpt>
			<trkpt lat="30.257356" lon="120.089762">
				<speed>0.000000</speed>
				<ele>77.000000</ele>
				<time>2026-08-17T04:53:36Z</time>
			</trkpt>
			<trkpt lat="30.257368" lon="120.089775">
				<speed>0.000000</speed>
				<ele>77.000000</ele>
				<time>2026-08-17T04:53:37Z</time>
			</trkpt>
			<trkpt lat="30.257379" lon="120.089788">
				<speed>0.000000</speed>
				<ele>76.000000</ele>
				<time>2026-08-17T04:53:38Z</time>
			</trkpt>
			<trkpt lat="30.257391" lon="120.089801">
				<speed>0.000000</speed>
				<ele>75.000000</ele>
				<time>2026-08-17T04:53:39Z</time>
			</trkpt>
			<trkpt lat="30.257436" lon="120.089838">
				<speed>0.000000</speed>
				<ele>74.000000</ele>
				<time>2026-08-17T04:53:40Z</time>
			</trkpt>
			<trkpt lat="30.257451" lon="120.089850">
				<speed>0.000000</speed>
				<ele>74.000000</ele>
				<time>2026-08-17T04:53:41Z</time>
			</trkpt>
			<trkpt lat="30.257467" lon="120.089862">
				<speed>0.000000</speed>
				<ele>73.000000</ele>
				<time>2026-08-17T04:53:42Z</time>
			</trkpt>
			<trkpt lat="30.257483" lon="120.089873">
				<speed>0.000000</speed>
				<ele>73.000000</ele>
				<time>2026-08-17T04:53:43Z</time>
			</trkpt>
			<trkpt lat="30.257530" lon="120.089909">
				<speed>0.000000</speed>
				<ele>72.000000</ele>
				<time>2026-08-17T04:53:44Z</time>
			</trkpt>
			<trkpt lat="30.257544" lon="120.089923">
				<speed>0.000000</speed>
				<ele>72.000000</ele>
				<time>2026-08-17T04:53:45Z</time>
			</trkpt>
			<trkpt lat="30.257558" lon="120.089936">
				<speed>0.000000</speed>
				<ele>71.000000</ele>
				<time>2026-08-17T04:53:46Z</time>
			</trkpt>
			<trkpt lat="30.257572" lon="120.089949">
				<speed>0.000000</speed>
				<ele>70.000000</ele>
				<time>2026-08-17T04:53:47Z</time>
			</trkpt>
			<trkpt lat="30.257605" lon="120.089987">
				<speed>0.000000</speed>
				<ele>69.000000</ele>
				<time>2026-08-17T04:53:48Z</time>
			</trkpt>
			<trkpt lat="30.257612" lon="120.089998">
				<speed>0.000000</speed>
				<ele>69.000000</ele>
				<time>2026-08-17T04:53:49Z</time>
			</trkpt>
			<trkpt lat="30.257619" lon="120.090008">
				<speed>0.000000</speed>
				<ele>68.000000</ele>
				<time>2026-08-17T04:53:50Z</time>
			</trkpt>
			<trkpt lat="30.257626" lon="120.090019">
				<speed>0.000000</speed>
				<ele>68.000000</ele>
				<time>2026-08-17T04:53:51Z</time>
			</trkpt>
			<trkpt lat="30.257635" lon="120.090041">
				<speed>0.000000</speed>
				<ele>62.000000</ele>
				<time>2026-08-17T04:54:09Z</time>
			</trkpt>
			<trkpt lat="30.257640" lon="120.090053">
				<speed>0.000000</speed>
				<ele>61.000000</ele>
				<time>2026-08-17T04:54:10Z</time>
			</trkpt>
			<trkpt lat="30.257644" lon="120.090056">
				<speed>0.000000</speed>
				<ele>61.000000</ele>
				<time>2026-08-17T04:54:11Z</time>
			</trkpt>
			<trkpt lat="30.257647" lon="120.090059">
				<speed>0.000000</speed>
				<ele>61.000000</ele>
				<time>2026-08-17T04:54:12Z</time>
			</trkpt>
			<trkpt lat="30.257650" lon="120.090062">
				<speed>0.000000</speed>
				<ele>61.000000</ele>
				<time>2026-08-17T04:54:13Z</time>
			</trkpt>
			<trkpt lat="30.257653" lon="120.090065">
				<speed>0.000000</speed>
				<ele>61.000000</ele>
				<time>2026-08-17T04:54:14Z</time>
			</trkpt>
			<trkpt lat="30.257669" lon="120.090074">
				<speed>0.000000</speed>
				<ele>61.000000</ele>
				<time>2026-08-17T04:54:15Z</time>
			</trkpt>
			<trkpt lat="30.257676" lon="120.090076">
				<speed>0.000000</speed>
				<ele>61.000000</ele>
				<time>2026-08-17T04:54:16Z</time>
			</trkpt>
			<trkpt lat="30.257683" lon="120.090077">
				<speed>0.000000</speed>
				<ele>61.000000</ele>
				<time>2026-08-17T04:54:17Z</time>
			</trkpt>
			<trkpt lat="30.257691" lon="120.090078">
				<speed>0.000000</speed>
				<ele>61.000000</ele>
				<time>2026-08-17T04:54:18Z</time>
			</trkpt>
			<trkpt lat="30.257718" lon="120.090076">
				<speed>0.000000</speed>
				<ele>61.000000</ele>
				<time>2026-08-17T04:54:19Z</time>
			</trkpt>
			<trkpt lat="30.257728" lon="120.090073">
				<speed>0.000000</speed>
				<ele>61.000000</ele>
				<time>2026-08-17T04:54:20Z</time>
			</trkpt>
			<trkpt lat="30.257738" lon="120.090071">
				<speed>0.000000</speed>
				<ele>61.000000</ele>
				<time>2026-08-17T04:54:21Z</time>
			</trkpt>
			<trkpt lat="30.257749" lon="120.090069">
				<speed>0.000000</speed>
				<ele>61.000000</ele>
				<time>2026-08-17T04:54:22Z</time>
			</trkpt>
			<trkpt lat="30.257779" lon="120.090063">
				<speed>0.000000</speed>
				<ele>61.000000</ele>
				<time>2026-08-17T04:54:23Z</time>
			</trkpt>
			<trkpt lat="30.257789" lon="120.090060">
				<speed>0.000000</speed>
				<ele>61.000000</ele>
				<time>2026-08-17T04:54:24Z</time>
			</trkpt>
			<trkpt lat="30.257798" lon="120.090058">
				<speed>0.000000</speed>
				<ele>61.000000</ele>
				<time>2026-08-17T04:54:25Z</time>
			</trkpt>
			<trkpt lat="30.257808" lon="120.090055">
				<speed>0.000000</speed>
				<ele>60.000000</ele>
				<time>2026-08-17T04:54:26Z</time>
			</trkpt>
			<trkpt lat="30.257836" lon="120.090047">
				<speed>0.000000</speed>
				<ele>60.000000</ele>
				<time>2026-08-17T04:54:27Z</time>
			</trkpt>
			<trkpt lat="30.257844" lon="120.090042">
				<speed>0.000000</speed>
				<ele>60.000000</ele>
				<time>2026-08-17T04:54:28Z</time>
			</trkpt>
			<trkpt lat="30.257853" lon="120.090038">
				<speed>0.000000</speed>
				<ele>60.000000</ele>
				<time>2026-08-17T04:54:29Z</time>
			</trkpt>
			<trkpt lat="30.257862" lon="120.090034">
				<speed>0.000000</speed>
				<ele>60.000000</ele>
				<time>2026-08-17T04:54:30Z</time>
			</trkpt>
			<trkpt lat="30.257888" lon="120.090022">
				<speed>0.000000</speed>
				<ele>60.000000</ele>
				<time>2026-08-17T04:54:31Z</time>
			</trkpt>
			<trkpt lat="30.257896" lon="120.090023">
				<speed>0.000000</speed>
				<ele>60.000000</ele>
				<time>2026-08-17T04:54:32Z</time>
			</trkpt>
			<trkpt lat="30.257903" lon="120.090023">
				<speed>0.000000</speed>
				<ele>60.000000</ele>
				<time>2026-08-17T04:54:33Z</time>
			</trkpt>
			<trkpt lat="30.257911" lon="120.090024">
				<speed>0.000000</speed>
				<ele>60.000000</ele>
				<time>2026-08-17T04:54:34Z</time>
			</trkpt>
			<trkpt lat="30.257924" lon="120.090041">
				<speed>0.000000</speed>
				<ele>60.000000</ele>
				<time>2026-08-17T04:54:35Z</time>
			</trkpt>
			<trkpt lat="30.257927" lon="120.090049">
				<speed>0.000000</speed>
				<ele>60.000000</ele>
				<time>2026-08-17T04:54:36Z</time>
			</trkpt>
			<trkpt lat="30.257930" lon="120.090058">
				<speed>0.000000</speed>
				<ele>60.000000</ele>
				<time>2026-08-17T04:54:37Z</time>
			</trkpt>
			<trkpt lat="30.257933" lon="120.090067">
				<speed>0.000000</speed>
				<ele>59.000000</ele>
				<time>2026-08-17T04:54:38Z</time>
			</trkpt>
			<trkpt lat="30.257943" lon="120.090095">
				<speed>0.000000</speed>
				<ele>59.000000</ele>
				<time>2026-08-17T04:54:39Z</time>
			</trkpt>
			<trkpt lat="30.257947" lon="120.090105">
				<speed>0.000000</speed>
				<ele>59.000000</ele>
				<time>2026-08-17T04:54:40Z</time>
			</trkpt>
			<trkpt lat="30.257951" lon="120.090114">
				<speed>0.000000</speed>
				<ele>59.000000</ele>
				<time>2026-08-17T04:54:41Z</time>
			</trkpt>
			<trkpt lat="30.257955" lon="120.090124">
				<speed>0.000000</speed>
				<ele>59.000000</ele>
				<time>2026-08-17T04:54:42Z</time>
			</trkpt>
			<trkpt lat="30.257966" lon="120.090152">
				<speed>0.000000</speed>
				<ele>59.000000</ele>
				<time>2026-08-17T04:54:43Z</time>
			</trkpt>
			<trkpt lat="30.257969" lon="120.090161">
				<speed>0.000000</speed>
				<ele>59.000000</ele>
				<time>2026-08-17T04:54:44Z</time>
			</trkpt>
			<trkpt lat="30.257972" lon="120.090170">
				<speed>0.000000</speed>
				<ele>59.000000</ele>
				<time>2026-08-17T04:54:45Z</time>
			</trkpt>
			<trkpt lat="30.257975" lon="120.090179">
				<speed>0.000000</speed>
				<ele>59.000000</ele>
				<time>2026-08-17T04:54:46Z</time>
			</trkpt>
			<trkpt lat="30.257984" lon="120.090203">
				<speed>0.000000</speed>
				<ele>59.000000</ele>
				<time>2026-08-17T04:54:47Z</time>
			</trkpt>
			<trkpt lat="30.257987" lon="120.090212">
				<speed>0.000000</speed>
				<ele>60.000000</ele>
				<time>2026-08-17T04:54:55Z</time>
			</trkpt>
			<trkpt lat="30.257992" lon="120.090225">
				<speed>0.000000</speed>
				<ele>60.000000</ele>
				<time>2026-08-17T04:54:56Z</time>
			</trkpt>
			<trkpt lat="30.257995" lon="120.090230">
				<speed>0.000000</speed>
				<ele>60.000000</ele>
				<time>2026-08-17T04:54:57Z</time>
			</trkpt>
			<trkpt lat="30.257997" lon="120.090236">
				<speed>0.000000</speed>
				<ele>60.000000</ele>
				<time>2026-08-17T04:54:58Z</time>
			</trkpt>
			<trkpt lat="30.257999" lon="120.090241">
				<speed>0.000000</speed>
				<ele>60.000000</ele>
				<time>2026-08-17T04:54:59Z</time>
			</trkpt>
			<trkpt lat="30.258002" lon="120.090249">
				<speed>0.000000</speed>
				<ele>60.000000</ele>
				<time>2026-08-17T04:55:00Z</time>
			</trkpt>
			<trkpt lat="30.258004" lon="120.090256">
				<speed>0.000000</speed>
				<ele>60.000000</ele>
				<time>2026-08-17T04:55:01Z</time>
			</trkpt>
			<trkpt lat="30.258007" lon="120.090263">
				<speed>0.000000</speed>
				<ele>60.000000</ele>
				<time>2026-08-17T04:55:02Z</time>
			</trkpt>
			<trkpt lat="30.258014" lon="120.090285">
				<speed>0.000000</speed>
				<ele>60.000000</ele>
				<time>2026-08-17T04:55:03Z</time>
			</trkpt>
			<trkpt lat="30.258017" lon="120.090292">
				<speed>0.000000</speed>
				<ele>60.000000</ele>
				<time>2026-08-17T04:55:04Z</time>
			</trkpt>
			<trkpt lat="30.258019" lon="120.090300">
				<speed>0.000000</speed>
				<ele>61.000000</ele>
				<time>2026-08-17T04:55:05Z</time>
			</trkpt>
			<trkpt lat="30.258022" lon="120.090307">
				<speed>0.000000</speed>
				<ele>61.000000</ele>
				<time>2026-08-17T04:55:06Z</time>
			</trkpt>
			<trkpt lat="30.258030" lon="120.090332">
				<speed>0.000000</speed>
				<ele>61.000000</ele>
				<time>2026-08-17T04:55:07Z</time>
			</trkpt>
			<trkpt lat="30.258033" lon="120.090341">
				<speed>0.000000</speed>
				<ele>61.000000</ele>
				<time>2026-08-17T04:55:08Z</time>
			</trkpt>
			<trkpt lat="30.258036" lon="120.090349">
				<speed>0.000000</speed>
				<ele>61.000000</ele>
				<time>2026-08-17T04:55:09Z</time>
			</trkpt>
			<trkpt lat="30.258039" lon="120.090358">
				<speed>0.000000</speed>
				<ele>61.000000</ele>
				<time>2026-08-17T04:55:10Z</time>
			</trkpt>
			<trkpt lat="30.258047" lon="120.090384">
				<speed>0.000000</speed>
				<ele>61.000000</ele>
				<time>2026-08-17T04:55:11Z</time>
			</trkpt>
			<trkpt lat="30.258050" lon="120.090393">
				<speed>0.000000</speed>
				<ele>61.000000</ele>
				<time>2026-08-17T04:55:12Z</time>
			</trkpt>
			<trkpt lat="30.258053" lon="120.090402">
				<speed>0.000000</speed>
				<ele>62.000000</ele>
				<time>2026-08-17T04:55:13Z</time>
			</trkpt>
			<trkpt lat="30.258055" lon="120.090411">
				<speed>0.000000</speed>
				<ele>62.000000</ele>
				<time>2026-08-17T04:55:14Z</time>
			</trkpt>
			<trkpt lat="30.258065" lon="120.090436">
				<speed>0.000000</speed>
				<ele>62.000000</ele>
				<time>2026-08-17T04:55:15Z</time>
			</trkpt>
			<trkpt lat="30.258068" lon="120.090443">
				<speed>0.000000</speed>
				<ele>62.000000</ele>
				<time>2026-08-17T04:55:16Z</time>
			</trkpt>
			<trkpt lat="30.258072" lon="120.090451">
				<speed>0.000000</speed>
				<ele>62.000000</ele>
				<time>2026-08-17T04:55:17Z</time>
			</trkpt>
			<trkpt lat="30.258076" lon="120.090458">
				<speed>0.000000</speed>
				<ele>62.000000</ele>
				<time>2026-08-17T04:55:18Z</time>
			</trkpt>
			<trkpt lat="30.258087" lon="120.090476">
				<speed>0.000000</speed>
				<ele>62.000000</ele>
				<time>2026-08-17T04:55:19Z</time>
			</trkpt>
			<trkpt lat="30.258091" lon="120.090482">
				<speed>0.000000</speed>
				<ele>62.000000</ele>
				<time>2026-08-17T04:55:20Z</time>
			</trkpt>
			<trkpt lat="30.258094" lon="120.090487">
				<speed>0.000000</speed>
				<ele>63.000000</ele>
				<time>2026-08-17T04:55:21Z</time>
			</trkpt>
			<trkpt lat="30.258097" lon="120.090493">
				<speed>0.000000</speed>
				<ele>63.000000</ele>
				<time>2026-08-17T04:55:22Z</time>
			</trkpt>
			<trkpt lat="30.258098" lon="120.090512">
				<speed>0.000000</speed>
				<ele>63.000000</ele>
				<time>2026-08-17T04:55:23Z</time>
			</trkpt>
			<trkpt lat="30.258096" lon="120.090518">
				<speed>0.000000</speed>
				<ele>63.000000</ele>
				<time>2026-08-17T04:55:24Z</time>
			</trkpt>
			<trkpt lat="30.258094" lon="120.090525">
				<speed>0.000000</speed>
				<ele>63.000000</ele>
				<time>2026-08-17T04:55:25Z</time>
			</trkpt>
			<trkpt lat="30.258092" lon="120.090531">
				<speed>0.000000</speed>
				<ele>63.000000</ele>
				<time>2026-08-17T04:55:26Z</time>
			</trkpt>
			<trkpt lat="30.258077" lon="120.090552">
				<speed>0.000000</speed>
				<ele>65.000000</ele>
				<time>2026-08-17T04:55:40Z</time>
			</trkpt>
			<trkpt lat="30.258063" lon="120.090566">
				<speed>0.000000</speed>
				<ele>66.000000</ele>
				<time>2026-08-17T04:55:41Z</time>
			</trkpt>
			<trkpt lat="30.258059" lon="120.090570">
				<speed>0.000000</speed>
				<ele>66.000000</ele>
				<time>2026-08-17T04:55:42Z</time>
			</trkpt>
			<trkpt lat="30.258054" lon="120.090574">
				<speed>0.000000</speed>
				<ele>66.000000</ele>
				<time>2026-08-17T04:55:43Z</time>
			</trkpt>
			<trkpt lat="30.258050" lon="120.090579">
				<speed>0.000000</speed>
				<ele>66.000000</ele>
				<time>2026-08-17T04:55:44Z</time>
			</trkpt>
			<trkpt lat="30.258030" lon="120.090593">
				<speed>0.000000</speed>
				<ele>66.000000</ele>
				<time>2026-08-17T04:55:45Z</time>
			</trkpt>
			<trkpt lat="30.258023" lon="120.090598">
				<speed>0.000000</speed>
				<ele>66.000000</ele>
				<time>2026-08-17T04:55:46Z</time>
			</trkpt>
			<trkpt lat="30.258015" lon="120.090602">
				<speed>0.000000</speed>
				<ele>66.000000</ele>
				<time>2026-08-17T04:55:47Z</time>
			</trkpt>
			<trkpt lat="30.258007" lon="120.090607">
				<speed>0.000000</speed>
				<ele>66.000000</ele>
				<time>2026-08-17T04:55:48Z</time>
			</trkpt>
			<trkpt lat="30.257984" lon="120.090621">
				<speed>0.000000</speed>
				<ele>66.000000</ele>
				<time>2026-08-17T04:55:49Z</time>
			</trkpt>
			<trkpt lat="30.257977" lon="120.090625">
				<speed>0.000000</speed>
				<ele>66.000000</ele>
				<time>2026-08-17T04:55:50Z</time>
			</trkpt>
			<trkpt lat="30.257969" lon="120.090629">
				<speed>0.000000</speed>
				<ele>66.000000</ele>
				<time>2026-08-17T04:55:51Z</time>
			</trkpt>
			<trkpt lat="30.257961" lon="120.090634">
				<speed>0.000000</speed>
				<ele>66.000000</ele>
				<time>2026-08-17T04:55:52Z</time>
			</trkpt>
			<trkpt lat="30.257938" lon="120.090645">
				<speed>0.000000</speed>
				<ele>66.000000</ele>
				<time>2026-08-17T04:55:53Z</time>
			</trkpt>
			<trkpt lat="30.257930" lon="120.090648">
				<speed>0.000000</speed>
				<ele>66.000000</ele>
				<time>2026-08-17T04:55:54Z</time>
			</trkpt>
			<trkpt lat="30.257923" lon="120.090652">
				<speed>0.000000</speed>
				<ele>66.000000</ele>
				<time>2026-08-17T04:55:55Z</time>
			</trkpt>
			<trkpt lat="30.257915" lon="120.090656">
				<speed>0.000000</speed>
				<ele>66.000000</ele>
				<time>2026-08-17T04:55:56Z</time>
			</trkpt>
			<trkpt lat="30.257892" lon="120.090668">
				<speed>0.000000</speed>
				<ele>66.000000</ele>
				<time>2026-08-17T04:55:57Z</time>
			</trkpt>
			<trkpt lat="30.257885" lon="120.090673">
				<speed>0.000000</speed>
				<ele>66.000000</ele>
				<time>2026-08-17T04:55:58Z</time>
			</trkpt>
			<trkpt lat="30.257878" lon="120.090678">
				<speed>0.000000</speed>
				<ele>66.000000</ele>
				<time>2026-08-17T04:55:59Z</time>
			</trkpt>
			<trkpt lat="30.257871" lon="120.090683">
				<speed>0.000000</speed>
				<ele>66.000000</ele>
				<time>2026-08-17T04:56:00Z</time>
			</trkpt>
			<trkpt lat="30.257867" lon="120.090686">
				<speed>0.000000</speed>
				<ele>66.000000</ele>
				<time>2026-08-17T04:56:01Z</time>
			</trkpt>
			<trkpt lat="30.257863" lon="120.090689">
				<speed>0.000000</speed>
				<ele>66.000000</ele>
				<time>2026-08-17T04:56:02Z</time>
			</trkpt>
			<trkpt lat="30.257858" lon="120.090693">
				<speed>0.000000</speed>
				<ele>66.000000</ele>
				<time>2026-08-17T04:56:03Z</time>
			</trkpt>
			<trkpt lat="30.257854" lon="120.090696">
				<speed>0.000000</speed>
				<ele>66.000000</ele>
				<time>2026-08-17T04:56:04Z</time>
			</trkpt>
			<trkpt lat="30.257845" lon="120.090707">
				<speed>0.000000</speed>
				<ele>66.000000</ele>
				<time>2026-08-17T04:56:05Z</time>
			</trkpt>
			<trkpt lat="30.257841" lon="120.090711">
				<speed>0.000000</speed>
				<ele>66.000000</ele>
				<time>2026-08-17T04:56:06Z</time>
			</trkpt>
			<trkpt lat="30.257837" lon="120.090715">
				<speed>0.000000</speed>
				<ele>66.000000</ele>
				<time>2026-08-17T04:56:07Z</time>
			</trkpt>
			<trkpt lat="30.257833" lon="120.090719">
				<speed>0.000000</speed>
				<ele>66.000000</ele>
				<time>2026-08-17T04:56:08Z</time>
			</trkpt>
			<trkpt lat="30.257815" lon="120.090733">
				<speed>0.000000</speed>
				<ele>67.000000</ele>
				<time>2026-08-17T04:56:09Z</time>
			</trkpt>
			<trkpt lat="30.257809" lon="120.090738">
				<speed>0.000000</speed>
				<ele>67.000000</ele>
				<time>2026-08-17T04:56:10Z</time>
			</trkpt>
			<trkpt lat="30.257802" lon="120.090743">
				<speed>0.000000</speed>
				<ele>67.000000</ele>
				<time>2026-08-17T04:56:11Z</time>
			</trkpt>
			<trkpt lat="30.257795" lon="120.090748">
				<speed>0.000000</speed>
				<ele>67.000000</ele>
				<time>2026-08-17T04:56:12Z</time>
			</trkpt>
			<trkpt lat="30.257772" lon="120.090761">
				<speed>0.000000</speed>
				<ele>67.000000</ele>
				<time>2026-08-17T04:56:13Z</time>
			</trkpt>
			<trkpt lat="30.257764" lon="120.090766">
				<speed>0.000000</speed>
				<ele>67.000000</ele>
				<time>2026-08-17T04:56:14Z</time>
			</trkpt>
			<trkpt lat="30.257755" lon="120.090770">
				<speed>0.000000</speed>
				<ele>67.000000</ele>
				<time>2026-08-17T04:56:15Z</time>
			</trkpt>
			<trkpt lat="30.257746" lon="120.090774">
				<speed>0.000000</speed>
				<ele>67.000000</ele>
				<time>2026-08-17T04:56:16Z</time>
			</trkpt>
			<trkpt lat="30.257718" lon="120.090786">
				<speed>0.000000</speed>
				<ele>67.000000</ele>
				<time>2026-08-17T04:56:17Z</time>
			</trkpt>
			<trkpt lat="30.257709" lon="120.090790">
				<speed>0.000000</speed>
				<ele>67.000000</ele>
				<time>2026-08-17T04:56:18Z</time>
			</trkpt>
			<trkpt lat="30.257700" lon="120.090793">
				<speed>0.000000</speed>
				<ele>67.000000</ele>
				<time>2026-08-17T04:56:19Z</time>
			</trkpt>
			<trkpt lat="30.257690" lon="120.090797">
				<speed>0.000000</speed>
				<ele>67.000000</ele>
				<time>2026-08-17T04:56:20Z</time>
			</trkpt>
			<trkpt lat="30.257664" lon="120.090807">
				<speed>0.000000</speed>
				<ele>67.000000</ele>
				<time>2026-08-17T04:56:21Z</time>
			</trkpt>
			<trkpt lat="30.257655" lon="120.090810">
				<speed>0.000000</speed>
				<ele>67.000000</ele>
				<time>2026-08-17T04:56:22Z</time>
			</trkpt>
			<trkpt lat="30.257647" lon="120.090812">
				<speed>0.000000</speed>
				<ele>67.000000</ele>
				<time>2026-08-17T04:56:23Z</time>
			</trkpt>
			<trkpt lat="30.257638" lon="120.090815">
				<speed>0.000000</speed>
				<ele>67.000000</ele>
				<time>2026-08-17T04:56:24Z</time>
			</trkpt>
			<trkpt lat="30.257608" lon="120.090824">
				<speed>0.000000</speed>
				<ele>67.000000</ele>
				<time>2026-08-17T04:56:25Z</time>
			</trkpt>
			<trkpt lat="30.257596" lon="120.090829">
				<speed>0.000000</speed>
				<ele>67.000000</ele>
				<time>2026-08-17T04:56:26Z</time>
			</trkpt>
			<trkpt lat="30.257584" lon="120.090833">
				<speed>0.000000</speed>
				<ele>67.000000</ele>
				<time>2026-08-17T04:56:27Z</time>
			</trkpt>
			<trkpt lat="30.257572" lon="120.090838">
				<speed>0.000000</speed>
				<ele>67.000000</ele>
				<time>2026-08-17T04:56:28Z</time>
			</trkpt>
			<trkpt lat="30.257528" lon="120.090859">
				<speed>0.000000</speed>
				<ele>67.000000</ele>
				<time>2026-08-17T04:56:29Z</time>
			</trkpt>
			<trkpt lat="30.257512" lon="120.090869">
				<speed>0.000000</speed>
				<ele>67.000000</ele>
				<time>2026-08-17T04:56:30Z</time>
			</trkpt>
			<trkpt lat="30.257496" lon="120.090878">
				<speed>0.000000</speed>
				<ele>67.000000</ele>
				<time>2026-08-17T04:56:31Z</time>
			</trkpt>
			<trkpt lat="30.257480" lon="120.090888">
				<speed>0.000000</speed>
				<ele>67.000000</ele>
				<time>2026-08-17T04:56:32Z</time>
			</trkpt>
			<trkpt lat="30.257432" lon="120.090922">
				<speed>0.000000</speed>
				<ele>68.000000</ele>
				<time>2026-08-17T04:56:33Z</time>
			</trkpt>
			<trkpt lat="30.257420" lon="120.090932">
				<speed>0.000000</speed>
				<ele>68.000000</ele>
				<time>2026-08-17T04:56:34Z</time>
			</trkpt>
			<trkpt lat="30.257407" lon="120.090942">
				<speed>0.000000</speed>
				<ele>68.000000</ele>
				<time>2026-08-17T04:56:35Z</time>
			</trkpt>
			<trkpt lat="30.257394" lon="120.090953">
				<speed>0.000000</speed>
				<ele>68.000000</ele>
				<time>2026-08-17T04:56:36Z</time>
			</trkpt>
			<trkpt lat="30.257369" lon="120.090975">
				<speed>0.000000</speed>
				<ele>69.000000</ele>
				<time>2026-08-17T04:56:37Z</time>
			</trkpt>
			<trkpt lat="30.257363" lon="120.090982">
				<speed>0.000000</speed>
				<ele>69.000000</ele>
				<time>2026-08-17T04:56:38Z</time>
			</trkpt>
			<trkpt lat="30.257357" lon="120.090988">
				<speed>0.000000</speed>
				<ele>69.000000</ele>
				<time>2026-08-17T04:56:39Z</time>
			</trkpt>
			<trkpt lat="30.257351" lon="120.090995">
				<speed>0.000000</speed>
				<ele>69.000000</ele>
				<time>2026-08-17T04:56:40Z</time>
			</trkpt>
			<trkpt lat="30.257334" lon="120.091015">
				<speed>0.000000</speed>
				<ele>69.000000</ele>
				<time>2026-08-17T04:56:41Z</time>
			</trkpt>
			<trkpt lat="30.257328" lon="120.091021">
				<speed>0.000000</speed>
				<ele>69.000000</ele>
				<time>2026-08-17T04:56:42Z</time>
			</trkpt>
			<trkpt lat="30.257321" lon="120.091027">
				<speed>0.000000</speed>
				<ele>69.000000</ele>
				<time>2026-08-17T04:56:43Z</time>
			</trkpt>
			<trkpt lat="30.257314" lon="120.091033">
				<speed>0.000000</speed>
				<ele>69.000000</ele>
				<time>2026-08-17T04:56:44Z</time>
			</trkpt>
			<trkpt lat="30.257292" lon="120.091049">
				<speed>0.000000</speed>
				<ele>70.000000</ele>
				<time>2026-08-17T04:56:45Z</time>
			</trkpt>
			<trkpt lat="30.257286" lon="120.091054">
				<speed>0.000000</speed>
				<ele>70.000000</ele>
				<time>2026-08-17T04:56:46Z</time>
			</trkpt>
			<trkpt lat="30.257279" lon="120.091060">
				<speed>0.000000</speed>
				<ele>70.000000</ele>
				<time>2026-08-17T04:56:47Z</time>
			</trkpt>
			<trkpt lat="30.257272" lon="120.091065">
				<speed>0.000000</speed>
				<ele>70.000000</ele>
				<time>2026-08-17T04:56:48Z</time>
			</trkpt>
			<trkpt lat="30.257251" lon="120.091081">
				<speed>0.000000</speed>
				<ele>70.000000</ele>
				<time>2026-08-17T04:56:49Z</time>
			</trkpt>
			<trkpt lat="30.257244" lon="120.091087">
				<speed>0.000000</speed>
				<ele>70.000000</ele>
				<time>2026-08-17T04:56:50Z</time>
			</trkpt>
			<trkpt lat="30.257236" lon="120.091093">
				<speed>0.000000</speed>
				<ele>70.000000</ele>
				<time>2026-08-17T04:56:51Z</time>
			</trkpt>
			<trkpt lat="30.257229" lon="120.091099">
				<speed>0.000000</speed>
				<ele>70.000000</ele>
				<time>2026-08-17T04:56:52Z</time>
			</trkpt>
			<trkpt lat="30.257208" lon="120.091120">
				<speed>0.000000</speed>
				<ele>70.000000</ele>
				<time>2026-08-17T04:56:53Z</time>
			</trkpt>
			<trkpt lat="30.257201" lon="120.091127">
				<speed>0.000000</speed>
				<ele>70.000000</ele>
				<time>2026-08-17T04:56:54Z</time>
			</trkpt>
			<trkpt lat="30.257194" lon="120.091134">
				<speed>0.000000</speed>
				<ele>70.000000</ele>
				<time>2026-08-17T04:56:55Z</time>
			</trkpt>
			<trkpt lat="30.257188" lon="120.091141">
				<speed>0.000000</speed>
				<ele>70.000000</ele>
				<time>2026-08-17T04:56:56Z</time>
			</trkpt>
			<trkpt lat="30.257170" lon="120.091161">
				<speed>0.000000</speed>
				<ele>71.000000</ele>
				<time>2026-08-17T04:56:57Z</time>
			</trkpt>
			<trkpt lat="30.257163" lon="120.091168">
				<speed>0.000000</speed>
				<ele>71.000000</ele>
				<time>2026-08-17T04:56:58Z</time>
			</trkpt>
			<trkpt lat="30.257157" lon="120.091175">
				<speed>0.000000</speed>
				<ele>71.000000</ele>
				<time>2026-08-17T04:56:59Z</time>
			</trkpt>
			<trkpt lat="30.257151" lon="120.091182">
				<speed>0.000000</speed>
				<ele>71.000000</ele>
				<time>2026-08-17T04:57:00Z</time>
			</trkpt>
			<trkpt lat="30.257131" lon="120.091202">
				<speed>0.000000</speed>
				<ele>71.000000</ele>
				<time>2026-08-17T04:57:01Z</time>
			</trkpt>
			<trkpt lat="30.257124" lon="120.091209">
				<speed>0.000000</speed>
				<ele>71.000000</ele>
				<time>2026-08-17T04:57:02Z</time>
			</trkpt>
			<trkpt lat="30.257118" lon="120.091215">
				<speed>0.000000</speed>
				<ele>71.000000</ele>
				<time>2026-08-17T04:57:03Z</time>
			</trkpt>
			<trkpt lat="30.257111" lon="120.091221">
				<speed>0.000000</speed>
				<ele>71.000000</ele>
				<time>2026-08-17T04:57:04Z</time>
			</trkpt>
			<trkpt lat="30.257092" lon="120.091239">
				<speed>0.000000</speed>
				<ele>71.000000</ele>
				<time>2026-08-17T04:57:05Z</time>
			</trkpt>
			<trkpt lat="30.257086" lon="120.091245">
				<speed>0.000000</speed>
				<ele>71.000000</ele>
				<time>2026-08-17T04:57:06Z</time>
			</trkpt>
			<trkpt lat="30.257080" lon="120.091251">
				<speed>0.000000</speed>
				<ele>71.000000</ele>
				<time>2026-08-17T04:57:07Z</time>
			</trkpt>
			<trkpt lat="30.257075" lon="120.091258">
				<speed>0.000000</speed>
				<ele>71.000000</ele>
				<time>2026-08-17T04:57:08Z</time>
			</trkpt>
			<trkpt lat="30.257056" lon="120.091277">
				<speed>0.000000</speed>
				<ele>72.000000</ele>
				<time>2026-08-17T04:57:09Z</time>
			</trkpt>
			<trkpt lat="30.257050" lon="120.091285">
				<speed>0.000000</speed>
				<ele>72.000000</ele>
				<time>2026-08-17T04:57:10Z</time>
			</trkpt>
			<trkpt lat="30.257044" lon="120.091292">
				<speed>0.000000</speed>
				<ele>72.000000</ele>
				<time>2026-08-17T04:57:11Z</time>
			</trkpt>
			<trkpt lat="30.257038" lon="120.091300">
				<speed>0.000000</speed>
				<ele>72.000000</ele>
				<time>2026-08-17T04:57:12Z</time>
			</trkpt>
			<trkpt lat="30.257019" lon="120.091322">
				<speed>0.000000</speed>
				<ele>72.000000</ele>
				<time>2026-08-17T04:57:13Z</time>
			</trkpt>
			<trkpt lat="30.257013" lon="120.091328">
				<speed>0.000000</speed>
				<ele>72.000000</ele>
				<time>2026-08-17T04:57:14Z</time>
			</trkpt>
			<trkpt lat="30.257006" lon="120.091335">
				<speed>0.000000</speed>
				<ele>72.000000</ele>
				<time>2026-08-17T04:57:15Z</time>
			</trkpt>
			<trkpt lat="30.256999" lon="120.091341">
				<speed>0.000000</speed>
				<ele>72.000000</ele>
				<time>2026-08-17T04:57:16Z</time>
			</trkpt>
			<trkpt lat="30.256978" lon="120.091358">
				<speed>0.000000</speed>
				<ele>72.000000</ele>
				<time>2026-08-17T04:57:17Z</time>
			</trkpt>
			<trkpt lat="30.256971" lon="120.091365">
				<speed>0.000000</speed>
				<ele>72.000000</ele>
				<time>2026-08-17T04:57:18Z</time>
			</trkpt>
			<trkpt lat="30.256964" lon="120.091371">
				<speed>0.000000</speed>
				<ele>72.000000</ele>
				<time>2026-08-17T04:57:19Z</time>
			</trkpt>
			<trkpt lat="30.256957" lon="120.091378">
				<speed>0.000000</speed>
				<ele>72.000000</ele>
				<time>2026-08-17T04:57:20Z</time>
			</trkpt>
			<trkpt lat="30.256934" lon="120.091403">
				<speed>0.000000</speed>
				<ele>72.000000</ele>
				<time>2026-08-17T04:57:21Z</time>
			</trkpt>
			<trkpt lat="30.256927" lon="120.091413">
				<speed>0.000000</speed>
				<ele>72.000000</ele>
				<time>2026-08-17T04:57:22Z</time>
			</trkpt>
			<trkpt lat="30.256920" lon="120.091423">
				<speed>0.000000</speed>
				<ele>72.000000</ele>
				<time>2026-08-17T04:57:23Z</time>
			</trkpt>
			<trkpt lat="30.256913" lon="120.091433">
				<speed>0.000000</speed>
				<ele>72.000000</ele>
				<time>2026-08-17T04:57:24Z</time>
			</trkpt>
			<trkpt lat="30.256895" lon="120.091464">
				<speed>0.000000</speed>
				<ele>73.000000</ele>
				<time>2026-08-17T04:57:25Z</time>
			</trkpt>
			<trkpt lat="30.256889" lon="120.091475">
				<speed>0.000000</speed>
				<ele>73.000000</ele>
				<time>2026-08-17T04:57:26Z</time>
			</trkpt>
			<trkpt lat="30.256884" lon="120.091486">
				<speed>0.000000</speed>
				<ele>73.000000</ele>
				<time>2026-08-17T04:57:27Z</time>
			</trkpt>
			<trkpt lat="30.256878" lon="120.091496">
				<speed>0.000000</speed>
				<ele>73.000000</ele>
				<time>2026-08-17T04:57:28Z</time>
			</trkpt>
			<trkpt lat="30.256861" lon="120.091529">
				<speed>0.000000</speed>
				<ele>73.000000</ele>
				<time>2026-08-17T04:57:29Z</time>
			</trkpt>
			<trkpt lat="30.256857" lon="120.091540">
				<speed>0.000000</speed>
				<ele>73.000000</ele>
				<time>2026-08-17T04:57:30Z</time>
			</trkpt>
			<trkpt lat="30.256852" lon="120.091551">
				<speed>0.000000</speed>
				<ele>73.000000</ele>
				<time>2026-08-17T04:57:31Z</time>
			</trkpt>
			<trkpt lat="30.256847" lon="120.091562">
				<speed>0.000000</speed>
				<ele>73.000000</ele>
				<time>2026-08-17T04:57:32Z</time>
			</trkpt>
			<trkpt lat="30.256834" lon="120.091594">
				<speed>0.000000</speed>
				<ele>73.000000</ele>
				<time>2026-08-17T04:57:33Z</time>
			</trkpt>
			<trkpt lat="30.256831" lon="120.091604">
				<speed>0.000000</speed>
				<ele>73.000000</ele>
				<time>2026-08-17T04:57:34Z</time>
			</trkpt>
			<trkpt lat="30.256828" lon="120.091614">
				<speed>0.000000</speed>
				<ele>73.000000</ele>
				<time>2026-08-17T04:57:35Z</time>
			</trkpt>
			<trkpt lat="30.256824" lon="120.091624">
				<speed>0.000000</speed>
				<ele>73.000000</ele>
				<time>2026-08-17T04:57:36Z</time>
			</trkpt>
			<trkpt lat="30.256818" lon="120.091653">
				<speed>0.000000</speed>
				<ele>74.000000</ele>
				<time>2026-08-17T04:57:37Z</time>
			</trkpt>
			<trkpt lat="30.256817" lon="120.091663">
				<speed>0.000000</speed>
				<ele>74.000000</ele>
				<time>2026-08-17T04:57:38Z</time>
			</trkpt>
			<trkpt lat="30.256815" lon="120.091673">
				<speed>0.000000</speed>
				<ele>74.000000</ele>
				<time>2026-08-17T04:57:39Z</time>
			</trkpt>
			<trkpt lat="30.256814" lon="120.091683">
				<speed>0.000000</speed>
				<ele>74.000000</ele>
				<time>2026-08-17T04:57:40Z</time>
			</trkpt>
			<trkpt lat="30.256808" lon="120.091715">
				<speed>0.000000</speed>
				<ele>74.000000</ele>
				<time>2026-08-17T04:57:41Z</time>
			</trkpt>
			<trkpt lat="30.256806" lon="120.091726">
				<speed>0.000000</speed>
				<ele>74.000000</ele>
				<time>2026-08-17T04:57:42Z</time>
			</trkpt>
			<trkpt lat="30.256804" lon="120.091737">
				<speed>0.000000</speed>
				<ele>74.000000</ele>
				<time>2026-08-17T04:57:43Z</time>
			</trkpt>
			<trkpt lat="30.256802" lon="120.091749">
				<speed>0.000000</speed>
				<ele>74.000000</ele>
				<time>2026-08-17T04:57:44Z</time>
			</trkpt>
			<trkpt lat="30.256795" lon="120.091782">
				<speed>0.000000</speed>
				<ele>74.000000</ele>
				<time>2026-08-17T04:57:45Z</time>
			</trkpt>
			<trkpt lat="30.256793" lon="120.091793">
				<speed>0.000000</speed>
				<ele>74.000000</ele>
				<time>2026-08-17T04:57:46Z</time>
			</trkpt>
			<trkpt lat="30.256791" lon="120.091804">
				<speed>0.000000</speed>
				<ele>74.000000</ele>
				<time>2026-08-17T04:57:47Z</time>
			</trkpt>
			<trkpt lat="30.256789" lon="120.091815">
				<speed>0.000000</speed>
				<ele>74.000000</ele>
				<time>2026-08-17T04:57:48Z</time>
			</trkpt>
			<trkpt lat="30.256783" lon="120.091845">
				<speed>0.000000</speed>
				<ele>75.000000</ele>
				<time>2026-08-17T04:57:49Z</time>
			</trkpt>
			<trkpt lat="30.256781" lon="120.091855">
				<speed>0.000000</speed>
				<ele>75.000000</ele>
				<time>2026-08-17T04:57:50Z</time>
			</trkpt>
			<trkpt lat="30.256779" lon="120.091865">
				<speed>0.000000</speed>
				<ele>75.000000</ele>
				<time>2026-08-17T04:57:51Z</time>
			</trkpt>
			<trkpt lat="30.256777" lon="120.091875">
				<speed>0.000000</speed>
				<ele>75.000000</ele>
				<time>2026-08-17T04:57:52Z</time>
			</trkpt>
			<trkpt lat="30.256771" lon="120.091904">
				<speed>0.000000</speed>
				<ele>75.000000</ele>
				<time>2026-08-17T04:57:53Z</time>
			</trkpt>
			<trkpt lat="30.256769" lon="120.091914">
				<speed>0.000000</speed>
				<ele>75.000000</ele>
				<time>2026-08-17T04:57:54Z</time>
			</trkpt>
			<trkpt lat="30.256767" lon="120.091924">
				<speed>0.000000</speed>
				<ele>75.000000</ele>
				<time>2026-08-17T04:57:55Z</time>
			</trkpt>
			<trkpt lat="30.256765" lon="120.091934">
				<speed>0.000000</speed>
				<ele>75.000000</ele>
				<time>2026-08-17T04:57:56Z</time>
			</trkpt>
			<trkpt lat="30.256759" lon="120.091965">
				<speed>0.000000</speed>
				<ele>76.000000</ele>
				<time>2026-08-17T04:57:57Z</time>
			</trkpt>
			<trkpt lat="30.256757" lon="120.091976">
				<speed>0.000000</speed>
				<ele>76.000000</ele>
				<time>2026-08-17T04:57:58Z</time>
			</trkpt>
			<trkpt lat="30.256755" lon="120.091987">
				<speed>0.000000</speed>
				<ele>76.000000</ele>
				<time>2026-08-17T04:57:59Z</time>
			</trkpt>
			<trkpt lat="30.256754" lon="120.091998">
				<speed>0.000000</speed>
				<ele>76.000000</ele>
				<time>2026-08-17T04:58:00Z</time>
			</trkpt>
			<trkpt lat="30.256747" lon="120.092030">
				<speed>0.000000</speed>
				<ele>76.000000</ele>
				<time>2026-08-17T04:58:01Z</time>
			</trkpt>
			<trkpt lat="30.256744" lon="120.092040">
				<speed>0.000000</speed>
				<ele>76.000000</ele>
				<time>2026-08-17T04:58:02Z</time>
			</trkpt>
			<trkpt lat="30.256741" lon="120.092051">
				<speed>0.000000</speed>
				<ele>76.000000</ele>
				<time>2026-08-17T04:58:03Z</time>
			</trkpt>
			<trkpt lat="30.256738" lon="120.092061">
				<speed>0.000000</speed>
				<ele>76.000000</ele>
				<time>2026-08-17T04:58:04Z</time>
			</trkpt>
			<trkpt lat="30.256726" lon="120.092090">
				<speed>0.000000</speed>
				<ele>76.000000</ele>
				<time>2026-08-17T04:58:05Z</time>
			</trkpt>
			<trkpt lat="30.256721" lon="120.092099">
				<speed>0.000000</speed>
				<ele>76.000000</ele>
				<time>2026-08-17T04:58:06Z</time>
			</trkpt>
			<trkpt lat="30.256717" lon="120.092109">
				<speed>0.000000</speed>
				<ele>76.000000</ele>
				<time>2026-08-17T04:58:07Z</time>
			</trkpt>
			<trkpt lat="30.256713" lon="120.092118">
				<speed>0.000000</speed>
				<ele>76.000000</ele>
				<time>2026-08-17T04:58:08Z</time>
			</trkpt>
			<trkpt lat="30.256701" lon="120.092147">
				<speed>0.000000</speed>
				<ele>77.000000</ele>
				<time>2026-08-17T04:58:09Z</time>
			</trkpt>
			<trkpt lat="30.256698" lon="120.092157">
				<speed>0.000000</speed>
				<ele>77.000000</ele>
				<time>2026-08-17T04:58:10Z</time>
			</trkpt>
			<trkpt lat="30.256694" lon="120.092167">
				<speed>0.000000</speed>
				<ele>77.000000</ele>
				<time>2026-08-17T04:58:11Z</time>
			</trkpt>
			<trkpt lat="30.256690" lon="120.092177">
				<speed>0.000000</speed>
				<ele>77.000000</ele>
				<time>2026-08-17T04:58:12Z</time>
			</trkpt>
			<trkpt lat="30.256681" lon="120.092206">
				<speed>0.000000</speed>
				<ele>77.000000</ele>
				<time>2026-08-17T04:58:13Z</time>
			</trkpt>
			<trkpt lat="30.256676" lon="120.092216">
				<speed>0.000000</speed>
				<ele>77.000000</ele>
				<time>2026-08-17T04:58:14Z</time>
			</trkpt>
			<trkpt lat="30.256673" lon="120.092226">
				<speed>0.000000</speed>
				<ele>77.000000</ele>
				<time>2026-08-17T04:58:15Z</time>
			</trkpt>
			<trkpt lat="30.256669" lon="120.092235">
				<speed>0.000000</speed>
				<ele>77.000000</ele>
				<time>2026-08-17T04:58:16Z</time>
			</trkpt>
			<trkpt lat="30.256655" lon="120.092262">
				<speed>0.000000</speed>
				<ele>78.000000</ele>
				<time>2026-08-17T04:58:17Z</time>
			</trkpt>
			<trkpt lat="30.256650" lon="120.092271">
				<speed>0.000000</speed>
				<ele>78.000000</ele>
				<time>2026-08-17T04:58:18Z</time>
			</trkpt>
			<trkpt lat="30.256645" lon="120.092279">
				<speed>0.000000</speed>
				<ele>78.000000</ele>
				<time>2026-08-17T04:58:19Z</time>
			</trkpt>
			<trkpt lat="30.256640" lon="120.092288">
				<speed>0.000000</speed>
				<ele>78.000000</ele>
				<time>2026-08-17T04:58:20Z</time>
			</trkpt>
			<trkpt lat="30.256627" lon="120.092314">
				<speed>0.000000</speed>
				<ele>78.000000</ele>
				<time>2026-08-17T04:58:21Z</time>
			</trkpt>
			<trkpt lat="30.256623" lon="120.092324">
				<speed>0.000000</speed>
				<ele>78.000000</ele>
				<time>2026-08-17T04:58:22Z</time>
			</trkpt>
			<trkpt lat="30.256619" lon="120.092333">
				<speed>0.000000</speed>
				<ele>78.000000</ele>
				<time>2026-08-17T04:58:23Z</time>
			</trkpt>
			<trkpt lat="30.256616" lon="120.092343">
				<speed>0.000000</speed>
				<ele>78.000000</ele>
				<time>2026-08-17T04:58:24Z</time>
			</trkpt>
			<trkpt lat="30.256608" lon="120.092373">
				<speed>0.000000</speed>
				<ele>79.000000</ele>
				<time>2026-08-17T04:58:25Z</time>
			</trkpt>
			<trkpt lat="30.256607" lon="120.092384">
				<speed>0.000000</speed>
				<ele>79.000000</ele>
				<time>2026-08-17T04:58:26Z</time>
			</trkpt>
			<trkpt lat="30.256605" lon="120.092395">
				<speed>0.000000</speed>
				<ele>79.000000</ele>
				<time>2026-08-17T04:58:27Z</time>
			</trkpt>
			<trkpt lat="30.256604" lon="120.092406">
				<speed>0.000000</speed>
				<ele>79.000000</ele>
				<time>2026-08-17T04:58:28Z</time>
			</trkpt>
			<trkpt lat="30.256605" lon="120.092440">
				<speed>0.000000</speed>
				<ele>79.000000</ele>
				<time>2026-08-17T04:58:29Z</time>
			</trkpt>
			<trkpt lat="30.256607" lon="120.092451">
				<speed>0.000000</speed>
				<ele>79.000000</ele>
				<time>2026-08-17T04:58:30Z</time>
			</trkpt>
			<trkpt lat="30.256609" lon="120.092462">
				<speed>0.000000</speed>
				<ele>79.000000</ele>
				<time>2026-08-17T04:58:31Z</time>
			</trkpt>
			<trkpt lat="30.256612" lon="120.092473">
				<speed>0.000000</speed>
				<ele>79.000000</ele>
				<time>2026-08-17T04:58:32Z</time>
			</trkpt>
			<trkpt lat="30.256623" lon="120.092501">
				<speed>0.000000</speed>
				<ele>79.000000</ele>
				<time>2026-08-17T04:58:33Z</time>
			</trkpt>
			<trkpt lat="30.256629" lon="120.092509">
				<speed>0.000000</speed>
				<ele>79.000000</ele>
				<time>2026-08-17T04:58:34Z</time>
			</trkpt>
			<trkpt lat="30.256634" lon="120.092516">
				<speed>0.000000</speed>
				<ele>79.000000</ele>
				<time>2026-08-17T04:58:35Z</time>
			</trkpt>
			<trkpt lat="30.256640" lon="120.092524">
				<speed>0.000000</speed>
				<ele>79.000000</ele>
				<time>2026-08-17T04:58:36Z</time>
			</trkpt>
			<trkpt lat="30.256660" lon="120.092540">
				<speed>0.000000</speed>
				<ele>80.000000</ele>
				<time>2026-08-17T04:58:37Z</time>
			</trkpt>
			<trkpt lat="30.256668" lon="120.092545">
				<speed>0.000000</speed>
				<ele>80.000000</ele>
				<time>2026-08-17T04:58:38Z</time>
			</trkpt>
			<trkpt lat="30.256675" lon="120.092549">
				<speed>0.000000</speed>
				<ele>80.000000</ele>
				<time>2026-08-17T04:58:39Z</time>
			</trkpt>
			<trkpt lat="30.256683" lon="120.092554">
				<speed>0.000000</speed>
				<ele>80.000000</ele>
				<time>2026-08-17T04:58:40Z</time>
			</trkpt>
			<trkpt lat="30.256706" lon="120.092565">
				<speed>0.000000</speed>
				<ele>80.000000</ele>
				<time>2026-08-17T04:58:41Z</time>
			</trkpt>
			<trkpt lat="30.256714" lon="120.092568">
				<speed>0.000000</speed>
				<ele>80.000000</ele>
				<time>2026-08-17T04:58:42Z</time>
			</trkpt>
			<trkpt lat="30.256722" lon="120.092571">
				<speed>0.000000</speed>
				<ele>80.000000</ele>
				<time>2026-08-17T04:58:43Z</time>
			</trkpt>
			<trkpt lat="30.256730" lon="120.092574">
				<speed>0.000000</speed>
				<ele>80.000000</ele>
				<time>2026-08-17T04:58:44Z</time>
			</trkpt>
			<trkpt lat="30.256757" lon="120.092580">
				<speed>0.000000</speed>
				<ele>80.000000</ele>
				<time>2026-08-17T04:58:45Z</time>
			</trkpt>
			<trkpt lat="30.256768" lon="120.092582">
				<speed>0.000000</speed>
				<ele>80.000000</ele>
				<time>2026-08-17T04:58:46Z</time>
			</trkpt>
			<trkpt lat="30.256779" lon="120.092584">
				<speed>0.000000</speed>
				<ele>80.000000</ele>
				<time>2026-08-17T04:58:47Z</time>
			</trkpt>
			<trkpt lat="30.256790" lon="120.092586">
				<speed>0.000000</speed>
				<ele>80.000000</ele>
				<time>2026-08-17T04:58:48Z</time>
			</trkpt>
			<trkpt lat="30.256834" lon="120.092591">
				<speed>0.000000</speed>
				<ele>80.000000</ele>
				<time>2026-08-17T04:58:49Z</time>
			</trkpt>
			<trkpt lat="30.256850" lon="120.092592">
				<speed>0.000000</speed>
				<ele>80.000000</ele>
				<time>2026-08-17T04:58:50Z</time>
			</trkpt>
			<trkpt lat="30.256867" lon="120.092594">
				<speed>0.000000</speed>
				<ele>80.000000</ele>
				<time>2026-08-17T04:58:51Z</time>
			</trkpt>
			<trkpt lat="30.256884" lon="120.092595">
				<speed>0.000000</speed>
				<ele>80.000000</ele>
				<time>2026-08-17T04:58:52Z</time>
			</trkpt>
			<trkpt lat="30.256939" lon="120.092602">
				<speed>0.000000</speed>
				<ele>80.000000</ele>
				<time>2026-08-17T04:58:53Z</time>
			</trkpt>
			<trkpt lat="30.256957" lon="120.092605">
				<speed>0.000000</speed>
				<ele>80.000000</ele>
				<time>2026-08-17T04:58:54Z</time>
			</trkpt>
			<trkpt lat="30.256976" lon="120.092607">
				<speed>0.000000</speed>
				<ele>80.000000</ele>
				<time>2026-08-17T04:58:55Z</time>
			</trkpt>
			<trkpt lat="30.256994" lon="120.092610">
				<speed>0.000000</speed>
				<ele>80.000000</ele>
				<time>2026-08-17T04:58:56Z</time>
			</trkpt>
			<trkpt lat="30.257048" lon="120.092616">
				<speed>0.000000</speed>
				<ele>80.000000</ele>
				<time>2026-08-17T04:58:57Z</time>
			</trkpt>
			<trkpt lat="30.257066" lon="120.092618">
				<speed>0.000000</speed>
				<ele>79.000000</ele>
				<time>2026-08-17T04:58:58Z</time>
			</trkpt>
			<trkpt lat="30.257084" lon="120.092621">
				<speed>0.000000</speed>
				<ele>79.000000</ele>
				<time>2026-08-17T04:58:59Z</time>
			</trkpt>
			<trkpt lat="30.257101" lon="120.092623">
				<speed>0.000000</speed>
				<ele>79.000000</ele>
				<time>2026-08-17T04:59:00Z</time>
			</trkpt>
			<trkpt lat="30.257154" lon="120.092631">
				<speed>0.000000</speed>
				<ele>79.000000</ele>
				<time>2026-08-17T04:59:01Z</time>
			</trkpt>
			<trkpt lat="30.257172" lon="120.092633">
				<speed>0.000000</speed>
				<ele>79.000000</ele>
				<time>2026-08-17T04:59:02Z</time>
			</trkpt>
			<trkpt lat="30.257190" lon="120.092636">
				<speed>0.000000</speed>
				<ele>79.000000</ele>
				<time>2026-08-17T04:59:03Z</time>
			</trkpt>
			<trkpt lat="30.257207" lon="120.092638">
				<speed>0.000000</speed>
				<ele>79.000000</ele>
				<time>2026-08-17T04:59:04Z</time>
			</trkpt>
			<trkpt lat="30.257263" lon="120.092640">
				<speed>0.000000</speed>
				<ele>79.000000</ele>
				<time>2026-08-17T04:59:05Z</time>
			</trkpt>
			<trkpt lat="30.257281" lon="120.092639">
				<speed>0.000000</speed>
				<ele>78.000000</ele>
				<time>2026-08-17T04:59:06Z</time>
			</trkpt>
			<trkpt lat="30.257300" lon="120.092639">
				<speed>0.000000</speed>
				<ele>78.000000</ele>
				<time>2026-08-17T04:59:07Z</time>
			</trkpt>
			<trkpt lat="30.257318" lon="120.092638">
				<speed>0.000000</speed>
				<ele>78.000000</ele>
				<time>2026-08-17T04:59:08Z</time>
			</trkpt>
			<trkpt lat="30.257370" lon="120.092636">
				<speed>0.000000</speed>
				<ele>78.000000</ele>
				<time>2026-08-17T04:59:09Z</time>
			</trkpt>
			<trkpt lat="30.257386" lon="120.092637">
				<speed>0.000000</speed>
				<ele>77.000000</ele>
				<time>2026-08-17T04:59:10Z</time>
			</trkpt>
			<trkpt lat="30.257402" lon="120.092639">
				<speed>0.000000</speed>
				<ele>77.000000</ele>
				<time>2026-08-17T04:59:11Z</time>
			</trkpt>
			<trkpt lat="30.257418" lon="120.092640">
				<speed>0.000000</speed>
				<ele>77.000000</ele>
				<time>2026-08-17T04:59:12Z</time>
			</trkpt>
			<trkpt lat="30.257465" lon="120.092658">
				<speed>0.000000</speed>
				<ele>77.000000</ele>
				<time>2026-08-17T04:59:13Z</time>
			</trkpt>
			<trkpt lat="30.257480" lon="120.092665">
				<speed>0.000000</speed>
				<ele>76.000000</ele>
				<time>2026-08-17T04:59:14Z</time>
			</trkpt>
			<trkpt lat="30.257495" lon="120.092673">
				<speed>0.000000</speed>
				<ele>76.000000</ele>
				<time>2026-08-17T04:59:15Z</time>
			</trkpt>
			<trkpt lat="30.257511" lon="120.092680">
				<speed>0.000000</speed>
				<ele>76.000000</ele>
				<time>2026-08-17T04:59:16Z</time>
			</trkpt>
			<trkpt lat="30.257551" lon="120.092699">
				<speed>0.000000</speed>
				<ele>76.000000</ele>
				<time>2026-08-17T04:59:17Z</time>
			</trkpt>
			<trkpt lat="30.257562" lon="120.092702">
				<speed>0.000000</speed>
				<ele>76.000000</ele>
				<time>2026-08-17T04:59:18Z</time>
			</trkpt>
			<trkpt lat="30.257573" lon="120.092706">
				<speed>0.000000</speed>
				<ele>76.000000</ele>
				<time>2026-08-17T04:59:19Z</time>
			</trkpt>
			<trkpt lat="30.257584" lon="120.092710">
				<speed>0.000000</speed>
				<ele>76.000000</ele>
				<time>2026-08-17T04:59:20Z</time>
			</trkpt>
			<trkpt lat="30.257606" lon="120.092717">
				<speed>0.000000</speed>
				<ele>76.000000</ele>
				<time>2026-08-17T04:59:21Z</time>
			</trkpt>
			<trkpt lat="30.257623" lon="120.092725">
				<speed>0.000000</speed>
				<ele>74.000000</ele>
				<time>2026-08-17T04:59:30Z</time>
			</trkpt>
			<trkpt lat="30.257636" lon="120.092730">
				<speed>0.000000</speed>
				<ele>74.000000</ele>
				<time>2026-08-17T04:59:31Z</time>
			</trkpt>
			<trkpt lat="30.257641" lon="120.092730">
				<speed>0.000000</speed>
				<ele>74.000000</ele>
				<time>2026-08-17T04:59:32Z</time>
			</trkpt>
			<trkpt lat="30.257645" lon="120.092730">
				<speed>0.000000</speed>
				<ele>74.000000</ele>
				<time>2026-08-17T04:59:33Z</time>
			</trkpt>
			<trkpt lat="30.257650" lon="120.092730">
				<speed>0.000000</speed>
				<ele>74.000000</ele>
				<time>2026-08-17T04:59:34Z</time>
			</trkpt>
			<trkpt lat="30.257666" lon="120.092728">
				<speed>0.000000</speed>
				<ele>74.000000</ele>
				<time>2026-08-17T04:59:35Z</time>
			</trkpt>
			<trkpt lat="30.257672" lon="120.092727">
				<speed>0.000000</speed>
				<ele>74.000000</ele>
				<time>2026-08-17T04:59:36Z</time>
			</trkpt>
			<trkpt lat="30.257677" lon="120.092726">
				<speed>0.000000</speed>
				<ele>74.000000</ele>
				<time>2026-08-17T04:59:37Z</time>
			</trkpt>
			<trkpt lat="30.257683" lon="120.092725">
				<speed>0.000000</speed>
				<ele>74.000000</ele>
				<time>2026-08-17T04:59:38Z</time>
			</trkpt>
			<trkpt lat="30.257699" lon="120.092723">
				<speed>0.000000</speed>
				<ele>74.000000</ele>
				<time>2026-08-17T04:59:39Z</time>
			</trkpt>
			<trkpt lat="30.257716" lon="120.092725">
				<speed>0.000000</speed>
				<ele>73.000000</ele>
				<time>2026-08-17T04:59:47Z</time>
			</trkpt>
			<trkpt lat="30.257742" lon="120.092727">
				<speed>0.000000</speed>
				<ele>73.000000</ele>
				<time>2026-08-17T04:59:51Z</time>
			</trkpt>
			<trkpt lat="30.257758" lon="120.092727">
				<speed>0.000000</speed>
				<ele>73.000000</ele>
				<time>2026-08-17T04:59:52Z</time>
			</trkpt>
			<trkpt lat="30.257764" lon="120.092726">
				<speed>0.000000</speed>
				<ele>73.000000</ele>
				<time>2026-08-17T04:59:53Z</time>
			</trkpt>
			<trkpt lat="30.257770" lon="120.092725">
				<speed>0.000000</speed>
				<ele>73.000000</ele>
				<time>2026-08-17T04:59:54Z</time>
			</trkpt>
			<trkpt lat="30.257777" lon="120.092724">
				<speed>0.000000</speed>
				<ele>73.000000</ele>
				<time>2026-08-17T04:59:55Z</time>
			</trkpt>
			<trkpt lat="30.257798" lon="120.092718">
				<speed>0.000000</speed>
				<ele>73.000000</ele>
				<time>2026-08-17T04:59:56Z</time>
			</trkpt>
			<trkpt lat="30.257805" lon="120.092715">
				<speed>0.000000</speed>
				<ele>73.000000</ele>
				<time>2026-08-17T04:59:57Z</time>
			</trkpt>
			<trkpt lat="30.257812" lon="120.092711">
				<speed>0.000000</speed>
				<ele>73.000000</ele>
				<time>2026-08-17T04:59:58Z</time>
			</trkpt>
			<trkpt lat="30.257820" lon="120.092708">
				<speed>0.000000</speed>
				<ele>73.000000</ele>
				<time>2026-08-17T04:59:59Z</time>
			</trkpt>
			<trkpt lat="30.257841" lon="120.092693">
				<speed>0.000000</speed>
				<ele>73.000000</ele>
				<time>2026-08-17T05:00:00Z</time>
			</trkpt>
			<trkpt lat="30.257848" lon="120.092688">
				<speed>0.000000</speed>
				<ele>73.000000</ele>
				<time>2026-08-17T05:00:01Z</time>
			</trkpt>
			<trkpt lat="30.257855" lon="120.092683">
				<speed>0.000000</speed>
				<ele>73.000000</ele>
				<time>2026-08-17T05:00:02Z</time>
			</trkpt>
			<trkpt lat="30.257862" lon="120.092678">
				<speed>0.000000</speed>
				<ele>73.000000</ele>
				<time>2026-08-17T05:00:03Z</time>
			</trkpt>
			<trkpt lat="30.257885" lon="120.092666">
				<speed>0.000000</speed>
				<ele>73.000000</ele>
				<time>2026-08-17T05:00:04Z</time>
			</trkpt>
			<trkpt lat="30.257893" lon="120.092664">
				<speed>0.000000</speed>
				<ele>73.000000</ele>
				<time>2026-08-17T05:00:05Z</time>
			</trkpt>
			<trkpt lat="30.257900" lon="120.092661">
				<speed>0.000000</speed>
				<ele>73.000000</ele>
				<time>2026-08-17T05:00:06Z</time>
			</trkpt>
			<trkpt lat="30.257908" lon="120.092659">
				<speed>0.000000</speed>
				<ele>73.000000</ele>
				<time>2026-08-17T05:00:07Z</time>
			</trkpt>
			<trkpt lat="30.257932" lon="120.092657">
				<speed>0.000000</speed>
				<ele>73.000000</ele>
				<time>2026-08-17T05:00:08Z</time>
			</trkpt>
			<trkpt lat="30.257941" lon="120.092657">
				<speed>0.000000</speed>
				<ele>73.000000</ele>
				<time>2026-08-17T05:00:09Z</time>
			</trkpt>
			<trkpt lat="30.257949" lon="120.092657">
				<speed>0.000000</speed>
				<ele>72.000000</ele>
				<time>2026-08-17T05:00:10Z</time>
			</trkpt>
			<trkpt lat="30.257958" lon="120.092657">
				<speed>0.000000</speed>
				<ele>72.000000</ele>
				<time>2026-08-17T05:00:11Z</time>
			</trkpt>
			<trkpt lat="30.257987" lon="120.092657">
				<speed>0.000000</speed>
				<ele>72.000000</ele>
				<time>2026-08-17T05:00:12Z</time>
			</trkpt>
			<trkpt lat="30.258000" lon="120.092655">
				<speed>0.000000</speed>
				<ele>72.000000</ele>
				<time>2026-08-17T05:00:13Z</time>
			</trkpt>
			<trkpt lat="30.258013" lon="120.092654">
				<speed>0.000000</speed>
				<ele>72.000000</ele>
				<time>2026-08-17T05:00:14Z</time>
			</trkpt>
			<trkpt lat="30.258026" lon="120.092653">
				<speed>0.000000</speed>
				<ele>72.000000</ele>
				<time>2026-08-17T05:00:15Z</time>
			</trkpt>
			<trkpt lat="30.258074" lon="120.092644">
				<speed>0.000000</speed>
				<ele>72.000000</ele>
				<time>2026-08-17T05:00:16Z</time>
			</trkpt>
			<trkpt lat="30.258092" lon="120.092638">
				<speed>0.000000</speed>
				<ele>72.000000</ele>
				<time>2026-08-17T05:00:17Z</time>
			</trkpt>
			<trkpt lat="30.258110" lon="120.092633">
				<speed>0.000000</speed>
				<ele>72.000000</ele>
				<time>2026-08-17T05:00:18Z</time>
			</trkpt>
			<trkpt lat="30.258127" lon="120.092627">
				<speed>0.000000</speed>
				<ele>72.000000</ele>
				<time>2026-08-17T05:00:19Z</time>
			</trkpt>
			<trkpt lat="30.258179" lon="120.092604">
				<speed>0.000000</speed>
				<ele>72.000000</ele>
				<time>2026-08-17T05:00:20Z</time>
			</trkpt>
			<trkpt lat="30.258196" lon="120.092597">
				<speed>0.000000</speed>
				<ele>72.000000</ele>
				<time>2026-08-17T05:00:21Z</time>
			</trkpt>
			<trkpt lat="30.258213" lon="120.092590">
				<speed>0.000000</speed>
				<ele>71.000000</ele>
				<time>2026-08-17T05:00:22Z</time>
			</trkpt>
			<trkpt lat="30.258230" lon="120.092583">
				<speed>0.000000</speed>
				<ele>71.000000</ele>
				<time>2026-08-17T05:00:23Z</time>
			</trkpt>
			<trkpt lat="30.258283" lon="120.092577">
				<speed>0.000000</speed>
				<ele>71.000000</ele>
				<time>2026-08-17T05:00:24Z</time>
			</trkpt>
			<trkpt lat="30.258300" lon="120.092584">
				<speed>0.000000</speed>
				<ele>71.000000</ele>
				<time>2026-08-17T05:00:25Z</time>
			</trkpt>
			<trkpt lat="30.258318" lon="120.092590">
				<speed>0.000000</speed>
				<ele>71.000000</ele>
				<time>2026-08-17T05:00:26Z</time>
			</trkpt>
			<trkpt lat="30.258335" lon="120.092596">
				<speed>0.000000</speed>
				<ele>71.000000</ele>
				<time>2026-08-17T05:00:27Z</time>
			</trkpt>
			<trkpt lat="30.258385" lon="120.092638">
				<speed>0.000000</speed>
				<ele>71.000000</ele>
				<time>2026-08-17T05:00:28Z</time>
			</trkpt>
			<trkpt lat="30.258400" lon="120.092656">
				<speed>0.000000</speed>
				<ele>71.000000</ele>
				<time>2026-08-17T05:00:29Z</time>
			</trkpt>
			<trkpt lat="30.258415" lon="120.092673">
				<speed>0.000000</speed>
				<ele>70.000000</ele>
				<time>2026-08-17T05:00:30Z</time>
			</trkpt>
			<trkpt lat="30.258431" lon="120.092690">
				<speed>0.000000</speed>
				<ele>70.000000</ele>
				<time>2026-08-17T05:00:31Z</time>
			</trkpt>
			<trkpt lat="30.258473" lon="120.092738">
				<speed>0.000000</speed>
				<ele>70.000000</ele>
				<time>2026-08-17T05:00:32Z</time>
			</trkpt>
			<trkpt lat="30.258487" lon="120.092749">
				<speed>0.000000</speed>
				<ele>70.000000</ele>
				<time>2026-08-17T05:00:33Z</time>
			</trkpt>
			<trkpt lat="30.258501" lon="120.092760">
				<speed>0.000000</speed>
				<ele>70.000000</ele>
				<time>2026-08-17T05:00:34Z</time>
			</trkpt>
			<trkpt lat="30.258515" lon="120.092771">
				<speed>0.000000</speed>
				<ele>70.000000</ele>
				<time>2026-08-17T05:00:35Z</time>
			</trkpt>
			<trkpt lat="30.258558" lon="120.092789">
				<speed>0.000000</speed>
				<ele>70.000000</ele>
				<time>2026-08-17T05:00:36Z</time>
			</trkpt>
			<trkpt lat="30.258573" lon="120.092790">
				<speed>0.000000</speed>
				<ele>70.000000</ele>
				<time>2026-08-17T05:00:37Z</time>
			</trkpt>
			<trkpt lat="30.258588" lon="120.092790">
				<speed>0.000000</speed>
				<ele>69.000000</ele>
				<time>2026-08-17T05:00:38Z</time>
			</trkpt>
			<trkpt lat="30.258602" lon="120.092791">
				<speed>0.000000</speed>
				<ele>69.000000</ele>
				<time>2026-08-17T05:00:39Z</time>
			</trkpt>
			<trkpt lat="30.258649" lon="120.092778">
				<speed>0.000000</speed>
				<ele>69.000000</ele>
				<time>2026-08-17T05:00:40Z</time>
			</trkpt>
			<trkpt lat="30.258666" lon="120.092771">
				<speed>0.000000</speed>
				<ele>69.000000</ele>
				<time>2026-08-17T05:00:41Z</time>
			</trkpt>
			<trkpt lat="30.258682" lon="120.092764">
				<speed>0.000000</speed>
				<ele>68.000000</ele>
				<time>2026-08-17T05:00:42Z</time>
			</trkpt>
			<trkpt lat="30.258699" lon="120.092756">
				<speed>0.000000</speed>
				<ele>68.000000</ele>
				<time>2026-08-17T05:00:43Z</time>
			</trkpt>
			<trkpt lat="30.258751" lon="120.092732">
				<speed>0.000000</speed>
				<ele>68.000000</ele>
				<time>2026-08-17T05:00:44Z</time>
			</trkpt>
			<trkpt lat="30.258769" lon="120.092724">
				<speed>0.000000</speed>
				<ele>68.000000</ele>
				<time>2026-08-17T05:00:45Z</time>
			</trkpt>
			<trkpt lat="30.258787" lon="120.092716">
				<speed>0.000000</speed>
				<ele>68.000000</ele>
				<time>2026-08-17T05:00:46Z</time>
			</trkpt>
			<trkpt lat="30.258804" lon="120.092709">
				<speed>0.000000</speed>
				<ele>68.000000</ele>
				<time>2026-08-17T05:00:47Z</time>
			</trkpt>
			<trkpt lat="30.258857" lon="120.092689">
				<speed>0.000000</speed>
				<ele>68.000000</ele>
				<time>2026-08-17T05:00:48Z</time>
			</trkpt>
			<trkpt lat="30.258875" lon="120.092684">
				<speed>0.000000</speed>
				<ele>68.000000</ele>
				<time>2026-08-17T05:00:49Z</time>
			</trkpt>
			<trkpt lat="30.258893" lon="120.092679">
				<speed>0.000000</speed>
				<ele>67.000000</ele>
				<time>2026-08-17T05:00:50Z</time>
			</trkpt>
			<trkpt lat="30.258910" lon="120.092674">
				<speed>0.000000</speed>
				<ele>67.000000</ele>
				<time>2026-08-17T05:00:51Z</time>
			</trkpt>
			<trkpt lat="30.258964" lon="120.092669">
				<speed>0.000000</speed>
				<ele>67.000000</ele>
				<time>2026-08-17T05:00:52Z</time>
			</trkpt>
			<trkpt lat="30.258983" lon="120.092671">
				<speed>0.000000</speed>
				<ele>67.000000</ele>
				<time>2026-08-17T05:00:53Z</time>
			</trkpt>
			<trkpt lat="30.259002" lon="120.092672">
				<speed>0.000000</speed>
				<ele>66.000000</ele>
				<time>2026-08-17T05:00:54Z</time>
			</trkpt>
			<trkpt lat="30.259020" lon="120.092673">
				<speed>0.000000</speed>
				<ele>66.000000</ele>
				<time>2026-08-17T05:00:55Z</time>
			</trkpt>
			<trkpt lat="30.259076" lon="120.092690">
				<speed>0.000000</speed>
				<ele>66.000000</ele>
				<time>2026-08-17T05:00:56Z</time>
			</trkpt>
			<trkpt lat="30.259094" lon="120.092699">
				<speed>0.000000</speed>
				<ele>66.000000</ele>
				<time>2026-08-17T05:00:57Z</time>
			</trkpt>
			<trkpt lat="30.259113" lon="120.092707">
				<speed>0.000000</speed>
				<ele>65.000000</ele>
				<time>2026-08-17T05:00:58Z</time>
			</trkpt>
			<trkpt lat="30.259131" lon="120.092716">
				<speed>0.000000</speed>
				<ele>65.000000</ele>
				<time>2026-08-17T05:00:59Z</time>
			</trkpt>
			<trkpt lat="30.259185" lon="120.092747">
				<speed>0.000000</speed>
				<ele>65.000000</ele>
				<time>2026-08-17T05:01:00Z</time>
			</trkpt>
			<trkpt lat="30.259201" lon="120.092759">
				<speed>0.000000</speed>
				<ele>65.000000</ele>
				<time>2026-08-17T05:01:01Z</time>
			</trkpt>
			<trkpt lat="30.259218" lon="120.092771">
				<speed>0.000000</speed>
				<ele>64.000000</ele>
				<time>2026-08-17T05:01:02Z</time>
			</trkpt>
			<trkpt lat="30.259234" lon="120.092783">
				<speed>0.000000</speed>
				<ele>64.000000</ele>
				<time>2026-08-17T05:01:03Z</time>
			</trkpt>
			<trkpt lat="30.259266" lon="120.092829">
				<speed>0.000000</speed>
				<ele>64.000000</ele>
				<time>2026-08-17T05:01:04Z</time>
			</trkpt>
			<trkpt lat="30.259267" lon="120.092846">
				<speed>0.000000</speed>
				<ele>64.000000</ele>
				<time>2026-08-17T05:01:05Z</time>
			</trkpt>
			<trkpt lat="30.259269" lon="120.092863">
				<speed>0.000000</speed>
				<ele>63.000000</ele>
				<time>2026-08-17T05:01:06Z</time>
			</trkpt>
			<trkpt lat="30.259270" lon="120.092881">
				<speed>0.000000</speed>
				<ele>63.000000</ele>
				<time>2026-08-17T05:01:07Z</time>
			</trkpt>
			<trkpt lat="30.259248" lon="120.092927">
				<speed>0.000000</speed>
				<ele>63.000000</ele>
				<time>2026-08-17T05:01:08Z</time>
			</trkpt>
			<trkpt lat="30.259234" lon="120.092936">
				<speed>0.000000</speed>
				<ele>63.000000</ele>
				<time>2026-08-17T05:01:09Z</time>
			</trkpt>
			<trkpt lat="30.259220" lon="120.092946">
				<speed>0.000000</speed>
				<ele>62.000000</ele>
				<time>2026-08-17T05:01:10Z</time>
			</trkpt>
			<trkpt lat="30.259206" lon="120.092956">
				<speed>0.000000</speed>
				<ele>62.000000</ele>
				<time>2026-08-17T05:01:11Z</time>
			</trkpt>
			<trkpt lat="30.259156" lon="120.092972">
				<speed>0.000000</speed>
				<ele>61.000000</ele>
				<time>2026-08-17T05:01:12Z</time>
			</trkpt>
			<trkpt lat="30.259137" lon="120.092975">
				<speed>0.000000</speed>
				<ele>61.000000</ele>
				<time>2026-08-17T05:01:13Z</time>
			</trkpt>
			<trkpt lat="30.259119" lon="120.092978">
				<speed>0.000000</speed>
				<ele>60.000000</ele>
				<time>2026-08-17T05:01:14Z</time>
			</trkpt>
			<trkpt lat="30.259100" lon="120.092982">
				<speed>0.000000</speed>
				<ele>60.000000</ele>
				<time>2026-08-17T05:01:15Z</time>
			</trkpt>
			<trkpt lat="30.259044" lon="120.092991">
				<speed>0.000000</speed>
				<ele>60.000000</ele>
				<time>2026-08-17T05:01:16Z</time>
			</trkpt>
			<trkpt lat="30.259025" lon="120.092994">
				<speed>0.000000</speed>
				<ele>60.000000</ele>
				<time>2026-08-17T05:01:17Z</time>
			</trkpt>
			<trkpt lat="30.259007" lon="120.092997">
				<speed>0.000000</speed>
				<ele>59.000000</ele>
				<time>2026-08-17T05:01:18Z</time>
			</trkpt>
			<trkpt lat="30.258988" lon="120.093000">
				<speed>0.000000</speed>
				<ele>59.000000</ele>
				<time>2026-08-17T05:01:19Z</time>
			</trkpt>
			<trkpt lat="30.258935" lon="120.093011">
				<speed>0.000000</speed>
				<ele>59.000000</ele>
				<time>2026-08-17T05:01:20Z</time>
			</trkpt>
			<trkpt lat="30.258917" lon="120.093014">
				<speed>0.000000</speed>
				<ele>59.000000</ele>
				<time>2026-08-17T05:01:21Z</time>
			</trkpt>
			<trkpt lat="30.258900" lon="120.093018">
				<speed>0.000000</speed>
				<ele>58.000000</ele>
				<time>2026-08-17T05:01:22Z</time>
			</trkpt>
			<trkpt lat="30.258883" lon="120.093021">
				<speed>0.000000</speed>
				<ele>58.000000</ele>
				<time>2026-08-17T05:01:23Z</time>
			</trkpt>
			<trkpt lat="30.258833" lon="120.093031">
				<speed>0.000000</speed>
				<ele>58.000000</ele>
				<time>2026-08-17T05:01:24Z</time>
			</trkpt>
			<trkpt lat="30.258817" lon="120.093033">
				<speed>0.000000</speed>
				<ele>58.000000</ele>
				<time>2026-08-17T05:01:25Z</time>
			</trkpt>
			<trkpt lat="30.258801" lon="120.093036">
				<speed>0.000000</speed>
				<ele>58.000000</ele>
				<time>2026-08-17T05:01:26Z</time>
			</trkpt>
			<trkpt lat="30.258785" lon="120.093038">
				<speed>0.000000</speed>
				<ele>58.000000</ele>
				<time>2026-08-17T05:01:27Z</time>
			</trkpt>
			<trkpt lat="30.258739" lon="120.093044">
				<speed>0.000000</speed>
				<ele>58.000000</ele>
				<time>2026-08-17T05:01:28Z</time>
			</trkpt>
			<trkpt lat="30.258724" lon="120.093047">
				<speed>0.000000</speed>
				<ele>58.000000</ele>
				<time>2026-08-17T05:01:29Z</time>
			</trkpt>
			<trkpt lat="30.258709" lon="120.093050">
				<speed>0.000000</speed>
				<ele>58.000000</ele>
				<time>2026-08-17T05:01:30Z</time>
			</trkpt>
			<trkpt lat="30.258694" lon="120.093052">
				<speed>0.000000</speed>
				<ele>58.000000</ele>
				<time>2026-08-17T05:01:31Z</time>
			</trkpt>
			<trkpt lat="30.258655" lon="120.093062">
				<speed>0.000000</speed>
				<ele>58.000000</ele>
				<time>2026-08-17T05:01:32Z</time>
			</trkpt>
			<trkpt lat="30.258644" lon="120.093065">
				<speed>0.000000</speed>
				<ele>58.000000</ele>
				<time>2026-08-17T05:01:33Z</time>
			</trkpt>
			<trkpt lat="30.258634" lon="120.093069">
				<speed>0.000000</speed>
				<ele>58.000000</ele>
				<time>2026-08-17T05:01:34Z</time>
			</trkpt>
			<trkpt lat="30.258623" lon="120.093073">
				<speed>0.000000</speed>
				<ele>58.000000</ele>
				<time>2026-08-17T05:01:35Z</time>
			</trkpt>
			<trkpt lat="30.258597" lon="120.093084">
				<speed>0.000000</speed>
				<ele>58.000000</ele>
				<time>2026-08-17T05:01:36Z</time>
			</trkpt>
			<trkpt lat="30.258590" lon="120.093088">
				<speed>0.000000</speed>
				<ele>58.000000</ele>
				<time>2026-08-17T05:01:37Z</time>
			</trkpt>
			<trkpt lat="30.258583" lon="120.093092">
				<speed>0.000000</speed>
				<ele>58.000000</ele>
				<time>2026-08-17T05:01:38Z</time>
			</trkpt>
			<trkpt lat="30.258575" lon="120.093096">
				<speed>0.000000</speed>
				<ele>58.000000</ele>
				<time>2026-08-17T05:01:39Z</time>
			</trkpt>
			<trkpt lat="30.258555" lon="120.093108">
				<speed>0.000000</speed>
				<ele>58.000000</ele>
				<time>2026-08-17T05:01:40Z</time>
			</trkpt>
			<trkpt lat="30.258549" lon="120.093112">
				<speed>0.000000</speed>
				<ele>58.000000</ele>
				<time>2026-08-17T05:01:41Z</time>
			</trkpt>
			<trkpt lat="30.258543" lon="120.093115">
				<speed>0.000000</speed>
				<ele>58.000000</ele>
				<time>2026-08-17T05:01:42Z</time>
			</trkpt>
			<trkpt lat="30.258537" lon="120.093119">
				<speed>0.000000</speed>
				<ele>58.000000</ele>
				<time>2026-08-17T05:01:43Z</time>
			</trkpt>
			<trkpt lat="30.258521" lon="120.093131">
				<speed>0.000000</speed>
				<ele>58.000000</ele>
				<time>2026-08-17T05:01:44Z</time>
			</trkpt>
			<trkpt lat="30.258516" lon="120.093136">
				<speed>0.000000</speed>
				<ele>58.000000</ele>
				<time>2026-08-17T05:01:45Z</time>
			</trkpt>
			<trkpt lat="30.258511" lon="120.093141">
				<speed>0.000000</speed>
				<ele>58.000000</ele>
				<time>2026-08-17T05:01:46Z</time>
			</trkpt>
			<trkpt lat="30.258506" lon="120.093146">
				<speed>0.000000</speed>
				<ele>58.000000</ele>
				<time>2026-08-17T05:01:47Z</time>
			</trkpt>
			<trkpt lat="30.258490" lon="120.093163">
				<speed>0.000000</speed>
				<ele>58.000000</ele>
				<time>2026-08-17T05:01:48Z</time>
			</trkpt>
			<trkpt lat="30.258486" lon="120.093169">
				<speed>0.000000</speed>
				<ele>58.000000</ele>
				<time>2026-08-17T05:01:49Z</time>
			</trkpt>
			<trkpt lat="30.258481" lon="120.093175">
				<speed>0.000000</speed>
				<ele>58.000000</ele>
				<time>2026-08-17T05:01:50Z</time>
			</trkpt>
			<trkpt lat="30.258477" lon="120.093181">
				<speed>0.000000</speed>
				<ele>58.000000</ele>
				<time>2026-08-17T05:01:51Z</time>
			</trkpt>
			<trkpt lat="30.258466" lon="120.093199">
				<speed>0.000000</speed>
				<ele>58.000000</ele>
				<time>2026-08-17T05:01:52Z</time>
			</trkpt>
			<trkpt lat="30.258463" lon="120.093206">
				<speed>0.000000</speed>
				<ele>58.000000</ele>
				<time>2026-08-17T05:01:53Z</time>
			</trkpt>
			<trkpt lat="30.258460" lon="120.093213">
				<speed>0.000000</speed>
				<ele>57.000000</ele>
				<time>2026-08-17T05:01:54Z</time>
			</trkpt>
			<trkpt lat="30.258457" lon="120.093220">
				<speed>0.000000</speed>
				<ele>57.000000</ele>
				<time>2026-08-17T05:01:55Z</time>
			</trkpt>
			<trkpt lat="30.258453" lon="120.093244">
				<speed>0.000000</speed>
				<ele>57.000000</ele>
				<time>2026-08-17T05:01:56Z</time>
			</trkpt>
			<trkpt lat="30.258452" lon="120.093252">
				<speed>0.000000</speed>
				<ele>57.000000</ele>
				<time>2026-08-17T05:01:57Z</time>
			</trkpt>
			<trkpt lat="30.258452" lon="120.093260">
				<speed>0.000000</speed>
				<ele>57.000000</ele>
				<time>2026-08-17T05:01:58Z</time>
			</trkpt>
			<trkpt lat="30.258452" lon="120.093267">
				<speed>0.000000</speed>
				<ele>57.000000</ele>
				<time>2026-08-17T05:01:59Z</time>
			</trkpt>
			<trkpt lat="30.258448" lon="120.093273">
				<speed>0.000000</speed>
				<ele>57.000000</ele>
				<time>2026-08-17T05:02:00Z</time>
			</trkpt>
			<trkpt lat="30.258445" lon="120.093287">
				<speed>0.000000</speed>
				<ele>56.000000</ele>
				<time>2026-08-17T05:03:42Z</time>
			</trkpt>
			<trkpt lat="30.258441" lon="120.093298">
				<speed>0.000000</speed>
				<ele>56.000000</ele>
				<time>2026-08-17T05:04:34Z</time>
			</trkpt>
			<trkpt lat="30.258437" lon="120.093295">
				<speed>0.000000</speed>
				<ele>56.000000</ele>
				<time>2026-08-17T05:04:35Z</time>
			</trkpt>
			<trkpt lat="30.258436" lon="120.093297">
				<speed>0.000000</speed>
				<ele>56.000000</ele>
				<time>2026-08-17T05:04:36Z</time>
			</trkpt>
			<trkpt lat="30.258434" lon="120.093299">
				<speed>0.000000</speed>
				<ele>56.000000</ele>
				<time>2026-08-17T05:04:37Z</time>
			</trkpt>
			<trkpt lat="30.258433" lon="120.093301">
				<speed>0.000000</speed>
				<ele>56.000000</ele>
				<time>2026-08-17T05:04:38Z</time>
			</trkpt>
			<trkpt lat="30.258430" lon="120.093316">
				<speed>0.000000</speed>
				<ele>56.000000</ele>
				<time>2026-08-17T05:04:39Z</time>
			</trkpt>
			<trkpt lat="30.258430" lon="120.093323">
				<speed>0.000000</speed>
				<ele>56.000000</ele>
				<time>2026-08-17T05:04:40Z</time>
			</trkpt>
			<trkpt lat="30.258430" lon="120.093331">
				<speed>0.000000</speed>
				<ele>56.000000</ele>
				<time>2026-08-17T05:04:41Z</time>
			</trkpt>
			<trkpt lat="30.258430" lon="120.093338">
				<speed>0.000000</speed>
				<ele>56.000000</ele>
				<time>2026-08-17T05:04:42Z</time>
			</trkpt>
			<trkpt lat="30.258432" lon="120.093364">
				<speed>0.000000</speed>
				<ele>56.000000</ele>
				<time>2026-08-17T05:04:43Z</time>
			</trkpt>
			<trkpt lat="30.258433" lon="120.093372">
				<speed>0.000000</speed>
				<ele>56.000000</ele>
				<time>2026-08-17T05:04:44Z</time>
			</trkpt>
			<trkpt lat="30.258435" lon="120.093381">
				<speed>0.000000</speed>
				<ele>56.000000</ele>
				<time>2026-08-17T05:04:45Z</time>
			</trkpt>
			<trkpt lat="30.258436" lon="120.093389">
				<speed>0.000000</speed>
				<ele>56.000000</ele>
				<time>2026-08-17T05:04:46Z</time>
			</trkpt>
			<trkpt lat="30.258438" lon="120.093414">
				<speed>0.000000</speed>
				<ele>56.000000</ele>
				<time>2026-08-17T05:04:47Z</time>
			</trkpt>
			<trkpt lat="30.258439" lon="120.093422">
				<speed>0.000000</speed>
				<ele>56.000000</ele>
				<time>2026-08-17T05:04:48Z</time>
			</trkpt>
			<trkpt lat="30.258439" lon="120.093430">
				<speed>0.000000</speed>
				<ele>56.000000</ele>
				<time>2026-08-17T05:04:49Z</time>
			</trkpt>
			<trkpt lat="30.258439" lon="120.093438">
				<speed>0.000000</speed>
				<ele>56.000000</ele>
				<time>2026-08-17T05:04:50Z</time>
			</trkpt>
			<trkpt lat="30.258439" lon="120.093461">
				<speed>0.000000</speed>
				<ele>56.000000</ele>
				<time>2026-08-17T05:04:51Z</time>
			</trkpt>
			<trkpt lat="30.258439" lon="120.093469">
				<speed>0.000000</speed>
				<ele>56.000000</ele>
				<time>2026-08-17T05:04:52Z</time>
			</trkpt>
			<trkpt lat="30.258439" lon="120.093477">
				<speed>0.000000</speed>
				<ele>56.000000</ele>
				<time>2026-08-17T05:04:53Z</time>
			</trkpt>
			<trkpt lat="30.258439" lon="120.093484">
				<speed>0.000000</speed>
				<ele>56.000000</ele>
				<time>2026-08-17T05:04:54Z</time>
			</trkpt>
			<trkpt lat="30.258440" lon="120.093509">
				<speed>0.000000</speed>
				<ele>56.000000</ele>
				<time>2026-08-17T05:04:55Z</time>
			</trkpt>
			<trkpt lat="30.258440" lon="120.093518">
				<speed>0.000000</speed>
				<ele>56.000000</ele>
				<time>2026-08-17T05:04:56Z</time>
			</trkpt>
			<trkpt lat="30.258441" lon="120.093526">
				<speed>0.000000</speed>
				<ele>56.000000</ele>
				<time>2026-08-17T05:04:57Z</time>
			</trkpt>
			<trkpt lat="30.258442" lon="120.093535">
				<speed>0.000000</speed>
				<ele>56.000000</ele>
				<time>2026-08-17T05:04:58Z</time>
			</trkpt>
			<trkpt lat="30.258445" lon="120.093562">
				<speed>0.000000</speed>
				<ele>56.000000</ele>
				<time>2026-08-17T05:04:59Z</time>
			</trkpt>
			<trkpt lat="30.258446" lon="120.093571">
				<speed>0.000000</speed>
				<ele>56.000000</ele>
				<time>2026-08-17T05:05:00Z</time>
			</trkpt>
			<trkpt lat="30.258447" lon="120.093580">
				<speed>0.000000</speed>
				<ele>56.000000</ele>
				<time>2026-08-17T05:05:01Z</time>
			</trkpt>
			<trkpt lat="30.258448" lon="120.093590">
				<speed>0.000000</speed>
				<ele>56.000000</ele>
				<time>2026-08-17T05:05:02Z</time>
			</trkpt>
			<trkpt lat="30.258452" lon="120.093617">
				<speed>0.000000</speed>
				<ele>56.000000</ele>
				<time>2026-08-17T05:05:03Z</time>
			</trkpt>
			<trkpt lat="30.258453" lon="120.093627">
				<speed>0.000000</speed>
				<ele>56.000000</ele>
				<time>2026-08-17T05:05:04Z</time>
			</trkpt>
			<trkpt lat="30.258455" lon="120.093636">
				<speed>0.000000</speed>
				<ele>56.000000</ele>
				<time>2026-08-17T05:05:05Z</time>
			</trkpt>
			<trkpt lat="30.258456" lon="120.093646">
				<speed>0.000000</speed>
				<ele>56.000000</ele>
				<time>2026-08-17T05:05:06Z</time>
			</trkpt>
			<trkpt lat="30.258460" lon="120.093675">
				<speed>0.000000</speed>
				<ele>56.000000</ele>
				<time>2026-08-17T05:05:07Z</time>
			</trkpt>
			<trkpt lat="30.258460" lon="120.093684">
				<speed>0.000000</speed>
				<ele>56.000000</ele>
				<time>2026-08-17T05:05:08Z</time>
			</trkpt>
			<trkpt lat="30.258461" lon="120.093694">
				<speed>0.000000</speed>
				<ele>56.000000</ele>
				<time>2026-08-17T05:05:09Z</time>
			</trkpt>
			<trkpt lat="30.258462" lon="120.093704">
				<speed>0.000000</speed>
				<ele>56.000000</ele>
				<time>2026-08-17T05:05:10Z</time>
			</trkpt>
			<trkpt lat="30.258464" lon="120.093733">
				<speed>0.000000</speed>
				<ele>56.000000</ele>
				<time>2026-08-17T05:05:11Z</time>
			</trkpt>
			<trkpt lat="30.258465" lon="120.093742">
				<speed>0.000000</speed>
				<ele>56.000000</ele>
				<time>2026-08-17T05:05:12Z</time>
			</trkpt>
			<trkpt lat="30.258465" lon="120.093751">
				<speed>0.000000</speed>
				<ele>56.000000</ele>
				<time>2026-08-17T05:05:13Z</time>
			</trkpt>
			<trkpt lat="30.258466" lon="120.093761">
				<speed>0.000000</speed>
				<ele>56.000000</ele>
				<time>2026-08-17T05:05:14Z</time>
			</trkpt>
			<trkpt lat="30.258467" lon="120.093789">
				<speed>0.000000</speed>
				<ele>56.000000</ele>
				<time>2026-08-17T05:05:15Z</time>
			</trkpt>
			<trkpt lat="30.258467" lon="120.093799">
				<speed>0.000000</speed>
				<ele>56.000000</ele>
				<time>2026-08-17T05:05:16Z</time>
			</trkpt>
			<trkpt lat="30.258467" lon="120.093808">
				<speed>0.000000</speed>
				<ele>56.000000</ele>
				<time>2026-08-17T05:05:17Z</time>
			</trkpt>
			<trkpt lat="30.258467" lon="120.093818">
				<speed>0.000000</speed>
				<ele>55.000000</ele>
				<time>2026-08-17T05:05:18Z</time>
			</trkpt>
			<trkpt lat="30.258467" lon="120.093846">
				<speed>0.000000</speed>
				<ele>55.000000</ele>
				<time>2026-08-17T05:05:19Z</time>
			</trkpt>
			<trkpt lat="30.258468" lon="120.093856">
				<speed>0.000000</speed>
				<ele>55.000000</ele>
				<time>2026-08-17T05:05:20Z</time>
			</trkpt>
			<trkpt lat="30.258468" lon="120.093865">
				<speed>0.000000</speed>
				<ele>55.000000</ele>
				<time>2026-08-17T05:05:21Z</time>
			</trkpt>
			<trkpt lat="30.258468" lon="120.093875">
				<speed>0.000000</speed>
				<ele>55.000000</ele>
				<time>2026-08-17T05:05:22Z</time>
			</trkpt>
			<trkpt lat="30.258470" lon="120.093904">
				<speed>0.000000</speed>
				<ele>55.000000</ele>
				<time>2026-08-17T05:05:23Z</time>
			</trkpt>
			<trkpt lat="30.258470" lon="120.093914">
				<speed>0.000000</speed>
				<ele>55.000000</ele>
				<time>2026-08-17T05:05:24Z</time>
			</trkpt>
			<trkpt lat="30.258470" lon="120.093924">
				<speed>0.000000</speed>
				<ele>55.000000</ele>
				<time>2026-08-17T05:05:25Z</time>
			</trkpt>
			<trkpt lat="30.258470" lon="120.093933">
				<speed>0.000000</speed>
				<ele>55.000000</ele>
				<time>2026-08-17T05:05:26Z</time>
			</trkpt>
			<trkpt lat="30.258470" lon="120.093962">
				<speed>0.000000</speed>
				<ele>55.000000</ele>
				<time>2026-08-17T05:05:27Z</time>
			</trkpt>
			<trkpt lat="30.258470" lon="120.093972">
				<speed>0.000000</speed>
				<ele>55.000000</ele>
				<time>2026-08-17T05:05:28Z</time>
			</trkpt>
			<trkpt lat="30.258470" lon="120.093982">
				<speed>0.000000</speed>
				<ele>56.000000</ele>
				<time>2026-08-17T05:05:29Z</time>
			</trkpt>
			<trkpt lat="30.258470" lon="120.093992">
				<speed>0.000000</speed>
				<ele>56.000000</ele>
				<time>2026-08-17T05:05:30Z</time>
			</trkpt>
			<trkpt lat="30.258471" lon="120.094021">
				<speed>0.000000</speed>
				<ele>56.000000</ele>
				<time>2026-08-17T05:05:31Z</time>
			</trkpt>
			<trkpt lat="30.258471" lon="120.094031">
				<speed>0.000000</speed>
				<ele>56.000000</ele>
				<time>2026-08-17T05:05:32Z</time>
			</trkpt>
			<trkpt lat="30.258471" lon="120.094041">
				<speed>0.000000</speed>
				<ele>56.000000</ele>
				<time>2026-08-17T05:05:33Z</time>
			</trkpt>
			<trkpt lat="30.258472" lon="120.094051">
				<speed>0.000000</speed>
				<ele>56.000000</ele>
				<time>2026-08-17T05:05:34Z</time>
			</trkpt>
			<trkpt lat="30.258474" lon="120.094081">
				<speed>0.000000</speed>
				<ele>56.000000</ele>
				<time>2026-08-17T05:05:35Z</time>
			</trkpt>
			<trkpt lat="30.258474" lon="120.094090">
				<speed>0.000000</speed>
				<ele>56.000000</ele>
				<time>2026-08-17T05:05:36Z</time>
			</trkpt>
			<trkpt lat="30.258475" lon="120.094100">
				<speed>0.000000</speed>
				<ele>56.000000</ele>
				<time>2026-08-17T05:05:37Z</time>
			</trkpt>
			<trkpt lat="30.258476" lon="120.094110">
				<speed>0.000000</speed>
				<ele>56.000000</ele>
				<time>2026-08-17T05:05:38Z</time>
			</trkpt>
			<trkpt lat="30.258480" lon="120.094139">
				<speed>0.000000</speed>
				<ele>56.000000</ele>
				<time>2026-08-17T05:05:39Z</time>
			</trkpt>
			<trkpt lat="30.258481" lon="120.094149">
				<speed>0.000000</speed>
				<ele>56.000000</ele>
				<time>2026-08-17T05:05:40Z</time>
			</trkpt>
			<trkpt lat="30.258482" lon="120.094158">
				<speed>0.000000</speed>
				<ele>56.000000</ele>
				<time>2026-08-17T05:05:41Z</time>
			</trkpt>
			<trkpt lat="30.258483" lon="120.094168">
				<speed>0.000000</speed>
				<ele>55.000000</ele>
				<time>2026-08-17T05:05:42Z</time>
			</trkpt>
			<trkpt lat="30.258485" lon="120.094196">
				<speed>0.000000</speed>
				<ele>55.000000</ele>
				<time>2026-08-17T05:05:43Z</time>
			</trkpt>
			<trkpt lat="30.258485" lon="120.094206">
				<speed>0.000000</speed>
				<ele>55.000000</ele>
				<time>2026-08-17T05:05:44Z</time>
			</trkpt>
			<trkpt lat="30.258486" lon="120.094215">
				<speed>0.000000</speed>
				<ele>55.000000</ele>
				<time>2026-08-17T05:05:45Z</time>
			</trkpt>
			<trkpt lat="30.258487" lon="120.094224">
				<speed>0.000000</speed>
				<ele>55.000000</ele>
				<time>2026-08-17T05:05:46Z</time>
			</trkpt>
			<trkpt lat="30.258490" lon="120.094252">
				<speed>0.000000</speed>
				<ele>55.000000</ele>
				<time>2026-08-17T05:05:47Z</time>
			</trkpt>
			<trkpt lat="30.258491" lon="120.094261">
				<speed>0.000000</speed>
				<ele>55.000000</ele>
				<time>2026-08-17T05:05:48Z</time>
			</trkpt>
			<trkpt lat="30.258492" lon="120.094271">
				<speed>0.000000</speed>
				<ele>55.000000</ele>
				<time>2026-08-17T05:05:49Z</time>
			</trkpt>
			<trkpt lat="30.258493" lon="120.094280">
				<speed>0.000000</speed>
				<ele>55.000000</ele>
				<time>2026-08-17T05:05:50Z</time>
			</trkpt>
			<trkpt lat="30.258495" lon="120.094309">
				<speed>0.000000</speed>
				<ele>55.000000</ele>
				<time>2026-08-17T05:05:51Z</time>
			</trkpt>
			<trkpt lat="30.258494" lon="120.094318">
				<speed>0.000000</speed>
				<ele>55.000000</ele>
				<time>2026-08-17T05:05:52Z</time>
			</trkpt>
			<trkpt lat="30.258494" lon="120.094328">
				<speed>0.000000</speed>
				<ele>55.000000</ele>
				<time>2026-08-17T05:05:53Z</time>
			</trkpt>
			<trkpt lat="30.258494" lon="120.094337">
				<speed>0.000000</speed>
				<ele>55.000000</ele>
				<time>2026-08-17T05:05:54Z</time>
			</trkpt>
			<trkpt lat="30.258491" lon="120.094366">
				<speed>0.000000</speed>
				<ele>55.000000</ele>
				<time>2026-08-17T05:05:55Z</time>
			</trkpt>
			<trkpt lat="30.258490" lon="120.094376">
				<speed>0.000000</speed>
				<ele>55.000000</ele>
				<time>2026-08-17T05:05:56Z</time>
			</trkpt>
			<trkpt lat="30.258489" lon="120.094386">
				<speed>0.000000</speed>
				<ele>55.000000</ele>
				<time>2026-08-17T05:05:57Z</time>
			</trkpt>
			<trkpt lat="30.258488" lon="120.094396">
				<speed>0.000000</speed>
				<ele>55.000000</ele>
				<time>2026-08-17T05:05:58Z</time>
			</trkpt>
			<trkpt lat="30.258486" lon="120.094425">
				<speed>0.000000</speed>
				<ele>55.000000</ele>
				<time>2026-08-17T05:05:59Z</time>
			</trkpt>
			<trkpt lat="30.258485" lon="120.094434">
				<speed>0.000000</speed>
				<ele>55.000000</ele>
				<time>2026-08-17T05:06:00Z</time>
			</trkpt>
			<trkpt lat="30.258484" lon="120.094443">
				<speed>0.000000</speed>
				<ele>55.000000</ele>
				<time>2026-08-17T05:06:01Z</time>
			</trkpt>
			<trkpt lat="30.258483" lon="120.094453">
				<speed>0.000000</speed>
				<ele>55.000000</ele>
				<time>2026-08-17T05:06:02Z</time>
			</trkpt>
			<trkpt lat="30.258481" lon="120.094481">
				<speed>0.000000</speed>
				<ele>55.000000</ele>
				<time>2026-08-17T05:06:03Z</time>
			</trkpt>
			<trkpt lat="30.258480" lon="120.094492">
				<speed>0.000000</speed>
				<ele>55.000000</ele>
				<time>2026-08-17T05:06:04Z</time>
			</trkpt>
			<trkpt lat="30.258480" lon="120.094502">
				<speed>0.000000</speed>
				<ele>55.000000</ele>
				<time>2026-08-17T05:06:05Z</time>
			</trkpt>
			<trkpt lat="30.258479" lon="120.094512">
				<speed>0.000000</speed>
				<ele>55.000000</ele>
				<time>2026-08-17T05:06:06Z</time>
			</trkpt>
			<trkpt lat="30.258475" lon="120.094542">
				<speed>0.000000</speed>
				<ele>55.000000</ele>
				<time>2026-08-17T05:06:07Z</time>
			</trkpt>
			<trkpt lat="30.258474" lon="120.094552">
				<speed>0.000000</speed>
				<ele>55.000000</ele>
				<time>2026-08-17T05:06:08Z</time>
			</trkpt>
			<trkpt lat="30.258472" lon="120.094561">
				<speed>0.000000</speed>
				<ele>55.000000</ele>
				<time>2026-08-17T05:06:09Z</time>
			</trkpt>
			<trkpt lat="30.258470" lon="120.094571">
				<speed>0.000000</speed>
				<ele>55.000000</ele>
				<time>2026-08-17T05:06:10Z</time>
			</trkpt>
			<trkpt lat="30.258466" lon="120.094601">
				<speed>0.000000</speed>
				<ele>55.000000</ele>
				<time>2026-08-17T05:06:11Z</time>
			</trkpt>
			<trkpt lat="30.258465" lon="120.094611">
				<speed>0.000000</speed>
				<ele>55.000000</ele>
				<time>2026-08-17T05:06:12Z</time>
			</trkpt>
			<trkpt lat="30.258464" lon="120.094621">
				<speed>0.000000</speed>
				<ele>55.000000</ele>
				<time>2026-08-17T05:06:13Z</time>
			</trkpt>
			<trkpt lat="30.258463" lon="120.094631">
				<speed>0.000000</speed>
				<ele>55.000000</ele>
				<time>2026-08-17T05:06:14Z</time>
			</trkpt>
			<trkpt lat="30.258462" lon="120.094659">
				<speed>0.000000</speed>
				<ele>55.000000</ele>
				<time>2026-08-17T05:06:15Z</time>
			</trkpt>
			<trkpt lat="30.258462" lon="120.094668">
				<speed>0.000000</speed>
				<ele>55.000000</ele>
				<time>2026-08-17T05:06:16Z</time>
			</trkpt>
			<trkpt lat="30.258462" lon="120.094677">
				<speed>0.000000</speed>
				<ele>55.000000</ele>
				<time>2026-08-17T05:06:17Z</time>
			</trkpt>
			<trkpt lat="30.258462" lon="120.094686">
				<speed>0.000000</speed>
				<ele>55.000000</ele>
				<time>2026-08-17T05:06:18Z</time>
			</trkpt>
			<trkpt lat="30.258462" lon="120.094714">
				<speed>0.000000</speed>
				<ele>55.000000</ele>
				<time>2026-08-17T05:06:19Z</time>
			</trkpt>
			<trkpt lat="30.258462" lon="120.094723">
				<speed>0.000000</speed>
				<ele>55.000000</ele>
				<time>2026-08-17T05:06:20Z</time>
			</trkpt>
			<trkpt lat="30.258462" lon="120.094732">
				<speed>0.000000</speed>
				<ele>55.000000</ele>
				<time>2026-08-17T05:06:21Z</time>
			</trkpt>
			<trkpt lat="30.258462" lon="120.094742">
				<speed>0.000000</speed>
				<ele>55.000000</ele>
				<time>2026-08-17T05:06:22Z</time>
			</trkpt>
			<trkpt lat="30.258460" lon="120.094772">
				<speed>0.000000</speed>
				<ele>55.000000</ele>
				<time>2026-08-17T05:06:23Z</time>
			</trkpt>
			<trkpt lat="30.258460" lon="120.094782">
				<speed>0.000000</speed>
				<ele>55.000000</ele>
				<time>2026-08-17T05:06:24Z</time>
			</trkpt>
			<trkpt lat="30.258460" lon="120.094793">
				<speed>0.000000</speed>
				<ele>56.000000</ele>
				<time>2026-08-17T05:06:25Z</time>
			</trkpt>
			<trkpt lat="30.258461" lon="120.094803">
				<speed>0.000000</speed>
				<ele>56.000000</ele>
				<time>2026-08-17T05:06:26Z</time>
			</trkpt>
			<trkpt lat="30.258463" lon="120.094834">
				<speed>0.000000</speed>
				<ele>56.000000</ele>
				<time>2026-08-17T05:06:27Z</time>
			</trkpt>
			<trkpt lat="30.258464" lon="120.094844">
				<speed>0.000000</speed>
				<ele>56.000000</ele>
				<time>2026-08-17T05:06:28Z</time>
			</trkpt>
			<trkpt lat="30.258465" lon="120.094854">
				<speed>0.000000</speed>
				<ele>56.000000</ele>
				<time>2026-08-17T05:06:29Z</time>
			</trkpt>
			<trkpt lat="30.258466" lon="120.094864">
				<speed>0.000000</speed>
				<ele>56.000000</ele>
				<time>2026-08-17T05:06:30Z</time>
			</trkpt>
			<trkpt lat="30.258468" lon="120.094893">
				<speed>0.000000</speed>
				<ele>56.000000</ele>
				<time>2026-08-17T05:06:31Z</time>
			</trkpt>
			<trkpt lat="30.258466" lon="120.094900">
				<speed>0.000000</speed>
				<ele>56.000000</ele>
				<time>2026-08-17T05:06:32Z</time>
			</trkpt>
			<trkpt lat="30.258463" lon="120.094908">
				<speed>0.000000</speed>
				<ele>56.000000</ele>
				<time>2026-08-17T05:06:33Z</time>
			</trkpt>
			<trkpt lat="30.258461" lon="120.094916">
				<speed>0.000000</speed>
				<ele>56.000000</ele>
				<time>2026-08-17T05:06:34Z</time>
			</trkpt>
			<trkpt lat="30.258445" lon="120.094930">
				<speed>0.000000</speed>
				<ele>56.000000</ele>
				<time>2026-08-17T05:06:35Z</time>
			</trkpt>
			<trkpt lat="30.258437" lon="120.094932">
				<speed>0.000000</speed>
				<ele>56.000000</ele>
				<time>2026-08-17T05:06:36Z</time>
			</trkpt>
			<trkpt lat="30.258430" lon="120.094935">
				<speed>0.000000</speed>
				<ele>56.000000</ele>
				<time>2026-08-17T05:06:37Z</time>
			</trkpt>
			<trkpt lat="30.258422" lon="120.094937">
				<speed>0.000000</speed>
				<ele>56.000000</ele>
				<time>2026-08-17T05:06:38Z</time>
			</trkpt>
			<trkpt lat="30.258400" lon="120.094942">
				<speed>0.000000</speed>
				<ele>56.000000</ele>
				<time>2026-08-17T05:06:39Z</time>
			</trkpt>
			<trkpt lat="30.258395" lon="120.094945">
				<speed>0.000000</speed>
				<ele>56.000000</ele>
				<time>2026-08-17T05:06:40Z</time>
			</trkpt>
			<trkpt lat="30.258389" lon="120.094948">
				<speed>0.000000</speed>
				<ele>56.000000</ele>
				<time>2026-08-17T05:06:41Z</time>
			</trkpt>
			<trkpt lat="30.258383" lon="120.094951">
				<speed>0.000000</speed>
				<ele>56.000000</ele>
				<time>2026-08-17T05:06:42Z</time>
			</trkpt>
			<trkpt lat="30.258374" lon="120.094969">
				<speed>0.000000</speed>
				<ele>56.000000</ele>
				<time>2026-08-17T05:06:43Z</time>
			</trkpt>
			<trkpt lat="30.258373" lon="120.094976">
				<speed>0.000000</speed>
				<ele>56.000000</ele>
				<time>2026-08-17T05:06:44Z</time>
			</trkpt>
			<trkpt lat="30.258372" lon="120.094983">
				<speed>0.000000</speed>
				<ele>57.000000</ele>
				<time>2026-08-17T05:06:45Z</time>
			</trkpt>
			<trkpt lat="30.258372" lon="120.094990">
				<speed>0.000000</speed>
				<ele>57.000000</ele>
				<time>2026-08-17T05:06:46Z</time>
			</trkpt>
			<trkpt lat="30.258374" lon="120.095014">
				<speed>0.000000</speed>
				<ele>57.000000</ele>
				<time>2026-08-17T05:06:47Z</time>
			</trkpt>
			<trkpt lat="30.258376" lon="120.095023">
				<speed>0.000000</speed>
				<ele>57.000000</ele>
				<time>2026-08-17T05:06:48Z</time>
			</trkpt>
			<trkpt lat="30.258378" lon="120.095031">
				<speed>0.000000</speed>
				<ele>57.000000</ele>
				<time>2026-08-17T05:06:49Z</time>
			</trkpt>
			<trkpt lat="30.258380" lon="120.095040">
				<speed>0.000000</speed>
				<ele>57.000000</ele>
				<time>2026-08-17T05:06:50Z</time>
			</trkpt>
			<trkpt lat="30.258387" lon="120.095067">
				<speed>0.000000</speed>
				<ele>57.000000</ele>
				<time>2026-08-17T05:06:51Z</time>
			</trkpt>
			<trkpt lat="30.258390" lon="120.095076">
				<speed>0.000000</speed>
				<ele>57.000000</ele>
				<time>2026-08-17T05:06:52Z</time>
			</trkpt>
			<trkpt lat="30.258392" lon="120.095086">
				<speed>0.000000</speed>
				<ele>57.000000</ele>
				<time>2026-08-17T05:06:53Z</time>
			</trkpt>
			<trkpt lat="30.258395" lon="120.095096">
				<speed>0.000000</speed>
				<ele>57.000000</ele>
				<time>2026-08-17T05:06:54Z</time>
			</trkpt>
			<trkpt lat="30.258401" lon="120.095126">
				<speed>0.000000</speed>
				<ele>57.000000</ele>
				<time>2026-08-17T05:06:55Z</time>
			</trkpt>
			<trkpt lat="30.258403" lon="120.095136">
				<speed>0.000000</speed>
				<ele>57.000000</ele>
				<time>2026-08-17T05:06:56Z</time>
			</trkpt>
			<trkpt lat="30.258405" lon="120.095146">
				<speed>0.000000</speed>
				<ele>57.000000</ele>
				<time>2026-08-17T05:06:57Z</time>
			</trkpt>
			<trkpt lat="30.258407" lon="120.095157">
				<speed>0.000000</speed>
				<ele>57.000000</ele>
				<time>2026-08-17T05:06:58Z</time>
			</trkpt>
			<trkpt lat="30.258412" lon="120.095187">
				<speed>0.000000</speed>
				<ele>57.000000</ele>
				<time>2026-08-17T05:06:59Z</time>
			</trkpt>
			<trkpt lat="30.258415" lon="120.095197">
				<speed>0.000000</speed>
				<ele>57.000000</ele>
				<time>2026-08-17T05:07:00Z</time>
			</trkpt>
			<trkpt lat="30.258417" lon="120.095207">
				<speed>0.000000</speed>
				<ele>57.000000</ele>
				<time>2026-08-17T05:07:01Z</time>
			</trkpt>
			<trkpt lat="30.258419" lon="120.095217">
				<speed>0.000000</speed>
				<ele>57.000000</ele>
				<time>2026-08-17T05:07:02Z</time>
			</trkpt>
			<trkpt lat="30.258428" lon="120.095247">
				<speed>0.000000</speed>
				<ele>57.000000</ele>
				<time>2026-08-17T05:07:03Z</time>
			</trkpt>
			<trkpt lat="30.258431" lon="120.095257">
				<speed>0.000000</speed>
				<ele>57.000000</ele>
				<time>2026-08-17T05:07:04Z</time>
			</trkpt>
			<trkpt lat="30.258434" lon="120.095268">
				<speed>0.000000</speed>
				<ele>57.000000</ele>
				<time>2026-08-17T05:07:05Z</time>
			</trkpt>
			<trkpt lat="30.258438" lon="120.095278">
				<speed>0.000000</speed>
				<ele>57.000000</ele>
				<time>2026-08-17T05:07:06Z</time>
			</trkpt>
			<trkpt lat="30.258447" lon="120.095309">
				<speed>0.000000</speed>
				<ele>57.000000</ele>
				<time>2026-08-17T05:07:07Z</time>
			</trkpt>
			<trkpt lat="30.258451" lon="120.095319">
				<speed>0.000000</speed>
				<ele>57.000000</ele>
				<time>2026-08-17T05:07:08Z</time>
			</trkpt>
			<trkpt lat="30.258454" lon="120.095330">
				<speed>0.000000</speed>
				<ele>57.000000</ele>
				<time>2026-08-17T05:07:09Z</time>
			</trkpt>
			<trkpt lat="30.258458" lon="120.095340">
				<speed>0.000000</speed>
				<ele>57.000000</ele>
				<time>2026-08-17T05:07:10Z</time>
			</trkpt>
			<trkpt lat="30.258468" lon="120.095370">
				<speed>0.000000</speed>
				<ele>57.000000</ele>
				<time>2026-08-17T05:07:11Z</time>
			</trkpt>
			<trkpt lat="30.258471" lon="120.095380">
				<speed>0.000000</speed>
				<ele>57.000000</ele>
				<time>2026-08-17T05:07:12Z</time>
			</trkpt>
			<trkpt lat="30.258473" lon="120.095390">
				<speed>0.000000</speed>
				<ele>57.000000</ele>
				<time>2026-08-17T05:07:13Z</time>
			</trkpt>
			<trkpt lat="30.258476" lon="120.095400">
				<speed>0.000000</speed>
				<ele>57.000000</ele>
				<time>2026-08-17T05:07:14Z</time>
			</trkpt>
			<trkpt lat="30.258483" lon="120.095431">
				<speed>0.000000</speed>
				<ele>57.000000</ele>
				<time>2026-08-17T05:07:15Z</time>
			</trkpt>
			<trkpt lat="30.258485" lon="120.095442">
				<speed>0.000000</speed>
				<ele>57.000000</ele>
				<time>2026-08-17T05:07:16Z</time>
			</trkpt>
			<trkpt lat="30.258486" lon="120.095452">
				<speed>0.000000</speed>
				<ele>57.000000</ele>
				<time>2026-08-17T05:07:17Z</time>
			</trkpt>
			<trkpt lat="30.258488" lon="120.095463">
				<speed>0.000000</speed>
				<ele>57.000000</ele>
				<time>2026-08-17T05:07:18Z</time>
			</trkpt>
			<trkpt lat="30.258487" lon="120.095495">
				<speed>0.000000</speed>
				<ele>57.000000</ele>
				<time>2026-08-17T05:07:19Z</time>
			</trkpt>
			<trkpt lat="30.258484" lon="120.095505">
				<speed>0.000000</speed>
				<ele>57.000000</ele>
				<time>2026-08-17T05:07:20Z</time>
			</trkpt>
			<trkpt lat="30.258480" lon="120.095516">
				<speed>0.000000</speed>
				<ele>57.000000</ele>
				<time>2026-08-17T05:07:21Z</time>
			</trkpt>
			<trkpt lat="30.258476" lon="120.095526">
				<speed>0.000000</speed>
				<ele>57.000000</ele>
				<time>2026-08-17T05:07:22Z</time>
			</trkpt>
			<trkpt lat="30.258453" lon="120.095551">
				<speed>0.000000</speed>
				<ele>57.000000</ele>
				<time>2026-08-17T05:07:23Z</time>
			</trkpt>
			<trkpt lat="30.258442" lon="120.095555">
				<speed>0.000000</speed>
				<ele>57.000000</ele>
				<time>2026-08-17T05:07:24Z</time>
			</trkpt>
			<trkpt lat="30.258432" lon="120.095560">
				<speed>0.000000</speed>
				<ele>57.000000</ele>
				<time>2026-08-17T05:07:25Z</time>
			</trkpt>
			<trkpt lat="30.258422" lon="120.095564">
				<speed>0.000000</speed>
				<ele>57.000000</ele>
				<time>2026-08-17T05:07:26Z</time>
			</trkpt>
			<trkpt lat="30.258389" lon="120.095569">
				<speed>0.000000</speed>
				<ele>57.000000</ele>
				<time>2026-08-17T05:07:27Z</time>
			</trkpt>
			<trkpt lat="30.258379" lon="120.095569">
				<speed>0.000000</speed>
				<ele>57.000000</ele>
				<time>2026-08-17T05:07:28Z</time>
			</trkpt>
			<trkpt lat="30.258368" lon="120.095568">
				<speed>0.000000</speed>
				<ele>57.000000</ele>
				<time>2026-08-17T05:07:29Z</time>
			</trkpt>
			<trkpt lat="30.258358" lon="120.095568">
				<speed>0.000000</speed>
				<ele>57.000000</ele>
				<time>2026-08-17T05:07:30Z</time>
			</trkpt>
			<trkpt lat="30.258328" lon="120.095564">
				<speed>0.000000</speed>
				<ele>57.000000</ele>
				<time>2026-08-17T05:07:31Z</time>
			</trkpt>
			<trkpt lat="30.258318" lon="120.095562">
				<speed>0.000000</speed>
				<ele>57.000000</ele>
				<time>2026-08-17T05:07:32Z</time>
			</trkpt>
			<trkpt lat="30.258309" lon="120.095560">
				<speed>0.000000</speed>
				<ele>57.000000</ele>
				<time>2026-08-17T05:07:33Z</time>
			</trkpt>
			<trkpt lat="30.258300" lon="120.095557">
				<speed>0.000000</speed>
				<ele>57.000000</ele>
				<time>2026-08-17T05:07:34Z</time>
			</trkpt>
			<trkpt lat="30.258275" lon="120.095549">
				<speed>0.000000</speed>
				<ele>57.000000</ele>
				<time>2026-08-17T05:07:35Z</time>
			</trkpt>
			<trkpt lat="30.258266" lon="120.095547">
				<speed>0.000000</speed>
				<ele>57.000000</ele>
				<time>2026-08-17T05:07:36Z</time>
			</trkpt>
			<trkpt lat="30.258258" lon="120.095544">
				<speed>0.000000</speed>
				<ele>57.000000</ele>
				<time>2026-08-17T05:07:37Z</time>
			</trkpt>
			<trkpt lat="30.258250" lon="120.095541">
				<speed>0.000000</speed>
				<ele>57.000000</ele>
				<time>2026-08-17T05:07:38Z</time>
			</trkpt>
			<trkpt lat="30.258223" lon="120.095535">
				<speed>0.000000</speed>
				<ele>57.000000</ele>
				<time>2026-08-17T05:07:39Z</time>
			</trkpt>
			<trkpt lat="30.258214" lon="120.095535">
				<speed>0.000000</speed>
				<ele>57.000000</ele>
				<time>2026-08-17T05:07:40Z</time>
			</trkpt>
			<trkpt lat="30.258205" lon="120.095534">
				<speed>0.000000</speed>
				<ele>57.000000</ele>
				<time>2026-08-17T05:07:41Z</time>
			</trkpt>
			<trkpt lat="30.258195" lon="120.095533">
				<speed>0.000000</speed>
				<ele>57.000000</ele>
				<time>2026-08-17T05:07:42Z</time>
			</trkpt>
			<trkpt lat="30.258168" lon="120.095534">
				<speed>0.000000</speed>
				<ele>57.000000</ele>
				<time>2026-08-17T05:07:43Z</time>
			</trkpt>
			<trkpt lat="30.258160" lon="120.095535">
				<speed>0.000000</speed>
				<ele>57.000000</ele>
				<time>2026-08-17T05:07:44Z</time>
			</trkpt>
			<trkpt lat="30.258151" lon="120.095536">
				<speed>0.000000</speed>
				<ele>57.000000</ele>
				<time>2026-08-17T05:07:45Z</time>
			</trkpt>
			<trkpt lat="30.258142" lon="120.095537">
				<speed>0.000000</speed>
				<ele>57.000000</ele>
				<time>2026-08-17T05:07:46Z</time>
			</trkpt>
			<trkpt lat="30.258116" lon="120.095538">
				<speed>0.000000</speed>
				<ele>57.000000</ele>
				<time>2026-08-17T05:07:47Z</time>
			</trkpt>
			<trkpt lat="30.258108" lon="120.095538">
				<speed>0.000000</speed>
				<ele>57.000000</ele>
				<time>2026-08-17T05:07:48Z</time>
			</trkpt>
			<trkpt lat="30.258100" lon="120.095539">
				<speed>0.000000</speed>
				<ele>57.000000</ele>
				<time>2026-08-17T05:07:49Z</time>
			</trkpt>
			<trkpt lat="30.258092" lon="120.095539">
				<speed>0.000000</speed>
				<ele>57.000000</ele>
				<time>2026-08-17T05:07:50Z</time>
			</trkpt>
			<trkpt lat="30.258070" lon="120.095542">
				<speed>0.000000</speed>
				<ele>57.000000</ele>
				<time>2026-08-17T05:07:51Z</time>
			</trkpt>
			<trkpt lat="30.258062" lon="120.095544">
				<speed>0.000000</speed>
				<ele>57.000000</ele>
				<time>2026-08-17T05:07:52Z</time>
			</trkpt>
			<trkpt lat="30.258054" lon="120.095545">
				<speed>0.000000</speed>
				<ele>57.000000</ele>
				<time>2026-08-17T05:07:53Z</time>
			</trkpt>
			<trkpt lat="30.258047" lon="120.095547">
				<speed>0.000000</speed>
				<ele>57.000000</ele>
				<time>2026-08-17T05:07:54Z</time>
			</trkpt>
			<trkpt lat="30.258022" lon="120.095552">
				<speed>0.000000</speed>
				<ele>57.000000</ele>
				<time>2026-08-17T05:07:55Z</time>
			</trkpt>
			<trkpt lat="30.258014" lon="120.095553">
				<speed>0.000000</speed>
				<ele>57.000000</ele>
				<time>2026-08-17T05:07:56Z</time>
			</trkpt>
			<trkpt lat="30.258005" lon="120.095555">
				<speed>0.000000</speed>
				<ele>58.000000</ele>
				<time>2026-08-17T05:07:57Z</time>
			</trkpt>
			<trkpt lat="30.257996" lon="120.095557">
				<speed>0.000000</speed>
				<ele>58.000000</ele>
				<time>2026-08-17T05:07:58Z</time>
			</trkpt>
			<trkpt lat="30.257972" lon="120.095562">
				<speed>0.000000</speed>
				<ele>58.000000</ele>
				<time>2026-08-17T05:07:59Z</time>
			</trkpt>
			<trkpt lat="30.257964" lon="120.095564">
				<speed>0.000000</speed>
				<ele>58.000000</ele>
				<time>2026-08-17T05:08:00Z</time>
			</trkpt>
			<trkpt lat="30.257956" lon="120.095566">
				<speed>0.000000</speed>
				<ele>58.000000</ele>
				<time>2026-08-17T05:08:01Z</time>
			</trkpt>
			<trkpt lat="30.257949" lon="120.095568">
				<speed>0.000000</speed>
				<ele>58.000000</ele>
				<time>2026-08-17T05:08:02Z</time>
			</trkpt>
			<trkpt lat="30.257929" lon="120.095577">
				<speed>0.000000</speed>
				<ele>58.000000</ele>
				<time>2026-08-17T05:08:03Z</time>
			</trkpt>
			<trkpt lat="30.257925" lon="120.095581">
				<speed>0.000000</speed>
				<ele>58.000000</ele>
				<time>2026-08-17T05:08:04Z</time>
			</trkpt>
			<trkpt lat="30.257920" lon="120.095586">
				<speed>0.000000</speed>
				<ele>58.000000</ele>
				<time>2026-08-17T05:08:05Z</time>
			</trkpt>
			<trkpt lat="30.257915" lon="120.095591">
				<speed>0.000000</speed>
				<ele>58.000000</ele>
				<time>2026-08-17T05:08:06Z</time>
			</trkpt>
			<trkpt lat="30.257908" lon="120.095609">
				<speed>0.000000</speed>
				<ele>58.000000</ele>
				<time>2026-08-17T05:08:07Z</time>
			</trkpt>
			<trkpt lat="30.257907" lon="120.095616">
				<speed>0.000000</speed>
				<ele>58.000000</ele>
				<time>2026-08-17T05:08:08Z</time>
			</trkpt>
			<trkpt lat="30.257906" lon="120.095623">
				<speed>0.000000</speed>
				<ele>58.000000</ele>
				<time>2026-08-17T05:08:09Z</time>
			</trkpt>
			<trkpt lat="30.257905" lon="120.095630">
				<speed>0.000000</speed>
				<ele>58.000000</ele>
				<time>2026-08-17T05:08:10Z</time>
			</trkpt>
			<trkpt lat="30.257906" lon="120.095654">
				<speed>0.000000</speed>
				<ele>58.000000</ele>
				<time>2026-08-17T05:08:11Z</time>
			</trkpt>
			<trkpt lat="30.257907" lon="120.095663">
				<speed>0.000000</speed>
				<ele>58.000000</ele>
				<time>2026-08-17T05:08:12Z</time>
			</trkpt>
			<trkpt lat="30.257908" lon="120.095672">
				<speed>0.000000</speed>
				<ele>58.000000</ele>
				<time>2026-08-17T05:08:13Z</time>
			</trkpt>
			<trkpt lat="30.257909" lon="120.095680">
				<speed>0.000000</speed>
				<ele>58.000000</ele>
				<time>2026-08-17T05:08:14Z</time>
			</trkpt>
			<trkpt lat="30.257915" lon="120.095706">
				<speed>0.000000</speed>
				<ele>58.000000</ele>
				<time>2026-08-17T05:08:15Z</time>
			</trkpt>
			<trkpt lat="30.257916" lon="120.095715">
				<speed>0.000000</speed>
				<ele>58.000000</ele>
				<time>2026-08-17T05:08:16Z</time>
			</trkpt>
			<trkpt lat="30.257918" lon="120.095723">
				<speed>0.000000</speed>
				<ele>58.000000</ele>
				<time>2026-08-17T05:08:17Z</time>
			</trkpt>
			<trkpt lat="30.257920" lon="120.095732">
				<speed>0.000000</speed>
				<ele>58.000000</ele>
				<time>2026-08-17T05:08:18Z</time>
			</trkpt>
			<trkpt lat="30.257923" lon="120.095753">
				<speed>0.000000</speed>
				<ele>58.000000</ele>
				<time>2026-08-17T05:08:19Z</time>
			</trkpt>
			<trkpt lat="30.257923" lon="120.095761">
				<speed>0.000000</speed>
				<ele>58.000000</ele>
				<time>2026-08-17T05:08:20Z</time>
			</trkpt>
			<trkpt lat="30.257923" lon="120.095768">
				<speed>0.000000</speed>
				<ele>58.000000</ele>
				<time>2026-08-17T05:08:21Z</time>
			</trkpt>
			<trkpt lat="30.257924" lon="120.095776">
				<speed>0.000000</speed>
				<ele>58.000000</ele>
				<time>2026-08-17T05:08:22Z</time>
			</trkpt>
			<trkpt lat="30.257925" lon="120.095798">
				<speed>0.000000</speed>
				<ele>58.000000</ele>
				<time>2026-08-17T05:08:23Z</time>
			</trkpt>
			<trkpt lat="30.257927" lon="120.095806">
				<speed>0.000000</speed>
				<ele>58.000000</ele>
				<time>2026-08-17T05:08:24Z</time>
			</trkpt>
			<trkpt lat="30.257928" lon="120.095814">
				<speed>0.000000</speed>
				<ele>58.000000</ele>
				<time>2026-08-17T05:08:25Z</time>
			</trkpt>
			<trkpt lat="30.257929" lon="120.095822">
				<speed>0.000000</speed>
				<ele>58.000000</ele>
				<time>2026-08-17T05:08:26Z</time>
			</trkpt>
			<trkpt lat="30.257934" lon="120.095847">
				<speed>0.000000</speed>
				<ele>58.000000</ele>
				<time>2026-08-17T05:08:27Z</time>
			</trkpt>
			<trkpt lat="30.257935" lon="120.095856">
				<speed>0.000000</speed>
				<ele>58.000000</ele>
				<time>2026-08-17T05:08:28Z</time>
			</trkpt>
			<trkpt lat="30.257936" lon="120.095864">
				<speed>0.000000</speed>
				<ele>58.000000</ele>
				<time>2026-08-17T05:08:29Z</time>
			</trkpt>
			<trkpt lat="30.257937" lon="120.095873">
				<speed>0.000000</speed>
				<ele>58.000000</ele>
				<time>2026-08-17T05:08:30Z</time>
			</trkpt>
			<trkpt lat="30.257937" lon="120.095900">
				<speed>0.000000</speed>
				<ele>58.000000</ele>
				<time>2026-08-17T05:08:31Z</time>
			</trkpt>
			<trkpt lat="30.257938" lon="120.095910">
				<speed>0.000000</speed>
				<ele>58.000000</ele>
				<time>2026-08-17T05:08:32Z</time>
			</trkpt>
			<trkpt lat="30.257938" lon="120.095919">
				<speed>0.000000</speed>
				<ele>58.000000</ele>
				<time>2026-08-17T05:08:33Z</time>
			</trkpt>
			<trkpt lat="30.257939" lon="120.095928">
				<speed>0.000000</speed>
				<ele>58.000000</ele>
				<time>2026-08-17T05:08:34Z</time>
			</trkpt>
			<trkpt lat="30.257939" lon="120.095956">
				<speed>0.000000</speed>
				<ele>58.000000</ele>
				<time>2026-08-17T05:08:35Z</time>
			</trkpt>
			<trkpt lat="30.257939" lon="120.095965">
				<speed>0.000000</speed>
				<ele>58.000000</ele>
				<time>2026-08-17T05:08:36Z</time>
			</trkpt>
			<trkpt lat="30.257938" lon="120.095974">
				<speed>0.000000</speed>
				<ele>58.000000</ele>
				<time>2026-08-17T05:08:37Z</time>
			</trkpt>
			<trkpt lat="30.257937" lon="120.095983">
				<speed>0.000000</speed>
				<ele>58.000000</ele>
				<time>2026-08-17T05:08:38Z</time>
			</trkpt>
			<trkpt lat="30.257930" lon="120.096008">
				<speed>0.000000</speed>
				<ele>58.000000</ele>
				<time>2026-08-17T05:08:39Z</time>
			</trkpt>
			<trkpt lat="30.257926" lon="120.096014">
				<speed>0.000000</speed>
				<ele>58.000000</ele>
				<time>2026-08-17T05:08:40Z</time>
			</trkpt>
			<trkpt lat="30.257922" lon="120.096021">
				<speed>0.000000</speed>
				<ele>58.000000</ele>
				<time>2026-08-17T05:08:41Z</time>
			</trkpt>
			<trkpt lat="30.257918" lon="120.096027">
				<speed>0.000000</speed>
				<ele>58.000000</ele>
				<time>2026-08-17T05:08:42Z</time>
			</trkpt>
			<trkpt lat="30.257902" lon="120.096037">
				<speed>0.000000</speed>
				<ele>58.000000</ele>
				<time>2026-08-17T05:08:43Z</time>
			</trkpt>
			<trkpt lat="30.257898" lon="120.096039">
				<speed>0.000000</speed>
				<ele>58.000000</ele>
				<time>2026-08-17T05:08:44Z</time>
			</trkpt>
			<trkpt lat="30.257893" lon="120.096040">
				<speed>0.000000</speed>
				<ele>58.000000</ele>
				<time>2026-08-17T05:08:45Z</time>
			</trkpt>
			<trkpt lat="30.257889" lon="120.096041">
				<speed>0.000000</speed>
				<ele>58.000000</ele>
				<time>2026-08-17T05:08:46Z</time>
			</trkpt>
			<trkpt lat="30.257865" lon="120.096047">
				<speed>0.000000</speed>
				<ele>58.000000</ele>
				<time>2026-08-17T05:08:47Z</time>
			</trkpt>
			<trkpt lat="30.257857" lon="120.096049">
				<speed>0.000000</speed>
				<ele>58.000000</ele>
				<time>2026-08-17T05:08:48Z</time>
			</trkpt>
			<trkpt lat="30.257849" lon="120.096050">
				<speed>0.000000</speed>
				<ele>58.000000</ele>
				<time>2026-08-17T05:08:49Z</time>
			</trkpt>
			<trkpt lat="30.257841" lon="120.096051">
				<speed>0.000000</speed>
				<ele>58.000000</ele>
				<time>2026-08-17T05:08:50Z</time>
			</trkpt>
			<trkpt lat="30.257818" lon="120.096053">
				<speed>0.000000</speed>
				<ele>58.000000</ele>
				<time>2026-08-17T05:08:51Z</time>
			</trkpt>
			<trkpt lat="30.257810" lon="120.096054">
				<speed>0.000000</speed>
				<ele>58.000000</ele>
				<time>2026-08-17T05:08:52Z</time>
			</trkpt>
			<trkpt lat="30.257803" lon="120.096054">
				<speed>0.000000</speed>
				<ele>58.000000</ele>
				<time>2026-08-17T05:08:53Z</time>
			</trkpt>
			<trkpt lat="30.257795" lon="120.096054">
				<speed>0.000000</speed>
				<ele>58.000000</ele>
				<time>2026-08-17T05:08:54Z</time>
			</trkpt>
			<trkpt lat="30.257773" lon="120.096056">
				<speed>0.000000</speed>
				<ele>58.000000</ele>
				<time>2026-08-17T05:08:55Z</time>
			</trkpt>
			<trkpt lat="30.257766" lon="120.096057">
				<speed>0.000000</speed>
				<ele>58.000000</ele>
				<time>2026-08-17T05:08:56Z</time>
			</trkpt>
			<trkpt lat="30.257760" lon="120.096058">
				<speed>0.000000</speed>
				<ele>58.000000</ele>
				<time>2026-08-17T05:08:57Z</time>
			</trkpt>
			<trkpt lat="30.257753" lon="120.096058">
				<speed>0.000000</speed>
				<ele>58.000000</ele>
				<time>2026-08-17T05:08:58Z</time>
			</trkpt>
			<trkpt lat="30.257735" lon="120.096062">
				<speed>0.000000</speed>
				<ele>58.000000</ele>
				<time>2026-08-17T05:08:59Z</time>
			</trkpt>
			<trkpt lat="30.257729" lon="120.096063">
				<speed>0.000000</speed>
				<ele>58.000000</ele>
				<time>2026-08-17T05:09:00Z</time>
			</trkpt>
			<trkpt lat="30.257723" lon="120.096064">
				<speed>0.000000</speed>
				<ele>58.000000</ele>
				<time>2026-08-17T05:09:01Z</time>
			</trkpt>
			<trkpt lat="30.257718" lon="120.096064">
				<speed>0.000000</speed>
				<ele>58.000000</ele>
				<time>2026-08-17T05:09:02Z</time>
			</trkpt>
			<trkpt lat="30.257702" lon="120.096070">
				<speed>0.000000</speed>
				<ele>58.000000</ele>
				<time>2026-08-17T05:09:03Z</time>
			</trkpt>
			<trkpt lat="30.257698" lon="120.096072">
				<speed>0.000000</speed>
				<ele>58.000000</ele>
				<time>2026-08-17T05:09:04Z</time>
			</trkpt>
			<trkpt lat="30.257694" lon="120.096075">
				<speed>0.000000</speed>
				<ele>59.000000</ele>
				<time>2026-08-17T05:09:05Z</time>
			</trkpt>
			<trkpt lat="30.257691" lon="120.096077">
				<speed>0.000000</speed>
				<ele>59.000000</ele>
				<time>2026-08-17T05:09:06Z</time>
			</trkpt>
			<trkpt lat="30.257682" lon="120.096088">
				<speed>0.000000</speed>
				<ele>59.000000</ele>
				<time>2026-08-17T05:09:07Z</time>
			</trkpt>
			<trkpt lat="30.257680" lon="120.096093">
				<speed>0.000000</speed>
				<ele>59.000000</ele>
				<time>2026-08-17T05:09:08Z</time>
			</trkpt>
			<trkpt lat="30.257678" lon="120.096097">
				<speed>0.000000</speed>
				<ele>60.000000</ele>
				<time>2026-08-17T05:09:09Z</time>
			</trkpt>
			<trkpt lat="30.257675" lon="120.096102">
				<speed>0.000000</speed>
				<ele>60.000000</ele>
				<time>2026-08-17T05:09:10Z</time>
			</trkpt>
			<trkpt lat="30.257669" lon="120.096117">
				<speed>0.000000</speed>
				<ele>60.000000</ele>
				<time>2026-08-17T05:09:11Z</time>
			</trkpt>
			<trkpt lat="30.257667" lon="120.096123">
				<speed>0.000000</speed>
				<ele>60.000000</ele>
				<time>2026-08-17T05:09:12Z</time>
			</trkpt>
			<trkpt lat="30.257666" lon="120.096129">
				<speed>0.000000</speed>
				<ele>61.000000</ele>
				<time>2026-08-17T05:09:13Z</time>
			</trkpt>
			<trkpt lat="30.257664" lon="120.096135">
				<speed>0.000000</speed>
				<ele>61.000000</ele>
				<time>2026-08-17T05:09:14Z</time>
			</trkpt>
			<trkpt lat="30.257662" lon="120.096153">
				<speed>0.000000</speed>
				<ele>61.000000</ele>
				<time>2026-08-17T05:09:15Z</time>
			</trkpt>
			<trkpt lat="30.257663" lon="120.096158">
				<speed>0.000000</speed>
				<ele>61.000000</ele>
				<time>2026-08-17T05:09:16Z</time>
			</trkpt>
			<trkpt lat="30.257663" lon="120.096163">
				<speed>0.000000</speed>
				<ele>62.000000</ele>
				<time>2026-08-17T05:09:17Z</time>
			</trkpt>
			<trkpt lat="30.257664" lon="120.096169">
				<speed>0.000000</speed>
				<ele>62.000000</ele>
				<time>2026-08-17T05:09:18Z</time>
			</trkpt>
			<trkpt lat="30.257668" lon="120.096183">
				<speed>0.000000</speed>
				<ele>62.000000</ele>
				<time>2026-08-17T05:09:19Z</time>
			</trkpt>
			<trkpt lat="30.257671" lon="120.096188">
				<speed>0.000000</speed>
				<ele>62.000000</ele>
				<time>2026-08-17T05:09:20Z</time>
			</trkpt>
			<trkpt lat="30.257673" lon="120.096192">
				<speed>0.000000</speed>
				<ele>63.000000</ele>
				<time>2026-08-17T05:09:21Z</time>
			</trkpt>
			<trkpt lat="30.257676" lon="120.096197">
				<speed>0.000000</speed>
				<ele>63.000000</ele>
				<time>2026-08-17T05:09:22Z</time>
			</trkpt>
			<trkpt lat="30.257686" lon="120.096208">
				<speed>0.000000</speed>
				<ele>63.000000</ele>
				<time>2026-08-17T05:09:23Z</time>
			</trkpt>
			<trkpt lat="30.257689" lon="120.096211">
				<speed>0.000000</speed>
				<ele>63.000000</ele>
				<time>2026-08-17T05:09:24Z</time>
			</trkpt>
			<trkpt lat="30.257692" lon="120.096215">
				<speed>0.000000</speed>
				<ele>64.000000</ele>
				<time>2026-08-17T05:09:25Z</time>
			</trkpt>
			<trkpt lat="30.257695" lon="120.096218">
				<speed>0.000000</speed>
				<ele>64.000000</ele>
				<time>2026-08-17T05:09:26Z</time>
			</trkpt>
			<trkpt lat="30.257702" lon="120.096228">
				<speed>0.000000</speed>
				<ele>64.000000</ele>
				<time>2026-08-17T05:09:27Z</time>
			</trkpt>
			<trkpt lat="30.257704" lon="120.096232">
				<speed>0.000000</speed>
				<ele>64.000000</ele>
				<time>2026-08-17T05:09:28Z</time>
			</trkpt>
			<trkpt lat="30.257706" lon="120.096236">
				<speed>0.000000</speed>
				<ele>64.000000</ele>
				<time>2026-08-17T05:09:29Z</time>
			</trkpt>
			<trkpt lat="30.257708" lon="120.096239">
				<speed>0.000000</speed>
				<ele>64.000000</ele>
				<time>2026-08-17T05:09:30Z</time>
			</trkpt>
			<trkpt lat="30.257709" lon="120.096241">
				<speed>0.000000</speed>
				<ele>64.000000</ele>
				<time>2026-08-17T05:09:31Z</time>
			</trkpt>
			<trkpt lat="30.257710" lon="120.096244">
				<speed>0.000000</speed>
				<ele>64.000000</ele>
				<time>2026-08-17T05:09:32Z</time>
			</trkpt>
			<trkpt lat="30.257711" lon="120.096246">
				<speed>0.000000</speed>
				<ele>65.000000</ele>
				<time>2026-08-17T05:09:33Z</time>
			</trkpt>
			<trkpt lat="30.257712" lon="120.096248">
				<speed>0.000000</speed>
				<ele>65.000000</ele>
				<time>2026-08-17T05:09:34Z</time>
			</trkpt>
			<trkpt lat="30.257713" lon="120.096250">
				<speed>0.000000</speed>
				<ele>65.000000</ele>
				<time>2026-08-17T05:09:35Z</time>
			</trkpt>
			<trkpt lat="30.257721" lon="120.096267">
				<speed>0.000000</speed>
				<ele>65.000000</ele>
				<time>2026-08-17T05:09:36Z</time>
			</trkpt>
			<trkpt lat="30.257723" lon="120.096271">
				<speed>0.000000</speed>
				<ele>66.000000</ele>
				<time>2026-08-17T05:09:37Z</time>
			</trkpt>
			<trkpt lat="30.257725" lon="120.096275">
				<speed>0.000000</speed>
				<ele>66.000000</ele>
				<time>2026-08-17T05:09:38Z</time>
			</trkpt>
			<trkpt lat="30.257727" lon="120.096280">
				<speed>0.000000</speed>
				<ele>66.000000</ele>
				<time>2026-08-17T05:09:39Z</time>
			</trkpt>
			<trkpt lat="30.257732" lon="120.096292">
				<speed>0.000000</speed>
				<ele>66.000000</ele>
				<time>2026-08-17T05:09:40Z</time>
			</trkpt>
			<trkpt lat="30.257733" lon="120.096295">
				<speed>0.000000</speed>
				<ele>67.000000</ele>
				<time>2026-08-17T05:09:41Z</time>
			</trkpt>
			<trkpt lat="30.257733" lon="120.096298">
				<speed>0.000000</speed>
				<ele>67.000000</ele>
				<time>2026-08-17T05:09:42Z</time>
			</trkpt>
			<trkpt lat="30.257734" lon="120.096301">
				<speed>0.000000</speed>
				<ele>67.000000</ele>
				<time>2026-08-17T05:09:43Z</time>
			</trkpt>
			<trkpt lat="30.257733" lon="120.096312">
				<speed>0.000000</speed>
				<ele>68.000000</ele>
				<time>2026-08-17T05:09:50Z</time>
			</trkpt>
			<trkpt lat="30.257727" lon="120.096324">
				<speed>0.000000</speed>
				<ele>68.000000</ele>
				<time>2026-08-17T05:09:51Z</time>
			</trkpt>
			<trkpt lat="30.257724" lon="120.096327">
				<speed>0.000000</speed>
				<ele>68.000000</ele>
				<time>2026-08-17T05:09:52Z</time>
			</trkpt>
			<trkpt lat="30.257721" lon="120.096330">
				<speed>0.000000</speed>
				<ele>69.000000</ele>
				<time>2026-08-17T05:09:53Z</time>
			</trkpt>
			<trkpt lat="30.257718" lon="120.096333">
				<speed>0.000000</speed>
				<ele>69.000000</ele>
				<time>2026-08-17T05:09:54Z</time>
			</trkpt>
			<trkpt lat="30.257704" lon="120.096340">
				<speed>0.000000</speed>
				<ele>69.000000</ele>
				<time>2026-08-17T05:09:55Z</time>
			</trkpt>
			<trkpt lat="30.257699" lon="120.096343">
				<speed>0.000000</speed>
				<ele>69.000000</ele>
				<time>2026-08-17T05:09:56Z</time>
			</trkpt>
			<trkpt lat="30.257694" lon="120.096345">
				<speed>0.000000</speed>
				<ele>70.000000</ele>
				<time>2026-08-17T05:09:57Z</time>
			</trkpt>
			<trkpt lat="30.257689" lon="120.096348">
				<speed>0.000000</speed>
				<ele>70.000000</ele>
				<time>2026-08-17T05:09:58Z</time>
			</trkpt>
			<trkpt lat="30.257674" lon="120.096356">
				<speed>0.000000</speed>
				<ele>70.000000</ele>
				<time>2026-08-17T05:09:59Z</time>
			</trkpt>
			<trkpt lat="30.257669" lon="120.096358">
				<speed>0.000000</speed>
				<ele>70.000000</ele>
				<time>2026-08-17T05:10:00Z</time>
			</trkpt>
			<trkpt lat="30.257664" lon="120.096360">
				<speed>0.000000</speed>
				<ele>70.000000</ele>
				<time>2026-08-17T05:10:01Z</time>
			</trkpt>
			<trkpt lat="30.257659" lon="120.096361">
				<speed>0.000000</speed>
				<ele>70.000000</ele>
				<time>2026-08-17T05:10:02Z</time>
			</trkpt>
			<trkpt lat="30.257644" lon="120.096366">
				<speed>0.000000</speed>
				<ele>70.000000</ele>
				<time>2026-08-17T05:10:03Z</time>
			</trkpt>
			<trkpt lat="30.257639" lon="120.096368">
				<speed>0.000000</speed>
				<ele>70.000000</ele>
				<time>2026-08-17T05:10:04Z</time>
			</trkpt>
			<trkpt lat="30.257634" lon="120.096370">
				<speed>0.000000</speed>
				<ele>71.000000</ele>
				<time>2026-08-17T05:10:05Z</time>
			</trkpt>
			<trkpt lat="30.257629" lon="120.096371">
				<speed>0.000000</speed>
				<ele>71.000000</ele>
				<time>2026-08-17T05:10:06Z</time>
			</trkpt>
			<trkpt lat="30.257615" lon="120.096376">
				<speed>0.000000</speed>
				<ele>71.000000</ele>
				<time>2026-08-17T05:10:07Z</time>
			</trkpt>
			<trkpt lat="30.257611" lon="120.096376">
				<speed>0.000000</speed>
				<ele>71.000000</ele>
				<time>2026-08-17T05:10:08Z</time>
			</trkpt>
			<trkpt lat="30.257606" lon="120.096377">
				<speed>0.000000</speed>
				<ele>71.000000</ele>
				<time>2026-08-17T05:10:09Z</time>
			</trkpt>
			<trkpt lat="30.257602" lon="120.096377">
				<speed>0.000000</speed>
				<ele>71.000000</ele>
				<time>2026-08-17T05:10:10Z</time>
			</trkpt>
			<trkpt lat="30.257587" lon="120.096375">
				<speed>0.000000</speed>
				<ele>71.000000</ele>
				<time>2026-08-17T05:10:11Z</time>
			</trkpt>
			<trkpt lat="30.257584" lon="120.096375">
				<speed>0.000000</speed>
				<ele>71.000000</ele>
				<time>2026-08-17T05:10:12Z</time>
			</trkpt>
			<trkpt lat="30.257580" lon="120.096375">
				<speed>0.000000</speed>
				<ele>72.000000</ele>
				<time>2026-08-17T05:10:13Z</time>
			</trkpt>
			<trkpt lat="30.257577" lon="120.096375">
				<speed>0.000000</speed>
				<ele>72.000000</ele>
				<time>2026-08-17T05:10:14Z</time>
			</trkpt>
			<trkpt lat="30.257563" lon="120.096374">
				<speed>0.000000</speed>
				<ele>72.000000</ele>
				<time>2026-08-17T05:10:15Z</time>
			</trkpt>
			<trkpt lat="30.257558" lon="120.096375">
				<speed>0.000000</speed>
				<ele>72.000000</ele>
				<time>2026-08-17T05:10:16Z</time>
			</trkpt>
			<trkpt lat="30.257554" lon="120.096376">
				<speed>0.000000</speed>
				<ele>73.000000</ele>
				<time>2026-08-17T05:10:17Z</time>
			</trkpt>
			<trkpt lat="30.257549" lon="120.096377">
				<speed>0.000000</speed>
				<ele>73.000000</ele>
				<time>2026-08-17T05:10:18Z</time>
			</trkpt>
			<trkpt lat="30.257536" lon="120.096385">
				<speed>0.000000</speed>
				<ele>73.000000</ele>
				<time>2026-08-17T05:10:19Z</time>
			</trkpt>
			<trkpt lat="30.257532" lon="120.096387">
				<speed>0.000000</speed>
				<ele>73.000000</ele>
				<time>2026-08-17T05:10:20Z</time>
			</trkpt>
			<trkpt lat="30.257528" lon="120.096390">
				<speed>0.000000</speed>
				<ele>74.000000</ele>
				<time>2026-08-17T05:10:21Z</time>
			</trkpt>
			<trkpt lat="30.257524" lon="120.096393">
				<speed>0.000000</speed>
				<ele>74.000000</ele>
				<time>2026-08-17T05:10:22Z</time>
			</trkpt>
			<trkpt lat="30.257503" lon="120.096403">
				<speed>0.000000</speed>
				<ele>75.000000</ele>
				<time>2026-08-17T05:10:32Z</time>
			</trkpt>
			<trkpt lat="30.257483" lon="120.096411">
				<speed>0.000000</speed>
				<ele>76.000000</ele>
				<time>2026-08-17T05:10:33Z</time>
			</trkpt>
			<trkpt lat="30.257478" lon="120.096414">
				<speed>0.000000</speed>
				<ele>76.000000</ele>
				<time>2026-08-17T05:10:34Z</time>
			</trkpt>
			<trkpt lat="30.257474" lon="120.096416">
				<speed>0.000000</speed>
				<ele>76.000000</ele>
				<time>2026-08-17T05:10:35Z</time>
			</trkpt>
			<trkpt lat="30.257469" lon="120.096419">
				<speed>0.000000</speed>
				<ele>76.000000</ele>
				<time>2026-08-17T05:10:36Z</time>
			</trkpt>
			<trkpt lat="30.257462" lon="120.096423">
				<speed>0.000000</speed>
				<ele>76.000000</ele>
				<time>2026-08-17T05:10:37Z</time>
			</trkpt>
			<trkpt lat="30.257458" lon="120.096426">
				<speed>0.000000</speed>
				<ele>76.000000</ele>
				<time>2026-08-17T05:10:38Z</time>
			</trkpt>
			<trkpt lat="30.257454" lon="120.096429">
				<speed>0.000000</speed>
				<ele>76.000000</ele>
				<time>2026-08-17T05:10:39Z</time>
			</trkpt>
			<trkpt lat="30.257450" lon="120.096432">
				<speed>0.000000</speed>
				<ele>76.000000</ele>
				<time>2026-08-17T05:10:40Z</time>
			</trkpt>
			<trkpt lat="30.257440" lon="120.096441">
				<speed>0.000000</speed>
				<ele>77.000000</ele>
				<time>2026-08-17T05:10:41Z</time>
			</trkpt>
			<trkpt lat="30.257436" lon="120.096444">
				<speed>0.000000</speed>
				<ele>77.000000</ele>
				<time>2026-08-17T05:10:42Z</time>
			</trkpt>
			<trkpt lat="30.257433" lon="120.096447">
				<speed>0.000000</speed>
				<ele>77.000000</ele>
				<time>2026-08-17T05:10:43Z</time>
			</trkpt>
			<trkpt lat="30.257430" lon="120.096449">
				<speed>0.000000</speed>
				<ele>77.000000</ele>
				<time>2026-08-17T05:10:44Z</time>
			</trkpt>
			<trkpt lat="30.257419" lon="120.096459">
				<speed>0.000000</speed>
				<ele>78.000000</ele>
				<time>2026-08-17T05:10:45Z</time>
			</trkpt>
			<trkpt lat="30.257415" lon="120.096462">
				<speed>0.000000</speed>
				<ele>78.000000</ele>
				<time>2026-08-17T05:10:46Z</time>
			</trkpt>
			<trkpt lat="30.257411" lon="120.096465">
				<speed>0.000000</speed>
				<ele>78.000000</ele>
				<time>2026-08-17T05:10:47Z</time>
			</trkpt>
			<trkpt lat="30.257407" lon="120.096468">
				<speed>0.000000</speed>
				<ele>78.000000</ele>
				<time>2026-08-17T05:10:48Z</time>
			</trkpt>
			<trkpt lat="30.257396" lon="120.096479">
				<speed>0.000000</speed>
				<ele>78.000000</ele>
				<time>2026-08-17T05:10:49Z</time>
			</trkpt>
			<trkpt lat="30.257392" lon="120.096482">
				<speed>0.000000</speed>
				<ele>78.000000</ele>
				<time>2026-08-17T05:10:50Z</time>
			</trkpt>
			<trkpt lat="30.257388" lon="120.096486">
				<speed>0.000000</speed>
				<ele>78.000000</ele>
				<time>2026-08-17T05:10:51Z</time>
			</trkpt>
			<trkpt lat="30.257384" lon="120.096489">
				<speed>0.000000</speed>
				<ele>78.000000</ele>
				<time>2026-08-17T05:10:52Z</time>
			</trkpt>
			<trkpt lat="30.257370" lon="120.096498">
				<speed>0.000000</speed>
				<ele>79.000000</ele>
				<time>2026-08-17T05:10:53Z</time>
			</trkpt>
			<trkpt lat="30.257365" lon="120.096501">
				<speed>0.000000</speed>
				<ele>79.000000</ele>
				<time>2026-08-17T05:10:54Z</time>
			</trkpt>
			<trkpt lat="30.257360" lon="120.096505">
				<speed>0.000000</speed>
				<ele>79.000000</ele>
				<time>2026-08-17T05:10:55Z</time>
			</trkpt>
			<trkpt lat="30.257355" lon="120.096508">
				<speed>0.000000</speed>
				<ele>79.000000</ele>
				<time>2026-08-17T05:10:56Z</time>
			</trkpt>
			<trkpt lat="30.257339" lon="120.096519">
				<speed>0.000000</speed>
				<ele>79.000000</ele>
				<time>2026-08-17T05:10:57Z</time>
			</trkpt>
			<trkpt lat="30.257333" lon="120.096522">
				<speed>0.000000</speed>
				<ele>79.000000</ele>
				<time>2026-08-17T05:10:58Z</time>
			</trkpt>
			<trkpt lat="30.257327" lon="120.096526">
				<speed>0.000000</speed>
				<ele>79.000000</ele>
				<time>2026-08-17T05:10:59Z</time>
			</trkpt>
			<trkpt lat="30.257322" lon="120.096530">
				<speed>0.000000</speed>
				<ele>79.000000</ele>
				<time>2026-08-17T05:11:00Z</time>
			</trkpt>
			<trkpt lat="30.257302" lon="120.096541">
				<speed>0.000000</speed>
				<ele>80.000000</ele>
				<time>2026-08-17T05:11:01Z</time>
			</trkpt>
			<trkpt lat="30.257295" lon="120.096545">
				<speed>0.000000</speed>
				<ele>80.000000</ele>
				<time>2026-08-17T05:11:02Z</time>
			</trkpt>
			<trkpt lat="30.257289" lon="120.096548">
				<speed>0.000000</speed>
				<ele>80.000000</ele>
				<time>2026-08-17T05:11:03Z</time>
			</trkpt>
			<trkpt lat="30.257282" lon="120.096552">
				<speed>0.000000</speed>
				<ele>80.000000</ele>
				<time>2026-08-17T05:11:04Z</time>
			</trkpt>
			<trkpt lat="30.257261" lon="120.096560">
				<speed>0.000000</speed>
				<ele>80.000000</ele>
				<time>2026-08-17T05:11:05Z</time>
			</trkpt>
			<trkpt lat="30.257255" lon="120.096562">
				<speed>0.000000</speed>
				<ele>80.000000</ele>
				<time>2026-08-17T05:11:06Z</time>
			</trkpt>
			<trkpt lat="30.257248" lon="120.096563">
				<speed>0.000000</speed>
				<ele>80.000000</ele>
				<time>2026-08-17T05:11:07Z</time>
			</trkpt>
			<trkpt lat="30.257241" lon="120.096565">
				<speed>0.000000</speed>
				<ele>80.000000</ele>
				<time>2026-08-17T05:11:08Z</time>
			</trkpt>
			<trkpt lat="30.257221" lon="120.096568">
				<speed>0.000000</speed>
				<ele>81.000000</ele>
				<time>2026-08-17T05:11:09Z</time>
			</trkpt>
			<trkpt lat="30.257214" lon="120.096567">
				<speed>0.000000</speed>
				<ele>81.000000</ele>
				<time>2026-08-17T05:11:10Z</time>
			</trkpt>
			<trkpt lat="30.257207" lon="120.096567">
				<speed>0.000000</speed>
				<ele>81.000000</ele>
				<time>2026-08-17T05:11:11Z</time>
			</trkpt>
			<trkpt lat="30.257201" lon="120.096566">
				<speed>0.000000</speed>
				<ele>81.000000</ele>
				<time>2026-08-17T05:11:12Z</time>
			</trkpt>
			<trkpt lat="30.257180" lon="120.096562">
				<speed>0.000000</speed>
				<ele>81.000000</ele>
				<time>2026-08-17T05:11:13Z</time>
			</trkpt>
			<trkpt lat="30.257173" lon="120.096562">
				<speed>0.000000</speed>
				<ele>81.000000</ele>
				<time>2026-08-17T05:11:14Z</time>
			</trkpt>
			<trkpt lat="30.257165" lon="120.096561">
				<speed>0.000000</speed>
				<ele>81.000000</ele>
				<time>2026-08-17T05:11:15Z</time>
			</trkpt>
			<trkpt lat="30.257158" lon="120.096560">
				<speed>0.000000</speed>
				<ele>81.000000</ele>
				<time>2026-08-17T05:11:16Z</time>
			</trkpt>
			<trkpt lat="30.257138" lon="120.096560">
				<speed>0.000000</speed>
				<ele>81.000000</ele>
				<time>2026-08-17T05:11:17Z</time>
			</trkpt>
			<trkpt lat="30.257132" lon="120.096559">
				<speed>0.000000</speed>
				<ele>81.000000</ele>
				<time>2026-08-17T05:11:18Z</time>
			</trkpt>
			<trkpt lat="30.257125" lon="120.096559">
				<speed>0.000000</speed>
				<ele>81.000000</ele>
				<time>2026-08-17T05:11:19Z</time>
			</trkpt>
			<trkpt lat="30.257119" lon="120.096559">
				<speed>0.000000</speed>
				<ele>81.000000</ele>
				<time>2026-08-17T05:11:20Z</time>
			</trkpt>
			<trkpt lat="30.257101" lon="120.096559">
				<speed>0.000000</speed>
				<ele>81.000000</ele>
				<time>2026-08-17T05:11:21Z</time>
			</trkpt>
			<trkpt lat="30.257095" lon="120.096559">
				<speed>0.000000</speed>
				<ele>81.000000</ele>
				<time>2026-08-17T05:11:22Z</time>
			</trkpt>
			<trkpt lat="30.257089" lon="120.096559">
				<speed>0.000000</speed>
				<ele>81.000000</ele>
				<time>2026-08-17T05:11:23Z</time>
			</trkpt>
			<trkpt lat="30.257083" lon="120.096559">
				<speed>0.000000</speed>
				<ele>81.000000</ele>
				<time>2026-08-17T05:11:24Z</time>
			</trkpt>
			<trkpt lat="30.257064" lon="120.096560">
				<speed>0.000000</speed>
				<ele>82.000000</ele>
				<time>2026-08-17T05:11:25Z</time>
			</trkpt>
			<trkpt lat="30.257057" lon="120.096561">
				<speed>0.000000</speed>
				<ele>82.000000</ele>
				<time>2026-08-17T05:11:26Z</time>
			</trkpt>
			<trkpt lat="30.257050" lon="120.096561">
				<speed>0.000000</speed>
				<ele>82.000000</ele>
				<time>2026-08-17T05:11:27Z</time>
			</trkpt>
			<trkpt lat="30.257043" lon="120.096562">
				<speed>0.000000</speed>
				<ele>82.000000</ele>
				<time>2026-08-17T05:11:28Z</time>
			</trkpt>
			<trkpt lat="30.257020" lon="120.096566">
				<speed>0.000000</speed>
				<ele>82.000000</ele>
				<time>2026-08-17T05:11:29Z</time>
			</trkpt>
			<trkpt lat="30.257012" lon="120.096567">
				<speed>0.000000</speed>
				<ele>82.000000</ele>
				<time>2026-08-17T05:11:30Z</time>
			</trkpt>
			<trkpt lat="30.257004" lon="120.096568">
				<speed>0.000000</speed>
				<ele>82.000000</ele>
				<time>2026-08-17T05:11:31Z</time>
			</trkpt>
			<trkpt lat="30.256997" lon="120.096570">
				<speed>0.000000</speed>
				<ele>82.000000</ele>
				<time>2026-08-17T05:11:32Z</time>
			</trkpt>
			<trkpt lat="30.256973" lon="120.096572">
				<speed>0.000000</speed>
				<ele>82.000000</ele>
				<time>2026-08-17T05:11:33Z</time>
			</trkpt>
			<trkpt lat="30.256965" lon="120.096573">
				<speed>0.000000</speed>
				<ele>82.000000</ele>
				<time>2026-08-17T05:11:34Z</time>
			</trkpt>
			<trkpt lat="30.256958" lon="120.096573">
				<speed>0.000000</speed>
				<ele>82.000000</ele>
				<time>2026-08-17T05:11:35Z</time>
			</trkpt>
			<trkpt lat="30.256950" lon="120.096574">
				<speed>0.000000</speed>
				<ele>82.000000</ele>
				<time>2026-08-17T05:11:36Z</time>
			</trkpt>
			<trkpt lat="30.256928" lon="120.096578">
				<speed>0.000000</speed>
				<ele>83.000000</ele>
				<time>2026-08-17T05:11:37Z</time>
			</trkpt>
			<trkpt lat="30.256920" lon="120.096580">
				<speed>0.000000</speed>
				<ele>83.000000</ele>
				<time>2026-08-17T05:11:38Z</time>
			</trkpt>
			<trkpt lat="30.256913" lon="120.096581">
				<speed>0.000000</speed>
				<ele>83.000000</ele>
				<time>2026-08-17T05:11:39Z</time>
			</trkpt>
			<trkpt lat="30.256905" lon="120.096583">
				<speed>0.000000</speed>
				<ele>83.000000</ele>
				<time>2026-08-17T05:11:40Z</time>
			</trkpt>
			<trkpt lat="30.256884" lon="120.096590">
				<speed>0.000000</speed>
				<ele>83.000000</ele>
				<time>2026-08-17T05:11:41Z</time>
			</trkpt>
			<trkpt lat="30.256878" lon="120.096594">
				<speed>0.000000</speed>
				<ele>83.000000</ele>
				<time>2026-08-17T05:11:42Z</time>
			</trkpt>
			<trkpt lat="30.256872" lon="120.096599">
				<speed>0.000000</speed>
				<ele>83.000000</ele>
				<time>2026-08-17T05:11:43Z</time>
			</trkpt>
			<trkpt lat="30.256866" lon="120.096603">
				<speed>0.000000</speed>
				<ele>83.000000</ele>
				<time>2026-08-17T05:11:44Z</time>
			</trkpt>
			<trkpt lat="30.256848" lon="120.096618">
				<speed>0.000000</speed>
				<ele>84.000000</ele>
				<time>2026-08-17T05:11:45Z</time>
			</trkpt>
			<trkpt lat="30.256841" lon="120.096624">
				<speed>0.000000</speed>
				<ele>84.000000</ele>
				<time>2026-08-17T05:11:46Z</time>
			</trkpt>
			<trkpt lat="30.256835" lon="120.096629">
				<speed>0.000000</speed>
				<ele>84.000000</ele>
				<time>2026-08-17T05:11:47Z</time>
			</trkpt>
			<trkpt lat="30.256829" lon="120.096635">
				<speed>0.000000</speed>
				<ele>84.000000</ele>
				<time>2026-08-17T05:11:48Z</time>
			</trkpt>
			<trkpt lat="30.256811" lon="120.096652">
				<speed>0.000000</speed>
				<ele>84.000000</ele>
				<time>2026-08-17T05:11:49Z</time>
			</trkpt>
			<trkpt lat="30.256804" lon="120.096657">
				<speed>0.000000</speed>
				<ele>84.000000</ele>
				<time>2026-08-17T05:11:50Z</time>
			</trkpt>
			<trkpt lat="30.256798" lon="120.096662">
				<speed>0.000000</speed>
				<ele>84.000000</ele>
				<time>2026-08-17T05:11:51Z</time>
			</trkpt>
			<trkpt lat="30.256791" lon="120.096667">
				<speed>0.000000</speed>
				<ele>84.000000</ele>
				<time>2026-08-17T05:11:52Z</time>
			</trkpt>
			<trkpt lat="30.256772" lon="120.096679">
				<speed>0.000000</speed>
				<ele>84.000000</ele>
				<time>2026-08-17T05:11:53Z</time>
			</trkpt>
			<trkpt lat="30.256764" lon="120.096682">
				<speed>0.000000</speed>
				<ele>84.000000</ele>
				<time>2026-08-17T05:11:54Z</time>
			</trkpt>
			<trkpt lat="30.256757" lon="120.096686">
				<speed>0.000000</speed>
				<ele>84.000000</ele>
				<time>2026-08-17T05:11:55Z</time>
			</trkpt>
			<trkpt lat="30.256749" lon="120.096690">
				<speed>0.000000</speed>
				<ele>84.000000</ele>
				<time>2026-08-17T05:11:56Z</time>
			</trkpt>
			<trkpt lat="30.256725" lon="120.096702">
				<speed>0.000000</speed>
				<ele>85.000000</ele>
				<time>2026-08-17T05:11:57Z</time>
			</trkpt>
			<trkpt lat="30.256716" lon="120.096707">
				<speed>0.000000</speed>
				<ele>85.000000</ele>
				<time>2026-08-17T05:11:58Z</time>
			</trkpt>
			<trkpt lat="30.256707" lon="120.096711">
				<speed>0.000000</speed>
				<ele>85.000000</ele>
				<time>2026-08-17T05:11:59Z</time>
			</trkpt>
			<trkpt lat="30.256698" lon="120.096716">
				<speed>0.000000</speed>
				<ele>85.000000</ele>
				<time>2026-08-17T05:12:00Z</time>
			</trkpt>
			<trkpt lat="30.256668" lon="120.096727">
				<speed>0.000000</speed>
				<ele>85.000000</ele>
				<time>2026-08-17T05:12:01Z</time>
			</trkpt>
			<trkpt lat="30.256657" lon="120.096730">
				<speed>0.000000</speed>
				<ele>85.000000</ele>
				<time>2026-08-17T05:12:02Z</time>
			</trkpt>
			<trkpt lat="30.256646" lon="120.096733">
				<speed>0.000000</speed>
				<ele>85.000000</ele>
				<time>2026-08-17T05:12:03Z</time>
			</trkpt>
			<trkpt lat="30.256636" lon="120.096736">
				<speed>0.000000</speed>
				<ele>85.000000</ele>
				<time>2026-08-17T05:12:04Z</time>
			</trkpt>
			<trkpt lat="30.256604" lon="120.096742">
				<speed>0.000000</speed>
				<ele>85.000000</ele>
				<time>2026-08-17T05:12:05Z</time>
			</trkpt>
			<trkpt lat="30.256593" lon="120.096742">
				<speed>0.000000</speed>
				<ele>85.000000</ele>
				<time>2026-08-17T05:12:06Z</time>
			</trkpt>
			<trkpt lat="30.256583" lon="120.096743">
				<speed>0.000000</speed>
				<ele>85.000000</ele>
				<time>2026-08-17T05:12:07Z</time>
			</trkpt>
			<trkpt lat="30.256572" lon="120.096744">
				<speed>0.000000</speed>
				<ele>85.000000</ele>
				<time>2026-08-17T05:12:08Z</time>
			</trkpt>
			<trkpt lat="30.256541" lon="120.096745">
				<speed>0.000000</speed>
				<ele>85.000000</ele>
				<time>2026-08-17T05:12:09Z</time>
			</trkpt>
			<trkpt lat="30.256531" lon="120.096746">
				<speed>0.000000</speed>
				<ele>84.000000</ele>
				<time>2026-08-17T05:12:10Z</time>
			</trkpt>
			<trkpt lat="30.256521" lon="120.096747">
				<speed>0.000000</speed>
				<ele>84.000000</ele>
				<time>2026-08-17T05:12:11Z</time>
			</trkpt>
			<trkpt lat="30.256512" lon="120.096748">
				<speed>0.000000</speed>
				<ele>84.000000</ele>
				<time>2026-08-17T05:12:12Z</time>
			</trkpt>
			<trkpt lat="30.256486" lon="120.096752">
				<speed>0.000000</speed>
				<ele>84.000000</ele>
				<time>2026-08-17T05:12:13Z</time>
			</trkpt>
			<trkpt lat="30.256477" lon="120.096753">
				<speed>0.000000</speed>
				<ele>84.000000</ele>
				<time>2026-08-17T05:12:14Z</time>
			</trkpt>
			<trkpt lat="30.256469" lon="120.096754">
				<speed>0.000000</speed>
				<ele>84.000000</ele>
				<time>2026-08-17T05:12:15Z</time>
			</trkpt>
			<trkpt lat="30.256461" lon="120.096755">
				<speed>0.000000</speed>
				<ele>84.000000</ele>
				<time>2026-08-17T05:12:16Z</time>
			</trkpt>
			<trkpt lat="30.256436" lon="120.096760">
				<speed>0.000000</speed>
				<ele>84.000000</ele>
				<time>2026-08-17T05:12:17Z</time>
			</trkpt>
			<trkpt lat="30.256428" lon="120.096763">
				<speed>0.000000</speed>
				<ele>84.000000</ele>
				<time>2026-08-17T05:12:18Z</time>
			</trkpt>
			<trkpt lat="30.256420" lon="120.096766">
				<speed>0.000000</speed>
				<ele>84.000000</ele>
				<time>2026-08-17T05:12:19Z</time>
			</trkpt>
			<trkpt lat="30.256412" lon="120.096769">
				<speed>0.000000</speed>
				<ele>84.000000</ele>
				<time>2026-08-17T05:12:20Z</time>
			</trkpt>
			<trkpt lat="30.256389" lon="120.096778">
				<speed>0.000000</speed>
				<ele>84.000000</ele>
				<time>2026-08-17T05:12:21Z</time>
			</trkpt>
			<trkpt lat="30.256383" lon="120.096782">
				<speed>0.000000</speed>
				<ele>84.000000</ele>
				<time>2026-08-17T05:12:22Z</time>
			</trkpt>
			<trkpt lat="30.256377" lon="120.096786">
				<speed>0.000000</speed>
				<ele>84.000000</ele>
				<time>2026-08-17T05:12:23Z</time>
			</trkpt>
			<trkpt lat="30.256371" lon="120.096791">
				<speed>0.000000</speed>
				<ele>84.000000</ele>
				<time>2026-08-17T05:12:24Z</time>
			</trkpt>
			<trkpt lat="30.256356" lon="120.096807">
				<speed>0.000000</speed>
				<ele>84.000000</ele>
				<time>2026-08-17T05:12:25Z</time>
			</trkpt>
			<trkpt lat="30.256350" lon="120.096813">
				<speed>0.000000</speed>
				<ele>84.000000</ele>
				<time>2026-08-17T05:12:26Z</time>
			</trkpt>
			<trkpt lat="30.256344" lon="120.096819">
				<speed>0.000000</speed>
				<ele>84.000000</ele>
				<time>2026-08-17T05:12:27Z</time>
			</trkpt>
			<trkpt lat="30.256339" lon="120.096824">
				<speed>0.000000</speed>
				<ele>84.000000</ele>
				<time>2026-08-17T05:12:28Z</time>
			</trkpt>
			<trkpt lat="30.256319" lon="120.096840">
				<speed>0.000000</speed>
				<ele>84.000000</ele>
				<time>2026-08-17T05:12:29Z</time>
			</trkpt>
			<trkpt lat="30.256312" lon="120.096844">
				<speed>0.000000</speed>
				<ele>84.000000</ele>
				<time>2026-08-17T05:12:30Z</time>
			</trkpt>
			<trkpt lat="30.256305" lon="120.096849">
				<speed>0.000000</speed>
				<ele>84.000000</ele>
				<time>2026-08-17T05:12:31Z</time>
			</trkpt>
			<trkpt lat="30.256299" lon="120.096853">
				<speed>0.000000</speed>
				<ele>84.000000</ele>
				<time>2026-08-17T05:12:32Z</time>
			</trkpt>
			<trkpt lat="30.256277" lon="120.096866">
				<speed>0.000000</speed>
				<ele>84.000000</ele>
				<time>2026-08-17T05:12:33Z</time>
			</trkpt>
			<trkpt lat="30.256270" lon="120.096871">
				<speed>0.000000</speed>
				<ele>84.000000</ele>
				<time>2026-08-17T05:12:34Z</time>
			</trkpt>
			<trkpt lat="30.256264" lon="120.096875">
				<speed>0.000000</speed>
				<ele>84.000000</ele>
				<time>2026-08-17T05:12:35Z</time>
			</trkpt>
			<trkpt lat="30.256256" lon="120.096879">
				<speed>0.000000</speed>
				<ele>84.000000</ele>
				<time>2026-08-17T05:12:36Z</time>
			</trkpt>
			<trkpt lat="30.256237" lon="120.096893">
				<speed>0.000000</speed>
				<ele>85.000000</ele>
				<time>2026-08-17T05:12:37Z</time>
			</trkpt>
			<trkpt lat="30.256230" lon="120.096897">
				<speed>0.000000</speed>
				<ele>85.000000</ele>
				<time>2026-08-17T05:12:38Z</time>
			</trkpt>
			<trkpt lat="30.256224" lon="120.096902">
				<speed>0.000000</speed>
				<ele>85.000000</ele>
				<time>2026-08-17T05:12:39Z</time>
			</trkpt>
			<trkpt lat="30.256218" lon="120.096906">
				<speed>0.000000</speed>
				<ele>85.000000</ele>
				<time>2026-08-17T05:12:40Z</time>
			</trkpt>
			<trkpt lat="30.256199" lon="120.096918">
				<speed>0.000000</speed>
				<ele>85.000000</ele>
				<time>2026-08-17T05:12:41Z</time>
			</trkpt>
			<trkpt lat="30.256192" lon="120.096921">
				<speed>0.000000</speed>
				<ele>85.000000</ele>
				<time>2026-08-17T05:12:42Z</time>
			</trkpt>
			<trkpt lat="30.256185" lon="120.096924">
				<speed>0.000000</speed>
				<ele>85.000000</ele>
				<time>2026-08-17T05:12:43Z</time>
			</trkpt>
			<trkpt lat="30.256179" lon="120.096927">
				<speed>0.000000</speed>
				<ele>85.000000</ele>
				<time>2026-08-17T05:12:44Z</time>
			</trkpt>
			<trkpt lat="30.256155" lon="120.096936">
				<speed>0.000000</speed>
				<ele>86.000000</ele>
				<time>2026-08-17T05:12:45Z</time>
			</trkpt>
			<trkpt lat="30.256148" lon="120.096941">
				<speed>0.000000</speed>
				<ele>86.000000</ele>
				<time>2026-08-17T05:12:46Z</time>
			</trkpt>
			<trkpt lat="30.256141" lon="120.096945">
				<speed>0.000000</speed>
				<ele>86.000000</ele>
				<time>2026-08-17T05:12:47Z</time>
			</trkpt>
			<trkpt lat="30.256134" lon="120.096950">
				<speed>0.000000</speed>
				<ele>86.000000</ele>
				<time>2026-08-17T05:12:48Z</time>
			</trkpt>
			<trkpt lat="30.256111" lon="120.096966">
				<speed>0.000000</speed>
				<ele>87.000000</ele>
				<time>2026-08-17T05:12:49Z</time>
			</trkpt>
			<trkpt lat="30.256103" lon="120.096970">
				<speed>0.000000</speed>
				<ele>87.000000</ele>
				<time>2026-08-17T05:12:50Z</time>
			</trkpt>
			<trkpt lat="30.256094" lon="120.096975">
				<speed>0.000000</speed>
				<ele>87.000000</ele>
				<time>2026-08-17T05:12:51Z</time>
			</trkpt>
			<trkpt lat="30.256086" lon="120.096980">
				<speed>0.000000</speed>
				<ele>87.000000</ele>
				<time>2026-08-17T05:12:52Z</time>
			</trkpt>
			<trkpt lat="30.256059" lon="120.096991">
				<speed>0.000000</speed>
				<ele>87.000000</ele>
				<time>2026-08-17T05:12:53Z</time>
			</trkpt>
			<trkpt lat="30.256049" lon="120.096995">
				<speed>0.000000</speed>
				<ele>87.000000</ele>
				<time>2026-08-17T05:12:54Z</time>
			</trkpt>
			<trkpt lat="30.256040" lon="120.096999">
				<speed>0.000000</speed>
				<ele>87.000000</ele>
				<time>2026-08-17T05:12:55Z</time>
			</trkpt>
			<trkpt lat="30.256030" lon="120.097003">
				<speed>0.000000</speed>
				<ele>87.000000</ele>
				<time>2026-08-17T05:12:56Z</time>
			</trkpt>
			<trkpt lat="30.256003" lon="120.097013">
				<speed>0.000000</speed>
				<ele>88.000000</ele>
				<time>2026-08-17T05:12:57Z</time>
			</trkpt>
			<trkpt lat="30.255996" lon="120.097016">
				<speed>0.000000</speed>
				<ele>88.000000</ele>
				<time>2026-08-17T05:12:58Z</time>
			</trkpt>
			<trkpt lat="30.255988" lon="120.097019">
				<speed>0.000000</speed>
				<ele>88.000000</ele>
				<time>2026-08-17T05:12:59Z</time>
			</trkpt>
			<trkpt lat="30.255981" lon="120.097023">
				<speed>0.000000</speed>
				<ele>88.000000</ele>
				<time>2026-08-17T05:13:00Z</time>
			</trkpt>
			<trkpt lat="30.255962" lon="120.097030">
				<speed>0.000000</speed>
				<ele>88.000000</ele>
				<time>2026-08-17T05:13:01Z</time>
			</trkpt>
			<trkpt lat="30.255956" lon="120.097033">
				<speed>0.000000</speed>
				<ele>88.000000</ele>
				<time>2026-08-17T05:13:02Z</time>
			</trkpt>
			<trkpt lat="30.255950" lon="120.097035">
				<speed>0.000000</speed>
				<ele>88.000000</ele>
				<time>2026-08-17T05:13:03Z</time>
			</trkpt>
			<trkpt lat="30.255944" lon="120.097038">
				<speed>0.000000</speed>
				<ele>88.000000</ele>
				<time>2026-08-17T05:13:04Z</time>
			</trkpt>
			<trkpt lat="30.255927" lon="120.097045">
				<speed>0.000000</speed>
				<ele>88.000000</ele>
				<time>2026-08-17T05:13:05Z</time>
			</trkpt>
			<trkpt lat="30.255922" lon="120.097047">
				<speed>0.000000</speed>
				<ele>88.000000</ele>
				<time>2026-08-17T05:13:06Z</time>
			</trkpt>
			<trkpt lat="30.255917" lon="120.097049">
				<speed>0.000000</speed>
				<ele>88.000000</ele>
				<time>2026-08-17T05:13:07Z</time>
			</trkpt>
			<trkpt lat="30.255912" lon="120.097052">
				<speed>0.000000</speed>
				<ele>88.000000</ele>
				<time>2026-08-17T05:13:08Z</time>
			</trkpt>
			<trkpt lat="30.255898" lon="120.097057">
				<speed>0.000000</speed>
				<ele>88.000000</ele>
				<time>2026-08-17T05:13:09Z</time>
			</trkpt>
			<trkpt lat="30.255894" lon="120.097058">
				<speed>0.000000</speed>
				<ele>88.000000</ele>
				<time>2026-08-17T05:13:10Z</time>
			</trkpt>
			<trkpt lat="30.255890" lon="120.097060">
				<speed>0.000000</speed>
				<ele>88.000000</ele>
				<time>2026-08-17T05:13:11Z</time>
			</trkpt>
			<trkpt lat="30.255885" lon="120.097062">
				<speed>0.000000</speed>
				<ele>88.000000</ele>
				<time>2026-08-17T05:13:12Z</time>
			</trkpt>
			<trkpt lat="30.255871" lon="120.097067">
				<speed>0.000000</speed>
				<ele>89.000000</ele>
				<time>2026-08-17T05:13:13Z</time>
			</trkpt>
			<trkpt lat="30.255866" lon="120.097069">
				<speed>0.000000</speed>
				<ele>89.000000</ele>
				<time>2026-08-17T05:13:14Z</time>
			</trkpt>
			<trkpt lat="30.255861" lon="120.097070">
				<speed>0.000000</speed>
				<ele>89.000000</ele>
				<time>2026-08-17T05:13:15Z</time>
			</trkpt>
			<trkpt lat="30.255857" lon="120.097071">
				<speed>0.000000</speed>
				<ele>89.000000</ele>
				<time>2026-08-17T05:13:16Z</time>
			</trkpt>
			<trkpt lat="30.255842" lon="120.097073">
				<speed>0.000000</speed>
				<ele>90.000000</ele>
				<time>2026-08-17T05:13:17Z</time>
			</trkpt>
			<trkpt lat="30.255838" lon="120.097073">
				<speed>0.000000</speed>
				<ele>90.000000</ele>
				<time>2026-08-17T05:13:18Z</time>
			</trkpt>
			<trkpt lat="30.255833" lon="120.097073">
				<speed>0.000000</speed>
				<ele>90.000000</ele>
				<time>2026-08-17T05:13:19Z</time>
			</trkpt>
			<trkpt lat="30.255828" lon="120.097074">
				<speed>0.000000</speed>
				<ele>90.000000</ele>
				<time>2026-08-17T05:13:20Z</time>
			</trkpt>
			<trkpt lat="30.255811" lon="120.097077">
				<speed>0.000000</speed>
				<ele>91.000000</ele>
				<time>2026-08-17T05:13:21Z</time>
			</trkpt>
			<trkpt lat="30.255806" lon="120.097078">
				<speed>0.000000</speed>
				<ele>91.000000</ele>
				<time>2026-08-17T05:13:22Z</time>
			</trkpt>
			<trkpt lat="30.255800" lon="120.097079">
				<speed>0.000000</speed>
				<ele>91.000000</ele>
				<time>2026-08-17T05:13:23Z</time>
			</trkpt>
			<trkpt lat="30.255794" lon="120.097080">
				<speed>0.000000</speed>
				<ele>91.000000</ele>
				<time>2026-08-17T05:13:24Z</time>
			</trkpt>
			<trkpt lat="30.255778" lon="120.097084">
				<speed>0.000000</speed>
				<ele>92.000000</ele>
				<time>2026-08-17T05:13:25Z</time>
			</trkpt>
			<trkpt lat="30.255773" lon="120.097086">
				<speed>0.000000</speed>
				<ele>92.000000</ele>
				<time>2026-08-17T05:13:26Z</time>
			</trkpt>
			<trkpt lat="30.255767" lon="120.097088">
				<speed>0.000000</speed>
				<ele>92.000000</ele>
				<time>2026-08-17T05:13:27Z</time>
			</trkpt>
			<trkpt lat="30.255762" lon="120.097090">
				<speed>0.000000</speed>
				<ele>92.000000</ele>
				<time>2026-08-17T05:13:28Z</time>
			</trkpt>
			<trkpt lat="30.255742" lon="120.097097">
				<speed>0.000000</speed>
				<ele>92.000000</ele>
				<time>2026-08-17T05:13:29Z</time>
			</trkpt>
			<trkpt lat="30.255736" lon="120.097099">
				<speed>0.000000</speed>
				<ele>92.000000</ele>
				<time>2026-08-17T05:13:30Z</time>
			</trkpt>
			<trkpt lat="30.255729" lon="120.097102">
				<speed>0.000000</speed>
				<ele>92.000000</ele>
				<time>2026-08-17T05:13:31Z</time>
			</trkpt>
			<trkpt lat="30.255723" lon="120.097104">
				<speed>0.000000</speed>
				<ele>92.000000</ele>
				<time>2026-08-17T05:13:32Z</time>
			</trkpt>
			<trkpt lat="30.255705" lon="120.097110">
				<speed>0.000000</speed>
				<ele>93.000000</ele>
				<time>2026-08-17T05:13:33Z</time>
			</trkpt>
			<trkpt lat="30.255700" lon="120.097113">
				<speed>0.000000</speed>
				<ele>93.000000</ele>
				<time>2026-08-17T05:13:34Z</time>
			</trkpt>
			<trkpt lat="30.255695" lon="120.097115">
				<speed>0.000000</speed>
				<ele>93.000000</ele>
				<time>2026-08-17T05:13:35Z</time>
			</trkpt>
			<trkpt lat="30.255689" lon="120.097118">
				<speed>0.000000</speed>
				<ele>93.000000</ele>
				<time>2026-08-17T05:13:36Z</time>
			</trkpt>
			<trkpt lat="30.255675" lon="120.097125">
				<speed>0.000000</speed>
				<ele>94.000000</ele>
				<time>2026-08-17T05:13:37Z</time>
			</trkpt>
			<trkpt lat="30.255671" lon="120.097128">
				<speed>0.000000</speed>
				<ele>94.000000</ele>
				<time>2026-08-17T05:13:38Z</time>
			</trkpt>
			<trkpt lat="30.255666" lon="120.097132">
				<speed>0.000000</speed>
				<ele>94.000000</ele>
				<time>2026-08-17T05:13:39Z</time>
			</trkpt>
			<trkpt lat="30.255662" lon="120.097135">
				<speed>0.000000</speed>
				<ele>94.000000</ele>
				<time>2026-08-17T05:13:40Z</time>
			</trkpt>
			<trkpt lat="30.255648" lon="120.097145">
				<speed>0.000000</speed>
				<ele>94.000000</ele>
				<time>2026-08-17T05:13:41Z</time>
			</trkpt>
			<trkpt lat="30.255643" lon="120.097149">
				<speed>0.000000</speed>
				<ele>94.000000</ele>
				<time>2026-08-17T05:13:42Z</time>
			</trkpt>
			<trkpt lat="30.255638" lon="120.097153">
				<speed>0.000000</speed>
				<ele>94.000000</ele>
				<time>2026-08-17T05:13:43Z</time>
			</trkpt>
			<trkpt lat="30.255632" lon="120.097156">
				<speed>0.000000</speed>
				<ele>94.000000</ele>
				<time>2026-08-17T05:13:44Z</time>
			</trkpt>
			<trkpt lat="30.255616" lon="120.097166">
				<speed>0.000000</speed>
				<ele>94.000000</ele>
				<time>2026-08-17T05:13:45Z</time>
			</trkpt>
			<trkpt lat="30.255610" lon="120.097170">
				<speed>0.000000</speed>
				<ele>94.000000</ele>
				<time>2026-08-17T05:13:46Z</time>
			</trkpt>
			<trkpt lat="30.255604" lon="120.097174">
				<speed>0.000000</speed>
				<ele>94.000000</ele>
				<time>2026-08-17T05:13:47Z</time>
			</trkpt>
			<trkpt lat="30.255598" lon="120.097178">
				<speed>0.000000</speed>
				<ele>94.000000</ele>
				<time>2026-08-17T05:13:48Z</time>
			</trkpt>
			<trkpt lat="30.255582" lon="120.097195">
				<speed>0.000000</speed>
				<ele>94.000000</ele>
				<time>2026-08-17T05:13:49Z</time>
			</trkpt>
			<trkpt lat="30.255577" lon="120.097201">
				<speed>0.000000</speed>
				<ele>94.000000</ele>
				<time>2026-08-17T05:13:50Z</time>
			</trkpt>
			<trkpt lat="30.255572" lon="120.097208">
				<speed>0.000000</speed>
				<ele>94.000000</ele>
				<time>2026-08-17T05:13:51Z</time>
			</trkpt>
			<trkpt lat="30.255567" lon="120.097214">
				<speed>0.000000</speed>
				<ele>94.000000</ele>
				<time>2026-08-17T05:13:52Z</time>
			</trkpt>
			<trkpt lat="30.255551" lon="120.097233">
				<speed>0.000000</speed>
				<ele>95.000000</ele>
				<time>2026-08-17T05:13:53Z</time>
			</trkpt>
			<trkpt lat="30.255545" lon="120.097239">
				<speed>0.000000</speed>
				<ele>95.000000</ele>
				<time>2026-08-17T05:13:54Z</time>
			</trkpt>
			<trkpt lat="30.255540" lon="120.097245">
				<speed>0.000000</speed>
				<ele>95.000000</ele>
				<time>2026-08-17T05:13:55Z</time>
			</trkpt>
			<trkpt lat="30.255535" lon="120.097251">
				<speed>0.000000</speed>
				<ele>95.000000</ele>
				<time>2026-08-17T05:13:56Z</time>
			</trkpt>
			<trkpt lat="30.255517" lon="120.097264">
				<speed>0.000000</speed>
				<ele>95.000000</ele>
				<time>2026-08-17T05:13:57Z</time>
			</trkpt>
			<trkpt lat="30.255511" lon="120.097268">
				<speed>0.000000</speed>
				<ele>95.000000</ele>
				<time>2026-08-17T05:13:58Z</time>
			</trkpt>
			<trkpt lat="30.255505" lon="120.097271">
				<speed>0.000000</speed>
				<ele>95.000000</ele>
				<time>2026-08-17T05:13:59Z</time>
			</trkpt>
			<trkpt lat="30.255499" lon="120.097275">
				<speed>0.000000</speed>
				<ele>95.000000</ele>
				<time>2026-08-17T05:14:00Z</time>
			</trkpt>
			<trkpt lat="30.255480" lon="120.097283">
				<speed>0.000000</speed>
				<ele>95.000000</ele>
				<time>2026-08-17T05:14:01Z</time>
			</trkpt>
			<trkpt lat="30.255474" lon="120.097284">
				<speed>0.000000</speed>
				<ele>95.000000</ele>
				<time>2026-08-17T05:14:02Z</time>
			</trkpt>
			<trkpt lat="30.255467" lon="120.097286">
				<speed>0.000000</speed>
				<ele>95.000000</ele>
				<time>2026-08-17T05:14:03Z</time>
			</trkpt>
			<trkpt lat="30.255461" lon="120.097287">
				<speed>0.000000</speed>
				<ele>95.000000</ele>
				<time>2026-08-17T05:14:04Z</time>
			</trkpt>
			<trkpt lat="30.255441" lon="120.097287">
				<speed>0.000000</speed>
				<ele>95.000000</ele>
				<time>2026-08-17T05:14:05Z</time>
			</trkpt>
			<trkpt lat="30.255434" lon="120.097287">
				<speed>0.000000</speed>
				<ele>95.000000</ele>
				<time>2026-08-17T05:14:06Z</time>
			</trkpt>
			<trkpt lat="30.255427" lon="120.097287">
				<speed>0.000000</speed>
				<ele>95.000000</ele>
				<time>2026-08-17T05:14:07Z</time>
			</trkpt>
			<trkpt lat="30.255420" lon="120.097287">
				<speed>0.000000</speed>
				<ele>95.000000</ele>
				<time>2026-08-17T05:14:08Z</time>
			</trkpt>
			<trkpt lat="30.255396" lon="120.097290">
				<speed>0.000000</speed>
				<ele>95.000000</ele>
				<time>2026-08-17T05:14:09Z</time>
			</trkpt>
			<trkpt lat="30.255389" lon="120.097291">
				<speed>0.000000</speed>
				<ele>95.000000</ele>
				<time>2026-08-17T05:14:10Z</time>
			</trkpt>
			<trkpt lat="30.255381" lon="120.097292">
				<speed>0.000000</speed>
				<ele>95.000000</ele>
				<time>2026-08-17T05:14:11Z</time>
			</trkpt>
			<trkpt lat="30.255374" lon="120.097294">
				<speed>0.000000</speed>
				<ele>95.000000</ele>
				<time>2026-08-17T05:14:12Z</time>
			</trkpt>
			<trkpt lat="30.255355" lon="120.097298">
				<speed>0.000000</speed>
				<ele>96.000000</ele>
				<time>2026-08-17T05:14:13Z</time>
			</trkpt>
			<trkpt lat="30.255349" lon="120.097299">
				<speed>0.000000</speed>
				<ele>96.000000</ele>
				<time>2026-08-17T05:14:14Z</time>
			</trkpt>
			<trkpt lat="30.255343" lon="120.097300">
				<speed>0.000000</speed>
				<ele>96.000000</ele>
				<time>2026-08-17T05:14:15Z</time>
			</trkpt>
			<trkpt lat="30.255338" lon="120.097301">
				<speed>0.000000</speed>
				<ele>96.000000</ele>
				<time>2026-08-17T05:14:16Z</time>
			</trkpt>
			<trkpt lat="30.255321" lon="120.097305">
				<speed>0.000000</speed>
				<ele>97.000000</ele>
				<time>2026-08-17T05:14:17Z</time>
			</trkpt>
			<trkpt lat="30.255315" lon="120.097305">
				<speed>0.000000</speed>
				<ele>97.000000</ele>
				<time>2026-08-17T05:14:18Z</time>
			</trkpt>
			<trkpt lat="30.255308" lon="120.097306">
				<speed>0.000000</speed>
				<ele>97.000000</ele>
				<time>2026-08-17T05:14:19Z</time>
			</trkpt>
			<trkpt lat="30.255302" lon="120.097307">
				<speed>0.000000</speed>
				<ele>97.000000</ele>
				<time>2026-08-17T05:14:20Z</time>
			</trkpt>
			<trkpt lat="30.255281" lon="120.097308">
				<speed>0.000000</speed>
				<ele>98.000000</ele>
				<time>2026-08-17T05:14:21Z</time>
			</trkpt>
			<trkpt lat="30.255274" lon="120.097308">
				<speed>0.000000</speed>
				<ele>98.000000</ele>
				<time>2026-08-17T05:14:22Z</time>
			</trkpt>
			<trkpt lat="30.255267" lon="120.097308">
				<speed>0.000000</speed>
				<ele>98.000000</ele>
				<time>2026-08-17T05:14:23Z</time>
			</trkpt>
			<trkpt lat="30.255261" lon="120.097308">
				<speed>0.000000</speed>
				<ele>98.000000</ele>
				<time>2026-08-17T05:14:24Z</time>
			</trkpt>
			<trkpt lat="30.255243" lon="120.097306">
				<speed>0.000000</speed>
				<ele>98.000000</ele>
				<time>2026-08-17T05:14:25Z</time>
			</trkpt>
			<trkpt lat="30.255238" lon="120.097305">
				<speed>0.000000</speed>
				<ele>98.000000</ele>
				<time>2026-08-17T05:14:26Z</time>
			</trkpt>
			<trkpt lat="30.255234" lon="120.097304">
				<speed>0.000000</speed>
				<ele>98.000000</ele>
				<time>2026-08-17T05:14:27Z</time>
			</trkpt>
			<trkpt lat="30.255229" lon="120.097303">
				<speed>0.000000</speed>
				<ele>98.000000</ele>
				<time>2026-08-17T05:14:28Z</time>
			</trkpt>
			<trkpt lat="30.255214" lon="120.097298">
				<speed>0.000000</speed>
				<ele>99.000000</ele>
				<time>2026-08-17T05:14:29Z</time>
			</trkpt>
			<trkpt lat="30.255208" lon="120.097297">
				<speed>0.000000</speed>
				<ele>99.000000</ele>
				<time>2026-08-17T05:14:30Z</time>
			</trkpt>
			<trkpt lat="30.255201" lon="120.097295">
				<speed>0.000000</speed>
				<ele>99.000000</ele>
				<time>2026-08-17T05:14:31Z</time>
			</trkpt>
			<trkpt lat="30.255195" lon="120.097293">
				<speed>0.000000</speed>
				<ele>99.000000</ele>
				<time>2026-08-17T05:14:32Z</time>
			</trkpt>
			<trkpt lat="30.255169" lon="120.097290">
				<speed>0.000000</speed>
				<ele>99.000000</ele>
				<time>2026-08-17T05:14:33Z</time>
			</trkpt>
			<trkpt lat="30.255160" lon="120.097288">
				<speed>0.000000</speed>
				<ele>99.000000</ele>
				<time>2026-08-17T05:14:34Z</time>
			</trkpt>
			<trkpt lat="30.255150" lon="120.097287">
				<speed>0.000000</speed>
				<ele>99.000000</ele>
				<time>2026-08-17T05:14:35Z</time>
			</trkpt>
			<trkpt lat="30.255141" lon="120.097286">
				<speed>0.000000</speed>
				<ele>99.000000</ele>
				<time>2026-08-17T05:14:36Z</time>
			</trkpt>
			<trkpt lat="30.255115" lon="120.097286">
				<speed>0.000000</speed>
				<ele>100.000000</ele>
				<time>2026-08-17T05:14:37Z</time>
			</trkpt>
			<trkpt lat="30.255107" lon="120.097286">
				<speed>0.000000</speed>
				<ele>100.000000</ele>
				<time>2026-08-17T05:14:38Z</time>
			</trkpt>
			<trkpt lat="30.255099" lon="120.097286">
				<speed>0.000000</speed>
				<ele>100.000000</ele>
				<time>2026-08-17T05:14:39Z</time>
			</trkpt>
			<trkpt lat="30.255091" lon="120.097286">
				<speed>0.000000</speed>
				<ele>100.000000</ele>
				<time>2026-08-17T05:14:40Z</time>
			</trkpt>
			<trkpt lat="30.255066" lon="120.097286">
				<speed>0.000000</speed>
				<ele>100.000000</ele>
				<time>2026-08-17T05:14:41Z</time>
			</trkpt>
			<trkpt lat="30.255057" lon="120.097286">
				<speed>0.000000</speed>
				<ele>100.000000</ele>
				<time>2026-08-17T05:14:42Z</time>
			</trkpt>
			<trkpt lat="30.255048" lon="120.097287">
				<speed>0.000000</speed>
				<ele>100.000000</ele>
				<time>2026-08-17T05:14:43Z</time>
			</trkpt>
			<trkpt lat="30.255040" lon="120.097287">
				<speed>0.000000</speed>
				<ele>100.000000</ele>
				<time>2026-08-17T05:14:44Z</time>
			</trkpt>
			<trkpt lat="30.255013" lon="120.097293">
				<speed>0.000000</speed>
				<ele>100.000000</ele>
				<time>2026-08-17T05:14:45Z</time>
			</trkpt>
			<trkpt lat="30.255004" lon="120.097297">
				<speed>0.000000</speed>
				<ele>100.000000</ele>
				<time>2026-08-17T05:14:46Z</time>
			</trkpt>
			<trkpt lat="30.254995" lon="120.097301">
				<speed>0.000000</speed>
				<ele>100.000000</ele>
				<time>2026-08-17T05:14:47Z</time>
			</trkpt>
			<trkpt lat="30.254987" lon="120.097304">
				<speed>0.000000</speed>
				<ele>100.000000</ele>
				<time>2026-08-17T05:14:48Z</time>
			</trkpt>
			<trkpt lat="30.254963" lon="120.097318">
				<speed>0.000000</speed>
				<ele>100.000000</ele>
				<time>2026-08-17T05:14:49Z</time>
			</trkpt>
			<trkpt lat="30.254955" lon="120.097322">
				<speed>0.000000</speed>
				<ele>100.000000</ele>
				<time>2026-08-17T05:14:50Z</time>
			</trkpt>
			<trkpt lat="30.254947" lon="120.097327">
				<speed>0.000000</speed>
				<ele>100.000000</ele>
				<time>2026-08-17T05:14:51Z</time>
			</trkpt>
			<trkpt lat="30.254939" lon="120.097331">
				<speed>0.000000</speed>
				<ele>100.000000</ele>
				<time>2026-08-17T05:14:52Z</time>
			</trkpt>
			<trkpt lat="30.254917" lon="120.097344">
				<speed>0.000000</speed>
				<ele>100.000000</ele>
				<time>2026-08-17T05:14:53Z</time>
			</trkpt>
			<trkpt lat="30.254910" lon="120.097348">
				<speed>0.000000</speed>
				<ele>100.000000</ele>
				<time>2026-08-17T05:14:54Z</time>
			</trkpt>
			<trkpt lat="30.254903" lon="120.097352">
				<speed>0.000000</speed>
				<ele>100.000000</ele>
				<time>2026-08-17T05:14:55Z</time>
			</trkpt>
			<trkpt lat="30.254896" lon="120.097357">
				<speed>0.000000</speed>
				<ele>100.000000</ele>
				<time>2026-08-17T05:14:56Z</time>
			</trkpt>
			<trkpt lat="30.254873" lon="120.097369">
				<speed>0.000000</speed>
				<ele>100.000000</ele>
				<time>2026-08-17T05:14:57Z</time>
			</trkpt>
			<trkpt lat="30.254864" lon="120.097372">
				<speed>0.000000</speed>
				<ele>100.000000</ele>
				<time>2026-08-17T05:14:58Z</time>
			</trkpt>
			<trkpt lat="30.254856" lon="120.097375">
				<speed>0.000000</speed>
				<ele>100.000000</ele>
				<time>2026-08-17T05:14:59Z</time>
			</trkpt>
			<trkpt lat="30.254847" lon="120.097378">
				<speed>0.000000</speed>
				<ele>100.000000</ele>
				<time>2026-08-17T05:15:00Z</time>
			</trkpt>
			<trkpt lat="30.254820" lon="120.097384">
				<speed>0.000000</speed>
				<ele>100.000000</ele>
				<time>2026-08-17T05:15:01Z</time>
			</trkpt>
			<trkpt lat="30.254813" lon="120.097385">
				<speed>0.000000</speed>
				<ele>100.000000</ele>
				<time>2026-08-17T05:15:02Z</time>
			</trkpt>
			<trkpt lat="30.254805" lon="120.097387">
				<speed>0.000000</speed>
				<ele>100.000000</ele>
				<time>2026-08-17T05:15:03Z</time>
			</trkpt>
			<trkpt lat="30.254797" lon="120.097389">
				<speed>0.000000</speed>
				<ele>100.000000</ele>
				<time>2026-08-17T05:15:04Z</time>
			</trkpt>
			<trkpt lat="30.254773" lon="120.097394">
				<speed>0.000000</speed>
				<ele>100.000000</ele>
				<time>2026-08-17T05:15:05Z</time>
			</trkpt>
			<trkpt lat="30.254765" lon="120.097397">
				<speed>0.000000</speed>
				<ele>99.000000</ele>
				<time>2026-08-17T05:15:06Z</time>
			</trkpt>
			<trkpt lat="30.254757" lon="120.097399">
				<speed>0.000000</speed>
				<ele>99.000000</ele>
				<time>2026-08-17T05:15:07Z</time>
			</trkpt>
			<trkpt lat="30.254749" lon="120.097401">
				<speed>0.000000</speed>
				<ele>99.000000</ele>
				<time>2026-08-17T05:15:08Z</time>
			</trkpt>
			<trkpt lat="30.254725" lon="120.097410">
				<speed>0.000000</speed>
				<ele>99.000000</ele>
				<time>2026-08-17T05:15:09Z</time>
			</trkpt>
			<trkpt lat="30.254717" lon="120.097413">
				<speed>0.000000</speed>
				<ele>99.000000</ele>
				<time>2026-08-17T05:15:10Z</time>
			</trkpt>
			<trkpt lat="30.254709" lon="120.097417">
				<speed>0.000000</speed>
				<ele>99.000000</ele>
				<time>2026-08-17T05:15:11Z</time>
			</trkpt>
			<trkpt lat="30.254701" lon="120.097421">
				<speed>0.000000</speed>
				<ele>99.000000</ele>
				<time>2026-08-17T05:15:12Z</time>
			</trkpt>
			<trkpt lat="30.254676" lon="120.097434">
				<speed>0.000000</speed>
				<ele>99.000000</ele>
				<time>2026-08-17T05:15:13Z</time>
			</trkpt>
			<trkpt lat="30.254669" lon="120.097438">
				<speed>0.000000</speed>
				<ele>99.000000</ele>
				<time>2026-08-17T05:15:14Z</time>
			</trkpt>
			<trkpt lat="30.254661" lon="120.097442">
				<speed>0.000000</speed>
				<ele>99.000000</ele>
				<time>2026-08-17T05:15:15Z</time>
			</trkpt>
			<trkpt lat="30.254654" lon="120.097446">
				<speed>0.000000</speed>
				<ele>99.000000</ele>
				<time>2026-08-17T05:15:16Z</time>
			</trkpt>
			<trkpt lat="30.254635" lon="120.097455">
				<speed>0.000000</speed>
				<ele>99.000000</ele>
				<time>2026-08-17T05:15:17Z</time>
			</trkpt>
			<trkpt lat="30.254631" lon="120.097459">
				<speed>0.000000</speed>
				<ele>98.000000</ele>
				<time>2026-08-17T05:15:18Z</time>
			</trkpt>
			<trkpt lat="30.254627" lon="120.097463">
				<speed>0.000000</speed>
				<ele>98.000000</ele>
				<time>2026-08-17T05:15:19Z</time>
			</trkpt>
			<trkpt lat="30.254623" lon="120.097466">
				<speed>0.000000</speed>
				<ele>98.000000</ele>
				<time>2026-08-17T05:15:20Z</time>
			</trkpt>
			<trkpt lat="30.254617" lon="120.097479">
				<speed>0.000000</speed>
				<ele>98.000000</ele>
				<time>2026-08-17T05:15:21Z</time>
			</trkpt>
			<trkpt lat="30.254617" lon="120.097484">
				<speed>0.000000</speed>
				<ele>98.000000</ele>
				<time>2026-08-17T05:15:22Z</time>
			</trkpt>
			<trkpt lat="30.254618" lon="120.097490">
				<speed>0.000000</speed>
				<ele>98.000000</ele>
				<time>2026-08-17T05:15:23Z</time>
			</trkpt>
			<trkpt lat="30.254619" lon="120.097495">
				<speed>0.000000</speed>
				<ele>98.000000</ele>
				<time>2026-08-17T05:15:24Z</time>
			</trkpt>
			<trkpt lat="30.254622" lon="120.097510">
				<speed>0.000000</speed>
				<ele>98.000000</ele>
				<time>2026-08-17T05:15:25Z</time>
			</trkpt>
			<trkpt lat="30.254623" lon="120.097514">
				<speed>0.000000</speed>
				<ele>98.000000</ele>
				<time>2026-08-17T05:15:26Z</time>
			</trkpt>
			<trkpt lat="30.254624" lon="120.097518">
				<speed>0.000000</speed>
				<ele>98.000000</ele>
				<time>2026-08-17T05:15:27Z</time>
			</trkpt>
			<trkpt lat="30.254625" lon="120.097522">
				<speed>0.000000</speed>
				<ele>98.000000</ele>
				<time>2026-08-17T05:15:28Z</time>
			</trkpt>
			<trkpt lat="30.254621" lon="120.097533">
				<speed>0.000000</speed>
				<ele>98.000000</ele>
				<time>2026-08-17T05:15:29Z</time>
			</trkpt>
			<trkpt lat="30.254620" lon="120.097535">
				<speed>0.000000</speed>
				<ele>98.000000</ele>
				<time>2026-08-17T05:15:30Z</time>
			</trkpt>
			<trkpt lat="30.254618" lon="120.097537">
				<speed>0.000000</speed>
				<ele>98.000000</ele>
				<time>2026-08-17T05:15:31Z</time>
			</trkpt>
			<trkpt lat="30.254617" lon="120.097539">
				<speed>0.000000</speed>
				<ele>98.000000</ele>
				<time>2026-08-17T05:15:32Z</time>
			</trkpt>
			<trkpt lat="30.254605" lon="120.097547">
				<speed>0.000000</speed>
				<ele>99.000000</ele>
				<time>2026-08-17T05:15:33Z</time>
			</trkpt>
			<trkpt lat="30.254600" lon="120.097550">
				<speed>0.000000</speed>
				<ele>99.000000</ele>
				<time>2026-08-17T05:15:34Z</time>
			</trkpt>
			<trkpt lat="30.254596" lon="120.097553">
				<speed>0.000000</speed>
				<ele>99.000000</ele>
				<time>2026-08-17T05:15:35Z</time>
			</trkpt>
			<trkpt lat="30.254591" lon="120.097556">
				<speed>0.000000</speed>
				<ele>99.000000</ele>
				<time>2026-08-17T05:15:36Z</time>
			</trkpt>
			<trkpt lat="30.254578" lon="120.097569">
				<speed>0.000000</speed>
				<ele>99.000000</ele>
				<time>2026-08-17T05:15:37Z</time>
			</trkpt>
			<trkpt lat="30.254575" lon="120.097573">
				<speed>0.000000</speed>
				<ele>99.000000</ele>
				<time>2026-08-17T05:15:38Z</time>
			</trkpt>
			<trkpt lat="30.254572" lon="120.097578">
				<speed>0.000000</speed>
				<ele>99.000000</ele>
				<time>2026-08-17T05:15:39Z</time>
			</trkpt>
			<trkpt lat="30.254569" lon="120.097582">
				<speed>0.000000</speed>
				<ele>99.000000</ele>
				<time>2026-08-17T05:15:40Z</time>
			</trkpt>
			<trkpt lat="30.254562" lon="120.097596">
				<speed>0.000000</speed>
				<ele>100.000000</ele>
				<time>2026-08-17T05:15:41Z</time>
			</trkpt>
			<trkpt lat="30.254561" lon="120.097600">
				<speed>0.000000</speed>
				<ele>100.000000</ele>
				<time>2026-08-17T05:15:42Z</time>
			</trkpt>
			<trkpt lat="30.254561" lon="120.097604">
				<speed>0.000000</speed>
				<ele>100.000000</ele>
				<time>2026-08-17T05:15:43Z</time>
			</trkpt>
			<trkpt lat="30.254560" lon="120.097609">
				<speed>0.000000</speed>
				<ele>100.000000</ele>
				<time>2026-08-17T05:15:44Z</time>
			</trkpt>
			<trkpt lat="30.254555" lon="120.097621">
				<speed>0.000000</speed>
				<ele>100.000000</ele>
				<time>2026-08-17T05:15:45Z</time>
			</trkpt>
			<trkpt lat="30.254553" lon="120.097625">
				<speed>0.000000</speed>
				<ele>100.000000</ele>
				<time>2026-08-17T05:15:46Z</time>
			</trkpt>
			<trkpt lat="30.254551" lon="120.097629">
				<speed>0.000000</speed>
				<ele>100.000000</ele>
				<time>2026-08-17T05:15:47Z</time>
			</trkpt>
			<trkpt lat="30.254549" lon="120.097634">
				<speed>0.000000</speed>
				<ele>100.000000</ele>
				<time>2026-08-17T05:15:48Z</time>
			</trkpt>
			<trkpt lat="30.254547" lon="120.097637">
				<speed>0.000000</speed>
				<ele>100.000000</ele>
				<time>2026-08-17T05:15:49Z</time>
			</trkpt>
			<trkpt lat="30.254546" lon="120.097640">
				<speed>0.000000</speed>
				<ele>100.000000</ele>
				<time>2026-08-17T05:15:50Z</time>
			</trkpt>
			<trkpt lat="30.254545" lon="120.097644">
				<speed>0.000000</speed>
				<ele>100.000000</ele>
				<time>2026-08-17T05:15:51Z</time>
			</trkpt>
			<trkpt lat="30.254544" lon="120.097647">
				<speed>0.000000</speed>
				<ele>100.000000</ele>
				<time>2026-08-17T05:15:52Z</time>
			</trkpt>
			<trkpt lat="30.254545" lon="120.097657">
				<speed>0.000000</speed>
				<ele>101.000000</ele>
				<time>2026-08-17T05:15:53Z</time>
			</trkpt>
			<trkpt lat="30.254548" lon="120.097660">
				<speed>0.000000</speed>
				<ele>101.000000</ele>
				<time>2026-08-17T05:15:54Z</time>
			</trkpt>
			<trkpt lat="30.254550" lon="120.097662">
				<speed>0.000000</speed>
				<ele>101.000000</ele>
				<time>2026-08-17T05:15:55Z</time>
			</trkpt>
			<trkpt lat="30.254552" lon="120.097665">
				<speed>0.000000</speed>
				<ele>101.000000</ele>
				<time>2026-08-17T05:15:56Z</time>
			</trkpt>
			<trkpt lat="30.254561" lon="120.097671">
				<speed>0.000000</speed>
				<ele>102.000000</ele>
				<time>2026-08-17T05:15:57Z</time>
			</trkpt>
			<trkpt lat="30.254565" lon="120.097672">
				<speed>0.000000</speed>
				<ele>102.000000</ele>
				<time>2026-08-17T05:15:58Z</time>
			</trkpt>
			<trkpt lat="30.254569" lon="120.097673">
				<speed>0.000000</speed>
				<ele>102.000000</ele>
				<time>2026-08-17T05:15:59Z</time>
			</trkpt>
			<trkpt lat="30.254573" lon="120.097673">
				<speed>0.000000</speed>
				<ele>102.000000</ele>
				<time>2026-08-17T05:16:00Z</time>
			</trkpt>
			<trkpt lat="30.254586" lon="120.097670">
				<speed>0.000000</speed>
				<ele>102.000000</ele>
				<time>2026-08-17T05:16:01Z</time>
			</trkpt>
			<trkpt lat="30.254595" lon="120.097674">
				<speed>0.000000</speed>
				<ele>103.000000</ele>
				<time>2026-08-17T05:16:12Z</time>
			</trkpt>
			<trkpt lat="30.254604" lon="120.097682">
				<speed>0.000000</speed>
				<ele>104.000000</ele>
				<time>2026-08-17T05:16:13Z</time>
			</trkpt>
			<trkpt lat="30.254604" lon="120.097686">
				<speed>0.000000</speed>
				<ele>104.000000</ele>
				<time>2026-08-17T05:16:14Z</time>
			</trkpt>
			<trkpt lat="30.254605" lon="120.097690">
				<speed>0.000000</speed>
				<ele>104.000000</ele>
				<time>2026-08-17T05:16:15Z</time>
			</trkpt>
			<trkpt lat="30.254605" lon="120.097694">
				<speed>0.000000</speed>
				<ele>104.000000</ele>
				<time>2026-08-17T05:16:16Z</time>
			</trkpt>
			<trkpt lat="30.254604" lon="120.097703">
				<speed>0.000000</speed>
				<ele>105.000000</ele>
				<time>2026-08-17T05:16:17Z</time>
			</trkpt>
			<trkpt lat="30.254603" lon="120.097707">
				<speed>0.000000</speed>
				<ele>105.000000</ele>
				<time>2026-08-17T05:16:18Z</time>
			</trkpt>
			<trkpt lat="30.254603" lon="120.097710">
				<speed>0.000000</speed>
				<ele>105.000000</ele>
				<time>2026-08-17T05:16:19Z</time>
			</trkpt>
			<trkpt lat="30.254602" lon="120.097714">
				<speed>0.000000</speed>
				<ele>105.000000</ele>
				<time>2026-08-17T05:16:20Z</time>
			</trkpt>
			<trkpt lat="30.254599" lon="120.097732">
				<speed>0.000000</speed>
				<ele>105.000000</ele>
				<time>2026-08-17T05:16:21Z</time>
			</trkpt>
			<trkpt lat="30.254598" lon="120.097736">
				<speed>0.000000</speed>
				<ele>105.000000</ele>
				<time>2026-08-17T05:16:22Z</time>
			</trkpt>
			<trkpt lat="30.254597" lon="120.097741">
				<speed>0.000000</speed>
				<ele>105.000000</ele>
				<time>2026-08-17T05:16:23Z</time>
			</trkpt>
			<trkpt lat="30.254596" lon="120.097746">
				<speed>0.000000</speed>
				<ele>105.000000</ele>
				<time>2026-08-17T05:16:24Z</time>
			</trkpt>
			<trkpt lat="30.254593" lon="120.097760">
				<speed>0.000000</speed>
				<ele>106.000000</ele>
				<time>2026-08-17T05:16:25Z</time>
			</trkpt>
			<trkpt lat="30.254592" lon="120.097765">
				<speed>0.000000</speed>
				<ele>106.000000</ele>
				<time>2026-08-17T05:16:26Z</time>
			</trkpt>
			<trkpt lat="30.254591" lon="120.097770">
				<speed>0.000000</speed>
				<ele>106.000000</ele>
				<time>2026-08-17T05:16:27Z</time>
			</trkpt>
			<trkpt lat="30.254590" lon="120.097775">
				<speed>0.000000</speed>
				<ele>106.000000</ele>
				<time>2026-08-17T05:16:28Z</time>
			</trkpt>
			<trkpt lat="30.254590" lon="120.097791">
				<speed>0.000000</speed>
				<ele>107.000000</ele>
				<time>2026-08-17T05:16:29Z</time>
			</trkpt>
			<trkpt lat="30.254590" lon="120.097796">
				<speed>0.000000</speed>
				<ele>107.000000</ele>
				<time>2026-08-17T05:16:30Z</time>
			</trkpt>
			<trkpt lat="30.254590" lon="120.097801">
				<speed>0.000000</speed>
				<ele>107.000000</ele>
				<time>2026-08-17T05:16:31Z</time>
			</trkpt>
			<trkpt lat="30.254590" lon="120.097805">
				<speed>0.000000</speed>
				<ele>107.000000</ele>
				<time>2026-08-17T05:16:32Z</time>
			</trkpt>
			<trkpt lat="30.254590" lon="120.097818">
				<speed>0.000000</speed>
				<ele>108.000000</ele>
				<time>2026-08-17T05:16:33Z</time>
			</trkpt>
			<trkpt lat="30.254590" lon="120.097822">
				<speed>0.000000</speed>
				<ele>108.000000</ele>
				<time>2026-08-17T05:16:34Z</time>
			</trkpt>
			<trkpt lat="30.254590" lon="120.097826">
				<speed>0.000000</speed>
				<ele>108.000000</ele>
				<time>2026-08-17T05:16:35Z</time>
			</trkpt>
			<trkpt lat="30.254591" lon="120.097830">
				<speed>0.000000</speed>
				<ele>108.000000</ele>
				<time>2026-08-17T05:16:36Z</time>
			</trkpt>
			<trkpt lat="30.254595" lon="120.097840">
				<speed>0.000000</speed>
				<ele>109.000000</ele>
				<time>2026-08-17T05:16:37Z</time>
			</trkpt>
			<trkpt lat="30.254601" lon="120.097844">
				<speed>0.000000</speed>
				<ele>109.000000</ele>
				<time>2026-08-17T05:16:43Z</time>
			</trkpt>
			<trkpt lat="30.254612" lon="120.097845">
				<speed>0.000000</speed>
				<ele>109.000000</ele>
				<time>2026-08-17T05:16:44Z</time>
			</trkpt>
			<trkpt lat="30.254629" lon="120.097846">
				<speed>0.000000</speed>
				<ele>112.000000</ele>
				<time>2026-08-17T05:16:53Z</time>
			</trkpt>
			<trkpt lat="30.254645" lon="120.097850">
				<speed>0.000000</speed>
				<ele>112.000000</ele>
				<time>2026-08-17T05:16:54Z</time>
			</trkpt>
			<trkpt lat="30.254649" lon="120.097851">
				<speed>0.000000</speed>
				<ele>112.000000</ele>
				<time>2026-08-17T05:16:55Z</time>
			</trkpt>
			<trkpt lat="30.254653" lon="120.097852">
				<speed>0.000000</speed>
				<ele>112.000000</ele>
				<time>2026-08-17T05:16:56Z</time>
			</trkpt>
			<trkpt lat="30.254658" lon="120.097852">
				<speed>0.000000</speed>
				<ele>112.000000</ele>
				<time>2026-08-17T05:16:57Z</time>
			</trkpt>
			<trkpt lat="30.254670" lon="120.097852">
				<speed>0.000000</speed>
				<ele>112.000000</ele>
				<time>2026-08-17T05:16:58Z</time>
			</trkpt>
			<trkpt lat="30.254674" lon="120.097851">
				<speed>0.000000</speed>
				<ele>112.000000</ele>
				<time>2026-08-17T05:16:59Z</time>
			</trkpt>
			<trkpt lat="30.254678" lon="120.097850">
				<speed>0.000000</speed>
				<ele>112.000000</ele>
				<time>2026-08-17T05:17:00Z</time>
			</trkpt>
			<trkpt lat="30.254683" lon="120.097849">
				<speed>0.000000</speed>
				<ele>113.000000</ele>
				<time>2026-08-17T05:17:01Z</time>
			</trkpt>
			<trkpt lat="30.254694" lon="120.097846">
				<speed>0.000000</speed>
				<ele>113.000000</ele>
				<time>2026-08-17T05:17:02Z</time>
			</trkpt>
			<trkpt lat="30.254698" lon="120.097845">
				<speed>0.000000</speed>
				<ele>113.000000</ele>
				<time>2026-08-17T05:17:03Z</time>
			</trkpt>
			<trkpt lat="30.254702" lon="120.097845">
				<speed>0.000000</speed>
				<ele>113.000000</ele>
				<time>2026-08-17T05:17:04Z</time>
			</trkpt>
			<trkpt lat="30.254706" lon="120.097844">
				<speed>0.000000</speed>
				<ele>113.000000</ele>
				<time>2026-08-17T05:17:05Z</time>
			</trkpt>
			<trkpt lat="30.254706" lon="120.097845">
				<speed>0.000000</speed>
				<ele>113.000000</ele>
				<time>2026-08-17T05:17:06Z</time>
			</trkpt>
			<trkpt lat="30.254707" lon="120.097846">
				<speed>0.000000</speed>
				<ele>113.000000</ele>
				<time>2026-08-17T05:17:07Z</time>
			</trkpt>
			<trkpt lat="30.254708" lon="120.097847">
				<speed>0.000000</speed>
				<ele>113.000000</ele>
				<time>2026-08-17T05:17:08Z</time>
			</trkpt>
			<trkpt lat="30.254709" lon="120.097848">
				<speed>0.000000</speed>
				<ele>114.000000</ele>
				<time>2026-08-17T05:17:09Z</time>
			</trkpt>
			<trkpt lat="30.254708" lon="120.097856">
				<speed>0.000000</speed>
				<ele>114.000000</ele>
				<time>2026-08-17T05:17:10Z</time>
			</trkpt>
			<trkpt lat="30.254706" lon="120.097859">
				<speed>0.000000</speed>
				<ele>114.000000</ele>
				<time>2026-08-17T05:17:11Z</time>
			</trkpt>
			<trkpt lat="30.254703" lon="120.097862">
				<speed>0.000000</speed>
				<ele>114.000000</ele>
				<time>2026-08-17T05:17:12Z</time>
			</trkpt>
			<trkpt lat="30.254701" lon="120.097866">
				<speed>0.000000</speed>
				<ele>115.000000</ele>
				<time>2026-08-17T05:17:13Z</time>
			</trkpt>
			<trkpt lat="30.254689" lon="120.097879">
				<speed>0.000000</speed>
				<ele>115.000000</ele>
				<time>2026-08-17T05:17:14Z</time>
			</trkpt>
			<trkpt lat="30.254685" lon="120.097884">
				<speed>0.000000</speed>
				<ele>115.000000</ele>
				<time>2026-08-17T05:17:15Z</time>
			</trkpt>
			<trkpt lat="30.254682" lon="120.097888">
				<speed>0.000000</speed>
				<ele>115.000000</ele>
				<time>2026-08-17T05:17:16Z</time>
			</trkpt>
			<trkpt lat="30.254678" lon="120.097893">
				<speed>0.000000</speed>
				<ele>115.000000</ele>
				<time>2026-08-17T05:17:17Z</time>
			</trkpt>
			<trkpt lat="30.254668" lon="120.097906">
				<speed>0.000000</speed>
				<ele>115.000000</ele>
				<time>2026-08-17T05:17:18Z</time>
			</trkpt>
			<trkpt lat="30.254665" lon="120.097911">
				<speed>0.000000</speed>
				<ele>115.000000</ele>
				<time>2026-08-17T05:17:19Z</time>
			</trkpt>
			<trkpt lat="30.254662" lon="120.097915">
				<speed>0.000000</speed>
				<ele>115.000000</ele>
				<time>2026-08-17T05:17:20Z</time>
			</trkpt>
			<trkpt lat="30.254659" lon="120.097919">
				<speed>0.000000</speed>
				<ele>116.000000</ele>
				<time>2026-08-17T05:17:21Z</time>
			</trkpt>
			<trkpt lat="30.254652" lon="120.097931">
				<speed>0.000000</speed>
				<ele>116.000000</ele>
				<time>2026-08-17T05:17:22Z</time>
			</trkpt>
			<trkpt lat="30.254649" lon="120.097935">
				<speed>0.000000</speed>
				<ele>116.000000</ele>
				<time>2026-08-17T05:17:23Z</time>
			</trkpt>
			<trkpt lat="30.254646" lon="120.097939">
				<speed>0.000000</speed>
				<ele>116.000000</ele>
				<time>2026-08-17T05:17:24Z</time>
			</trkpt>
			<trkpt lat="30.254643" lon="120.097943">
				<speed>0.000000</speed>
				<ele>116.000000</ele>
				<time>2026-08-17T05:17:25Z</time>
			</trkpt>
			<trkpt lat="30.254634" lon="120.097957">
				<speed>0.000000</speed>
				<ele>116.000000</ele>
				<time>2026-08-17T05:17:26Z</time>
			</trkpt>
			<trkpt lat="30.254631" lon="120.097962">
				<speed>0.000000</speed>
				<ele>116.000000</ele>
				<time>2026-08-17T05:17:27Z</time>
			</trkpt>
			<trkpt lat="30.254628" lon="120.097968">
				<speed>0.000000</speed>
				<ele>116.000000</ele>
				<time>2026-08-17T05:17:28Z</time>
			</trkpt>
			<trkpt lat="30.254625" lon="120.097973">
				<speed>0.000000</speed>
				<ele>117.000000</ele>
				<time>2026-08-17T05:17:29Z</time>
			</trkpt>
			<trkpt lat="30.254618" lon="120.097989">
				<speed>0.000000</speed>
				<ele>117.000000</ele>
				<time>2026-08-17T05:17:30Z</time>
			</trkpt>
			<trkpt lat="30.254615" lon="120.097995">
				<speed>0.000000</speed>
				<ele>117.000000</ele>
				<time>2026-08-17T05:17:31Z</time>
			</trkpt>
			<trkpt lat="30.254613" lon="120.098001">
				<speed>0.000000</speed>
				<ele>117.000000</ele>
				<time>2026-08-17T05:17:32Z</time>
			</trkpt>
			<trkpt lat="30.254611" lon="120.098006">
				<speed>0.000000</speed>
				<ele>118.000000</ele>
				<time>2026-08-17T05:17:33Z</time>
			</trkpt>
			<trkpt lat="30.254603" lon="120.098024">
				<speed>0.000000</speed>
				<ele>118.000000</ele>
				<time>2026-08-17T05:17:34Z</time>
			</trkpt>
			<trkpt lat="30.254601" lon="120.098030">
				<speed>0.000000</speed>
				<ele>118.000000</ele>
				<time>2026-08-17T05:17:35Z</time>
			</trkpt>
			<trkpt lat="30.254599" lon="120.098036">
				<speed>0.000000</speed>
				<ele>118.000000</ele>
				<time>2026-08-17T05:17:36Z</time>
			</trkpt>
			<trkpt lat="30.254597" lon="120.098043">
				<speed>0.000000</speed>
				<ele>118.000000</ele>
				<time>2026-08-17T05:17:37Z</time>
			</trkpt>
			<trkpt lat="30.254594" lon="120.098061">
				<speed>0.000000</speed>
				<ele>118.000000</ele>
				<time>2026-08-17T05:17:38Z</time>
			</trkpt>
			<trkpt lat="30.254605" lon="120.098068">
				<speed>0.000000</speed>
				<ele>120.000000</ele>
				<time>2026-08-17T05:17:48Z</time>
			</trkpt>
			<trkpt lat="30.254623" lon="120.098075">
				<speed>0.000000</speed>
				<ele>120.000000</ele>
				<time>2026-08-17T05:17:49Z</time>
			</trkpt>
			<trkpt lat="30.254629" lon="120.098075">
				<speed>0.000000</speed>
				<ele>120.000000</ele>
				<time>2026-08-17T05:17:50Z</time>
			</trkpt>
			<trkpt lat="30.254634" lon="120.098076">
				<speed>0.000000</speed>
				<ele>120.000000</ele>
				<time>2026-08-17T05:17:51Z</time>
			</trkpt>
			<trkpt lat="30.254640" lon="120.098076">
				<speed>0.000000</speed>
				<ele>120.000000</ele>
				<time>2026-08-17T05:17:52Z</time>
			</trkpt>
			<trkpt lat="30.254655" lon="120.098077">
				<speed>0.000000</speed>
				<ele>121.000000</ele>
				<time>2026-08-17T05:17:53Z</time>
			</trkpt>
			<trkpt lat="30.254657" lon="120.098076">
				<speed>0.000000</speed>
				<ele>121.000000</ele>
				<time>2026-08-17T05:17:54Z</time>
			</trkpt>
			<trkpt lat="30.254659" lon="120.098075">
				<speed>0.000000</speed>
				<ele>121.000000</ele>
				<time>2026-08-17T05:17:55Z</time>
			</trkpt>
			<trkpt lat="30.254661" lon="120.098075">
				<speed>0.000000</speed>
				<ele>121.000000</ele>
				<time>2026-08-17T05:17:56Z</time>
			</trkpt>
			<trkpt lat="30.254663" lon="120.098074">
				<speed>0.000000</speed>
				<ele>121.000000</ele>
				<time>2026-08-17T05:17:57Z</time>
			</trkpt>
			<trkpt lat="30.254675" lon="120.098069">
				<speed>0.000000</speed>
				<ele>121.000000</ele>
				<time>2026-08-17T05:17:58Z</time>
			</trkpt>
			<trkpt lat="30.254679" lon="120.098067">
				<speed>0.000000</speed>
				<ele>121.000000</ele>
				<time>2026-08-17T05:17:59Z</time>
			</trkpt>
			<trkpt lat="30.254683" lon="120.098066">
				<speed>0.000000</speed>
				<ele>121.000000</ele>
				<time>2026-08-17T05:18:00Z</time>
			</trkpt>
			<trkpt lat="30.254686" lon="120.098064">
				<speed>0.000000</speed>
				<ele>122.000000</ele>
				<time>2026-08-17T05:18:01Z</time>
			</trkpt>
			<trkpt lat="30.254699" lon="120.098059">
				<speed>0.000000</speed>
				<ele>122.000000</ele>
				<time>2026-08-17T05:18:02Z</time>
			</trkpt>
			<trkpt lat="30.254703" lon="120.098058">
				<speed>0.000000</speed>
				<ele>122.000000</ele>
				<time>2026-08-17T05:18:03Z</time>
			</trkpt>
			<trkpt lat="30.254706" lon="120.098056">
				<speed>0.000000</speed>
				<ele>122.000000</ele>
				<time>2026-08-17T05:18:04Z</time>
			</trkpt>
			<trkpt lat="30.254710" lon="120.098055">
				<speed>0.000000</speed>
				<ele>123.000000</ele>
				<time>2026-08-17T05:18:05Z</time>
			</trkpt>
			<trkpt lat="30.254713" lon="120.098053">
				<speed>0.000000</speed>
				<ele>123.000000</ele>
				<time>2026-08-17T05:18:06Z</time>
			</trkpt>
			<trkpt lat="30.254716" lon="120.098052">
				<speed>0.000000</speed>
				<ele>123.000000</ele>
				<time>2026-08-17T05:18:07Z</time>
			</trkpt>
			<trkpt lat="30.254719" lon="120.098051">
				<speed>0.000000</speed>
				<ele>123.000000</ele>
				<time>2026-08-17T05:18:08Z</time>
			</trkpt>
			<trkpt lat="30.254723" lon="120.098050">
				<speed>0.000000</speed>
				<ele>124.000000</ele>
				<time>2026-08-17T05:18:09Z</time>
			</trkpt>
			<trkpt lat="30.254734" lon="120.098045">
				<speed>0.000000</speed>
				<ele>124.000000</ele>
				<time>2026-08-17T05:18:10Z</time>
			</trkpt>
			<trkpt lat="30.254738" lon="120.098044">
				<speed>0.000000</speed>
				<ele>124.000000</ele>
				<time>2026-08-17T05:18:11Z</time>
			</trkpt>
			<trkpt lat="30.254741" lon="120.098042">
				<speed>0.000000</speed>
				<ele>124.000000</ele>
				<time>2026-08-17T05:18:12Z</time>
			</trkpt>
			<trkpt lat="30.254745" lon="120.098041">
				<speed>0.000000</speed>
				<ele>124.000000</ele>
				<time>2026-08-17T05:18:13Z</time>
			</trkpt>
			<trkpt lat="30.254745" lon="120.098055">
				<speed>0.000000</speed>
				<ele>127.000000</ele>
				<time>2026-08-17T05:18:29Z</time>
			</trkpt>
			<trkpt lat="30.254736" lon="120.098073">
				<speed>0.000000</speed>
				<ele>127.000000</ele>
				<time>2026-08-17T05:18:30Z</time>
			</trkpt>
			<trkpt lat="30.254733" lon="120.098077">
				<speed>0.000000</speed>
				<ele>127.000000</ele>
				<time>2026-08-17T05:18:31Z</time>
			</trkpt>
			<trkpt lat="30.254730" lon="120.098080">
				<speed>0.000000</speed>
				<ele>127.000000</ele>
				<time>2026-08-17T05:18:32Z</time>
			</trkpt>
			<trkpt lat="30.254726" lon="120.098084">
				<speed>0.000000</speed>
				<ele>128.000000</ele>
				<time>2026-08-17T05:18:33Z</time>
			</trkpt>
			<trkpt lat="30.254716" lon="120.098095">
				<speed>0.000000</speed>
				<ele>128.000000</ele>
				<time>2026-08-17T05:18:34Z</time>
			</trkpt>
			<trkpt lat="30.254713" lon="120.098100">
				<speed>0.000000</speed>
				<ele>128.000000</ele>
				<time>2026-08-17T05:18:35Z</time>
			</trkpt>
			<trkpt lat="30.254710" lon="120.098104">
				<speed>0.000000</speed>
				<ele>128.000000</ele>
				<time>2026-08-17T05:18:36Z</time>
			</trkpt>
			<trkpt lat="30.254707" lon="120.098108">
				<speed>0.000000</speed>
				<ele>128.000000</ele>
				<time>2026-08-17T05:18:37Z</time>
			</trkpt>
			<trkpt lat="30.254709" lon="120.098133">
				<speed>0.000000</speed>
				<ele>130.000000</ele>
				<time>2026-08-17T05:18:51Z</time>
			</trkpt>
			<trkpt lat="30.254712" lon="120.098161">
				<speed>0.000000</speed>
				<ele>130.000000</ele>
				<time>2026-08-17T05:18:52Z</time>
			</trkpt>
			<trkpt lat="30.254712" lon="120.098168">
				<speed>0.000000</speed>
				<ele>131.000000</ele>
				<time>2026-08-17T05:18:53Z</time>
			</trkpt>
			<trkpt lat="30.254712" lon="120.098175">
				<speed>0.000000</speed>
				<ele>131.000000</ele>
				<time>2026-08-17T05:18:54Z</time>
			</trkpt>
			<trkpt lat="30.254713" lon="120.098181">
				<speed>0.000000</speed>
				<ele>131.000000</ele>
				<time>2026-08-17T05:18:55Z</time>
			</trkpt>
			<trkpt lat="30.254716" lon="120.098198">
				<speed>0.000000</speed>
				<ele>131.000000</ele>
				<time>2026-08-17T05:18:56Z</time>
			</trkpt>
			<trkpt lat="30.254727" lon="120.098205">
				<speed>0.000000</speed>
				<ele>133.000000</ele>
				<time>2026-08-17T05:19:08Z</time>
			</trkpt>
			<trkpt lat="30.254739" lon="120.098201">
				<speed>0.000000</speed>
				<ele>134.000000</ele>
				<time>2026-08-17T05:19:09Z</time>
			</trkpt>
			<trkpt lat="30.254743" lon="120.098198">
				<speed>0.000000</speed>
				<ele>134.000000</ele>
				<time>2026-08-17T05:19:10Z</time>
			</trkpt>
			<trkpt lat="30.254747" lon="120.098196">
				<speed>0.000000</speed>
				<ele>134.000000</ele>
				<time>2026-08-17T05:19:11Z</time>
			</trkpt>
			<trkpt lat="30.254750" lon="120.098194">
				<speed>0.000000</speed>
				<ele>134.000000</ele>
				<time>2026-08-17T05:19:12Z</time>
			</trkpt>
			<trkpt lat="30.254764" lon="120.098187">
				<speed>0.000000</speed>
				<ele>134.000000</ele>
				<time>2026-08-17T05:19:13Z</time>
			</trkpt>
			<trkpt lat="30.254768" lon="120.098185">
				<speed>0.000000</speed>
				<ele>134.000000</ele>
				<time>2026-08-17T05:19:14Z</time>
			</trkpt>
			<trkpt lat="30.254773" lon="120.098183">
				<speed>0.000000</speed>
				<ele>134.000000</ele>
				<time>2026-08-17T05:19:15Z</time>
			</trkpt>
			<trkpt lat="30.254778" lon="120.098181">
				<speed>0.000000</speed>
				<ele>134.000000</ele>
				<time>2026-08-17T05:19:16Z</time>
			</trkpt>
			<trkpt lat="30.254791" lon="120.098175">
				<speed>0.000000</speed>
				<ele>135.000000</ele>
				<time>2026-08-17T05:19:17Z</time>
			</trkpt>
			<trkpt lat="30.254793" lon="120.098174">
				<speed>0.000000</speed>
				<ele>135.000000</ele>
				<time>2026-08-17T05:19:18Z</time>
			</trkpt>
			<trkpt lat="30.254796" lon="120.098173">
				<speed>0.000000</speed>
				<ele>135.000000</ele>
				<time>2026-08-17T05:19:19Z</time>
			</trkpt>
			<trkpt lat="30.254798" lon="120.098172">
				<speed>0.000000</speed>
				<ele>135.000000</ele>
				<time>2026-08-17T05:19:20Z</time>
			</trkpt>
			<trkpt lat="30.254809" lon="120.098167">
				<speed>0.000000</speed>
				<ele>136.000000</ele>
				<time>2026-08-17T05:19:21Z</time>
			</trkpt>
			<trkpt lat="30.254812" lon="120.098165">
				<speed>0.000000</speed>
				<ele>136.000000</ele>
				<time>2026-08-17T05:19:22Z</time>
			</trkpt>
			<trkpt lat="30.254816" lon="120.098164">
				<speed>0.000000</speed>
				<ele>136.000000</ele>
				<time>2026-08-17T05:19:23Z</time>
			</trkpt>
			<trkpt lat="30.254820" lon="120.098163">
				<speed>0.000000</speed>
				<ele>136.000000</ele>
				<time>2026-08-17T05:19:24Z</time>
			</trkpt>
			<trkpt lat="30.254831" lon="120.098159">
				<speed>0.000000</speed>
				<ele>136.000000</ele>
				<time>2026-08-17T05:19:25Z</time>
			</trkpt>
			<trkpt lat="30.254835" lon="120.098158">
				<speed>0.000000</speed>
				<ele>136.000000</ele>
				<time>2026-08-17T05:19:26Z</time>
			</trkpt>
			<trkpt lat="30.254839" lon="120.098157">
				<speed>0.000000</speed>
				<ele>136.000000</ele>
				<time>2026-08-17T05:19:27Z</time>
			</trkpt>
			<trkpt lat="30.254843" lon="120.098157">
				<speed>0.000000</speed>
				<ele>136.000000</ele>
				<time>2026-08-17T05:19:28Z</time>
			</trkpt>
			<trkpt lat="30.254857" lon="120.098156">
				<speed>0.000000</speed>
				<ele>136.000000</ele>
				<time>2026-08-17T05:19:29Z</time>
			</trkpt>
			<trkpt lat="30.254861" lon="120.098157">
				<speed>0.000000</speed>
				<ele>136.000000</ele>
				<time>2026-08-17T05:19:30Z</time>
			</trkpt>
			<trkpt lat="30.254866" lon="120.098157">
				<speed>0.000000</speed>
				<ele>136.000000</ele>
				<time>2026-08-17T05:19:31Z</time>
			</trkpt>
			<trkpt lat="30.254871" lon="120.098158">
				<speed>0.000000</speed>
				<ele>136.000000</ele>
				<time>2026-08-17T05:19:32Z</time>
			</trkpt>
			<trkpt lat="30.254887" lon="120.098157">
				<speed>0.000000</speed>
				<ele>137.000000</ele>
				<time>2026-08-17T05:19:33Z</time>
			</trkpt>
			<trkpt lat="30.254892" lon="120.098156">
				<speed>0.000000</speed>
				<ele>137.000000</ele>
				<time>2026-08-17T05:19:34Z</time>
			</trkpt>
			<trkpt lat="30.254897" lon="120.098155">
				<speed>0.000000</speed>
				<ele>137.000000</ele>
				<time>2026-08-17T05:19:35Z</time>
			</trkpt>
			<trkpt lat="30.254902" lon="120.098155">
				<speed>0.000000</speed>
				<ele>137.000000</ele>
				<time>2026-08-17T05:19:36Z</time>
			</trkpt>
			<trkpt lat="30.254916" lon="120.098149">
				<speed>0.000000</speed>
				<ele>138.000000</ele>
				<time>2026-08-17T05:19:43Z</time>
			</trkpt>
			<trkpt lat="30.254934" lon="120.098140">
				<speed>0.000000</speed>
				<ele>138.000000</ele>
				<time>2026-08-17T05:19:44Z</time>
			</trkpt>
			<trkpt lat="30.254939" lon="120.098138">
				<speed>0.000000</speed>
				<ele>139.000000</ele>
				<time>2026-08-17T05:19:45Z</time>
			</trkpt>
			<trkpt lat="30.254944" lon="120.098137">
				<speed>0.000000</speed>
				<ele>139.000000</ele>
				<time>2026-08-17T05:19:46Z</time>
			</trkpt>
			<trkpt lat="30.254949" lon="120.098135">
				<speed>0.000000</speed>
				<ele>139.000000</ele>
				<time>2026-08-17T05:19:47Z</time>
			</trkpt>
			<trkpt lat="30.254964" lon="120.098131">
				<speed>0.000000</speed>
				<ele>139.000000</ele>
				<time>2026-08-17T05:19:48Z</time>
			</trkpt>
			<trkpt lat="30.254968" lon="120.098130">
				<speed>0.000000</speed>
				<ele>139.000000</ele>
				<time>2026-08-17T05:19:49Z</time>
			</trkpt>
			<trkpt lat="30.254972" lon="120.098130">
				<speed>0.000000</speed>
				<ele>139.000000</ele>
				<time>2026-08-17T05:19:50Z</time>
			</trkpt>
			<trkpt lat="30.254977" lon="120.098129">
				<speed>0.000000</speed>
				<ele>139.000000</ele>
				<time>2026-08-17T05:19:51Z</time>
			</trkpt>
			<trkpt lat="30.254989" lon="120.098130">
				<speed>0.000000</speed>
				<ele>139.000000</ele>
				<time>2026-08-17T05:19:52Z</time>
			</trkpt>
			<trkpt lat="30.255007" lon="120.098133">
				<speed>0.000000</speed>
				<ele>141.000000</ele>
				<time>2026-08-17T05:20:00Z</time>
			</trkpt>
			<trkpt lat="30.255024" lon="120.098134">
				<speed>0.000000</speed>
				<ele>141.000000</ele>
				<time>2026-08-17T05:20:01Z</time>
			</trkpt>
			<trkpt lat="30.255029" lon="120.098134">
				<speed>0.000000</speed>
				<ele>141.000000</ele>
				<time>2026-08-17T05:20:02Z</time>
			</trkpt>
			<trkpt lat="30.255033" lon="120.098135">
				<speed>0.000000</speed>
				<ele>141.000000</ele>
				<time>2026-08-17T05:20:03Z</time>
			</trkpt>
			<trkpt lat="30.255037" lon="120.098135">
				<speed>0.000000</speed>
				<ele>141.000000</ele>
				<time>2026-08-17T05:20:04Z</time>
			</trkpt>
			<trkpt lat="30.255045" lon="120.098144">
				<speed>0.000000</speed>
				<ele>143.000000</ele>
				<time>2026-08-17T05:20:16Z</time>
			</trkpt>
			<trkpt lat="30.255052" lon="120.098158">
				<speed>0.000000</speed>
				<ele>143.000000</ele>
				<time>2026-08-17T05:20:17Z</time>
			</trkpt>
			<trkpt lat="30.255052" lon="120.098161">
				<speed>0.000000</speed>
				<ele>143.000000</ele>
				<time>2026-08-17T05:20:18Z</time>
			</trkpt>
			<trkpt lat="30.255052" lon="120.098165">
				<speed>0.000000</speed>
				<ele>143.000000</ele>
				<time>2026-08-17T05:20:19Z</time>
			</trkpt>
			<trkpt lat="30.255052" lon="120.098169">
				<speed>0.000000</speed>
				<ele>143.000000</ele>
				<time>2026-08-17T05:20:20Z</time>
			</trkpt>
			<trkpt lat="30.255044" lon="120.098183">
				<speed>0.000000</speed>
				<ele>144.000000</ele>
				<time>2026-08-17T05:20:28Z</time>
			</trkpt>
			<trkpt lat="30.255032" lon="120.098202">
				<speed>0.000000</speed>
				<ele>144.000000</ele>
				<time>2026-08-17T05:20:29Z</time>
			</trkpt>
			<trkpt lat="30.255029" lon="120.098206">
				<speed>0.000000</speed>
				<ele>144.000000</ele>
				<time>2026-08-17T05:20:30Z</time>
			</trkpt>
			<trkpt lat="30.255026" lon="120.098211">
				<speed>0.000000</speed>
				<ele>144.000000</ele>
				<time>2026-08-17T05:20:31Z</time>
			</trkpt>
			<trkpt lat="30.255023" lon="120.098215">
				<speed>0.000000</speed>
				<ele>144.000000</ele>
				<time>2026-08-17T05:20:32Z</time>
			</trkpt>
			<trkpt lat="30.255019" lon="120.098219">
				<speed>0.000000</speed>
				<ele>145.000000</ele>
				<time>2026-08-17T05:20:33Z</time>
			</trkpt>
			<trkpt lat="30.255016" lon="120.098223">
				<speed>0.000000</speed>
				<ele>145.000000</ele>
				<time>2026-08-17T05:20:34Z</time>
			</trkpt>
			<trkpt lat="30.255012" lon="120.098227">
				<speed>0.000000</speed>
				<ele>145.000000</ele>
				<time>2026-08-17T05:20:35Z</time>
			</trkpt>
			<trkpt lat="30.255003" lon="120.098237">
				<speed>0.000000</speed>
				<ele>145.000000</ele>
				<time>2026-08-17T05:20:36Z</time>
			</trkpt>
			<trkpt lat="30.255000" lon="120.098240">
				<speed>0.000000</speed>
				<ele>146.000000</ele>
				<time>2026-08-17T05:20:37Z</time>
			</trkpt>
			<trkpt lat="30.254997" lon="120.098244">
				<speed>0.000000</speed>
				<ele>146.000000</ele>
				<time>2026-08-17T05:20:38Z</time>
			</trkpt>
			<trkpt lat="30.254994" lon="120.098247">
				<speed>0.000000</speed>
				<ele>146.000000</ele>
				<time>2026-08-17T05:20:39Z</time>
			</trkpt>
			<trkpt lat="30.254985" lon="120.098255">
				<speed>0.000000</speed>
				<ele>146.000000</ele>
				<time>2026-08-17T05:20:40Z</time>
			</trkpt>
			<trkpt lat="30.254982" lon="120.098259">
				<speed>0.000000</speed>
				<ele>146.000000</ele>
				<time>2026-08-17T05:20:41Z</time>
			</trkpt>
			<trkpt lat="30.254979" lon="120.098262">
				<speed>0.000000</speed>
				<ele>146.000000</ele>
				<time>2026-08-17T05:20:42Z</time>
			</trkpt>
			<trkpt lat="30.254976" lon="120.098265">
				<speed>0.000000</speed>
				<ele>146.000000</ele>
				<time>2026-08-17T05:20:43Z</time>
			</trkpt>
			<trkpt lat="30.254967" lon="120.098274">
				<speed>0.000000</speed>
				<ele>146.000000</ele>
				<time>2026-08-17T05:20:44Z</time>
			</trkpt>
			<trkpt lat="30.254964" lon="120.098277">
				<speed>0.000000</speed>
				<ele>147.000000</ele>
				<time>2026-08-17T05:20:45Z</time>
			</trkpt>
			<trkpt lat="30.254961" lon="120.098280">
				<speed>0.000000</speed>
				<ele>147.000000</ele>
				<time>2026-08-17T05:20:46Z</time>
			</trkpt>
			<trkpt lat="30.254958" lon="120.098283">
				<speed>0.000000</speed>
				<ele>147.000000</ele>
				<time>2026-08-17T05:20:47Z</time>
			</trkpt>
			<trkpt lat="30.254950" lon="120.098293">
				<speed>0.000000</speed>
				<ele>147.000000</ele>
				<time>2026-08-17T05:20:48Z</time>
			</trkpt>
			<trkpt lat="30.254948" lon="120.098295">
				<speed>0.000000</speed>
				<ele>147.000000</ele>
				<time>2026-08-17T05:20:49Z</time>
			</trkpt>
			<trkpt lat="30.254946" lon="120.098297">
				<speed>0.000000</speed>
				<ele>147.000000</ele>
				<time>2026-08-17T05:20:50Z</time>
			</trkpt>
			<trkpt lat="30.254944" lon="120.098300">
				<speed>0.000000</speed>
				<ele>147.000000</ele>
				<time>2026-08-17T05:20:51Z</time>
			</trkpt>
			<trkpt lat="30.254937" lon="120.098307">
				<speed>0.000000</speed>
				<ele>147.000000</ele>
				<time>2026-08-17T05:20:52Z</time>
			</trkpt>
			<trkpt lat="30.254935" lon="120.098309">
				<speed>0.000000</speed>
				<ele>148.000000</ele>
				<time>2026-08-17T05:20:53Z</time>
			</trkpt>
			<trkpt lat="30.254932" lon="120.098311">
				<speed>0.000000</speed>
				<ele>148.000000</ele>
				<time>2026-08-17T05:20:54Z</time>
			</trkpt>
			<trkpt lat="30.254930" lon="120.098313">
				<speed>0.000000</speed>
				<ele>148.000000</ele>
				<time>2026-08-17T05:20:55Z</time>
			</trkpt>
			<trkpt lat="30.254921" lon="120.098314">
				<speed>0.000000</speed>
				<ele>152.000000</ele>
				<time>2026-08-17T05:21:36Z</time>
			</trkpt>
			<trkpt lat="30.254918" lon="120.098313">
				<speed>0.000000</speed>
				<ele>152.000000</ele>
				<time>2026-08-17T05:21:37Z</time>
			</trkpt>
			<trkpt lat="30.254920" lon="120.098313">
				<speed>0.000000</speed>
				<ele>152.000000</ele>
				<time>2026-08-17T05:21:38Z</time>
			</trkpt>
			<trkpt lat="30.254922" lon="120.098314">
				<speed>0.000000</speed>
				<ele>152.000000</ele>
				<time>2026-08-17T05:21:39Z</time>
			</trkpt>
			<trkpt lat="30.254924" lon="120.098315">
				<speed>0.000000</speed>
				<ele>152.000000</ele>
				<time>2026-08-17T05:21:40Z</time>
			</trkpt>
			<trkpt lat="30.254934" lon="120.098318">
				<speed>0.000000</speed>
				<ele>152.000000</ele>
				<time>2026-08-17T05:21:41Z</time>
			</trkpt>
			<trkpt lat="30.254939" lon="120.098319">
				<speed>0.000000</speed>
				<ele>152.000000</ele>
				<time>2026-08-17T05:21:42Z</time>
			</trkpt>
			<trkpt lat="30.254943" lon="120.098320">
				<speed>0.000000</speed>
				<ele>152.000000</ele>
				<time>2026-08-17T05:21:43Z</time>
			</trkpt>
			<trkpt lat="30.254948" lon="120.098321">
				<speed>0.000000</speed>
				<ele>152.000000</ele>
				<time>2026-08-17T05:21:44Z</time>
			</trkpt>
			<trkpt lat="30.254959" lon="120.098329">
				<speed>0.000000</speed>
				<ele>152.000000</ele>
				<time>2026-08-17T05:21:45Z</time>
			</trkpt>
			<trkpt lat="30.254961" lon="120.098333">
				<speed>0.000000</speed>
				<ele>152.000000</ele>
				<time>2026-08-17T05:21:46Z</time>
			</trkpt>
			<trkpt lat="30.254962" lon="120.098338">
				<speed>0.000000</speed>
				<ele>152.000000</ele>
				<time>2026-08-17T05:21:47Z</time>
			</trkpt>
			<trkpt lat="30.254963" lon="120.098342">
				<speed>0.000000</speed>
				<ele>152.000000</ele>
				<time>2026-08-17T05:21:48Z</time>
			</trkpt>
			<trkpt lat="30.254959" lon="120.098356">
				<speed>0.000000</speed>
				<ele>152.000000</ele>
				<time>2026-08-17T05:21:49Z</time>
			</trkpt>
			<trkpt lat="30.254956" lon="120.098360">
				<speed>0.000000</speed>
				<ele>152.000000</ele>
				<time>2026-08-17T05:21:50Z</time>
			</trkpt>
			<trkpt lat="30.254952" lon="120.098365">
				<speed>0.000000</speed>
				<ele>152.000000</ele>
				<time>2026-08-17T05:21:51Z</time>
			</trkpt>
			<trkpt lat="30.254949" lon="120.098369">
				<speed>0.000000</speed>
				<ele>152.000000</ele>
				<time>2026-08-17T05:21:52Z</time>
			</trkpt>
			<trkpt lat="30.254938" lon="120.098383">
				<speed>0.000000</speed>
				<ele>152.000000</ele>
				<time>2026-08-17T05:21:53Z</time>
			</trkpt>
			<trkpt lat="30.254935" lon="120.098388">
				<speed>0.000000</speed>
				<ele>152.000000</ele>
				<time>2026-08-17T05:21:54Z</time>
			</trkpt>
			<trkpt lat="30.254931" lon="120.098392">
				<speed>0.000000</speed>
				<ele>152.000000</ele>
				<time>2026-08-17T05:21:55Z</time>
			</trkpt>
			<trkpt lat="30.254928" lon="120.098397">
				<speed>0.000000</speed>
				<ele>152.000000</ele>
				<time>2026-08-17T05:21:56Z</time>
			</trkpt>
			<trkpt lat="30.254919" lon="120.098412">
				<speed>0.000000</speed>
				<ele>153.000000</ele>
				<time>2026-08-17T05:21:57Z</time>
			</trkpt>
			<trkpt lat="30.254917" lon="120.098417">
				<speed>0.000000</speed>
				<ele>153.000000</ele>
				<time>2026-08-17T05:21:58Z</time>
			</trkpt>
			<trkpt lat="30.254915" lon="120.098422">
				<speed>0.000000</speed>
				<ele>153.000000</ele>
				<time>2026-08-17T05:21:59Z</time>
			</trkpt>
			<trkpt lat="30.254913" lon="120.098427">
				<speed>0.000000</speed>
				<ele>153.000000</ele>
				<time>2026-08-17T05:22:00Z</time>
			</trkpt>
			<trkpt lat="30.254909" lon="120.098442">
				<speed>0.000000</speed>
				<ele>154.000000</ele>
				<time>2026-08-17T05:22:01Z</time>
			</trkpt>
			<trkpt lat="30.254908" lon="120.098447">
				<speed>0.000000</speed>
				<ele>154.000000</ele>
				<time>2026-08-17T05:22:02Z</time>
			</trkpt>
			<trkpt lat="30.254908" lon="120.098452">
				<speed>0.000000</speed>
				<ele>154.000000</ele>
				<time>2026-08-17T05:22:03Z</time>
			</trkpt>
			<trkpt lat="30.254907" lon="120.098457">
				<speed>0.000000</speed>
				<ele>154.000000</ele>
				<time>2026-08-17T05:22:04Z</time>
			</trkpt>
			<trkpt lat="30.254904" lon="120.098473">
				<speed>0.000000</speed>
				<ele>155.000000</ele>
				<time>2026-08-17T05:22:05Z</time>
			</trkpt>
			<trkpt lat="30.254903" lon="120.098478">
				<speed>0.000000</speed>
				<ele>155.000000</ele>
				<time>2026-08-17T05:22:06Z</time>
			</trkpt>
			<trkpt lat="30.254901" lon="120.098483">
				<speed>0.000000</speed>
				<ele>155.000000</ele>
				<time>2026-08-17T05:22:07Z</time>
			</trkpt>
			<trkpt lat="30.254900" lon="120.098488">
				<speed>0.000000</speed>
				<ele>155.000000</ele>
				<time>2026-08-17T05:22:08Z</time>
			</trkpt>
			<trkpt lat="30.254895" lon="120.098502">
				<speed>0.000000</speed>
				<ele>156.000000</ele>
				<time>2026-08-17T05:22:09Z</time>
			</trkpt>
			<trkpt lat="30.254892" lon="120.098506">
				<speed>0.000000</speed>
				<ele>156.000000</ele>
				<time>2026-08-17T05:22:10Z</time>
			</trkpt>
			<trkpt lat="30.254889" lon="120.098511">
				<speed>0.000000</speed>
				<ele>156.000000</ele>
				<time>2026-08-17T05:22:11Z</time>
			</trkpt>
			<trkpt lat="30.254886" lon="120.098515">
				<speed>0.000000</speed>
				<ele>156.000000</ele>
				<time>2026-08-17T05:22:12Z</time>
			</trkpt>
			<trkpt lat="30.254875" lon="120.098529">
				<speed>0.000000</speed>
				<ele>156.000000</ele>
				<time>2026-08-17T05:22:13Z</time>
			</trkpt>
			<trkpt lat="30.254871" lon="120.098535">
				<speed>0.000000</speed>
				<ele>156.000000</ele>
				<time>2026-08-17T05:22:14Z</time>
			</trkpt>
			<trkpt lat="30.254867" lon="120.098540">
				<speed>0.000000</speed>
				<ele>156.000000</ele>
				<time>2026-08-17T05:22:15Z</time>
			</trkpt>
			<trkpt lat="30.254863" lon="120.098546">
				<speed>0.000000</speed>
				<ele>156.000000</ele>
				<time>2026-08-17T05:22:16Z</time>
			</trkpt>
			<trkpt lat="30.254851" lon="120.098563">
				<speed>0.000000</speed>
				<ele>157.000000</ele>
				<time>2026-08-17T05:22:17Z</time>
			</trkpt>
			<trkpt lat="30.254848" lon="120.098567">
				<speed>0.000000</speed>
				<ele>157.000000</ele>
				<time>2026-08-17T05:22:18Z</time>
			</trkpt>
			<trkpt lat="30.254845" lon="120.098572">
				<speed>0.000000</speed>
				<ele>157.000000</ele>
				<time>2026-08-17T05:22:19Z</time>
			</trkpt>
			<trkpt lat="30.254842" lon="120.098577">
				<speed>0.000000</speed>
				<ele>157.000000</ele>
				<time>2026-08-17T05:22:20Z</time>
			</trkpt>
			<trkpt lat="30.254840" lon="120.098585">
				<speed>0.000000</speed>
				<ele>158.000000</ele>
				<time>2026-08-17T05:22:21Z</time>
			</trkpt>
			<trkpt lat="30.254847" lon="120.098591">
				<speed>0.000000</speed>
				<ele>159.000000</ele>
				<time>2026-08-17T05:22:31Z</time>
			</trkpt>
			<trkpt lat="30.254861" lon="120.098595">
				<speed>0.000000</speed>
				<ele>159.000000</ele>
				<time>2026-08-17T05:22:32Z</time>
			</trkpt>
			<trkpt lat="30.254865" lon="120.098594">
				<speed>0.000000</speed>
				<ele>159.000000</ele>
				<time>2026-08-17T05:22:33Z</time>
			</trkpt>
			<trkpt lat="30.254869" lon="120.098593">
				<speed>0.000000</speed>
				<ele>159.000000</ele>
				<time>2026-08-17T05:22:34Z</time>
			</trkpt>
			<trkpt lat="30.254873" lon="120.098592">
				<speed>0.000000</speed>
				<ele>159.000000</ele>
				<time>2026-08-17T05:22:35Z</time>
			</trkpt>
			<trkpt lat="30.254885" lon="120.098587">
				<speed>0.000000</speed>
				<ele>159.000000</ele>
				<time>2026-08-17T05:22:36Z</time>
			</trkpt>
			<trkpt lat="30.254889" lon="120.098586">
				<speed>0.000000</speed>
				<ele>159.000000</ele>
				<time>2026-08-17T05:22:37Z</time>
			</trkpt>
			<trkpt lat="30.254893" lon="120.098586">
				<speed>0.000000</speed>
				<ele>159.000000</ele>
				<time>2026-08-17T05:22:38Z</time>
			</trkpt>
			<trkpt lat="30.254897" lon="120.098585">
				<speed>0.000000</speed>
				<ele>159.000000</ele>
				<time>2026-08-17T05:22:39Z</time>
			</trkpt>
			<trkpt lat="30.254901" lon="120.098585">
				<speed>0.000000</speed>
				<ele>159.000000</ele>
				<time>2026-08-17T05:22:40Z</time>
			</trkpt>
			<trkpt lat="30.254906" lon="120.098585">
				<speed>0.000000</speed>
				<ele>160.000000</ele>
				<time>2026-08-17T05:22:41Z</time>
			</trkpt>
			<trkpt lat="30.254910" lon="120.098585">
				<speed>0.000000</speed>
				<ele>160.000000</ele>
				<time>2026-08-17T05:22:42Z</time>
			</trkpt>
			<trkpt lat="30.254915" lon="120.098585">
				<speed>0.000000</speed>
				<ele>160.000000</ele>
				<time>2026-08-17T05:22:43Z</time>
			</trkpt>
			<trkpt lat="30.254920" lon="120.098585">
				<speed>0.000000</speed>
				<ele>160.000000</ele>
				<time>2026-08-17T05:22:44Z</time>
			</trkpt>
			<trkpt lat="30.254925" lon="120.098585">
				<speed>0.000000</speed>
				<ele>161.000000</ele>
				<time>2026-08-17T05:22:45Z</time>
			</trkpt>
			<trkpt lat="30.254937" lon="120.098585">
				<speed>0.000000</speed>
				<ele>161.000000</ele>
				<time>2026-08-17T05:22:46Z</time>
			</trkpt>
			<trkpt lat="30.254941" lon="120.098585">
				<speed>0.000000</speed>
				<ele>161.000000</ele>
				<time>2026-08-17T05:22:47Z</time>
			</trkpt>
			<trkpt lat="30.254944" lon="120.098584">
				<speed>0.000000</speed>
				<ele>161.000000</ele>
				<time>2026-08-17T05:22:48Z</time>
			</trkpt>
			<trkpt lat="30.254948" lon="120.098584">
				<speed>0.000000</speed>
				<ele>162.000000</ele>
				<time>2026-08-17T05:22:49Z</time>
			</trkpt>
			<trkpt lat="30.254958" lon="120.098580">
				<speed>0.000000</speed>
				<ele>162.000000</ele>
				<time>2026-08-17T05:22:50Z</time>
			</trkpt>
			<trkpt lat="30.254962" lon="120.098579">
				<speed>0.000000</speed>
				<ele>162.000000</ele>
				<time>2026-08-17T05:22:51Z</time>
			</trkpt>
			<trkpt lat="30.254966" lon="120.098577">
				<speed>0.000000</speed>
				<ele>162.000000</ele>
				<time>2026-08-17T05:22:52Z</time>
			</trkpt>
			<trkpt lat="30.254970" lon="120.098576">
				<speed>0.000000</speed>
				<ele>163.000000</ele>
				<time>2026-08-17T05:22:53Z</time>
			</trkpt>
			<trkpt lat="30.254986" lon="120.098571">
				<speed>0.000000</speed>
				<ele>163.000000</ele>
				<time>2026-08-17T05:22:54Z</time>
			</trkpt>
			<trkpt lat="30.254991" lon="120.098571">
				<speed>0.000000</speed>
				<ele>163.000000</ele>
				<time>2026-08-17T05:22:55Z</time>
			</trkpt>
			<trkpt lat="30.254996" lon="120.098571">
				<speed>0.000000</speed>
				<ele>163.000000</ele>
				<time>2026-08-17T05:22:56Z</time>
			</trkpt>
			<trkpt lat="30.255001" lon="120.098571">
				<speed>0.000000</speed>
				<ele>164.000000</ele>
				<time>2026-08-17T05:22:57Z</time>
			</trkpt>
			<trkpt lat="30.255014" lon="120.098574">
				<speed>0.000000</speed>
				<ele>164.000000</ele>
				<time>2026-08-17T05:22:58Z</time>
			</trkpt>
			<trkpt lat="30.255017" lon="120.098577">
				<speed>0.000000</speed>
				<ele>164.000000</ele>
				<time>2026-08-17T05:22:59Z</time>
			</trkpt>
			<trkpt lat="30.255021" lon="120.098580">
				<speed>0.000000</speed>
				<ele>164.000000</ele>
				<time>2026-08-17T05:23:00Z</time>
			</trkpt>
			<trkpt lat="30.255024" lon="120.098583">
				<speed>0.000000</speed>
				<ele>164.000000</ele>
				<time>2026-08-17T05:23:01Z</time>
			</trkpt>
			<trkpt lat="30.255024" lon="120.098586">
				<speed>0.000000</speed>
				<ele>164.000000</ele>
				<time>2026-08-17T05:23:02Z</time>
			</trkpt>
			<trkpt lat="30.255025" lon="120.098588">
				<speed>0.000000</speed>
				<ele>164.000000</ele>
				<time>2026-08-17T05:23:03Z</time>
			</trkpt>
			<trkpt lat="30.255026" lon="120.098591">
				<speed>0.000000</speed>
				<ele>164.000000</ele>
				<time>2026-08-17T05:23:04Z</time>
			</trkpt>
			<trkpt lat="30.255023" lon="120.098600">
				<speed>0.000000</speed>
				<ele>165.000000</ele>
				<time>2026-08-17T05:23:05Z</time>
			</trkpt>
			<trkpt lat="30.255020" lon="120.098602">
				<speed>0.000000</speed>
				<ele>165.000000</ele>
				<time>2026-08-17T05:23:06Z</time>
			</trkpt>
			<trkpt lat="30.255017" lon="120.098605">
				<speed>0.000000</speed>
				<ele>165.000000</ele>
				<time>2026-08-17T05:23:07Z</time>
			</trkpt>
			<trkpt lat="30.255015" lon="120.098607">
				<speed>0.000000</speed>
				<ele>165.000000</ele>
				<time>2026-08-17T05:23:08Z</time>
			</trkpt>
			<trkpt lat="30.255002" lon="120.098624">
				<speed>0.000000</speed>
				<ele>166.000000</ele>
				<time>2026-08-17T05:23:15Z</time>
			</trkpt>
			<trkpt lat="30.254991" lon="120.098641">
				<speed>0.000000</speed>
				<ele>166.000000</ele>
				<time>2026-08-17T05:23:16Z</time>
			</trkpt>
			<trkpt lat="30.254989" lon="120.098646">
				<speed>0.000000</speed>
				<ele>166.000000</ele>
				<time>2026-08-17T05:23:17Z</time>
			</trkpt>
			<trkpt lat="30.254988" lon="120.098651">
				<speed>0.000000</speed>
				<ele>166.000000</ele>
				<time>2026-08-17T05:23:18Z</time>
			</trkpt>
			<trkpt lat="30.254986" lon="120.098656">
				<speed>0.000000</speed>
				<ele>166.000000</ele>
				<time>2026-08-17T05:23:19Z</time>
			</trkpt>
			<trkpt lat="30.254993" lon="120.098662">
				<speed>0.000000</speed>
				<ele>167.000000</ele>
				<time>2026-08-17T05:23:26Z</time>
			</trkpt>
			<trkpt lat="30.255006" lon="120.098665">
				<speed>0.000000</speed>
				<ele>167.000000</ele>
				<time>2026-08-17T05:23:27Z</time>
			</trkpt>
			<trkpt lat="30.255009" lon="120.098667">
				<speed>0.000000</speed>
				<ele>167.000000</ele>
				<time>2026-08-17T05:23:28Z</time>
			</trkpt>
			<trkpt lat="30.255012" lon="120.098669">
				<speed>0.000000</speed>
				<ele>168.000000</ele>
				<time>2026-08-17T05:23:29Z</time>
			</trkpt>
			<trkpt lat="30.255016" lon="120.098671">
				<speed>0.000000</speed>
				<ele>168.000000</ele>
				<time>2026-08-17T05:23:30Z</time>
			</trkpt>
			<trkpt lat="30.255021" lon="120.098681">
				<speed>0.000000</speed>
				<ele>168.000000</ele>
				<time>2026-08-17T05:23:31Z</time>
			</trkpt>
			<trkpt lat="30.255022" lon="120.098693">
				<speed>0.000000</speed>
				<ele>169.000000</ele>
				<time>2026-08-17T05:23:38Z</time>
			</trkpt>
			<trkpt lat="30.255021" lon="120.098712">
				<speed>0.000000</speed>
				<ele>169.000000</ele>
				<time>2026-08-17T05:23:39Z</time>
			</trkpt>
			<trkpt lat="30.255019" lon="120.098716">
				<speed>0.000000</speed>
				<ele>169.000000</ele>
				<time>2026-08-17T05:23:40Z</time>
			</trkpt>
			<trkpt lat="30.255017" lon="120.098721">
				<speed>0.000000</speed>
				<ele>169.000000</ele>
				<time>2026-08-17T05:23:41Z</time>
			</trkpt>
			<trkpt lat="30.255015" lon="120.098726">
				<speed>0.000000</speed>
				<ele>169.000000</ele>
				<time>2026-08-17T05:23:42Z</time>
			</trkpt>
			<trkpt lat="30.255009" lon="120.098733">
				<speed>0.000000</speed>
				<ele>169.000000</ele>
				<time>2026-08-17T05:23:43Z</time>
			</trkpt>
			<trkpt lat="30.255006" lon="120.098737">
				<speed>0.000000</speed>
				<ele>169.000000</ele>
				<time>2026-08-17T05:23:44Z</time>
			</trkpt>
			<trkpt lat="30.255003" lon="120.098741">
				<speed>0.000000</speed>
				<ele>170.000000</ele>
				<time>2026-08-17T05:23:45Z</time>
			</trkpt>
			<trkpt lat="30.255000" lon="120.098745">
				<speed>0.000000</speed>
				<ele>170.000000</ele>
				<time>2026-08-17T05:23:46Z</time>
			</trkpt>
			<trkpt lat="30.254984" lon="120.098762">
				<speed>0.000000</speed>
				<ele>172.000000</ele>
				<time>2026-08-17T05:24:02Z</time>
			</trkpt>
			<trkpt lat="30.254976" lon="120.098780">
				<speed>0.000000</speed>
				<ele>173.000000</ele>
				<time>2026-08-17T05:24:09Z</time>
			</trkpt>
			<trkpt lat="30.254970" lon="120.098804">
				<speed>0.000000</speed>
				<ele>173.000000</ele>
				<time>2026-08-17T05:24:10Z</time>
			</trkpt>
			<trkpt lat="30.254970" lon="120.098809">
				<speed>0.000000</speed>
				<ele>173.000000</ele>
				<time>2026-08-17T05:24:11Z</time>
			</trkpt>
			<trkpt lat="30.254971" lon="120.098814">
				<speed>0.000000</speed>
				<ele>173.000000</ele>
				<time>2026-08-17T05:24:12Z</time>
			</trkpt>
			<trkpt lat="30.254972" lon="120.098819">
				<speed>0.000000</speed>
				<ele>173.000000</ele>
				<time>2026-08-17T05:24:13Z</time>
			</trkpt>
			<trkpt lat="30.254981" lon="120.098829">
				<speed>0.000000</speed>
				<ele>173.000000</ele>
				<time>2026-08-17T05:24:14Z</time>
			</trkpt>
			<trkpt lat="30.254984" lon="120.098830">
				<speed>0.000000</speed>
				<ele>173.000000</ele>
				<time>2026-08-17T05:24:15Z</time>
			</trkpt>
			<trkpt lat="30.254988" lon="120.098832">
				<speed>0.000000</speed>
				<ele>173.000000</ele>
				<time>2026-08-17T05:24:16Z</time>
			</trkpt>
			<trkpt lat="30.254992" lon="120.098833">
				<speed>0.000000</speed>
				<ele>174.000000</ele>
				<time>2026-08-17T05:24:17Z</time>
			</trkpt>
			<trkpt lat="30.254999" lon="120.098835">
				<speed>0.000000</speed>
				<ele>174.000000</ele>
				<time>2026-08-17T05:24:18Z</time>
			</trkpt>
			<trkpt lat="30.255002" lon="120.098835">
				<speed>0.000000</speed>
				<ele>174.000000</ele>
				<time>2026-08-17T05:24:19Z</time>
			</trkpt>
			<trkpt lat="30.255006" lon="120.098835">
				<speed>0.000000</speed>
				<ele>174.000000</ele>
				<time>2026-08-17T05:24:20Z</time>
			</trkpt>
			<trkpt lat="30.255010" lon="120.098835">
				<speed>0.000000</speed>
				<ele>174.000000</ele>
				<time>2026-08-17T05:24:21Z</time>
			</trkpt>
			<trkpt lat="30.255022" lon="120.098832">
				<speed>0.000000</speed>
				<ele>174.000000</ele>
				<time>2026-08-17T05:24:22Z</time>
			</trkpt>
			<trkpt lat="30.255027" lon="120.098832">
				<speed>0.000000</speed>
				<ele>174.000000</ele>
				<time>2026-08-17T05:24:23Z</time>
			</trkpt>
			<trkpt lat="30.255032" lon="120.098831">
				<speed>0.000000</speed>
				<ele>174.000000</ele>
				<time>2026-08-17T05:24:24Z</time>
			</trkpt>
			<trkpt lat="30.255037" lon="120.098830">
				<speed>0.000000</speed>
				<ele>175.000000</ele>
				<time>2026-08-17T05:24:25Z</time>
			</trkpt>
			<trkpt lat="30.255052" lon="120.098829">
				<speed>0.000000</speed>
				<ele>175.000000</ele>
				<time>2026-08-17T05:24:26Z</time>
			</trkpt>
			<trkpt lat="30.255058" lon="120.098829">
				<speed>0.000000</speed>
				<ele>175.000000</ele>
				<time>2026-08-17T05:24:27Z</time>
			</trkpt>
			<trkpt lat="30.255063" lon="120.098828">
				<speed>0.000000</speed>
				<ele>175.000000</ele>
				<time>2026-08-17T05:24:28Z</time>
			</trkpt>
			<trkpt lat="30.255069" lon="120.098828">
				<speed>0.000000</speed>
				<ele>175.000000</ele>
				<time>2026-08-17T05:24:29Z</time>
			</trkpt>
			<trkpt lat="30.255085" lon="120.098830">
				<speed>0.000000</speed>
				<ele>175.000000</ele>
				<time>2026-08-17T05:24:30Z</time>
			</trkpt>
			<trkpt lat="30.255088" lon="120.098832">
				<speed>0.000000</speed>
				<ele>175.000000</ele>
				<time>2026-08-17T05:24:31Z</time>
			</trkpt>
			<trkpt lat="30.255092" lon="120.098834">
				<speed>0.000000</speed>
				<ele>175.000000</ele>
				<time>2026-08-17T05:24:32Z</time>
			</trkpt>
			<trkpt lat="30.255095" lon="120.098837">
				<speed>0.000000</speed>
				<ele>176.000000</ele>
				<time>2026-08-17T05:24:33Z</time>
			</trkpt>
			<trkpt lat="30.255097" lon="120.098846">
				<speed>0.000000</speed>
				<ele>176.000000</ele>
				<time>2026-08-17T05:24:34Z</time>
			</trkpt>
			<trkpt lat="30.255095" lon="120.098849">
				<speed>0.000000</speed>
				<ele>176.000000</ele>
				<time>2026-08-17T05:24:35Z</time>
			</trkpt>
			<trkpt lat="30.255092" lon="120.098853">
				<speed>0.000000</speed>
				<ele>176.000000</ele>
				<time>2026-08-17T05:24:36Z</time>
			</trkpt>
			<trkpt lat="30.255091" lon="120.098856">
				<speed>0.000000</speed>
				<ele>177.000000</ele>
				<time>2026-08-17T05:24:37Z</time>
			</trkpt>
			<trkpt lat="30.255080" lon="120.098867">
				<speed>0.000000</speed>
				<ele>177.000000</ele>
				<time>2026-08-17T05:24:38Z</time>
			</trkpt>
			<trkpt lat="30.255076" lon="120.098870">
				<speed>0.000000</speed>
				<ele>177.000000</ele>
				<time>2026-08-17T05:24:39Z</time>
			</trkpt>
			<trkpt lat="30.255072" lon="120.098873">
				<speed>0.000000</speed>
				<ele>177.000000</ele>
				<time>2026-08-17T05:24:40Z</time>
			</trkpt>
			<trkpt lat="30.255068" lon="120.098876">
				<speed>0.000000</speed>
				<ele>177.000000</ele>
				<time>2026-08-17T05:24:41Z</time>
			</trkpt>
			<trkpt lat="30.255056" lon="120.098887">
				<speed>0.000000</speed>
				<ele>177.000000</ele>
				<time>2026-08-17T05:24:42Z</time>
			</trkpt>
			<trkpt lat="30.255052" lon="120.098891">
				<speed>0.000000</speed>
				<ele>177.000000</ele>
				<time>2026-08-17T05:24:43Z</time>
			</trkpt>
			<trkpt lat="30.255048" lon="120.098896">
				<speed>0.000000</speed>
				<ele>177.000000</ele>
				<time>2026-08-17T05:24:44Z</time>
			</trkpt>
			<trkpt lat="30.255043" lon="120.098901">
				<speed>0.000000</speed>
				<ele>178.000000</ele>
				<time>2026-08-17T05:24:45Z</time>
			</trkpt>
			<trkpt lat="30.255031" lon="120.098918">
				<speed>0.000000</speed>
				<ele>178.000000</ele>
				<time>2026-08-17T05:24:46Z</time>
			</trkpt>
			<trkpt lat="30.255027" lon="120.098924">
				<speed>0.000000</speed>
				<ele>178.000000</ele>
				<time>2026-08-17T05:24:47Z</time>
			</trkpt>
			<trkpt lat="30.255022" lon="120.098931">
				<speed>0.000000</speed>
				<ele>178.000000</ele>
				<time>2026-08-17T05:24:48Z</time>
			</trkpt>
			<trkpt lat="30.255018" lon="120.098937">
				<speed>0.000000</speed>
				<ele>179.000000</ele>
				<time>2026-08-17T05:24:49Z</time>
			</trkpt>
			<trkpt lat="30.255007" lon="120.098958">
				<speed>0.000000</speed>
				<ele>179.000000</ele>
				<time>2026-08-17T05:24:50Z</time>
			</trkpt>
			<trkpt lat="30.255004" lon="120.098964">
				<speed>0.000000</speed>
				<ele>179.000000</ele>
				<time>2026-08-17T05:24:51Z</time>
			</trkpt>
			<trkpt lat="30.255000" lon="120.098971">
				<speed>0.000000</speed>
				<ele>179.000000</ele>
				<time>2026-08-17T05:24:52Z</time>
			</trkpt>
			<trkpt lat="30.254997" lon="120.098978">
				<speed>0.000000</speed>
				<ele>179.000000</ele>
				<time>2026-08-17T05:24:53Z</time>
			</trkpt>
			<trkpt lat="30.254989" lon="120.098995">
				<speed>0.000000</speed>
				<ele>179.000000</ele>
				<time>2026-08-17T05:24:54Z</time>
			</trkpt>
			<trkpt lat="30.255001" lon="120.099011">
				<speed>0.000000</speed>
				<ele>181.000000</ele>
				<time>2026-08-17T05:25:09Z</time>
			</trkpt>
			<trkpt lat="30.255017" lon="120.099027">
				<speed>0.000000</speed>
				<ele>181.000000</ele>
				<time>2026-08-17T05:25:10Z</time>
			</trkpt>
			<trkpt lat="30.255021" lon="120.099028">
				<speed>0.000000</speed>
				<ele>181.000000</ele>
				<time>2026-08-17T05:25:11Z</time>
			</trkpt>
			<trkpt lat="30.255026" lon="120.099030">
				<speed>0.000000</speed>
				<ele>181.000000</ele>
				<time>2026-08-17T05:25:12Z</time>
			</trkpt>
			<trkpt lat="30.255030" lon="120.099031">
				<speed>0.000000</speed>
				<ele>181.000000</ele>
				<time>2026-08-17T05:25:13Z</time>
			</trkpt>
			<trkpt lat="30.255043" lon="120.099029">
				<speed>0.000000</speed>
				<ele>181.000000</ele>
				<time>2026-08-17T05:25:14Z</time>
			</trkpt>
			<trkpt lat="30.255048" lon="120.099028">
				<speed>0.000000</speed>
				<ele>181.000000</ele>
				<time>2026-08-17T05:25:15Z</time>
			</trkpt>
			<trkpt lat="30.255052" lon="120.099027">
				<speed>0.000000</speed>
				<ele>181.000000</ele>
				<time>2026-08-17T05:25:16Z</time>
			</trkpt>
			<trkpt lat="30.255056" lon="120.099026">
				<speed>0.000000</speed>
				<ele>182.000000</ele>
				<time>2026-08-17T05:25:17Z</time>
			</trkpt>
			<trkpt lat="30.255068" lon="120.099024">
				<speed>0.000000</speed>
				<ele>182.000000</ele>
				<time>2026-08-17T05:25:18Z</time>
			</trkpt>
			<trkpt lat="30.255072" lon="120.099024">
				<speed>0.000000</speed>
				<ele>182.000000</ele>
				<time>2026-08-17T05:25:19Z</time>
			</trkpt>
			<trkpt lat="30.255075" lon="120.099024">
				<speed>0.000000</speed>
				<ele>182.000000</ele>
				<time>2026-08-17T05:25:20Z</time>
			</trkpt>
			<trkpt lat="30.255079" lon="120.099024">
				<speed>0.000000</speed>
				<ele>183.000000</ele>
				<time>2026-08-17T05:25:21Z</time>
			</trkpt>
			<trkpt lat="30.255085" lon="120.099022">
				<speed>0.000000</speed>
				<ele>183.000000</ele>
				<time>2026-08-17T05:25:22Z</time>
			</trkpt>
			<trkpt lat="30.255089" lon="120.099021">
				<speed>0.000000</speed>
				<ele>183.000000</ele>
				<time>2026-08-17T05:25:23Z</time>
			</trkpt>
			<trkpt lat="30.255094" lon="120.099021">
				<speed>0.000000</speed>
				<ele>183.000000</ele>
				<time>2026-08-17T05:25:24Z</time>
			</trkpt>
			<trkpt lat="30.255098" lon="120.099020">
				<speed>0.000000</speed>
				<ele>184.000000</ele>
				<time>2026-08-17T05:25:25Z</time>
			</trkpt>
			<trkpt lat="30.255111" lon="120.099019">
				<speed>0.000000</speed>
				<ele>184.000000</ele>
				<time>2026-08-17T05:25:26Z</time>
			</trkpt>
			<trkpt lat="30.255115" lon="120.099019">
				<speed>0.000000</speed>
				<ele>184.000000</ele>
				<time>2026-08-17T05:25:27Z</time>
			</trkpt>
			<trkpt lat="30.255120" lon="120.099019">
				<speed>0.000000</speed>
				<ele>184.000000</ele>
				<time>2026-08-17T05:25:28Z</time>
			</trkpt>
			<trkpt lat="30.255124" lon="120.099019">
				<speed>0.000000</speed>
				<ele>184.000000</ele>
				<time>2026-08-17T05:25:29Z</time>
			</trkpt>
			<trkpt lat="30.255138" lon="120.099018">
				<speed>0.000000</speed>
				<ele>184.000000</ele>
				<time>2026-08-17T05:25:30Z</time>
			</trkpt>
			<trkpt lat="30.255144" lon="120.099018">
				<speed>0.000000</speed>
				<ele>184.000000</ele>
				<time>2026-08-17T05:25:31Z</time>
			</trkpt>
			<trkpt lat="30.255149" lon="120.099017">
				<speed>0.000000</speed>
				<ele>184.000000</ele>
				<time>2026-08-17T05:25:32Z</time>
			</trkpt>
			<trkpt lat="30.255154" lon="120.099017">
				<speed>0.000000</speed>
				<ele>185.000000</ele>
				<time>2026-08-17T05:25:33Z</time>
			</trkpt>
			<trkpt lat="30.255159" lon="120.099017">
				<speed>0.000000</speed>
				<ele>185.000000</ele>
				<time>2026-08-17T05:25:34Z</time>
			</trkpt>
			<trkpt lat="30.255164" lon="120.099016">
				<speed>0.000000</speed>
				<ele>185.000000</ele>
				<time>2026-08-17T05:25:35Z</time>
			</trkpt>
			<trkpt lat="30.255169" lon="120.099016">
				<speed>0.000000</speed>
				<ele>185.000000</ele>
				<time>2026-08-17T05:25:36Z</time>
			</trkpt>
			<trkpt lat="30.255173" lon="120.099016">
				<speed>0.000000</speed>
				<ele>186.000000</ele>
				<time>2026-08-17T05:25:37Z</time>
			</trkpt>
			<trkpt lat="30.255176" lon="120.099015">
				<speed>0.000000</speed>
				<ele>186.000000</ele>
				<time>2026-08-17T05:25:38Z</time>
			</trkpt>
			<trkpt lat="30.255179" lon="120.099015">
				<speed>0.000000</speed>
				<ele>186.000000</ele>
				<time>2026-08-17T05:25:39Z</time>
			</trkpt>
			<trkpt lat="30.255193" lon="120.099017">
				<speed>0.000000</speed>
				<ele>186.000000</ele>
				<time>2026-08-17T05:25:40Z</time>
			</trkpt>
			<trkpt lat="30.255195" lon="120.099020">
				<speed>0.000000</speed>
				<ele>186.000000</ele>
				<time>2026-08-17T05:25:41Z</time>
			</trkpt>
			<trkpt lat="30.255197" lon="120.099022">
				<speed>0.000000</speed>
				<ele>186.000000</ele>
				<time>2026-08-17T05:25:42Z</time>
			</trkpt>
			<trkpt lat="30.255199" lon="120.099025">
				<speed>0.000000</speed>
				<ele>186.000000</ele>
				<time>2026-08-17T05:25:43Z</time>
			</trkpt>
			<trkpt lat="30.255198" lon="120.099036">
				<speed>0.000000</speed>
				<ele>186.000000</ele>
				<time>2026-08-17T05:25:44Z</time>
			</trkpt>
			<trkpt lat="30.255197" lon="120.099040">
				<speed>0.000000</speed>
				<ele>187.000000</ele>
				<time>2026-08-17T05:25:45Z</time>
			</trkpt>
			<trkpt lat="30.255195" lon="120.099043">
				<speed>0.000000</speed>
				<ele>187.000000</ele>
				<time>2026-08-17T05:25:46Z</time>
			</trkpt>
			<trkpt lat="30.255194" lon="120.099047">
				<speed>0.000000</speed>
				<ele>187.000000</ele>
				<time>2026-08-17T05:25:47Z</time>
			</trkpt>
			<trkpt lat="30.255187" lon="120.099060">
				<speed>0.000000</speed>
				<ele>187.000000</ele>
				<time>2026-08-17T05:25:48Z</time>
			</trkpt>
			<trkpt lat="30.255184" lon="120.099064">
				<speed>0.000000</speed>
				<ele>187.000000</ele>
				<time>2026-08-17T05:25:49Z</time>
			</trkpt>
			<trkpt lat="30.255181" lon="120.099068">
				<speed>0.000000</speed>
				<ele>187.000000</ele>
				<time>2026-08-17T05:25:50Z</time>
			</trkpt>
			<trkpt lat="30.255178" lon="120.099072">
				<speed>0.000000</speed>
				<ele>187.000000</ele>
				<time>2026-08-17T05:25:51Z</time>
			</trkpt>
			<trkpt lat="30.255173" lon="120.099080">
				<speed>0.000000</speed>
				<ele>187.000000</ele>
				<time>2026-08-17T05:25:52Z</time>
			</trkpt>
			<trkpt lat="30.255171" lon="120.099082">
				<speed>0.000000</speed>
				<ele>188.000000</ele>
				<time>2026-08-17T05:25:53Z</time>
			</trkpt>
			<trkpt lat="30.255169" lon="120.099085">
				<speed>0.000000</speed>
				<ele>188.000000</ele>
				<time>2026-08-17T05:25:54Z</time>
			</trkpt>
			<trkpt lat="30.255167" lon="120.099087">
				<speed>0.000000</speed>
				<ele>188.000000</ele>
				<time>2026-08-17T05:25:55Z</time>
			</trkpt>
			<trkpt lat="30.255158" lon="120.099098">
				<speed>0.000000</speed>
				<ele>188.000000</ele>
				<time>2026-08-17T05:25:56Z</time>
			</trkpt>
			<trkpt lat="30.255155" lon="120.099111">
				<speed>0.000000</speed>
				<ele>189.000000</ele>
				<time>2026-08-17T05:26:03Z</time>
			</trkpt>
			<trkpt lat="30.255162" lon="120.099121">
				<speed>0.000000</speed>
				<ele>189.000000</ele>
				<time>2026-08-17T05:26:04Z</time>
			</trkpt>
			<trkpt lat="30.255165" lon="120.099123">
				<speed>0.000000</speed>
				<ele>190.000000</ele>
				<time>2026-08-17T05:26:05Z</time>
			</trkpt>
			<trkpt lat="30.255168" lon="120.099124">
				<speed>0.000000</speed>
				<ele>190.000000</ele>
				<time>2026-08-17T05:26:06Z</time>
			</trkpt>
			<trkpt lat="30.255171" lon="120.099126">
				<speed>0.000000</speed>
				<ele>190.000000</ele>
				<time>2026-08-17T05:26:07Z</time>
			</trkpt>
			<trkpt lat="30.255183" lon="120.099125">
				<speed>0.000000</speed>
				<ele>190.000000</ele>
				<time>2026-08-17T05:26:08Z</time>
			</trkpt>
			<trkpt lat="30.255185" lon="120.099125">
				<speed>0.000000</speed>
				<ele>191.000000</ele>
				<time>2026-08-17T05:26:09Z</time>
			</trkpt>
			<trkpt lat="30.255188" lon="120.099124">
				<speed>0.000000</speed>
				<ele>191.000000</ele>
				<time>2026-08-17T05:26:10Z</time>
			</trkpt>
			<trkpt lat="30.255191" lon="120.099123">
				<speed>0.000000</speed>
				<ele>191.000000</ele>
				<time>2026-08-17T05:26:11Z</time>
			</trkpt>
			<trkpt lat="30.255203" lon="120.099119">
				<speed>0.000000</speed>
				<ele>191.000000</ele>
				<time>2026-08-17T05:26:12Z</time>
			</trkpt>
			<trkpt lat="30.255206" lon="120.099118">
				<speed>0.000000</speed>
				<ele>192.000000</ele>
				<time>2026-08-17T05:26:13Z</time>
			</trkpt>
			<trkpt lat="30.255210" lon="120.099117">
				<speed>0.000000</speed>
				<ele>192.000000</ele>
				<time>2026-08-17T05:26:14Z</time>
			</trkpt>
			<trkpt lat="30.255214" lon="120.099116">
				<speed>0.000000</speed>
				<ele>192.000000</ele>
				<time>2026-08-17T05:26:15Z</time>
			</trkpt>
			<trkpt lat="30.255224" lon="120.099114">
				<speed>0.000000</speed>
				<ele>192.000000</ele>
				<time>2026-08-17T05:26:16Z</time>
			</trkpt>
			<trkpt lat="30.255231" lon="120.099119">
				<speed>0.000000</speed>
				<ele>193.000000</ele>
				<time>2026-08-17T05:26:27Z</time>
			</trkpt>
			<trkpt lat="30.255236" lon="120.099128">
				<speed>0.000000</speed>
				<ele>193.000000</ele>
				<time>2026-08-17T05:26:28Z</time>
			</trkpt>
			<trkpt lat="30.255235" lon="120.099130">
				<speed>0.000000</speed>
				<ele>194.000000</ele>
				<time>2026-08-17T05:26:29Z</time>
			</trkpt>
			<trkpt lat="30.255235" lon="120.099133">
				<speed>0.000000</speed>
				<ele>194.000000</ele>
				<time>2026-08-17T05:26:30Z</time>
			</trkpt>
			<trkpt lat="30.255234" lon="120.099136">
				<speed>0.000000</speed>
				<ele>194.000000</ele>
				<time>2026-08-17T05:26:31Z</time>
			</trkpt>
			<trkpt lat="30.255229" lon="120.099141">
				<speed>0.000000</speed>
				<ele>194.000000</ele>
				<time>2026-08-17T05:26:32Z</time>
			</trkpt>
			<trkpt lat="30.255225" lon="120.099143">
				<speed>0.000000</speed>
				<ele>194.000000</ele>
				<time>2026-08-17T05:26:33Z</time>
			</trkpt>
			<trkpt lat="30.255222" lon="120.099146">
				<speed>0.000000</speed>
				<ele>194.000000</ele>
				<time>2026-08-17T05:26:34Z</time>
			</trkpt>
			<trkpt lat="30.255219" lon="120.099148">
				<speed>0.000000</speed>
				<ele>194.000000</ele>
				<time>2026-08-17T05:26:35Z</time>
			</trkpt>
			<trkpt lat="30.255209" lon="120.099155">
				<speed>0.000000</speed>
				<ele>194.000000</ele>
				<time>2026-08-17T05:26:36Z</time>
			</trkpt>
			<trkpt lat="30.255208" lon="120.099157">
				<speed>0.000000</speed>
				<ele>194.000000</ele>
				<time>2026-08-17T05:26:37Z</time>
			</trkpt>
			<trkpt lat="30.255206" lon="120.099159">
				<speed>0.000000</speed>
				<ele>194.000000</ele>
				<time>2026-08-17T05:26:38Z</time>
			</trkpt>
			<trkpt lat="30.255205" lon="120.099160">
				<speed>0.000000</speed>
				<ele>194.000000</ele>
				<time>2026-08-17T05:26:39Z</time>
			</trkpt>
			<trkpt lat="30.255205" lon="120.099168">
				<speed>0.000000</speed>
				<ele>194.000000</ele>
				<time>2026-08-17T05:26:40Z</time>
			</trkpt>
			<trkpt lat="30.255207" lon="120.099170">
				<speed>0.000000</speed>
				<ele>195.000000</ele>
				<time>2026-08-17T05:26:41Z</time>
			</trkpt>
			<trkpt lat="30.255209" lon="120.099172">
				<speed>0.000000</speed>
				<ele>195.000000</ele>
				<time>2026-08-17T05:26:42Z</time>
			</trkpt>
			<trkpt lat="30.255211" lon="120.099174">
				<speed>0.000000</speed>
				<ele>195.000000</ele>
				<time>2026-08-17T05:26:43Z</time>
			</trkpt>
			<trkpt lat="30.255219" lon="120.099178">
				<speed>0.000000</speed>
				<ele>195.000000</ele>
				<time>2026-08-17T05:26:44Z</time>
			</trkpt>
			<trkpt lat="30.255223" lon="120.099178">
				<speed>0.000000</speed>
				<ele>195.000000</ele>
				<time>2026-08-17T05:26:45Z</time>
			</trkpt>
			<trkpt lat="30.255226" lon="120.099179">
				<speed>0.000000</speed>
				<ele>195.000000</ele>
				<time>2026-08-17T05:26:46Z</time>
			</trkpt>
			<trkpt lat="30.255230" lon="120.099179">
				<speed>0.000000</speed>
				<ele>195.000000</ele>
				<time>2026-08-17T05:26:47Z</time>
			</trkpt>
			<trkpt lat="30.255240" lon="120.099178">
				<speed>0.000000</speed>
				<ele>195.000000</ele>
				<time>2026-08-17T05:26:48Z</time>
			</trkpt>
			<trkpt lat="30.255244" lon="120.099176">
				<speed>0.000000</speed>
				<ele>196.000000</ele>
				<time>2026-08-17T05:26:49Z</time>
			</trkpt>
			<trkpt lat="30.255248" lon="120.099175">
				<speed>0.000000</speed>
				<ele>196.000000</ele>
				<time>2026-08-17T05:26:50Z</time>
			</trkpt>
			<trkpt lat="30.255252" lon="120.099174">
				<speed>0.000000</speed>
				<ele>196.000000</ele>
				<time>2026-08-17T05:26:51Z</time>
			</trkpt>
			<trkpt lat="30.255266" lon="120.099171">
				<speed>0.000000</speed>
				<ele>196.000000</ele>
				<time>2026-08-17T05:26:52Z</time>
			</trkpt>
			<trkpt lat="30.255269" lon="120.099171">
				<speed>0.000000</speed>
				<ele>197.000000</ele>
				<time>2026-08-17T05:26:53Z</time>
			</trkpt>
			<trkpt lat="30.255273" lon="120.099171">
				<speed>0.000000</speed>
				<ele>197.000000</ele>
				<time>2026-08-17T05:26:54Z</time>
			</trkpt>
			<trkpt lat="30.255277" lon="120.099170">
				<speed>0.000000</speed>
				<ele>197.000000</ele>
				<time>2026-08-17T05:26:55Z</time>
			</trkpt>
			<trkpt lat="30.255280" lon="120.099170">
				<speed>0.000000</speed>
				<ele>197.000000</ele>
				<time>2026-08-17T05:26:56Z</time>
			</trkpt>
			<trkpt lat="30.255294" lon="120.099169">
				<speed>0.000000</speed>
				<ele>197.000000</ele>
				<time>2026-08-17T05:26:57Z</time>
			</trkpt>
			<trkpt lat="30.255298" lon="120.099168">
				<speed>0.000000</speed>
				<ele>197.000000</ele>
				<time>2026-08-17T05:26:58Z</time>
			</trkpt>
			<trkpt lat="30.255302" lon="120.099167">
				<speed>0.000000</speed>
				<ele>197.000000</ele>
				<time>2026-08-17T05:26:59Z</time>
			</trkpt>
			<trkpt lat="30.255307" lon="120.099167">
				<speed>0.000000</speed>
				<ele>197.000000</ele>
				<time>2026-08-17T05:27:00Z</time>
			</trkpt>
			<trkpt lat="30.255319" lon="120.099164">
				<speed>0.000000</speed>
				<ele>198.000000</ele>
				<time>2026-08-17T05:27:01Z</time>
			</trkpt>
			<trkpt lat="30.255323" lon="120.099163">
				<speed>0.000000</speed>
				<ele>198.000000</ele>
				<time>2026-08-17T05:27:02Z</time>
			</trkpt>
			<trkpt lat="30.255327" lon="120.099162">
				<speed>0.000000</speed>
				<ele>198.000000</ele>
				<time>2026-08-17T05:27:03Z</time>
			</trkpt>
			<trkpt lat="30.255330" lon="120.099161">
				<speed>0.000000</speed>
				<ele>198.000000</ele>
				<time>2026-08-17T05:27:04Z</time>
			</trkpt>
			<trkpt lat="30.255343" lon="120.099158">
				<speed>0.000000</speed>
				<ele>199.000000</ele>
				<time>2026-08-17T05:27:05Z</time>
			</trkpt>
			<trkpt lat="30.255347" lon="120.099158">
				<speed>0.000000</speed>
				<ele>199.000000</ele>
				<time>2026-08-17T05:27:06Z</time>
			</trkpt>
			<trkpt lat="30.255351" lon="120.099158">
				<speed>0.000000</speed>
				<ele>199.000000</ele>
				<time>2026-08-17T05:27:07Z</time>
			</trkpt>
			<trkpt lat="30.255356" lon="120.099158">
				<speed>0.000000</speed>
				<ele>199.000000</ele>
				<time>2026-08-17T05:27:08Z</time>
			</trkpt>
			<trkpt lat="30.255368" lon="120.099157">
				<speed>0.000000</speed>
				<ele>199.000000</ele>
				<time>2026-08-17T05:27:09Z</time>
			</trkpt>
			<trkpt lat="30.255372" lon="120.099158">
				<speed>0.000000</speed>
				<ele>199.000000</ele>
				<time>2026-08-17T05:27:10Z</time>
			</trkpt>
			<trkpt lat="30.255377" lon="120.099158">
				<speed>0.000000</speed>
				<ele>199.000000</ele>
				<time>2026-08-17T05:27:11Z</time>
			</trkpt>
			<trkpt lat="30.255381" lon="120.099158">
				<speed>0.000000</speed>
				<ele>199.000000</ele>
				<time>2026-08-17T05:27:12Z</time>
			</trkpt>
			<trkpt lat="30.255389" lon="120.099159">
				<speed>0.000000</speed>
				<ele>200.000000</ele>
				<time>2026-08-17T05:27:13Z</time>
			</trkpt>
			<trkpt lat="30.255393" lon="120.099160">
				<speed>0.000000</speed>
				<ele>200.000000</ele>
				<time>2026-08-17T05:27:14Z</time>
			</trkpt>
			<trkpt lat="30.255398" lon="120.099161">
				<speed>0.000000</speed>
				<ele>200.000000</ele>
				<time>2026-08-17T05:27:15Z</time>
			</trkpt>
			<trkpt lat="30.255403" lon="120.099162">
				<speed>0.000000</speed>
				<ele>200.000000</ele>
				<time>2026-08-17T05:27:16Z</time>
			</trkpt>
			<trkpt lat="30.255416" lon="120.099166">
				<speed>0.000000</speed>
				<ele>201.000000</ele>
				<time>2026-08-17T05:27:17Z</time>
			</trkpt>
			<trkpt lat="30.255419" lon="120.099167">
				<speed>0.000000</speed>
				<ele>201.000000</ele>
				<time>2026-08-17T05:27:18Z</time>
			</trkpt>
			<trkpt lat="30.255421" lon="120.099167">
				<speed>0.000000</speed>
				<ele>201.000000</ele>
				<time>2026-08-17T05:27:19Z</time>
			</trkpt>
			<trkpt lat="30.255423" lon="120.099168">
				<speed>0.000000</speed>
				<ele>201.000000</ele>
				<time>2026-08-17T05:27:20Z</time>
			</trkpt>
			<trkpt lat="30.255437" lon="120.099172">
				<speed>0.000000</speed>
				<ele>201.000000</ele>
				<time>2026-08-17T05:27:21Z</time>
			</trkpt>
			<trkpt lat="30.255442" lon="120.099173">
				<speed>0.000000</speed>
				<ele>201.000000</ele>
				<time>2026-08-17T05:27:22Z</time>
			</trkpt>
			<trkpt lat="30.255446" lon="120.099175">
				<speed>0.000000</speed>
				<ele>201.000000</ele>
				<time>2026-08-17T05:27:23Z</time>
			</trkpt>
			<trkpt lat="30.255451" lon="120.099176">
				<speed>0.000000</speed>
				<ele>201.000000</ele>
				<time>2026-08-17T05:27:24Z</time>
			</trkpt>
			<trkpt lat="30.255462" lon="120.099178">
				<speed>0.000000</speed>
				<ele>202.000000</ele>
				<time>2026-08-17T05:27:25Z</time>
			</trkpt>
			<trkpt lat="30.255466" lon="120.099178">
				<speed>0.000000</speed>
				<ele>202.000000</ele>
				<time>2026-08-17T05:27:26Z</time>
			</trkpt>
			<trkpt lat="30.255470" lon="120.099178">
				<speed>0.000000</speed>
				<ele>202.000000</ele>
				<time>2026-08-17T05:27:27Z</time>
			</trkpt>
			<trkpt lat="30.255474" lon="120.099178">
				<speed>0.000000</speed>
				<ele>202.000000</ele>
				<time>2026-08-17T05:27:28Z</time>
			</trkpt>
			<trkpt lat="30.255488" lon="120.099176">
				<speed>0.000000</speed>
				<ele>202.000000</ele>
				<time>2026-08-17T05:27:29Z</time>
			</trkpt>
			<trkpt lat="30.255493" lon="120.099176">
				<speed>0.000000</speed>
				<ele>202.000000</ele>
				<time>2026-08-17T05:27:30Z</time>
			</trkpt>
			<trkpt lat="30.255498" lon="120.099175">
				<speed>0.000000</speed>
				<ele>202.000000</ele>
				<time>2026-08-17T05:27:31Z</time>
			</trkpt>
			<trkpt lat="30.255503" lon="120.099175">
				<speed>0.000000</speed>
				<ele>202.000000</ele>
				<time>2026-08-17T05:27:32Z</time>
			</trkpt>
			<trkpt lat="30.255517" lon="120.099173">
				<speed>0.000000</speed>
				<ele>203.000000</ele>
				<time>2026-08-17T05:27:33Z</time>
			</trkpt>
			<trkpt lat="30.255521" lon="120.099173">
				<speed>0.000000</speed>
				<ele>203.000000</ele>
				<time>2026-08-17T05:27:34Z</time>
			</trkpt>
			<trkpt lat="30.255526" lon="120.099172">
				<speed>0.000000</speed>
				<ele>203.000000</ele>
				<time>2026-08-17T05:27:35Z</time>
			</trkpt>
			<trkpt lat="30.255531" lon="120.099172">
				<speed>0.000000</speed>
				<ele>203.000000</ele>
				<time>2026-08-17T05:27:36Z</time>
			</trkpt>
			<trkpt lat="30.255547" lon="120.099172">
				<speed>0.000000</speed>
				<ele>204.000000</ele>
				<time>2026-08-17T05:27:37Z</time>
			</trkpt>
			<trkpt lat="30.255553" lon="120.099173">
				<speed>0.000000</speed>
				<ele>204.000000</ele>
				<time>2026-08-17T05:27:38Z</time>
			</trkpt>
			<trkpt lat="30.255559" lon="120.099174">
				<speed>0.000000</speed>
				<ele>204.000000</ele>
				<time>2026-08-17T05:27:39Z</time>
			</trkpt>
			<trkpt lat="30.255565" lon="120.099175">
				<speed>0.000000</speed>
				<ele>204.000000</ele>
				<time>2026-08-17T05:27:40Z</time>
			</trkpt>
			<trkpt lat="30.255578" lon="120.099185">
				<speed>0.000000</speed>
				<ele>204.000000</ele>
				<time>2026-08-17T05:27:41Z</time>
			</trkpt>
			<trkpt lat="30.255581" lon="120.099189">
				<speed>0.000000</speed>
				<ele>204.000000</ele>
				<time>2026-08-17T05:27:42Z</time>
			</trkpt>
			<trkpt lat="30.255583" lon="120.099193">
				<speed>0.000000</speed>
				<ele>204.000000</ele>
				<time>2026-08-17T05:27:43Z</time>
			</trkpt>
			<trkpt lat="30.255586" lon="120.099197">
				<speed>0.000000</speed>
				<ele>204.000000</ele>
				<time>2026-08-17T05:27:44Z</time>
			</trkpt>
			<trkpt lat="30.255589" lon="120.099210">
				<speed>0.000000</speed>
				<ele>205.000000</ele>
				<time>2026-08-17T05:27:45Z</time>
			</trkpt>
			<trkpt lat="30.255589" lon="120.099215">
				<speed>0.000000</speed>
				<ele>205.000000</ele>
				<time>2026-08-17T05:27:46Z</time>
			</trkpt>
			<trkpt lat="30.255589" lon="120.099219">
				<speed>0.000000</speed>
				<ele>205.000000</ele>
				<time>2026-08-17T05:27:47Z</time>
			</trkpt>
			<trkpt lat="30.255589" lon="120.099224">
				<speed>0.000000</speed>
				<ele>205.000000</ele>
				<time>2026-08-17T05:27:48Z</time>
			</trkpt>
			<trkpt lat="30.255585" lon="120.099237">
				<speed>0.000000</speed>
				<ele>205.000000</ele>
				<time>2026-08-17T05:27:49Z</time>
			</trkpt>
			<trkpt lat="30.255583" lon="120.099241">
				<speed>0.000000</speed>
				<ele>205.000000</ele>
				<time>2026-08-17T05:27:50Z</time>
			</trkpt>
			<trkpt lat="30.255580" lon="120.099245">
				<speed>0.000000</speed>
				<ele>205.000000</ele>
				<time>2026-08-17T05:27:51Z</time>
			</trkpt>
			<trkpt lat="30.255578" lon="120.099248">
				<speed>0.000000</speed>
				<ele>205.000000</ele>
				<time>2026-08-17T05:27:52Z</time>
			</trkpt>
			<trkpt lat="30.255568" lon="120.099257">
				<speed>0.000000</speed>
				<ele>205.000000</ele>
				<time>2026-08-17T05:27:53Z</time>
			</trkpt>
			<trkpt lat="30.255565" lon="120.099260">
				<speed>0.000000</speed>
				<ele>205.000000</ele>
				<time>2026-08-17T05:27:54Z</time>
			</trkpt>
			<trkpt lat="30.255562" lon="120.099262">
				<speed>0.000000</speed>
				<ele>205.000000</ele>
				<time>2026-08-17T05:27:55Z</time>
			</trkpt>
			<trkpt lat="30.255558" lon="120.099265">
				<speed>0.000000</speed>
				<ele>205.000000</ele>
				<time>2026-08-17T05:27:56Z</time>
			</trkpt>
			<trkpt lat="30.255550" lon="120.099271">
				<speed>0.000000</speed>
				<ele>206.000000</ele>
				<time>2026-08-17T05:27:57Z</time>
			</trkpt>
			<trkpt lat="30.255548" lon="120.099274">
				<speed>0.000000</speed>
				<ele>206.000000</ele>
				<time>2026-08-17T05:27:58Z</time>
			</trkpt>
			<trkpt lat="30.255545" lon="120.099276">
				<speed>0.000000</speed>
				<ele>206.000000</ele>
				<time>2026-08-17T05:27:59Z</time>
			</trkpt>
			<trkpt lat="30.255542" lon="120.099279">
				<speed>0.000000</speed>
				<ele>206.000000</ele>
				<time>2026-08-17T05:28:00Z</time>
			</trkpt>
			<trkpt lat="30.255534" lon="120.099288">
				<speed>0.000000</speed>
				<ele>207.000000</ele>
				<time>2026-08-17T05:28:01Z</time>
			</trkpt>
			<trkpt lat="30.255531" lon="120.099291">
				<speed>0.000000</speed>
				<ele>207.000000</ele>
				<time>2026-08-17T05:28:02Z</time>
			</trkpt>
			<trkpt lat="30.255527" lon="120.099295">
				<speed>0.000000</speed>
				<ele>207.000000</ele>
				<time>2026-08-17T05:28:03Z</time>
			</trkpt>
			<trkpt lat="30.255524" lon="120.099298">
				<speed>0.000000</speed>
				<ele>207.000000</ele>
				<time>2026-08-17T05:28:04Z</time>
			</trkpt>
			<trkpt lat="30.255512" lon="120.099307">
				<speed>0.000000</speed>
				<ele>208.000000</ele>
				<time>2026-08-17T05:28:05Z</time>
			</trkpt>
			<trkpt lat="30.255509" lon="120.099310">
				<speed>0.000000</speed>
				<ele>208.000000</ele>
				<time>2026-08-17T05:28:06Z</time>
			</trkpt>
			<trkpt lat="30.255506" lon="120.099313">
				<speed>0.000000</speed>
				<ele>208.000000</ele>
				<time>2026-08-17T05:28:07Z</time>
			</trkpt>
			<trkpt lat="30.255503" lon="120.099315">
				<speed>0.000000</speed>
				<ele>208.000000</ele>
				<time>2026-08-17T05:28:08Z</time>
			</trkpt>
			<trkpt lat="30.255499" lon="120.099318">
				<speed>0.000000</speed>
				<ele>208.000000</ele>
				<time>2026-08-17T05:28:09Z</time>
			</trkpt>
			<trkpt lat="30.255488" lon="120.099328">
				<speed>0.000000</speed>
				<ele>208.000000</ele>
				<time>2026-08-17T05:28:10Z</time>
			</trkpt>
			<trkpt lat="30.255484" lon="120.099330">
				<speed>0.000000</speed>
				<ele>208.000000</ele>
				<time>2026-08-17T05:28:11Z</time>
			</trkpt>
			<trkpt lat="30.255481" lon="120.099333">
				<speed>0.000000</speed>
				<ele>208.000000</ele>
				<time>2026-08-17T05:28:12Z</time>
			</trkpt>
			<trkpt lat="30.255477" lon="120.099335">
				<speed>0.000000</speed>
				<ele>209.000000</ele>
				<time>2026-08-17T05:28:13Z</time>
			</trkpt>
			<trkpt lat="30.255465" lon="120.099341">
				<speed>0.000000</speed>
				<ele>209.000000</ele>
				<time>2026-08-17T05:28:14Z</time>
			</trkpt>
			<trkpt lat="30.255460" lon="120.099343">
				<speed>0.000000</speed>
				<ele>209.000000</ele>
				<time>2026-08-17T05:28:15Z</time>
			</trkpt>
			<trkpt lat="30.255456" lon="120.099344">
				<speed>0.000000</speed>
				<ele>209.000000</ele>
				<time>2026-08-17T05:28:16Z</time>
			</trkpt>
			<trkpt lat="30.255452" lon="120.099346">
				<speed>0.000000</speed>
				<ele>209.000000</ele>
				<time>2026-08-17T05:28:17Z</time>
			</trkpt>
			<trkpt lat="30.255439" lon="120.099354">
				<speed>0.000000</speed>
				<ele>209.000000</ele>
				<time>2026-08-17T05:28:18Z</time>
			</trkpt>
			<trkpt lat="30.255435" lon="120.099357">
				<speed>0.000000</speed>
				<ele>209.000000</ele>
				<time>2026-08-17T05:28:19Z</time>
			</trkpt>
			<trkpt lat="30.255432" lon="120.099360">
				<speed>0.000000</speed>
				<ele>209.000000</ele>
				<time>2026-08-17T05:28:20Z</time>
			</trkpt>
			<trkpt lat="30.255428" lon="120.099364">
				<speed>0.000000</speed>
				<ele>210.000000</ele>
				<time>2026-08-17T05:28:21Z</time>
			</trkpt>
			<trkpt lat="30.255417" lon="120.099373">
				<speed>0.000000</speed>
				<ele>210.000000</ele>
				<time>2026-08-17T05:28:22Z</time>
			</trkpt>
			<trkpt lat="30.255413" lon="120.099375">
				<speed>0.000000</speed>
				<ele>210.000000</ele>
				<time>2026-08-17T05:28:23Z</time>
			</trkpt>
			<trkpt lat="30.255409" lon="120.099378">
				<speed>0.000000</speed>
				<ele>210.000000</ele>
				<time>2026-08-17T05:28:24Z</time>
			</trkpt>
			<trkpt lat="30.255405" lon="120.099381">
				<speed>0.000000</speed>
				<ele>210.000000</ele>
				<time>2026-08-17T05:28:25Z</time>
			</trkpt>
			<trkpt lat="30.255393" lon="120.099387">
				<speed>0.000000</speed>
				<ele>210.000000</ele>
				<time>2026-08-17T05:28:26Z</time>
			</trkpt>
			<trkpt lat="30.255388" lon="120.099389">
				<speed>0.000000</speed>
				<ele>210.000000</ele>
				<time>2026-08-17T05:28:27Z</time>
			</trkpt>
			<trkpt lat="30.255384" lon="120.099390">
				<speed>0.000000</speed>
				<ele>210.000000</ele>
				<time>2026-08-17T05:28:28Z</time>
			</trkpt>
			<trkpt lat="30.255380" lon="120.099392">
				<speed>0.000000</speed>
				<ele>211.000000</ele>
				<time>2026-08-17T05:28:29Z</time>
			</trkpt>
			<trkpt lat="30.255368" lon="120.099396">
				<speed>0.000000</speed>
				<ele>211.000000</ele>
				<time>2026-08-17T05:28:30Z</time>
			</trkpt>
			<trkpt lat="30.255364" lon="120.099399">
				<speed>0.000000</speed>
				<ele>211.000000</ele>
				<time>2026-08-17T05:28:31Z</time>
			</trkpt>
			<trkpt lat="30.255361" lon="120.099401">
				<speed>0.000000</speed>
				<ele>211.000000</ele>
				<time>2026-08-17T05:28:32Z</time>
			</trkpt>
			<trkpt lat="30.255357" lon="120.099404">
				<speed>0.000000</speed>
				<ele>212.000000</ele>
				<time>2026-08-17T05:28:33Z</time>
			</trkpt>
			<trkpt lat="30.255347" lon="120.099416">
				<speed>0.000000</speed>
				<ele>212.000000</ele>
				<time>2026-08-17T05:28:34Z</time>
			</trkpt>
			<trkpt lat="30.255344" lon="120.099420">
				<speed>0.000000</speed>
				<ele>212.000000</ele>
				<time>2026-08-17T05:28:35Z</time>
			</trkpt>
			<trkpt lat="30.255340" lon="120.099425">
				<speed>0.000000</speed>
				<ele>212.000000</ele>
				<time>2026-08-17T05:28:36Z</time>
			</trkpt>
			<trkpt lat="30.255337" lon="120.099430">
				<speed>0.000000</speed>
				<ele>212.000000</ele>
				<time>2026-08-17T05:28:37Z</time>
			</trkpt>
			<trkpt lat="30.255327" lon="120.099445">
				<speed>0.000000</speed>
				<ele>212.000000</ele>
				<time>2026-08-17T05:28:38Z</time>
			</trkpt>
			<trkpt lat="30.255324" lon="120.099449">
				<speed>0.000000</speed>
				<ele>212.000000</ele>
				<time>2026-08-17T05:28:39Z</time>
			</trkpt>
			<trkpt lat="30.255321" lon="120.099454">
				<speed>0.000000</speed>
				<ele>212.000000</ele>
				<time>2026-08-17T05:28:40Z</time>
			</trkpt>
			<trkpt lat="30.255318" lon="120.099458">
				<speed>0.000000</speed>
				<ele>213.000000</ele>
				<time>2026-08-17T05:28:41Z</time>
			</trkpt>
			<trkpt lat="30.255308" lon="120.099470">
				<speed>0.000000</speed>
				<ele>213.000000</ele>
				<time>2026-08-17T05:28:42Z</time>
			</trkpt>
			<trkpt lat="30.255305" lon="120.099473">
				<speed>0.000000</speed>
				<ele>213.000000</ele>
				<time>2026-08-17T05:28:43Z</time>
			</trkpt>
			<trkpt lat="30.255301" lon="120.099477">
				<speed>0.000000</speed>
				<ele>213.000000</ele>
				<time>2026-08-17T05:28:44Z</time>
			</trkpt>
			<trkpt lat="30.255298" lon="120.099480">
				<speed>0.000000</speed>
				<ele>214.000000</ele>
				<time>2026-08-17T05:28:45Z</time>
			</trkpt>
			<trkpt lat="30.255288" lon="120.099491">
				<speed>0.000000</speed>
				<ele>214.000000</ele>
				<time>2026-08-17T05:28:46Z</time>
			</trkpt>
			<trkpt lat="30.255285" lon="120.099493">
				<speed>0.000000</speed>
				<ele>214.000000</ele>
				<time>2026-08-17T05:28:47Z</time>
			</trkpt>
			<trkpt lat="30.255283" lon="120.099495">
				<speed>0.000000</speed>
				<ele>214.000000</ele>
				<time>2026-08-17T05:28:48Z</time>
			</trkpt>
			<trkpt lat="30.255281" lon="120.099497">
				<speed>0.000000</speed>
				<ele>215.000000</ele>
				<time>2026-08-17T05:28:49Z</time>
			</trkpt>
			<trkpt lat="30.255268" lon="120.099505">
				<speed>0.000000</speed>
				<ele>215.000000</ele>
				<time>2026-08-17T05:28:50Z</time>
			</trkpt>
			<trkpt lat="30.255263" lon="120.099508">
				<speed>0.000000</speed>
				<ele>215.000000</ele>
				<time>2026-08-17T05:28:51Z</time>
			</trkpt>
			<trkpt lat="30.255259" lon="120.099511">
				<speed>0.000000</speed>
				<ele>215.000000</ele>
				<time>2026-08-17T05:28:52Z</time>
			</trkpt>
			<trkpt lat="30.255254" lon="120.099514">
				<speed>0.000000</speed>
				<ele>216.000000</ele>
				<time>2026-08-17T05:28:53Z</time>
			</trkpt>
			<trkpt lat="30.255237" lon="120.099522">
				<speed>0.000000</speed>
				<ele>216.000000</ele>
				<time>2026-08-17T05:28:54Z</time>
			</trkpt>
			<trkpt lat="30.255232" lon="120.099525">
				<speed>0.000000</speed>
				<ele>216.000000</ele>
				<time>2026-08-17T05:28:55Z</time>
			</trkpt>
			<trkpt lat="30.255226" lon="120.099528">
				<speed>0.000000</speed>
				<ele>216.000000</ele>
				<time>2026-08-17T05:28:56Z</time>
			</trkpt>
			<trkpt lat="30.255221" lon="120.099532">
				<speed>0.000000</speed>
				<ele>217.000000</ele>
				<time>2026-08-17T05:28:57Z</time>
			</trkpt>
			<trkpt lat="30.255207" lon="120.099545">
				<speed>0.000000</speed>
				<ele>217.000000</ele>
				<time>2026-08-17T05:28:58Z</time>
			</trkpt>
			<trkpt lat="30.255203" lon="120.099551">
				<speed>0.000000</speed>
				<ele>217.000000</ele>
				<time>2026-08-17T05:28:59Z</time>
			</trkpt>
			<trkpt lat="30.255200" lon="120.099557">
				<speed>0.000000</speed>
				<ele>217.000000</ele>
				<time>2026-08-17T05:29:00Z</time>
			</trkpt>
			<trkpt lat="30.255197" lon="120.099562">
				<speed>0.000000</speed>
				<ele>218.000000</ele>
				<time>2026-08-17T05:29:01Z</time>
			</trkpt>
			<trkpt lat="30.255191" lon="120.099582">
				<speed>0.000000</speed>
				<ele>218.000000</ele>
				<time>2026-08-17T05:29:02Z</time>
			</trkpt>
			<trkpt lat="30.255191" lon="120.099590">
				<speed>0.000000</speed>
				<ele>218.000000</ele>
				<time>2026-08-17T05:29:03Z</time>
			</trkpt>
			<trkpt lat="30.255190" lon="120.099597">
				<speed>0.000000</speed>
				<ele>218.000000</ele>
				<time>2026-08-17T05:29:04Z</time>
			</trkpt>
			<trkpt lat="30.255190" lon="120.099604">
				<speed>0.000000</speed>
				<ele>218.000000</ele>
				<time>2026-08-17T05:29:05Z</time>
			</trkpt>
			<trkpt lat="30.255194" lon="120.099623">
				<speed>0.000000</speed>
				<ele>218.000000</ele>
				<time>2026-08-17T05:29:06Z</time>
			</trkpt>
			<trkpt lat="30.255198" lon="120.099629">
				<speed>0.000000</speed>
				<ele>218.000000</ele>
				<time>2026-08-17T05:29:07Z</time>
			</trkpt>
			<trkpt lat="30.255201" lon="120.099634">
				<speed>0.000000</speed>
				<ele>218.000000</ele>
				<time>2026-08-17T05:29:08Z</time>
			</trkpt>
			<trkpt lat="30.255205" lon="120.099640">
				<speed>0.000000</speed>
				<ele>219.000000</ele>
				<time>2026-08-17T05:29:09Z</time>
			</trkpt>
			<trkpt lat="30.255214" lon="120.099657">
				<speed>0.000000</speed>
				<ele>219.000000</ele>
				<time>2026-08-17T05:29:10Z</time>
			</trkpt>
			<trkpt lat="30.255217" lon="120.099663">
				<speed>0.000000</speed>
				<ele>219.000000</ele>
				<time>2026-08-17T05:29:11Z</time>
			</trkpt>
			<trkpt lat="30.255219" lon="120.099669">
				<speed>0.000000</speed>
				<ele>219.000000</ele>
				<time>2026-08-17T05:29:12Z</time>
			</trkpt>
			<trkpt lat="30.255222" lon="120.099675">
				<speed>0.000000</speed>
				<ele>219.000000</ele>
				<time>2026-08-17T05:29:13Z</time>
			</trkpt>
			<trkpt lat="30.255231" lon="120.099694">
				<speed>0.000000</speed>
				<ele>219.000000</ele>
				<time>2026-08-17T05:29:14Z</time>
			</trkpt>
			<trkpt lat="30.255233" lon="120.099701">
				<speed>0.000000</speed>
				<ele>219.000000</ele>
				<time>2026-08-17T05:29:15Z</time>
			</trkpt>
			<trkpt lat="30.255236" lon="120.099707">
				<speed>0.000000</speed>
				<ele>219.000000</ele>
				<time>2026-08-17T05:29:16Z</time>
			</trkpt>
			<trkpt lat="30.255239" lon="120.099714">
				<speed>0.000000</speed>
				<ele>219.000000</ele>
				<time>2026-08-17T05:29:17Z</time>
			</trkpt>
			<trkpt lat="30.255247" lon="120.099737">
				<speed>0.000000</speed>
				<ele>219.000000</ele>
				<time>2026-08-17T05:29:18Z</time>
			</trkpt>
			<trkpt lat="30.255248" lon="120.099744">
				<speed>0.000000</speed>
				<ele>219.000000</ele>
				<time>2026-08-17T05:29:19Z</time>
			</trkpt>
			<trkpt lat="30.255249" lon="120.099752">
				<speed>0.000000</speed>
				<ele>219.000000</ele>
				<time>2026-08-17T05:29:20Z</time>
			</trkpt>
			<trkpt lat="30.255250" lon="120.099760">
				<speed>0.000000</speed>
				<ele>219.000000</ele>
				<time>2026-08-17T05:29:21Z</time>
			</trkpt>
			<trkpt lat="30.255250" lon="120.099783">
				<speed>0.000000</speed>
				<ele>219.000000</ele>
				<time>2026-08-17T05:29:22Z</time>
			</trkpt>
			<trkpt lat="30.255249" lon="120.099790">
				<speed>0.000000</speed>
				<ele>219.000000</ele>
				<time>2026-08-17T05:29:23Z</time>
			</trkpt>
			<trkpt lat="30.255249" lon="120.099798">
				<speed>0.000000</speed>
				<ele>219.000000</ele>
				<time>2026-08-17T05:29:24Z</time>
			</trkpt>
			<trkpt lat="30.255248" lon="120.099806">
				<speed>0.000000</speed>
				<ele>219.000000</ele>
				<time>2026-08-17T05:29:25Z</time>
			</trkpt>
			<trkpt lat="30.255244" lon="120.099830">
				<speed>0.000000</speed>
				<ele>219.000000</ele>
				<time>2026-08-17T05:29:26Z</time>
			</trkpt>
			<trkpt lat="30.255241" lon="120.099837">
				<speed>0.000000</speed>
				<ele>219.000000</ele>
				<time>2026-08-17T05:29:27Z</time>
			</trkpt>
			<trkpt lat="30.255239" lon="120.099845">
				<speed>0.000000</speed>
				<ele>219.000000</ele>
				<time>2026-08-17T05:29:28Z</time>
			</trkpt>
			<trkpt lat="30.255237" lon="120.099853">
				<speed>0.000000</speed>
				<ele>219.000000</ele>
				<time>2026-08-17T05:29:29Z</time>
			</trkpt>
			<trkpt lat="30.255229" lon="120.099875">
				<speed>0.000000</speed>
				<ele>219.000000</ele>
				<time>2026-08-17T05:29:30Z</time>
			</trkpt>
			<trkpt lat="30.255225" lon="120.099882">
				<speed>0.000000</speed>
				<ele>219.000000</ele>
				<time>2026-08-17T05:29:31Z</time>
			</trkpt>
			<trkpt lat="30.255221" lon="120.099889">
				<speed>0.000000</speed>
				<ele>219.000000</ele>
				<time>2026-08-17T05:29:32Z</time>
			</trkpt>
			<trkpt lat="30.255218" lon="120.099897">
				<speed>0.000000</speed>
				<ele>219.000000</ele>
				<time>2026-08-17T05:29:33Z</time>
			</trkpt>
			<trkpt lat="30.255204" lon="120.099915">
				<speed>0.000000</speed>
				<ele>219.000000</ele>
				<time>2026-08-17T05:29:34Z</time>
			</trkpt>
			<trkpt lat="30.255201" lon="120.099919">
				<speed>0.000000</speed>
				<ele>219.000000</ele>
				<time>2026-08-17T05:29:35Z</time>
			</trkpt>
			<trkpt lat="30.255198" lon="120.099922">
				<speed>0.000000</speed>
				<ele>219.000000</ele>
				<time>2026-08-17T05:29:36Z</time>
			</trkpt>
			<trkpt lat="30.255194" lon="120.099926">
				<speed>0.000000</speed>
				<ele>219.000000</ele>
				<time>2026-08-17T05:29:37Z</time>
			</trkpt>
			<trkpt lat="30.255191" lon="120.099930">
				<speed>0.000000</speed>
				<ele>219.000000</ele>
				<time>2026-08-17T05:29:38Z</time>
			</trkpt>
			<trkpt lat="30.255181" lon="120.099936">
				<speed>0.000000</speed>
				<ele>219.000000</ele>
				<time>2026-08-17T05:29:39Z</time>
			</trkpt>
			<trkpt lat="30.255178" lon="120.099938">
				<speed>0.000000</speed>
				<ele>219.000000</ele>
				<time>2026-08-17T05:29:40Z</time>
			</trkpt>
			<trkpt lat="30.255175" lon="120.099940">
				<speed>0.000000</speed>
				<ele>219.000000</ele>
				<time>2026-08-17T05:29:41Z</time>
			</trkpt>
			<trkpt lat="30.255172" lon="120.099942">
				<speed>0.000000</speed>
				<ele>219.000000</ele>
				<time>2026-08-17T05:29:42Z</time>
			</trkpt>
			<trkpt lat="30.255161" lon="120.099947">
				<speed>0.000000</speed>
				<ele>219.000000</ele>
				<time>2026-08-17T05:29:43Z</time>
			</trkpt>
			<trkpt lat="30.255156" lon="120.099948">
				<speed>0.000000</speed>
				<ele>219.000000</ele>
				<time>2026-08-17T05:29:44Z</time>
			</trkpt>
			<trkpt lat="30.255152" lon="120.099950">
				<speed>0.000000</speed>
				<ele>219.000000</ele>
				<time>2026-08-17T05:29:45Z</time>
			</trkpt>
			<trkpt lat="30.255147" lon="120.099951">
				<speed>0.000000</speed>
				<ele>219.000000</ele>
				<time>2026-08-17T05:29:46Z</time>
			</trkpt>
			<trkpt lat="30.255131" lon="120.099953">
				<speed>0.000000</speed>
				<ele>219.000000</ele>
				<time>2026-08-17T05:29:47Z</time>
			</trkpt>
			<trkpt lat="30.255124" lon="120.099953">
				<speed>0.000000</speed>
				<ele>219.000000</ele>
				<time>2026-08-17T05:29:48Z</time>
			</trkpt>
			<trkpt lat="30.255119" lon="120.099953">
				<speed>0.000000</speed>
				<ele>219.000000</ele>
				<time>2026-08-17T05:29:49Z</time>
			</trkpt>
			<trkpt lat="30.255112" lon="120.099953">
				<speed>0.000000</speed>
				<ele>219.000000</ele>
				<time>2026-08-17T05:29:50Z</time>
			</trkpt>
			<trkpt lat="30.255095" lon="120.099951">
				<speed>0.000000</speed>
				<ele>219.000000</ele>
				<time>2026-08-17T05:29:51Z</time>
			</trkpt>
			<trkpt lat="30.255089" lon="120.099949">
				<speed>0.000000</speed>
				<ele>219.000000</ele>
				<time>2026-08-17T05:29:52Z</time>
			</trkpt>
			<trkpt lat="30.255083" lon="120.099947">
				<speed>0.000000</speed>
				<ele>219.000000</ele>
				<time>2026-08-17T05:29:53Z</time>
			</trkpt>
			<trkpt lat="30.255077" lon="120.099946">
				<speed>0.000000</speed>
				<ele>219.000000</ele>
				<time>2026-08-17T05:29:54Z</time>
			</trkpt>
			<trkpt lat="30.255061" lon="120.099936">
				<speed>0.000000</speed>
				<ele>219.000000</ele>
				<time>2026-08-17T05:29:55Z</time>
			</trkpt>
			<trkpt lat="30.255055" lon="120.099932">
				<speed>0.000000</speed>
				<ele>219.000000</ele>
				<time>2026-08-17T05:29:56Z</time>
			</trkpt>
			<trkpt lat="30.255050" lon="120.099927">
				<speed>0.000000</speed>
				<ele>219.000000</ele>
				<time>2026-08-17T05:29:57Z</time>
			</trkpt>
			<trkpt lat="30.255044" lon="120.099923">
				<speed>0.000000</speed>
				<ele>219.000000</ele>
				<time>2026-08-17T05:29:58Z</time>
			</trkpt>
			<trkpt lat="30.255026" lon="120.099912">
				<speed>0.000000</speed>
				<ele>219.000000</ele>
				<time>2026-08-17T05:29:59Z</time>
			</trkpt>
			<trkpt lat="30.255020" lon="120.099908">
				<speed>0.000000</speed>
				<ele>219.000000</ele>
				<time>2026-08-17T05:30:00Z</time>
			</trkpt>
			<trkpt lat="30.255014" lon="120.099904">
				<speed>0.000000</speed>
				<ele>219.000000</ele>
				<time>2026-08-17T05:30:01Z</time>
			</trkpt>
			<trkpt lat="30.255008" lon="120.099900">
				<speed>0.000000</speed>
				<ele>219.000000</ele>
				<time>2026-08-17T05:30:02Z</time>
			</trkpt>
			<trkpt lat="30.254991" lon="120.099887">
				<speed>0.000000</speed>
				<ele>219.000000</ele>
				<time>2026-08-17T05:30:03Z</time>
			</trkpt>
			<trkpt lat="30.254985" lon="120.099884">
				<speed>0.000000</speed>
				<ele>219.000000</ele>
				<time>2026-08-17T05:30:04Z</time>
			</trkpt>
			<trkpt lat="30.254979" lon="120.099880">
				<speed>0.000000</speed>
				<ele>219.000000</ele>
				<time>2026-08-17T05:30:05Z</time>
			</trkpt>
			<trkpt lat="30.254973" lon="120.099877">
				<speed>0.000000</speed>
				<ele>219.000000</ele>
				<time>2026-08-17T05:30:06Z</time>
			</trkpt>
			<trkpt lat="30.254955" lon="120.099869">
				<speed>0.000000</speed>
				<ele>219.000000</ele>
				<time>2026-08-17T05:30:07Z</time>
			</trkpt>
			<trkpt lat="30.254949" lon="120.099868">
				<speed>0.000000</speed>
				<ele>219.000000</ele>
				<time>2026-08-17T05:30:08Z</time>
			</trkpt>
			<trkpt lat="30.254943" lon="120.099867">
				<speed>0.000000</speed>
				<ele>219.000000</ele>
				<time>2026-08-17T05:30:09Z</time>
			</trkpt>
			<trkpt lat="30.254936" lon="120.099866">
				<speed>0.000000</speed>
				<ele>219.000000</ele>
				<time>2026-08-17T05:30:10Z</time>
			</trkpt>
			<trkpt lat="30.254916" lon="120.099865">
				<speed>0.000000</speed>
				<ele>219.000000</ele>
				<time>2026-08-17T05:30:11Z</time>
			</trkpt>
			<trkpt lat="30.254909" lon="120.099865">
				<speed>0.000000</speed>
				<ele>219.000000</ele>
				<time>2026-08-17T05:30:12Z</time>
			</trkpt>
			<trkpt lat="30.254902" lon="120.099865">
				<speed>0.000000</speed>
				<ele>219.000000</ele>
				<time>2026-08-17T05:30:13Z</time>
			</trkpt>
			<trkpt lat="30.254895" lon="120.099865">
				<speed>0.000000</speed>
				<ele>219.000000</ele>
				<time>2026-08-17T05:30:14Z</time>
			</trkpt>
			<trkpt lat="30.254875" lon="120.099867">
				<speed>0.000000</speed>
				<ele>219.000000</ele>
				<time>2026-08-17T05:30:15Z</time>
			</trkpt>
			<trkpt lat="30.254868" lon="120.099869">
				<speed>0.000000</speed>
				<ele>219.000000</ele>
				<time>2026-08-17T05:30:16Z</time>
			</trkpt>
			<trkpt lat="30.254861" lon="120.099870">
				<speed>0.000000</speed>
				<ele>219.000000</ele>
				<time>2026-08-17T05:30:17Z</time>
			</trkpt>
			<trkpt lat="30.254855" lon="120.099872">
				<speed>0.000000</speed>
				<ele>219.000000</ele>
				<time>2026-08-17T05:30:18Z</time>
			</trkpt>
			<trkpt lat="30.254836" lon="120.099879">
				<speed>0.000000</speed>
				<ele>219.000000</ele>
				<time>2026-08-17T05:30:19Z</time>
			</trkpt>
			<trkpt lat="30.254830" lon="120.099882">
				<speed>0.000000</speed>
				<ele>219.000000</ele>
				<time>2026-08-17T05:30:20Z</time>
			</trkpt>
			<trkpt lat="30.254824" lon="120.099885">
				<speed>0.000000</speed>
				<ele>219.000000</ele>
				<time>2026-08-17T05:30:21Z</time>
			</trkpt>
			<trkpt lat="30.254818" lon="120.099888">
				<speed>0.000000</speed>
				<ele>219.000000</ele>
				<time>2026-08-17T05:30:22Z</time>
			</trkpt>
			<trkpt lat="30.254802" lon="120.099900">
				<speed>0.000000</speed>
				<ele>219.000000</ele>
				<time>2026-08-17T05:30:23Z</time>
			</trkpt>
			<trkpt lat="30.254797" lon="120.099905">
				<speed>0.000000</speed>
				<ele>219.000000</ele>
				<time>2026-08-17T05:30:24Z</time>
			</trkpt>
			<trkpt lat="30.254791" lon="120.099909">
				<speed>0.000000</speed>
				<ele>219.000000</ele>
				<time>2026-08-17T05:30:25Z</time>
			</trkpt>
			<trkpt lat="30.254786" lon="120.099914">
				<speed>0.000000</speed>
				<ele>219.000000</ele>
				<time>2026-08-17T05:30:26Z</time>
			</trkpt>
			<trkpt lat="30.254770" lon="120.099927">
				<speed>0.000000</speed>
				<ele>219.000000</ele>
				<time>2026-08-17T05:30:27Z</time>
			</trkpt>
			<trkpt lat="30.254764" lon="120.099931">
				<speed>0.000000</speed>
				<ele>219.000000</ele>
				<time>2026-08-17T05:30:28Z</time>
			</trkpt>
			<trkpt lat="30.254758" lon="120.099936">
				<speed>0.000000</speed>
				<ele>219.000000</ele>
				<time>2026-08-17T05:30:29Z</time>
			</trkpt>
			<trkpt lat="30.254752" lon="120.099941">
				<speed>0.000000</speed>
				<ele>219.000000</ele>
				<time>2026-08-17T05:30:30Z</time>
			</trkpt>
			<trkpt lat="30.254733" lon="120.099954">
				<speed>0.000000</speed>
				<ele>219.000000</ele>
				<time>2026-08-17T05:30:31Z</time>
			</trkpt>
			<trkpt lat="30.254726" lon="120.099958">
				<speed>0.000000</speed>
				<ele>219.000000</ele>
				<time>2026-08-17T05:30:32Z</time>
			</trkpt>
			<trkpt lat="30.254719" lon="120.099962">
				<speed>0.000000</speed>
				<ele>219.000000</ele>
				<time>2026-08-17T05:30:33Z</time>
			</trkpt>
			<trkpt lat="30.254713" lon="120.099965">
				<speed>0.000000</speed>
				<ele>219.000000</ele>
				<time>2026-08-17T05:30:34Z</time>
			</trkpt>
			<trkpt lat="30.254692" lon="120.099975">
				<speed>0.000000</speed>
				<ele>219.000000</ele>
				<time>2026-08-17T05:30:35Z</time>
			</trkpt>
			<trkpt lat="30.254685" lon="120.099977">
				<speed>0.000000</speed>
				<ele>219.000000</ele>
				<time>2026-08-17T05:30:36Z</time>
			</trkpt>
			<trkpt lat="30.254677" lon="120.099980">
				<speed>0.000000</speed>
				<ele>219.000000</ele>
				<time>2026-08-17T05:30:37Z</time>
			</trkpt>
			<trkpt lat="30.254670" lon="120.099982">
				<speed>0.000000</speed>
				<ele>219.000000</ele>
				<time>2026-08-17T05:30:38Z</time>
			</trkpt>
			<trkpt lat="30.254648" lon="120.099988">
				<speed>0.000000</speed>
				<ele>219.000000</ele>
				<time>2026-08-17T05:30:39Z</time>
			</trkpt>
			<trkpt lat="30.254640" lon="120.099989">
				<speed>0.000000</speed>
				<ele>219.000000</ele>
				<time>2026-08-17T05:30:40Z</time>
			</trkpt>
			<trkpt lat="30.254633" lon="120.099990">
				<speed>0.000000</speed>
				<ele>219.000000</ele>
				<time>2026-08-17T05:30:41Z</time>
			</trkpt>
			<trkpt lat="30.254625" lon="120.099992">
				<speed>0.000000</speed>
				<ele>219.000000</ele>
				<time>2026-08-17T05:30:42Z</time>
			</trkpt>
			<trkpt lat="30.254602" lon="120.099994">
				<speed>0.000000</speed>
				<ele>219.000000</ele>
				<time>2026-08-17T05:30:43Z</time>
			</trkpt>
			<trkpt lat="30.254594" lon="120.099995">
				<speed>0.000000</speed>
				<ele>219.000000</ele>
				<time>2026-08-17T05:30:44Z</time>
			</trkpt>
			<trkpt lat="30.254587" lon="120.099996">
				<speed>0.000000</speed>
				<ele>219.000000</ele>
				<time>2026-08-17T05:30:45Z</time>
			</trkpt>
			<trkpt lat="30.254579" lon="120.099998">
				<speed>0.000000</speed>
				<ele>219.000000</ele>
				<time>2026-08-17T05:30:46Z</time>
			</trkpt>
			<trkpt lat="30.254557" lon="120.100003">
				<speed>0.000000</speed>
				<ele>219.000000</ele>
				<time>2026-08-17T05:30:47Z</time>
			</trkpt>
			<trkpt lat="30.254550" lon="120.100005">
				<speed>0.000000</speed>
				<ele>219.000000</ele>
				<time>2026-08-17T05:30:48Z</time>
			</trkpt>
			<trkpt lat="30.254543" lon="120.100008">
				<speed>0.000000</speed>
				<ele>219.000000</ele>
				<time>2026-08-17T05:30:49Z</time>
			</trkpt>
			<trkpt lat="30.254536" lon="120.100010">
				<speed>0.000000</speed>
				<ele>219.000000</ele>
				<time>2026-08-17T05:30:50Z</time>
			</trkpt>
			<trkpt lat="30.254517" lon="120.100019">
				<speed>0.000000</speed>
				<ele>219.000000</ele>
				<time>2026-08-17T05:30:51Z</time>
			</trkpt>
			<trkpt lat="30.254510" lon="120.100021">
				<speed>0.000000</speed>
				<ele>219.000000</ele>
				<time>2026-08-17T05:30:52Z</time>
			</trkpt>
			<trkpt lat="30.254504" lon="120.100023">
				<speed>0.000000</speed>
				<ele>219.000000</ele>
				<time>2026-08-17T05:30:53Z</time>
			</trkpt>
			<trkpt lat="30.254497" lon="120.100025">
				<speed>0.000000</speed>
				<ele>219.000000</ele>
				<time>2026-08-17T05:30:54Z</time>
			</trkpt>
			<trkpt lat="30.254477" lon="120.100029">
				<speed>0.000000</speed>
				<ele>219.000000</ele>
				<time>2026-08-17T05:30:55Z</time>
			</trkpt>
			<trkpt lat="30.254472" lon="120.100030">
				<speed>0.000000</speed>
				<ele>219.000000</ele>
				<time>2026-08-17T05:30:56Z</time>
			</trkpt>
			<trkpt lat="30.254467" lon="120.100032">
				<speed>0.000000</speed>
				<ele>219.000000</ele>
				<time>2026-08-17T05:30:57Z</time>
			</trkpt>
			<trkpt lat="30.254461" lon="120.100033">
				<speed>0.000000</speed>
				<ele>219.000000</ele>
				<time>2026-08-17T05:30:58Z</time>
			</trkpt>
			<trkpt lat="30.254447" lon="120.100039">
				<speed>0.000000</speed>
				<ele>219.000000</ele>
				<time>2026-08-17T05:30:59Z</time>
			</trkpt>
			<trkpt lat="30.254443" lon="120.100041">
				<speed>0.000000</speed>
				<ele>219.000000</ele>
				<time>2026-08-17T05:31:00Z</time>
			</trkpt>
			<trkpt lat="30.254438" lon="120.100044">
				<speed>0.000000</speed>
				<ele>219.000000</ele>
				<time>2026-08-17T05:31:01Z</time>
			</trkpt>
			<trkpt lat="30.254433" lon="120.100046">
				<speed>0.000000</speed>
				<ele>219.000000</ele>
				<time>2026-08-17T05:31:02Z</time>
			</trkpt>
			<trkpt lat="30.254419" lon="120.100056">
				<speed>0.000000</speed>
				<ele>219.000000</ele>
				<time>2026-08-17T05:31:03Z</time>
			</trkpt>
			<trkpt lat="30.254414" lon="120.100060">
				<speed>0.000000</speed>
				<ele>219.000000</ele>
				<time>2026-08-17T05:31:04Z</time>
			</trkpt>
			<trkpt lat="30.254409" lon="120.100064">
				<speed>0.000000</speed>
				<ele>219.000000</ele>
				<time>2026-08-17T05:31:05Z</time>
			</trkpt>
			<trkpt lat="30.254404" lon="120.100069">
				<speed>0.000000</speed>
				<ele>219.000000</ele>
				<time>2026-08-17T05:31:06Z</time>
			</trkpt>
			<trkpt lat="30.254389" lon="120.100083">
				<speed>0.000000</speed>
				<ele>219.000000</ele>
				<time>2026-08-17T05:31:07Z</time>
			</trkpt>
			<trkpt lat="30.254384" lon="120.100089">
				<speed>0.000000</speed>
				<ele>219.000000</ele>
				<time>2026-08-17T05:31:08Z</time>
			</trkpt>
			<trkpt lat="30.254379" lon="120.100094">
				<speed>0.000000</speed>
				<ele>220.000000</ele>
				<time>2026-08-17T05:31:09Z</time>
			</trkpt>
			<trkpt lat="30.254374" lon="120.100099">
				<speed>0.000000</speed>
				<ele>220.000000</ele>
				<time>2026-08-17T05:31:10Z</time>
			</trkpt>
			<trkpt lat="30.254359" lon="120.100114">
				<speed>0.000000</speed>
				<ele>220.000000</ele>
				<time>2026-08-17T05:31:11Z</time>
			</trkpt>
			<trkpt lat="30.254354" lon="120.100119">
				<speed>0.000000</speed>
				<ele>220.000000</ele>
				<time>2026-08-17T05:31:12Z</time>
			</trkpt>
			<trkpt lat="30.254349" lon="120.100124">
				<speed>0.000000</speed>
				<ele>220.000000</ele>
				<time>2026-08-17T05:31:13Z</time>
			</trkpt>
			<trkpt lat="30.254343" lon="120.100128">
				<speed>0.000000</speed>
				<ele>220.000000</ele>
				<time>2026-08-17T05:31:14Z</time>
			</trkpt>
			<trkpt lat="30.254326" lon="120.100140">
				<speed>0.000000</speed>
				<ele>220.000000</ele>
				<time>2026-08-17T05:31:15Z</time>
			</trkpt>
			<trkpt lat="30.254319" lon="120.100144">
				<speed>0.000000</speed>
				<ele>220.000000</ele>
				<time>2026-08-17T05:31:16Z</time>
			</trkpt>
			<trkpt lat="30.254313" lon="120.100147">
				<speed>0.000000</speed>
				<ele>220.000000</ele>
				<time>2026-08-17T05:31:17Z</time>
			</trkpt>
			<trkpt lat="30.254307" lon="120.100150">
				<speed>0.000000</speed>
				<ele>220.000000</ele>
				<time>2026-08-17T05:31:18Z</time>
			</trkpt>
			<trkpt lat="30.254288" lon="120.100159">
				<speed>0.000000</speed>
				<ele>220.000000</ele>
				<time>2026-08-17T05:31:19Z</time>
			</trkpt>
			<trkpt lat="30.254281" lon="120.100162">
				<speed>0.000000</speed>
				<ele>220.000000</ele>
				<time>2026-08-17T05:31:20Z</time>
			</trkpt>
			<trkpt lat="30.254274" lon="120.100164">
				<speed>0.000000</speed>
				<ele>221.000000</ele>
				<time>2026-08-17T05:31:21Z</time>
			</trkpt>
			<trkpt lat="30.254267" lon="120.100167">
				<speed>0.000000</speed>
				<ele>221.000000</ele>
				<time>2026-08-17T05:31:22Z</time>
			</trkpt>
			<trkpt lat="30.254245" lon="120.100174">
				<speed>0.000000</speed>
				<ele>221.000000</ele>
				<time>2026-08-17T05:31:23Z</time>
			</trkpt>
			<trkpt lat="30.254239" lon="120.100177">
				<speed>0.000000</speed>
				<ele>221.000000</ele>
				<time>2026-08-17T05:31:24Z</time>
			</trkpt>
			<trkpt lat="30.254232" lon="120.100179">
				<speed>0.000000</speed>
				<ele>221.000000</ele>
				<time>2026-08-17T05:31:25Z</time>
			</trkpt>
			<trkpt lat="30.254225" lon="120.100181">
				<speed>0.000000</speed>
				<ele>221.000000</ele>
				<time>2026-08-17T05:31:26Z</time>
			</trkpt>
			<trkpt lat="30.254204" lon="120.100188">
				<speed>0.000000</speed>
				<ele>221.000000</ele>
				<time>2026-08-17T05:31:27Z</time>
			</trkpt>
			<trkpt lat="30.254197" lon="120.100190">
				<speed>0.000000</speed>
				<ele>221.000000</ele>
				<time>2026-08-17T05:31:28Z</time>
			</trkpt>
			<trkpt lat="30.254190" lon="120.100192">
				<speed>0.000000</speed>
				<ele>221.000000</ele>
				<time>2026-08-17T05:31:29Z</time>
			</trkpt>
			<trkpt lat="30.254183" lon="120.100194">
				<speed>0.000000</speed>
				<ele>221.000000</ele>
				<time>2026-08-17T05:31:30Z</time>
			</trkpt>
			<trkpt lat="30.254161" lon="120.100198">
				<speed>0.000000</speed>
				<ele>221.000000</ele>
				<time>2026-08-17T05:31:31Z</time>
			</trkpt>
			<trkpt lat="30.254154" lon="120.100198">
				<speed>0.000000</speed>
				<ele>221.000000</ele>
				<time>2026-08-17T05:31:32Z</time>
			</trkpt>
			<trkpt lat="30.254147" lon="120.100199">
				<speed>0.000000</speed>
				<ele>221.000000</ele>
				<time>2026-08-17T05:31:33Z</time>
			</trkpt>
			<trkpt lat="30.254139" lon="120.100200">
				<speed>0.000000</speed>
				<ele>221.000000</ele>
				<time>2026-08-17T05:31:34Z</time>
			</trkpt>
			<trkpt lat="30.254118" lon="120.100201">
				<speed>0.000000</speed>
				<ele>221.000000</ele>
				<time>2026-08-17T05:31:35Z</time>
			</trkpt>
			<trkpt lat="30.254111" lon="120.100202">
				<speed>0.000000</speed>
				<ele>221.000000</ele>
				<time>2026-08-17T05:31:36Z</time>
			</trkpt>
			<trkpt lat="30.254104" lon="120.100203">
				<speed>0.000000</speed>
				<ele>222.000000</ele>
				<time>2026-08-17T05:31:37Z</time>
			</trkpt>
			<trkpt lat="30.254097" lon="120.100204">
				<speed>0.000000</speed>
				<ele>222.000000</ele>
				<time>2026-08-17T05:31:38Z</time>
			</trkpt>
			<trkpt lat="30.254076" lon="120.100206">
				<speed>0.000000</speed>
				<ele>222.000000</ele>
				<time>2026-08-17T05:31:39Z</time>
			</trkpt>
			<trkpt lat="30.254069" lon="120.100207">
				<speed>0.000000</speed>
				<ele>222.000000</ele>
				<time>2026-08-17T05:31:40Z</time>
			</trkpt>
			<trkpt lat="30.254062" lon="120.100208">
				<speed>0.000000</speed>
				<ele>222.000000</ele>
				<time>2026-08-17T05:31:41Z</time>
			</trkpt>
			<trkpt lat="30.254055" lon="120.100209">
				<speed>0.000000</speed>
				<ele>222.000000</ele>
				<time>2026-08-17T05:31:42Z</time>
			</trkpt>
			<trkpt lat="30.254033" lon="120.100213">
				<speed>0.000000</speed>
				<ele>222.000000</ele>
				<time>2026-08-17T05:31:43Z</time>
			</trkpt>
			<trkpt lat="30.254025" lon="120.100214">
				<speed>0.000000</speed>
				<ele>222.000000</ele>
				<time>2026-08-17T05:31:44Z</time>
			</trkpt>
			<trkpt lat="30.254018" lon="120.100215">
				<speed>0.000000</speed>
				<ele>222.000000</ele>
				<time>2026-08-17T05:31:45Z</time>
			</trkpt>
			<trkpt lat="30.254011" lon="120.100217">
				<speed>0.000000</speed>
				<ele>222.000000</ele>
				<time>2026-08-17T05:31:46Z</time>
			</trkpt>
			<trkpt lat="30.253991" lon="120.100220">
				<speed>0.000000</speed>
				<ele>222.000000</ele>
				<time>2026-08-17T05:31:47Z</time>
			</trkpt>
			<trkpt lat="30.253985" lon="120.100221">
				<speed>0.000000</speed>
				<ele>222.000000</ele>
				<time>2026-08-17T05:31:48Z</time>
			</trkpt>
			<trkpt lat="30.253980" lon="120.100222">
				<speed>0.000000</speed>
				<ele>222.000000</ele>
				<time>2026-08-17T05:31:49Z</time>
			</trkpt>
			<trkpt lat="30.253974" lon="120.100222">
				<speed>0.000000</speed>
				<ele>222.000000</ele>
				<time>2026-08-17T05:31:50Z</time>
			</trkpt>
			<trkpt lat="30.253957" lon="120.100224">
				<speed>0.000000</speed>
				<ele>222.000000</ele>
				<time>2026-08-17T05:31:51Z</time>
			</trkpt>
			<trkpt lat="30.253952" lon="120.100224">
				<speed>0.000000</speed>
				<ele>222.000000</ele>
				<time>2026-08-17T05:31:52Z</time>
			</trkpt>
			<trkpt lat="30.253946" lon="120.100224">
				<speed>0.000000</speed>
				<ele>222.000000</ele>
				<time>2026-08-17T05:31:53Z</time>
			</trkpt>
			<trkpt lat="30.253941" lon="120.100225">
				<speed>0.000000</speed>
				<ele>222.000000</ele>
				<time>2026-08-17T05:31:54Z</time>
			</trkpt>
			<trkpt lat="30.253924" lon="120.100225">
				<speed>0.000000</speed>
				<ele>222.000000</ele>
				<time>2026-08-17T05:31:55Z</time>
			</trkpt>
			<trkpt lat="30.253918" lon="120.100225">
				<speed>0.000000</speed>
				<ele>222.000000</ele>
				<time>2026-08-17T05:31:56Z</time>
			</trkpt>
			<trkpt lat="30.253912" lon="120.100226">
				<speed>0.000000</speed>
				<ele>222.000000</ele>
				<time>2026-08-17T05:31:57Z</time>
			</trkpt>
			<trkpt lat="30.253907" lon="120.100226">
				<speed>0.000000</speed>
				<ele>222.000000</ele>
				<time>2026-08-17T05:31:58Z</time>
			</trkpt>
			<trkpt lat="30.253890" lon="120.100229">
				<speed>0.000000</speed>
				<ele>222.000000</ele>
				<time>2026-08-17T05:31:59Z</time>
			</trkpt>
			<trkpt lat="30.253884" lon="120.100230">
				<speed>0.000000</speed>
				<ele>222.000000</ele>
				<time>2026-08-17T05:32:00Z</time>
			</trkpt>
			<trkpt lat="30.253879" lon="120.100232">
				<speed>0.000000</speed>
				<ele>223.000000</ele>
				<time>2026-08-17T05:32:01Z</time>
			</trkpt>
			<trkpt lat="30.253873" lon="120.100234">
				<speed>0.000000</speed>
				<ele>223.000000</ele>
				<time>2026-08-17T05:32:02Z</time>
			</trkpt>
			<trkpt lat="30.253858" lon="120.100239">
				<speed>0.000000</speed>
				<ele>223.000000</ele>
				<time>2026-08-17T05:32:03Z</time>
			</trkpt>
			<trkpt lat="30.253853" lon="120.100241">
				<speed>0.000000</speed>
				<ele>223.000000</ele>
				<time>2026-08-17T05:32:04Z</time>
			</trkpt>
			<trkpt lat="30.253848" lon="120.100243">
				<speed>0.000000</speed>
				<ele>223.000000</ele>
				<time>2026-08-17T05:32:05Z</time>
			</trkpt>
			<trkpt lat="30.253842" lon="120.100245">
				<speed>0.000000</speed>
				<ele>223.000000</ele>
				<time>2026-08-17T05:32:06Z</time>
			</trkpt>
			<trkpt lat="30.253828" lon="120.100251">
				<speed>0.000000</speed>
				<ele>223.000000</ele>
				<time>2026-08-17T05:32:07Z</time>
			</trkpt>
			<trkpt lat="30.253824" lon="120.100253">
				<speed>0.000000</speed>
				<ele>223.000000</ele>
				<time>2026-08-17T05:32:08Z</time>
			</trkpt>
			<trkpt lat="30.253820" lon="120.100254">
				<speed>0.000000</speed>
				<ele>224.000000</ele>
				<time>2026-08-17T05:32:09Z</time>
			</trkpt>
			<trkpt lat="30.253815" lon="120.100256">
				<speed>0.000000</speed>
				<ele>224.000000</ele>
				<time>2026-08-17T05:32:10Z</time>
			</trkpt>
			<trkpt lat="30.253803" lon="120.100262">
				<speed>0.000000</speed>
				<ele>224.000000</ele>
				<time>2026-08-17T05:32:11Z</time>
			</trkpt>
			<trkpt lat="30.253798" lon="120.100264">
				<speed>0.000000</speed>
				<ele>224.000000</ele>
				<time>2026-08-17T05:32:12Z</time>
			</trkpt>
			<trkpt lat="30.253794" lon="120.100266">
				<speed>0.000000</speed>
				<ele>224.000000</ele>
				<time>2026-08-17T05:32:13Z</time>
			</trkpt>
			<trkpt lat="30.253789" lon="120.100268">
				<speed>0.000000</speed>
				<ele>224.000000</ele>
				<time>2026-08-17T05:32:14Z</time>
			</trkpt>
			<trkpt lat="30.253774" lon="120.100274">
				<speed>0.000000</speed>
				<ele>224.000000</ele>
				<time>2026-08-17T05:32:15Z</time>
			</trkpt>
			<trkpt lat="30.253769" lon="120.100276">
				<speed>0.000000</speed>
				<ele>224.000000</ele>
				<time>2026-08-17T05:32:16Z</time>
			</trkpt>
			<trkpt lat="30.253764" lon="120.100278">
				<speed>0.000000</speed>
				<ele>225.000000</ele>
				<time>2026-08-17T05:32:17Z</time>
			</trkpt>
			<trkpt lat="30.253758" lon="120.100279">
				<speed>0.000000</speed>
				<ele>225.000000</ele>
				<time>2026-08-17T05:32:18Z</time>
			</trkpt>
			<trkpt lat="30.253742" lon="120.100281">
				<speed>0.000000</speed>
				<ele>225.000000</ele>
				<time>2026-08-17T05:32:19Z</time>
			</trkpt>
			<trkpt lat="30.253737" lon="120.100281">
				<speed>0.000000</speed>
				<ele>225.000000</ele>
				<time>2026-08-17T05:32:20Z</time>
			</trkpt>
			<trkpt lat="30.253732" lon="120.100281">
				<speed>0.000000</speed>
				<ele>225.000000</ele>
				<time>2026-08-17T05:32:21Z</time>
			</trkpt>
			<trkpt lat="30.253727" lon="120.100281">
				<speed>0.000000</speed>
				<ele>225.000000</ele>
				<time>2026-08-17T05:32:22Z</time>
			</trkpt>
			<trkpt lat="30.253712" lon="120.100280">
				<speed>0.000000</speed>
				<ele>225.000000</ele>
				<time>2026-08-17T05:32:23Z</time>
			</trkpt>
			<trkpt lat="30.253707" lon="120.100280">
				<speed>0.000000</speed>
				<ele>225.000000</ele>
				<time>2026-08-17T05:32:24Z</time>
			</trkpt>
			<trkpt lat="30.253702" lon="120.100280">
				<speed>0.000000</speed>
				<ele>226.000000</ele>
				<time>2026-08-17T05:32:25Z</time>
			</trkpt>
			<trkpt lat="30.253697" lon="120.100279">
				<speed>0.000000</speed>
				<ele>226.000000</ele>
				<time>2026-08-17T05:32:26Z</time>
			</trkpt>
			<trkpt lat="30.253683" lon="120.100279">
				<speed>0.000000</speed>
				<ele>226.000000</ele>
				<time>2026-08-17T05:32:27Z</time>
			</trkpt>
			<trkpt lat="30.253679" lon="120.100279">
				<speed>0.000000</speed>
				<ele>226.000000</ele>
				<time>2026-08-17T05:32:28Z</time>
			</trkpt>
			<trkpt lat="30.253675" lon="120.100279">
				<speed>0.000000</speed>
				<ele>227.000000</ele>
				<time>2026-08-17T05:32:29Z</time>
			</trkpt>
			<trkpt lat="30.253671" lon="120.100279">
				<speed>0.000000</speed>
				<ele>227.000000</ele>
				<time>2026-08-17T05:32:30Z</time>
			</trkpt>
			<trkpt lat="30.253658" lon="120.100281">
				<speed>0.000000</speed>
				<ele>227.000000</ele>
				<time>2026-08-17T05:32:31Z</time>
			</trkpt>
			<trkpt lat="30.253653" lon="120.100281">
				<speed>0.000000</speed>
				<ele>227.000000</ele>
				<time>2026-08-17T05:32:32Z</time>
			</trkpt>
			<trkpt lat="30.253649" lon="120.100282">
				<speed>0.000000</speed>
				<ele>227.000000</ele>
				<time>2026-08-17T05:32:33Z</time>
			</trkpt>
			<trkpt lat="30.253645" lon="120.100282">
				<speed>0.000000</speed>
				<ele>227.000000</ele>
				<time>2026-08-17T05:32:34Z</time>
			</trkpt>
			<trkpt lat="30.253632" lon="120.100285">
				<speed>0.000000</speed>
				<ele>227.000000</ele>
				<time>2026-08-17T05:32:35Z</time>
			</trkpt>
			<trkpt lat="30.253628" lon="120.100286">
				<speed>0.000000</speed>
				<ele>227.000000</ele>
				<time>2026-08-17T05:32:36Z</time>
			</trkpt>
			<trkpt lat="30.253624" lon="120.100287">
				<speed>0.000000</speed>
				<ele>228.000000</ele>
				<time>2026-08-17T05:32:37Z</time>
			</trkpt>
			<trkpt lat="30.253620" lon="120.100288">
				<speed>0.000000</speed>
				<ele>228.000000</ele>
				<time>2026-08-17T05:32:38Z</time>
			</trkpt>
			<trkpt lat="30.253607" lon="120.100291">
				<speed>0.000000</speed>
				<ele>228.000000</ele>
				<time>2026-08-17T05:32:39Z</time>
			</trkpt>
			<trkpt lat="30.253602" lon="120.100292">
				<speed>0.000000</speed>
				<ele>228.000000</ele>
				<time>2026-08-17T05:32:40Z</time>
			</trkpt>
			<trkpt lat="30.253597" lon="120.100293">
				<speed>0.000000</speed>
				<ele>229.000000</ele>
				<time>2026-08-17T05:32:41Z</time>
			</trkpt>
			<trkpt lat="30.253593" lon="120.100294">
				<speed>0.000000</speed>
				<ele>229.000000</ele>
				<time>2026-08-17T05:32:42Z</time>
			</trkpt>
			<trkpt lat="30.253579" lon="120.100298">
				<speed>0.000000</speed>
				<ele>229.000000</ele>
				<time>2026-08-17T05:32:43Z</time>
			</trkpt>
			<trkpt lat="30.253574" lon="120.100300">
				<speed>0.000000</speed>
				<ele>229.000000</ele>
				<time>2026-08-17T05:32:44Z</time>
			</trkpt>
			<trkpt lat="30.253569" lon="120.100301">
				<speed>0.000000</speed>
				<ele>229.000000</ele>
				<time>2026-08-17T05:32:45Z</time>
			</trkpt>
			<trkpt lat="30.253565" lon="120.100302">
				<speed>0.000000</speed>
				<ele>229.000000</ele>
				<time>2026-08-17T05:32:46Z</time>
			</trkpt>
			<trkpt lat="30.253548" lon="120.100306">
				<speed>0.000000</speed>
				<ele>229.000000</ele>
				<time>2026-08-17T05:32:47Z</time>
			</trkpt>
			<trkpt lat="30.253542" lon="120.100308">
				<speed>0.000000</speed>
				<ele>229.000000</ele>
				<time>2026-08-17T05:32:48Z</time>
			</trkpt>
			<trkpt lat="30.253537" lon="120.100309">
				<speed>0.000000</speed>
				<ele>229.000000</ele>
				<time>2026-08-17T05:32:49Z</time>
			</trkpt>
			<trkpt lat="30.253531" lon="120.100311">
				<speed>0.000000</speed>
				<ele>229.000000</ele>
				<time>2026-08-17T05:32:50Z</time>
			</trkpt>
			<trkpt lat="30.253513" lon="120.100315">
				<speed>0.000000</speed>
				<ele>229.000000</ele>
				<time>2026-08-17T05:32:51Z</time>
			</trkpt>
			<trkpt lat="30.253508" lon="120.100315">
				<speed>0.000000</speed>
				<ele>229.000000</ele>
				<time>2026-08-17T05:32:52Z</time>
			</trkpt>
			<trkpt lat="30.253502" lon="120.100315">
				<speed>0.000000</speed>
				<ele>230.000000</ele>
				<time>2026-08-17T05:32:53Z</time>
			</trkpt>
			<trkpt lat="30.253497" lon="120.100315">
				<speed>0.000000</speed>
				<ele>230.000000</ele>
				<time>2026-08-17T05:32:54Z</time>
			</trkpt>
			<trkpt lat="30.253480" lon="120.100312">
				<speed>0.000000</speed>
				<ele>230.000000</ele>
				<time>2026-08-17T05:32:55Z</time>
			</trkpt>
			<trkpt lat="30.253474" lon="120.100311">
				<speed>0.000000</speed>
				<ele>230.000000</ele>
				<time>2026-08-17T05:32:56Z</time>
			</trkpt>
			<trkpt lat="30.253468" lon="120.100310">
				<speed>0.000000</speed>
				<ele>230.000000</ele>
				<time>2026-08-17T05:32:57Z</time>
			</trkpt>
			<trkpt lat="30.253463" lon="120.100309">
				<speed>0.000000</speed>
				<ele>230.000000</ele>
				<time>2026-08-17T05:32:58Z</time>
			</trkpt>
			<trkpt lat="30.253445" lon="120.100306">
				<speed>0.000000</speed>
				<ele>230.000000</ele>
				<time>2026-08-17T05:32:59Z</time>
			</trkpt>
			<trkpt lat="30.253439" lon="120.100305">
				<speed>0.000000</speed>
				<ele>230.000000</ele>
				<time>2026-08-17T05:33:00Z</time>
			</trkpt>
			<trkpt lat="30.253433" lon="120.100303">
				<speed>0.000000</speed>
				<ele>230.000000</ele>
				<time>2026-08-17T05:33:01Z</time>
			</trkpt>
			<trkpt lat="30.253427" lon="120.100302">
				<speed>0.000000</speed>
				<ele>230.000000</ele>
				<time>2026-08-17T05:33:02Z</time>
			</trkpt>
			<trkpt lat="30.253408" lon="120.100296">
				<speed>0.000000</speed>
				<ele>230.000000</ele>
				<time>2026-08-17T05:33:03Z</time>
			</trkpt>
			<trkpt lat="30.253401" lon="120.100293">
				<speed>0.000000</speed>
				<ele>230.000000</ele>
				<time>2026-08-17T05:33:04Z</time>
			</trkpt>
			<trkpt lat="30.253394" lon="120.100291">
				<speed>0.000000</speed>
				<ele>231.000000</ele>
				<time>2026-08-17T05:33:05Z</time>
			</trkpt>
			<trkpt lat="30.253388" lon="120.100288">
				<speed>0.000000</speed>
				<ele>231.000000</ele>
				<time>2026-08-17T05:33:06Z</time>
			</trkpt>
			<trkpt lat="30.253366" lon="120.100281">
				<speed>0.000000</speed>
				<ele>231.000000</ele>
				<time>2026-08-17T05:33:07Z</time>
			</trkpt>
			<trkpt lat="30.253358" lon="120.100278">
				<speed>0.000000</speed>
				<ele>231.000000</ele>
				<time>2026-08-17T05:33:08Z</time>
			</trkpt>
			<trkpt lat="30.253351" lon="120.100276">
				<speed>0.000000</speed>
				<ele>231.000000</ele>
				<time>2026-08-17T05:33:09Z</time>
			</trkpt>
			<trkpt lat="30.253343" lon="120.100273">
				<speed>0.000000</speed>
				<ele>231.000000</ele>
				<time>2026-08-17T05:33:10Z</time>
			</trkpt>
			<trkpt lat="30.253321" lon="120.100267">
				<speed>0.000000</speed>
				<ele>231.000000</ele>
				<time>2026-08-17T05:33:11Z</time>
			</trkpt>
			<trkpt lat="30.253314" lon="120.100265">
				<speed>0.000000</speed>
				<ele>231.000000</ele>
				<time>2026-08-17T05:33:12Z</time>
			</trkpt>
			<trkpt lat="30.253307" lon="120.100263">
				<speed>0.000000</speed>
				<ele>231.000000</ele>
				<time>2026-08-17T05:33:13Z</time>
			</trkpt>
			<trkpt lat="30.253300" lon="120.100261">
				<speed>0.000000</speed>
				<ele>231.000000</ele>
				<time>2026-08-17T05:33:14Z</time>
			</trkpt>
			<trkpt lat="30.253279" lon="120.100256">
				<speed>0.000000</speed>
				<ele>231.000000</ele>
				<time>2026-08-17T05:33:15Z</time>
			</trkpt>
			<trkpt lat="30.253272" lon="120.100254">
				<speed>0.000000</speed>
				<ele>231.000000</ele>
				<time>2026-08-17T05:33:16Z</time>
			</trkpt>
			<trkpt lat="30.253264" lon="120.100252">
				<speed>0.000000</speed>
				<ele>231.000000</ele>
				<time>2026-08-17T05:33:17Z</time>
			</trkpt>
			<trkpt lat="30.253257" lon="120.100250">
				<speed>0.000000</speed>
				<ele>231.000000</ele>
				<time>2026-08-17T05:33:18Z</time>
			</trkpt>
			<trkpt lat="30.253238" lon="120.100244">
				<speed>0.000000</speed>
				<ele>231.000000</ele>
				<time>2026-08-17T05:33:19Z</time>
			</trkpt>
			<trkpt lat="30.253232" lon="120.100243">
				<speed>0.000000</speed>
				<ele>231.000000</ele>
				<time>2026-08-17T05:33:20Z</time>
			</trkpt>
			<trkpt lat="30.253227" lon="120.100241">
				<speed>0.000000</speed>
				<ele>232.000000</ele>
				<time>2026-08-17T05:33:21Z</time>
			</trkpt>
			<trkpt lat="30.253222" lon="120.100239">
				<speed>0.000000</speed>
				<ele>232.000000</ele>
				<time>2026-08-17T05:33:22Z</time>
			</trkpt>
			<trkpt lat="30.253219" lon="120.100233">
				<speed>0.000000</speed>
				<ele>232.000000</ele>
				<time>2026-08-17T05:33:28Z</time>
			</trkpt>
			<trkpt lat="30.253213" lon="120.100225">
				<speed>0.000000</speed>
				<ele>232.000000</ele>
				<time>2026-08-17T05:33:29Z</time>
			</trkpt>
			<trkpt lat="30.253210" lon="120.100223">
				<speed>0.000000</speed>
				<ele>232.000000</ele>
				<time>2026-08-17T05:33:30Z</time>
			</trkpt>
			<trkpt lat="30.253207" lon="120.100221">
				<speed>0.000000</speed>
				<ele>232.000000</ele>
				<time>2026-08-17T05:33:31Z</time>
			</trkpt>
			<trkpt lat="30.253204" lon="120.100219">
				<speed>0.000000</speed>
				<ele>232.000000</ele>
				<time>2026-08-17T05:33:32Z</time>
			</trkpt>
			<trkpt lat="30.253189" lon="120.100211">
				<speed>0.000000</speed>
				<ele>232.000000</ele>
				<time>2026-08-17T05:33:33Z</time>
			</trkpt>
			<trkpt lat="30.253182" lon="120.100208">
				<speed>0.000000</speed>
				<ele>232.000000</ele>
				<time>2026-08-17T05:33:34Z</time>
			</trkpt>
			<trkpt lat="30.253175" lon="120.100204">
				<speed>0.000000</speed>
				<ele>232.000000</ele>
				<time>2026-08-17T05:33:35Z</time>
			</trkpt>
			<trkpt lat="30.253168" lon="120.100201">
				<speed>0.000000</speed>
				<ele>232.000000</ele>
				<time>2026-08-17T05:33:36Z</time>
			</trkpt>
			<trkpt lat="30.253147" lon="120.100190">
				<speed>0.000000</speed>
				<ele>232.000000</ele>
				<time>2026-08-17T05:33:37Z</time>
			</trkpt>
			<trkpt lat="30.253140" lon="120.100186">
				<speed>0.000000</speed>
				<ele>232.000000</ele>
				<time>2026-08-17T05:33:38Z</time>
			</trkpt>
			<trkpt lat="30.253134" lon="120.100182">
				<speed>0.000000</speed>
				<ele>232.000000</ele>
				<time>2026-08-17T05:33:39Z</time>
			</trkpt>
			<trkpt lat="30.253127" lon="120.100178">
				<speed>0.000000</speed>
				<ele>232.000000</ele>
				<time>2026-08-17T05:33:40Z</time>
			</trkpt>
			<trkpt lat="30.253108" lon="120.100166">
				<speed>0.000000</speed>
				<ele>232.000000</ele>
				<time>2026-08-17T05:33:41Z</time>
			</trkpt>
			<trkpt lat="30.253102" lon="120.100162">
				<speed>0.000000</speed>
				<ele>232.000000</ele>
				<time>2026-08-17T05:33:42Z</time>
			</trkpt>
			<trkpt lat="30.253096" lon="120.100159">
				<speed>0.000000</speed>
				<ele>232.000000</ele>
				<time>2026-08-17T05:33:43Z</time>
			</trkpt>
			<trkpt lat="30.253090" lon="120.100155">
				<speed>0.000000</speed>
				<ele>232.000000</ele>
				<time>2026-08-17T05:33:44Z</time>
			</trkpt>
			<trkpt lat="30.253070" lon="120.100146">
				<speed>0.000000</speed>
				<ele>233.000000</ele>
				<time>2026-08-17T05:33:45Z</time>
			</trkpt>
			<trkpt lat="30.253062" lon="120.100143">
				<speed>0.000000</speed>
				<ele>233.000000</ele>
				<time>2026-08-17T05:33:46Z</time>
			</trkpt>
			<trkpt lat="30.253055" lon="120.100140">
				<speed>0.000000</speed>
				<ele>233.000000</ele>
				<time>2026-08-17T05:33:47Z</time>
			</trkpt>
			<trkpt lat="30.253048" lon="120.100137">
				<speed>0.000000</speed>
				<ele>233.000000</ele>
				<time>2026-08-17T05:33:48Z</time>
			</trkpt>
			<trkpt lat="30.253026" lon="120.100127">
				<speed>0.000000</speed>
				<ele>233.000000</ele>
				<time>2026-08-17T05:33:49Z</time>
			</trkpt>
			<trkpt lat="30.253018" lon="120.100124">
				<speed>0.000000</speed>
				<ele>233.000000</ele>
				<time>2026-08-17T05:33:50Z</time>
			</trkpt>
			<trkpt lat="30.253011" lon="120.100121">
				<speed>0.000000</speed>
				<ele>233.000000</ele>
				<time>2026-08-17T05:33:51Z</time>
			</trkpt>
			<trkpt lat="30.253004" lon="120.100118">
				<speed>0.000000</speed>
				<ele>233.000000</ele>
				<time>2026-08-17T05:33:52Z</time>
			</trkpt>
			<trkpt lat="30.252981" lon="120.100111">
				<speed>0.000000</speed>
				<ele>233.000000</ele>
				<time>2026-08-17T05:33:53Z</time>
			</trkpt>
			<trkpt lat="30.252974" lon="120.100109">
				<speed>0.000000</speed>
				<ele>233.000000</ele>
				<time>2026-08-17T05:33:54Z</time>
			</trkpt>
			<trkpt lat="30.252967" lon="120.100107">
				<speed>0.000000</speed>
				<ele>233.000000</ele>
				<time>2026-08-17T05:33:55Z</time>
			</trkpt>
			<trkpt lat="30.252961" lon="120.100105">
				<speed>0.000000</speed>
				<ele>233.000000</ele>
				<time>2026-08-17T05:33:56Z</time>
			</trkpt>
			<trkpt lat="30.252942" lon="120.100101">
				<speed>0.000000</speed>
				<ele>233.000000</ele>
				<time>2026-08-17T05:33:57Z</time>
			</trkpt>
			<trkpt lat="30.252935" lon="120.100099">
				<speed>0.000000</speed>
				<ele>233.000000</ele>
				<time>2026-08-17T05:33:58Z</time>
			</trkpt>
			<trkpt lat="30.252928" lon="120.100097">
				<speed>0.000000</speed>
				<ele>233.000000</ele>
				<time>2026-08-17T05:33:59Z</time>
			</trkpt>
			<trkpt lat="30.252921" lon="120.100096">
				<speed>0.000000</speed>
				<ele>233.000000</ele>
				<time>2026-08-17T05:34:00Z</time>
			</trkpt>
			<trkpt lat="30.252901" lon="120.100091">
				<speed>0.000000</speed>
				<ele>233.000000</ele>
				<time>2026-08-17T05:34:01Z</time>
			</trkpt>
			<trkpt lat="30.252894" lon="120.100089">
				<speed>0.000000</speed>
				<ele>233.000000</ele>
				<time>2026-08-17T05:34:02Z</time>
			</trkpt>
			<trkpt lat="30.252887" lon="120.100088">
				<speed>0.000000</speed>
				<ele>233.000000</ele>
				<time>2026-08-17T05:34:03Z</time>
			</trkpt>
			<trkpt lat="30.252880" lon="120.100086">
				<speed>0.000000</speed>
				<ele>233.000000</ele>
				<time>2026-08-17T05:34:04Z</time>
			</trkpt>
			<trkpt lat="30.252860" lon="120.100082">
				<speed>0.000000</speed>
				<ele>234.000000</ele>
				<time>2026-08-17T05:34:05Z</time>
			</trkpt>
			<trkpt lat="30.252853" lon="120.100080">
				<speed>0.000000</speed>
				<ele>234.000000</ele>
				<time>2026-08-17T05:34:06Z</time>
			</trkpt>
			<trkpt lat="30.252846" lon="120.100079">
				<speed>0.000000</speed>
				<ele>234.000000</ele>
				<time>2026-08-17T05:34:07Z</time>
			</trkpt>
			<trkpt lat="30.252839" lon="120.100077">
				<speed>0.000000</speed>
				<ele>234.000000</ele>
				<time>2026-08-17T05:34:08Z</time>
			</trkpt>
			<trkpt lat="30.252818" lon="120.100069">
				<speed>0.000000</speed>
				<ele>234.000000</ele>
				<time>2026-08-17T05:34:09Z</time>
			</trkpt>
			<trkpt lat="30.252811" lon="120.100065">
				<speed>0.000000</speed>
				<ele>234.000000</ele>
				<time>2026-08-17T05:34:10Z</time>
			</trkpt>
			<trkpt lat="30.252804" lon="120.100062">
				<speed>0.000000</speed>
				<ele>234.000000</ele>
				<time>2026-08-17T05:34:11Z</time>
			</trkpt>
			<trkpt lat="30.252797" lon="120.100058">
				<speed>0.000000</speed>
				<ele>234.000000</ele>
				<time>2026-08-17T05:34:12Z</time>
			</trkpt>
			<trkpt lat="30.252777" lon="120.100044">
				<speed>0.000000</speed>
				<ele>234.000000</ele>
				<time>2026-08-17T05:34:13Z</time>
			</trkpt>
			<trkpt lat="30.252770" lon="120.100040">
				<speed>0.000000</speed>
				<ele>234.000000</ele>
				<time>2026-08-17T05:34:14Z</time>
			</trkpt>
			<trkpt lat="30.252763" lon="120.100035">
				<speed>0.000000</speed>
				<ele>234.000000</ele>
				<time>2026-08-17T05:34:15Z</time>
			</trkpt>
			<trkpt lat="30.252756" lon="120.100031">
				<speed>0.000000</speed>
				<ele>234.000000</ele>
				<time>2026-08-17T05:34:16Z</time>
			</trkpt>
			<trkpt lat="30.252735" lon="120.100019">
				<speed>0.000000</speed>
				<ele>235.000000</ele>
				<time>2026-08-17T05:34:17Z</time>
			</trkpt>
			<trkpt lat="30.252727" lon="120.100016">
				<speed>0.000000</speed>
				<ele>235.000000</ele>
				<time>2026-08-17T05:34:18Z</time>
			</trkpt>
			<trkpt lat="30.252720" lon="120.100013">
				<speed>0.000000</speed>
				<ele>235.000000</ele>
				<time>2026-08-17T05:34:19Z</time>
			</trkpt>
			<trkpt lat="30.252713" lon="120.100010">
				<speed>0.000000</speed>
				<ele>235.000000</ele>
				<time>2026-08-17T05:34:20Z</time>
			</trkpt>
			<trkpt lat="30.252690" lon="120.100005">
				<speed>0.000000</speed>
				<ele>235.000000</ele>
				<time>2026-08-17T05:34:21Z</time>
			</trkpt>
			<trkpt lat="30.252683" lon="120.100005">
				<speed>0.000000</speed>
				<ele>235.000000</ele>
				<time>2026-08-17T05:34:22Z</time>
			</trkpt>
			<trkpt lat="30.252675" lon="120.100004">
				<speed>0.000000</speed>
				<ele>235.000000</ele>
				<time>2026-08-17T05:34:23Z</time>
			</trkpt>
			<trkpt lat="30.252668" lon="120.100003">
				<speed>0.000000</speed>
				<ele>235.000000</ele>
				<time>2026-08-17T05:34:24Z</time>
			</trkpt>
			<trkpt lat="30.252647" lon="120.100003">
				<speed>0.000000</speed>
				<ele>235.000000</ele>
				<time>2026-08-17T05:34:25Z</time>
			</trkpt>
			<trkpt lat="30.252642" lon="120.100005">
				<speed>0.000000</speed>
				<ele>235.000000</ele>
				<time>2026-08-17T05:34:26Z</time>
			</trkpt>
			<trkpt lat="30.252637" lon="120.100006">
				<speed>0.000000</speed>
				<ele>235.000000</ele>
				<time>2026-08-17T05:34:27Z</time>
			</trkpt>
			<trkpt lat="30.252631" lon="120.100008">
				<speed>0.000000</speed>
				<ele>235.000000</ele>
				<time>2026-08-17T05:34:28Z</time>
			</trkpt>
			<trkpt lat="30.252617" lon="120.100015">
				<speed>0.000000</speed>
				<ele>236.000000</ele>
				<time>2026-08-17T05:34:29Z</time>
			</trkpt>
			<trkpt lat="30.252612" lon="120.100017">
				<speed>0.000000</speed>
				<ele>236.000000</ele>
				<time>2026-08-17T05:34:30Z</time>
			</trkpt>
			<trkpt lat="30.252607" lon="120.100019">
				<speed>0.000000</speed>
				<ele>236.000000</ele>
				<time>2026-08-17T05:34:31Z</time>
			</trkpt>
			<trkpt lat="30.252602" lon="120.100022">
				<speed>0.000000</speed>
				<ele>236.000000</ele>
				<time>2026-08-17T05:34:32Z</time>
			</trkpt>
			<trkpt lat="30.252585" lon="120.100029">
				<speed>0.000000</speed>
				<ele>236.000000</ele>
				<time>2026-08-17T05:34:33Z</time>
			</trkpt>
			<trkpt lat="30.252578" lon="120.100032">
				<speed>0.000000</speed>
				<ele>236.000000</ele>
				<time>2026-08-17T05:34:34Z</time>
			</trkpt>
			<trkpt lat="30.252572" lon="120.100034">
				<speed>0.000000</speed>
				<ele>236.000000</ele>
				<time>2026-08-17T05:34:35Z</time>
			</trkpt>
			<trkpt lat="30.252565" lon="120.100037">
				<speed>0.000000</speed>
				<ele>236.000000</ele>
				<time>2026-08-17T05:34:36Z</time>
			</trkpt>
			<trkpt lat="30.252546" lon="120.100045">
				<speed>0.000000</speed>
				<ele>236.000000</ele>
				<time>2026-08-17T05:34:37Z</time>
			</trkpt>
			<trkpt lat="30.252539" lon="120.100048">
				<speed>0.000000</speed>
				<ele>236.000000</ele>
				<time>2026-08-17T05:34:38Z</time>
			</trkpt>
			<trkpt lat="30.252533" lon="120.100052">
				<speed>0.000000</speed>
				<ele>236.000000</ele>
				<time>2026-08-17T05:34:39Z</time>
			</trkpt>
			<trkpt lat="30.252527" lon="120.100055">
				<speed>0.000000</speed>
				<ele>236.000000</ele>
				<time>2026-08-17T05:34:40Z</time>
			</trkpt>
			<trkpt lat="30.252508" lon="120.100073">
				<speed>0.000000</speed>
				<ele>236.000000</ele>
				<time>2026-08-17T05:34:41Z</time>
			</trkpt>
			<trkpt lat="30.252501" lon="120.100080">
				<speed>0.000000</speed>
				<ele>236.000000</ele>
				<time>2026-08-17T05:34:42Z</time>
			</trkpt>
			<trkpt lat="30.252494" lon="120.100087">
				<speed>0.000000</speed>
				<ele>236.000000</ele>
				<time>2026-08-17T05:34:43Z</time>
			</trkpt>
			<trkpt lat="30.252487" lon="120.100094">
				<speed>0.000000</speed>
				<ele>236.000000</ele>
				<time>2026-08-17T05:34:44Z</time>
			</trkpt>
			<trkpt lat="30.252462" lon="120.100121">
				<speed>0.000000</speed>
				<ele>236.000000</ele>
				<time>2026-08-17T05:34:45Z</time>
			</trkpt>
			<trkpt lat="30.252451" lon="120.100131">
				<speed>0.000000</speed>
				<ele>236.000000</ele>
				<time>2026-08-17T05:34:46Z</time>
			</trkpt>
			<trkpt lat="30.252440" lon="120.100140">
				<speed>0.000000</speed>
				<ele>236.000000</ele>
				<time>2026-08-17T05:34:47Z</time>
			</trkpt>
			<trkpt lat="30.252428" lon="120.100150">
				<speed>0.000000</speed>
				<ele>236.000000</ele>
				<time>2026-08-17T05:34:48Z</time>
			</trkpt>
			<trkpt lat="30.252388" lon="120.100177">
				<speed>0.000000</speed>
				<ele>236.000000</ele>
				<time>2026-08-17T05:34:49Z</time>
			</trkpt>
			<trkpt lat="30.252375" lon="120.100187">
				<speed>0.000000</speed>
				<ele>235.000000</ele>
				<time>2026-08-17T05:34:50Z</time>
			</trkpt>
			<trkpt lat="30.252362" lon="120.100196">
				<speed>0.000000</speed>
				<ele>235.000000</ele>
				<time>2026-08-17T05:34:51Z</time>
			</trkpt>
			<trkpt lat="30.252349" lon="120.100206">
				<speed>0.000000</speed>
				<ele>235.000000</ele>
				<time>2026-08-17T05:34:52Z</time>
			</trkpt>
			<trkpt lat="30.252313" lon="120.100238">
				<speed>0.000000</speed>
				<ele>235.000000</ele>
				<time>2026-08-17T05:34:53Z</time>
			</trkpt>
			<trkpt lat="30.252302" lon="120.100249">
				<speed>0.000000</speed>
				<ele>234.000000</ele>
				<time>2026-08-17T05:34:54Z</time>
			</trkpt>
			<trkpt lat="30.252292" lon="120.100260">
				<speed>0.000000</speed>
				<ele>234.000000</ele>
				<time>2026-08-17T05:34:55Z</time>
			</trkpt>
			<trkpt lat="30.252281" lon="120.100271">
				<speed>0.000000</speed>
				<ele>233.000000</ele>
				<time>2026-08-17T05:34:56Z</time>
			</trkpt>
			<trkpt lat="30.252252" lon="120.100305">
				<speed>0.000000</speed>
				<ele>233.000000</ele>
				<time>2026-08-17T05:34:57Z</time>
			</trkpt>
			<trkpt lat="30.252243" lon="120.100318">
				<speed>0.000000</speed>
				<ele>232.000000</ele>
				<time>2026-08-17T05:34:58Z</time>
			</trkpt>
			<trkpt lat="30.252234" lon="120.100330">
				<speed>0.000000</speed>
				<ele>232.000000</ele>
				<time>2026-08-17T05:34:59Z</time>
			</trkpt>
			<trkpt lat="30.252225" lon="120.100343">
				<speed>0.000000</speed>
				<ele>231.000000</ele>
				<time>2026-08-17T05:35:00Z</time>
			</trkpt>
			<trkpt lat="30.252206" lon="120.100383">
				<speed>0.000000</speed>
				<ele>231.000000</ele>
				<time>2026-08-17T05:35:01Z</time>
			</trkpt>
			<trkpt lat="30.252202" lon="120.100398">
				<speed>0.000000</speed>
				<ele>230.000000</ele>
				<time>2026-08-17T05:35:02Z</time>
			</trkpt>
			<trkpt lat="30.252199" lon="120.100413">
				<speed>0.000000</speed>
				<ele>230.000000</ele>
				<time>2026-08-17T05:35:03Z</time>
			</trkpt>
			<trkpt lat="30.252195" lon="120.100428">
				<speed>0.000000</speed>
				<ele>229.000000</ele>
				<time>2026-08-17T05:35:04Z</time>
			</trkpt>
			<trkpt lat="30.252183" lon="120.100479">
				<speed>0.000000</speed>
				<ele>229.000000</ele>
				<time>2026-08-17T05:35:05Z</time>
			</trkpt>
			<trkpt lat="30.252178" lon="120.100497">
				<speed>0.000000</speed>
				<ele>228.000000</ele>
				<time>2026-08-17T05:35:06Z</time>
			</trkpt>
			<trkpt lat="30.252174" lon="120.100516">
				<speed>0.000000</speed>
				<ele>227.000000</ele>
				<time>2026-08-17T05:35:07Z</time>
			</trkpt>
			<trkpt lat="30.252170" lon="120.100534">
				<speed>0.000000</speed>
				<ele>226.000000</ele>
				<time>2026-08-17T05:35:08Z</time>
			</trkpt>
			<trkpt lat="30.252158" lon="120.100587">
				<speed>0.000000</speed>
				<ele>226.000000</ele>
				<time>2026-08-17T05:35:09Z</time>
			</trkpt>
			<trkpt lat="30.252157" lon="120.100604">
				<speed>0.000000</speed>
				<ele>225.000000</ele>
				<time>2026-08-17T05:35:10Z</time>
			</trkpt>
			<trkpt lat="30.252155" lon="120.100622">
				<speed>0.000000</speed>
				<ele>225.000000</ele>
				<time>2026-08-17T05:35:11Z</time>
			</trkpt>
			<trkpt lat="30.252154" lon="120.100639">
				<speed>0.000000</speed>
				<ele>224.000000</ele>
				<time>2026-08-17T05:35:12Z</time>
			</trkpt>
			<trkpt lat="30.252154" lon="120.100688">
				<speed>0.000000</speed>
				<ele>224.000000</ele>
				<time>2026-08-17T05:35:13Z</time>
			</trkpt>
			<trkpt lat="30.252155" lon="120.100703">
				<speed>0.000000</speed>
				<ele>223.000000</ele>
				<time>2026-08-17T05:35:14Z</time>
			</trkpt>
			<trkpt lat="30.252157" lon="120.100718">
				<speed>0.000000</speed>
				<ele>223.000000</ele>
				<time>2026-08-17T05:35:15Z</time>
			</trkpt>
			<trkpt lat="30.252158" lon="120.100733">
				<speed>0.000000</speed>
				<ele>222.000000</ele>
				<time>2026-08-17T05:35:16Z</time>
			</trkpt>
			<trkpt lat="30.252165" lon="120.100772">
				<speed>0.000000</speed>
				<ele>222.000000</ele>
				<time>2026-08-17T05:35:17Z</time>
			</trkpt>
			<trkpt lat="30.252167" lon="120.100783">
				<speed>0.000000</speed>
				<ele>221.000000</ele>
				<time>2026-08-17T05:35:18Z</time>
			</trkpt>
			<trkpt lat="30.252169" lon="120.100795">
				<speed>0.000000</speed>
				<ele>221.000000</ele>
				<time>2026-08-17T05:35:19Z</time>
			</trkpt>
			<trkpt lat="30.252171" lon="120.100806">
				<speed>0.000000</speed>
				<ele>221.000000</ele>
				<time>2026-08-17T05:35:20Z</time>
			</trkpt>
			<trkpt lat="30.252177" lon="120.100836">
				<speed>0.000000</speed>
				<ele>221.000000</ele>
				<time>2026-08-17T05:35:21Z</time>
			</trkpt>
			<trkpt lat="30.252179" lon="120.100846">
				<speed>0.000000</speed>
				<ele>220.000000</ele>
				<time>2026-08-17T05:35:22Z</time>
			</trkpt>
			<trkpt lat="30.252181" lon="120.100856">
				<speed>0.000000</speed>
				<ele>220.000000</ele>
				<time>2026-08-17T05:35:23Z</time>
			</trkpt>
			<trkpt lat="30.252182" lon="120.100866">
				<speed>0.000000</speed>
				<ele>220.000000</ele>
				<time>2026-08-17T05:35:24Z</time>
			</trkpt>
			<trkpt lat="30.252185" lon="120.100898">
				<speed>0.000000</speed>
				<ele>220.000000</ele>
				<time>2026-08-17T05:35:25Z</time>
			</trkpt>
			<trkpt lat="30.252185" lon="120.100911">
				<speed>0.000000</speed>
				<ele>219.000000</ele>
				<time>2026-08-17T05:35:26Z</time>
			</trkpt>
			<trkpt lat="30.252184" lon="120.100924">
				<speed>0.000000</speed>
				<ele>219.000000</ele>
				<time>2026-08-17T05:35:27Z</time>
			</trkpt>
			<trkpt lat="30.252184" lon="120.100937">
				<speed>0.000000</speed>
				<ele>219.000000</ele>
				<time>2026-08-17T05:35:28Z</time>
			</trkpt>
			<trkpt lat="30.252184" lon="120.100979">
				<speed>0.000000</speed>
				<ele>219.000000</ele>
				<time>2026-08-17T05:35:29Z</time>
			</trkpt>
			<trkpt lat="30.252187" lon="120.100991">
				<speed>0.000000</speed>
				<ele>218.000000</ele>
				<time>2026-08-17T05:35:30Z</time>
			</trkpt>
			<trkpt lat="30.252189" lon="120.101003">
				<speed>0.000000</speed>
				<ele>218.000000</ele>
				<time>2026-08-17T05:35:31Z</time>
			</trkpt>
			<trkpt lat="30.252191" lon="120.101015">
				<speed>0.000000</speed>
				<ele>218.000000</ele>
				<time>2026-08-17T05:35:32Z</time>
			</trkpt>
			<trkpt lat="30.252204" lon="120.101047">
				<speed>0.000000</speed>
				<ele>218.000000</ele>
				<time>2026-08-17T05:35:33Z</time>
			</trkpt>
			<trkpt lat="30.252209" lon="120.101057">
				<speed>0.000000</speed>
				<ele>218.000000</ele>
				<time>2026-08-17T05:35:34Z</time>
			</trkpt>
			<trkpt lat="30.252213" lon="120.101067">
				<speed>0.000000</speed>
				<ele>218.000000</ele>
				<time>2026-08-17T05:35:35Z</time>
			</trkpt>
			<trkpt lat="30.252217" lon="120.101077">
				<speed>0.000000</speed>
				<ele>218.000000</ele>
				<time>2026-08-17T05:35:36Z</time>
			</trkpt>
			<trkpt lat="30.252229" lon="120.101109">
				<speed>0.000000</speed>
				<ele>218.000000</ele>
				<time>2026-08-17T05:35:37Z</time>
			</trkpt>
			<trkpt lat="30.252232" lon="120.101120">
				<speed>0.000000</speed>
				<ele>218.000000</ele>
				<time>2026-08-17T05:35:38Z</time>
			</trkpt>
			<trkpt lat="30.252235" lon="120.101132">
				<speed>0.000000</speed>
				<ele>218.000000</ele>
				<time>2026-08-17T05:35:39Z</time>
			</trkpt>
			<trkpt lat="30.252238" lon="120.101143">
				<speed>0.000000</speed>
				<ele>218.000000</ele>
				<time>2026-08-17T05:35:40Z</time>
			</trkpt>
			<trkpt lat="30.252244" lon="120.101178">
				<speed>0.000000</speed>
				<ele>218.000000</ele>
				<time>2026-08-17T05:35:41Z</time>
			</trkpt>
			<trkpt lat="30.252246" lon="120.101190">
				<speed>0.000000</speed>
				<ele>217.000000</ele>
				<time>2026-08-17T05:35:42Z</time>
			</trkpt>
			<trkpt lat="30.252247" lon="120.101202">
				<speed>0.000000</speed>
				<ele>217.000000</ele>
				<time>2026-08-17T05:35:43Z</time>
			</trkpt>
			<trkpt lat="30.252249" lon="120.101214">
				<speed>0.000000</speed>
				<ele>217.000000</ele>
				<time>2026-08-17T05:35:44Z</time>
			</trkpt>
			<trkpt lat="30.252254" lon="120.101251">
				<speed>0.000000</speed>
				<ele>217.000000</ele>
				<time>2026-08-17T05:35:45Z</time>
			</trkpt>
			<trkpt lat="30.252255" lon="120.101264">
				<speed>0.000000</speed>
				<ele>216.000000</ele>
				<time>2026-08-17T05:35:46Z</time>
			</trkpt>
			<trkpt lat="30.252257" lon="120.101277">
				<speed>0.000000</speed>
				<ele>216.000000</ele>
				<time>2026-08-17T05:35:47Z</time>
			</trkpt>
			<trkpt lat="30.252258" lon="120.101290">
				<speed>0.000000</speed>
				<ele>215.000000</ele>
				<time>2026-08-17T05:35:48Z</time>
			</trkpt>
			<trkpt lat="30.252260" lon="120.101330">
				<speed>0.000000</speed>
				<ele>215.000000</ele>
				<time>2026-08-17T05:35:49Z</time>
			</trkpt>
			<trkpt lat="30.252260" lon="120.101343">
				<speed>0.000000</speed>
				<ele>214.000000</ele>
				<time>2026-08-17T05:35:50Z</time>
			</trkpt>
			<trkpt lat="30.252260" lon="120.101357">
				<speed>0.000000</speed>
				<ele>214.000000</ele>
				<time>2026-08-17T05:35:51Z</time>
			</trkpt>
			<trkpt lat="30.252260" lon="120.101371">
				<speed>0.000000</speed>
				<ele>214.000000</ele>
				<time>2026-08-17T05:35:52Z</time>
			</trkpt>
			<trkpt lat="30.252262" lon="120.101414">
				<speed>0.000000</speed>
				<ele>214.000000</ele>
				<time>2026-08-17T05:35:53Z</time>
			</trkpt>
			<trkpt lat="30.252264" lon="120.101429">
				<speed>0.000000</speed>
				<ele>213.000000</ele>
				<time>2026-08-17T05:35:54Z</time>
			</trkpt>
			<trkpt lat="30.252266" lon="120.101444">
				<speed>0.000000</speed>
				<ele>213.000000</ele>
				<time>2026-08-17T05:35:55Z</time>
			</trkpt>
			<trkpt lat="30.252268" lon="120.101459">
				<speed>0.000000</speed>
				<ele>212.000000</ele>
				<time>2026-08-17T05:35:56Z</time>
			</trkpt>
			<trkpt lat="30.252278" lon="120.101504">
				<speed>0.000000</speed>
				<ele>212.000000</ele>
				<time>2026-08-17T05:35:57Z</time>
			</trkpt>
			<trkpt lat="30.252283" lon="120.101518">
				<speed>0.000000</speed>
				<ele>211.000000</ele>
				<time>2026-08-17T05:35:58Z</time>
			</trkpt>
			<trkpt lat="30.252287" lon="120.101532">
				<speed>0.000000</speed>
				<ele>211.000000</ele>
				<time>2026-08-17T05:35:59Z</time>
			</trkpt>
			<trkpt lat="30.252291" lon="120.101546">
				<speed>0.000000</speed>
				<ele>210.000000</ele>
				<time>2026-08-17T05:36:00Z</time>
			</trkpt>
			<trkpt lat="30.252307" lon="120.101582">
				<speed>0.000000</speed>
				<ele>210.000000</ele>
				<time>2026-08-17T05:36:01Z</time>
			</trkpt>
			<trkpt lat="30.252314" lon="120.101590">
				<speed>0.000000</speed>
				<ele>209.000000</ele>
				<time>2026-08-17T05:36:02Z</time>
			</trkpt>
			<trkpt lat="30.252321" lon="120.101600">
				<speed>0.000000</speed>
				<ele>208.000000</ele>
				<time>2026-08-17T05:36:03Z</time>
			</trkpt>
			<trkpt lat="30.252329" lon="120.101609">
				<speed>0.000000</speed>
				<ele>207.000000</ele>
				<time>2026-08-17T05:36:04Z</time>
			</trkpt>
			<trkpt lat="30.252354" lon="120.101629">
				<speed>0.000000</speed>
				<ele>207.000000</ele>
				<time>2026-08-17T05:36:05Z</time>
			</trkpt>
			<trkpt lat="30.252361" lon="120.101633">
				<speed>0.000000</speed>
				<ele>206.000000</ele>
				<time>2026-08-17T05:36:06Z</time>
			</trkpt>
			<trkpt lat="30.252369" lon="120.101639">
				<speed>0.000000</speed>
				<ele>206.000000</ele>
				<time>2026-08-17T05:36:07Z</time>
			</trkpt>
			<trkpt lat="30.252377" lon="120.101644">
				<speed>0.000000</speed>
				<ele>205.000000</ele>
				<time>2026-08-17T05:36:08Z</time>
			</trkpt>
			<trkpt lat="30.252396" lon="120.101656">
				<speed>0.000000</speed>
				<ele>205.000000</ele>
				<time>2026-08-17T05:36:09Z</time>
			</trkpt>
			<trkpt lat="30.252402" lon="120.101661">
				<speed>0.000000</speed>
				<ele>204.000000</ele>
				<time>2026-08-17T05:36:10Z</time>
			</trkpt>
			<trkpt lat="30.252407" lon="120.101665">
				<speed>0.000000</speed>
				<ele>203.000000</ele>
				<time>2026-08-17T05:36:11Z</time>
			</trkpt>
			<trkpt lat="30.252412" lon="120.101669">
				<speed>0.000000</speed>
				<ele>202.000000</ele>
				<time>2026-08-17T05:36:12Z</time>
			</trkpt>
			<trkpt lat="30.252428" lon="120.101683">
				<speed>0.000000</speed>
				<ele>202.000000</ele>
				<time>2026-08-17T05:36:13Z</time>
			</trkpt>
			<trkpt lat="30.252434" lon="120.101688">
				<speed>0.000000</speed>
				<ele>201.000000</ele>
				<time>2026-08-17T05:36:14Z</time>
			</trkpt>
			<trkpt lat="30.252440" lon="120.101693">
				<speed>0.000000</speed>
				<ele>201.000000</ele>
				<time>2026-08-17T05:36:15Z</time>
			</trkpt>
			<trkpt lat="30.252447" lon="120.101698">
				<speed>0.000000</speed>
				<ele>201.000000</ele>
				<time>2026-08-17T05:36:16Z</time>
			</trkpt>
			<trkpt lat="30.252472" lon="120.101714">
				<speed>0.000000</speed>
				<ele>201.000000</ele>
				<time>2026-08-17T05:36:17Z</time>
			</trkpt>
			<trkpt lat="30.252483" lon="120.101720">
				<speed>0.000000</speed>
				<ele>200.000000</ele>
				<time>2026-08-17T05:36:18Z</time>
			</trkpt>
			<trkpt lat="30.252494" lon="120.101725">
				<speed>0.000000</speed>
				<ele>200.000000</ele>
				<time>2026-08-17T05:36:19Z</time>
			</trkpt>
			<trkpt lat="30.252505" lon="120.101731">
				<speed>0.000000</speed>
				<ele>200.000000</ele>
				<time>2026-08-17T05:36:20Z</time>
			</trkpt>
			<trkpt lat="30.252542" lon="120.101751">
				<speed>0.000000</speed>
				<ele>200.000000</ele>
				<time>2026-08-17T05:36:21Z</time>
			</trkpt>
			<trkpt lat="30.252555" lon="120.101760">
				<speed>0.000000</speed>
				<ele>199.000000</ele>
				<time>2026-08-17T05:36:22Z</time>
			</trkpt>
			<trkpt lat="30.252568" lon="120.101768">
				<speed>0.000000</speed>
				<ele>199.000000</ele>
				<time>2026-08-17T05:36:23Z</time>
			</trkpt>
			<trkpt lat="30.252580" lon="120.101776">
				<speed>0.000000</speed>
				<ele>199.000000</ele>
				<time>2026-08-17T05:36:24Z</time>
			</trkpt>
			<trkpt lat="30.252617" lon="120.101806">
				<speed>0.000000</speed>
				<ele>199.000000</ele>
				<time>2026-08-17T05:36:25Z</time>
			</trkpt>
			<trkpt lat="30.252629" lon="120.101818">
				<speed>0.000000</speed>
				<ele>198.000000</ele>
				<time>2026-08-17T05:36:26Z</time>
			</trkpt>
			<trkpt lat="30.252640" lon="120.101829">
				<speed>0.000000</speed>
				<ele>198.000000</ele>
				<time>2026-08-17T05:36:27Z</time>
			</trkpt>
			<trkpt lat="30.252652" lon="120.101840">
				<speed>0.000000</speed>
				<ele>198.000000</ele>
				<time>2026-08-17T05:36:28Z</time>
			</trkpt>
			<trkpt lat="30.252686" lon="120.101876">
				<speed>0.000000</speed>
				<ele>198.000000</ele>
				<time>2026-08-17T05:36:29Z</time>
			</trkpt>
			<trkpt lat="30.252698" lon="120.101888">
				<speed>0.000000</speed>
				<ele>197.000000</ele>
				<time>2026-08-17T05:36:30Z</time>
			</trkpt>
			<trkpt lat="30.252709" lon="120.101900">
				<speed>0.000000</speed>
				<ele>197.000000</ele>
				<time>2026-08-17T05:36:31Z</time>
			</trkpt>
			<trkpt lat="30.252720" lon="120.101912">
				<speed>0.000000</speed>
				<ele>197.000000</ele>
				<time>2026-08-17T05:36:32Z</time>
			</trkpt>
			<trkpt lat="30.252755" lon="120.101944">
				<speed>0.000000</speed>
				<ele>197.000000</ele>
				<time>2026-08-17T05:36:33Z</time>
			</trkpt>
			<trkpt lat="30.252768" lon="120.101955">
				<speed>0.000000</speed>
				<ele>196.000000</ele>
				<time>2026-08-17T05:36:34Z</time>
			</trkpt>
			<trkpt lat="30.252782" lon="120.101966">
				<speed>0.000000</speed>
				<ele>196.000000</ele>
				<time>2026-08-17T05:36:35Z</time>
			</trkpt>
			<trkpt lat="30.252795" lon="120.101977">
				<speed>0.000000</speed>
				<ele>196.000000</ele>
				<time>2026-08-17T05:36:36Z</time>
			</trkpt>
			<trkpt lat="30.252840" lon="120.102015">
				<speed>0.000000</speed>
				<ele>196.000000</ele>
				<time>2026-08-17T05:36:37Z</time>
			</trkpt>
			<trkpt lat="30.252855" lon="120.102030">
				<speed>0.000000</speed>
				<ele>195.000000</ele>
				<time>2026-08-17T05:36:38Z</time>
			</trkpt>
			<trkpt lat="30.252871" lon="120.102045">
				<speed>0.000000</speed>
				<ele>195.000000</ele>
				<time>2026-08-17T05:36:39Z</time>
			</trkpt>
			<trkpt lat="30.252886" lon="120.102059">
				<speed>0.000000</speed>
				<ele>195.000000</ele>
				<time>2026-08-17T05:36:40Z</time>
			</trkpt>
			<trkpt lat="30.252929" lon="120.102107">
				<speed>0.000000</speed>
				<ele>195.000000</ele>
				<time>2026-08-17T05:36:41Z</time>
			</trkpt>
			<trkpt lat="30.252942" lon="120.102124">
				<speed>0.000000</speed>
				<ele>194.000000</ele>
				<time>2026-08-17T05:36:42Z</time>
			</trkpt>
			<trkpt lat="30.252954" lon="120.102142">
				<speed>0.000000</speed>
				<ele>194.000000</ele>
				<time>2026-08-17T05:36:43Z</time>
			</trkpt>
			<trkpt lat="30.252967" lon="120.102160">
				<speed>0.000000</speed>
				<ele>193.000000</ele>
				<time>2026-08-17T05:36:44Z</time>
			</trkpt>
			<trkpt lat="30.253003" lon="120.102216">
				<speed>0.000000</speed>
				<ele>193.000000</ele>
				<time>2026-08-17T05:36:45Z</time>
			</trkpt>
			<trkpt lat="30.253013" lon="120.102235">
				<speed>0.000000</speed>
				<ele>192.000000</ele>
				<time>2026-08-17T05:36:46Z</time>
			</trkpt>
			<trkpt lat="30.253024" lon="120.102254">
				<speed>0.000000</speed>
				<ele>192.000000</ele>
				<time>2026-08-17T05:36:47Z</time>
			</trkpt>
			<trkpt lat="30.253034" lon="120.102273">
				<speed>0.000000</speed>
				<ele>191.000000</ele>
				<time>2026-08-17T05:36:48Z</time>
			</trkpt>
			<trkpt lat="30.253063" lon="120.102333">
				<speed>0.000000</speed>
				<ele>191.000000</ele>
				<time>2026-08-17T05:36:49Z</time>
			</trkpt>
			<trkpt lat="30.253073" lon="120.102353">
				<speed>0.000000</speed>
				<ele>190.000000</ele>
				<time>2026-08-17T05:36:50Z</time>
			</trkpt>
			<trkpt lat="30.253083" lon="120.102374">
				<speed>0.000000</speed>
				<ele>190.000000</ele>
				<time>2026-08-17T05:36:51Z</time>
			</trkpt>
			<trkpt lat="30.253093" lon="120.102394">
				<speed>0.000000</speed>
				<ele>190.000000</ele>
				<time>2026-08-17T05:36:52Z</time>
			</trkpt>
			<trkpt lat="30.253121" lon="120.102452">
				<speed>0.000000</speed>
				<ele>190.000000</ele>
				<time>2026-08-17T05:36:53Z</time>
			</trkpt>
			<trkpt lat="30.253130" lon="120.102470">
				<speed>0.000000</speed>
				<ele>189.000000</ele>
				<time>2026-08-17T05:36:54Z</time>
			</trkpt>
			<trkpt lat="30.253140" lon="120.102488">
				<speed>0.000000</speed>
				<ele>189.000000</ele>
				<time>2026-08-17T05:36:55Z</time>
			</trkpt>
			<trkpt lat="30.253150" lon="120.102505">
				<speed>0.000000</speed>
				<ele>188.000000</ele>
				<time>2026-08-17T05:36:56Z</time>
			</trkpt>
			<trkpt lat="30.253179" lon="120.102550">
				<speed>0.000000</speed>
				<ele>188.000000</ele>
				<time>2026-08-17T05:36:57Z</time>
			</trkpt>
			<trkpt lat="30.253186" lon="120.102558">
				<speed>0.000000</speed>
				<ele>187.000000</ele>
				<time>2026-08-17T05:36:58Z</time>
			</trkpt>
			<trkpt lat="30.253193" lon="120.102567">
				<speed>0.000000</speed>
				<ele>187.000000</ele>
				<time>2026-08-17T05:36:59Z</time>
			</trkpt>
			<trkpt lat="30.253200" lon="120.102576">
				<speed>0.000000</speed>
				<ele>187.000000</ele>
				<time>2026-08-17T05:37:00Z</time>
			</trkpt>
			<trkpt lat="30.253215" lon="120.102584">
				<speed>0.000000</speed>
				<ele>187.000000</ele>
				<time>2026-08-17T05:37:01Z</time>
			</trkpt>
			<trkpt lat="30.253219" lon="120.102584">
				<speed>0.000000</speed>
				<ele>186.000000</ele>
				<time>2026-08-17T05:37:02Z</time>
			</trkpt>
			<trkpt lat="30.253224" lon="120.102584">
				<speed>0.000000</speed>
				<ele>186.000000</ele>
				<time>2026-08-17T05:37:03Z</time>
			</trkpt>
			<trkpt lat="30.253228" lon="120.102585">
				<speed>0.000000</speed>
				<ele>186.000000</ele>
				<time>2026-08-17T05:37:04Z</time>
			</trkpt>
			<trkpt lat="30.253243" lon="120.102585">
				<speed>0.000000</speed>
				<ele>186.000000</ele>
				<time>2026-08-17T05:37:05Z</time>
			</trkpt>
			<trkpt lat="30.253248" lon="120.102585">
				<speed>0.000000</speed>
				<ele>186.000000</ele>
				<time>2026-08-17T05:37:06Z</time>
			</trkpt>
			<trkpt lat="30.253253" lon="120.102586">
				<speed>0.000000</speed>
				<ele>186.000000</ele>
				<time>2026-08-17T05:37:07Z</time>
			</trkpt>
			<trkpt lat="30.253258" lon="120.102587">
				<speed>0.000000</speed>
				<ele>186.000000</ele>
				<time>2026-08-17T05:37:08Z</time>
			</trkpt>
			<trkpt lat="30.253274" lon="120.102593">
				<speed>0.000000</speed>
				<ele>186.000000</ele>
				<time>2026-08-17T05:37:09Z</time>
			</trkpt>
			<trkpt lat="30.253279" lon="120.102595">
				<speed>0.000000</speed>
				<ele>186.000000</ele>
				<time>2026-08-17T05:37:10Z</time>
			</trkpt>
			<trkpt lat="30.253285" lon="120.102598">
				<speed>0.000000</speed>
				<ele>186.000000</ele>
				<time>2026-08-17T05:37:11Z</time>
			</trkpt>
			<trkpt lat="30.253290" lon="120.102601">
				<speed>0.000000</speed>
				<ele>186.000000</ele>
				<time>2026-08-17T05:37:12Z</time>
			</trkpt>
			<trkpt lat="30.253308" lon="120.102611">
				<speed>0.000000</speed>
				<ele>186.000000</ele>
				<time>2026-08-17T05:37:13Z</time>
			</trkpt>
			<trkpt lat="30.253312" lon="120.102617">
				<speed>0.000000</speed>
				<ele>186.000000</ele>
				<time>2026-08-17T05:37:14Z</time>
			</trkpt>
			<trkpt lat="30.253317" lon="120.102622">
				<speed>0.000000</speed>
				<ele>186.000000</ele>
				<time>2026-08-17T05:37:15Z</time>
			</trkpt>
			<trkpt lat="30.253322" lon="120.102627">
				<speed>0.000000</speed>
				<ele>186.000000</ele>
				<time>2026-08-17T05:37:16Z</time>
			</trkpt>
			<trkpt lat="30.253336" lon="120.102644">
				<speed>0.000000</speed>
				<ele>186.000000</ele>
				<time>2026-08-17T05:37:17Z</time>
			</trkpt>
			<trkpt lat="30.253340" lon="120.102649">
				<speed>0.000000</speed>
				<ele>186.000000</ele>
				<time>2026-08-17T05:37:18Z</time>
			</trkpt>
			<trkpt lat="30.253346" lon="120.102655">
				<speed>0.000000</speed>
				<ele>186.000000</ele>
				<time>2026-08-17T05:37:19Z</time>
			</trkpt>
			<trkpt lat="30.253351" lon="120.102660">
				<speed>0.000000</speed>
				<ele>186.000000</ele>
				<time>2026-08-17T05:37:20Z</time>
			</trkpt>
			<trkpt lat="30.253367" lon="120.102676">
				<speed>0.000000</speed>
				<ele>186.000000</ele>
				<time>2026-08-17T05:37:21Z</time>
			</trkpt>
			<trkpt lat="30.253372" lon="120.102680">
				<speed>0.000000</speed>
				<ele>186.000000</ele>
				<time>2026-08-17T05:37:22Z</time>
			</trkpt>
			<trkpt lat="30.253378" lon="120.102684">
				<speed>0.000000</speed>
				<ele>186.000000</ele>
				<time>2026-08-17T05:37:23Z</time>
			</trkpt>
			<trkpt lat="30.253384" lon="120.102688">
				<speed>0.000000</speed>
				<ele>186.000000</ele>
				<time>2026-08-17T05:37:24Z</time>
			</trkpt>
			<trkpt lat="30.253401" lon="120.102699">
				<speed>0.000000</speed>
				<ele>187.000000</ele>
				<time>2026-08-17T05:37:25Z</time>
			</trkpt>
			<trkpt lat="30.253407" lon="120.102703">
				<speed>0.000000</speed>
				<ele>187.000000</ele>
				<time>2026-08-17T05:37:26Z</time>
			</trkpt>
			<trkpt lat="30.253412" lon="120.102707">
				<speed>0.000000</speed>
				<ele>187.000000</ele>
				<time>2026-08-17T05:37:27Z</time>
			</trkpt>
			<trkpt lat="30.253418" lon="120.102711">
				<speed>0.000000</speed>
				<ele>187.000000</ele>
				<time>2026-08-17T05:37:28Z</time>
			</trkpt>
			<trkpt lat="30.253432" lon="120.102722">
				<speed>0.000000</speed>
				<ele>188.000000</ele>
				<time>2026-08-17T05:37:29Z</time>
			</trkpt>
			<trkpt lat="30.253437" lon="120.102726">
				<speed>0.000000</speed>
				<ele>188.000000</ele>
				<time>2026-08-17T05:37:30Z</time>
			</trkpt>
			<trkpt lat="30.253441" lon="120.102730">
				<speed>0.000000</speed>
				<ele>188.000000</ele>
				<time>2026-08-17T05:37:31Z</time>
			</trkpt>
			<trkpt lat="30.253445" lon="120.102733">
				<speed>0.000000</speed>
				<ele>188.000000</ele>
				<time>2026-08-17T05:37:32Z</time>
			</trkpt>
			<trkpt lat="30.253460" lon="120.102744">
				<speed>0.000000</speed>
				<ele>188.000000</ele>
				<time>2026-08-17T05:37:33Z</time>
			</trkpt>
			<trkpt lat="30.253465" lon="120.102747">
				<speed>0.000000</speed>
				<ele>188.000000</ele>
				<time>2026-08-17T05:37:34Z</time>
			</trkpt>
			<trkpt lat="30.253470" lon="120.102750">
				<speed>0.000000</speed>
				<ele>188.000000</ele>
				<time>2026-08-17T05:37:35Z</time>
			</trkpt>
			<trkpt lat="30.253475" lon="120.102753">
				<speed>0.000000</speed>
				<ele>188.000000</ele>
				<time>2026-08-17T05:37:36Z</time>
			</trkpt>
			<trkpt lat="30.253491" lon="120.102763">
				<speed>0.000000</speed>
				<ele>189.000000</ele>
				<time>2026-08-17T05:37:37Z</time>
			</trkpt>
			<trkpt lat="30.253497" lon="120.102766">
				<speed>0.000000</speed>
				<ele>189.000000</ele>
				<time>2026-08-17T05:37:38Z</time>
			</trkpt>
			<trkpt lat="30.253503" lon="120.102770">
				<speed>0.000000</speed>
				<ele>189.000000</ele>
				<time>2026-08-17T05:37:39Z</time>
			</trkpt>
			<trkpt lat="30.253509" lon="120.102773">
				<speed>0.000000</speed>
				<ele>189.000000</ele>
				<time>2026-08-17T05:37:40Z</time>
			</trkpt>
			<trkpt lat="30.253528" lon="120.102785">
				<speed>0.000000</speed>
				<ele>189.000000</ele>
				<time>2026-08-17T05:37:41Z</time>
			</trkpt>
			<trkpt lat="30.253534" lon="120.102789">
				<speed>0.000000</speed>
				<ele>189.000000</ele>
				<time>2026-08-17T05:37:42Z</time>
			</trkpt>
			<trkpt lat="30.253540" lon="120.102793">
				<speed>0.000000</speed>
				<ele>189.000000</ele>
				<time>2026-08-17T05:37:43Z</time>
			</trkpt>
			<trkpt lat="30.253546" lon="120.102797">
				<speed>0.000000</speed>
				<ele>189.000000</ele>
				<time>2026-08-17T05:37:44Z</time>
			</trkpt>
			<trkpt lat="30.253561" lon="120.102811">
				<speed>0.000000</speed>
				<ele>189.000000</ele>
				<time>2026-08-17T05:37:45Z</time>
			</trkpt>
			<trkpt lat="30.253566" lon="120.102816">
				<speed>0.000000</speed>
				<ele>189.000000</ele>
				<time>2026-08-17T05:37:46Z</time>
			</trkpt>
			<trkpt lat="30.253571" lon="120.102821">
				<speed>0.000000</speed>
				<ele>189.000000</ele>
				<time>2026-08-17T05:37:47Z</time>
			</trkpt>
			<trkpt lat="30.253576" lon="120.102826">
				<speed>0.000000</speed>
				<ele>189.000000</ele>
				<time>2026-08-17T05:37:48Z</time>
			</trkpt>
			<trkpt lat="30.253590" lon="120.102840">
				<speed>0.000000</speed>
				<ele>189.000000</ele>
				<time>2026-08-17T05:37:49Z</time>
			</trkpt>
			<trkpt lat="30.253595" lon="120.102845">
				<speed>0.000000</speed>
				<ele>189.000000</ele>
				<time>2026-08-17T05:37:50Z</time>
			</trkpt>
			<trkpt lat="30.253600" lon="120.102849">
				<speed>0.000000</speed>
				<ele>189.000000</ele>
				<time>2026-08-17T05:37:51Z</time>
			</trkpt>
			<trkpt lat="30.253605" lon="120.102854">
				<speed>0.000000</speed>
				<ele>189.000000</ele>
				<time>2026-08-17T05:37:52Z</time>
			</trkpt>
			<trkpt lat="30.253623" lon="120.102867">
				<speed>0.000000</speed>
				<ele>189.000000</ele>
				<time>2026-08-17T05:37:53Z</time>
			</trkpt>
			<trkpt lat="30.253629" lon="120.102872">
				<speed>0.000000</speed>
				<ele>189.000000</ele>
				<time>2026-08-17T05:37:54Z</time>
			</trkpt>
			<trkpt lat="30.253636" lon="120.102876">
				<speed>0.000000</speed>
				<ele>189.000000</ele>
				<time>2026-08-17T05:37:55Z</time>
			</trkpt>
			<trkpt lat="30.253642" lon="120.102881">
				<speed>0.000000</speed>
				<ele>189.000000</ele>
				<time>2026-08-17T05:37:56Z</time>
			</trkpt>
			<trkpt lat="30.253661" lon="120.102889">
				<speed>0.000000</speed>
				<ele>190.000000</ele>
				<time>2026-08-17T05:37:57Z</time>
			</trkpt>
			<trkpt lat="30.253668" lon="120.102889">
				<speed>0.000000</speed>
				<ele>190.000000</ele>
				<time>2026-08-17T05:37:58Z</time>
			</trkpt>
			<trkpt lat="30.253674" lon="120.102890">
				<speed>0.000000</speed>
				<ele>190.000000</ele>
				<time>2026-08-17T05:37:59Z</time>
			</trkpt>
			<trkpt lat="30.253680" lon="120.102890">
				<speed>0.000000</speed>
				<ele>190.000000</ele>
				<time>2026-08-17T05:38:00Z</time>
			</trkpt>
			<trkpt lat="30.253699" lon="120.102882">
				<speed>0.000000</speed>
				<ele>190.000000</ele>
				<time>2026-08-17T05:38:01Z</time>
			</trkpt>
			<trkpt lat="30.253705" lon="120.102878">
				<speed>0.000000</speed>
				<ele>190.000000</ele>
				<time>2026-08-17T05:38:02Z</time>
			</trkpt>
			<trkpt lat="30.253711" lon="120.102873">
				<speed>0.000000</speed>
				<ele>190.000000</ele>
				<time>2026-08-17T05:38:03Z</time>
			</trkpt>
			<trkpt lat="30.253718" lon="120.102869">
				<speed>0.000000</speed>
				<ele>190.000000</ele>
				<time>2026-08-17T05:38:04Z</time>
			</trkpt>
			<trkpt lat="30.253741" lon="120.102856">
				<speed>0.000000</speed>
				<ele>190.000000</ele>
				<time>2026-08-17T05:38:05Z</time>
			</trkpt>
			<trkpt lat="30.253750" lon="120.102852">
				<speed>0.000000</speed>
				<ele>190.000000</ele>
				<time>2026-08-17T05:38:06Z</time>
			</trkpt>
			<trkpt lat="30.253758" lon="120.102849">
				<speed>0.000000</speed>
				<ele>190.000000</ele>
				<time>2026-08-17T05:38:07Z</time>
			</trkpt>
			<trkpt lat="30.253767" lon="120.102846">
				<speed>0.000000</speed>
				<ele>190.000000</ele>
				<time>2026-08-17T05:38:08Z</time>
			</trkpt>
			<trkpt lat="30.253796" lon="120.102845">
				<speed>0.000000</speed>
				<ele>190.000000</ele>
				<time>2026-08-17T05:38:09Z</time>
			</trkpt>
			<trkpt lat="30.253806" lon="120.102850">
				<speed>0.000000</speed>
				<ele>190.000000</ele>
				<time>2026-08-17T05:38:10Z</time>
			</trkpt>
			<trkpt lat="30.253815" lon="120.102854">
				<speed>0.000000</speed>
				<ele>190.000000</ele>
				<time>2026-08-17T05:38:11Z</time>
			</trkpt>
			<trkpt lat="30.253825" lon="120.102859">
				<speed>0.000000</speed>
				<ele>190.000000</ele>
				<time>2026-08-17T05:38:12Z</time>
			</trkpt>
			<trkpt lat="30.253853" lon="120.102885">
				<speed>0.000000</speed>
				<ele>190.000000</ele>
				<time>2026-08-17T05:38:13Z</time>
			</trkpt>
			<trkpt lat="30.253863" lon="120.102896">
				<speed>0.000000</speed>
				<ele>190.000000</ele>
				<time>2026-08-17T05:38:14Z</time>
			</trkpt>
			<trkpt lat="30.253872" lon="120.102907">
				<speed>0.000000</speed>
				<ele>190.000000</ele>
				<time>2026-08-17T05:38:15Z</time>
			</trkpt>
			<trkpt lat="30.253882" lon="120.102919">
				<speed>0.000000</speed>
				<ele>190.000000</ele>
				<time>2026-08-17T05:38:16Z</time>
			</trkpt>
			<trkpt lat="30.253913" lon="120.102953">
				<speed>0.000000</speed>
				<ele>190.000000</ele>
				<time>2026-08-17T05:38:17Z</time>
			</trkpt>
			<trkpt lat="30.253924" lon="120.102965">
				<speed>0.000000</speed>
				<ele>189.000000</ele>
				<time>2026-08-17T05:38:18Z</time>
			</trkpt>
			<trkpt lat="30.253935" lon="120.102976">
				<speed>0.000000</speed>
				<ele>189.000000</ele>
				<time>2026-08-17T05:38:19Z</time>
			</trkpt>
			<trkpt lat="30.253947" lon="120.102988">
				<speed>0.000000</speed>
				<ele>188.000000</ele>
				<time>2026-08-17T05:38:20Z</time>
			</trkpt>
			<trkpt lat="30.253983" lon="120.103021">
				<speed>0.000000</speed>
				<ele>188.000000</ele>
				<time>2026-08-17T05:38:21Z</time>
			</trkpt>
			<trkpt lat="30.253995" lon="120.103030">
				<speed>0.000000</speed>
				<ele>187.000000</ele>
				<time>2026-08-17T05:38:22Z</time>
			</trkpt>
			<trkpt lat="30.254007" lon="120.103040">
				<speed>0.000000</speed>
				<ele>187.000000</ele>
				<time>2026-08-17T05:38:23Z</time>
			</trkpt>
			<trkpt lat="30.254019" lon="120.103050">
				<speed>0.000000</speed>
				<ele>186.000000</ele>
				<time>2026-08-17T05:38:24Z</time>
			</trkpt>
			<trkpt lat="30.254055" lon="120.103074">
				<speed>0.000000</speed>
				<ele>186.000000</ele>
				<time>2026-08-17T05:38:25Z</time>
			</trkpt>
			<trkpt lat="30.254067" lon="120.103083">
				<speed>0.000000</speed>
				<ele>185.000000</ele>
				<time>2026-08-17T05:38:26Z</time>
			</trkpt>
			<trkpt lat="30.254078" lon="120.103091">
				<speed>0.000000</speed>
				<ele>185.000000</ele>
				<time>2026-08-17T05:38:27Z</time>
			</trkpt>
			<trkpt lat="30.254089" lon="120.103099">
				<speed>0.000000</speed>
				<ele>185.000000</ele>
				<time>2026-08-17T05:38:28Z</time>
			</trkpt>
			<trkpt lat="30.254121" lon="120.103119">
				<speed>0.000000</speed>
				<ele>185.000000</ele>
				<time>2026-08-17T05:38:29Z</time>
			</trkpt>
			<trkpt lat="30.254131" lon="120.103124">
				<speed>0.000000</speed>
				<ele>184.000000</ele>
				<time>2026-08-17T05:38:30Z</time>
			</trkpt>
			<trkpt lat="30.254142" lon="120.103130">
				<speed>0.000000</speed>
				<ele>184.000000</ele>
				<time>2026-08-17T05:38:31Z</time>
			</trkpt>
			<trkpt lat="30.254153" lon="120.103135">
				<speed>0.000000</speed>
				<ele>183.000000</ele>
				<time>2026-08-17T05:38:32Z</time>
			</trkpt>
			<trkpt lat="30.254188" lon="120.103155">
				<speed>0.000000</speed>
				<ele>183.000000</ele>
				<time>2026-08-17T05:38:33Z</time>
			</trkpt>
			<trkpt lat="30.254200" lon="120.103163">
				<speed>0.000000</speed>
				<ele>182.000000</ele>
				<time>2026-08-17T05:38:34Z</time>
			</trkpt>
			<trkpt lat="30.254211" lon="120.103171">
				<speed>0.000000</speed>
				<ele>182.000000</ele>
				<time>2026-08-17T05:38:35Z</time>
			</trkpt>
			<trkpt lat="30.254223" lon="120.103180">
				<speed>0.000000</speed>
				<ele>181.000000</ele>
				<time>2026-08-17T05:38:36Z</time>
			</trkpt>
			<trkpt lat="30.254245" lon="120.103214">
				<speed>0.000000</speed>
				<ele>181.000000</ele>
				<time>2026-08-17T05:38:37Z</time>
			</trkpt>
			<trkpt lat="30.254249" lon="120.103227">
				<speed>0.000000</speed>
				<ele>180.000000</ele>
				<time>2026-08-17T05:38:38Z</time>
			</trkpt>
			<trkpt lat="30.254254" lon="120.103240">
				<speed>0.000000</speed>
				<ele>180.000000</ele>
				<time>2026-08-17T05:38:39Z</time>
			</trkpt>
			<trkpt lat="30.254258" lon="120.103253">
				<speed>0.000000</speed>
				<ele>179.000000</ele>
				<time>2026-08-17T05:38:40Z</time>
			</trkpt>
			<trkpt lat="30.254274" lon="120.103287">
				<speed>0.000000</speed>
				<ele>179.000000</ele>
				<time>2026-08-17T05:38:41Z</time>
			</trkpt>
			<trkpt lat="30.254283" lon="120.103296">
				<speed>0.000000</speed>
				<ele>178.000000</ele>
				<time>2026-08-17T05:38:42Z</time>
			</trkpt>
			<trkpt lat="30.254292" lon="120.103305">
				<speed>0.000000</speed>
				<ele>178.000000</ele>
				<time>2026-08-17T05:38:43Z</time>
			</trkpt>
			<trkpt lat="30.254301" lon="120.103314">
				<speed>0.000000</speed>
				<ele>177.000000</ele>
				<time>2026-08-17T05:38:44Z</time>
			</trkpt>
			<trkpt lat="30.254342" lon="120.103329">
				<speed>0.000000</speed>
				<ele>177.000000</ele>
				<time>2026-08-17T05:38:45Z</time>
			</trkpt>
			<trkpt lat="30.254359" lon="120.103331">
				<speed>0.000000</speed>
				<ele>176.000000</ele>
				<time>2026-08-17T05:38:46Z</time>
			</trkpt>
			<trkpt lat="30.254377" lon="120.103333">
				<speed>0.000000</speed>
				<ele>175.000000</ele>
				<time>2026-08-17T05:38:47Z</time>
			</trkpt>
			<trkpt lat="30.254394" lon="120.103336">
				<speed>0.000000</speed>
				<ele>174.000000</ele>
				<time>2026-08-17T05:38:48Z</time>
			</trkpt>
			<trkpt lat="30.254454" lon="120.103342">
				<speed>0.000000</speed>
				<ele>174.000000</ele>
				<time>2026-08-17T05:38:49Z</time>
			</trkpt>
			<trkpt lat="30.254473" lon="120.103345">
				<speed>0.000000</speed>
				<ele>173.000000</ele>
				<time>2026-08-17T05:38:50Z</time>
			</trkpt>
			<trkpt lat="30.254492" lon="120.103348">
				<speed>0.000000</speed>
				<ele>173.000000</ele>
				<time>2026-08-17T05:38:51Z</time>
			</trkpt>
			<trkpt lat="30.254512" lon="120.103351">
				<speed>0.000000</speed>
				<ele>172.000000</ele>
				<time>2026-08-17T05:38:52Z</time>
			</trkpt>
			<trkpt lat="30.254561" lon="120.103359">
				<speed>0.000000</speed>
				<ele>172.000000</ele>
				<time>2026-08-17T05:38:53Z</time>
			</trkpt>
			<trkpt lat="30.254573" lon="120.103364">
				<speed>0.000000</speed>
				<ele>171.000000</ele>
				<time>2026-08-17T05:38:54Z</time>
			</trkpt>
			<trkpt lat="30.254585" lon="120.103369">
				<speed>0.000000</speed>
				<ele>171.000000</ele>
				<time>2026-08-17T05:38:55Z</time>
			</trkpt>
			<trkpt lat="30.254597" lon="120.103374">
				<speed>0.000000</speed>
				<ele>170.000000</ele>
				<time>2026-08-17T05:38:56Z</time>
			</trkpt>
			<trkpt lat="30.254623" lon="120.103402">
				<speed>0.000000</speed>
				<ele>170.000000</ele>
				<time>2026-08-17T05:38:57Z</time>
			</trkpt>
			<trkpt lat="30.254629" lon="120.103413">
				<speed>0.000000</speed>
				<ele>169.000000</ele>
				<time>2026-08-17T05:38:58Z</time>
			</trkpt>
			<trkpt lat="30.254635" lon="120.103425">
				<speed>0.000000</speed>
				<ele>169.000000</ele>
				<time>2026-08-17T05:38:59Z</time>
			</trkpt>
			<trkpt lat="30.254641" lon="120.103436">
				<speed>0.000000</speed>
				<ele>169.000000</ele>
				<time>2026-08-17T05:39:00Z</time>
			</trkpt>
			<trkpt lat="30.254659" lon="120.103471">
				<speed>0.000000</speed>
				<ele>169.000000</ele>
				<time>2026-08-17T05:39:01Z</time>
			</trkpt>
			<trkpt lat="30.254665" lon="120.103483">
				<speed>0.000000</speed>
				<ele>168.000000</ele>
				<time>2026-08-17T05:39:02Z</time>
			</trkpt>
			<trkpt lat="30.254672" lon="120.103495">
				<speed>0.000000</speed>
				<ele>168.000000</ele>
				<time>2026-08-17T05:39:03Z</time>
			</trkpt>
			<trkpt lat="30.254678" lon="120.103507">
				<speed>0.000000</speed>
				<ele>167.000000</ele>
				<time>2026-08-17T05:39:04Z</time>
			</trkpt>
			<trkpt lat="30.254695" lon="120.103546">
				<speed>0.000000</speed>
				<ele>167.000000</ele>
				<time>2026-08-17T05:39:05Z</time>
			</trkpt>
			<trkpt lat="30.254701" lon="120.103560">
				<speed>0.000000</speed>
				<ele>166.000000</ele>
				<time>2026-08-17T05:39:06Z</time>
			</trkpt>
			<trkpt lat="30.254707" lon="120.103574">
				<speed>0.000000</speed>
				<ele>166.000000</ele>
				<time>2026-08-17T05:39:07Z</time>
			</trkpt>
			<trkpt lat="30.254713" lon="120.103588">
				<speed>0.000000</speed>
				<ele>166.000000</ele>
				<time>2026-08-17T05:39:08Z</time>
			</trkpt>
			<trkpt lat="30.254736" lon="120.103623">
				<speed>0.000000</speed>
				<ele>166.000000</ele>
				<time>2026-08-17T05:39:09Z</time>
			</trkpt>
			<trkpt lat="30.254744" lon="120.103632">
				<speed>0.000000</speed>
				<ele>165.000000</ele>
				<time>2026-08-17T05:39:10Z</time>
			</trkpt>
			<trkpt lat="30.254752" lon="120.103641">
				<speed>0.000000</speed>
				<ele>165.000000</ele>
				<time>2026-08-17T05:39:11Z</time>
			</trkpt>
			<trkpt lat="30.254761" lon="120.103650">
				<speed>0.000000</speed>
				<ele>164.000000</ele>
				<time>2026-08-17T05:39:12Z</time>
			</trkpt>
			<trkpt lat="30.254775" lon="120.103669">
				<speed>0.000000</speed>
				<ele>164.000000</ele>
				<time>2026-08-17T05:39:13Z</time>
			</trkpt>
			<trkpt lat="30.254777" lon="120.103675">
				<speed>0.000000</speed>
				<ele>163.000000</ele>
				<time>2026-08-17T05:39:14Z</time>
			</trkpt>
			<trkpt lat="30.254779" lon="120.103681">
				<speed>0.000000</speed>
				<ele>163.000000</ele>
				<time>2026-08-17T05:39:15Z</time>
			</trkpt>
			<trkpt lat="30.254781" lon="120.103686">
				<speed>0.000000</speed>
				<ele>162.000000</ele>
				<time>2026-08-17T05:39:16Z</time>
			</trkpt>
			<trkpt lat="30.254787" lon="120.103702">
				<speed>0.000000</speed>
				<ele>162.000000</ele>
				<time>2026-08-17T05:39:17Z</time>
			</trkpt>
			<trkpt lat="30.254791" lon="120.103707">
				<speed>0.000000</speed>
				<ele>161.000000</ele>
				<time>2026-08-17T05:39:18Z</time>
			</trkpt>
			<trkpt lat="30.254794" lon="120.103712">
				<speed>0.000000</speed>
				<ele>161.000000</ele>
				<time>2026-08-17T05:39:19Z</time>
			</trkpt>
			<trkpt lat="30.254798" lon="120.103716">
				<speed>0.000000</speed>
				<ele>160.000000</ele>
				<time>2026-08-17T05:39:20Z</time>
			</trkpt>
			<trkpt lat="30.254815" lon="120.103730">
				<speed>0.000000</speed>
				<ele>160.000000</ele>
				<time>2026-08-17T05:39:21Z</time>
			</trkpt>
			<trkpt lat="30.254821" lon="120.103735">
				<speed>0.000000</speed>
				<ele>159.000000</ele>
				<time>2026-08-17T05:39:22Z</time>
			</trkpt>
			<trkpt lat="30.254829" lon="120.103740">
				<speed>0.000000</speed>
				<ele>159.000000</ele>
				<time>2026-08-17T05:39:23Z</time>
			</trkpt>
			<trkpt lat="30.254836" lon="120.103744">
				<speed>0.000000</speed>
				<ele>159.000000</ele>
				<time>2026-08-17T05:39:24Z</time>
			</trkpt>
			<trkpt lat="30.254858" lon="120.103757">
				<speed>0.000000</speed>
				<ele>159.000000</ele>
				<time>2026-08-17T05:39:25Z</time>
			</trkpt>
			<trkpt lat="30.254865" lon="120.103761">
				<speed>0.000000</speed>
				<ele>158.000000</ele>
				<time>2026-08-17T05:39:26Z</time>
			</trkpt>
			<trkpt lat="30.254872" lon="120.103766">
				<speed>0.000000</speed>
				<ele>158.000000</ele>
				<time>2026-08-17T05:39:27Z</time>
			</trkpt>
			<trkpt lat="30.254879" lon="120.103770">
				<speed>0.000000</speed>
				<ele>158.000000</ele>
				<time>2026-08-17T05:39:28Z</time>
			</trkpt>
			<trkpt lat="30.254901" lon="120.103787">
				<speed>0.000000</speed>
				<ele>158.000000</ele>
				<time>2026-08-17T05:39:29Z</time>
			</trkpt>
			<trkpt lat="30.254907" lon="120.103794">
				<speed>0.000000</speed>
				<ele>157.000000</ele>
				<time>2026-08-17T05:39:30Z</time>
			</trkpt>
			<trkpt lat="30.254913" lon="120.103802">
				<speed>0.000000</speed>
				<ele>157.000000</ele>
				<time>2026-08-17T05:39:31Z</time>
			</trkpt>
			<trkpt lat="30.254919" lon="120.103810">
				<speed>0.000000</speed>
				<ele>157.000000</ele>
				<time>2026-08-17T05:39:32Z</time>
			</trkpt>
			<trkpt lat="30.254934" lon="120.103835">
				<speed>0.000000</speed>
				<ele>157.000000</ele>
				<time>2026-08-17T05:39:33Z</time>
			</trkpt>
			<trkpt lat="30.254938" lon="120.103844">
				<speed>0.000000</speed>
				<ele>156.000000</ele>
				<time>2026-08-17T05:39:34Z</time>
			</trkpt>
			<trkpt lat="30.254943" lon="120.103854">
				<speed>0.000000</speed>
				<ele>156.000000</ele>
				<time>2026-08-17T05:39:35Z</time>
			</trkpt>
			<trkpt lat="30.254947" lon="120.103863">
				<speed>0.000000</speed>
				<ele>156.000000</ele>
				<time>2026-08-17T05:39:36Z</time>
			</trkpt>
			<trkpt lat="30.254961" lon="120.103896">
				<speed>0.000000</speed>
				<ele>156.000000</ele>
				<time>2026-08-17T05:39:37Z</time>
			</trkpt>
			<trkpt lat="30.254966" lon="120.103907">
				<speed>0.000000</speed>
				<ele>156.000000</ele>
				<time>2026-08-17T05:39:38Z</time>
			</trkpt>
			<trkpt lat="30.254972" lon="120.103919">
				<speed>0.000000</speed>
				<ele>156.000000</ele>
				<time>2026-08-17T05:39:39Z</time>
			</trkpt>
			<trkpt lat="30.254977" lon="120.103931">
				<speed>0.000000</speed>
				<ele>156.000000</ele>
				<time>2026-08-17T05:39:40Z</time>
			</trkpt>
			<trkpt lat="30.254999" lon="120.103971">
				<speed>0.000000</speed>
				<ele>156.000000</ele>
				<time>2026-08-17T05:39:41Z</time>
			</trkpt>
			<trkpt lat="30.255008" lon="120.103984">
				<speed>0.000000</speed>
				<ele>155.000000</ele>
				<time>2026-08-17T05:39:42Z</time>
			</trkpt>
			<trkpt lat="30.255016" lon="120.103997">
				<speed>0.000000</speed>
				<ele>155.000000</ele>
				<time>2026-08-17T05:39:43Z</time>
			</trkpt>
			<trkpt lat="30.255025" lon="120.104010">
				<speed>0.000000</speed>
				<ele>155.000000</ele>
				<time>2026-08-17T05:39:44Z</time>
			</trkpt>
			<trkpt lat="30.255052" lon="120.104048">
				<speed>0.000000</speed>
				<ele>155.000000</ele>
				<time>2026-08-17T05:39:45Z</time>
			</trkpt>
			<trkpt lat="30.255061" lon="120.104061">
				<speed>0.000000</speed>
				<ele>155.000000</ele>
				<time>2026-08-17T05:39:46Z</time>
			</trkpt>
			<trkpt lat="30.255069" lon="120.104075">
				<speed>0.000000</speed>
				<ele>155.000000</ele>
				<time>2026-08-17T05:39:47Z</time>
			</trkpt>
			<trkpt lat="30.255078" lon="120.104088">
				<speed>0.000000</speed>
				<ele>155.000000</ele>
				<time>2026-08-17T05:39:48Z</time>
			</trkpt>
			<trkpt lat="30.255101" lon="120.104131">
				<speed>0.000000</speed>
				<ele>155.000000</ele>
				<time>2026-08-17T05:39:49Z</time>
			</trkpt>
			<trkpt lat="30.255106" lon="120.104147">
				<speed>0.000000</speed>
				<ele>154.000000</ele>
				<time>2026-08-17T05:39:50Z</time>
			</trkpt>
			<trkpt lat="30.255112" lon="120.104162">
				<speed>0.000000</speed>
				<ele>154.000000</ele>
				<time>2026-08-17T05:39:51Z</time>
			</trkpt>
			<trkpt lat="30.255117" lon="120.104178">
				<speed>0.000000</speed>
				<ele>154.000000</ele>
				<time>2026-08-17T05:39:52Z</time>
			</trkpt>
			<trkpt lat="30.255125" lon="120.104234">
				<speed>0.000000</speed>
				<ele>154.000000</ele>
				<time>2026-08-17T05:39:53Z</time>
			</trkpt>
			<trkpt lat="30.255126" lon="120.104255">
				<speed>0.000000</speed>
				<ele>154.000000</ele>
				<time>2026-08-17T05:39:54Z</time>
			</trkpt>
			<trkpt lat="30.255127" lon="120.104276">
				<speed>0.000000</speed>
				<ele>154.000000</ele>
				<time>2026-08-17T05:39:55Z</time>
			</trkpt>
			<trkpt lat="30.255127" lon="120.104298">
				<speed>0.000000</speed>
				<ele>154.000000</ele>
				<time>2026-08-17T05:39:56Z</time>
			</trkpt>
			<trkpt lat="30.255132" lon="120.104361">
				<speed>0.000000</speed>
				<ele>154.000000</ele>
				<time>2026-08-17T05:39:57Z</time>
			</trkpt>
			<trkpt lat="30.255135" lon="120.104378">
				<speed>0.000000</speed>
				<ele>153.000000</ele>
				<time>2026-08-17T05:39:58Z</time>
			</trkpt>
			<trkpt lat="30.255139" lon="120.104395">
				<speed>0.000000</speed>
				<ele>153.000000</ele>
				<time>2026-08-17T05:39:59Z</time>
			</trkpt>
			<trkpt lat="30.255142" lon="120.104413">
				<speed>0.000000</speed>
				<ele>153.000000</ele>
				<time>2026-08-17T05:40:00Z</time>
			</trkpt>
			<trkpt lat="30.255159" lon="120.104447">
				<speed>0.000000</speed>
				<ele>153.000000</ele>
				<time>2026-08-17T05:40:01Z</time>
			</trkpt>
			<trkpt lat="30.255168" lon="120.104456">
				<speed>0.000000</speed>
				<ele>152.000000</ele>
				<time>2026-08-17T05:40:02Z</time>
			</trkpt>
			<trkpt lat="30.255176" lon="120.104465">
				<speed>0.000000</speed>
				<ele>152.000000</ele>
				<time>2026-08-17T05:40:03Z</time>
			</trkpt>
			<trkpt lat="30.255184" lon="120.104474">
				<speed>0.000000</speed>
				<ele>152.000000</ele>
				<time>2026-08-17T05:40:04Z</time>
			</trkpt>
			<trkpt lat="30.255214" lon="120.104506">
				<speed>0.000000</speed>
				<ele>152.000000</ele>
				<time>2026-08-17T05:40:05Z</time>
			</trkpt>
			<trkpt lat="30.255225" lon="120.104519">
				<speed>0.000000</speed>
				<ele>151.000000</ele>
				<time>2026-08-17T05:40:06Z</time>
			</trkpt>
			<trkpt lat="30.255236" lon="120.104532">
				<speed>0.000000</speed>
				<ele>151.000000</ele>
				<time>2026-08-17T05:40:07Z</time>
			</trkpt>
			<trkpt lat="30.255248" lon="120.104544">
				<speed>0.000000</speed>
				<ele>151.000000</ele>
				<time>2026-08-17T05:40:08Z</time>
			</trkpt>
			<trkpt lat="30.255285" lon="120.104581">
				<speed>0.000000</speed>
				<ele>151.000000</ele>
				<time>2026-08-17T05:40:09Z</time>
			</trkpt>
			<trkpt lat="30.255298" lon="120.104591">
				<speed>0.000000</speed>
				<ele>150.000000</ele>
				<time>2026-08-17T05:40:10Z</time>
			</trkpt>
			<trkpt lat="30.255312" lon="120.104601">
				<speed>0.000000</speed>
				<ele>150.000000</ele>
				<time>2026-08-17T05:40:11Z</time>
			</trkpt>
			<trkpt lat="30.255325" lon="120.104611">
				<speed>0.000000</speed>
				<ele>150.000000</ele>
				<time>2026-08-17T05:40:12Z</time>
			</trkpt>
			<trkpt lat="30.255365" lon="120.104638">
				<speed>0.000000</speed>
				<ele>150.000000</ele>
				<time>2026-08-17T05:40:13Z</time>
			</trkpt>
			<trkpt lat="30.255378" lon="120.104646">
				<speed>0.000000</speed>
				<ele>149.000000</ele>
				<time>2026-08-17T05:40:14Z</time>
			</trkpt>
			<trkpt lat="30.255392" lon="120.104655">
				<speed>0.000000</speed>
				<ele>149.000000</ele>
				<time>2026-08-17T05:40:15Z</time>
			</trkpt>
			<trkpt lat="30.255405" lon="120.104664">
				<speed>0.000000</speed>
				<ele>149.000000</ele>
				<time>2026-08-17T05:40:16Z</time>
			</trkpt>
			<trkpt lat="30.255448" lon="120.104690">
				<speed>0.000000</speed>
				<ele>149.000000</ele>
				<time>2026-08-17T05:40:17Z</time>
			</trkpt>
			<trkpt lat="30.255463" lon="120.104698">
				<speed>0.000000</speed>
				<ele>148.000000</ele>
				<time>2026-08-17T05:40:18Z</time>
			</trkpt>
			<trkpt lat="30.255478" lon="120.104705">
				<speed>0.000000</speed>
				<ele>148.000000</ele>
				<time>2026-08-17T05:40:19Z</time>
			</trkpt>
			<trkpt lat="30.255494" lon="120.104713">
				<speed>0.000000</speed>
				<ele>148.000000</ele>
				<time>2026-08-17T05:40:20Z</time>
			</trkpt>
			<trkpt lat="30.255538" lon="120.104734">
				<speed>0.000000</speed>
				<ele>148.000000</ele>
				<time>2026-08-17T05:40:21Z</time>
			</trkpt>
			<trkpt lat="30.255551" lon="120.104740">
				<speed>0.000000</speed>
				<ele>148.000000</ele>
				<time>2026-08-17T05:40:22Z</time>
			</trkpt>
			<trkpt lat="30.255564" lon="120.104746">
				<speed>0.000000</speed>
				<ele>148.000000</ele>
				<time>2026-08-17T05:40:23Z</time>
			</trkpt>
			<trkpt lat="30.255577" lon="120.104752">
				<speed>0.000000</speed>
				<ele>148.000000</ele>
				<time>2026-08-17T05:40:24Z</time>
			</trkpt>
			<trkpt lat="30.255611" lon="120.104769">
				<speed>0.000000</speed>
				<ele>148.000000</ele>
				<time>2026-08-17T05:40:25Z</time>
			</trkpt>
			<trkpt lat="30.255620" lon="120.104773">
				<speed>0.000000</speed>
				<ele>148.000000</ele>
				<time>2026-08-17T05:40:26Z</time>
			</trkpt>
			<trkpt lat="30.255628" lon="120.104778">
				<speed>0.000000</speed>
				<ele>148.000000</ele>
				<time>2026-08-17T05:40:27Z</time>
			</trkpt>
			<trkpt lat="30.255637" lon="120.104783">
				<speed>0.000000</speed>
				<ele>148.000000</ele>
				<time>2026-08-17T05:40:28Z</time>
			</trkpt>
			<trkpt lat="30.255656" lon="120.104791">
				<speed>0.000000</speed>
				<ele>148.000000</ele>
				<time>2026-08-17T05:40:29Z</time>
			</trkpt>
			<trkpt lat="30.255662" lon="120.104790">
				<speed>0.000000</speed>
				<ele>147.000000</ele>
				<time>2026-08-17T05:40:30Z</time>
			</trkpt>
			<trkpt lat="30.255668" lon="120.104790">
				<speed>0.000000</speed>
				<ele>147.000000</ele>
				<time>2026-08-17T05:40:31Z</time>
			</trkpt>
			<trkpt lat="30.255674" lon="120.104789">
				<speed>0.000000</speed>
				<ele>147.000000</ele>
				<time>2026-08-17T05:40:32Z</time>
			</trkpt>
			<trkpt lat="30.255700" lon="120.104783">
				<speed>0.000000</speed>
				<ele>147.000000</ele>
				<time>2026-08-17T05:40:33Z</time>
			</trkpt>
			<trkpt lat="30.255712" lon="120.104781">
				<speed>0.000000</speed>
				<ele>147.000000</ele>
				<time>2026-08-17T05:40:34Z</time>
			</trkpt>
			<trkpt lat="30.255724" lon="120.104779">
				<speed>0.000000</speed>
				<ele>147.000000</ele>
				<time>2026-08-17T05:40:35Z</time>
			</trkpt>
			<trkpt lat="30.255737" lon="120.104777">
				<speed>0.000000</speed>
				<ele>147.000000</ele>
				<time>2026-08-17T05:40:36Z</time>
			</trkpt>
			<trkpt lat="30.255783" lon="120.104773">
				<speed>0.000000</speed>
				<ele>147.000000</ele>
				<time>2026-08-17T05:40:37Z</time>
			</trkpt>
			<trkpt lat="30.255799" lon="120.104771">
				<speed>0.000000</speed>
				<ele>146.000000</ele>
				<time>2026-08-17T05:40:38Z</time>
			</trkpt>
			<trkpt lat="30.255815" lon="120.104770">
				<speed>0.000000</speed>
				<ele>146.000000</ele>
				<time>2026-08-17T05:40:39Z</time>
			</trkpt>
			<trkpt lat="30.255832" lon="120.104768">
				<speed>0.000000</speed>
				<ele>146.000000</ele>
				<time>2026-08-17T05:40:40Z</time>
			</trkpt>
			<trkpt lat="30.255879" lon="120.104767">
				<speed>0.000000</speed>
				<ele>146.000000</ele>
				<time>2026-08-17T05:40:41Z</time>
			</trkpt>
			<trkpt lat="30.255893" lon="120.104767">
				<speed>0.000000</speed>
				<ele>146.000000</ele>
				<time>2026-08-17T05:40:42Z</time>
			</trkpt>
			<trkpt lat="30.255908" lon="120.104768">
				<speed>0.000000</speed>
				<ele>146.000000</ele>
				<time>2026-08-17T05:40:43Z</time>
			</trkpt>
			<trkpt lat="30.255922" lon="120.104768">
				<speed>0.000000</speed>
				<ele>146.000000</ele>
				<time>2026-08-17T05:40:44Z</time>
			</trkpt>
			<trkpt lat="30.255963" lon="120.104771">
				<speed>0.000000</speed>
				<ele>146.000000</ele>
				<time>2026-08-17T05:40:45Z</time>
			</trkpt>
			<trkpt lat="30.255975" lon="120.104771">
				<speed>0.000000</speed>
				<ele>145.000000</ele>
				<time>2026-08-17T05:40:46Z</time>
			</trkpt>
			<trkpt lat="30.255987" lon="120.104771">
				<speed>0.000000</speed>
				<ele>145.000000</ele>
				<time>2026-08-17T05:40:47Z</time>
			</trkpt>
			<trkpt lat="30.256000" lon="120.104771">
				<speed>0.000000</speed>
				<ele>145.000000</ele>
				<time>2026-08-17T05:40:48Z</time>
			</trkpt>
			<trkpt lat="30.256036" lon="120.104767">
				<speed>0.000000</speed>
				<ele>145.000000</ele>
				<time>2026-08-17T05:40:49Z</time>
			</trkpt>
			<trkpt lat="30.256049" lon="120.104765">
				<speed>0.000000</speed>
				<ele>145.000000</ele>
				<time>2026-08-17T05:40:50Z</time>
			</trkpt>
			<trkpt lat="30.256062" lon="120.104763">
				<speed>0.000000</speed>
				<ele>145.000000</ele>
				<time>2026-08-17T05:40:51Z</time>
			</trkpt>
			<trkpt lat="30.256075" lon="120.104761">
				<speed>0.000000</speed>
				<ele>145.000000</ele>
				<time>2026-08-17T05:40:52Z</time>
			</trkpt>
			<trkpt lat="30.256115" lon="120.104752">
				<speed>0.000000</speed>
				<ele>145.000000</ele>
				<time>2026-08-17T05:40:53Z</time>
			</trkpt>
			<trkpt lat="30.256129" lon="120.104749">
				<speed>0.000000</speed>
				<ele>144.000000</ele>
				<time>2026-08-17T05:40:54Z</time>
			</trkpt>
			<trkpt lat="30.256144" lon="120.104745">
				<speed>0.000000</speed>
				<ele>144.000000</ele>
				<time>2026-08-17T05:40:55Z</time>
			</trkpt>
			<trkpt lat="30.256158" lon="120.104742">
				<speed>0.000000</speed>
				<ele>144.000000</ele>
				<time>2026-08-17T05:40:56Z</time>
			</trkpt>
			<trkpt lat="30.256204" lon="120.104729">
				<speed>0.000000</speed>
				<ele>144.000000</ele>
				<time>2026-08-17T05:40:57Z</time>
			</trkpt>
			<trkpt lat="30.256218" lon="120.104722">
				<speed>0.000000</speed>
				<ele>144.000000</ele>
				<time>2026-08-17T05:40:58Z</time>
			</trkpt>
			<trkpt lat="30.256233" lon="120.104715">
				<speed>0.000000</speed>
				<ele>144.000000</ele>
				<time>2026-08-17T05:40:59Z</time>
			</trkpt>
			<trkpt lat="30.256247" lon="120.104708">
				<speed>0.000000</speed>
				<ele>144.000000</ele>
				<time>2026-08-17T05:41:00Z</time>
			</trkpt>
			<trkpt lat="30.256286" lon="120.104684">
				<speed>0.000000</speed>
				<ele>144.000000</ele>
				<time>2026-08-17T05:41:01Z</time>
			</trkpt>
			<trkpt lat="30.256297" lon="120.104675">
				<speed>0.000000</speed>
				<ele>144.000000</ele>
				<time>2026-08-17T05:41:02Z</time>
			</trkpt>
			<trkpt lat="30.256308" lon="120.104666">
				<speed>0.000000</speed>
				<ele>144.000000</ele>
				<time>2026-08-17T05:41:03Z</time>
			</trkpt>
			<trkpt lat="30.256319" lon="120.104658">
				<speed>0.000000</speed>
				<ele>144.000000</ele>
				<time>2026-08-17T05:41:04Z</time>
			</trkpt>
			<trkpt lat="30.256349" lon="120.104632">
				<speed>0.000000</speed>
				<ele>144.000000</ele>
				<time>2026-08-17T05:41:05Z</time>
			</trkpt>
			<trkpt lat="30.256359" lon="120.104625">
				<speed>0.000000</speed>
				<ele>144.000000</ele>
				<time>2026-08-17T05:41:06Z</time>
			</trkpt>
			<trkpt lat="30.256369" lon="120.104618">
				<speed>0.000000</speed>
				<ele>144.000000</ele>
				<time>2026-08-17T05:41:07Z</time>
			</trkpt>
			<trkpt lat="30.256379" lon="120.104611">
				<speed>0.000000</speed>
				<ele>144.000000</ele>
				<time>2026-08-17T05:41:08Z</time>
			</trkpt>
			<trkpt lat="30.256413" lon="120.104598">
				<speed>0.000000</speed>
				<ele>144.000000</ele>
				<time>2026-08-17T05:41:09Z</time>
			</trkpt>
			<trkpt lat="30.256425" lon="120.104596">
				<speed>0.000000</speed>
				<ele>144.000000</ele>
				<time>2026-08-17T05:41:10Z</time>
			</trkpt>
			<trkpt lat="30.256437" lon="120.104595">
				<speed>0.000000</speed>
				<ele>144.000000</ele>
				<time>2026-08-17T05:41:11Z</time>
			</trkpt>
			<trkpt lat="30.256449" lon="120.104593">
				<speed>0.000000</speed>
				<ele>144.000000</ele>
				<time>2026-08-17T05:41:12Z</time>
			</trkpt>
			<trkpt lat="30.256482" lon="120.104587">
				<speed>0.000000</speed>
				<ele>144.000000</ele>
				<time>2026-08-17T05:41:13Z</time>
			</trkpt>
			<trkpt lat="30.256492" lon="120.104584">
				<speed>0.000000</speed>
				<ele>144.000000</ele>
				<time>2026-08-17T05:41:14Z</time>
			</trkpt>
			<trkpt lat="30.256502" lon="120.104581">
				<speed>0.000000</speed>
				<ele>144.000000</ele>
				<time>2026-08-17T05:41:15Z</time>
			</trkpt>
			<trkpt lat="30.256513" lon="120.104578">
				<speed>0.000000</speed>
				<ele>144.000000</ele>
				<time>2026-08-17T05:41:16Z</time>
			</trkpt>
			<trkpt lat="30.256543" lon="120.104564">
				<speed>0.000000</speed>
				<ele>144.000000</ele>
				<time>2026-08-17T05:41:17Z</time>
			</trkpt>
			<trkpt lat="30.256552" lon="120.104558">
				<speed>0.000000</speed>
				<ele>143.000000</ele>
				<time>2026-08-17T05:41:18Z</time>
			</trkpt>
			<trkpt lat="30.256561" lon="120.104551">
				<speed>0.000000</speed>
				<ele>143.000000</ele>
				<time>2026-08-17T05:41:19Z</time>
			</trkpt>
			<trkpt lat="30.256570" lon="120.104545">
				<speed>0.000000</speed>
				<ele>143.000000</ele>
				<time>2026-08-17T05:41:20Z</time>
			</trkpt>
			<trkpt lat="30.256594" lon="120.104524">
				<speed>0.000000</speed>
				<ele>143.000000</ele>
				<time>2026-08-17T05:41:21Z</time>
			</trkpt>
			<trkpt lat="30.256601" lon="120.104518">
				<speed>0.000000</speed>
				<ele>142.000000</ele>
				<time>2026-08-17T05:41:22Z</time>
			</trkpt>
			<trkpt lat="30.256608" lon="120.104512">
				<speed>0.000000</speed>
				<ele>142.000000</ele>
				<time>2026-08-17T05:41:23Z</time>
			</trkpt>
			<trkpt lat="30.256616" lon="120.104507">
				<speed>0.000000</speed>
				<ele>142.000000</ele>
				<time>2026-08-17T05:41:24Z</time>
			</trkpt>
			<trkpt lat="30.256636" lon="120.104495">
				<speed>0.000000</speed>
				<ele>142.000000</ele>
				<time>2026-08-17T05:41:25Z</time>
			</trkpt>
			<trkpt lat="30.256643" lon="120.104490">
				<speed>0.000000</speed>
				<ele>141.000000</ele>
				<time>2026-08-17T05:41:26Z</time>
			</trkpt>
			<trkpt lat="30.256649" lon="120.104486">
				<speed>0.000000</speed>
				<ele>141.000000</ele>
				<time>2026-08-17T05:41:27Z</time>
			</trkpt>
			<trkpt lat="30.256655" lon="120.104482">
				<speed>0.000000</speed>
				<ele>140.000000</ele>
				<time>2026-08-17T05:41:28Z</time>
			</trkpt>
			<trkpt lat="30.256673" lon="120.104463">
				<speed>0.000000</speed>
				<ele>140.000000</ele>
				<time>2026-08-17T05:41:29Z</time>
			</trkpt>
			<trkpt lat="30.256679" lon="120.104456">
				<speed>0.000000</speed>
				<ele>140.000000</ele>
				<time>2026-08-17T05:41:30Z</time>
			</trkpt>
			<trkpt lat="30.256685" lon="120.104449">
				<speed>0.000000</speed>
				<ele>140.000000</ele>
				<time>2026-08-17T05:41:31Z</time>
			</trkpt>
			<trkpt lat="30.256690" lon="120.104442">
				<speed>0.000000</speed>
				<ele>140.000000</ele>
				<time>2026-08-17T05:41:32Z</time>
			</trkpt>
			<trkpt lat="30.256707" lon="120.104423">
				<speed>0.000000</speed>
				<ele>140.000000</ele>
				<time>2026-08-17T05:41:33Z</time>
			</trkpt>
			<trkpt lat="30.256712" lon="120.104419">
				<speed>0.000000</speed>
				<ele>140.000000</ele>
				<time>2026-08-17T05:41:34Z</time>
			</trkpt>
			<trkpt lat="30.256717" lon="120.104414">
				<speed>0.000000</speed>
				<ele>140.000000</ele>
				<time>2026-08-17T05:41:35Z</time>
			</trkpt>
			<trkpt lat="30.256722" lon="120.104409">
				<speed>0.000000</speed>
				<ele>140.000000</ele>
				<time>2026-08-17T05:41:36Z</time>
			</trkpt>
			<trkpt lat="30.256735" lon="120.104397">
				<speed>0.000000</speed>
				<ele>140.000000</ele>
				<time>2026-08-17T05:41:37Z</time>
			</trkpt>
			<trkpt lat="30.256739" lon="120.104393">
				<speed>0.000000</speed>
				<ele>140.000000</ele>
				<time>2026-08-17T05:41:38Z</time>
			</trkpt>
			<trkpt lat="30.256743" lon="120.104388">
				<speed>0.000000</speed>
				<ele>140.000000</ele>
				<time>2026-08-17T05:41:39Z</time>
			</trkpt>
			<trkpt lat="30.256746" lon="120.104384">
				<speed>0.000000</speed>
				<ele>140.000000</ele>
				<time>2026-08-17T05:41:40Z</time>
			</trkpt>
			<trkpt lat="30.256757" lon="120.104369">
				<speed>0.000000</speed>
				<ele>140.000000</ele>
				<time>2026-08-17T05:41:41Z</time>
			</trkpt>
			<trkpt lat="30.256761" lon="120.104364">
				<speed>0.000000</speed>
				<ele>140.000000</ele>
				<time>2026-08-17T05:41:42Z</time>
			</trkpt>
			<trkpt lat="30.256765" lon="120.104359">
				<speed>0.000000</speed>
				<ele>140.000000</ele>
				<time>2026-08-17T05:41:43Z</time>
			</trkpt>
			<trkpt lat="30.256770" lon="120.104354">
				<speed>0.000000</speed>
				<ele>140.000000</ele>
				<time>2026-08-17T05:41:44Z</time>
			</trkpt>
			<trkpt lat="30.256785" lon="120.104340">
				<speed>0.000000</speed>
				<ele>140.000000</ele>
				<time>2026-08-17T05:41:45Z</time>
			</trkpt>
			<trkpt lat="30.256790" lon="120.104337">
				<speed>0.000000</speed>
				<ele>140.000000</ele>
				<time>2026-08-17T05:41:46Z</time>
			</trkpt>
			<trkpt lat="30.256796" lon="120.104333">
				<speed>0.000000</speed>
				<ele>140.000000</ele>
				<time>2026-08-17T05:41:47Z</time>
			</trkpt>
			<trkpt lat="30.256802" lon="120.104330">
				<speed>0.000000</speed>
				<ele>140.000000</ele>
				<time>2026-08-17T05:41:48Z</time>
			</trkpt>
			<trkpt lat="30.256821" lon="120.104323">
				<speed>0.000000</speed>
				<ele>141.000000</ele>
				<time>2026-08-17T05:41:49Z</time>
			</trkpt>
			<trkpt lat="30.256829" lon="120.104320">
				<speed>0.000000</speed>
				<ele>141.000000</ele>
				<time>2026-08-17T05:41:50Z</time>
			</trkpt>
			<trkpt lat="30.256836" lon="120.104318">
				<speed>0.000000</speed>
				<ele>141.000000</ele>
				<time>2026-08-17T05:41:51Z</time>
			</trkpt>
			<trkpt lat="30.256843" lon="120.104316">
				<speed>0.000000</speed>
				<ele>141.000000</ele>
				<time>2026-08-17T05:41:52Z</time>
			</trkpt>
			<trkpt lat="30.256866" lon="120.104309">
				<speed>0.000000</speed>
				<ele>142.000000</ele>
				<time>2026-08-17T05:41:53Z</time>
			</trkpt>
			<trkpt lat="30.256874" lon="120.104307">
				<speed>0.000000</speed>
				<ele>142.000000</ele>
				<time>2026-08-17T05:41:54Z</time>
			</trkpt>
			<trkpt lat="30.256881" lon="120.104304">
				<speed>0.000000</speed>
				<ele>142.000000</ele>
				<time>2026-08-17T05:41:55Z</time>
			</trkpt>
			<trkpt lat="30.256888" lon="120.104302">
				<speed>0.000000</speed>
				<ele>142.000000</ele>
				<time>2026-08-17T05:41:56Z</time>
			</trkpt>
			<trkpt lat="30.256910" lon="120.104294">
				<speed>0.000000</speed>
				<ele>142.000000</ele>
				<time>2026-08-17T05:41:57Z</time>
			</trkpt>
			<trkpt lat="30.256917" lon="120.104291">
				<speed>0.000000</speed>
				<ele>142.000000</ele>
				<time>2026-08-17T05:41:58Z</time>
			</trkpt>
			<trkpt lat="30.256924" lon="120.104288">
				<speed>0.000000</speed>
				<ele>142.000000</ele>
				<time>2026-08-17T05:41:59Z</time>
			</trkpt>
			<trkpt lat="30.256932" lon="120.104286">
				<speed>0.000000</speed>
				<ele>142.000000</ele>
				<time>2026-08-17T05:42:00Z</time>
			</trkpt>
			<trkpt lat="30.256953" lon="120.104278">
				<speed>0.000000</speed>
				<ele>143.000000</ele>
				<time>2026-08-17T05:42:01Z</time>
			</trkpt>
			<trkpt lat="30.256959" lon="120.104276">
				<speed>0.000000</speed>
				<ele>143.000000</ele>
				<time>2026-08-17T05:42:02Z</time>
			</trkpt>
			<trkpt lat="30.256965" lon="120.104275">
				<speed>0.000000</speed>
				<ele>143.000000</ele>
				<time>2026-08-17T05:42:03Z</time>
			</trkpt>
			<trkpt lat="30.256972" lon="120.104274">
				<speed>0.000000</speed>
				<ele>143.000000</ele>
				<time>2026-08-17T05:42:04Z</time>
			</trkpt>
			<trkpt lat="30.256988" lon="120.104270">
				<speed>0.000000</speed>
				<ele>143.000000</ele>
				<time>2026-08-17T05:42:05Z</time>
			</trkpt>
			<trkpt lat="30.256993" lon="120.104270">
				<speed>0.000000</speed>
				<ele>143.000000</ele>
				<time>2026-08-17T05:42:06Z</time>
			</trkpt>
			<trkpt lat="30.256998" lon="120.104269">
				<speed>0.000000</speed>
				<ele>143.000000</ele>
				<time>2026-08-17T05:42:07Z</time>
			</trkpt>
			<trkpt lat="30.257004" lon="120.104268">
				<speed>0.000000</speed>
				<ele>143.000000</ele>
				<time>2026-08-17T05:42:08Z</time>
			</trkpt>
			<trkpt lat="30.257022" lon="120.104265">
				<speed>0.000000</speed>
				<ele>143.000000</ele>
				<time>2026-08-17T05:42:09Z</time>
			</trkpt>
			<trkpt lat="30.257029" lon="120.104263">
				<speed>0.000000</speed>
				<ele>143.000000</ele>
				<time>2026-08-17T05:42:10Z</time>
			</trkpt>
			<trkpt lat="30.257036" lon="120.104261">
				<speed>0.000000</speed>
				<ele>143.000000</ele>
				<time>2026-08-17T05:42:11Z</time>
			</trkpt>
			<trkpt lat="30.257043" lon="120.104260">
				<speed>0.000000</speed>
				<ele>143.000000</ele>
				<time>2026-08-17T05:42:12Z</time>
			</trkpt>
			<trkpt lat="30.257066" lon="120.104253">
				<speed>0.000000</speed>
				<ele>143.000000</ele>
				<time>2026-08-17T05:42:13Z</time>
			</trkpt>
			<trkpt lat="30.257074" lon="120.104251">
				<speed>0.000000</speed>
				<ele>143.000000</ele>
				<time>2026-08-17T05:42:14Z</time>
			</trkpt>
			<trkpt lat="30.257082" lon="120.104249">
				<speed>0.000000</speed>
				<ele>143.000000</ele>
				<time>2026-08-17T05:42:15Z</time>
			</trkpt>
			<trkpt lat="30.257090" lon="120.104247">
				<speed>0.000000</speed>
				<ele>143.000000</ele>
				<time>2026-08-17T05:42:16Z</time>
			</trkpt>
			<trkpt lat="30.257117" lon="120.104240">
				<speed>0.000000</speed>
				<ele>143.000000</ele>
				<time>2026-08-17T05:42:17Z</time>
			</trkpt>
			<trkpt lat="30.257125" lon="120.104238">
				<speed>0.000000</speed>
				<ele>143.000000</ele>
				<time>2026-08-17T05:42:18Z</time>
			</trkpt>
			<trkpt lat="30.257134" lon="120.104236">
				<speed>0.000000</speed>
				<ele>143.000000</ele>
				<time>2026-08-17T05:42:19Z</time>
			</trkpt>
			<trkpt lat="30.257144" lon="120.104234">
				<speed>0.000000</speed>
				<ele>143.000000</ele>
				<time>2026-08-17T05:42:20Z</time>
			</trkpt>
			<trkpt lat="30.257172" lon="120.104231">
				<speed>0.000000</speed>
				<ele>143.000000</ele>
				<time>2026-08-17T05:42:21Z</time>
			</trkpt>
			<trkpt lat="30.257182" lon="120.104231">
				<speed>0.000000</speed>
				<ele>143.000000</ele>
				<time>2026-08-17T05:42:22Z</time>
			</trkpt>
			<trkpt lat="30.257192" lon="120.104231">
				<speed>0.000000</speed>
				<ele>143.000000</ele>
				<time>2026-08-17T05:42:23Z</time>
			</trkpt>
			<trkpt lat="30.257202" lon="120.104231">
				<speed>0.000000</speed>
				<ele>143.000000</ele>
				<time>2026-08-17T05:42:24Z</time>
			</trkpt>
			<trkpt lat="30.257235" lon="120.104231">
				<speed>0.000000</speed>
				<ele>144.000000</ele>
				<time>2026-08-17T05:42:25Z</time>
			</trkpt>
			<trkpt lat="30.257248" lon="120.104230">
				<speed>0.000000</speed>
				<ele>144.000000</ele>
				<time>2026-08-17T05:42:26Z</time>
			</trkpt>
			<trkpt lat="30.257260" lon="120.104229">
				<speed>0.000000</speed>
				<ele>144.000000</ele>
				<time>2026-08-17T05:42:27Z</time>
			</trkpt>
			<trkpt lat="30.257273" lon="120.104228">
				<speed>0.000000</speed>
				<ele>144.000000</ele>
				<time>2026-08-17T05:42:28Z</time>
			</trkpt>
			<trkpt lat="30.257312" lon="120.104216">
				<speed>0.000000</speed>
				<ele>144.000000</ele>
				<time>2026-08-17T05:42:29Z</time>
			</trkpt>
			<trkpt lat="30.257324" lon="120.104209">
				<speed>0.000000</speed>
				<ele>144.000000</ele>
				<time>2026-08-17T05:42:30Z</time>
			</trkpt>
			<trkpt lat="30.257336" lon="120.104203">
				<speed>0.000000</speed>
				<ele>144.000000</ele>
				<time>2026-08-17T05:42:31Z</time>
			</trkpt>
			<trkpt lat="30.257348" lon="120.104197">
				<speed>0.000000</speed>
				<ele>144.000000</ele>
				<time>2026-08-17T05:42:32Z</time>
			</trkpt>
			<trkpt lat="30.257387" lon="120.104180">
				<speed>0.000000</speed>
				<ele>144.000000</ele>
				<time>2026-08-17T05:42:33Z</time>
			</trkpt>
			<trkpt lat="30.257402" lon="120.104175">
				<speed>0.000000</speed>
				<ele>144.000000</ele>
				<time>2026-08-17T05:42:34Z</time>
			</trkpt>
			<trkpt lat="30.257417" lon="120.104169">
				<speed>0.000000</speed>
				<ele>144.000000</ele>
				<time>2026-08-17T05:42:35Z</time>
			</trkpt>
			<trkpt lat="30.257432" lon="120.104163">
				<speed>0.000000</speed>
				<ele>144.000000</ele>
				<time>2026-08-17T05:42:36Z</time>
			</trkpt>
			<trkpt lat="30.257482" lon="120.104140">
				<speed>0.000000</speed>
				<ele>144.000000</ele>
				<time>2026-08-17T05:42:37Z</time>
			</trkpt>
			<trkpt lat="30.257500" lon="120.104131">
				<speed>0.000000</speed>
				<ele>143.000000</ele>
				<time>2026-08-17T05:42:38Z</time>
			</trkpt>
			<trkpt lat="30.257517" lon="120.104122">
				<speed>0.000000</speed>
				<ele>143.000000</ele>
				<time>2026-08-17T05:42:39Z</time>
			</trkpt>
			<trkpt lat="30.257535" lon="120.104113">
				<speed>0.000000</speed>
				<ele>143.000000</ele>
				<time>2026-08-17T05:42:40Z</time>
			</trkpt>
			<trkpt lat="30.257588" lon="120.104090">
				<speed>0.000000</speed>
				<ele>143.000000</ele>
				<time>2026-08-17T05:42:41Z</time>
			</trkpt>
			<trkpt lat="30.257606" lon="120.104083">
				<speed>0.000000</speed>
				<ele>142.000000</ele>
				<time>2026-08-17T05:42:42Z</time>
			</trkpt>
			<trkpt lat="30.257623" lon="120.104076">
				<speed>0.000000</speed>
				<ele>142.000000</ele>
				<time>2026-08-17T05:42:43Z</time>
			</trkpt>
			<trkpt lat="30.257640" lon="120.104069">
				<speed>0.000000</speed>
				<ele>142.000000</ele>
				<time>2026-08-17T05:42:44Z</time>
			</trkpt>
			<trkpt lat="30.257690" lon="120.104049">
				<speed>0.000000</speed>
				<ele>142.000000</ele>
				<time>2026-08-17T05:42:45Z</time>
			</trkpt>
			<trkpt lat="30.257706" lon="120.104042">
				<speed>0.000000</speed>
				<ele>141.000000</ele>
				<time>2026-08-17T05:42:46Z</time>
			</trkpt>
			<trkpt lat="30.257722" lon="120.104036">
				<speed>0.000000</speed>
				<ele>141.000000</ele>
				<time>2026-08-17T05:42:47Z</time>
			</trkpt>
			<trkpt lat="30.257739" lon="120.104029">
				<speed>0.000000</speed>
				<ele>140.000000</ele>
				<time>2026-08-17T05:42:48Z</time>
			</trkpt>
			<trkpt lat="30.257786" lon="120.104010">
				<speed>0.000000</speed>
				<ele>140.000000</ele>
				<time>2026-08-17T05:42:49Z</time>
			</trkpt>
			<trkpt lat="30.257800" lon="120.104003">
				<speed>0.000000</speed>
				<ele>139.000000</ele>
				<time>2026-08-17T05:42:50Z</time>
			</trkpt>
			<trkpt lat="30.257814" lon="120.103997">
				<speed>0.000000</speed>
				<ele>139.000000</ele>
				<time>2026-08-17T05:42:51Z</time>
			</trkpt>
			<trkpt lat="30.257829" lon="120.103991">
				<speed>0.000000</speed>
				<ele>138.000000</ele>
				<time>2026-08-17T05:42:52Z</time>
			</trkpt>
			<trkpt lat="30.257870" lon="120.103975">
				<speed>0.000000</speed>
				<ele>138.000000</ele>
				<time>2026-08-17T05:42:53Z</time>
			</trkpt>
			<trkpt lat="30.257886" lon="120.103972">
				<speed>0.000000</speed>
				<ele>137.000000</ele>
				<time>2026-08-17T05:42:54Z</time>
			</trkpt>
			<trkpt lat="30.257901" lon="120.103970">
				<speed>0.000000</speed>
				<ele>137.000000</ele>
				<time>2026-08-17T05:42:55Z</time>
			</trkpt>
			<trkpt lat="30.257916" lon="120.103968">
				<speed>0.000000</speed>
				<ele>137.000000</ele>
				<time>2026-08-17T05:42:56Z</time>
			</trkpt>
			<trkpt lat="30.257964" lon="120.103971">
				<speed>0.000000</speed>
				<ele>137.000000</ele>
				<time>2026-08-17T05:42:57Z</time>
			</trkpt>
			<trkpt lat="30.257979" lon="120.103974">
				<speed>0.000000</speed>
				<ele>136.000000</ele>
				<time>2026-08-17T05:42:58Z</time>
			</trkpt>
			<trkpt lat="30.257995" lon="120.103977">
				<speed>0.000000</speed>
				<ele>136.000000</ele>
				<time>2026-08-17T05:42:59Z</time>
			</trkpt>
			<trkpt lat="30.258010" lon="120.103980">
				<speed>0.000000</speed>
				<ele>136.000000</ele>
				<time>2026-08-17T05:43:00Z</time>
			</trkpt>
			<trkpt lat="30.258054" lon="120.103992">
				<speed>0.000000</speed>
				<ele>136.000000</ele>
				<time>2026-08-17T05:43:01Z</time>
			</trkpt>
			<trkpt lat="30.258067" lon="120.103997">
				<speed>0.000000</speed>
				<ele>136.000000</ele>
				<time>2026-08-17T05:43:02Z</time>
			</trkpt>
			<trkpt lat="30.258081" lon="120.104002">
				<speed>0.000000</speed>
				<ele>136.000000</ele>
				<time>2026-08-17T05:43:03Z</time>
			</trkpt>
			<trkpt lat="30.258095" lon="120.104007">
				<speed>0.000000</speed>
				<ele>136.000000</ele>
				<time>2026-08-17T05:43:04Z</time>
			</trkpt>
			<trkpt lat="30.258132" lon="120.104029">
				<speed>0.000000</speed>
				<ele>136.000000</ele>
				<time>2026-08-17T05:43:05Z</time>
			</trkpt>
			<trkpt lat="30.258143" lon="120.104037">
				<speed>0.000000</speed>
				<ele>136.000000</ele>
				<time>2026-08-17T05:43:06Z</time>
			</trkpt>
			<trkpt lat="30.258155" lon="120.104045">
				<speed>0.000000</speed>
				<ele>136.000000</ele>
				<time>2026-08-17T05:43:07Z</time>
			</trkpt>
			<trkpt lat="30.258167" lon="120.104053">
				<speed>0.000000</speed>
				<ele>136.000000</ele>
				<time>2026-08-17T05:43:08Z</time>
			</trkpt>
			<trkpt lat="30.258201" lon="120.104078">
				<speed>0.000000</speed>
				<ele>136.000000</ele>
				<time>2026-08-17T05:43:09Z</time>
			</trkpt>
			<trkpt lat="30.258211" lon="120.104087">
				<speed>0.000000</speed>
				<ele>136.000000</ele>
				<time>2026-08-17T05:43:10Z</time>
			</trkpt>
			<trkpt lat="30.258222" lon="120.104096">
				<speed>0.000000</speed>
				<ele>136.000000</ele>
				<time>2026-08-17T05:43:11Z</time>
			</trkpt>
			<trkpt lat="30.258232" lon="120.104105">
				<speed>0.000000</speed>
				<ele>136.000000</ele>
				<time>2026-08-17T05:43:12Z</time>
			</trkpt>
			<trkpt lat="30.258264" lon="120.104133">
				<speed>0.000000</speed>
				<ele>137.000000</ele>
				<time>2026-08-17T05:43:13Z</time>
			</trkpt>
			<trkpt lat="30.258275" lon="120.104142">
				<speed>0.000000</speed>
				<ele>137.000000</ele>
				<time>2026-08-17T05:43:14Z</time>
			</trkpt>
			<trkpt lat="30.258286" lon="120.104152">
				<speed>0.000000</speed>
				<ele>137.000000</ele>
				<time>2026-08-17T05:43:15Z</time>
			</trkpt>
			<trkpt lat="30.258297" lon="120.104162">
				<speed>0.000000</speed>
				<ele>137.000000</ele>
				<time>2026-08-17T05:43:16Z</time>
			</trkpt>
			<trkpt lat="30.258336" lon="120.104191">
				<speed>0.000000</speed>
				<ele>137.000000</ele>
				<time>2026-08-17T05:43:17Z</time>
			</trkpt>
			<trkpt lat="30.258351" lon="120.104201">
				<speed>0.000000</speed>
				<ele>137.000000</ele>
				<time>2026-08-17T05:43:18Z</time>
			</trkpt>
			<trkpt lat="30.258366" lon="120.104212">
				<speed>0.000000</speed>
				<ele>137.000000</ele>
				<time>2026-08-17T05:43:19Z</time>
			</trkpt>
			<trkpt lat="30.258381" lon="120.104222">
				<speed>0.000000</speed>
				<ele>137.000000</ele>
				<time>2026-08-17T05:43:20Z</time>
			</trkpt>
			<trkpt lat="30.258427" lon="120.104256">
				<speed>0.000000</speed>
				<ele>137.000000</ele>
				<time>2026-08-17T05:43:21Z</time>
			</trkpt>
			<trkpt lat="30.258441" lon="120.104267">
				<speed>0.000000</speed>
				<ele>136.000000</ele>
				<time>2026-08-17T05:43:22Z</time>
			</trkpt>
			<trkpt lat="30.258454" lon="120.104279">
				<speed>0.000000</speed>
				<ele>136.000000</ele>
				<time>2026-08-17T05:43:23Z</time>
			</trkpt>
			<trkpt lat="30.258468" lon="120.104290">
				<speed>0.000000</speed>
				<ele>136.000000</ele>
				<time>2026-08-17T05:43:24Z</time>
			</trkpt>
			<trkpt lat="30.258503" lon="120.104317">
				<speed>0.000000</speed>
				<ele>136.000000</ele>
				<time>2026-08-17T05:43:25Z</time>
			</trkpt>
			<trkpt lat="30.258514" lon="120.104322">
				<speed>0.000000</speed>
				<ele>135.000000</ele>
				<time>2026-08-17T05:43:26Z</time>
			</trkpt>
			<trkpt lat="30.258524" lon="120.104326">
				<speed>0.000000</speed>
				<ele>135.000000</ele>
				<time>2026-08-17T05:43:27Z</time>
			</trkpt>
			<trkpt lat="30.258535" lon="120.104330">
				<speed>0.000000</speed>
				<ele>135.000000</ele>
				<time>2026-08-17T05:43:28Z</time>
			</trkpt>
			<trkpt lat="30.258566" lon="120.104334">
				<speed>0.000000</speed>
				<ele>135.000000</ele>
				<time>2026-08-17T05:43:29Z</time>
			</trkpt>
			<trkpt lat="30.258576" lon="120.104334">
				<speed>0.000000</speed>
				<ele>135.000000</ele>
				<time>2026-08-17T05:43:30Z</time>
			</trkpt>
			<trkpt lat="30.258586" lon="120.104335">
				<speed>0.000000</speed>
				<ele>135.000000</ele>
				<time>2026-08-17T05:43:31Z</time>
			</trkpt>
			<trkpt lat="30.258596" lon="120.104335">
				<speed>0.000000</speed>
				<ele>135.000000</ele>
				<time>2026-08-17T05:43:32Z</time>
			</trkpt>
			<trkpt lat="30.258624" lon="120.104341">
				<speed>0.000000</speed>
				<ele>135.000000</ele>
				<time>2026-08-17T05:43:33Z</time>
			</trkpt>
			<trkpt lat="30.258630" lon="120.104344">
				<speed>0.000000</speed>
				<ele>135.000000</ele>
				<time>2026-08-17T05:43:34Z</time>
			</trkpt>
			<trkpt lat="30.258638" lon="120.104348">
				<speed>0.000000</speed>
				<ele>135.000000</ele>
				<time>2026-08-17T05:43:35Z</time>
			</trkpt>
			<trkpt lat="30.258645" lon="120.104351">
				<speed>0.000000</speed>
				<ele>135.000000</ele>
				<time>2026-08-17T05:43:36Z</time>
			</trkpt>
			<trkpt lat="30.258647" lon="120.104361">
				<speed>0.000000</speed>
				<ele>137.000000</ele>
				<time>2026-08-17T05:43:50Z</time>
			</trkpt>
			<trkpt lat="30.258652" lon="120.104373">
				<speed>0.000000</speed>
				<ele>137.000000</ele>
				<time>2026-08-17T05:43:51Z</time>
			</trkpt>
			<trkpt lat="30.258654" lon="120.104376">
				<speed>0.000000</speed>
				<ele>137.000000</ele>
				<time>2026-08-17T05:43:52Z</time>
			</trkpt>
			<trkpt lat="30.258656" lon="120.104380">
				<speed>0.000000</speed>
				<ele>137.000000</ele>
				<time>2026-08-17T05:43:53Z</time>
			</trkpt>
			<trkpt lat="30.258658" lon="120.104383">
				<speed>0.000000</speed>
				<ele>137.000000</ele>
				<time>2026-08-17T05:43:54Z</time>
			</trkpt>
			<trkpt lat="30.258667" lon="120.104395">
				<speed>0.000000</speed>
				<ele>137.000000</ele>
				<time>2026-08-17T05:43:55Z</time>
			</trkpt>
			<trkpt lat="30.258671" lon="120.104399">
				<speed>0.000000</speed>
				<ele>137.000000</ele>
				<time>2026-08-17T05:43:56Z</time>
			</trkpt>
			<trkpt lat="30.258675" lon="120.104404">
				<speed>0.000000</speed>
				<ele>137.000000</ele>
				<time>2026-08-17T05:43:57Z</time>
			</trkpt>
			<trkpt lat="30.258679" lon="120.104408">
				<speed>0.000000</speed>
				<ele>137.000000</ele>
				<time>2026-08-17T05:43:58Z</time>
			</trkpt>
			<trkpt lat="30.258692" lon="120.104420">
				<speed>0.000000</speed>
				<ele>137.000000</ele>
				<time>2026-08-17T05:43:59Z</time>
			</trkpt>
			<trkpt lat="30.258696" lon="120.104424">
				<speed>0.000000</speed>
				<ele>137.000000</ele>
				<time>2026-08-17T05:44:00Z</time>
			</trkpt>
			<trkpt lat="30.258701" lon="120.104428">
				<speed>0.000000</speed>
				<ele>138.000000</ele>
				<time>2026-08-17T05:44:01Z</time>
			</trkpt>
			<trkpt lat="30.258705" lon="120.104432">
				<speed>0.000000</speed>
				<ele>138.000000</ele>
				<time>2026-08-17T05:44:02Z</time>
			</trkpt>
			<trkpt lat="30.258717" lon="120.104444">
				<speed>0.000000</speed>
				<ele>138.000000</ele>
				<time>2026-08-17T05:44:03Z</time>
			</trkpt>
			<trkpt lat="30.258721" lon="120.104448">
				<speed>0.000000</speed>
				<ele>138.000000</ele>
				<time>2026-08-17T05:44:04Z</time>
			</trkpt>
			<trkpt lat="30.258726" lon="120.104453">
				<speed>0.000000</speed>
				<ele>138.000000</ele>
				<time>2026-08-17T05:44:05Z</time>
			</trkpt>
			<trkpt lat="30.258730" lon="120.104457">
				<speed>0.000000</speed>
				<ele>138.000000</ele>
				<time>2026-08-17T05:44:06Z</time>
			</trkpt>
			<trkpt lat="30.258743" lon="120.104471">
				<speed>0.000000</speed>
				<ele>138.000000</ele>
				<time>2026-08-17T05:44:07Z</time>
			</trkpt>
			<trkpt lat="30.258747" lon="120.104476">
				<speed>0.000000</speed>
				<ele>138.000000</ele>
				<time>2026-08-17T05:44:08Z</time>
			</trkpt>
			<trkpt lat="30.258751" lon="120.104481">
				<speed>0.000000</speed>
				<ele>138.000000</ele>
				<time>2026-08-17T05:44:09Z</time>
			</trkpt>
			<trkpt lat="30.258755" lon="120.104486">
				<speed>0.000000</speed>
				<ele>138.000000</ele>
				<time>2026-08-17T05:44:10Z</time>
			</trkpt>
			<trkpt lat="30.258766" lon="120.104500">
				<speed>0.000000</speed>
				<ele>138.000000</ele>
				<time>2026-08-17T05:44:11Z</time>
			</trkpt>
			<trkpt lat="30.258770" lon="120.104504">
				<speed>0.000000</speed>
				<ele>138.000000</ele>
				<time>2026-08-17T05:44:12Z</time>
			</trkpt>
			<trkpt lat="30.258773" lon="120.104508">
				<speed>0.000000</speed>
				<ele>139.000000</ele>
				<time>2026-08-17T05:44:13Z</time>
			</trkpt>
			<trkpt lat="30.258776" lon="120.104513">
				<speed>0.000000</speed>
				<ele>139.000000</ele>
				<time>2026-08-17T05:44:14Z</time>
			</trkpt>
			<trkpt lat="30.258786" lon="120.104528">
				<speed>0.000000</speed>
				<ele>139.000000</ele>
				<time>2026-08-17T05:44:15Z</time>
			</trkpt>
			<trkpt lat="30.258789" lon="120.104534">
				<speed>0.000000</speed>
				<ele>139.000000</ele>
				<time>2026-08-17T05:44:16Z</time>
			</trkpt>
			<trkpt lat="30.258792" lon="120.104539">
				<speed>0.000000</speed>
				<ele>139.000000</ele>
				<time>2026-08-17T05:44:17Z</time>
			</trkpt>
			<trkpt lat="30.258796" lon="120.104545">
				<speed>0.000000</speed>
				<ele>139.000000</ele>
				<time>2026-08-17T05:44:18Z</time>
			</trkpt>
			<trkpt lat="30.258806" lon="120.104561">
				<speed>0.000000</speed>
				<ele>139.000000</ele>
				<time>2026-08-17T05:44:19Z</time>
			</trkpt>
			<trkpt lat="30.258809" lon="120.104566">
				<speed>0.000000</speed>
				<ele>139.000000</ele>
				<time>2026-08-17T05:44:20Z</time>
			</trkpt>
			<trkpt lat="30.258812" lon="120.104571">
				<speed>0.000000</speed>
				<ele>140.000000</ele>
				<time>2026-08-17T05:44:21Z</time>
			</trkpt>
			<trkpt lat="30.258816" lon="120.104575">
				<speed>0.000000</speed>
				<ele>140.000000</ele>
				<time>2026-08-17T05:44:22Z</time>
			</trkpt>
			<trkpt lat="30.258825" lon="120.104588">
				<speed>0.000000</speed>
				<ele>140.000000</ele>
				<time>2026-08-17T05:44:23Z</time>
			</trkpt>
			<trkpt lat="30.258827" lon="120.104593">
				<speed>0.000000</speed>
				<ele>140.000000</ele>
				<time>2026-08-17T05:44:24Z</time>
			</trkpt>
			<trkpt lat="30.258830" lon="120.104598">
				<speed>0.000000</speed>
				<ele>141.000000</ele>
				<time>2026-08-17T05:44:25Z</time>
			</trkpt>
			<trkpt lat="30.258833" lon="120.104603">
				<speed>0.000000</speed>
				<ele>141.000000</ele>
				<time>2026-08-17T05:44:26Z</time>
			</trkpt>
			<trkpt lat="30.258838" lon="120.104617">
				<speed>0.000000</speed>
				<ele>141.000000</ele>
				<time>2026-08-17T05:44:27Z</time>
			</trkpt>
			<trkpt lat="30.258839" lon="120.104622">
				<speed>0.000000</speed>
				<ele>141.000000</ele>
				<time>2026-08-17T05:44:28Z</time>
			</trkpt>
			<trkpt lat="30.258841" lon="120.104627">
				<speed>0.000000</speed>
				<ele>141.000000</ele>
				<time>2026-08-17T05:44:29Z</time>
			</trkpt>
			<trkpt lat="30.258843" lon="120.104632">
				<speed>0.000000</speed>
				<ele>141.000000</ele>
				<time>2026-08-17T05:44:30Z</time>
			</trkpt>
			<trkpt lat="30.258849" lon="120.104649">
				<speed>0.000000</speed>
				<ele>141.000000</ele>
				<time>2026-08-17T05:44:31Z</time>
			</trkpt>
			<trkpt lat="30.258852" lon="120.104655">
				<speed>0.000000</speed>
				<ele>141.000000</ele>
				<time>2026-08-17T05:44:32Z</time>
			</trkpt>
			<trkpt lat="30.258854" lon="120.104661">
				<speed>0.000000</speed>
				<ele>142.000000</ele>
				<time>2026-08-17T05:44:33Z</time>
			</trkpt>
			<trkpt lat="30.258857" lon="120.104666">
				<speed>0.000000</speed>
				<ele>142.000000</ele>
				<time>2026-08-17T05:44:34Z</time>
			</trkpt>
			<trkpt lat="30.258868" lon="120.104684">
				<speed>0.000000</speed>
				<ele>142.000000</ele>
				<time>2026-08-17T05:44:35Z</time>
			</trkpt>
			<trkpt lat="30.258872" lon="120.104690">
				<speed>0.000000</speed>
				<ele>142.000000</ele>
				<time>2026-08-17T05:44:36Z</time>
			</trkpt>
			<trkpt lat="30.258877" lon="120.104695">
				<speed>0.000000</speed>
				<ele>143.000000</ele>
				<time>2026-08-17T05:44:37Z</time>
			</trkpt>
			<trkpt lat="30.258881" lon="120.104701">
				<speed>0.000000</speed>
				<ele>143.000000</ele>
				<time>2026-08-17T05:44:38Z</time>
			</trkpt>
			<trkpt lat="30.258895" lon="120.104717">
				<speed>0.000000</speed>
				<ele>143.000000</ele>
				<time>2026-08-17T05:44:39Z</time>
			</trkpt>
			<trkpt lat="30.258899" lon="120.104723">
				<speed>0.000000</speed>
				<ele>143.000000</ele>
				<time>2026-08-17T05:44:40Z</time>
			</trkpt>
			<trkpt lat="30.258903" lon="120.104729">
				<speed>0.000000</speed>
				<ele>143.000000</ele>
				<time>2026-08-17T05:44:41Z</time>
			</trkpt>
			<trkpt lat="30.258907" lon="120.104735">
				<speed>0.000000</speed>
				<ele>143.000000</ele>
				<time>2026-08-17T05:44:42Z</time>
			</trkpt>
			<trkpt lat="30.258916" lon="120.104758">
				<speed>0.000000</speed>
				<ele>143.000000</ele>
				<time>2026-08-17T05:44:43Z</time>
			</trkpt>
			<trkpt lat="30.258919" lon="120.104767">
				<speed>0.000000</speed>
				<ele>143.000000</ele>
				<time>2026-08-17T05:44:44Z</time>
			</trkpt>
			<trkpt lat="30.258921" lon="120.104776">
				<speed>0.000000</speed>
				<ele>144.000000</ele>
				<time>2026-08-17T05:44:45Z</time>
			</trkpt>
			<trkpt lat="30.258924" lon="120.104785">
				<speed>0.000000</speed>
				<ele>144.000000</ele>
				<time>2026-08-17T05:44:46Z</time>
			</trkpt>
			<trkpt lat="30.258931" lon="120.104811">
				<speed>0.000000</speed>
				<ele>144.000000</ele>
				<time>2026-08-17T05:44:47Z</time>
			</trkpt>
			<trkpt lat="30.258934" lon="120.104820">
				<speed>0.000000</speed>
				<ele>144.000000</ele>
				<time>2026-08-17T05:44:48Z</time>
			</trkpt>
			<trkpt lat="30.258936" lon="120.104828">
				<speed>0.000000</speed>
				<ele>144.000000</ele>
				<time>2026-08-17T05:44:49Z</time>
			</trkpt>
			<trkpt lat="30.258939" lon="120.104837">
				<speed>0.000000</speed>
				<ele>144.000000</ele>
				<time>2026-08-17T05:44:50Z</time>
			</trkpt>
			<trkpt lat="30.258948" lon="120.104862">
				<speed>0.000000</speed>
				<ele>144.000000</ele>
				<time>2026-08-17T05:44:51Z</time>
			</trkpt>
			<trkpt lat="30.258950" lon="120.104869">
				<speed>0.000000</speed>
				<ele>144.000000</ele>
				<time>2026-08-17T05:44:52Z</time>
			</trkpt>
			<trkpt lat="30.258953" lon="120.104877">
				<speed>0.000000</speed>
				<ele>144.000000</ele>
				<time>2026-08-17T05:44:53Z</time>
			</trkpt>
			<trkpt lat="30.258956" lon="120.104885">
				<speed>0.000000</speed>
				<ele>144.000000</ele>
				<time>2026-08-17T05:44:54Z</time>
			</trkpt>
			<trkpt lat="30.258962" lon="120.104908">
				<speed>0.000000</speed>
				<ele>144.000000</ele>
				<time>2026-08-17T05:44:55Z</time>
			</trkpt>
			<trkpt lat="30.258965" lon="120.104915">
				<speed>0.000000</speed>
				<ele>144.000000</ele>
				<time>2026-08-17T05:44:56Z</time>
			</trkpt>
			<trkpt lat="30.258967" lon="120.104923">
				<speed>0.000000</speed>
				<ele>144.000000</ele>
				<time>2026-08-17T05:44:57Z</time>
			</trkpt>
			<trkpt lat="30.258969" lon="120.104930">
				<speed>0.000000</speed>
				<ele>144.000000</ele>
				<time>2026-08-17T05:44:58Z</time>
			</trkpt>
			<trkpt lat="30.258977" lon="120.104953">
				<speed>0.000000</speed>
				<ele>144.000000</ele>
				<time>2026-08-17T05:44:59Z</time>
			</trkpt>
			<trkpt lat="30.258979" lon="120.104961">
				<speed>0.000000</speed>
				<ele>144.000000</ele>
				<time>2026-08-17T05:45:00Z</time>
			</trkpt>
			<trkpt lat="30.258982" lon="120.104969">
				<speed>0.000000</speed>
				<ele>144.000000</ele>
				<time>2026-08-17T05:45:01Z</time>
			</trkpt>
			<trkpt lat="30.258984" lon="120.104976">
				<speed>0.000000</speed>
				<ele>144.000000</ele>
				<time>2026-08-17T05:45:02Z</time>
			</trkpt>
			<trkpt lat="30.258990" lon="120.104997">
				<speed>0.000000</speed>
				<ele>144.000000</ele>
				<time>2026-08-17T05:45:03Z</time>
			</trkpt>
			<trkpt lat="30.258992" lon="120.105004">
				<speed>0.000000</speed>
				<ele>144.000000</ele>
				<time>2026-08-17T05:45:04Z</time>
			</trkpt>
			<trkpt lat="30.258995" lon="120.105010">
				<speed>0.000000</speed>
				<ele>144.000000</ele>
				<time>2026-08-17T05:45:05Z</time>
			</trkpt>
			<trkpt lat="30.258998" lon="120.105016">
				<speed>0.000000</speed>
				<ele>144.000000</ele>
				<time>2026-08-17T05:45:06Z</time>
			</trkpt>
			<trkpt lat="30.259006" lon="120.105035">
				<speed>0.000000</speed>
				<ele>144.000000</ele>
				<time>2026-08-17T05:45:07Z</time>
			</trkpt>
			<trkpt lat="30.259009" lon="120.105042">
				<speed>0.000000</speed>
				<ele>144.000000</ele>
				<time>2026-08-17T05:45:08Z</time>
			</trkpt>
			<trkpt lat="30.259011" lon="120.105048">
				<speed>0.000000</speed>
				<ele>144.000000</ele>
				<time>2026-08-17T05:45:09Z</time>
			</trkpt>
			<trkpt lat="30.259014" lon="120.105055">
				<speed>0.000000</speed>
				<ele>144.000000</ele>
				<time>2026-08-17T05:45:10Z</time>
			</trkpt>
			<trkpt lat="30.259020" lon="120.105079">
				<speed>0.000000</speed>
				<ele>144.000000</ele>
				<time>2026-08-17T05:45:11Z</time>
			</trkpt>
			<trkpt lat="30.259022" lon="120.105087">
				<speed>0.000000</speed>
				<ele>144.000000</ele>
				<time>2026-08-17T05:45:12Z</time>
			</trkpt>
			<trkpt lat="30.259024" lon="120.105096">
				<speed>0.000000</speed>
				<ele>144.000000</ele>
				<time>2026-08-17T05:45:13Z</time>
			</trkpt>
			<trkpt lat="30.259026" lon="120.105104">
				<speed>0.000000</speed>
				<ele>144.000000</ele>
				<time>2026-08-17T05:45:14Z</time>
			</trkpt>
			<trkpt lat="30.259032" lon="120.105129">
				<speed>0.000000</speed>
				<ele>144.000000</ele>
				<time>2026-08-17T05:45:15Z</time>
			</trkpt>
			<trkpt lat="30.259033" lon="120.105137">
				<speed>0.000000</speed>
				<ele>144.000000</ele>
				<time>2026-08-17T05:45:16Z</time>
			</trkpt>
			<trkpt lat="30.259035" lon="120.105146">
				<speed>0.000000</speed>
				<ele>144.000000</ele>
				<time>2026-08-17T05:45:17Z</time>
			</trkpt>
			<trkpt lat="30.259037" lon="120.105154">
				<speed>0.000000</speed>
				<ele>144.000000</ele>
				<time>2026-08-17T05:45:18Z</time>
			</trkpt>
			<trkpt lat="30.259043" lon="120.105180">
				<speed>0.000000</speed>
				<ele>144.000000</ele>
				<time>2026-08-17T05:45:19Z</time>
			</trkpt>
			<trkpt lat="30.259046" lon="120.105189">
				<speed>0.000000</speed>
				<ele>144.000000</ele>
				<time>2026-08-17T05:45:20Z</time>
			</trkpt>
			<trkpt lat="30.259049" lon="120.105197">
				<speed>0.000000</speed>
				<ele>144.000000</ele>
				<time>2026-08-17T05:45:21Z</time>
			</trkpt>
			<trkpt lat="30.259051" lon="120.105205">
				<speed>0.000000</speed>
				<ele>143.000000</ele>
				<time>2026-08-17T05:45:22Z</time>
			</trkpt>
			<trkpt lat="30.259063" lon="120.105228">
				<speed>0.000000</speed>
				<ele>143.000000</ele>
				<time>2026-08-17T05:45:23Z</time>
			</trkpt>
			<trkpt lat="30.259067" lon="120.105235">
				<speed>0.000000</speed>
				<ele>143.000000</ele>
				<time>2026-08-17T05:45:24Z</time>
			</trkpt>
			<trkpt lat="30.259071" lon="120.105242">
				<speed>0.000000</speed>
				<ele>143.000000</ele>
				<time>2026-08-17T05:45:25Z</time>
			</trkpt>
			<trkpt lat="30.259075" lon="120.105249">
				<speed>0.000000</speed>
				<ele>143.000000</ele>
				<time>2026-08-17T05:45:26Z</time>
			</trkpt>
			<trkpt lat="30.259086" lon="120.105268">
				<speed>0.000000</speed>
				<ele>143.000000</ele>
				<time>2026-08-17T05:45:27Z</time>
			</trkpt>
			<trkpt lat="30.259089" lon="120.105273">
				<speed>0.000000</speed>
				<ele>143.000000</ele>
				<time>2026-08-17T05:45:28Z</time>
			</trkpt>
			<trkpt lat="30.259093" lon="120.105278">
				<speed>0.000000</speed>
				<ele>143.000000</ele>
				<time>2026-08-17T05:45:29Z</time>
			</trkpt>
			<trkpt lat="30.259096" lon="120.105283">
				<speed>0.000000</speed>
				<ele>143.000000</ele>
				<time>2026-08-17T05:45:30Z</time>
			</trkpt>
			<trkpt lat="30.259108" lon="120.105291">
				<speed>0.000000</speed>
				<ele>143.000000</ele>
				<time>2026-08-17T05:45:31Z</time>
			</trkpt>
			<trkpt lat="30.259113" lon="120.105292">
				<speed>0.000000</speed>
				<ele>143.000000</ele>
				<time>2026-08-17T05:45:32Z</time>
			</trkpt>
			<trkpt lat="30.259118" lon="120.105292">
				<speed>0.000000</speed>
				<ele>143.000000</ele>
				<time>2026-08-17T05:45:33Z</time>
			</trkpt>
			<trkpt lat="30.259123" lon="120.105293">
				<speed>0.000000</speed>
				<ele>143.000000</ele>
				<time>2026-08-17T05:45:34Z</time>
			</trkpt>
			<trkpt lat="30.259139" lon="120.105294">
				<speed>0.000000</speed>
				<ele>143.000000</ele>
				<time>2026-08-17T05:45:35Z</time>
			</trkpt>
			<trkpt lat="30.259145" lon="120.105294">
				<speed>0.000000</speed>
				<ele>143.000000</ele>
				<time>2026-08-17T05:45:36Z</time>
			</trkpt>
			<trkpt lat="30.259151" lon="120.105294">
				<speed>0.000000</speed>
				<ele>143.000000</ele>
				<time>2026-08-17T05:45:37Z</time>
			</trkpt>
			<trkpt lat="30.259156" lon="120.105293">
				<speed>0.000000</speed>
				<ele>143.000000</ele>
				<time>2026-08-17T05:45:38Z</time>
			</trkpt>
			<trkpt lat="30.259173" lon="120.105296">
				<speed>0.000000</speed>
				<ele>143.000000</ele>
				<time>2026-08-17T05:45:39Z</time>
			</trkpt>
			<trkpt lat="30.259177" lon="120.105297">
				<speed>0.000000</speed>
				<ele>143.000000</ele>
				<time>2026-08-17T05:45:40Z</time>
			</trkpt>
			<trkpt lat="30.259182" lon="120.105299">
				<speed>0.000000</speed>
				<ele>144.000000</ele>
				<time>2026-08-17T05:45:41Z</time>
			</trkpt>
			<trkpt lat="30.259187" lon="120.105301">
				<speed>0.000000</speed>
				<ele>144.000000</ele>
				<time>2026-08-17T05:45:42Z</time>
			</trkpt>
			<trkpt lat="30.259201" lon="120.105306">
				<speed>0.000000</speed>
				<ele>144.000000</ele>
				<time>2026-08-17T05:45:43Z</time>
			</trkpt>
			<trkpt lat="30.259205" lon="120.105306">
				<speed>0.000000</speed>
				<ele>144.000000</ele>
				<time>2026-08-17T05:45:44Z</time>
			</trkpt>
			<trkpt lat="30.259210" lon="120.105306">
				<speed>0.000000</speed>
				<ele>144.000000</ele>
				<time>2026-08-17T05:45:45Z</time>
			</trkpt>
			<trkpt lat="30.259215" lon="120.105305">
				<speed>0.000000</speed>
				<ele>144.000000</ele>
				<time>2026-08-17T05:45:46Z</time>
			</trkpt>
			<trkpt lat="30.259228" lon="120.105298">
				<speed>0.000000</speed>
				<ele>144.000000</ele>
				<time>2026-08-17T05:45:47Z</time>
			</trkpt>
			<trkpt lat="30.259232" lon="120.105295">
				<speed>0.000000</speed>
				<ele>144.000000</ele>
				<time>2026-08-17T05:45:48Z</time>
			</trkpt>
			<trkpt lat="30.259236" lon="120.105292">
				<speed>0.000000</speed>
				<ele>145.000000</ele>
				<time>2026-08-17T05:45:49Z</time>
			</trkpt>
			<trkpt lat="30.259241" lon="120.105289">
				<speed>0.000000</speed>
				<ele>145.000000</ele>
				<time>2026-08-17T05:45:50Z</time>
			</trkpt>
			<trkpt lat="30.259254" lon="120.105282">
				<speed>0.000000</speed>
				<ele>145.000000</ele>
				<time>2026-08-17T05:45:51Z</time>
			</trkpt>
			<trkpt lat="30.259260" lon="120.105281">
				<speed>0.000000</speed>
				<ele>145.000000</ele>
				<time>2026-08-17T05:45:52Z</time>
			</trkpt>
			<trkpt lat="30.259265" lon="120.105279">
				<speed>0.000000</speed>
				<ele>146.000000</ele>
				<time>2026-08-17T05:45:53Z</time>
			</trkpt>
			<trkpt lat="30.259270" lon="120.105278">
				<speed>0.000000</speed>
				<ele>146.000000</ele>
				<time>2026-08-17T05:45:54Z</time>
			</trkpt>
			<trkpt lat="30.259287" lon="120.105275">
				<speed>0.000000</speed>
				<ele>146.000000</ele>
				<time>2026-08-17T05:45:55Z</time>
			</trkpt>
			<trkpt lat="30.259292" lon="120.105274">
				<speed>0.000000</speed>
				<ele>146.000000</ele>
				<time>2026-08-17T05:45:56Z</time>
			</trkpt>
			<trkpt lat="30.259297" lon="120.105274">
				<speed>0.000000</speed>
				<ele>147.000000</ele>
				<time>2026-08-17T05:45:57Z</time>
			</trkpt>
			<trkpt lat="30.259303" lon="120.105273">
				<speed>0.000000</speed>
				<ele>147.000000</ele>
				<time>2026-08-17T05:45:58Z</time>
			</trkpt>
			<trkpt lat="30.259313" lon="120.105275">
				<speed>0.000000</speed>
				<ele>148.000000</ele>
				<time>2026-08-17T05:46:04Z</time>
			</trkpt>
			<trkpt lat="30.259325" lon="120.105279">
				<speed>0.000000</speed>
				<ele>149.000000</ele>
				<time>2026-08-17T05:46:05Z</time>
			</trkpt>
			<trkpt lat="30.259329" lon="120.105281">
				<speed>0.000000</speed>
				<ele>149.000000</ele>
				<time>2026-08-17T05:46:06Z</time>
			</trkpt>
			<trkpt lat="30.259332" lon="120.105283">
				<speed>0.000000</speed>
				<ele>149.000000</ele>
				<time>2026-08-17T05:46:07Z</time>
			</trkpt>
			<trkpt lat="30.259335" lon="120.105285">
				<speed>0.000000</speed>
				<ele>149.000000</ele>
				<time>2026-08-17T05:46:08Z</time>
			</trkpt>
			<trkpt lat="30.259349" lon="120.105292">
				<speed>0.000000</speed>
				<ele>150.000000</ele>
				<time>2026-08-17T05:46:09Z</time>
			</trkpt>
			<trkpt lat="30.259354" lon="120.105295">
				<speed>0.000000</speed>
				<ele>150.000000</ele>
				<time>2026-08-17T05:46:10Z</time>
			</trkpt>
			<trkpt lat="30.259360" lon="120.105298">
				<speed>0.000000</speed>
				<ele>150.000000</ele>
				<time>2026-08-17T05:46:11Z</time>
			</trkpt>
			<trkpt lat="30.259365" lon="120.105301">
				<speed>0.000000</speed>
				<ele>150.000000</ele>
				<time>2026-08-17T05:46:12Z</time>
			</trkpt>
			<trkpt lat="30.259383" lon="120.105311">
				<speed>0.000000</speed>
				<ele>150.000000</ele>
				<time>2026-08-17T05:46:13Z</time>
			</trkpt>
			<trkpt lat="30.259389" lon="120.105314">
				<speed>0.000000</speed>
				<ele>150.000000</ele>
				<time>2026-08-17T05:46:14Z</time>
			</trkpt>
			<trkpt lat="30.259395" lon="120.105317">
				<speed>0.000000</speed>
				<ele>150.000000</ele>
				<time>2026-08-17T05:46:15Z</time>
			</trkpt>
			<trkpt lat="30.259402" lon="120.105320">
				<speed>0.000000</speed>
				<ele>150.000000</ele>
				<time>2026-08-17T05:46:16Z</time>
			</trkpt>
			<trkpt lat="30.259422" lon="120.105328">
				<speed>0.000000</speed>
				<ele>151.000000</ele>
				<time>2026-08-17T05:46:17Z</time>
			</trkpt>
			<trkpt lat="30.259429" lon="120.105330">
				<speed>0.000000</speed>
				<ele>151.000000</ele>
				<time>2026-08-17T05:46:18Z</time>
			</trkpt>
			<trkpt lat="30.259436" lon="120.105332">
				<speed>0.000000</speed>
				<ele>151.000000</ele>
				<time>2026-08-17T05:46:19Z</time>
			</trkpt>
			<trkpt lat="30.259443" lon="120.105334">
				<speed>0.000000</speed>
				<ele>151.000000</ele>
				<time>2026-08-17T05:46:20Z</time>
			</trkpt>
			<trkpt lat="30.259465" lon="120.105337">
				<speed>0.000000</speed>
				<ele>151.000000</ele>
				<time>2026-08-17T05:46:21Z</time>
			</trkpt>
			<trkpt lat="30.259472" lon="120.105337">
				<speed>0.000000</speed>
				<ele>151.000000</ele>
				<time>2026-08-17T05:46:22Z</time>
			</trkpt>
			<trkpt lat="30.259479" lon="120.105337">
				<speed>0.000000</speed>
				<ele>151.000000</ele>
				<time>2026-08-17T05:46:23Z</time>
			</trkpt>
			<trkpt lat="30.259486" lon="120.105337">
				<speed>0.000000</speed>
				<ele>151.000000</ele>
				<time>2026-08-17T05:46:24Z</time>
			</trkpt>
			<trkpt lat="30.259506" lon="120.105334">
				<speed>0.000000</speed>
				<ele>152.000000</ele>
				<time>2026-08-17T05:46:25Z</time>
			</trkpt>
			<trkpt lat="30.259512" lon="120.105331">
				<speed>0.000000</speed>
				<ele>152.000000</ele>
				<time>2026-08-17T05:46:26Z</time>
			</trkpt>
			<trkpt lat="30.259518" lon="120.105329">
				<speed>0.000000</speed>
				<ele>152.000000</ele>
				<time>2026-08-17T05:46:27Z</time>
			</trkpt>
			<trkpt lat="30.259524" lon="120.105327">
				<speed>0.000000</speed>
				<ele>152.000000</ele>
				<time>2026-08-17T05:46:28Z</time>
			</trkpt>
			<trkpt lat="30.259541" lon="120.105318">
				<speed>0.000000</speed>
				<ele>152.000000</ele>
				<time>2026-08-17T05:46:29Z</time>
			</trkpt>
			<trkpt lat="30.259547" lon="120.105315">
				<speed>0.000000</speed>
				<ele>152.000000</ele>
				<time>2026-08-17T05:46:30Z</time>
			</trkpt>
			<trkpt lat="30.259552" lon="120.105312">
				<speed>0.000000</speed>
				<ele>152.000000</ele>
				<time>2026-08-17T05:46:31Z</time>
			</trkpt>
			<trkpt lat="30.259558" lon="120.105309">
				<speed>0.000000</speed>
				<ele>152.000000</ele>
				<time>2026-08-17T05:46:32Z</time>
			</trkpt>
			<trkpt lat="30.259573" lon="120.105299">
				<speed>0.000000</speed>
				<ele>153.000000</ele>
				<time>2026-08-17T05:46:33Z</time>
			</trkpt>
			<trkpt lat="30.259579" lon="120.105296">
				<speed>0.000000</speed>
				<ele>153.000000</ele>
				<time>2026-08-17T05:46:34Z</time>
			</trkpt>
			<trkpt lat="30.259584" lon="120.105293">
				<speed>0.000000</speed>
				<ele>153.000000</ele>
				<time>2026-08-17T05:46:35Z</time>
			</trkpt>
			<trkpt lat="30.259590" lon="120.105290">
				<speed>0.000000</speed>
				<ele>153.000000</ele>
				<time>2026-08-17T05:46:36Z</time>
			</trkpt>
			<trkpt lat="30.259607" lon="120.105281">
				<speed>0.000000</speed>
				<ele>153.000000</ele>
				<time>2026-08-17T05:46:37Z</time>
			</trkpt>
			<trkpt lat="30.259613" lon="120.105277">
				<speed>0.000000</speed>
				<ele>153.000000</ele>
				<time>2026-08-17T05:46:38Z</time>
			</trkpt>
			<trkpt lat="30.259619" lon="120.105274">
				<speed>0.000000</speed>
				<ele>153.000000</ele>
				<time>2026-08-17T05:46:39Z</time>
			</trkpt>
			<trkpt lat="30.259625" lon="120.105271">
				<speed>0.000000</speed>
				<ele>153.000000</ele>
				<time>2026-08-17T05:46:40Z</time>
			</trkpt>
			<trkpt lat="30.259643" lon="120.105262">
				<speed>0.000000</speed>
				<ele>153.000000</ele>
				<time>2026-08-17T05:46:41Z</time>
			</trkpt>
			<trkpt lat="30.259649" lon="120.105258">
				<speed>0.000000</speed>
				<ele>153.000000</ele>
				<time>2026-08-17T05:46:42Z</time>
			</trkpt>
			<trkpt lat="30.259655" lon="120.105255">
				<speed>0.000000</speed>
				<ele>153.000000</ele>
				<time>2026-08-17T05:46:43Z</time>
			</trkpt>
			<trkpt lat="30.259661" lon="120.105252">
				<speed>0.000000</speed>
				<ele>153.000000</ele>
				<time>2026-08-17T05:46:44Z</time>
			</trkpt>
			<trkpt lat="30.259680" lon="120.105242">
				<speed>0.000000</speed>
				<ele>154.000000</ele>
				<time>2026-08-17T05:46:45Z</time>
			</trkpt>
			<trkpt lat="30.259687" lon="120.105239">
				<speed>0.000000</speed>
				<ele>154.000000</ele>
				<time>2026-08-17T05:46:46Z</time>
			</trkpt>
			<trkpt lat="30.259695" lon="120.105236">
				<speed>0.000000</speed>
				<ele>154.000000</ele>
				<time>2026-08-17T05:46:47Z</time>
			</trkpt>
			<trkpt lat="30.259703" lon="120.105233">
				<speed>0.000000</speed>
				<ele>154.000000</ele>
				<time>2026-08-17T05:46:48Z</time>
			</trkpt>
			<trkpt lat="30.259728" lon="120.105225">
				<speed>0.000000</speed>
				<ele>154.000000</ele>
				<time>2026-08-17T05:46:49Z</time>
			</trkpt>
			<trkpt lat="30.259738" lon="120.105224">
				<speed>0.000000</speed>
				<ele>154.000000</ele>
				<time>2026-08-17T05:46:50Z</time>
			</trkpt>
			<trkpt lat="30.259747" lon="120.105222">
				<speed>0.000000</speed>
				<ele>154.000000</ele>
				<time>2026-08-17T05:46:51Z</time>
			</trkpt>
			<trkpt lat="30.259756" lon="120.105220">
				<speed>0.000000</speed>
				<ele>154.000000</ele>
				<time>2026-08-17T05:46:52Z</time>
			</trkpt>
			<trkpt lat="30.259785" lon="120.105217">
				<speed>0.000000</speed>
				<ele>154.000000</ele>
				<time>2026-08-17T05:46:53Z</time>
			</trkpt>
			<trkpt lat="30.259795" lon="120.105216">
				<speed>0.000000</speed>
				<ele>154.000000</ele>
				<time>2026-08-17T05:46:54Z</time>
			</trkpt>
			<trkpt lat="30.259805" lon="120.105215">
				<speed>0.000000</speed>
				<ele>154.000000</ele>
				<time>2026-08-17T05:46:55Z</time>
			</trkpt>
			<trkpt lat="30.259816" lon="120.105214">
				<speed>0.000000</speed>
				<ele>154.000000</ele>
				<time>2026-08-17T05:46:56Z</time>
			</trkpt>
			<trkpt lat="30.259846" lon="120.105209">
				<speed>0.000000</speed>
				<ele>154.000000</ele>
				<time>2026-08-17T05:46:57Z</time>
			</trkpt>
			<trkpt lat="30.259855" lon="120.105207">
				<speed>0.000000</speed>
				<ele>154.000000</ele>
				<time>2026-08-17T05:46:58Z</time>
			</trkpt>
			<trkpt lat="30.259864" lon="120.105205">
				<speed>0.000000</speed>
				<ele>154.000000</ele>
				<time>2026-08-17T05:46:59Z</time>
			</trkpt>
			<trkpt lat="30.259873" lon="120.105203">
				<speed>0.000000</speed>
				<ele>154.000000</ele>
				<time>2026-08-17T05:47:00Z</time>
			</trkpt>
			<trkpt lat="30.259898" lon="120.105198">
				<speed>0.000000</speed>
				<ele>154.000000</ele>
				<time>2026-08-17T05:47:01Z</time>
			</trkpt>
			<trkpt lat="30.259906" lon="120.105197">
				<speed>0.000000</speed>
				<ele>154.000000</ele>
				<time>2026-08-17T05:47:02Z</time>
			</trkpt>
			<trkpt lat="30.259914" lon="120.105196">
				<speed>0.000000</speed>
				<ele>154.000000</ele>
				<time>2026-08-17T05:47:03Z</time>
			</trkpt>
			<trkpt lat="30.259922" lon="120.105195">
				<speed>0.000000</speed>
				<ele>154.000000</ele>
				<time>2026-08-17T05:47:04Z</time>
			</trkpt>
			<trkpt lat="30.259945" lon="120.105191">
				<speed>0.000000</speed>
				<ele>154.000000</ele>
				<time>2026-08-17T05:47:05Z</time>
			</trkpt>
			<trkpt lat="30.259953" lon="120.105188">
				<speed>0.000000</speed>
				<ele>154.000000</ele>
				<time>2026-08-17T05:47:06Z</time>
			</trkpt>
			<trkpt lat="30.259960" lon="120.105185">
				<speed>0.000000</speed>
				<ele>154.000000</ele>
				<time>2026-08-17T05:47:07Z</time>
			</trkpt>
			<trkpt lat="30.259968" lon="120.105182">
				<speed>0.000000</speed>
				<ele>154.000000</ele>
				<time>2026-08-17T05:47:08Z</time>
			</trkpt>
			<trkpt lat="30.259989" lon="120.105171">
				<speed>0.000000</speed>
				<ele>155.000000</ele>
				<time>2026-08-17T05:47:09Z</time>
			</trkpt>
			<trkpt lat="30.259996" lon="120.105167">
				<speed>0.000000</speed>
				<ele>155.000000</ele>
				<time>2026-08-17T05:47:10Z</time>
			</trkpt>
			<trkpt lat="30.260002" lon="120.105163">
				<speed>0.000000</speed>
				<ele>155.000000</ele>
				<time>2026-08-17T05:47:11Z</time>
			</trkpt>
			<trkpt lat="30.260009" lon="120.105159">
				<speed>0.000000</speed>
				<ele>155.000000</ele>
				<time>2026-08-17T05:47:12Z</time>
			</trkpt>
			<trkpt lat="30.260029" lon="120.105149">
				<speed>0.000000</speed>
				<ele>155.000000</ele>
				<time>2026-08-17T05:47:13Z</time>
			</trkpt>
			<trkpt lat="30.260036" lon="120.105145">
				<speed>0.000000</speed>
				<ele>155.000000</ele>
				<time>2026-08-17T05:47:14Z</time>
			</trkpt>
			<trkpt lat="30.260043" lon="120.105142">
				<speed>0.000000</speed>
				<ele>155.000000</ele>
				<time>2026-08-17T05:47:15Z</time>
			</trkpt>
			<trkpt lat="30.260050" lon="120.105138">
				<speed>0.000000</speed>
				<ele>155.000000</ele>
				<time>2026-08-17T05:47:16Z</time>
			</trkpt>
			<trkpt lat="30.260071" lon="120.105129">
				<speed>0.000000</speed>
				<ele>155.000000</ele>
				<time>2026-08-17T05:47:17Z</time>
			</trkpt>
			<trkpt lat="30.260078" lon="120.105126">
				<speed>0.000000</speed>
				<ele>155.000000</ele>
				<time>2026-08-17T05:47:18Z</time>
			</trkpt>
			<trkpt lat="30.260086" lon="120.105123">
				<speed>0.000000</speed>
				<ele>155.000000</ele>
				<time>2026-08-17T05:47:19Z</time>
			</trkpt>
			<trkpt lat="30.260093" lon="120.105121">
				<speed>0.000000</speed>
				<ele>155.000000</ele>
				<time>2026-08-17T05:47:20Z</time>
			</trkpt>
			<trkpt lat="30.260115" lon="120.105111">
				<speed>0.000000</speed>
				<ele>156.000000</ele>
				<time>2026-08-17T05:47:21Z</time>
			</trkpt>
			<trkpt lat="30.260123" lon="120.105108">
				<speed>0.000000</speed>
				<ele>156.000000</ele>
				<time>2026-08-17T05:47:22Z</time>
			</trkpt>
			<trkpt lat="30.260130" lon="120.105104">
				<speed>0.000000</speed>
				<ele>156.000000</ele>
				<time>2026-08-17T05:47:23Z</time>
			</trkpt>
			<trkpt lat="30.260138" lon="120.105101">
				<speed>0.000000</speed>
				<ele>156.000000</ele>
				<time>2026-08-17T05:47:24Z</time>
			</trkpt>
			<trkpt lat="30.260162" lon="120.105088">
				<speed>0.000000</speed>
				<ele>156.000000</ele>
				<time>2026-08-17T05:47:25Z</time>
			</trkpt>
			<trkpt lat="30.260170" lon="120.105082">
				<speed>0.000000</speed>
				<ele>156.000000</ele>
				<time>2026-08-17T05:47:26Z</time>
			</trkpt>
			<trkpt lat="30.260177" lon="120.105077">
				<speed>0.000000</speed>
				<ele>156.000000</ele>
				<time>2026-08-17T05:47:27Z</time>
			</trkpt>
			<trkpt lat="30.260185" lon="120.105071">
				<speed>0.000000</speed>
				<ele>156.000000</ele>
				<time>2026-08-17T05:47:28Z</time>
			</trkpt>
			<trkpt lat="30.260205" lon="120.105055">
				<speed>0.000000</speed>
				<ele>157.000000</ele>
				<time>2026-08-17T05:47:29Z</time>
			</trkpt>
			<trkpt lat="30.260212" lon="120.105050">
				<speed>0.000000</speed>
				<ele>157.000000</ele>
				<time>2026-08-17T05:47:30Z</time>
			</trkpt>
			<trkpt lat="30.260218" lon="120.105045">
				<speed>0.000000</speed>
				<ele>157.000000</ele>
				<time>2026-08-17T05:47:31Z</time>
			</trkpt>
			<trkpt lat="30.260225" lon="120.105040">
				<speed>0.000000</speed>
				<ele>157.000000</ele>
				<time>2026-08-17T05:47:32Z</time>
			</trkpt>
			<trkpt lat="30.260245" lon="120.105026">
				<speed>0.000000</speed>
				<ele>157.000000</ele>
				<time>2026-08-17T05:47:33Z</time>
			</trkpt>
			<trkpt lat="30.260253" lon="120.105023">
				<speed>0.000000</speed>
				<ele>157.000000</ele>
				<time>2026-08-17T05:47:34Z</time>
			</trkpt>
			<trkpt lat="30.260261" lon="120.105019">
				<speed>0.000000</speed>
				<ele>157.000000</ele>
				<time>2026-08-17T05:47:35Z</time>
			</trkpt>
			<trkpt lat="30.260268" lon="120.105015">
				<speed>0.000000</speed>
				<ele>157.000000</ele>
				<time>2026-08-17T05:47:36Z</time>
			</trkpt>
			<trkpt lat="30.260295" lon="120.105009">
				<speed>0.000000</speed>
				<ele>158.000000</ele>
				<time>2026-08-17T05:47:37Z</time>
			</trkpt>
			<trkpt lat="30.260304" lon="120.105008">
				<speed>0.000000</speed>
				<ele>158.000000</ele>
				<time>2026-08-17T05:47:38Z</time>
			</trkpt>
			<trkpt lat="30.260313" lon="120.105007">
				<speed>0.000000</speed>
				<ele>158.000000</ele>
				<time>2026-08-17T05:47:39Z</time>
			</trkpt>
			<trkpt lat="30.260322" lon="120.105007">
				<speed>0.000000</speed>
				<ele>158.000000</ele>
				<time>2026-08-17T05:47:40Z</time>
			</trkpt>
			<trkpt lat="30.260347" lon="120.105008">
				<speed>0.000000</speed>
				<ele>158.000000</ele>
				<time>2026-08-17T05:47:41Z</time>
			</trkpt>
			<trkpt lat="30.260355" lon="120.105009">
				<speed>0.000000</speed>
				<ele>158.000000</ele>
				<time>2026-08-17T05:47:42Z</time>
			</trkpt>
			<trkpt lat="30.260364" lon="120.105010">
				<speed>0.000000</speed>
				<ele>158.000000</ele>
				<time>2026-08-17T05:47:43Z</time>
			</trkpt>
			<trkpt lat="30.260372" lon="120.105012">
				<speed>0.000000</speed>
				<ele>158.000000</ele>
				<time>2026-08-17T05:47:44Z</time>
			</trkpt>
			<trkpt lat="30.260399" lon="120.105019">
				<speed>0.000000</speed>
				<ele>159.000000</ele>
				<time>2026-08-17T05:47:45Z</time>
			</trkpt>
			<trkpt lat="30.260407" lon="120.105021">
				<speed>0.000000</speed>
				<ele>159.000000</ele>
				<time>2026-08-17T05:47:46Z</time>
			</trkpt>
			<trkpt lat="30.260416" lon="120.105023">
				<speed>0.000000</speed>
				<ele>159.000000</ele>
				<time>2026-08-17T05:47:47Z</time>
			</trkpt>
			<trkpt lat="30.260425" lon="120.105025">
				<speed>0.000000</speed>
				<ele>159.000000</ele>
				<time>2026-08-17T05:47:48Z</time>
			</trkpt>
			<trkpt lat="30.260452" lon="120.105028">
				<speed>0.000000</speed>
				<ele>159.000000</ele>
				<time>2026-08-17T05:47:49Z</time>
			</trkpt>
			<trkpt lat="30.260461" lon="120.105029">
				<speed>0.000000</speed>
				<ele>159.000000</ele>
				<time>2026-08-17T05:47:50Z</time>
			</trkpt>
			<trkpt lat="30.260469" lon="120.105029">
				<speed>0.000000</speed>
				<ele>159.000000</ele>
				<time>2026-08-17T05:47:51Z</time>
			</trkpt>
			<trkpt lat="30.260478" lon="120.105030">
				<speed>0.000000</speed>
				<ele>159.000000</ele>
				<time>2026-08-17T05:47:52Z</time>
			</trkpt>
			<trkpt lat="30.260504" lon="120.105029">
				<speed>0.000000</speed>
				<ele>159.000000</ele>
				<time>2026-08-17T05:47:53Z</time>
			</trkpt>
			<trkpt lat="30.260512" lon="120.105028">
				<speed>0.000000</speed>
				<ele>158.000000</ele>
				<time>2026-08-17T05:47:54Z</time>
			</trkpt>
			<trkpt lat="30.260521" lon="120.105028">
				<speed>0.000000</speed>
				<ele>158.000000</ele>
				<time>2026-08-17T05:47:55Z</time>
			</trkpt>
			<trkpt lat="30.260529" lon="120.105027">
				<speed>0.000000</speed>
				<ele>158.000000</ele>
				<time>2026-08-17T05:47:56Z</time>
			</trkpt>
			<trkpt lat="30.260553" lon="120.105026">
				<speed>0.000000</speed>
				<ele>158.000000</ele>
				<time>2026-08-17T05:47:57Z</time>
			</trkpt>
			<trkpt lat="30.260562" lon="120.105026">
				<speed>0.000000</speed>
				<ele>158.000000</ele>
				<time>2026-08-17T05:47:58Z</time>
			</trkpt>
			<trkpt lat="30.260570" lon="120.105026">
				<speed>0.000000</speed>
				<ele>158.000000</ele>
				<time>2026-08-17T05:47:59Z</time>
			</trkpt>
			<trkpt lat="30.260579" lon="120.105026">
				<speed>0.000000</speed>
				<ele>158.000000</ele>
				<time>2026-08-17T05:48:00Z</time>
			</trkpt>
			<trkpt lat="30.260605" lon="120.105031">
				<speed>0.000000</speed>
				<ele>158.000000</ele>
				<time>2026-08-17T05:48:01Z</time>
			</trkpt>
			<trkpt lat="30.260614" lon="120.105034">
				<speed>0.000000</speed>
				<ele>158.000000</ele>
				<time>2026-08-17T05:48:02Z</time>
			</trkpt>
			<trkpt lat="30.260622" lon="120.105038">
				<speed>0.000000</speed>
				<ele>158.000000</ele>
				<time>2026-08-17T05:48:03Z</time>
			</trkpt>
			<trkpt lat="30.260631" lon="120.105041">
				<speed>0.000000</speed>
				<ele>158.000000</ele>
				<time>2026-08-17T05:48:04Z</time>
			</trkpt>
			<trkpt lat="30.260656" lon="120.105051">
				<speed>0.000000</speed>
				<ele>158.000000</ele>
				<time>2026-08-17T05:48:05Z</time>
			</trkpt>
			<trkpt lat="30.260664" lon="120.105055">
				<speed>0.000000</speed>
				<ele>158.000000</ele>
				<time>2026-08-17T05:48:06Z</time>
			</trkpt>
			<trkpt lat="30.260672" lon="120.105058">
				<speed>0.000000</speed>
				<ele>158.000000</ele>
				<time>2026-08-17T05:48:07Z</time>
			</trkpt>
			<trkpt lat="30.260680" lon="120.105062">
				<speed>0.000000</speed>
				<ele>158.000000</ele>
				<time>2026-08-17T05:48:08Z</time>
			</trkpt>
			<trkpt lat="30.260704" lon="120.105072">
				<speed>0.000000</speed>
				<ele>158.000000</ele>
				<time>2026-08-17T05:48:09Z</time>
			</trkpt>
			<trkpt lat="30.260713" lon="120.105074">
				<speed>0.000000</speed>
				<ele>158.000000</ele>
				<time>2026-08-17T05:48:10Z</time>
			</trkpt>
			<trkpt lat="30.260720" lon="120.105076">
				<speed>0.000000</speed>
				<ele>158.000000</ele>
				<time>2026-08-17T05:48:11Z</time>
			</trkpt>
			<trkpt lat="30.260729" lon="120.105079">
				<speed>0.000000</speed>
				<ele>158.000000</ele>
				<time>2026-08-17T05:48:12Z</time>
			</trkpt>
			<trkpt lat="30.260751" lon="120.105083">
				<speed>0.000000</speed>
				<ele>158.000000</ele>
				<time>2026-08-17T05:48:13Z</time>
			</trkpt>
			<trkpt lat="30.260758" lon="120.105084">
				<speed>0.000000</speed>
				<ele>158.000000</ele>
				<time>2026-08-17T05:48:14Z</time>
			</trkpt>
			<trkpt lat="30.260765" lon="120.105085">
				<speed>0.000000</speed>
				<ele>158.000000</ele>
				<time>2026-08-17T05:48:15Z</time>
			</trkpt>
			<trkpt lat="30.260772" lon="120.105087">
				<speed>0.000000</speed>
				<ele>158.000000</ele>
				<time>2026-08-17T05:48:16Z</time>
			</trkpt>
			<trkpt lat="30.260792" lon="120.105095">
				<speed>0.000000</speed>
				<ele>159.000000</ele>
				<time>2026-08-17T05:48:17Z</time>
			</trkpt>
			<trkpt lat="30.260798" lon="120.105098">
				<speed>0.000000</speed>
				<ele>159.000000</ele>
				<time>2026-08-17T05:48:18Z</time>
			</trkpt>
			<trkpt lat="30.260804" lon="120.105102">
				<speed>0.000000</speed>
				<ele>159.000000</ele>
				<time>2026-08-17T05:48:19Z</time>
			</trkpt>
			<trkpt lat="30.260811" lon="120.105105">
				<speed>0.000000</speed>
				<ele>159.000000</ele>
				<time>2026-08-17T05:48:20Z</time>
			</trkpt>
			<trkpt lat="30.260824" lon="120.105116">
				<speed>0.000000</speed>
				<ele>159.000000</ele>
				<time>2026-08-17T05:48:21Z</time>
			</trkpt>
			<trkpt lat="30.260828" lon="120.105118">
				<speed>0.000000</speed>
				<ele>159.000000</ele>
				<time>2026-08-17T05:48:22Z</time>
			</trkpt>
			<trkpt lat="30.260831" lon="120.105121">
				<speed>0.000000</speed>
				<ele>159.000000</ele>
				<time>2026-08-17T05:48:23Z</time>
			</trkpt>
			<trkpt lat="30.260835" lon="120.105123">
				<speed>0.000000</speed>
				<ele>159.000000</ele>
				<time>2026-08-17T05:48:24Z</time>
			</trkpt>
			<trkpt lat="30.260848" lon="120.105130">
				<speed>0.000000</speed>
				<ele>160.000000</ele>
				<time>2026-08-17T05:48:25Z</time>
			</trkpt>
			<trkpt lat="30.260853" lon="120.105132">
				<speed>0.000000</speed>
				<ele>160.000000</ele>
				<time>2026-08-17T05:48:26Z</time>
			</trkpt>
			<trkpt lat="30.260858" lon="120.105135">
				<speed>0.000000</speed>
				<ele>160.000000</ele>
				<time>2026-08-17T05:48:27Z</time>
			</trkpt>
			<trkpt lat="30.260863" lon="120.105138">
				<speed>0.000000</speed>
				<ele>160.000000</ele>
				<time>2026-08-17T05:48:28Z</time>
			</trkpt>
			<trkpt lat="30.260881" lon="120.105147">
				<speed>0.000000</speed>
				<ele>160.000000</ele>
				<time>2026-08-17T05:48:29Z</time>
			</trkpt>
			<trkpt lat="30.260887" lon="120.105150">
				<speed>0.000000</speed>
				<ele>160.000000</ele>
				<time>2026-08-17T05:48:30Z</time>
			</trkpt>
			<trkpt lat="30.260893" lon="120.105152">
				<speed>0.000000</speed>
				<ele>160.000000</ele>
				<time>2026-08-17T05:48:31Z</time>
			</trkpt>
			<trkpt lat="30.260900" lon="120.105155">
				<speed>0.000000</speed>
				<ele>160.000000</ele>
				<time>2026-08-17T05:48:32Z</time>
			</trkpt>
			<trkpt lat="30.260920" lon="120.105161">
				<speed>0.000000</speed>
				<ele>161.000000</ele>
				<time>2026-08-17T05:48:33Z</time>
			</trkpt>
			<trkpt lat="30.260928" lon="120.105162">
				<speed>0.000000</speed>
				<ele>161.000000</ele>
				<time>2026-08-17T05:48:34Z</time>
			</trkpt>
			<trkpt lat="30.260935" lon="120.105164">
				<speed>0.000000</speed>
				<ele>161.000000</ele>
				<time>2026-08-17T05:48:35Z</time>
			</trkpt>
			<trkpt lat="30.260942" lon="120.105166">
				<speed>0.000000</speed>
				<ele>161.000000</ele>
				<time>2026-08-17T05:48:36Z</time>
			</trkpt>
			<trkpt lat="30.260965" lon="120.105174">
				<speed>0.000000</speed>
				<ele>161.000000</ele>
				<time>2026-08-17T05:48:37Z</time>
			</trkpt>
			<trkpt lat="30.260972" lon="120.105176">
				<speed>0.000000</speed>
				<ele>161.000000</ele>
				<time>2026-08-17T05:48:38Z</time>
			</trkpt>
			<trkpt lat="30.260979" lon="120.105178">
				<speed>0.000000</speed>
				<ele>161.000000</ele>
				<time>2026-08-17T05:48:39Z</time>
			</trkpt>
			<trkpt lat="30.260986" lon="120.105180">
				<speed>0.000000</speed>
				<ele>161.000000</ele>
				<time>2026-08-17T05:48:40Z</time>
			</trkpt>
			<trkpt lat="30.261007" lon="120.105182">
				<speed>0.000000</speed>
				<ele>162.000000</ele>
				<time>2026-08-17T05:48:41Z</time>
			</trkpt>
			<trkpt lat="30.261015" lon="120.105182">
				<speed>0.000000</speed>
				<ele>162.000000</ele>
				<time>2026-08-17T05:48:42Z</time>
			</trkpt>
			<trkpt lat="30.261022" lon="120.105182">
				<speed>0.000000</speed>
				<ele>162.000000</ele>
				<time>2026-08-17T05:48:43Z</time>
			</trkpt>
			<trkpt lat="30.261029" lon="120.105182">
				<speed>0.000000</speed>
				<ele>162.000000</ele>
				<time>2026-08-17T05:48:44Z</time>
			</trkpt>
			<trkpt lat="30.261051" lon="120.105187">
				<speed>0.000000</speed>
				<ele>162.000000</ele>
				<time>2026-08-17T05:48:45Z</time>
			</trkpt>
			<trkpt lat="30.261058" lon="120.105190">
				<speed>0.000000</speed>
				<ele>162.000000</ele>
				<time>2026-08-17T05:48:46Z</time>
			</trkpt>
			<trkpt lat="30.261065" lon="120.105194">
				<speed>0.000000</speed>
				<ele>162.000000</ele>
				<time>2026-08-17T05:48:47Z</time>
			</trkpt>
			<trkpt lat="30.261073" lon="120.105197">
				<speed>0.000000</speed>
				<ele>162.000000</ele>
				<time>2026-08-17T05:48:48Z</time>
			</trkpt>
			<trkpt lat="30.261093" lon="120.105211">
				<speed>0.000000</speed>
				<ele>163.000000</ele>
				<time>2026-08-17T05:48:49Z</time>
			</trkpt>
			<trkpt lat="30.261100" lon="120.105217">
				<speed>0.000000</speed>
				<ele>163.000000</ele>
				<time>2026-08-17T05:48:50Z</time>
			</trkpt>
			<trkpt lat="30.261107" lon="120.105223">
				<speed>0.000000</speed>
				<ele>163.000000</ele>
				<time>2026-08-17T05:48:51Z</time>
			</trkpt>
			<trkpt lat="30.261113" lon="120.105228">
				<speed>0.000000</speed>
				<ele>163.000000</ele>
				<time>2026-08-17T05:48:52Z</time>
			</trkpt>
			<trkpt lat="30.261134" lon="120.105245">
				<speed>0.000000</speed>
				<ele>164.000000</ele>
				<time>2026-08-17T05:48:53Z</time>
			</trkpt>
			<trkpt lat="30.261141" lon="120.105250">
				<speed>0.000000</speed>
				<ele>164.000000</ele>
				<time>2026-08-17T05:48:54Z</time>
			</trkpt>
			<trkpt lat="30.261148" lon="120.105255">
				<speed>0.000000</speed>
				<ele>164.000000</ele>
				<time>2026-08-17T05:48:55Z</time>
			</trkpt>
			<trkpt lat="30.261154" lon="120.105260">
				<speed>0.000000</speed>
				<ele>164.000000</ele>
				<time>2026-08-17T05:48:56Z</time>
			</trkpt>
			<trkpt lat="30.261173" lon="120.105273">
				<speed>0.000000</speed>
				<ele>164.000000</ele>
				<time>2026-08-17T05:48:57Z</time>
			</trkpt>
			<trkpt lat="30.261179" lon="120.105277">
				<speed>0.000000</speed>
				<ele>164.000000</ele>
				<time>2026-08-17T05:48:58Z</time>
			</trkpt>
			<trkpt lat="30.261185" lon="120.105281">
				<speed>0.000000</speed>
				<ele>164.000000</ele>
				<time>2026-08-17T05:48:59Z</time>
			</trkpt>
			<trkpt lat="30.261191" lon="120.105284">
				<speed>0.000000</speed>
				<ele>164.000000</ele>
				<time>2026-08-17T05:49:00Z</time>
			</trkpt>
			<trkpt lat="30.261208" lon="120.105294">
				<speed>0.000000</speed>
				<ele>165.000000</ele>
				<time>2026-08-17T05:49:01Z</time>
			</trkpt>
			<trkpt lat="30.261214" lon="120.105297">
				<speed>0.000000</speed>
				<ele>165.000000</ele>
				<time>2026-08-17T05:49:02Z</time>
			</trkpt>
			<trkpt lat="30.261219" lon="120.105300">
				<speed>0.000000</speed>
				<ele>165.000000</ele>
				<time>2026-08-17T05:49:03Z</time>
			</trkpt>
			<trkpt lat="30.261224" lon="120.105303">
				<speed>0.000000</speed>
				<ele>165.000000</ele>
				<time>2026-08-17T05:49:04Z</time>
			</trkpt>
			<trkpt lat="30.261240" lon="120.105311">
				<speed>0.000000</speed>
				<ele>165.000000</ele>
				<time>2026-08-17T05:49:05Z</time>
			</trkpt>
			<trkpt lat="30.261245" lon="120.105314">
				<speed>0.000000</speed>
				<ele>165.000000</ele>
				<time>2026-08-17T05:49:06Z</time>
			</trkpt>
			<trkpt lat="30.261251" lon="120.105316">
				<speed>0.000000</speed>
				<ele>165.000000</ele>
				<time>2026-08-17T05:49:07Z</time>
			</trkpt>
			<trkpt lat="30.261256" lon="120.105319">
				<speed>0.000000</speed>
				<ele>165.000000</ele>
				<time>2026-08-17T05:49:08Z</time>
			</trkpt>
			<trkpt lat="30.261271" lon="120.105328">
				<speed>0.000000</speed>
				<ele>166.000000</ele>
				<time>2026-08-17T05:49:09Z</time>
			</trkpt>
			<trkpt lat="30.261275" lon="120.105331">
				<speed>0.000000</speed>
				<ele>166.000000</ele>
				<time>2026-08-17T05:49:10Z</time>
			</trkpt>
			<trkpt lat="30.261280" lon="120.105334">
				<speed>0.000000</speed>
				<ele>166.000000</ele>
				<time>2026-08-17T05:49:11Z</time>
			</trkpt>
			<trkpt lat="30.261285" lon="120.105337">
				<speed>0.000000</speed>
				<ele>166.000000</ele>
				<time>2026-08-17T05:49:12Z</time>
			</trkpt>
			<trkpt lat="30.261300" lon="120.105345">
				<speed>0.000000</speed>
				<ele>166.000000</ele>
				<time>2026-08-17T05:49:13Z</time>
			</trkpt>
			<trkpt lat="30.261304" lon="120.105347">
				<speed>0.000000</speed>
				<ele>166.000000</ele>
				<time>2026-08-17T05:49:14Z</time>
			</trkpt>
			<trkpt lat="30.261308" lon="120.105349">
				<speed>0.000000</speed>
				<ele>166.000000</ele>
				<time>2026-08-17T05:49:15Z</time>
			</trkpt>
			<trkpt lat="30.261313" lon="120.105351">
				<speed>0.000000</speed>
				<ele>166.000000</ele>
				<time>2026-08-17T05:49:16Z</time>
			</trkpt>
			<trkpt lat="30.261324" lon="120.105356">
				<speed>0.000000</speed>
				<ele>167.000000</ele>
				<time>2026-08-17T05:49:17Z</time>
			</trkpt>
			<trkpt lat="30.261327" lon="120.105358">
				<speed>0.000000</speed>
				<ele>167.000000</ele>
				<time>2026-08-17T05:49:18Z</time>
			</trkpt>
			<trkpt lat="30.261330" lon="120.105360">
				<speed>0.000000</speed>
				<ele>167.000000</ele>
				<time>2026-08-17T05:49:19Z</time>
			</trkpt>
			<trkpt lat="30.261333" lon="120.105362">
				<speed>0.000000</speed>
				<ele>167.000000</ele>
				<time>2026-08-17T05:49:20Z</time>
			</trkpt>
			<trkpt lat="30.261335" lon="120.105365">
				<speed>0.000000</speed>
				<ele>168.000000</ele>
				<time>2026-08-17T05:49:21Z</time>
			</trkpt>
			<trkpt lat="30.261345" lon="120.105377">
				<speed>0.000000</speed>
				<ele>168.000000</ele>
				<time>2026-08-17T05:49:22Z</time>
			</trkpt>
			<trkpt lat="30.261347" lon="120.105381">
				<speed>0.000000</speed>
				<ele>168.000000</ele>
				<time>2026-08-17T05:49:23Z</time>
			</trkpt>
			<trkpt lat="30.261350" lon="120.105385">
				<speed>0.000000</speed>
				<ele>168.000000</ele>
				<time>2026-08-17T05:49:24Z</time>
			</trkpt>
			<trkpt lat="30.261352" lon="120.105389">
				<speed>0.000000</speed>
				<ele>168.000000</ele>
				<time>2026-08-17T05:49:25Z</time>
			</trkpt>
			<trkpt lat="30.261360" lon="120.105403">
				<speed>0.000000</speed>
				<ele>168.000000</ele>
				<time>2026-08-17T05:49:26Z</time>
			</trkpt>
			<trkpt lat="30.261362" lon="120.105407">
				<speed>0.000000</speed>
				<ele>168.000000</ele>
				<time>2026-08-17T05:49:27Z</time>
			</trkpt>
			<trkpt lat="30.261365" lon="120.105411">
				<speed>0.000000</speed>
				<ele>168.000000</ele>
				<time>2026-08-17T05:49:28Z</time>
			</trkpt>
			<trkpt lat="30.261368" lon="120.105415">
				<speed>0.000000</speed>
				<ele>169.000000</ele>
				<time>2026-08-17T05:49:29Z</time>
			</trkpt>
			<trkpt lat="30.261379" lon="120.105424">
				<speed>0.000000</speed>
				<ele>169.000000</ele>
				<time>2026-08-17T05:49:30Z</time>
			</trkpt>
			<trkpt lat="30.261383" lon="120.105426">
				<speed>0.000000</speed>
				<ele>169.000000</ele>
				<time>2026-08-17T05:49:31Z</time>
			</trkpt>
			<trkpt lat="30.261388" lon="120.105427">
				<speed>0.000000</speed>
				<ele>169.000000</ele>
				<time>2026-08-17T05:49:32Z</time>
			</trkpt>
			<trkpt lat="30.261392" lon="120.105428">
				<speed>0.000000</speed>
				<ele>170.000000</ele>
				<time>2026-08-17T05:49:33Z</time>
			</trkpt>
			<trkpt lat="30.261404" lon="120.105429">
				<speed>0.000000</speed>
				<ele>170.000000</ele>
				<time>2026-08-17T05:49:34Z</time>
			</trkpt>
			<trkpt lat="30.261408" lon="120.105430">
				<speed>0.000000</speed>
				<ele>170.000000</ele>
				<time>2026-08-17T05:49:35Z</time>
			</trkpt>
			<trkpt lat="30.261412" lon="120.105430">
				<speed>0.000000</speed>
				<ele>170.000000</ele>
				<time>2026-08-17T05:49:36Z</time>
			</trkpt>
			<trkpt lat="30.261416" lon="120.105430">
				<speed>0.000000</speed>
				<ele>171.000000</ele>
				<time>2026-08-17T05:49:37Z</time>
			</trkpt>
			<trkpt lat="30.261427" lon="120.105432">
				<speed>0.000000</speed>
				<ele>171.000000</ele>
				<time>2026-08-17T05:49:38Z</time>
			</trkpt>
			<trkpt lat="30.261430" lon="120.105434">
				<speed>0.000000</speed>
				<ele>171.000000</ele>
				<time>2026-08-17T05:49:39Z</time>
			</trkpt>
			<trkpt lat="30.261434" lon="120.105435">
				<speed>0.000000</speed>
				<ele>171.000000</ele>
				<time>2026-08-17T05:49:40Z</time>
			</trkpt>
			<trkpt lat="30.261437" lon="120.105437">
				<speed>0.000000</speed>
				<ele>171.000000</ele>
				<time>2026-08-17T05:49:41Z</time>
			</trkpt>
			<trkpt lat="30.261448" lon="120.105443">
				<speed>0.000000</speed>
				<ele>171.000000</ele>
				<time>2026-08-17T05:49:42Z</time>
			</trkpt>
			<trkpt lat="30.261452" lon="120.105446">
				<speed>0.000000</speed>
				<ele>171.000000</ele>
				<time>2026-08-17T05:49:43Z</time>
			</trkpt>
			<trkpt lat="30.261456" lon="120.105450">
				<speed>0.000000</speed>
				<ele>171.000000</ele>
				<time>2026-08-17T05:49:44Z</time>
			</trkpt>
			<trkpt lat="30.261460" lon="120.105453">
				<speed>0.000000</speed>
				<ele>172.000000</ele>
				<time>2026-08-17T05:49:45Z</time>
			</trkpt>
			<trkpt lat="30.261474" lon="120.105464">
				<speed>0.000000</speed>
				<ele>172.000000</ele>
				<time>2026-08-17T05:49:46Z</time>
			</trkpt>
			<trkpt lat="30.261478" lon="120.105467">
				<speed>0.000000</speed>
				<ele>172.000000</ele>
				<time>2026-08-17T05:49:47Z</time>
			</trkpt>
			<trkpt lat="30.261482" lon="120.105469">
				<speed>0.000000</speed>
				<ele>172.000000</ele>
				<time>2026-08-17T05:49:48Z</time>
			</trkpt>
			<trkpt lat="30.261486" lon="120.105472">
				<speed>0.000000</speed>
				<ele>173.000000</ele>
				<time>2026-08-17T05:49:49Z</time>
			</trkpt>
			<trkpt lat="30.261497" lon="120.105479">
				<speed>0.000000</speed>
				<ele>173.000000</ele>
				<time>2026-08-17T05:49:50Z</time>
			</trkpt>
			<trkpt lat="30.261501" lon="120.105481">
				<speed>0.000000</speed>
				<ele>173.000000</ele>
				<time>2026-08-17T05:49:51Z</time>
			</trkpt>
			<trkpt lat="30.261505" lon="120.105482">
				<speed>0.000000</speed>
				<ele>173.000000</ele>
				<time>2026-08-17T05:49:52Z</time>
			</trkpt>
			<trkpt lat="30.261509" lon="120.105484">
				<speed>0.000000</speed>
				<ele>173.000000</ele>
				<time>2026-08-17T05:49:53Z</time>
			</trkpt>
			<trkpt lat="30.261521" lon="120.105488">
				<speed>0.000000</speed>
				<ele>173.000000</ele>
				<time>2026-08-17T05:49:54Z</time>
			</trkpt>
			<trkpt lat="30.261525" lon="120.105490">
				<speed>0.000000</speed>
				<ele>173.000000</ele>
				<time>2026-08-17T05:49:55Z</time>
			</trkpt>
			<trkpt lat="30.261529" lon="120.105492">
				<speed>0.000000</speed>
				<ele>173.000000</ele>
				<time>2026-08-17T05:49:56Z</time>
			</trkpt>
			<trkpt lat="30.261533" lon="120.105493">
				<speed>0.000000</speed>
				<ele>174.000000</ele>
				<time>2026-08-17T05:49:57Z</time>
			</trkpt>
			<trkpt lat="30.261545" lon="120.105498">
				<speed>0.000000</speed>
				<ele>174.000000</ele>
				<time>2026-08-17T05:49:58Z</time>
			</trkpt>
			<trkpt lat="30.261550" lon="120.105499">
				<speed>0.000000</speed>
				<ele>174.000000</ele>
				<time>2026-08-17T05:49:59Z</time>
			</trkpt>
			<trkpt lat="30.261554" lon="120.105501">
				<speed>0.000000</speed>
				<ele>174.000000</ele>
				<time>2026-08-17T05:50:00Z</time>
			</trkpt>
			<trkpt lat="30.261559" lon="120.105503">
				<speed>0.000000</speed>
				<ele>175.000000</ele>
				<time>2026-08-17T05:50:01Z</time>
			</trkpt>
			<trkpt lat="30.261574" lon="120.105509">
				<speed>0.000000</speed>
				<ele>175.000000</ele>
				<time>2026-08-17T05:50:02Z</time>
			</trkpt>
			<trkpt lat="30.261580" lon="120.105512">
				<speed>0.000000</speed>
				<ele>175.000000</ele>
				<time>2026-08-17T05:50:03Z</time>
			</trkpt>
			<trkpt lat="30.261585" lon="120.105515">
				<speed>0.000000</speed>
				<ele>175.000000</ele>
				<time>2026-08-17T05:50:04Z</time>
			</trkpt>
			<trkpt lat="30.261591" lon="120.105518">
				<speed>0.000000</speed>
				<ele>175.000000</ele>
				<time>2026-08-17T05:50:05Z</time>
			</trkpt>
			<trkpt lat="30.261608" lon="120.105529">
				<speed>0.000000</speed>
				<ele>175.000000</ele>
				<time>2026-08-17T05:50:06Z</time>
			</trkpt>
			<trkpt lat="30.261615" lon="120.105534">
				<speed>0.000000</speed>
				<ele>175.000000</ele>
				<time>2026-08-17T05:50:07Z</time>
			</trkpt>
			<trkpt lat="30.261621" lon="120.105538">
				<speed>0.000000</speed>
				<ele>175.000000</ele>
				<time>2026-08-17T05:50:08Z</time>
			</trkpt>
			<trkpt lat="30.261627" lon="120.105543">
				<speed>0.000000</speed>
				<ele>176.000000</ele>
				<time>2026-08-17T05:50:09Z</time>
			</trkpt>
			<trkpt lat="30.261645" lon="120.105557">
				<speed>0.000000</speed>
				<ele>176.000000</ele>
				<time>2026-08-17T05:50:10Z</time>
			</trkpt>
			<trkpt lat="30.261650" lon="120.105561">
				<speed>0.000000</speed>
				<ele>176.000000</ele>
				<time>2026-08-17T05:50:11Z</time>
			</trkpt>
			<trkpt lat="30.261655" lon="120.105566">
				<speed>0.000000</speed>
				<ele>176.000000</ele>
				<time>2026-08-17T05:50:12Z</time>
			</trkpt>
			<trkpt lat="30.261661" lon="120.105571">
				<speed>0.000000</speed>
				<ele>176.000000</ele>
				<time>2026-08-17T05:50:13Z</time>
			</trkpt>
			<trkpt lat="30.261675" lon="120.105585">
				<speed>0.000000</speed>
				<ele>176.000000</ele>
				<time>2026-08-17T05:50:14Z</time>
			</trkpt>
			<trkpt lat="30.261679" lon="120.105590">
				<speed>0.000000</speed>
				<ele>176.000000</ele>
				<time>2026-08-17T05:50:15Z</time>
			</trkpt>
			<trkpt lat="30.261683" lon="120.105594">
				<speed>0.000000</speed>
				<ele>176.000000</ele>
				<time>2026-08-17T05:50:16Z</time>
			</trkpt>
			<trkpt lat="30.261687" lon="120.105599">
				<speed>0.000000</speed>
				<ele>176.000000</ele>
				<time>2026-08-17T05:50:17Z</time>
			</trkpt>
			<trkpt lat="30.261698" lon="120.105614">
				<speed>0.000000</speed>
				<ele>176.000000</ele>
				<time>2026-08-17T05:50:18Z</time>
			</trkpt>
			<trkpt lat="30.261702" lon="120.105620">
				<speed>0.000000</speed>
				<ele>176.000000</ele>
				<time>2026-08-17T05:50:19Z</time>
			</trkpt>
			<trkpt lat="30.261706" lon="120.105626">
				<speed>0.000000</speed>
				<ele>176.000000</ele>
				<time>2026-08-17T05:50:20Z</time>
			</trkpt>
			<trkpt lat="30.261709" lon="120.105632">
				<speed>0.000000</speed>
				<ele>177.000000</ele>
				<time>2026-08-17T05:50:21Z</time>
			</trkpt>
			<trkpt lat="30.261720" lon="120.105654">
				<speed>0.000000</speed>
				<ele>177.000000</ele>
				<time>2026-08-17T05:50:22Z</time>
			</trkpt>
			<trkpt lat="30.261723" lon="120.105661">
				<speed>0.000000</speed>
				<ele>177.000000</ele>
				<time>2026-08-17T05:50:23Z</time>
			</trkpt>
			<trkpt lat="30.261726" lon="120.105669">
				<speed>0.000000</speed>
				<ele>177.000000</ele>
				<time>2026-08-17T05:50:24Z</time>
			</trkpt>
			<trkpt lat="30.261729" lon="120.105677">
				<speed>0.000000</speed>
				<ele>177.000000</ele>
				<time>2026-08-17T05:50:25Z</time>
			</trkpt>
			<trkpt lat="30.261738" lon="120.105699">
				<speed>0.000000</speed>
				<ele>177.000000</ele>
				<time>2026-08-17T05:50:26Z</time>
			</trkpt>
			<trkpt lat="30.261741" lon="120.105707">
				<speed>0.000000</speed>
				<ele>177.000000</ele>
				<time>2026-08-17T05:50:27Z</time>
			</trkpt>
			<trkpt lat="30.261743" lon="120.105714">
				<speed>0.000000</speed>
				<ele>177.000000</ele>
				<time>2026-08-17T05:50:28Z</time>
			</trkpt>
			<trkpt lat="30.261746" lon="120.105722">
				<speed>0.000000</speed>
				<ele>178.000000</ele>
				<time>2026-08-17T05:50:29Z</time>
			</trkpt>
			<trkpt lat="30.261753" lon="120.105747">
				<speed>0.000000</speed>
				<ele>178.000000</ele>
				<time>2026-08-17T05:50:30Z</time>
			</trkpt>
			<trkpt lat="30.261755" lon="120.105755">
				<speed>0.000000</speed>
				<ele>178.000000</ele>
				<time>2026-08-17T05:50:31Z</time>
			</trkpt>
			<trkpt lat="30.261757" lon="120.105763">
				<speed>0.000000</speed>
				<ele>178.000000</ele>
				<time>2026-08-17T05:50:32Z</time>
			</trkpt>
			<trkpt lat="30.261759" lon="120.105771">
				<speed>0.000000</speed>
				<ele>178.000000</ele>
				<time>2026-08-17T05:50:33Z</time>
			</trkpt>
			<trkpt lat="30.261764" lon="120.105799">
				<speed>0.000000</speed>
				<ele>178.000000</ele>
				<time>2026-08-17T05:50:34Z</time>
			</trkpt>
			<trkpt lat="30.261766" lon="120.105809">
				<speed>0.000000</speed>
				<ele>178.000000</ele>
				<time>2026-08-17T05:50:35Z</time>
			</trkpt>
			<trkpt lat="30.261767" lon="120.105819">
				<speed>0.000000</speed>
				<ele>178.000000</ele>
				<time>2026-08-17T05:50:36Z</time>
			</trkpt>
			<trkpt lat="30.261769" lon="120.105830">
				<speed>0.000000</speed>
				<ele>178.000000</ele>
				<time>2026-08-17T05:50:37Z</time>
			</trkpt>
			<trkpt lat="30.261776" lon="120.105861">
				<speed>0.000000</speed>
				<ele>178.000000</ele>
				<time>2026-08-17T05:50:38Z</time>
			</trkpt>
			<trkpt lat="30.261778" lon="120.105872">
				<speed>0.000000</speed>
				<ele>178.000000</ele>
				<time>2026-08-17T05:50:39Z</time>
			</trkpt>
			<trkpt lat="30.261780" lon="120.105882">
				<speed>0.000000</speed>
				<ele>178.000000</ele>
				<time>2026-08-17T05:50:40Z</time>
			</trkpt>
			<trkpt lat="30.261782" lon="120.105893">
				<speed>0.000000</speed>
				<ele>178.000000</ele>
				<time>2026-08-17T05:50:41Z</time>
			</trkpt>
			<trkpt lat="30.261790" lon="120.105923">
				<speed>0.000000</speed>
				<ele>178.000000</ele>
				<time>2026-08-17T05:50:42Z</time>
			</trkpt>
			<trkpt lat="30.261792" lon="120.105932">
				<speed>0.000000</speed>
				<ele>178.000000</ele>
				<time>2026-08-17T05:50:43Z</time>
			</trkpt>
			<trkpt lat="30.261795" lon="120.105941">
				<speed>0.000000</speed>
				<ele>178.000000</ele>
				<time>2026-08-17T05:50:44Z</time>
			</trkpt>
			<trkpt lat="30.261798" lon="120.105950">
				<speed>0.000000</speed>
				<ele>179.000000</ele>
				<time>2026-08-17T05:50:45Z</time>
			</trkpt>
			<trkpt lat="30.261806" lon="120.105975">
				<speed>0.000000</speed>
				<ele>179.000000</ele>
				<time>2026-08-17T05:50:46Z</time>
			</trkpt>
			<trkpt lat="30.261809" lon="120.105984">
				<speed>0.000000</speed>
				<ele>179.000000</ele>
				<time>2026-08-17T05:50:47Z</time>
			</trkpt>
			<trkpt lat="30.261811" lon="120.105992">
				<speed>0.000000</speed>
				<ele>179.000000</ele>
				<time>2026-08-17T05:50:48Z</time>
			</trkpt>
			<trkpt lat="30.261814" lon="120.106000">
				<speed>0.000000</speed>
				<ele>179.000000</ele>
				<time>2026-08-17T05:50:49Z</time>
			</trkpt>
			<trkpt lat="30.261822" lon="120.106024">
				<speed>0.000000</speed>
				<ele>179.000000</ele>
				<time>2026-08-17T05:50:50Z</time>
			</trkpt>
			<trkpt lat="30.261825" lon="120.106031">
				<speed>0.000000</speed>
				<ele>179.000000</ele>
				<time>2026-08-17T05:50:51Z</time>
			</trkpt>
			<trkpt lat="30.261828" lon="120.106038">
				<speed>0.000000</speed>
				<ele>179.000000</ele>
				<time>2026-08-17T05:50:52Z</time>
			</trkpt>
			<trkpt lat="30.261831" lon="120.106046">
				<speed>0.000000</speed>
				<ele>179.000000</ele>
				<time>2026-08-17T05:50:53Z</time>
			</trkpt>
			<trkpt lat="30.261839" lon="120.106067">
				<speed>0.000000</speed>
				<ele>179.000000</ele>
				<time>2026-08-17T05:50:54Z</time>
			</trkpt>
			<trkpt lat="30.261842" lon="120.106074">
				<speed>0.000000</speed>
				<ele>179.000000</ele>
				<time>2026-08-17T05:50:55Z</time>
			</trkpt>
			<trkpt lat="30.261845" lon="120.106081">
				<speed>0.000000</speed>
				<ele>179.000000</ele>
				<time>2026-08-17T05:50:56Z</time>
			</trkpt>
			<trkpt lat="30.261848" lon="120.106088">
				<speed>0.000000</speed>
				<ele>179.000000</ele>
				<time>2026-08-17T05:50:57Z</time>
			</trkpt>
			<trkpt lat="30.261856" lon="120.106108">
				<speed>0.000000</speed>
				<ele>179.000000</ele>
				<time>2026-08-17T05:50:58Z</time>
			</trkpt>
			<trkpt lat="30.261859" lon="120.106114">
				<speed>0.000000</speed>
				<ele>179.000000</ele>
				<time>2026-08-17T05:50:59Z</time>
			</trkpt>
			<trkpt lat="30.261862" lon="120.106120">
				<speed>0.000000</speed>
				<ele>179.000000</ele>
				<time>2026-08-17T05:51:00Z</time>
			</trkpt>
			<trkpt lat="30.261865" lon="120.106127">
				<speed>0.000000</speed>
				<ele>179.000000</ele>
				<time>2026-08-17T05:51:01Z</time>
			</trkpt>
			<trkpt lat="30.261872" lon="120.106146">
				<speed>0.000000</speed>
				<ele>179.000000</ele>
				<time>2026-08-17T05:51:02Z</time>
			</trkpt>
			<trkpt lat="30.261874" lon="120.106153">
				<speed>0.000000</speed>
				<ele>179.000000</ele>
				<time>2026-08-17T05:51:03Z</time>
			</trkpt>
			<trkpt lat="30.261877" lon="120.106160">
				<speed>0.000000</speed>
				<ele>179.000000</ele>
				<time>2026-08-17T05:51:04Z</time>
			</trkpt>
			<trkpt lat="30.261879" lon="120.106167">
				<speed>0.000000</speed>
				<ele>179.000000</ele>
				<time>2026-08-17T05:51:05Z</time>
			</trkpt>
			<trkpt lat="30.261890" lon="120.106189">
				<speed>0.000000</speed>
				<ele>179.000000</ele>
				<time>2026-08-17T05:51:06Z</time>
			</trkpt>
			<trkpt lat="30.261894" lon="120.106196">
				<speed>0.000000</speed>
				<ele>179.000000</ele>
				<time>2026-08-17T05:51:07Z</time>
			</trkpt>
			<trkpt lat="30.261899" lon="120.106202">
				<speed>0.000000</speed>
				<ele>179.000000</ele>
				<time>2026-08-17T05:51:08Z</time>
			</trkpt>
			<trkpt lat="30.261903" lon="120.106209">
				<speed>0.000000</speed>
				<ele>179.000000</ele>
				<time>2026-08-17T05:51:09Z</time>
			</trkpt>
			<trkpt lat="30.261917" lon="120.106223">
				<speed>0.000000</speed>
				<ele>179.000000</ele>
				<time>2026-08-17T05:51:10Z</time>
			</trkpt>
			<trkpt lat="30.261922" lon="120.106227">
				<speed>0.000000</speed>
				<ele>179.000000</ele>
				<time>2026-08-17T05:51:11Z</time>
			</trkpt>
			<trkpt lat="30.261926" lon="120.106230">
				<speed>0.000000</speed>
				<ele>179.000000</ele>
				<time>2026-08-17T05:51:12Z</time>
			</trkpt>
			<trkpt lat="30.261931" lon="120.106234">
				<speed>0.000000</speed>
				<ele>179.000000</ele>
				<time>2026-08-17T05:51:13Z</time>
			</trkpt>
			<trkpt lat="30.261947" lon="120.106245">
				<speed>0.000000</speed>
				<ele>179.000000</ele>
				<time>2026-08-17T05:51:14Z</time>
			</trkpt>
			<trkpt lat="30.261953" lon="120.106247">
				<speed>0.000000</speed>
				<ele>179.000000</ele>
				<time>2026-08-17T05:51:15Z</time>
			</trkpt>
			<trkpt lat="30.261958" lon="120.106250">
				<speed>0.000000</speed>
				<ele>179.000000</ele>
				<time>2026-08-17T05:51:16Z</time>
			</trkpt>
			<trkpt lat="30.261964" lon="120.106253">
				<speed>0.000000</speed>
				<ele>179.000000</ele>
				<time>2026-08-17T05:51:17Z</time>
			</trkpt>
			<trkpt lat="30.261981" lon="120.106260">
				<speed>0.000000</speed>
				<ele>179.000000</ele>
				<time>2026-08-17T05:51:18Z</time>
			</trkpt>
			<trkpt lat="30.261987" lon="120.106262">
				<speed>0.000000</speed>
				<ele>179.000000</ele>
				<time>2026-08-17T05:51:19Z</time>
			</trkpt>
			<trkpt lat="30.261992" lon="120.106264">
				<speed>0.000000</speed>
				<ele>179.000000</ele>
				<time>2026-08-17T05:51:20Z</time>
			</trkpt>
			<trkpt lat="30.261998" lon="120.106265">
				<speed>0.000000</speed>
				<ele>179.000000</ele>
				<time>2026-08-17T05:51:21Z</time>
			</trkpt>
			<trkpt lat="30.262015" lon="120.106270">
				<speed>0.000000</speed>
				<ele>179.000000</ele>
				<time>2026-08-17T05:51:22Z</time>
			</trkpt>
			<trkpt lat="30.262021" lon="120.106272">
				<speed>0.000000</speed>
				<ele>179.000000</ele>
				<time>2026-08-17T05:51:23Z</time>
			</trkpt>
			<trkpt lat="30.262026" lon="120.106274">
				<speed>0.000000</speed>
				<ele>179.000000</ele>
				<time>2026-08-17T05:51:24Z</time>
			</trkpt>
			<trkpt lat="30.262032" lon="120.106276">
				<speed>0.000000</speed>
				<ele>179.000000</ele>
				<time>2026-08-17T05:51:25Z</time>
			</trkpt>
			<trkpt lat="30.262051" lon="120.106283">
				<speed>0.000000</speed>
				<ele>179.000000</ele>
				<time>2026-08-17T05:51:26Z</time>
			</trkpt>
			<trkpt lat="30.262057" lon="120.106286">
				<speed>0.000000</speed>
				<ele>179.000000</ele>
				<time>2026-08-17T05:51:27Z</time>
			</trkpt>
			<trkpt lat="30.262064" lon="120.106289">
				<speed>0.000000</speed>
				<ele>179.000000</ele>
				<time>2026-08-17T05:51:28Z</time>
			</trkpt>
			<trkpt lat="30.262070" lon="120.106292">
				<speed>0.000000</speed>
				<ele>179.000000</ele>
				<time>2026-08-17T05:51:29Z</time>
			</trkpt>
			<trkpt lat="30.262089" lon="120.106301">
				<speed>0.000000</speed>
				<ele>179.000000</ele>
				<time>2026-08-17T05:51:30Z</time>
			</trkpt>
			<trkpt lat="30.262096" lon="120.106303">
				<speed>0.000000</speed>
				<ele>179.000000</ele>
				<time>2026-08-17T05:51:31Z</time>
			</trkpt>
			<trkpt lat="30.262102" lon="120.106306">
				<speed>0.000000</speed>
				<ele>179.000000</ele>
				<time>2026-08-17T05:51:32Z</time>
			</trkpt>
			<trkpt lat="30.262109" lon="120.106309">
				<speed>0.000000</speed>
				<ele>179.000000</ele>
				<time>2026-08-17T05:51:33Z</time>
			</trkpt>
			<trkpt lat="30.262129" lon="120.106318">
				<speed>0.000000</speed>
				<ele>178.000000</ele>
				<time>2026-08-17T05:51:34Z</time>
			</trkpt>
			<trkpt lat="30.262135" lon="120.106321">
				<speed>0.000000</speed>
				<ele>178.000000</ele>
				<time>2026-08-17T05:51:35Z</time>
			</trkpt>
			<trkpt lat="30.262142" lon="120.106324">
				<speed>0.000000</speed>
				<ele>178.000000</ele>
				<time>2026-08-17T05:51:36Z</time>
			</trkpt>
			<trkpt lat="30.262149" lon="120.106328">
				<speed>0.000000</speed>
				<ele>178.000000</ele>
				<time>2026-08-17T05:51:37Z</time>
			</trkpt>
			<trkpt lat="30.262169" lon="120.106336">
				<speed>0.000000</speed>
				<ele>178.000000</ele>
				<time>2026-08-17T05:51:38Z</time>
			</trkpt>
			<trkpt lat="30.262177" lon="120.106339">
				<speed>0.000000</speed>
				<ele>178.000000</ele>
				<time>2026-08-17T05:51:39Z</time>
			</trkpt>
			<trkpt lat="30.262184" lon="120.106342">
				<speed>0.000000</speed>
				<ele>178.000000</ele>
				<time>2026-08-17T05:51:40Z</time>
			</trkpt>
			<trkpt lat="30.262192" lon="120.106345">
				<speed>0.000000</speed>
				<ele>178.000000</ele>
				<time>2026-08-17T05:51:41Z</time>
			</trkpt>
			<trkpt lat="30.262214" lon="120.106353">
				<speed>0.000000</speed>
				<ele>177.000000</ele>
				<time>2026-08-17T05:51:42Z</time>
			</trkpt>
			<trkpt lat="30.262222" lon="120.106356">
				<speed>0.000000</speed>
				<ele>177.000000</ele>
				<time>2026-08-17T05:51:43Z</time>
			</trkpt>
			<trkpt lat="30.262230" lon="120.106359">
				<speed>0.000000</speed>
				<ele>177.000000</ele>
				<time>2026-08-17T05:51:44Z</time>
			</trkpt>
			<trkpt lat="30.262237" lon="120.106362">
				<speed>0.000000</speed>
				<ele>177.000000</ele>
				<time>2026-08-17T05:51:45Z</time>
			</trkpt>
			<trkpt lat="30.262260" lon="120.106371">
				<speed>0.000000</speed>
				<ele>177.000000</ele>
				<time>2026-08-17T05:51:46Z</time>
			</trkpt>
			<trkpt lat="30.262268" lon="120.106374">
				<speed>0.000000</speed>
				<ele>177.000000</ele>
				<time>2026-08-17T05:51:47Z</time>
			</trkpt>
			<trkpt lat="30.262276" lon="120.106377">
				<speed>0.000000</speed>
				<ele>177.000000</ele>
				<time>2026-08-17T05:51:48Z</time>
			</trkpt>
			<trkpt lat="30.262283" lon="120.106381">
				<speed>0.000000</speed>
				<ele>177.000000</ele>
				<time>2026-08-17T05:51:49Z</time>
			</trkpt>
			<trkpt lat="30.262306" lon="120.106391">
				<speed>0.000000</speed>
				<ele>177.000000</ele>
				<time>2026-08-17T05:51:50Z</time>
			</trkpt>
			<trkpt lat="30.262313" lon="120.106393">
				<speed>0.000000</speed>
				<ele>177.000000</ele>
				<time>2026-08-17T05:51:51Z</time>
			</trkpt>
			<trkpt lat="30.262320" lon="120.106396">
				<speed>0.000000</speed>
				<ele>177.000000</ele>
				<time>2026-08-17T05:51:52Z</time>
			</trkpt>
			<trkpt lat="30.262328" lon="120.106399">
				<speed>0.000000</speed>
				<ele>177.000000</ele>
				<time>2026-08-17T05:51:53Z</time>
			</trkpt>
			<trkpt lat="30.262350" lon="120.106405">
				<speed>0.000000</speed>
				<ele>176.000000</ele>
				<time>2026-08-17T05:51:54Z</time>
			</trkpt>
			<trkpt lat="30.262358" lon="120.106408">
				<speed>0.000000</speed>
				<ele>176.000000</ele>
				<time>2026-08-17T05:51:55Z</time>
			</trkpt>
			<trkpt lat="30.262366" lon="120.106410">
				<speed>0.000000</speed>
				<ele>176.000000</ele>
				<time>2026-08-17T05:51:56Z</time>
			</trkpt>
			<trkpt lat="30.262374" lon="120.106412">
				<speed>0.000000</speed>
				<ele>176.000000</ele>
				<time>2026-08-17T05:51:57Z</time>
			</trkpt>
			<trkpt lat="30.262398" lon="120.106419">
				<speed>0.000000</speed>
				<ele>176.000000</ele>
				<time>2026-08-17T05:51:58Z</time>
			</trkpt>
			<trkpt lat="30.262406" lon="120.106422">
				<speed>0.000000</speed>
				<ele>176.000000</ele>
				<time>2026-08-17T05:51:59Z</time>
			</trkpt>
			<trkpt lat="30.262414" lon="120.106424">
				<speed>0.000000</speed>
				<ele>176.000000</ele>
				<time>2026-08-17T05:52:00Z</time>
			</trkpt>
			<trkpt lat="30.262422" lon="120.106427">
				<speed>0.000000</speed>
				<ele>176.000000</ele>
				<time>2026-08-17T05:52:01Z</time>
			</trkpt>
			<trkpt lat="30.262448" lon="120.106435">
				<speed>0.000000</speed>
				<ele>176.000000</ele>
				<time>2026-08-17T05:52:02Z</time>
			</trkpt>
			<trkpt lat="30.262457" lon="120.106438">
				<speed>0.000000</speed>
				<ele>176.000000</ele>
				<time>2026-08-17T05:52:03Z</time>
			</trkpt>
			<trkpt lat="30.262466" lon="120.106441">
				<speed>0.000000</speed>
				<ele>176.000000</ele>
				<time>2026-08-17T05:52:04Z</time>
			</trkpt>
			<trkpt lat="30.262475" lon="120.106444">
				<speed>0.000000</speed>
				<ele>176.000000</ele>
				<time>2026-08-17T05:52:05Z</time>
			</trkpt>
			<trkpt lat="30.262502" lon="120.106455">
				<speed>0.000000</speed>
				<ele>176.000000</ele>
				<time>2026-08-17T05:52:06Z</time>
			</trkpt>
			<trkpt lat="30.262510" lon="120.106459">
				<speed>0.000000</speed>
				<ele>176.000000</ele>
				<time>2026-08-17T05:52:07Z</time>
			</trkpt>
			<trkpt lat="30.262519" lon="120.106463">
				<speed>0.000000</speed>
				<ele>176.000000</ele>
				<time>2026-08-17T05:52:08Z</time>
			</trkpt>
			<trkpt lat="30.262527" lon="120.106467">
				<speed>0.000000</speed>
				<ele>176.000000</ele>
				<time>2026-08-17T05:52:09Z</time>
			</trkpt>
			<trkpt lat="30.262549" lon="120.106484">
				<speed>0.000000</speed>
				<ele>175.000000</ele>
				<time>2026-08-17T05:52:10Z</time>
			</trkpt>
			<trkpt lat="30.262554" lon="120.106492">
				<speed>0.000000</speed>
				<ele>175.000000</ele>
				<time>2026-08-17T05:52:11Z</time>
			</trkpt>
			<trkpt lat="30.262559" lon="120.106499">
				<speed>0.000000</speed>
				<ele>175.000000</ele>
				<time>2026-08-17T05:52:12Z</time>
			</trkpt>
			<trkpt lat="30.262564" lon="120.106507">
				<speed>0.000000</speed>
				<ele>175.000000</ele>
				<time>2026-08-17T05:52:13Z</time>
			</trkpt>
			<trkpt lat="30.262574" lon="120.106531">
				<speed>0.000000</speed>
				<ele>175.000000</ele>
				<time>2026-08-17T05:52:14Z</time>
			</trkpt>
			<trkpt lat="30.262578" lon="120.106537">
				<speed>0.000000</speed>
				<ele>175.000000</ele>
				<time>2026-08-17T05:52:15Z</time>
			</trkpt>
			<trkpt lat="30.262581" lon="120.106543">
				<speed>0.000000</speed>
				<ele>175.000000</ele>
				<time>2026-08-17T05:52:16Z</time>
			</trkpt>
			<trkpt lat="30.262584" lon="120.106550">
				<speed>0.000000</speed>
				<ele>175.000000</ele>
				<time>2026-08-17T05:52:17Z</time>
			</trkpt>
			<trkpt lat="30.262595" lon="120.106568">
				<speed>0.000000</speed>
				<ele>175.000000</ele>
				<time>2026-08-17T05:52:18Z</time>
			</trkpt>
			<trkpt lat="30.262598" lon="120.106574">
				<speed>0.000000</speed>
				<ele>175.000000</ele>
				<time>2026-08-17T05:52:19Z</time>
			</trkpt>
			<trkpt lat="30.262601" lon="120.106580">
				<speed>0.000000</speed>
				<ele>175.000000</ele>
				<time>2026-08-17T05:52:20Z</time>
			</trkpt>
			<trkpt lat="30.262604" lon="120.106586">
				<speed>0.000000</speed>
				<ele>175.000000</ele>
				<time>2026-08-17T05:52:21Z</time>
			</trkpt>
			<trkpt lat="30.262613" lon="120.106603">
				<speed>0.000000</speed>
				<ele>174.000000</ele>
				<time>2026-08-17T05:52:22Z</time>
			</trkpt>
			<trkpt lat="30.262615" lon="120.106609">
				<speed>0.000000</speed>
				<ele>174.000000</ele>
				<time>2026-08-17T05:52:23Z</time>
			</trkpt>
			<trkpt lat="30.262618" lon="120.106614">
				<speed>0.000000</speed>
				<ele>174.000000</ele>
				<time>2026-08-17T05:52:24Z</time>
			</trkpt>
			<trkpt lat="30.262620" lon="120.106620">
				<speed>0.000000</speed>
				<ele>174.000000</ele>
				<time>2026-08-17T05:52:25Z</time>
			</trkpt>
			<trkpt lat="30.262632" lon="120.106637">
				<speed>0.000000</speed>
				<ele>173.000000</ele>
				<time>2026-08-17T05:52:26Z</time>
			</trkpt>
			<trkpt lat="30.262638" lon="120.106642">
				<speed>0.000000</speed>
				<ele>173.000000</ele>
				<time>2026-08-17T05:52:27Z</time>
			</trkpt>
			<trkpt lat="30.262642" lon="120.106647">
				<speed>0.000000</speed>
				<ele>173.000000</ele>
				<time>2026-08-17T05:52:28Z</time>
			</trkpt>
			<trkpt lat="30.262648" lon="120.106652">
				<speed>0.000000</speed>
				<ele>173.000000</ele>
				<time>2026-08-17T05:52:29Z</time>
			</trkpt>
			<trkpt lat="30.262658" lon="120.106669">
				<speed>0.000000</speed>
				<ele>172.000000</ele>
				<time>2026-08-17T05:52:30Z</time>
			</trkpt>
			<trkpt lat="30.262659" lon="120.106676">
				<speed>0.000000</speed>
				<ele>172.000000</ele>
				<time>2026-08-17T05:52:31Z</time>
			</trkpt>
			<trkpt lat="30.262659" lon="120.106682">
				<speed>0.000000</speed>
				<ele>172.000000</ele>
				<time>2026-08-17T05:52:32Z</time>
			</trkpt>
			<trkpt lat="30.262660" lon="120.106688">
				<speed>0.000000</speed>
				<ele>172.000000</ele>
				<time>2026-08-17T05:52:33Z</time>
			</trkpt>
			<trkpt lat="30.262656" lon="120.106708">
				<speed>0.000000</speed>
				<ele>171.000000</ele>
				<time>2026-08-17T05:52:34Z</time>
			</trkpt>
			<trkpt lat="30.262645" lon="120.106726">
				<speed>0.000000</speed>
				<ele>168.000000</ele>
				<time>2026-08-17T05:52:43Z</time>
			</trkpt>
			<trkpt lat="30.262632" lon="120.106748">
				<speed>0.000000</speed>
				<ele>168.000000</ele>
				<time>2026-08-17T05:52:44Z</time>
			</trkpt>
			<trkpt lat="30.262630" lon="120.106754">
				<speed>0.000000</speed>
				<ele>168.000000</ele>
				<time>2026-08-17T05:52:45Z</time>
			</trkpt>
			<trkpt lat="30.262629" lon="120.106760">
				<speed>0.000000</speed>
				<ele>167.000000</ele>
				<time>2026-08-17T05:52:46Z</time>
			</trkpt>
			<trkpt lat="30.262628" lon="120.106766">
				<speed>0.000000</speed>
				<ele>167.000000</ele>
				<time>2026-08-17T05:52:47Z</time>
			</trkpt>
			<trkpt lat="30.262626" lon="120.106782">
				<speed>0.000000</speed>
				<ele>167.000000</ele>
				<time>2026-08-17T05:52:48Z</time>
			</trkpt>
			<trkpt lat="30.262625" lon="120.106785">
				<speed>0.000000</speed>
				<ele>167.000000</ele>
				<time>2026-08-17T05:52:49Z</time>
			</trkpt>
			<trkpt lat="30.262624" lon="120.106788">
				<speed>0.000000</speed>
				<ele>166.000000</ele>
				<time>2026-08-17T05:52:50Z</time>
			</trkpt>
			<trkpt lat="30.262623" lon="120.106791">
				<speed>0.000000</speed>
				<ele>166.000000</ele>
				<time>2026-08-17T05:52:51Z</time>
			</trkpt>
			<trkpt lat="30.262622" lon="120.106794">
				<speed>0.000000</speed>
				<ele>165.000000</ele>
				<time>2026-08-17T05:52:52Z</time>
			</trkpt>
			<trkpt lat="30.262622" lon="120.106797">
				<speed>0.000000</speed>
				<ele>165.000000</ele>
				<time>2026-08-17T05:52:53Z</time>
			</trkpt>
			<trkpt lat="30.262618" lon="120.106810">
				<speed>0.000000</speed>
				<ele>164.000000</ele>
				<time>2026-08-17T05:52:54Z</time>
			</trkpt>
			<trkpt lat="30.262617" lon="120.106814">
				<speed>0.000000</speed>
				<ele>164.000000</ele>
				<time>2026-08-17T05:52:55Z</time>
			</trkpt>
			<trkpt lat="30.262617" lon="120.106818">
				<speed>0.000000</speed>
				<ele>164.000000</ele>
				<time>2026-08-17T05:52:56Z</time>
			</trkpt>
			<trkpt lat="30.262616" lon="120.106822">
				<speed>0.000000</speed>
				<ele>164.000000</ele>
				<time>2026-08-17T05:52:57Z</time>
			</trkpt>
			<trkpt lat="30.262608" lon="120.106842">
				<speed>0.000000</speed>
				<ele>160.000000</ele>
				<time>2026-08-17T05:53:08Z</time>
			</trkpt>
			<trkpt lat="30.262597" lon="120.106868">
				<speed>0.000000</speed>
				<ele>160.000000</ele>
				<time>2026-08-17T05:53:09Z</time>
			</trkpt>
			<trkpt lat="30.262595" lon="120.106874">
				<speed>0.000000</speed>
				<ele>159.000000</ele>
				<time>2026-08-17T05:53:10Z</time>
			</trkpt>
			<trkpt lat="30.262593" lon="120.106880">
				<speed>0.000000</speed>
				<ele>159.000000</ele>
				<time>2026-08-17T05:53:11Z</time>
			</trkpt>
			<trkpt lat="30.262591" lon="120.106887">
				<speed>0.000000</speed>
				<ele>159.000000</ele>
				<time>2026-08-17T05:53:12Z</time>
			</trkpt>
			<trkpt lat="30.262578" lon="120.106909">
				<speed>0.000000</speed>
				<ele>156.000000</ele>
				<time>2026-08-17T05:53:24Z</time>
			</trkpt>
			<trkpt lat="30.262565" lon="120.106927">
				<speed>0.000000</speed>
				<ele>156.000000</ele>
				<time>2026-08-17T05:53:25Z</time>
			</trkpt>
			<trkpt lat="30.262561" lon="120.106932">
				<speed>0.000000</speed>
				<ele>155.000000</ele>
				<time>2026-08-17T05:53:26Z</time>
			</trkpt>
			<trkpt lat="30.262558" lon="120.106936">
				<speed>0.000000</speed>
				<ele>155.000000</ele>
				<time>2026-08-17T05:53:27Z</time>
			</trkpt>
			<trkpt lat="30.262554" lon="120.106941">
				<speed>0.000000</speed>
				<ele>155.000000</ele>
				<time>2026-08-17T05:53:28Z</time>
			</trkpt>
			<trkpt lat="30.262541" lon="120.106951">
				<speed>0.000000</speed>
				<ele>155.000000</ele>
				<time>2026-08-17T05:53:29Z</time>
			</trkpt>
			<trkpt lat="30.262536" lon="120.106954">
				<speed>0.000000</speed>
				<ele>154.000000</ele>
				<time>2026-08-17T05:53:30Z</time>
			</trkpt>
			<trkpt lat="30.262532" lon="120.106957">
				<speed>0.000000</speed>
				<ele>154.000000</ele>
				<time>2026-08-17T05:53:31Z</time>
			</trkpt>
			<trkpt lat="30.262527" lon="120.106960">
				<speed>0.000000</speed>
				<ele>154.000000</ele>
				<time>2026-08-17T05:53:32Z</time>
			</trkpt>
			<trkpt lat="30.262516" lon="120.106968">
				<speed>0.000000</speed>
				<ele>154.000000</ele>
				<time>2026-08-17T05:53:33Z</time>
			</trkpt>
			<trkpt lat="30.262513" lon="120.106971">
				<speed>0.000000</speed>
				<ele>153.000000</ele>
				<time>2026-08-17T05:53:34Z</time>
			</trkpt>
			<trkpt lat="30.262509" lon="120.106975">
				<speed>0.000000</speed>
				<ele>153.000000</ele>
				<time>2026-08-17T05:53:35Z</time>
			</trkpt>
			<trkpt lat="30.262506" lon="120.106978">
				<speed>0.000000</speed>
				<ele>153.000000</ele>
				<time>2026-08-17T05:53:36Z</time>
			</trkpt>
			<trkpt lat="30.262495" lon="120.106989">
				<speed>0.000000</speed>
				<ele>153.000000</ele>
				<time>2026-08-17T05:53:37Z</time>
			</trkpt>
			<trkpt lat="30.262491" lon="120.106991">
				<speed>0.000000</speed>
				<ele>152.000000</ele>
				<time>2026-08-17T05:53:38Z</time>
			</trkpt>
			<trkpt lat="30.262488" lon="120.106994">
				<speed>0.000000</speed>
				<ele>152.000000</ele>
				<time>2026-08-17T05:53:39Z</time>
			</trkpt>
			<trkpt lat="30.262484" lon="120.106997">
				<speed>0.000000</speed>
				<ele>152.000000</ele>
				<time>2026-08-17T05:53:40Z</time>
			</trkpt>
			<trkpt lat="30.262472" lon="120.107004">
				<speed>0.000000</speed>
				<ele>152.000000</ele>
				<time>2026-08-17T05:53:41Z</time>
			</trkpt>
			<trkpt lat="30.262467" lon="120.107006">
				<speed>0.000000</speed>
				<ele>151.000000</ele>
				<time>2026-08-17T05:53:42Z</time>
			</trkpt>
			<trkpt lat="30.262462" lon="120.107008">
				<speed>0.000000</speed>
				<ele>151.000000</ele>
				<time>2026-08-17T05:53:43Z</time>
			</trkpt>
			<trkpt lat="30.262457" lon="120.107011">
				<speed>0.000000</speed>
				<ele>151.000000</ele>
				<time>2026-08-17T05:53:44Z</time>
			</trkpt>
			<trkpt lat="30.262444" lon="120.107016">
				<speed>0.000000</speed>
				<ele>151.000000</ele>
				<time>2026-08-17T05:53:45Z</time>
			</trkpt>
			<trkpt lat="30.262440" lon="120.107018">
				<speed>0.000000</speed>
				<ele>150.000000</ele>
				<time>2026-08-17T05:53:46Z</time>
			</trkpt>
			<trkpt lat="30.262436" lon="120.107021">
				<speed>0.000000</speed>
				<ele>150.000000</ele>
				<time>2026-08-17T05:53:47Z</time>
			</trkpt>
			<trkpt lat="30.262432" lon="120.107023">
				<speed>0.000000</speed>
				<ele>150.000000</ele>
				<time>2026-08-17T05:53:48Z</time>
			</trkpt>
			<trkpt lat="30.262423" lon="120.107031">
				<speed>0.000000</speed>
				<ele>150.000000</ele>
				<time>2026-08-17T05:53:49Z</time>
			</trkpt>
			<trkpt lat="30.262420" lon="120.107034">
				<speed>0.000000</speed>
				<ele>149.000000</ele>
				<time>2026-08-17T05:53:50Z</time>
			</trkpt>
			<trkpt lat="30.262417" lon="120.107037">
				<speed>0.000000</speed>
				<ele>149.000000</ele>
				<time>2026-08-17T05:53:51Z</time>
			</trkpt>
			<trkpt lat="30.262413" lon="120.107040">
				<speed>0.000000</speed>
				<ele>149.000000</ele>
				<time>2026-08-17T05:53:52Z</time>
			</trkpt>
			<trkpt lat="30.262402" lon="120.107047">
				<speed>0.000000</speed>
				<ele>149.000000</ele>
				<time>2026-08-17T05:53:53Z</time>
			</trkpt>
			<trkpt lat="30.262398" lon="120.107049">
				<speed>0.000000</speed>
				<ele>148.000000</ele>
				<time>2026-08-17T05:53:54Z</time>
			</trkpt>
			<trkpt lat="30.262394" lon="120.107051">
				<speed>0.000000</speed>
				<ele>148.000000</ele>
				<time>2026-08-17T05:53:55Z</time>
			</trkpt>
			<trkpt lat="30.262390" lon="120.107053">
				<speed>0.000000</speed>
				<ele>148.000000</ele>
				<time>2026-08-17T05:53:56Z</time>
			</trkpt>
			<trkpt lat="30.262380" lon="120.107063">
				<speed>0.000000</speed>
				<ele>148.000000</ele>
				<time>2026-08-17T05:53:57Z</time>
			</trkpt>
			<trkpt lat="30.262377" lon="120.107067">
				<speed>0.000000</speed>
				<ele>147.000000</ele>
				<time>2026-08-17T05:53:58Z</time>
			</trkpt>
			<trkpt lat="30.262374" lon="120.107071">
				<speed>0.000000</speed>
				<ele>147.000000</ele>
				<time>2026-08-17T05:53:59Z</time>
			</trkpt>
			<trkpt lat="30.262371" lon="120.107075">
				<speed>0.000000</speed>
				<ele>147.000000</ele>
				<time>2026-08-17T05:54:00Z</time>
			</trkpt>
			<trkpt lat="30.262365" lon="120.107089">
				<speed>0.000000</speed>
				<ele>147.000000</ele>
				<time>2026-08-17T05:54:01Z</time>
			</trkpt>
			<trkpt lat="30.262363" lon="120.107094">
				<speed>0.000000</speed>
				<ele>146.000000</ele>
				<time>2026-08-17T05:54:02Z</time>
			</trkpt>
			<trkpt lat="30.262362" lon="120.107100">
				<speed>0.000000</speed>
				<ele>146.000000</ele>
				<time>2026-08-17T05:54:03Z</time>
			</trkpt>
			<trkpt lat="30.262360" lon="120.107105">
				<speed>0.000000</speed>
				<ele>146.000000</ele>
				<time>2026-08-17T05:54:04Z</time>
			</trkpt>
			<trkpt lat="30.262358" lon="120.107123">
				<speed>0.000000</speed>
				<ele>146.000000</ele>
				<time>2026-08-17T05:54:05Z</time>
			</trkpt>
			<trkpt lat="30.262358" lon="120.107129">
				<speed>0.000000</speed>
				<ele>145.000000</ele>
				<time>2026-08-17T05:54:06Z</time>
			</trkpt>
			<trkpt lat="30.262358" lon="120.107136">
				<speed>0.000000</speed>
				<ele>145.000000</ele>
				<time>2026-08-17T05:54:07Z</time>
			</trkpt>
			<trkpt lat="30.262359" lon="120.107142">
				<speed>0.000000</speed>
				<ele>145.000000</ele>
				<time>2026-08-17T05:54:08Z</time>
			</trkpt>
			<trkpt lat="30.262362" lon="120.107163">
				<speed>0.000000</speed>
				<ele>145.000000</ele>
				<time>2026-08-17T05:54:09Z</time>
			</trkpt>
			<trkpt lat="30.262363" lon="120.107171">
				<speed>0.000000</speed>
				<ele>144.000000</ele>
				<time>2026-08-17T05:54:10Z</time>
			</trkpt>
			<trkpt lat="30.262364" lon="120.107178">
				<speed>0.000000</speed>
				<ele>144.000000</ele>
				<time>2026-08-17T05:54:11Z</time>
			</trkpt>
			<trkpt lat="30.262364" lon="120.107185">
				<speed>0.000000</speed>
				<ele>144.000000</ele>
				<time>2026-08-17T05:54:12Z</time>
			</trkpt>
			<trkpt lat="30.262362" lon="120.107205">
				<speed>0.000000</speed>
				<ele>144.000000</ele>
				<time>2026-08-17T05:54:13Z</time>
			</trkpt>
			<trkpt lat="30.262360" lon="120.107211">
				<speed>0.000000</speed>
				<ele>143.000000</ele>
				<time>2026-08-17T05:54:14Z</time>
			</trkpt>
			<trkpt lat="30.262359" lon="120.107217">
				<speed>0.000000</speed>
				<ele>143.000000</ele>
				<time>2026-08-17T05:54:15Z</time>
			</trkpt>
			<trkpt lat="30.262357" lon="120.107223">
				<speed>0.000000</speed>
				<ele>142.000000</ele>
				<time>2026-08-17T05:54:16Z</time>
			</trkpt>
			<trkpt lat="30.262351" lon="120.107244">
				<speed>0.000000</speed>
				<ele>142.000000</ele>
				<time>2026-08-17T05:54:17Z</time>
			</trkpt>
			<trkpt lat="30.262349" lon="120.107252">
				<speed>0.000000</speed>
				<ele>141.000000</ele>
				<time>2026-08-17T05:54:18Z</time>
			</trkpt>
			<trkpt lat="30.262347" lon="120.107259">
				<speed>0.000000</speed>
				<ele>141.000000</ele>
				<time>2026-08-17T05:54:19Z</time>
			</trkpt>
			<trkpt lat="30.262345" lon="120.107267">
				<speed>0.000000</speed>
				<ele>140.000000</ele>
				<time>2026-08-17T05:54:20Z</time>
			</trkpt>
			<trkpt lat="30.262340" lon="120.107293">
				<speed>0.000000</speed>
				<ele>140.000000</ele>
				<time>2026-08-17T05:54:21Z</time>
			</trkpt>
			<trkpt lat="30.262338" lon="120.107302">
				<speed>0.000000</speed>
				<ele>139.000000</ele>
				<time>2026-08-17T05:54:22Z</time>
			</trkpt>
			<trkpt lat="30.262336" lon="120.107312">
				<speed>0.000000</speed>
				<ele>139.000000</ele>
				<time>2026-08-17T05:54:23Z</time>
			</trkpt>
			<trkpt lat="30.262334" lon="120.107321">
				<speed>0.000000</speed>
				<ele>139.000000</ele>
				<time>2026-08-17T05:54:24Z</time>
			</trkpt>
			<trkpt lat="30.262325" lon="120.107350">
				<speed>0.000000</speed>
				<ele>139.000000</ele>
				<time>2026-08-17T05:54:25Z</time>
			</trkpt>
			<trkpt lat="30.262321" lon="120.107358">
				<speed>0.000000</speed>
				<ele>138.000000</ele>
				<time>2026-08-17T05:54:26Z</time>
			</trkpt>
			<trkpt lat="30.262317" lon="120.107366">
				<speed>0.000000</speed>
				<ele>138.000000</ele>
				<time>2026-08-17T05:54:27Z</time>
			</trkpt>
			<trkpt lat="30.262313" lon="120.107374">
				<speed>0.000000</speed>
				<ele>138.000000</ele>
				<time>2026-08-17T05:54:28Z</time>
			</trkpt>
			<trkpt lat="30.262305" lon="120.107393">
				<speed>0.000000</speed>
				<ele>138.000000</ele>
				<time>2026-08-17T05:54:29Z</time>
			</trkpt>
			<trkpt lat="30.262304" lon="120.107399">
				<speed>0.000000</speed>
				<ele>137.000000</ele>
				<time>2026-08-17T05:54:30Z</time>
			</trkpt>
			<trkpt lat="30.262304" lon="120.107405">
				<speed>0.000000</speed>
				<ele>137.000000</ele>
				<time>2026-08-17T05:54:31Z</time>
			</trkpt>
			<trkpt lat="30.262303" lon="120.107411">
				<speed>0.000000</speed>
				<ele>137.000000</ele>
				<time>2026-08-17T05:54:32Z</time>
			</trkpt>
			<trkpt lat="30.262305" lon="120.107431">
				<speed>0.000000</speed>
				<ele>137.000000</ele>
				<time>2026-08-17T05:54:33Z</time>
			</trkpt>
			<trkpt lat="30.262306" lon="120.107438">
				<speed>0.000000</speed>
				<ele>137.000000</ele>
				<time>2026-08-17T05:54:34Z</time>
			</trkpt>
			<trkpt lat="30.262307" lon="120.107445">
				<speed>0.000000</speed>
				<ele>137.000000</ele>
				<time>2026-08-17T05:54:35Z</time>
			</trkpt>
			<trkpt lat="30.262308" lon="120.107452">
				<speed>0.000000</speed>
				<ele>137.000000</ele>
				<time>2026-08-17T05:54:36Z</time>
			</trkpt>
			<trkpt lat="30.262309" lon="120.107475">
				<speed>0.000000</speed>
				<ele>137.000000</ele>
				<time>2026-08-17T05:54:37Z</time>
			</trkpt>
			<trkpt lat="30.262308" lon="120.107483">
				<speed>0.000000</speed>
				<ele>137.000000</ele>
				<time>2026-08-17T05:54:38Z</time>
			</trkpt>
			<trkpt lat="30.262308" lon="120.107492">
				<speed>0.000000</speed>
				<ele>137.000000</ele>
				<time>2026-08-17T05:54:39Z</time>
			</trkpt>
			<trkpt lat="30.262308" lon="120.107501">
				<speed>0.000000</speed>
				<ele>137.000000</ele>
				<time>2026-08-17T05:54:40Z</time>
			</trkpt>
			<trkpt lat="30.262307" lon="120.107525">
				<speed>0.000000</speed>
				<ele>137.000000</ele>
				<time>2026-08-17T05:54:41Z</time>
			</trkpt>
			<trkpt lat="30.262307" lon="120.107532">
				<speed>0.000000</speed>
				<ele>137.000000</ele>
				<time>2026-08-17T05:54:42Z</time>
			</trkpt>
			<trkpt lat="30.262308" lon="120.107539">
				<speed>0.000000</speed>
				<ele>137.000000</ele>
				<time>2026-08-17T05:54:43Z</time>
			</trkpt>
			<trkpt lat="30.262309" lon="120.107547">
				<speed>0.000000</speed>
				<ele>137.000000</ele>
				<time>2026-08-17T05:54:44Z</time>
			</trkpt>
			<trkpt lat="30.262312" lon="120.107568">
				<speed>0.000000</speed>
				<ele>137.000000</ele>
				<time>2026-08-17T05:54:45Z</time>
			</trkpt>
			<trkpt lat="30.262313" lon="120.107575">
				<speed>0.000000</speed>
				<ele>137.000000</ele>
				<time>2026-08-17T05:54:46Z</time>
			</trkpt>
			<trkpt lat="30.262314" lon="120.107582">
				<speed>0.000000</speed>
				<ele>137.000000</ele>
				<time>2026-08-17T05:54:47Z</time>
			</trkpt>
			<trkpt lat="30.262314" lon="120.107589">
				<speed>0.000000</speed>
				<ele>137.000000</ele>
				<time>2026-08-17T05:54:48Z</time>
			</trkpt>
			<trkpt lat="30.262312" lon="120.107610">
				<speed>0.000000</speed>
				<ele>138.000000</ele>
				<time>2026-08-17T05:54:49Z</time>
			</trkpt>
			<trkpt lat="30.262311" lon="120.107617">
				<speed>0.000000</speed>
				<ele>138.000000</ele>
				<time>2026-08-17T05:54:50Z</time>
			</trkpt>
			<trkpt lat="30.262310" lon="120.107624">
				<speed>0.000000</speed>
				<ele>138.000000</ele>
				<time>2026-08-17T05:54:51Z</time>
			</trkpt>
			<trkpt lat="30.262308" lon="120.107631">
				<speed>0.000000</speed>
				<ele>138.000000</ele>
				<time>2026-08-17T05:54:52Z</time>
			</trkpt>
			<trkpt lat="30.262306" lon="120.107654">
				<speed>0.000000</speed>
				<ele>139.000000</ele>
				<time>2026-08-17T05:54:53Z</time>
			</trkpt>
			<trkpt lat="30.262305" lon="120.107662">
				<speed>0.000000</speed>
				<ele>139.000000</ele>
				<time>2026-08-17T05:54:54Z</time>
			</trkpt>
			<trkpt lat="30.262305" lon="120.107670">
				<speed>0.000000</speed>
				<ele>139.000000</ele>
				<time>2026-08-17T05:54:55Z</time>
			</trkpt>
			<trkpt lat="30.262304" lon="120.107678">
				<speed>0.000000</speed>
				<ele>139.000000</ele>
				<time>2026-08-17T05:54:56Z</time>
			</trkpt>
			<trkpt lat="30.262300" lon="120.107701">
				<speed>0.000000</speed>
				<ele>140.000000</ele>
				<time>2026-08-17T05:54:57Z</time>
			</trkpt>
			<trkpt lat="30.262298" lon="120.107709">
				<speed>0.000000</speed>
				<ele>140.000000</ele>
				<time>2026-08-17T05:54:58Z</time>
			</trkpt>
			<trkpt lat="30.262295" lon="120.107716">
				<speed>0.000000</speed>
				<ele>140.000000</ele>
				<time>2026-08-17T05:54:59Z</time>
			</trkpt>
			<trkpt lat="30.262292" lon="120.107724">
				<speed>0.000000</speed>
				<ele>140.000000</ele>
				<time>2026-08-17T05:55:00Z</time>
			</trkpt>
			<trkpt lat="30.262283" lon="120.107742">
				<speed>0.000000</speed>
				<ele>141.000000</ele>
				<time>2026-08-17T05:55:01Z</time>
			</trkpt>
			<trkpt lat="30.262282" lon="120.107745">
				<speed>0.000000</speed>
				<ele>141.000000</ele>
				<time>2026-08-17T05:55:02Z</time>
			</trkpt>
			<trkpt lat="30.262281" lon="120.107749">
				<speed>0.000000</speed>
				<ele>141.000000</ele>
				<time>2026-08-17T05:55:03Z</time>
			</trkpt>
			<trkpt lat="30.262280" lon="120.107752">
				<speed>0.000000</speed>
				<ele>141.000000</ele>
				<time>2026-08-17T05:55:04Z</time>
			</trkpt>
			<trkpt lat="30.262278" lon="120.107755">
				<speed>0.000000</speed>
				<ele>142.000000</ele>
				<time>2026-08-17T05:55:05Z</time>
			</trkpt>
			<trkpt lat="30.262277" lon="120.107758">
				<speed>0.000000</speed>
				<ele>142.000000</ele>
				<time>2026-08-17T05:55:06Z</time>
			</trkpt>
			<trkpt lat="30.262276" lon="120.107771">
				<speed>0.000000</speed>
				<ele>142.000000</ele>
				<time>2026-08-17T05:55:07Z</time>
			</trkpt>
			<trkpt lat="30.262276" lon="120.107774">
				<speed>0.000000</speed>
				<ele>142.000000</ele>
				<time>2026-08-17T05:55:08Z</time>
			</trkpt>
			<trkpt lat="30.262276" lon="120.107778">
				<speed>0.000000</speed>
				<ele>143.000000</ele>
				<time>2026-08-17T05:55:09Z</time>
			</trkpt>
			<trkpt lat="30.262276" lon="120.107782">
				<speed>0.000000</speed>
				<ele>143.000000</ele>
				<time>2026-08-17T05:55:10Z</time>
			</trkpt>
			<trkpt lat="30.262276" lon="120.107784">
				<speed>0.000000</speed>
				<ele>143.000000</ele>
				<time>2026-08-17T05:55:11Z</time>
			</trkpt>
			<trkpt lat="30.262276" lon="120.107786">
				<speed>0.000000</speed>
				<ele>143.000000</ele>
				<time>2026-08-17T05:55:12Z</time>
			</trkpt>
			<trkpt lat="30.262276" lon="120.107789">
				<speed>0.000000</speed>
				<ele>144.000000</ele>
				<time>2026-08-17T05:55:13Z</time>
			</trkpt>
			<trkpt lat="30.262277" lon="120.107791">
				<speed>0.000000</speed>
				<ele>144.000000</ele>
				<time>2026-08-17T05:55:14Z</time>
			</trkpt>
			<trkpt lat="30.262278" lon="120.107805">
				<speed>0.000000</speed>
				<ele>144.000000</ele>
				<time>2026-08-17T05:55:15Z</time>
			</trkpt>
			<trkpt lat="30.262279" lon="120.107810">
				<speed>0.000000</speed>
				<ele>144.000000</ele>
				<time>2026-08-17T05:55:16Z</time>
			</trkpt>
			<trkpt lat="30.262280" lon="120.107814">
				<speed>0.000000</speed>
				<ele>145.000000</ele>
				<time>2026-08-17T05:55:17Z</time>
			</trkpt>
			<trkpt lat="30.262281" lon="120.107819">
				<speed>0.000000</speed>
				<ele>145.000000</ele>
				<time>2026-08-17T05:55:18Z</time>
			</trkpt>
			<trkpt lat="30.262282" lon="120.107835">
				<speed>0.000000</speed>
				<ele>145.000000</ele>
				<time>2026-08-17T05:55:19Z</time>
			</trkpt>
			<trkpt lat="30.262283" lon="120.107841">
				<speed>0.000000</speed>
				<ele>145.000000</ele>
				<time>2026-08-17T05:55:20Z</time>
			</trkpt>
			<trkpt lat="30.262283" lon="120.107846">
				<speed>0.000000</speed>
				<ele>145.000000</ele>
				<time>2026-08-17T05:55:21Z</time>
			</trkpt>
			<trkpt lat="30.262284" lon="120.107851">
				<speed>0.000000</speed>
				<ele>145.000000</ele>
				<time>2026-08-17T05:55:22Z</time>
			</trkpt>
			<trkpt lat="30.262284" lon="120.107867">
				<speed>0.000000</speed>
				<ele>145.000000</ele>
				<time>2026-08-17T05:55:23Z</time>
			</trkpt>
			<trkpt lat="30.262284" lon="120.107872">
				<speed>0.000000</speed>
				<ele>145.000000</ele>
				<time>2026-08-17T05:55:24Z</time>
			</trkpt>
			<trkpt lat="30.262284" lon="120.107878">
				<speed>0.000000</speed>
				<ele>145.000000</ele>
				<time>2026-08-17T05:55:25Z</time>
			</trkpt>
			<trkpt lat="30.262283" lon="120.107884">
				<speed>0.000000</speed>
				<ele>145.000000</ele>
				<time>2026-08-17T05:55:26Z</time>
			</trkpt>
			<trkpt lat="30.262281" lon="120.107905">
				<speed>0.000000</speed>
				<ele>145.000000</ele>
				<time>2026-08-17T05:55:27Z</time>
			</trkpt>
			<trkpt lat="30.262281" lon="120.107912">
				<speed>0.000000</speed>
				<ele>145.000000</ele>
				<time>2026-08-17T05:55:28Z</time>
			</trkpt>
			<trkpt lat="30.262281" lon="120.107919">
				<speed>0.000000</speed>
				<ele>145.000000</ele>
				<time>2026-08-17T05:55:29Z</time>
			</trkpt>
			<trkpt lat="30.262281" lon="120.107927">
				<speed>0.000000</speed>
				<ele>145.000000</ele>
				<time>2026-08-17T05:55:30Z</time>
			</trkpt>
			<trkpt lat="30.262282" lon="120.107950">
				<speed>0.000000</speed>
				<ele>145.000000</ele>
				<time>2026-08-17T05:55:31Z</time>
			</trkpt>
			<trkpt lat="30.262283" lon="120.107957">
				<speed>0.000000</speed>
				<ele>145.000000</ele>
				<time>2026-08-17T05:55:32Z</time>
			</trkpt>
			<trkpt lat="30.262283" lon="120.107965">
				<speed>0.000000</speed>
				<ele>146.000000</ele>
				<time>2026-08-17T05:55:33Z</time>
			</trkpt>
			<trkpt lat="30.262284" lon="120.107973">
				<speed>0.000000</speed>
				<ele>146.000000</ele>
				<time>2026-08-17T05:55:34Z</time>
			</trkpt>
			<trkpt lat="30.262283" lon="120.107996">
				<speed>0.000000</speed>
				<ele>146.000000</ele>
				<time>2026-08-17T05:55:35Z</time>
			</trkpt>
			<trkpt lat="30.262282" lon="120.108003">
				<speed>0.000000</speed>
				<ele>146.000000</ele>
				<time>2026-08-17T05:55:36Z</time>
			</trkpt>
			<trkpt lat="30.262282" lon="120.108010">
				<speed>0.000000</speed>
				<ele>146.000000</ele>
				<time>2026-08-17T05:55:37Z</time>
			</trkpt>
			<trkpt lat="30.262281" lon="120.108018">
				<speed>0.000000</speed>
				<ele>146.000000</ele>
				<time>2026-08-17T05:55:38Z</time>
			</trkpt>
			<trkpt lat="30.262278" lon="120.108040">
				<speed>0.000000</speed>
				<ele>146.000000</ele>
				<time>2026-08-17T05:55:39Z</time>
			</trkpt>
			<trkpt lat="30.262277" lon="120.108047">
				<speed>0.000000</speed>
				<ele>146.000000</ele>
				<time>2026-08-17T05:55:40Z</time>
			</trkpt>
			<trkpt lat="30.262275" lon="120.108055">
				<speed>0.000000</speed>
				<ele>146.000000</ele>
				<time>2026-08-17T05:55:41Z</time>
			</trkpt>
			<trkpt lat="30.262274" lon="120.108063">
				<speed>0.000000</speed>
				<ele>146.000000</ele>
				<time>2026-08-17T05:55:42Z</time>
			</trkpt>
			<trkpt lat="30.262269" lon="120.108089">
				<speed>0.000000</speed>
				<ele>146.000000</ele>
				<time>2026-08-17T05:55:43Z</time>
			</trkpt>
			<trkpt lat="30.262266" lon="120.108099">
				<speed>0.000000</speed>
				<ele>146.000000</ele>
				<time>2026-08-17T05:55:44Z</time>
			</trkpt>
			<trkpt lat="30.262264" lon="120.108109">
				<speed>0.000000</speed>
				<ele>147.000000</ele>
				<time>2026-08-17T05:55:45Z</time>
			</trkpt>
			<trkpt lat="30.262262" lon="120.108119">
				<speed>0.000000</speed>
				<ele>147.000000</ele>
				<time>2026-08-17T05:55:46Z</time>
			</trkpt>
			<trkpt lat="30.262252" lon="120.108157">
				<speed>0.000000</speed>
				<ele>147.000000</ele>
				<time>2026-08-17T05:55:47Z</time>
			</trkpt>
			<trkpt lat="30.262249" lon="120.108173">
				<speed>0.000000</speed>
				<ele>147.000000</ele>
				<time>2026-08-17T05:55:48Z</time>
			</trkpt>
			<trkpt lat="30.262245" lon="120.108188">
				<speed>0.000000</speed>
				<ele>147.000000</ele>
				<time>2026-08-17T05:55:49Z</time>
			</trkpt>
			<trkpt lat="30.262241" lon="120.108203">
				<speed>0.000000</speed>
				<ele>147.000000</ele>
				<time>2026-08-17T05:55:50Z</time>
			</trkpt>
			<trkpt lat="30.262229" lon="120.108255">
				<speed>0.000000</speed>
				<ele>147.000000</ele>
				<time>2026-08-17T05:55:51Z</time>
			</trkpt>
			<trkpt lat="30.262226" lon="120.108274">
				<speed>0.000000</speed>
				<ele>147.000000</ele>
				<time>2026-08-17T05:55:52Z</time>
			</trkpt>
			<trkpt lat="30.262223" lon="120.108294">
				<speed>0.000000</speed>
				<ele>147.000000</ele>
				<time>2026-08-17T05:55:53Z</time>
			</trkpt>
			<trkpt lat="30.262220" lon="120.108313">
				<speed>0.000000</speed>
				<ele>147.000000</ele>
				<time>2026-08-17T05:55:54Z</time>
			</trkpt>
			<trkpt lat="30.262219" lon="120.108373">
				<speed>0.000000</speed>
				<ele>147.000000</ele>
				<time>2026-08-17T05:55:55Z</time>
			</trkpt>
			<trkpt lat="30.262221" lon="120.108393">
				<speed>0.000000</speed>
				<ele>147.000000</ele>
				<time>2026-08-17T05:55:56Z</time>
			</trkpt>
			<trkpt lat="30.262222" lon="120.108414">
				<speed>0.000000</speed>
				<ele>147.000000</ele>
				<time>2026-08-17T05:55:57Z</time>
			</trkpt>
			<trkpt lat="30.262224" lon="120.108434">
				<speed>0.000000</speed>
				<ele>146.000000</ele>
				<time>2026-08-17T05:55:58Z</time>
			</trkpt>
			<trkpt lat="30.262230" lon="120.108502">
				<speed>0.000000</speed>
				<ele>146.000000</ele>
				<time>2026-08-17T05:55:59Z</time>
			</trkpt>
			<trkpt lat="30.262231" lon="120.108524">
				<speed>0.000000</speed>
				<ele>146.000000</ele>
				<time>2026-08-17T05:56:00Z</time>
			</trkpt>
			<trkpt lat="30.262232" lon="120.108547">
				<speed>0.000000</speed>
				<ele>146.000000</ele>
				<time>2026-08-17T05:56:01Z</time>
			</trkpt>
			<trkpt lat="30.262234" lon="120.108569">
				<speed>0.000000</speed>
				<ele>146.000000</ele>
				<time>2026-08-17T05:56:02Z</time>
			</trkpt>
			<trkpt lat="30.262232" lon="120.108632">
				<speed>0.000000</speed>
				<ele>146.000000</ele>
				<time>2026-08-17T05:56:03Z</time>
			</trkpt>
			<trkpt lat="30.262229" lon="120.108649">
				<speed>0.000000</speed>
				<ele>146.000000</ele>
				<time>2026-08-17T05:56:04Z</time>
			</trkpt>
			<trkpt lat="30.262226" lon="120.108667">
				<speed>0.000000</speed>
				<ele>146.000000</ele>
				<time>2026-08-17T05:56:05Z</time>
			</trkpt>
			<trkpt lat="30.262223" lon="120.108685">
				<speed>0.000000</speed>
				<ele>145.000000</ele>
				<time>2026-08-17T05:56:06Z</time>
			</trkpt>
			<trkpt lat="30.262204" lon="120.108727">
				<speed>0.000000</speed>
				<ele>145.000000</ele>
				<time>2026-08-17T05:56:07Z</time>
			</trkpt>
			<trkpt lat="30.262196" lon="120.108738">
				<speed>0.000000</speed>
				<ele>145.000000</ele>
				<time>2026-08-17T05:56:08Z</time>
			</trkpt>
			<trkpt lat="30.262188" lon="120.108750">
				<speed>0.000000</speed>
				<ele>145.000000</ele>
				<time>2026-08-17T05:56:09Z</time>
			</trkpt>
			<trkpt lat="30.262181" lon="120.108761">
				<speed>0.000000</speed>
				<ele>145.000000</ele>
				<time>2026-08-17T05:56:10Z</time>
			</trkpt>
			<trkpt lat="30.262158" lon="120.108788">
				<speed>0.000000</speed>
				<ele>145.000000</ele>
				<time>2026-08-17T05:56:11Z</time>
			</trkpt>
			<trkpt lat="30.262150" lon="120.108796">
				<speed>0.000000</speed>
				<ele>145.000000</ele>
				<time>2026-08-17T05:56:12Z</time>
			</trkpt>
			<trkpt lat="30.262143" lon="120.108804">
				<speed>0.000000</speed>
				<ele>145.000000</ele>
				<time>2026-08-17T05:56:13Z</time>
			</trkpt>
			<trkpt lat="30.262135" lon="120.108812">
				<speed>0.000000</speed>
				<ele>144.000000</ele>
				<time>2026-08-17T05:56:14Z</time>
			</trkpt>
			<trkpt lat="30.262115" lon="120.108835">
				<speed>0.000000</speed>
				<ele>144.000000</ele>
				<time>2026-08-17T05:56:15Z</time>
			</trkpt>
			<trkpt lat="30.262109" lon="120.108842">
				<speed>0.000000</speed>
				<ele>144.000000</ele>
				<time>2026-08-17T05:56:16Z</time>
			</trkpt>
			<trkpt lat="30.262103" lon="120.108849">
				<speed>0.000000</speed>
				<ele>144.000000</ele>
				<time>2026-08-17T05:56:17Z</time>
			</trkpt>
			<trkpt lat="30.262097" lon="120.108856">
				<speed>0.000000</speed>
				<ele>143.000000</ele>
				<time>2026-08-17T05:56:18Z</time>
			</trkpt>
			<trkpt lat="30.262078" lon="120.108879">
				<speed>0.000000</speed>
				<ele>143.000000</ele>
				<time>2026-08-17T05:56:19Z</time>
			</trkpt>
			<trkpt lat="30.262070" lon="120.108888">
				<speed>0.000000</speed>
				<ele>143.000000</ele>
				<time>2026-08-17T05:56:20Z</time>
			</trkpt>
			<trkpt lat="30.262063" lon="120.108896">
				<speed>0.000000</speed>
				<ele>143.000000</ele>
				<time>2026-08-17T05:56:21Z</time>
			</trkpt>
			<trkpt lat="30.262055" lon="120.108905">
				<speed>0.000000</speed>
				<ele>142.000000</ele>
				<time>2026-08-17T05:56:22Z</time>
			</trkpt>
			<trkpt lat="30.262028" lon="120.108934">
				<speed>0.000000</speed>
				<ele>142.000000</ele>
				<time>2026-08-17T05:56:23Z</time>
			</trkpt>
			<trkpt lat="30.262018" lon="120.108943">
				<speed>0.000000</speed>
				<ele>142.000000</ele>
				<time>2026-08-17T05:56:24Z</time>
			</trkpt>
			<trkpt lat="30.262007" lon="120.108952">
				<speed>0.000000</speed>
				<ele>142.000000</ele>
				<time>2026-08-17T05:56:25Z</time>
			</trkpt>
			<trkpt lat="30.261997" lon="120.108961">
				<speed>0.000000</speed>
				<ele>141.000000</ele>
				<time>2026-08-17T05:56:26Z</time>
			</trkpt>
			<trkpt lat="30.261963" lon="120.108982">
				<speed>0.000000</speed>
				<ele>141.000000</ele>
				<time>2026-08-17T05:56:27Z</time>
			</trkpt>
			<trkpt lat="30.261952" lon="120.108989">
				<speed>0.000000</speed>
				<ele>141.000000</ele>
				<time>2026-08-17T05:56:28Z</time>
			</trkpt>
			<trkpt lat="30.261940" lon="120.108996">
				<speed>0.000000</speed>
				<ele>141.000000</ele>
				<time>2026-08-17T05:56:29Z</time>
			</trkpt>
			<trkpt lat="30.261929" lon="120.109003">
				<speed>0.000000</speed>
				<ele>140.000000</ele>
				<time>2026-08-17T05:56:30Z</time>
			</trkpt>
			<trkpt lat="30.261894" lon="120.109033">
				<speed>0.000000</speed>
				<ele>140.000000</ele>
				<time>2026-08-17T05:56:31Z</time>
			</trkpt>
			<trkpt lat="30.261881" lon="120.109045">
				<speed>0.000000</speed>
				<ele>139.000000</ele>
				<time>2026-08-17T05:56:32Z</time>
			</trkpt>
			<trkpt lat="30.261868" lon="120.109057">
				<speed>0.000000</speed>
				<ele>139.000000</ele>
				<time>2026-08-17T05:56:33Z</time>
			</trkpt>
			<trkpt lat="30.261855" lon="120.109069">
				<speed>0.000000</speed>
				<ele>138.000000</ele>
				<time>2026-08-17T05:56:34Z</time>
			</trkpt>
			<trkpt lat="30.261812" lon="120.109103">
				<speed>0.000000</speed>
				<ele>137.000000</ele>
				<time>2026-08-17T05:56:35Z</time>
			</trkpt>
			<trkpt lat="30.261798" lon="120.109112">
				<speed>0.000000</speed>
				<ele>136.000000</ele>
				<time>2026-08-17T05:56:36Z</time>
			</trkpt>
			<trkpt lat="30.261784" lon="120.109121">
				<speed>0.000000</speed>
				<ele>136.000000</ele>
				<time>2026-08-17T05:56:37Z</time>
			</trkpt>
			<trkpt lat="30.261770" lon="120.109130">
				<speed>0.000000</speed>
				<ele>135.000000</ele>
				<time>2026-08-17T05:56:38Z</time>
			</trkpt>
			<trkpt lat="30.261734" lon="120.109154">
				<speed>0.000000</speed>
				<ele>135.000000</ele>
				<time>2026-08-17T05:56:39Z</time>
			</trkpt>
			<trkpt lat="30.261723" lon="120.109161">
				<speed>0.000000</speed>
				<ele>135.000000</ele>
				<time>2026-08-17T05:56:40Z</time>
			</trkpt>
			<trkpt lat="30.261712" lon="120.109169">
				<speed>0.000000</speed>
				<ele>135.000000</ele>
				<time>2026-08-17T05:56:41Z</time>
			</trkpt>
			<trkpt lat="30.261702" lon="120.109176">
				<speed>0.000000</speed>
				<ele>134.000000</ele>
				<time>2026-08-17T05:56:42Z</time>
			</trkpt>
			<trkpt lat="30.261670" lon="120.109196">
				<speed>0.000000</speed>
				<ele>134.000000</ele>
				<time>2026-08-17T05:56:43Z</time>
			</trkpt>
			<trkpt lat="30.261659" lon="120.109203">
				<speed>0.000000</speed>
				<ele>133.000000</ele>
				<time>2026-08-17T05:56:44Z</time>
			</trkpt>
			<trkpt lat="30.261648" lon="120.109210">
				<speed>0.000000</speed>
				<ele>133.000000</ele>
				<time>2026-08-17T05:56:45Z</time>
			</trkpt>
			<trkpt lat="30.261637" lon="120.109217">
				<speed>0.000000</speed>
				<ele>132.000000</ele>
				<time>2026-08-17T05:56:46Z</time>
			</trkpt>
			<trkpt lat="30.261602" lon="120.109241">
				<speed>0.000000</speed>
				<ele>132.000000</ele>
				<time>2026-08-17T05:56:47Z</time>
			</trkpt>
			<trkpt lat="30.261591" lon="120.109251">
				<speed>0.000000</speed>
				<ele>131.000000</ele>
				<time>2026-08-17T05:56:48Z</time>
			</trkpt>
			<trkpt lat="30.261579" lon="120.109260">
				<speed>0.000000</speed>
				<ele>131.000000</ele>
				<time>2026-08-17T05:56:49Z</time>
			</trkpt>
			<trkpt lat="30.261568" lon="120.109269">
				<speed>0.000000</speed>
				<ele>130.000000</ele>
				<time>2026-08-17T05:56:50Z</time>
			</trkpt>
			<trkpt lat="30.261536" lon="120.109293">
				<speed>0.000000</speed>
				<ele>130.000000</ele>
				<time>2026-08-17T05:56:51Z</time>
			</trkpt>
			<trkpt lat="30.261526" lon="120.109300">
				<speed>0.000000</speed>
				<ele>129.000000</ele>
				<time>2026-08-17T05:56:52Z</time>
			</trkpt>
			<trkpt lat="30.261516" lon="120.109306">
				<speed>0.000000</speed>
				<ele>129.000000</ele>
				<time>2026-08-17T05:56:53Z</time>
			</trkpt>
			<trkpt lat="30.261506" lon="120.109312">
				<speed>0.000000</speed>
				<ele>128.000000</ele>
				<time>2026-08-17T05:56:54Z</time>
			</trkpt>
			<trkpt lat="30.261477" lon="120.109327">
				<speed>0.000000</speed>
				<ele>127.000000</ele>
				<time>2026-08-17T05:56:55Z</time>
			</trkpt>
			<trkpt lat="30.261469" lon="120.109330">
				<speed>0.000000</speed>
				<ele>126.000000</ele>
				<time>2026-08-17T05:56:56Z</time>
			</trkpt>
			<trkpt lat="30.261461" lon="120.109333">
				<speed>0.000000</speed>
				<ele>126.000000</ele>
				<time>2026-08-17T05:56:57Z</time>
			</trkpt>
			<trkpt lat="30.261452" lon="120.109336">
				<speed>0.000000</speed>
				<ele>125.000000</ele>
				<time>2026-08-17T05:56:58Z</time>
			</trkpt>
			<trkpt lat="30.261449" lon="120.109337">
				<speed>0.000000</speed>
				<ele>125.000000</ele>
				<time>2026-08-17T05:56:59Z</time>
			</trkpt>
			<trkpt lat="30.261445" lon="120.109339">
				<speed>0.000000</speed>
				<ele>124.000000</ele>
				<time>2026-08-17T05:57:00Z</time>
			</trkpt>
			<trkpt lat="30.261442" lon="120.109340">
				<speed>0.000000</speed>
				<ele>124.000000</ele>
				<time>2026-08-17T05:57:01Z</time>
			</trkpt>
			<trkpt lat="30.261438" lon="120.109341">
				<speed>0.000000</speed>
				<ele>123.000000</ele>
				<time>2026-08-17T05:57:02Z</time>
			</trkpt>
			<trkpt lat="30.261434" lon="120.109342">
				<speed>0.000000</speed>
				<ele>122.000000</ele>
				<time>2026-08-17T05:57:03Z</time>
			</trkpt>
			<trkpt lat="30.261426" lon="120.109349">
				<speed>0.000000</speed>
				<ele>121.000000</ele>
				<time>2026-08-17T05:57:04Z</time>
			</trkpt>
			<trkpt lat="30.261423" lon="120.109352">
				<speed>0.000000</speed>
				<ele>121.000000</ele>
				<time>2026-08-17T05:57:05Z</time>
			</trkpt>
			<trkpt lat="30.261421" lon="120.109355">
				<speed>0.000000</speed>
				<ele>120.000000</ele>
				<time>2026-08-17T05:57:06Z</time>
			</trkpt>
			<trkpt lat="30.261419" lon="120.109358">
				<speed>0.000000</speed>
				<ele>120.000000</ele>
				<time>2026-08-17T05:57:07Z</time>
			</trkpt>
			<trkpt lat="30.261408" lon="120.109369">
				<speed>0.000000</speed>
				<ele>119.000000</ele>
				<time>2026-08-17T05:57:08Z</time>
			</trkpt>
			<trkpt lat="30.261404" lon="120.109374">
				<speed>0.000000</speed>
				<ele>119.000000</ele>
				<time>2026-08-17T05:57:09Z</time>
			</trkpt>
			<trkpt lat="30.261401" lon="120.109378">
				<speed>0.000000</speed>
				<ele>118.000000</ele>
				<time>2026-08-17T05:57:10Z</time>
			</trkpt>
			<trkpt lat="30.261397" lon="120.109383">
				<speed>0.000000</speed>
				<ele>118.000000</ele>
				<time>2026-08-17T05:57:11Z</time>
			</trkpt>
			<trkpt lat="30.261385" lon="120.109397">
				<speed>0.000000</speed>
				<ele>117.000000</ele>
				<time>2026-08-17T05:57:12Z</time>
			</trkpt>
			<trkpt lat="30.261380" lon="120.109402">
				<speed>0.000000</speed>
				<ele>117.000000</ele>
				<time>2026-08-17T05:57:13Z</time>
			</trkpt>
			<trkpt lat="30.261376" lon="120.109408">
				<speed>0.000000</speed>
				<ele>116.000000</ele>
				<time>2026-08-17T05:57:14Z</time>
			</trkpt>
			<trkpt lat="30.261373" lon="120.109413">
				<speed>0.000000</speed>
				<ele>116.000000</ele>
				<time>2026-08-17T05:57:15Z</time>
			</trkpt>
			<trkpt lat="30.261361" lon="120.109434">
				<speed>0.000000</speed>
				<ele>116.000000</ele>
				<time>2026-08-17T05:57:16Z</time>
			</trkpt>
			<trkpt lat="30.261356" lon="120.109441">
				<speed>0.000000</speed>
				<ele>116.000000</ele>
				<time>2026-08-17T05:57:17Z</time>
			</trkpt>
			<trkpt lat="30.261351" lon="120.109448">
				<speed>0.000000</speed>
				<ele>116.000000</ele>
				<time>2026-08-17T05:57:18Z</time>
			</trkpt>
			<trkpt lat="30.261347" lon="120.109455">
				<speed>0.000000</speed>
				<ele>116.000000</ele>
				<time>2026-08-17T05:57:19Z</time>
			</trkpt>
			<trkpt lat="30.261333" lon="120.109477">
				<speed>0.000000</speed>
				<ele>116.000000</ele>
				<time>2026-08-17T05:57:20Z</time>
			</trkpt>
			<trkpt lat="30.261329" lon="120.109483">
				<speed>0.000000</speed>
				<ele>116.000000</ele>
				<time>2026-08-17T05:57:21Z</time>
			</trkpt>
			<trkpt lat="30.261324" lon="120.109490">
				<speed>0.000000</speed>
				<ele>115.000000</ele>
				<time>2026-08-17T05:57:22Z</time>
			</trkpt>
			<trkpt lat="30.261320" lon="120.109497">
				<speed>0.000000</speed>
				<ele>115.000000</ele>
				<time>2026-08-17T05:57:23Z</time>
			</trkpt>
			<trkpt lat="30.261316" lon="120.109514">
				<speed>0.000000</speed>
				<ele>115.000000</ele>
				<time>2026-08-17T05:57:24Z</time>
			</trkpt>
			<trkpt lat="30.261318" lon="120.109519">
				<speed>0.000000</speed>
				<ele>115.000000</ele>
				<time>2026-08-17T05:57:25Z</time>
			</trkpt>
			<trkpt lat="30.261320" lon="120.109523">
				<speed>0.000000</speed>
				<ele>114.000000</ele>
				<time>2026-08-17T05:57:26Z</time>
			</trkpt>
			<trkpt lat="30.261322" lon="120.109527">
				<speed>0.000000</speed>
				<ele>114.000000</ele>
				<time>2026-08-17T05:57:27Z</time>
			</trkpt>
			<trkpt lat="30.261334" lon="120.109537">
				<speed>0.000000</speed>
				<ele>114.000000</ele>
				<time>2026-08-17T05:57:28Z</time>
			</trkpt>
			<trkpt lat="30.261340" lon="120.109540">
				<speed>0.000000</speed>
				<ele>114.000000</ele>
				<time>2026-08-17T05:57:29Z</time>
			</trkpt>
			<trkpt lat="30.261345" lon="120.109543">
				<speed>0.000000</speed>
				<ele>113.000000</ele>
				<time>2026-08-17T05:57:30Z</time>
			</trkpt>
			<trkpt lat="30.261351" lon="120.109546">
				<speed>0.000000</speed>
				<ele>113.000000</ele>
				<time>2026-08-17T05:57:31Z</time>
			</trkpt>
			<trkpt lat="30.261371" lon="120.109557">
				<speed>0.000000</speed>
				<ele>113.000000</ele>
				<time>2026-08-17T05:57:32Z</time>
			</trkpt>
			<trkpt lat="30.261380" lon="120.109560">
				<speed>0.000000</speed>
				<ele>113.000000</ele>
				<time>2026-08-17T05:57:33Z</time>
			</trkpt>
			<trkpt lat="30.261389" lon="120.109565">
				<speed>0.000000</speed>
				<ele>112.000000</ele>
				<time>2026-08-17T05:57:34Z</time>
			</trkpt>
			<trkpt lat="30.261398" lon="120.109568">
				<speed>0.000000</speed>
				<ele>112.000000</ele>
				<time>2026-08-17T05:57:35Z</time>
			</trkpt>
			<trkpt lat="30.261434" lon="120.109582">
				<speed>0.000000</speed>
				<ele>112.000000</ele>
				<time>2026-08-17T05:57:36Z</time>
			</trkpt>
			<trkpt lat="30.261448" lon="120.109587">
				<speed>0.000000</speed>
				<ele>112.000000</ele>
				<time>2026-08-17T05:57:37Z</time>
			</trkpt>
			<trkpt lat="30.261463" lon="120.109592">
				<speed>0.000000</speed>
				<ele>112.000000</ele>
				<time>2026-08-17T05:57:38Z</time>
			</trkpt>
			<trkpt lat="30.261477" lon="120.109597">
				<speed>0.000000</speed>
				<ele>112.000000</ele>
				<time>2026-08-17T05:57:39Z</time>
			</trkpt>
			<trkpt lat="30.261526" lon="120.109611">
				<speed>0.000000</speed>
				<ele>112.000000</ele>
				<time>2026-08-17T05:57:40Z</time>
			</trkpt>
			<trkpt lat="30.261543" lon="120.109616">
				<speed>0.000000</speed>
				<ele>112.000000</ele>
				<time>2026-08-17T05:57:41Z</time>
			</trkpt>
			<trkpt lat="30.261559" lon="120.109621">
				<speed>0.000000</speed>
				<ele>111.000000</ele>
				<time>2026-08-17T05:57:42Z</time>
			</trkpt>
			<trkpt lat="30.261576" lon="120.109625">
				<speed>0.000000</speed>
				<ele>111.000000</ele>
				<time>2026-08-17T05:57:43Z</time>
			</trkpt>
			<trkpt lat="30.261626" lon="120.109638">
				<speed>0.000000</speed>
				<ele>111.000000</ele>
				<time>2026-08-17T05:57:44Z</time>
			</trkpt>
			<trkpt lat="30.261641" lon="120.109644">
				<speed>0.000000</speed>
				<ele>111.000000</ele>
				<time>2026-08-17T05:57:45Z</time>
			</trkpt>
			<trkpt lat="30.261656" lon="120.109649">
				<speed>0.000000</speed>
				<ele>111.000000</ele>
				<time>2026-08-17T05:57:46Z</time>
			</trkpt>
			<trkpt lat="30.261671" lon="120.109655">
				<speed>0.000000</speed>
				<ele>111.000000</ele>
				<time>2026-08-17T05:57:47Z</time>
			</trkpt>
			<trkpt lat="30.261707" lon="120.109675">
				<speed>0.000000</speed>
				<ele>111.000000</ele>
				<time>2026-08-17T05:57:48Z</time>
			</trkpt>
			<trkpt lat="30.261716" lon="120.109683">
				<speed>0.000000</speed>
				<ele>111.000000</ele>
				<time>2026-08-17T05:57:49Z</time>
			</trkpt>
			<trkpt lat="30.261725" lon="120.109691">
				<speed>0.000000</speed>
				<ele>110.000000</ele>
				<time>2026-08-17T05:57:50Z</time>
			</trkpt>
			<trkpt lat="30.261734" lon="120.109699">
				<speed>0.000000</speed>
				<ele>110.000000</ele>
				<time>2026-08-17T05:57:51Z</time>
			</trkpt>
			<trkpt lat="30.261758" lon="120.109724">
				<speed>0.000000</speed>
				<ele>110.000000</ele>
				<time>2026-08-17T05:57:52Z</time>
			</trkpt>
			<trkpt lat="30.261765" lon="120.109734">
				<speed>0.000000</speed>
				<ele>110.000000</ele>
				<time>2026-08-17T05:57:53Z</time>
			</trkpt>
			<trkpt lat="30.261773" lon="120.109743">
				<speed>0.000000</speed>
				<ele>109.000000</ele>
				<time>2026-08-17T05:57:54Z</time>
			</trkpt>
			<trkpt lat="30.261781" lon="120.109753">
				<speed>0.000000</speed>
				<ele>109.000000</ele>
				<time>2026-08-17T05:57:55Z</time>
			</trkpt>
			<trkpt lat="30.261802" lon="120.109785">
				<speed>0.000000</speed>
				<ele>109.000000</ele>
				<time>2026-08-17T05:57:56Z</time>
			</trkpt>
			<trkpt lat="30.261809" lon="120.109796">
				<speed>0.000000</speed>
				<ele>109.000000</ele>
				<time>2026-08-17T05:57:57Z</time>
			</trkpt>
			<trkpt lat="30.261817" lon="120.109806">
				<speed>0.000000</speed>
				<ele>108.000000</ele>
				<time>2026-08-17T05:57:58Z</time>
			</trkpt>
			<trkpt lat="30.261824" lon="120.109817">
				<speed>0.000000</speed>
				<ele>108.000000</ele>
				<time>2026-08-17T05:57:59Z</time>
			</trkpt>
			<trkpt lat="30.261846" lon="120.109842">
				<speed>0.000000</speed>
				<ele>108.000000</ele>
				<time>2026-08-17T05:58:00Z</time>
			</trkpt>
			<trkpt lat="30.261852" lon="120.109849">
				<speed>0.000000</speed>
				<ele>108.000000</ele>
				<time>2026-08-17T05:58:01Z</time>
			</trkpt>
			<trkpt lat="30.261859" lon="120.109856">
				<speed>0.000000</speed>
				<ele>107.000000</ele>
				<time>2026-08-17T05:58:02Z</time>
			</trkpt>
			<trkpt lat="30.261865" lon="120.109863">
				<speed>0.000000</speed>
				<ele>107.000000</ele>
				<time>2026-08-17T05:58:03Z</time>
			</trkpt>
			<trkpt lat="30.261882" lon="120.109878">
				<speed>0.000000</speed>
				<ele>107.000000</ele>
				<time>2026-08-17T05:58:04Z</time>
			</trkpt>
			<trkpt lat="30.261888" lon="120.109882">
				<speed>0.000000</speed>
				<ele>107.000000</ele>
				<time>2026-08-17T05:58:05Z</time>
			</trkpt>
			<trkpt lat="30.261894" lon="120.109886">
				<speed>0.000000</speed>
				<ele>106.000000</ele>
				<time>2026-08-17T05:58:06Z</time>
			</trkpt>
			<trkpt lat="30.261900" lon="120.109890">
				<speed>0.000000</speed>
				<ele>106.000000</ele>
				<time>2026-08-17T05:58:07Z</time>
			</trkpt>
			<trkpt lat="30.261920" lon="120.109902">
				<speed>0.000000</speed>
				<ele>106.000000</ele>
				<time>2026-08-17T05:58:08Z</time>
			</trkpt>
			<trkpt lat="30.261927" lon="120.109907">
				<speed>0.000000</speed>
				<ele>106.000000</ele>
				<time>2026-08-17T05:58:09Z</time>
			</trkpt>
			<trkpt lat="30.261935" lon="120.109911">
				<speed>0.000000</speed>
				<ele>105.000000</ele>
				<time>2026-08-17T05:58:10Z</time>
			</trkpt>
			<trkpt lat="30.261942" lon="120.109915">
				<speed>0.000000</speed>
				<ele>105.000000</ele>
				<time>2026-08-17T05:58:11Z</time>
			</trkpt>
			<trkpt lat="30.261964" lon="120.109930">
				<speed>0.000000</speed>
				<ele>105.000000</ele>
				<time>2026-08-17T05:58:12Z</time>
			</trkpt>
			<trkpt lat="30.261970" lon="120.109935">
				<speed>0.000000</speed>
				<ele>105.000000</ele>
				<time>2026-08-17T05:58:13Z</time>
			</trkpt>
			<trkpt lat="30.261977" lon="120.109941">
				<speed>0.000000</speed>
				<ele>104.000000</ele>
				<time>2026-08-17T05:58:14Z</time>
			</trkpt>
			<trkpt lat="30.261983" lon="120.109946">
				<speed>0.000000</speed>
				<ele>104.000000</ele>
				<time>2026-08-17T05:58:15Z</time>
			</trkpt>
			<trkpt lat="30.261998" lon="120.109964">
				<speed>0.000000</speed>
				<ele>104.000000</ele>
				<time>2026-08-17T05:58:16Z</time>
			</trkpt>
			<trkpt lat="30.262002" lon="120.109970">
				<speed>0.000000</speed>
				<ele>104.000000</ele>
				<time>2026-08-17T05:58:17Z</time>
			</trkpt>
			<trkpt lat="30.262007" lon="120.109975">
				<speed>0.000000</speed>
				<ele>104.000000</ele>
				<time>2026-08-17T05:58:18Z</time>
			</trkpt>
			<trkpt lat="30.262012" lon="120.109981">
				<speed>0.000000</speed>
				<ele>104.000000</ele>
				<time>2026-08-17T05:58:19Z</time>
			</trkpt>
			<trkpt lat="30.262026" lon="120.109998">
				<speed>0.000000</speed>
				<ele>104.000000</ele>
				<time>2026-08-17T05:58:20Z</time>
			</trkpt>
			<trkpt lat="30.262031" lon="120.110004">
				<speed>0.000000</speed>
				<ele>104.000000</ele>
				<time>2026-08-17T05:58:21Z</time>
			</trkpt>
			<trkpt lat="30.262036" lon="120.110010">
				<speed>0.000000</speed>
				<ele>104.000000</ele>
				<time>2026-08-17T05:58:22Z</time>
			</trkpt>
			<trkpt lat="30.262042" lon="120.110016">
				<speed>0.000000</speed>
				<ele>104.000000</ele>
				<time>2026-08-17T05:58:23Z</time>
			</trkpt>
			<trkpt lat="30.262063" lon="120.110032">
				<speed>0.000000</speed>
				<ele>104.000000</ele>
				<time>2026-08-17T05:58:24Z</time>
			</trkpt>
			<trkpt lat="30.262072" lon="120.110036">
				<speed>0.000000</speed>
				<ele>104.000000</ele>
				<time>2026-08-17T05:58:25Z</time>
			</trkpt>
			<trkpt lat="30.262081" lon="120.110041">
				<speed>0.000000</speed>
				<ele>104.000000</ele>
				<time>2026-08-17T05:58:26Z</time>
			</trkpt>
			<trkpt lat="30.262091" lon="120.110045">
				<speed>0.000000</speed>
				<ele>104.000000</ele>
				<time>2026-08-17T05:58:27Z</time>
			</trkpt>
			<trkpt lat="30.262124" lon="120.110056">
				<speed>0.000000</speed>
				<ele>104.000000</ele>
				<time>2026-08-17T05:58:28Z</time>
			</trkpt>
			<trkpt lat="30.262136" lon="120.110060">
				<speed>0.000000</speed>
				<ele>104.000000</ele>
				<time>2026-08-17T05:58:29Z</time>
			</trkpt>
			<trkpt lat="30.262148" lon="120.110065">
				<speed>0.000000</speed>
				<ele>103.000000</ele>
				<time>2026-08-17T05:58:30Z</time>
			</trkpt>
			<trkpt lat="30.262159" lon="120.110069">
				<speed>0.000000</speed>
				<ele>103.000000</ele>
				<time>2026-08-17T05:58:31Z</time>
			</trkpt>
			<trkpt lat="30.262188" lon="120.110085">
				<speed>0.000000</speed>
				<ele>103.000000</ele>
				<time>2026-08-17T05:58:32Z</time>
			</trkpt>
			<trkpt lat="30.262195" lon="120.110090">
				<speed>0.000000</speed>
				<ele>103.000000</ele>
				<time>2026-08-17T05:58:33Z</time>
			</trkpt>
			<trkpt lat="30.262203" lon="120.110096">
				<speed>0.000000</speed>
				<ele>103.000000</ele>
				<time>2026-08-17T05:58:34Z</time>
			</trkpt>
			<trkpt lat="30.262210" lon="120.110101">
				<speed>0.000000</speed>
				<ele>103.000000</ele>
				<time>2026-08-17T05:58:35Z</time>
			</trkpt>
			<trkpt lat="30.262232" lon="120.110118">
				<speed>0.000000</speed>
				<ele>103.000000</ele>
				<time>2026-08-17T05:58:36Z</time>
			</trkpt>
			<trkpt lat="30.262239" lon="120.110123">
				<speed>0.000000</speed>
				<ele>103.000000</ele>
				<time>2026-08-17T05:58:37Z</time>
			</trkpt>
			<trkpt lat="30.262246" lon="120.110129">
				<speed>0.000000</speed>
				<ele>102.000000</ele>
				<time>2026-08-17T05:58:38Z</time>
			</trkpt>
			<trkpt lat="30.262253" lon="120.110135">
				<speed>0.000000</speed>
				<ele>102.000000</ele>
				<time>2026-08-17T05:58:39Z</time>
			</trkpt>
			<trkpt lat="30.262274" lon="120.110150">
				<speed>0.000000</speed>
				<ele>102.000000</ele>
				<time>2026-08-17T05:58:40Z</time>
			</trkpt>
			<trkpt lat="30.262282" lon="120.110155">
				<speed>0.000000</speed>
				<ele>102.000000</ele>
				<time>2026-08-17T05:58:41Z</time>
			</trkpt>
			<trkpt lat="30.262290" lon="120.110159">
				<speed>0.000000</speed>
				<ele>102.000000</ele>
				<time>2026-08-17T05:58:42Z</time>
			</trkpt>
			<trkpt lat="30.262299" lon="120.110164">
				<speed>0.000000</speed>
				<ele>102.000000</ele>
				<time>2026-08-17T05:58:43Z</time>
			</trkpt>
			<trkpt lat="30.262326" lon="120.110182">
				<speed>0.000000</speed>
				<ele>102.000000</ele>
				<time>2026-08-17T05:58:44Z</time>
			</trkpt>
			<trkpt lat="30.262336" lon="120.110190">
				<speed>0.000000</speed>
				<ele>102.000000</ele>
				<time>2026-08-17T05:58:45Z</time>
			</trkpt>
			<trkpt lat="30.262346" lon="120.110198">
				<speed>0.000000</speed>
				<ele>101.000000</ele>
				<time>2026-08-17T05:58:46Z</time>
			</trkpt>
			<trkpt lat="30.262355" lon="120.110207">
				<speed>0.000000</speed>
				<ele>101.000000</ele>
				<time>2026-08-17T05:58:47Z</time>
			</trkpt>
			<trkpt lat="30.262388" lon="120.110234">
				<speed>0.000000</speed>
				<ele>101.000000</ele>
				<time>2026-08-17T05:58:48Z</time>
			</trkpt>
			<trkpt lat="30.262400" lon="120.110243">
				<speed>0.000000</speed>
				<ele>101.000000</ele>
				<time>2026-08-17T05:58:49Z</time>
			</trkpt>
			<trkpt lat="30.262412" lon="120.110252">
				<speed>0.000000</speed>
				<ele>100.000000</ele>
				<time>2026-08-17T05:58:50Z</time>
			</trkpt>
			<trkpt lat="30.262425" lon="120.110261">
				<speed>0.000000</speed>
				<ele>100.000000</ele>
				<time>2026-08-17T05:58:51Z</time>
			</trkpt>
			<trkpt lat="30.262462" lon="120.110291">
				<speed>0.000000</speed>
				<ele>100.000000</ele>
				<time>2026-08-17T05:58:52Z</time>
			</trkpt>
			<trkpt lat="30.262474" lon="120.110301">
				<speed>0.000000</speed>
				<ele>100.000000</ele>
				<time>2026-08-17T05:58:53Z</time>
			</trkpt>
			<trkpt lat="30.262486" lon="120.110312">
				<speed>0.000000</speed>
				<ele>100.000000</ele>
				<time>2026-08-17T05:58:54Z</time>
			</trkpt>
			<trkpt lat="30.262498" lon="120.110322">
				<speed>0.000000</speed>
				<ele>100.000000</ele>
				<time>2026-08-17T05:58:55Z</time>
			</trkpt>
			<trkpt lat="30.262535" lon="120.110352">
				<speed>0.000000</speed>
				<ele>100.000000</ele>
				<time>2026-08-17T05:58:56Z</time>
			</trkpt>
			<trkpt lat="30.262547" lon="120.110361">
				<speed>0.000000</speed>
				<ele>100.000000</ele>
				<time>2026-08-17T05:58:57Z</time>
			</trkpt>
			<trkpt lat="30.262558" lon="120.110370">
				<speed>0.000000</speed>
				<ele>99.000000</ele>
				<time>2026-08-17T05:58:58Z</time>
			</trkpt>
			<trkpt lat="30.262570" lon="120.110379">
				<speed>0.000000</speed>
				<ele>99.000000</ele>
				<time>2026-08-17T05:58:59Z</time>
			</trkpt>
			<trkpt lat="30.262604" lon="120.110406">
				<speed>0.000000</speed>
				<ele>99.000000</ele>
				<time>2026-08-17T05:59:00Z</time>
			</trkpt>
			<trkpt lat="30.262615" lon="120.110416">
				<speed>0.000000</speed>
				<ele>99.000000</ele>
				<time>2026-08-17T05:59:01Z</time>
			</trkpt>
			<trkpt lat="30.262626" lon="120.110425">
				<speed>0.000000</speed>
				<ele>98.000000</ele>
				<time>2026-08-17T05:59:02Z</time>
			</trkpt>
			<trkpt lat="30.262637" lon="120.110435">
				<speed>0.000000</speed>
				<ele>98.000000</ele>
				<time>2026-08-17T05:59:03Z</time>
			</trkpt>
			<trkpt lat="30.262667" lon="120.110465">
				<speed>0.000000</speed>
				<ele>97.000000</ele>
				<time>2026-08-17T05:59:04Z</time>
			</trkpt>
			<trkpt lat="30.262676" lon="120.110474">
				<speed>0.000000</speed>
				<ele>97.000000</ele>
				<time>2026-08-17T05:59:05Z</time>
			</trkpt>
			<trkpt lat="30.262685" lon="120.110483">
				<speed>0.000000</speed>
				<ele>96.000000</ele>
				<time>2026-08-17T05:59:06Z</time>
			</trkpt>
			<trkpt lat="30.262695" lon="120.110492">
				<speed>0.000000</speed>
				<ele>96.000000</ele>
				<time>2026-08-17T05:59:07Z</time>
			</trkpt>
			<trkpt lat="30.262723" lon="120.110516">
				<speed>0.000000</speed>
				<ele>96.000000</ele>
				<time>2026-08-17T05:59:08Z</time>
			</trkpt>
			<trkpt lat="30.262732" lon="120.110526">
				<speed>0.000000</speed>
				<ele>96.000000</ele>
				<time>2026-08-17T05:59:09Z</time>
			</trkpt>
			<trkpt lat="30.262742" lon="120.110536">
				<speed>0.000000</speed>
				<ele>96.000000</ele>
				<time>2026-08-17T05:59:10Z</time>
			</trkpt>
			<trkpt lat="30.262751" lon="120.110547">
				<speed>0.000000</speed>
				<ele>96.000000</ele>
				<time>2026-08-17T05:59:11Z</time>
			</trkpt>
			<trkpt lat="30.262779" lon="120.110587">
				<speed>0.000000</speed>
				<ele>96.000000</ele>
				<time>2026-08-17T05:59:12Z</time>
			</trkpt>
			<trkpt lat="30.262789" lon="120.110601">
				<speed>0.000000</speed>
				<ele>96.000000</ele>
				<time>2026-08-17T05:59:13Z</time>
			</trkpt>
			<trkpt lat="30.262798" lon="120.110615">
				<speed>0.000000</speed>
				<ele>95.000000</ele>
				<time>2026-08-17T05:59:14Z</time>
			</trkpt>
			<trkpt lat="30.262808" lon="120.110629">
				<speed>0.000000</speed>
				<ele>95.000000</ele>
				<time>2026-08-17T05:59:15Z</time>
			</trkpt>
			<trkpt lat="30.262834" lon="120.110668">
				<speed>0.000000</speed>
				<ele>95.000000</ele>
				<time>2026-08-17T05:59:16Z</time>
			</trkpt>
			<trkpt lat="30.262842" lon="120.110679">
				<speed>0.000000</speed>
				<ele>95.000000</ele>
				<time>2026-08-17T05:59:17Z</time>
			</trkpt>
			<trkpt lat="30.262851" lon="120.110691">
				<speed>0.000000</speed>
				<ele>94.000000</ele>
				<time>2026-08-17T05:59:18Z</time>
			</trkpt>
			<trkpt lat="30.262859" lon="120.110703">
				<speed>0.000000</speed>
				<ele>94.000000</ele>
				<time>2026-08-17T05:59:19Z</time>
			</trkpt>
			<trkpt lat="30.262886" lon="120.110739">
				<speed>0.000000</speed>
				<ele>94.000000</ele>
				<time>2026-08-17T05:59:20Z</time>
			</trkpt>
			<trkpt lat="30.262895" lon="120.110753">
				<speed>0.000000</speed>
				<ele>94.000000</ele>
				<time>2026-08-17T05:59:21Z</time>
			</trkpt>
			<trkpt lat="30.262903" lon="120.110767">
				<speed>0.000000</speed>
				<ele>93.000000</ele>
				<time>2026-08-17T05:59:22Z</time>
			</trkpt>
			<trkpt lat="30.262913" lon="120.110781">
				<speed>0.000000</speed>
				<ele>93.000000</ele>
				<time>2026-08-17T05:59:23Z</time>
			</trkpt>
			<trkpt lat="30.262938" lon="120.110831">
				<speed>0.000000</speed>
				<ele>93.000000</ele>
				<time>2026-08-17T05:59:24Z</time>
			</trkpt>
			<trkpt lat="30.262943" lon="120.110849">
				<speed>0.000000</speed>
				<ele>93.000000</ele>
				<time>2026-08-17T05:59:25Z</time>
			</trkpt>
			<trkpt lat="30.262949" lon="120.110867">
				<speed>0.000000</speed>
				<ele>92.000000</ele>
				<time>2026-08-17T05:59:26Z</time>
			</trkpt>
			<trkpt lat="30.262955" lon="120.110885">
				<speed>0.000000</speed>
				<ele>92.000000</ele>
				<time>2026-08-17T05:59:27Z</time>
			</trkpt>
			<trkpt lat="30.262966" lon="120.110939">
				<speed>0.000000</speed>
				<ele>91.000000</ele>
				<time>2026-08-17T05:59:28Z</time>
			</trkpt>
			<trkpt lat="30.262967" lon="120.110956">
				<speed>0.000000</speed>
				<ele>91.000000</ele>
				<time>2026-08-17T05:59:29Z</time>
			</trkpt>
			<trkpt lat="30.262967" lon="120.110973">
				<speed>0.000000</speed>
				<ele>90.000000</ele>
				<time>2026-08-17T05:59:30Z</time>
			</trkpt>
			<trkpt lat="30.262968" lon="120.110990">
				<speed>0.000000</speed>
				<ele>90.000000</ele>
				<time>2026-08-17T05:59:31Z</time>
			</trkpt>
			<trkpt lat="30.262967" lon="120.111040">
				<speed>0.000000</speed>
				<ele>90.000000</ele>
				<time>2026-08-17T05:59:32Z</time>
			</trkpt>
			<trkpt lat="30.262968" lon="120.111058">
				<speed>0.000000</speed>
				<ele>90.000000</ele>
				<time>2026-08-17T05:59:33Z</time>
			</trkpt>
			<trkpt lat="30.262968" lon="120.111077">
				<speed>0.000000</speed>
				<ele>89.000000</ele>
				<time>2026-08-17T05:59:34Z</time>
			</trkpt>
			<trkpt lat="30.262969" lon="120.111095">
				<speed>0.000000</speed>
				<ele>89.000000</ele>
				<time>2026-08-17T05:59:35Z</time>
			</trkpt>
			<trkpt lat="30.262972" lon="120.111150">
				<speed>0.000000</speed>
				<ele>89.000000</ele>
				<time>2026-08-17T05:59:36Z</time>
			</trkpt>
			<trkpt lat="30.262975" lon="120.111166">
				<speed>0.000000</speed>
				<ele>89.000000</ele>
				<time>2026-08-17T05:59:37Z</time>
			</trkpt>
			<trkpt lat="30.262977" lon="120.111182">
				<speed>0.000000</speed>
				<ele>88.000000</ele>
				<time>2026-08-17T05:59:38Z</time>
			</trkpt>
			<trkpt lat="30.262980" lon="120.111199">
				<speed>0.000000</speed>
				<ele>88.000000</ele>
				<time>2026-08-17T05:59:39Z</time>
			</trkpt>
			<trkpt lat="30.262987" lon="120.111244">
				<speed>0.000000</speed>
				<ele>88.000000</ele>
				<time>2026-08-17T05:59:40Z</time>
			</trkpt>
			<trkpt lat="30.262987" lon="120.111258">
				<speed>0.000000</speed>
				<ele>88.000000</ele>
				<time>2026-08-17T05:59:41Z</time>
			</trkpt>
			<trkpt lat="30.262987" lon="120.111271">
				<speed>0.000000</speed>
				<ele>87.000000</ele>
				<time>2026-08-17T05:59:42Z</time>
			</trkpt>
			<trkpt lat="30.262987" lon="120.111285">
				<speed>0.000000</speed>
				<ele>87.000000</ele>
				<time>2026-08-17T05:59:43Z</time>
			</trkpt>
			<trkpt lat="30.262975" lon="120.111319">
				<speed>0.000000</speed>
				<ele>87.000000</ele>
				<time>2026-08-17T05:59:44Z</time>
			</trkpt>
			<trkpt lat="30.262968" lon="120.111329">
				<speed>0.000000</speed>
				<ele>87.000000</ele>
				<time>2026-08-17T05:59:45Z</time>
			</trkpt>
			<trkpt lat="30.262960" lon="120.111339">
				<speed>0.000000</speed>
				<ele>87.000000</ele>
				<time>2026-08-17T05:59:46Z</time>
			</trkpt>
			<trkpt lat="30.262953" lon="120.111349">
				<speed>0.000000</speed>
				<ele>87.000000</ele>
				<time>2026-08-17T05:59:47Z</time>
			</trkpt>
			<trkpt lat="30.262924" lon="120.111376">
				<speed>0.000000</speed>
				<ele>87.000000</ele>
				<time>2026-08-17T05:59:48Z</time>
			</trkpt>
			<trkpt lat="30.262913" lon="120.111385">
				<speed>0.000000</speed>
				<ele>87.000000</ele>
				<time>2026-08-17T05:59:49Z</time>
			</trkpt>
			<trkpt lat="30.262903" lon="120.111394">
				<speed>0.000000</speed>
				<ele>86.000000</ele>
				<time>2026-08-17T05:59:50Z</time>
			</trkpt>
			<trkpt lat="30.262892" lon="120.111403">
				<speed>0.000000</speed>
				<ele>86.000000</ele>
				<time>2026-08-17T05:59:51Z</time>
			</trkpt>
			<trkpt lat="30.262863" lon="120.111432">
				<speed>0.000000</speed>
				<ele>86.000000</ele>
				<time>2026-08-17T05:59:52Z</time>
			</trkpt>
			<trkpt lat="30.262854" lon="120.111442">
				<speed>0.000000</speed>
				<ele>86.000000</ele>
				<time>2026-08-17T05:59:53Z</time>
			</trkpt>
			<trkpt lat="30.262845" lon="120.111452">
				<speed>0.000000</speed>
				<ele>86.000000</ele>
				<time>2026-08-17T05:59:54Z</time>
			</trkpt>
			<trkpt lat="30.262836" lon="120.111462">
				<speed>0.000000</speed>
				<ele>86.000000</ele>
				<time>2026-08-17T05:59:55Z</time>
			</trkpt>
			<trkpt lat="30.262813" lon="120.111492">
				<speed>0.000000</speed>
				<ele>86.000000</ele>
				<time>2026-08-17T05:59:56Z</time>
			</trkpt>
			<trkpt lat="30.262805" lon="120.111501">
				<speed>0.000000</speed>
				<ele>86.000000</ele>
				<time>2026-08-17T05:59:57Z</time>
			</trkpt>
			<trkpt lat="30.262798" lon="120.111511">
				<speed>0.000000</speed>
				<ele>85.000000</ele>
				<time>2026-08-17T05:59:58Z</time>
			</trkpt>
			<trkpt lat="30.262791" lon="120.111521">
				<speed>0.000000</speed>
				<ele>85.000000</ele>
				<time>2026-08-17T05:59:59Z</time>
			</trkpt>
			<trkpt lat="30.262768" lon="120.111551">
				<speed>0.000000</speed>
				<ele>85.000000</ele>
				<time>2026-08-17T06:00:00Z</time>
			</trkpt>
			<trkpt lat="30.262760" lon="120.111561">
				<speed>0.000000</speed>
				<ele>85.000000</ele>
				<time>2026-08-17T06:00:01Z</time>
			</trkpt>
			<trkpt lat="30.262753" lon="120.111571">
				<speed>0.000000</speed>
				<ele>84.000000</ele>
				<time>2026-08-17T06:00:02Z</time>
			</trkpt>
			<trkpt lat="30.262745" lon="120.111582">
				<speed>0.000000</speed>
				<ele>84.000000</ele>
				<time>2026-08-17T06:00:03Z</time>
			</trkpt>
			<trkpt lat="30.262724" lon="120.111616">
				<speed>0.000000</speed>
				<ele>84.000000</ele>
				<time>2026-08-17T06:00:04Z</time>
			</trkpt>
			<trkpt lat="30.262717" lon="120.111628">
				<speed>0.000000</speed>
				<ele>84.000000</ele>
				<time>2026-08-17T06:00:05Z</time>
			</trkpt>
			<trkpt lat="30.262710" lon="120.111640">
				<speed>0.000000</speed>
				<ele>83.000000</ele>
				<time>2026-08-17T06:00:06Z</time>
			</trkpt>
			<trkpt lat="30.262703" lon="120.111652">
				<speed>0.000000</speed>
				<ele>83.000000</ele>
				<time>2026-08-17T06:00:07Z</time>
			</trkpt>
			<trkpt lat="30.262682" lon="120.111692">
				<speed>0.000000</speed>
				<ele>83.000000</ele>
				<time>2026-08-17T06:00:08Z</time>
			</trkpt>
			<trkpt lat="30.262675" lon="120.111705">
				<speed>0.000000</speed>
				<ele>83.000000</ele>
				<time>2026-08-17T06:00:09Z</time>
			</trkpt>
			<trkpt lat="30.262667" lon="120.111719">
				<speed>0.000000</speed>
				<ele>82.000000</ele>
				<time>2026-08-17T06:00:10Z</time>
			</trkpt>
			<trkpt lat="30.262659" lon="120.111732">
				<speed>0.000000</speed>
				<ele>82.000000</ele>
				<time>2026-08-17T06:00:11Z</time>
			</trkpt>
			<trkpt lat="30.262635" lon="120.111770">
				<speed>0.000000</speed>
				<ele>81.000000</ele>
				<time>2026-08-17T06:00:12Z</time>
			</trkpt>
			<trkpt lat="30.262627" lon="120.111782">
				<speed>0.000000</speed>
				<ele>81.000000</ele>
				<time>2026-08-17T06:00:13Z</time>
			</trkpt>
			<trkpt lat="30.262619" lon="120.111793">
				<speed>0.000000</speed>
				<ele>80.000000</ele>
				<time>2026-08-17T06:00:14Z</time>
			</trkpt>
			<trkpt lat="30.262610" lon="120.111805">
				<speed>0.000000</speed>
				<ele>80.000000</ele>
				<time>2026-08-17T06:00:15Z</time>
			</trkpt>
			<trkpt lat="30.262583" lon="120.111840">
				<speed>0.000000</speed>
				<ele>80.000000</ele>
				<time>2026-08-17T06:00:16Z</time>
			</trkpt>
			<trkpt lat="30.262573" lon="120.111853">
				<speed>0.000000</speed>
				<ele>80.000000</ele>
				<time>2026-08-17T06:00:17Z</time>
			</trkpt>
			<trkpt lat="30.262563" lon="120.111866">
				<speed>0.000000</speed>
				<ele>79.000000</ele>
				<time>2026-08-17T06:00:18Z</time>
			</trkpt>
			<trkpt lat="30.262553" lon="120.111879">
				<speed>0.000000</speed>
				<ele>79.000000</ele>
				<time>2026-08-17T06:00:19Z</time>
			</trkpt>
			<trkpt lat="30.262525" lon="120.111917">
				<speed>0.000000</speed>
				<ele>78.000000</ele>
				<time>2026-08-17T06:00:20Z</time>
			</trkpt>
			<trkpt lat="30.262517" lon="120.111929">
				<speed>0.000000</speed>
				<ele>78.000000</ele>
				<time>2026-08-17T06:00:21Z</time>
			</trkpt>
			<trkpt lat="30.262510" lon="120.111940">
				<speed>0.000000</speed>
				<ele>77.000000</ele>
				<time>2026-08-17T06:00:22Z</time>
			</trkpt>
			<trkpt lat="30.262502" lon="120.111952">
				<speed>0.000000</speed>
				<ele>77.000000</ele>
				<time>2026-08-17T06:00:23Z</time>
			</trkpt>
			<trkpt lat="30.262482" lon="120.111990">
				<speed>0.000000</speed>
				<ele>77.000000</ele>
				<time>2026-08-17T06:00:24Z</time>
			</trkpt>
			<trkpt lat="30.262477" lon="120.112004">
				<speed>0.000000</speed>
				<ele>77.000000</ele>
				<time>2026-08-17T06:00:25Z</time>
			</trkpt>
			<trkpt lat="30.262472" lon="120.112019">
				<speed>0.000000</speed>
				<ele>76.000000</ele>
				<time>2026-08-17T06:00:26Z</time>
			</trkpt>
			<trkpt lat="30.262467" lon="120.112034">
				<speed>0.000000</speed>
				<ele>76.000000</ele>
				<time>2026-08-17T06:00:27Z</time>
			</trkpt>
			<trkpt lat="30.262461" lon="120.112084">
				<speed>0.000000</speed>
				<ele>75.000000</ele>
				<time>2026-08-17T06:00:28Z</time>
			</trkpt>
			<trkpt lat="30.262462" lon="120.112100">
				<speed>0.000000</speed>
				<ele>75.000000</ele>
				<time>2026-08-17T06:00:29Z</time>
			</trkpt>
			<trkpt lat="30.262463" lon="120.112117">
				<speed>0.000000</speed>
				<ele>74.000000</ele>
				<time>2026-08-17T06:00:30Z</time>
			</trkpt>
			<trkpt lat="30.262464" lon="120.112134">
				<speed>0.000000</speed>
				<ele>74.000000</ele>
				<time>2026-08-17T06:00:31Z</time>
			</trkpt>
			<trkpt lat="30.262470" lon="120.112183">
				<speed>0.000000</speed>
				<ele>73.000000</ele>
				<time>2026-08-17T06:00:32Z</time>
			</trkpt>
			<trkpt lat="30.262471" lon="120.112199">
				<speed>0.000000</speed>
				<ele>73.000000</ele>
				<time>2026-08-17T06:00:33Z</time>
			</trkpt>
			<trkpt lat="30.262471" lon="120.112215">
				<speed>0.000000</speed>
				<ele>72.000000</ele>
				<time>2026-08-17T06:00:34Z</time>
			</trkpt>
			<trkpt lat="30.262472" lon="120.112230">
				<speed>0.000000</speed>
				<ele>72.000000</ele>
				<time>2026-08-17T06:00:35Z</time>
			</trkpt>
			<trkpt lat="30.262469" lon="120.112277">
				<speed>0.000000</speed>
				<ele>72.000000</ele>
				<time>2026-08-17T06:00:36Z</time>
			</trkpt>
			<trkpt lat="30.262466" lon="120.112292">
				<speed>0.000000</speed>
				<ele>72.000000</ele>
				<time>2026-08-17T06:00:37Z</time>
			</trkpt>
			<trkpt lat="30.262463" lon="120.112308">
				<speed>0.000000</speed>
				<ele>71.000000</ele>
				<time>2026-08-17T06:00:38Z</time>
			</trkpt>
			<trkpt lat="30.262460" lon="120.112324">
				<speed>0.000000</speed>
				<ele>71.000000</ele>
				<time>2026-08-17T06:00:39Z</time>
			</trkpt>
			<trkpt lat="30.262446" lon="120.112371">
				<speed>0.000000</speed>
				<ele>71.000000</ele>
				<time>2026-08-17T06:00:40Z</time>
			</trkpt>
			<trkpt lat="30.262441" lon="120.112388">
				<speed>0.000000</speed>
				<ele>71.000000</ele>
				<time>2026-08-17T06:00:41Z</time>
			</trkpt>
			<trkpt lat="30.262436" lon="120.112404">
				<speed>0.000000</speed>
				<ele>70.000000</ele>
				<time>2026-08-17T06:00:42Z</time>
			</trkpt>
			<trkpt lat="30.262431" lon="120.112420">
				<speed>0.000000</speed>
				<ele>70.000000</ele>
				<time>2026-08-17T06:00:43Z</time>
			</trkpt>
			<trkpt lat="30.262416" lon="120.112469">
				<speed>0.000000</speed>
				<ele>70.000000</ele>
				<time>2026-08-17T06:00:44Z</time>
			</trkpt>
			<trkpt lat="30.262411" lon="120.112486">
				<speed>0.000000</speed>
				<ele>70.000000</ele>
				<time>2026-08-17T06:00:45Z</time>
			</trkpt>
			<trkpt lat="30.262407" lon="120.112503">
				<speed>0.000000</speed>
				<ele>69.000000</ele>
				<time>2026-08-17T06:00:46Z</time>
			</trkpt>
			<trkpt lat="30.262402" lon="120.112520">
				<speed>0.000000</speed>
				<ele>69.000000</ele>
				<time>2026-08-17T06:00:47Z</time>
			</trkpt>
			<trkpt lat="30.262388" lon="120.112570">
				<speed>0.000000</speed>
				<ele>68.000000</ele>
				<time>2026-08-17T06:00:48Z</time>
			</trkpt>
			<trkpt lat="30.262383" lon="120.112586">
				<speed>0.000000</speed>
				<ele>68.000000</ele>
				<time>2026-08-17T06:00:49Z</time>
			</trkpt>
			<trkpt lat="30.262379" lon="120.112602">
				<speed>0.000000</speed>
				<ele>67.000000</ele>
				<time>2026-08-17T06:00:50Z</time>
			</trkpt>
			<trkpt lat="30.262374" lon="120.112618">
				<speed>0.000000</speed>
				<ele>67.000000</ele>
				<time>2026-08-17T06:00:51Z</time>
			</trkpt>
			<trkpt lat="30.262359" lon="120.112669">
				<speed>0.000000</speed>
				<ele>67.000000</ele>
				<time>2026-08-17T06:00:52Z</time>
			</trkpt>
			<trkpt lat="30.262354" lon="120.112686">
				<speed>0.000000</speed>
				<ele>67.000000</ele>
				<time>2026-08-17T06:00:53Z</time>
			</trkpt>
			<trkpt lat="30.262349" lon="120.112703">
				<speed>0.000000</speed>
				<ele>66.000000</ele>
				<time>2026-08-17T06:00:54Z</time>
			</trkpt>
			<trkpt lat="30.262344" lon="120.112721">
				<speed>0.000000</speed>
				<ele>66.000000</ele>
				<time>2026-08-17T06:00:55Z</time>
			</trkpt>
			<trkpt lat="30.262331" lon="120.112772">
				<speed>0.000000</speed>
				<ele>66.000000</ele>
				<time>2026-08-17T06:00:56Z</time>
			</trkpt>
			<trkpt lat="30.262327" lon="120.112788">
				<speed>0.000000</speed>
				<ele>66.000000</ele>
				<time>2026-08-17T06:00:57Z</time>
			</trkpt>
			<trkpt lat="30.262323" lon="120.112805">
				<speed>0.000000</speed>
				<ele>65.000000</ele>
				<time>2026-08-17T06:00:58Z</time>
			</trkpt>
			<trkpt lat="30.262318" lon="120.112821">
				<speed>0.000000</speed>
				<ele>65.000000</ele>
				<time>2026-08-17T06:00:59Z</time>
			</trkpt>
			<trkpt lat="30.262304" lon="120.112870">
				<speed>0.000000</speed>
				<ele>65.000000</ele>
				<time>2026-08-17T06:01:00Z</time>
			</trkpt>
			<trkpt lat="30.262298" lon="120.112885">
				<speed>0.000000</speed>
				<ele>65.000000</ele>
				<time>2026-08-17T06:01:01Z</time>
			</trkpt>
			<trkpt lat="30.262293" lon="120.112901">
				<speed>0.000000</speed>
				<ele>64.000000</ele>
				<time>2026-08-17T06:01:02Z</time>
			</trkpt>
			<trkpt lat="30.262287" lon="120.112916">
				<speed>0.000000</speed>
				<ele>64.000000</ele>
				<time>2026-08-17T06:01:03Z</time>
			</trkpt>
			<trkpt lat="30.262267" lon="120.112959">
				<speed>0.000000</speed>
				<ele>64.000000</ele>
				<time>2026-08-17T06:01:04Z</time>
			</trkpt>
			<trkpt lat="30.262258" lon="120.112972">
				<speed>0.000000</speed>
				<ele>64.000000</ele>
				<time>2026-08-17T06:01:05Z</time>
			</trkpt>
			<trkpt lat="30.262250" lon="120.112985">
				<speed>0.000000</speed>
				<ele>64.000000</ele>
				<time>2026-08-17T06:01:06Z</time>
			</trkpt>
			<trkpt lat="30.262241" lon="120.112999">
				<speed>0.000000</speed>
				<ele>64.000000</ele>
				<time>2026-08-17T06:01:07Z</time>
			</trkpt>
			<trkpt lat="30.262210" lon="120.113034">
				<speed>0.000000</speed>
				<ele>64.000000</ele>
				<time>2026-08-17T06:01:08Z</time>
			</trkpt>
			<trkpt lat="30.262198" lon="120.113045">
				<speed>0.000000</speed>
				<ele>64.000000</ele>
				<time>2026-08-17T06:01:09Z</time>
			</trkpt>
			<trkpt lat="30.262187" lon="120.113056">
				<speed>0.000000</speed>
				<ele>63.000000</ele>
				<time>2026-08-17T06:01:10Z</time>
			</trkpt>
			<trkpt lat="30.262175" lon="120.113068">
				<speed>0.000000</speed>
				<ele>63.000000</ele>
				<time>2026-08-17T06:01:11Z</time>
			</trkpt>
			<trkpt lat="30.262142" lon="120.113102">
				<speed>0.000000</speed>
				<ele>63.000000</ele>
				<time>2026-08-17T06:01:12Z</time>
			</trkpt>
			<trkpt lat="30.262132" lon="120.113115">
				<speed>0.000000</speed>
				<ele>63.000000</ele>
				<time>2026-08-17T06:01:13Z</time>
			</trkpt>
			<trkpt lat="30.262122" lon="120.113128">
				<speed>0.000000</speed>
				<ele>63.000000</ele>
				<time>2026-08-17T06:01:14Z</time>
			</trkpt>
			<trkpt lat="30.262111" lon="120.113141">
				<speed>0.000000</speed>
				<ele>63.000000</ele>
				<time>2026-08-17T06:01:15Z</time>
			</trkpt>
			<trkpt lat="30.262086" lon="120.113184">
				<speed>0.000000</speed>
				<ele>63.000000</ele>
				<time>2026-08-17T06:01:16Z</time>
			</trkpt>
			<trkpt lat="30.262079" lon="120.113200">
				<speed>0.000000</speed>
				<ele>63.000000</ele>
				<time>2026-08-17T06:01:17Z</time>
			</trkpt>
			<trkpt lat="30.262073" lon="120.113216">
				<speed>0.000000</speed>
				<ele>62.000000</ele>
				<time>2026-08-17T06:01:18Z</time>
			</trkpt>
			<trkpt lat="30.262067" lon="120.113232">
				<speed>0.000000</speed>
				<ele>62.000000</ele>
				<time>2026-08-17T06:01:19Z</time>
			</trkpt>
			<trkpt lat="30.262056" lon="120.113283">
				<speed>0.000000</speed>
				<ele>62.000000</ele>
				<time>2026-08-17T06:01:20Z</time>
			</trkpt>
			<trkpt lat="30.262056" lon="120.113301">
				<speed>0.000000</speed>
				<ele>62.000000</ele>
				<time>2026-08-17T06:01:21Z</time>
			</trkpt>
			<trkpt lat="30.262055" lon="120.113318">
				<speed>0.000000</speed>
				<ele>62.000000</ele>
				<time>2026-08-17T06:01:22Z</time>
			</trkpt>
			<trkpt lat="30.262055" lon="120.113336">
				<speed>0.000000</speed>
				<ele>62.000000</ele>
				<time>2026-08-17T06:01:23Z</time>
			</trkpt>
			<trkpt lat="30.262067" lon="120.113385">
				<speed>0.000000</speed>
				<ele>62.000000</ele>
				<time>2026-08-17T06:01:24Z</time>
			</trkpt>
			<trkpt lat="30.262074" lon="120.113402">
				<speed>0.000000</speed>
				<ele>62.000000</ele>
				<time>2026-08-17T06:01:25Z</time>
			</trkpt>
			<trkpt lat="30.262082" lon="120.113418">
				<speed>0.000000</speed>
				<ele>61.000000</ele>
				<time>2026-08-17T06:01:26Z</time>
			</trkpt>
			<trkpt lat="30.262089" lon="120.113435">
				<speed>0.000000</speed>
				<ele>61.000000</ele>
				<time>2026-08-17T06:01:27Z</time>
			</trkpt>
			<trkpt lat="30.262111" lon="120.113488">
				<speed>0.000000</speed>
				<ele>61.000000</ele>
				<time>2026-08-17T06:01:28Z</time>
			</trkpt>
			<trkpt lat="30.262116" lon="120.113507">
				<speed>0.000000</speed>
				<ele>61.000000</ele>
				<time>2026-08-17T06:01:29Z</time>
			</trkpt>
			<trkpt lat="30.262121" lon="120.113526">
				<speed>0.000000</speed>
				<ele>61.000000</ele>
				<time>2026-08-17T06:01:30Z</time>
			</trkpt>
			<trkpt lat="30.262126" lon="120.113545">
				<speed>0.000000</speed>
				<ele>61.000000</ele>
				<time>2026-08-17T06:01:31Z</time>
			</trkpt>
			<trkpt lat="30.262133" lon="120.113605">
				<speed>0.000000</speed>
				<ele>61.000000</ele>
				<time>2026-08-17T06:01:32Z</time>
			</trkpt>
			<trkpt lat="30.262134" lon="120.113625">
				<speed>0.000000</speed>
				<ele>61.000000</ele>
				<time>2026-08-17T06:01:33Z</time>
			</trkpt>
			<trkpt lat="30.262135" lon="120.113645">
				<speed>0.000000</speed>
				<ele>60.000000</ele>
				<time>2026-08-17T06:01:34Z</time>
			</trkpt>
			<trkpt lat="30.262137" lon="120.113665">
				<speed>0.000000</speed>
				<ele>60.000000</ele>
				<time>2026-08-17T06:01:35Z</time>
			</trkpt>
			<trkpt lat="30.262139" lon="120.113728">
				<speed>0.000000</speed>
				<ele>60.000000</ele>
				<time>2026-08-17T06:01:36Z</time>
			</trkpt>
			<trkpt lat="30.262140" lon="120.113749">
				<speed>0.000000</speed>
				<ele>60.000000</ele>
				<time>2026-08-17T06:01:37Z</time>
			</trkpt>
			<trkpt lat="30.262141" lon="120.113770">
				<speed>0.000000</speed>
				<ele>60.000000</ele>
				<time>2026-08-17T06:01:38Z</time>
			</trkpt>
			<trkpt lat="30.262141" lon="120.113792">
				<speed>0.000000</speed>
				<ele>60.000000</ele>
				<time>2026-08-17T06:01:39Z</time>
			</trkpt>
			<trkpt lat="30.262146" lon="120.113855">
				<speed>0.000000</speed>
				<ele>60.000000</ele>
				<time>2026-08-17T06:01:40Z</time>
			</trkpt>
			<trkpt lat="30.262145" lon="120.113876">
				<speed>0.000000</speed>
				<ele>60.000000</ele>
				<time>2026-08-17T06:01:41Z</time>
			</trkpt>
			<trkpt lat="30.262144" lon="120.113897">
				<speed>0.000000</speed>
				<ele>60.000000</ele>
				<time>2026-08-17T06:01:42Z</time>
			</trkpt>
			<trkpt lat="30.262144" lon="120.113918">
				<speed>0.000000</speed>
				<ele>60.000000</ele>
				<time>2026-08-17T06:01:43Z</time>
			</trkpt>
			<trkpt lat="30.262127" lon="120.113965">
				<speed>0.000000</speed>
				<ele>60.000000</ele>
				<time>2026-08-17T06:01:44Z</time>
			</trkpt>
			<trkpt lat="30.262118" lon="120.113972">
				<speed>0.000000</speed>
				<ele>60.000000</ele>
				<time>2026-08-17T06:01:45Z</time>
			</trkpt>
			<trkpt lat="30.262109" lon="120.113979">
				<speed>0.000000</speed>
				<ele>59.000000</ele>
				<time>2026-08-17T06:01:46Z</time>
			</trkpt>
			<trkpt lat="30.262100" lon="120.113987">
				<speed>0.000000</speed>
				<ele>59.000000</ele>
				<time>2026-08-17T06:01:47Z</time>
			</trkpt>
			<trkpt lat="30.262074" lon="120.113987">
				<speed>0.000000</speed>
				<ele>59.000000</ele>
				<time>2026-08-17T06:01:48Z</time>
			</trkpt>
			<trkpt lat="30.262069" lon="120.113984">
				<speed>0.000000</speed>
				<ele>59.000000</ele>
				<time>2026-08-17T06:01:49Z</time>
			</trkpt>
			<trkpt lat="30.262064" lon="120.113980">
				<speed>0.000000</speed>
				<ele>59.000000</ele>
				<time>2026-08-17T06:01:50Z</time>
			</trkpt>
			<trkpt lat="30.262058" lon="120.113977">
				<speed>0.000000</speed>
				<ele>59.000000</ele>
				<time>2026-08-17T06:01:51Z</time>
			</trkpt>
			<trkpt lat="30.262041" lon="120.113979">
				<speed>0.000000</speed>
				<ele>59.000000</ele>
				<time>2026-08-17T06:01:52Z</time>
			</trkpt>
			<trkpt lat="30.262031" lon="120.113983">
				<speed>0.000000</speed>
				<ele>59.000000</ele>
				<time>2026-08-17T06:01:53Z</time>
			</trkpt>
			<trkpt lat="30.262021" lon="120.113987">
				<speed>0.000000</speed>
				<ele>59.000000</ele>
				<time>2026-08-17T06:01:54Z</time>
			</trkpt>
			<trkpt lat="30.262010" lon="120.113991">
				<speed>0.000000</speed>
				<ele>59.000000</ele>
				<time>2026-08-17T06:01:55Z</time>
			</trkpt>
			<trkpt lat="30.261969" lon="120.114005">
				<speed>0.000000</speed>
				<ele>59.000000</ele>
				<time>2026-08-17T06:01:56Z</time>
			</trkpt>
			<trkpt lat="30.261953" lon="120.114007">
				<speed>0.000000</speed>
				<ele>59.000000</ele>
				<time>2026-08-17T06:01:57Z</time>
			</trkpt>
			<trkpt lat="30.261938" lon="120.114010">
				<speed>0.000000</speed>
				<ele>59.000000</ele>
				<time>2026-08-17T06:01:58Z</time>
			</trkpt>
			<trkpt lat="30.261923" lon="120.114013">
				<speed>0.000000</speed>
				<ele>59.000000</ele>
				<time>2026-08-17T06:01:59Z</time>
			</trkpt>
			<trkpt lat="30.261876" lon="120.114018">
				<speed>0.000000</speed>
				<ele>59.000000</ele>
				<time>2026-08-17T06:02:00Z</time>
			</trkpt>
			<trkpt lat="30.261862" lon="120.114024">
				<speed>0.000000</speed>
				<ele>59.000000</ele>
				<time>2026-08-17T06:02:01Z</time>
			</trkpt>
			<trkpt lat="30.261847" lon="120.114029">
				<speed>0.000000</speed>
				<ele>59.000000</ele>
				<time>2026-08-17T06:02:02Z</time>
			</trkpt>
			<trkpt lat="30.261833" lon="120.114035">
				<speed>0.000000</speed>
				<ele>59.000000</ele>
				<time>2026-08-17T06:02:03Z</time>
			</trkpt>
			<trkpt lat="30.261797" lon="120.114069">
				<speed>0.000000</speed>
				<ele>59.000000</ele>
				<time>2026-08-17T06:02:04Z</time>
			</trkpt>
			<trkpt lat="30.261788" lon="120.114085">
				<speed>0.000000</speed>
				<ele>59.000000</ele>
				<time>2026-08-17T06:02:05Z</time>
			</trkpt>
			<trkpt lat="30.261780" lon="120.114101">
				<speed>0.000000</speed>
				<ele>59.000000</ele>
				<time>2026-08-17T06:02:06Z</time>
			</trkpt>
			<trkpt lat="30.261771" lon="120.114117">
				<speed>0.000000</speed>
				<ele>59.000000</ele>
				<time>2026-08-17T06:02:07Z</time>
			</trkpt>
			<trkpt lat="30.261750" lon="120.114172">
				<speed>0.000000</speed>
				<ele>59.000000</ele>
				<time>2026-08-17T06:02:08Z</time>
			</trkpt>
			<trkpt lat="30.261745" lon="120.114192">
				<speed>0.000000</speed>
				<ele>59.000000</ele>
				<time>2026-08-17T06:02:09Z</time>
			</trkpt>
			<trkpt lat="30.261739" lon="120.114212">
				<speed>0.000000</speed>
				<ele>59.000000</ele>
				<time>2026-08-17T06:02:10Z</time>
			</trkpt>
			<trkpt lat="30.261734" lon="120.114232">
				<speed>0.000000</speed>
				<ele>59.000000</ele>
				<time>2026-08-17T06:02:11Z</time>
			</trkpt>
			<trkpt lat="30.261717" lon="120.114289">
				<speed>0.000000</speed>
				<ele>59.000000</ele>
				<time>2026-08-17T06:02:12Z</time>
			</trkpt>
			<trkpt lat="30.261713" lon="120.114307">
				<speed>0.000000</speed>
				<ele>59.000000</ele>
				<time>2026-08-17T06:02:13Z</time>
			</trkpt>
			<trkpt lat="30.261708" lon="120.114325">
				<speed>0.000000</speed>
				<ele>59.000000</ele>
				<time>2026-08-17T06:02:14Z</time>
			</trkpt>
			<trkpt lat="30.261703" lon="120.114342">
				<speed>0.000000</speed>
				<ele>59.000000</ele>
				<time>2026-08-17T06:02:15Z</time>
			</trkpt>
			<trkpt lat="30.261694" lon="120.114395">
				<speed>0.000000</speed>
				<ele>59.000000</ele>
				<time>2026-08-17T06:02:16Z</time>
			</trkpt>
			<trkpt lat="30.261691" lon="120.114413">
				<speed>0.000000</speed>
				<ele>59.000000</ele>
				<time>2026-08-17T06:02:17Z</time>
			</trkpt>
			<trkpt lat="30.261688" lon="120.114431">
				<speed>0.000000</speed>
				<ele>58.000000</ele>
				<time>2026-08-17T06:02:18Z</time>
			</trkpt>
			<trkpt lat="30.261686" lon="120.114448">
				<speed>0.000000</speed>
				<ele>58.000000</ele>
				<time>2026-08-17T06:02:19Z</time>
			</trkpt>
			<trkpt lat="30.261674" lon="120.114501">
				<speed>0.000000</speed>
				<ele>58.000000</ele>
				<time>2026-08-17T06:02:20Z</time>
			</trkpt>
			<trkpt lat="30.261668" lon="120.114518">
				<speed>0.000000</speed>
				<ele>58.000000</ele>
				<time>2026-08-17T06:02:21Z</time>
			</trkpt>
			<trkpt lat="30.261662" lon="120.114535">
				<speed>0.000000</speed>
				<ele>58.000000</ele>
				<time>2026-08-17T06:02:22Z</time>
			</trkpt>
			<trkpt lat="30.261655" lon="120.114552">
				<speed>0.000000</speed>
				<ele>58.000000</ele>
				<time>2026-08-17T06:02:23Z</time>
			</trkpt>
			<trkpt lat="30.261631" lon="120.114600">
				<speed>0.000000</speed>
				<ele>58.000000</ele>
				<time>2026-08-17T06:02:24Z</time>
			</trkpt>
			<trkpt lat="30.261622" lon="120.114616">
				<speed>0.000000</speed>
				<ele>58.000000</ele>
				<time>2026-08-17T06:02:25Z</time>
			</trkpt>
			<trkpt lat="30.261613" lon="120.114631">
				<speed>0.000000</speed>
				<ele>57.000000</ele>
				<time>2026-08-17T06:02:26Z</time>
			</trkpt>
			<trkpt lat="30.261604" lon="120.114647">
				<speed>0.000000</speed>
				<ele>57.000000</ele>
				<time>2026-08-17T06:02:27Z</time>
			</trkpt>
			<trkpt lat="30.261579" lon="120.114695">
				<speed>0.000000</speed>
				<ele>57.000000</ele>
				<time>2026-08-17T06:02:28Z</time>
			</trkpt>
			<trkpt lat="30.261573" lon="120.114712">
				<speed>0.000000</speed>
				<ele>57.000000</ele>
				<time>2026-08-17T06:02:29Z</time>
			</trkpt>
			<trkpt lat="30.261566" lon="120.114730">
				<speed>0.000000</speed>
				<ele>56.000000</ele>
				<time>2026-08-17T06:02:30Z</time>
			</trkpt>
			<trkpt lat="30.261560" lon="120.114747">
				<speed>0.000000</speed>
				<ele>56.000000</ele>
				<time>2026-08-17T06:02:31Z</time>
			</trkpt>
			<trkpt lat="30.261545" lon="120.114802">
				<speed>0.000000</speed>
				<ele>56.000000</ele>
				<time>2026-08-17T06:02:32Z</time>
			</trkpt>
			<trkpt lat="30.261542" lon="120.114820">
				<speed>0.000000</speed>
				<ele>56.000000</ele>
				<time>2026-08-17T06:02:33Z</time>
			</trkpt>
			<trkpt lat="30.261538" lon="120.114839">
				<speed>0.000000</speed>
				<ele>55.000000</ele>
				<time>2026-08-17T06:02:34Z</time>
			</trkpt>
			<trkpt lat="30.261534" lon="120.114857">
				<speed>0.000000</speed>
				<ele>55.000000</ele>
				<time>2026-08-17T06:02:35Z</time>
			</trkpt>
			<trkpt lat="30.261524" lon="120.114911">
				<speed>0.000000</speed>
				<ele>55.000000</ele>
				<time>2026-08-17T06:02:36Z</time>
			</trkpt>
			<trkpt lat="30.261522" lon="120.114928">
				<speed>0.000000</speed>
				<ele>55.000000</ele>
				<time>2026-08-17T06:02:37Z</time>
			</trkpt>
			<trkpt lat="30.261520" lon="120.114944">
				<speed>0.000000</speed>
				<ele>54.000000</ele>
				<time>2026-08-17T06:02:38Z</time>
			</trkpt>
			<trkpt lat="30.261518" lon="120.114961">
				<speed>0.000000</speed>
				<ele>54.000000</ele>
				<time>2026-08-17T06:02:39Z</time>
			</trkpt>
			<trkpt lat="30.261511" lon="120.115008">
				<speed>0.000000</speed>
				<ele>54.000000</ele>
				<time>2026-08-17T06:02:40Z</time>
			</trkpt>
			<trkpt lat="30.261506" lon="120.115022">
				<speed>0.000000</speed>
				<ele>54.000000</ele>
				<time>2026-08-17T06:02:41Z</time>
			</trkpt>
			<trkpt lat="30.261501" lon="120.115037">
				<speed>0.000000</speed>
				<ele>53.000000</ele>
				<time>2026-08-17T06:02:42Z</time>
			</trkpt>
			<trkpt lat="30.261496" lon="120.115051">
				<speed>0.000000</speed>
				<ele>53.000000</ele>
				<time>2026-08-17T06:02:43Z</time>
			</trkpt>
			<trkpt lat="30.261473" lon="120.115091">
				<speed>0.000000</speed>
				<ele>53.000000</ele>
				<time>2026-08-17T06:02:44Z</time>
			</trkpt>
			<trkpt lat="30.261464" lon="120.115105">
				<speed>0.000000</speed>
				<ele>53.000000</ele>
				<time>2026-08-17T06:02:45Z</time>
			</trkpt>
			<trkpt lat="30.261455" lon="120.115119">
				<speed>0.000000</speed>
				<ele>52.000000</ele>
				<time>2026-08-17T06:02:46Z</time>
			</trkpt>
			<trkpt lat="30.261446" lon="120.115132">
				<speed>0.000000</speed>
				<ele>52.000000</ele>
				<time>2026-08-17T06:02:47Z</time>
			</trkpt>
			<trkpt lat="30.261422" lon="120.115180">
				<speed>0.000000</speed>
				<ele>52.000000</ele>
				<time>2026-08-17T06:02:48Z</time>
			</trkpt>
			<trkpt lat="30.261416" lon="120.115198">
				<speed>0.000000</speed>
				<ele>52.000000</ele>
				<time>2026-08-17T06:02:49Z</time>
			</trkpt>
			<trkpt lat="30.261410" lon="120.115217">
				<speed>0.000000</speed>
				<ele>52.000000</ele>
				<time>2026-08-17T06:02:50Z</time>
			</trkpt>
			<trkpt lat="30.261404" lon="120.115235">
				<speed>0.000000</speed>
				<ele>52.000000</ele>
				<time>2026-08-17T06:02:51Z</time>
			</trkpt>
			<trkpt lat="30.261388" lon="120.115293">
				<speed>0.000000</speed>
				<ele>52.000000</ele>
				<time>2026-08-17T06:02:52Z</time>
			</trkpt>
			<trkpt lat="30.261383" lon="120.115313">
				<speed>0.000000</speed>
				<ele>52.000000</ele>
				<time>2026-08-17T06:02:53Z</time>
			</trkpt>
			<trkpt lat="30.261378" lon="120.115332">
				<speed>0.000000</speed>
				<ele>52.000000</ele>
				<time>2026-08-17T06:02:54Z</time>
			</trkpt>
			<trkpt lat="30.261373" lon="120.115352">
				<speed>0.000000</speed>
				<ele>52.000000</ele>
				<time>2026-08-17T06:02:55Z</time>
			</trkpt>
			<trkpt lat="30.261354" lon="120.115408">
				<speed>0.000000</speed>
				<ele>52.000000</ele>
				<time>2026-08-17T06:02:56Z</time>
			</trkpt>
			<trkpt lat="30.261348" lon="120.115426">
				<speed>0.000000</speed>
				<ele>52.000000</ele>
				<time>2026-08-17T06:02:57Z</time>
			</trkpt>
			<trkpt lat="30.261342" lon="120.115444">
				<speed>0.000000</speed>
				<ele>51.000000</ele>
				<time>2026-08-17T06:02:58Z</time>
			</trkpt>
			<trkpt lat="30.261336" lon="120.115461">
				<speed>0.000000</speed>
				<ele>51.000000</ele>
				<time>2026-08-17T06:02:59Z</time>
			</trkpt>
			<trkpt lat="30.261320" lon="120.115513">
				<speed>0.000000</speed>
				<ele>51.000000</ele>
				<time>2026-08-17T06:03:00Z</time>
			</trkpt>
			<trkpt lat="30.261315" lon="120.115530">
				<speed>0.000000</speed>
				<ele>51.000000</ele>
				<time>2026-08-17T06:03:01Z</time>
			</trkpt>
			<trkpt lat="30.261311" lon="120.115546">
				<speed>0.000000</speed>
				<ele>51.000000</ele>
				<time>2026-08-17T06:03:02Z</time>
			</trkpt>
			<trkpt lat="30.261306" lon="120.115563">
				<speed>0.000000</speed>
				<ele>51.000000</ele>
				<time>2026-08-17T06:03:03Z</time>
			</trkpt>
			<trkpt lat="30.261294" lon="120.115614">
				<speed>0.000000</speed>
				<ele>51.000000</ele>
				<time>2026-08-17T06:03:04Z</time>
			</trkpt>
			<trkpt lat="30.261292" lon="120.115630">
				<speed>0.000000</speed>
				<ele>51.000000</ele>
				<time>2026-08-17T06:03:05Z</time>
			</trkpt>
			<trkpt lat="30.261289" lon="120.115647">
				<speed>0.000000</speed>
				<ele>50.000000</ele>
				<time>2026-08-17T06:03:06Z</time>
			</trkpt>
			<trkpt lat="30.261286" lon="120.115664">
				<speed>0.000000</speed>
				<ele>50.000000</ele>
				<time>2026-08-17T06:03:07Z</time>
			</trkpt>
			<trkpt lat="30.261280" lon="120.115715">
				<speed>0.000000</speed>
				<ele>50.000000</ele>
				<time>2026-08-17T06:03:08Z</time>
			</trkpt>
			<trkpt lat="30.261278" lon="120.115733">
				<speed>0.000000</speed>
				<ele>50.000000</ele>
				<time>2026-08-17T06:03:09Z</time>
			</trkpt>
			<trkpt lat="30.261277" lon="120.115751">
				<speed>0.000000</speed>
				<ele>49.000000</ele>
				<time>2026-08-17T06:03:10Z</time>
			</trkpt>
			<trkpt lat="30.261276" lon="120.115769">
				<speed>0.000000</speed>
				<ele>49.000000</ele>
				<time>2026-08-17T06:03:11Z</time>
			</trkpt>
			<trkpt lat="30.261271" lon="120.115823">
				<speed>0.000000</speed>
				<ele>49.000000</ele>
				<time>2026-08-17T06:03:12Z</time>
			</trkpt>
			<trkpt lat="30.261268" lon="120.115841">
				<speed>0.000000</speed>
				<ele>49.000000</ele>
				<time>2026-08-17T06:03:13Z</time>
			</trkpt>
			<trkpt lat="30.261265" lon="120.115858">
				<speed>0.000000</speed>
				<ele>49.000000</ele>
				<time>2026-08-17T06:03:14Z</time>
			</trkpt>
			<trkpt lat="30.261262" lon="120.115876">
				<speed>0.000000</speed>
				<ele>49.000000</ele>
				<time>2026-08-17T06:03:15Z</time>
			</trkpt>
			<trkpt lat="30.261250" lon="120.115931">
				<speed>0.000000</speed>
				<ele>49.000000</ele>
				<time>2026-08-17T06:03:16Z</time>
			</trkpt>
			<trkpt lat="30.261245" lon="120.115949">
				<speed>0.000000</speed>
				<ele>49.000000</ele>
				<time>2026-08-17T06:03:17Z</time>
			</trkpt>
			<trkpt lat="30.261239" lon="120.115967">
				<speed>0.000000</speed>
				<ele>48.000000</ele>
				<time>2026-08-17T06:03:18Z</time>
			</trkpt>
			<trkpt lat="30.261234" lon="120.115984">
				<speed>0.000000</speed>
				<ele>48.000000</ele>
				<time>2026-08-17T06:03:19Z</time>
			</trkpt>
			<trkpt lat="30.261204" lon="120.116027">
				<speed>0.000000</speed>
				<ele>48.000000</ele>
				<time>2026-08-17T06:03:20Z</time>
			</trkpt>
			<trkpt lat="30.261188" lon="120.116035">
				<speed>0.000000</speed>
				<ele>48.000000</ele>
				<time>2026-08-17T06:03:21Z</time>
			</trkpt>
			<trkpt lat="30.261172" lon="120.116043">
				<speed>0.000000</speed>
				<ele>48.000000</ele>
				<time>2026-08-17T06:03:22Z</time>
			</trkpt>
			<trkpt lat="30.261156" lon="120.116052">
				<speed>0.000000</speed>
				<ele>48.000000</ele>
				<time>2026-08-17T06:03:23Z</time>
			</trkpt>
			<trkpt lat="30.261100" lon="120.116062">
				<speed>0.000000</speed>
				<ele>48.000000</ele>
				<time>2026-08-17T06:03:24Z</time>
			</trkpt>
			<trkpt lat="30.261082" lon="120.116065">
				<speed>0.000000</speed>
				<ele>48.000000</ele>
				<time>2026-08-17T06:03:25Z</time>
			</trkpt>
			<trkpt lat="30.261063" lon="120.116068">
				<speed>0.000000</speed>
				<ele>48.000000</ele>
				<time>2026-08-17T06:03:26Z</time>
			</trkpt>
			<trkpt lat="30.261045" lon="120.116071">
				<speed>0.000000</speed>
				<ele>48.000000</ele>
				<time>2026-08-17T06:03:27Z</time>
			</trkpt>
			<trkpt lat="30.260992" lon="120.116082">
				<speed>0.000000</speed>
				<ele>48.000000</ele>
				<time>2026-08-17T06:03:28Z</time>
			</trkpt>
			<trkpt lat="30.260975" lon="120.116086">
				<speed>0.000000</speed>
				<ele>48.000000</ele>
				<time>2026-08-17T06:03:29Z</time>
			</trkpt>
			<trkpt lat="30.260957" lon="120.116089">
				<speed>0.000000</speed>
				<ele>47.000000</ele>
				<time>2026-08-17T06:03:30Z</time>
			</trkpt>
			<trkpt lat="30.260940" lon="120.116093">
				<speed>0.000000</speed>
				<ele>47.000000</ele>
				<time>2026-08-17T06:03:31Z</time>
			</trkpt>
			<trkpt lat="30.260891" lon="120.116101">
				<speed>0.000000</speed>
				<ele>47.000000</ele>
				<time>2026-08-17T06:03:32Z</time>
			</trkpt>
			<trkpt lat="30.260875" lon="120.116103">
				<speed>0.000000</speed>
				<ele>47.000000</ele>
				<time>2026-08-17T06:03:33Z</time>
			</trkpt>
			<trkpt lat="30.260859" lon="120.116105">
				<speed>0.000000</speed>
				<ele>47.000000</ele>
				<time>2026-08-17T06:03:34Z</time>
			</trkpt>
			<trkpt lat="30.260843" lon="120.116107">
				<speed>0.000000</speed>
				<ele>47.000000</ele>
				<time>2026-08-17T06:03:35Z</time>
			</trkpt>
			<trkpt lat="30.260797" lon="120.116107">
				<speed>0.000000</speed>
				<ele>47.000000</ele>
				<time>2026-08-17T06:03:36Z</time>
			</trkpt>
			<trkpt lat="30.260782" lon="120.116107">
				<speed>0.000000</speed>
				<ele>47.000000</ele>
				<time>2026-08-17T06:03:37Z</time>
			</trkpt>
			<trkpt lat="30.260767" lon="120.116107">
				<speed>0.000000</speed>
				<ele>47.000000</ele>
				<time>2026-08-17T06:03:38Z</time>
			</trkpt>
			<trkpt lat="30.260752" lon="120.116107">
				<speed>0.000000</speed>
				<ele>47.000000</ele>
				<time>2026-08-17T06:03:39Z</time>
			</trkpt>
			<trkpt lat="30.260706" lon="120.116107">
				<speed>0.000000</speed>
				<ele>47.000000</ele>
				<time>2026-08-17T06:03:40Z</time>
			</trkpt>
			<trkpt lat="30.260691" lon="120.116107">
				<speed>0.000000</speed>
				<ele>47.000000</ele>
				<time>2026-08-17T06:03:41Z</time>
			</trkpt>
			<trkpt lat="30.260675" lon="120.116107">
				<speed>0.000000</speed>
				<ele>47.000000</ele>
				<time>2026-08-17T06:03:42Z</time>
			</trkpt>
			<trkpt lat="30.260660" lon="120.116107">
				<speed>0.000000</speed>
				<ele>47.000000</ele>
				<time>2026-08-17T06:03:43Z</time>
			</trkpt>
			<trkpt lat="30.260614" lon="120.116109">
				<speed>0.000000</speed>
				<ele>47.000000</ele>
				<time>2026-08-17T06:03:44Z</time>
			</trkpt>
			<trkpt lat="30.260603" lon="120.116116">
				<speed>0.000000</speed>
				<ele>47.000000</ele>
				<time>2026-08-17T06:03:45Z</time>
			</trkpt>
			<trkpt lat="30.260592" lon="120.116122">
				<speed>0.000000</speed>
				<ele>47.000000</ele>
				<time>2026-08-17T06:03:46Z</time>
			</trkpt>
			<trkpt lat="30.260581" lon="120.116128">
				<speed>0.000000</speed>
				<ele>47.000000</ele>
				<time>2026-08-17T06:03:47Z</time>
			</trkpt>
			<trkpt lat="30.260566" lon="120.116169">
				<speed>0.000000</speed>
				<ele>47.000000</ele>
				<time>2026-08-17T06:03:48Z</time>
			</trkpt>
			<trkpt lat="30.260565" lon="120.116188">
				<speed>0.000000</speed>
				<ele>47.000000</ele>
				<time>2026-08-17T06:03:49Z</time>
			</trkpt>
			<trkpt lat="30.260565" lon="120.116206">
				<speed>0.000000</speed>
				<ele>47.000000</ele>
				<time>2026-08-17T06:03:50Z</time>
			</trkpt>
			<trkpt lat="30.260564" lon="120.116224">
				<speed>0.000000</speed>
				<ele>47.000000</ele>
				<time>2026-08-17T06:03:51Z</time>
			</trkpt>
			<trkpt lat="30.260569" lon="120.116284">
				<speed>0.000000</speed>
				<ele>47.000000</ele>
				<time>2026-08-17T06:03:52Z</time>
			</trkpt>
			<trkpt lat="30.260570" lon="120.116302">
				<speed>0.000000</speed>
				<ele>47.000000</ele>
				<time>2026-08-17T06:03:53Z</time>
			</trkpt>
			<trkpt lat="30.260572" lon="120.116322">
				<speed>0.000000</speed>
				<ele>47.000000</ele>
				<time>2026-08-17T06:03:54Z</time>
			</trkpt>
			<trkpt lat="30.260574" lon="120.116341">
				<speed>0.000000</speed>
				<ele>47.000000</ele>
				<time>2026-08-17T06:03:55Z</time>
			</trkpt>
			<trkpt lat="30.260577" lon="120.116396">
				<speed>0.000000</speed>
				<ele>47.000000</ele>
				<time>2026-08-17T06:03:56Z</time>
			</trkpt>
			<trkpt lat="30.260576" lon="120.116414">
				<speed>0.000000</speed>
				<ele>47.000000</ele>
				<time>2026-08-17T06:03:57Z</time>
			</trkpt>
			<trkpt lat="30.260576" lon="120.116433">
				<speed>0.000000</speed>
				<ele>46.000000</ele>
				<time>2026-08-17T06:03:58Z</time>
			</trkpt>
			<trkpt lat="30.260576" lon="120.116451">
				<speed>0.000000</speed>
				<ele>46.000000</ele>
				<time>2026-08-17T06:03:59Z</time>
			</trkpt>
			<trkpt lat="30.260573" lon="120.116505">
				<speed>0.000000</speed>
				<ele>46.000000</ele>
				<time>2026-08-17T06:04:00Z</time>
			</trkpt>
			<trkpt lat="30.260571" lon="120.116523">
				<speed>0.000000</speed>
				<ele>46.000000</ele>
				<time>2026-08-17T06:04:01Z</time>
			</trkpt>
			<trkpt lat="30.260569" lon="120.116541">
				<speed>0.000000</speed>
				<ele>46.000000</ele>
				<time>2026-08-17T06:04:02Z</time>
			</trkpt>
			<trkpt lat="30.260567" lon="120.116558">
				<speed>0.000000</speed>
				<ele>46.000000</ele>
				<time>2026-08-17T06:04:03Z</time>
			</trkpt>
			<trkpt lat="30.260557" lon="120.116612">
				<speed>0.000000</speed>
				<ele>46.000000</ele>
				<time>2026-08-17T06:04:04Z</time>
			</trkpt>
			<trkpt lat="30.260554" lon="120.116631">
				<speed>0.000000</speed>
				<ele>46.000000</ele>
				<time>2026-08-17T06:04:05Z</time>
			</trkpt>
			<trkpt lat="30.260550" lon="120.116649">
				<speed>0.000000</speed>
				<ele>46.000000</ele>
				<time>2026-08-17T06:04:06Z</time>
			</trkpt>
			<trkpt lat="30.260546" lon="120.116667">
				<speed>0.000000</speed>
				<ele>46.000000</ele>
				<time>2026-08-17T06:04:07Z</time>
			</trkpt>
			<trkpt lat="30.260535" lon="120.116724">
				<speed>0.000000</speed>
				<ele>46.000000</ele>
				<time>2026-08-17T06:04:08Z</time>
			</trkpt>
			<trkpt lat="30.260532" lon="120.116743">
				<speed>0.000000</speed>
				<ele>46.000000</ele>
				<time>2026-08-17T06:04:09Z</time>
			</trkpt>
			<trkpt lat="30.260530" lon="120.116763">
				<speed>0.000000</speed>
				<ele>46.000000</ele>
				<time>2026-08-17T06:04:10Z</time>
			</trkpt>
			<trkpt lat="30.260528" lon="120.116782">
				<speed>0.000000</speed>
				<ele>46.000000</ele>
				<time>2026-08-17T06:04:11Z</time>
			</trkpt>
			<trkpt lat="30.260521" lon="120.116839">
				<speed>0.000000</speed>
				<ele>46.000000</ele>
				<time>2026-08-17T06:04:12Z</time>
			</trkpt>
			<trkpt lat="30.260518" lon="120.116858">
				<speed>0.000000</speed>
				<ele>46.000000</ele>
				<time>2026-08-17T06:04:13Z</time>
			</trkpt>
			<trkpt lat="30.260515" lon="120.116876">
				<speed>0.000000</speed>
				<ele>45.000000</ele>
				<time>2026-08-17T06:04:14Z</time>
			</trkpt>
			<trkpt lat="30.260512" lon="120.116895">
				<speed>0.000000</speed>
				<ele>45.000000</ele>
				<time>2026-08-17T06:04:15Z</time>
			</trkpt>
			<trkpt lat="30.260501" lon="120.116950">
				<speed>0.000000</speed>
				<ele>45.000000</ele>
				<time>2026-08-17T06:04:16Z</time>
			</trkpt>
			<trkpt lat="30.260498" lon="120.116968">
				<speed>0.000000</speed>
				<ele>45.000000</ele>
				<time>2026-08-17T06:04:17Z</time>
			</trkpt>
			<trkpt lat="30.260495" lon="120.116986">
				<speed>0.000000</speed>
				<ele>45.000000</ele>
				<time>2026-08-17T06:04:18Z</time>
			</trkpt>
			<trkpt lat="30.260492" lon="120.117004">
				<speed>0.000000</speed>
				<ele>45.000000</ele>
				<time>2026-08-17T06:04:19Z</time>
			</trkpt>
			<trkpt lat="30.260484" lon="120.117060">
				<speed>0.000000</speed>
				<ele>45.000000</ele>
				<time>2026-08-17T06:04:20Z</time>
			</trkpt>
			<trkpt lat="30.260483" lon="120.117079">
				<speed>0.000000</speed>
				<ele>45.000000</ele>
				<time>2026-08-17T06:04:21Z</time>
			</trkpt>
			<trkpt lat="30.260481" lon="120.117098">
				<speed>0.000000</speed>
				<ele>45.000000</ele>
				<time>2026-08-17T06:04:22Z</time>
			</trkpt>
			<trkpt lat="30.260480" lon="120.117117">
				<speed>0.000000</speed>
				<ele>45.000000</ele>
				<time>2026-08-17T06:04:23Z</time>
			</trkpt>
			<trkpt lat="30.260481" lon="120.117175">
				<speed>0.000000</speed>
				<ele>45.000000</ele>
				<time>2026-08-17T06:04:24Z</time>
			</trkpt>
			<trkpt lat="30.260483" lon="120.117194">
				<speed>0.000000</speed>
				<ele>45.000000</ele>
				<time>2026-08-17T06:04:25Z</time>
			</trkpt>
			<trkpt lat="30.260484" lon="120.117214">
				<speed>0.000000</speed>
				<ele>44.000000</ele>
				<time>2026-08-17T06:04:26Z</time>
			</trkpt>
			<trkpt lat="30.260486" lon="120.117234">
				<speed>0.000000</speed>
				<ele>44.000000</ele>
				<time>2026-08-17T06:04:27Z</time>
			</trkpt>
			<trkpt lat="30.260488" lon="120.117294">
				<speed>0.000000</speed>
				<ele>44.000000</ele>
				<time>2026-08-17T06:04:28Z</time>
			</trkpt>
			<trkpt lat="30.260488" lon="120.117314">
				<speed>0.000000</speed>
				<ele>44.000000</ele>
				<time>2026-08-17T06:04:29Z</time>
			</trkpt>
			<trkpt lat="30.260487" lon="120.117334">
				<speed>0.000000</speed>
				<ele>44.000000</ele>
				<time>2026-08-17T06:04:30Z</time>
			</trkpt>
			<trkpt lat="30.260487" lon="120.117355">
				<speed>0.000000</speed>
				<ele>44.000000</ele>
				<time>2026-08-17T06:04:31Z</time>
			</trkpt>
			<trkpt lat="30.260484" lon="120.117415">
				<speed>0.000000</speed>
				<ele>44.000000</ele>
				<time>2026-08-17T06:04:32Z</time>
			</trkpt>
			<trkpt lat="30.260482" lon="120.117434">
				<speed>0.000000</speed>
				<ele>44.000000</ele>
				<time>2026-08-17T06:04:33Z</time>
			</trkpt>
			<trkpt lat="30.260481" lon="120.117454">
				<speed>0.000000</speed>
				<ele>44.000000</ele>
				<time>2026-08-17T06:04:34Z</time>
			</trkpt>
			<trkpt lat="30.260479" lon="120.117474">
				<speed>0.000000</speed>
				<ele>44.000000</ele>
				<time>2026-08-17T06:04:35Z</time>
			</trkpt>
			<trkpt lat="30.260474" lon="120.117531">
				<speed>0.000000</speed>
				<ele>44.000000</ele>
				<time>2026-08-17T06:04:36Z</time>
			</trkpt>
			<trkpt lat="30.260473" lon="120.117550">
				<speed>0.000000</speed>
				<ele>44.000000</ele>
				<time>2026-08-17T06:04:37Z</time>
			</trkpt>
			<trkpt lat="30.260472" lon="120.117568">
				<speed>0.000000</speed>
				<ele>44.000000</ele>
				<time>2026-08-17T06:04:38Z</time>
			</trkpt>
			<trkpt lat="30.260470" lon="120.117587">
				<speed>0.000000</speed>
				<ele>44.000000</ele>
				<time>2026-08-17T06:04:39Z</time>
			</trkpt>
			<trkpt lat="30.260468" lon="120.117643">
				<speed>0.000000</speed>
				<ele>44.000000</ele>
				<time>2026-08-17T06:04:40Z</time>
			</trkpt>
			<trkpt lat="30.260467" lon="120.117661">
				<speed>0.000000</speed>
				<ele>44.000000</ele>
				<time>2026-08-17T06:04:41Z</time>
			</trkpt>
			<trkpt lat="30.260466" lon="120.117680">
				<speed>0.000000</speed>
				<ele>43.000000</ele>
				<time>2026-08-17T06:04:42Z</time>
			</trkpt>
			<trkpt lat="30.260466" lon="120.117699">
				<speed>0.000000</speed>
				<ele>43.000000</ele>
				<time>2026-08-17T06:04:43Z</time>
			</trkpt>
			<trkpt lat="30.260465" lon="120.117756">
				<speed>0.000000</speed>
				<ele>43.000000</ele>
				<time>2026-08-17T06:04:44Z</time>
			</trkpt>
			<trkpt lat="30.260464" lon="120.117775">
				<speed>0.000000</speed>
				<ele>43.000000</ele>
				<time>2026-08-17T06:04:45Z</time>
			</trkpt>
			<trkpt lat="30.260464" lon="120.117794">
				<speed>0.000000</speed>
				<ele>43.000000</ele>
				<time>2026-08-17T06:04:46Z</time>
			</trkpt>
			<trkpt lat="30.260464" lon="120.117814">
				<speed>0.000000</speed>
				<ele>43.000000</ele>
				<time>2026-08-17T06:04:47Z</time>
			</trkpt>
			<trkpt lat="30.260462" lon="120.117872">
				<speed>0.000000</speed>
				<ele>43.000000</ele>
				<time>2026-08-17T06:04:48Z</time>
			</trkpt>
			<trkpt lat="30.260461" lon="120.117892">
				<speed>0.000000</speed>
				<ele>43.000000</ele>
				<time>2026-08-17T06:04:49Z</time>
			</trkpt>
			<trkpt lat="30.260460" lon="120.117911">
				<speed>0.000000</speed>
				<ele>43.000000</ele>
				<time>2026-08-17T06:04:50Z</time>
			</trkpt>
			<trkpt lat="30.260459" lon="120.117930">
				<speed>0.000000</speed>
				<ele>43.000000</ele>
				<time>2026-08-17T06:04:51Z</time>
			</trkpt>
			<trkpt lat="30.260454" lon="120.117986">
				<speed>0.000000</speed>
				<ele>43.000000</ele>
				<time>2026-08-17T06:04:52Z</time>
			</trkpt>
			<trkpt lat="30.260452" lon="120.118005">
				<speed>0.000000</speed>
				<ele>43.000000</ele>
				<time>2026-08-17T06:04:53Z</time>
			</trkpt>
			<trkpt lat="30.260450" lon="120.118023">
				<speed>0.000000</speed>
				<ele>43.000000</ele>
				<time>2026-08-17T06:04:54Z</time>
			</trkpt>
			<trkpt lat="30.260448" lon="120.118042">
				<speed>0.000000</speed>
				<ele>43.000000</ele>
				<time>2026-08-17T06:04:55Z</time>
			</trkpt>
			<trkpt lat="30.260442" lon="120.118098">
				<speed>0.000000</speed>
				<ele>43.000000</ele>
				<time>2026-08-17T06:04:56Z</time>
			</trkpt>
			<trkpt lat="30.260440" lon="120.118116">
				<speed>0.000000</speed>
				<ele>43.000000</ele>
				<time>2026-08-17T06:04:57Z</time>
			</trkpt>
			<trkpt lat="30.260437" lon="120.118134">
				<speed>0.000000</speed>
				<ele>43.000000</ele>
				<time>2026-08-17T06:04:58Z</time>
			</trkpt>
			<trkpt lat="30.260435" lon="120.118153">
				<speed>0.000000</speed>
				<ele>43.000000</ele>
				<time>2026-08-17T06:04:59Z</time>
			</trkpt>
			<trkpt lat="30.260428" lon="120.118207">
				<speed>0.000000</speed>
				<ele>43.000000</ele>
				<time>2026-08-17T06:05:00Z</time>
			</trkpt>
			<trkpt lat="30.260425" lon="120.118225">
				<speed>0.000000</speed>
				<ele>43.000000</ele>
				<time>2026-08-17T06:05:01Z</time>
			</trkpt>
			<trkpt lat="30.260423" lon="120.118243">
				<speed>0.000000</speed>
				<ele>42.000000</ele>
				<time>2026-08-17T06:05:02Z</time>
			</trkpt>
			<trkpt lat="30.260421" lon="120.118262">
				<speed>0.000000</speed>
				<ele>42.000000</ele>
				<time>2026-08-17T06:05:03Z</time>
			</trkpt>
			<trkpt lat="30.260415" lon="120.118318">
				<speed>0.000000</speed>
				<ele>42.000000</ele>
				<time>2026-08-17T06:05:04Z</time>
			</trkpt>
			<trkpt lat="30.260413" lon="120.118336">
				<speed>0.000000</speed>
				<ele>42.000000</ele>
				<time>2026-08-17T06:05:05Z</time>
			</trkpt>
			<trkpt lat="30.260411" lon="120.118354">
				<speed>0.000000</speed>
				<ele>42.000000</ele>
				<time>2026-08-17T06:05:06Z</time>
			</trkpt>
			<trkpt lat="30.260409" lon="120.118372">
				<speed>0.000000</speed>
				<ele>42.000000</ele>
				<time>2026-08-17T06:05:07Z</time>
			</trkpt>
			<trkpt lat="30.260405" lon="120.118423">
				<speed>0.000000</speed>
				<ele>42.000000</ele>
				<time>2026-08-17T06:05:08Z</time>
			</trkpt>
			<trkpt lat="30.260404" lon="120.118438">
				<speed>0.000000</speed>
				<ele>42.000000</ele>
				<time>2026-08-17T06:05:09Z</time>
			</trkpt>
			<trkpt lat="30.260404" lon="120.118454">
				<speed>0.000000</speed>
				<ele>42.000000</ele>
				<time>2026-08-17T06:05:10Z</time>
			</trkpt>
			<trkpt lat="30.260403" lon="120.118469">
				<speed>0.000000</speed>
				<ele>42.000000</ele>
				<time>2026-08-17T06:05:11Z</time>
			</trkpt>
			<trkpt lat="30.260403" lon="120.118518">
				<speed>0.000000</speed>
				<ele>42.000000</ele>
				<time>2026-08-17T06:05:12Z</time>
			</trkpt>
			<trkpt lat="30.260403" lon="120.118535">
				<speed>0.000000</speed>
				<ele>42.000000</ele>
				<time>2026-08-17T06:05:13Z</time>
			</trkpt>
			<trkpt lat="30.260403" lon="120.118553">
				<speed>0.000000</speed>
				<ele>41.000000</ele>
				<time>2026-08-17T06:05:14Z</time>
			</trkpt>
			<trkpt lat="30.260403" lon="120.118570">
				<speed>0.000000</speed>
				<ele>41.000000</ele>
				<time>2026-08-17T06:05:15Z</time>
			</trkpt>
			<trkpt lat="30.260400" lon="120.118623">
				<speed>0.000000</speed>
				<ele>41.000000</ele>
				<time>2026-08-17T06:05:16Z</time>
			</trkpt>
			<trkpt lat="30.260398" lon="120.118641">
				<speed>0.000000</speed>
				<ele>41.000000</ele>
				<time>2026-08-17T06:05:17Z</time>
			</trkpt>
			<trkpt lat="30.260396" lon="120.118658">
				<speed>0.000000</speed>
				<ele>41.000000</ele>
				<time>2026-08-17T06:05:18Z</time>
			</trkpt>
			<trkpt lat="30.260394" lon="120.118676">
				<speed>0.000000</speed>
				<ele>41.000000</ele>
				<time>2026-08-17T06:05:19Z</time>
			</trkpt>
			<trkpt lat="30.260387" lon="120.118728">
				<speed>0.000000</speed>
				<ele>41.000000</ele>
				<time>2026-08-17T06:05:20Z</time>
			</trkpt>
			<trkpt lat="30.260385" lon="120.118744">
				<speed>0.000000</speed>
				<ele>41.000000</ele>
				<time>2026-08-17T06:05:21Z</time>
			</trkpt>
			<trkpt lat="30.260383" lon="120.118761">
				<speed>0.000000</speed>
				<ele>41.000000</ele>
				<time>2026-08-17T06:05:22Z</time>
			</trkpt>
			<trkpt lat="30.260382" lon="120.118778">
				<speed>0.000000</speed>
				<ele>41.000000</ele>
				<time>2026-08-17T06:05:23Z</time>
			</trkpt>
			<trkpt lat="30.260377" lon="120.118825">
				<speed>0.000000</speed>
				<ele>41.000000</ele>
				<time>2026-08-17T06:05:24Z</time>
			</trkpt>
			<trkpt lat="30.260375" lon="120.118840">
				<speed>0.000000</speed>
				<ele>41.000000</ele>
				<time>2026-08-17T06:05:25Z</time>
			</trkpt>
			<trkpt lat="30.260373" lon="120.118854">
				<speed>0.000000</speed>
				<ele>41.000000</ele>
				<time>2026-08-17T06:05:26Z</time>
			</trkpt>
			<trkpt lat="30.260372" lon="120.118868">
				<speed>0.000000</speed>
				<ele>41.000000</ele>
				<time>2026-08-17T06:05:27Z</time>
			</trkpt>
			<trkpt lat="30.260367" lon="120.118904">
				<speed>0.000000</speed>
				<ele>41.000000</ele>
				<time>2026-08-17T06:05:28Z</time>
			</trkpt>
			<trkpt lat="30.260364" lon="120.118914">
				<speed>0.000000</speed>
				<ele>41.000000</ele>
				<time>2026-08-17T06:05:29Z</time>
			</trkpt>
			<trkpt lat="30.260362" lon="120.118924">
				<speed>0.000000</speed>
				<ele>40.000000</ele>
				<time>2026-08-17T06:05:30Z</time>
			</trkpt>
			<trkpt lat="30.260360" lon="120.118934">
				<speed>0.000000</speed>
				<ele>40.000000</ele>
				<time>2026-08-17T06:05:31Z</time>
			</trkpt>
			<trkpt lat="30.260351" lon="120.118961">
				<speed>0.000000</speed>
				<ele>40.000000</ele>
				<time>2026-08-17T06:05:32Z</time>
			</trkpt>
			<trkpt lat="30.260348" lon="120.118969">
				<speed>0.000000</speed>
				<ele>40.000000</ele>
				<time>2026-08-17T06:05:33Z</time>
			</trkpt>
			<trkpt lat="30.260346" lon="120.118977">
				<speed>0.000000</speed>
				<ele>40.000000</ele>
				<time>2026-08-17T06:05:34Z</time>
			</trkpt>
			<trkpt lat="30.260344" lon="120.118985">
				<speed>0.000000</speed>
				<ele>40.000000</ele>
				<time>2026-08-17T06:05:35Z</time>
			</trkpt>
			<trkpt lat="30.260346" lon="120.119008">
				<speed>0.000000</speed>
				<ele>40.000000</ele>
				<time>2026-08-17T06:05:36Z</time>
			</trkpt>
			<trkpt lat="30.260349" lon="120.119016">
				<speed>0.000000</speed>
				<ele>40.000000</ele>
				<time>2026-08-17T06:05:37Z</time>
			</trkpt>
			<trkpt lat="30.260351" lon="120.119024">
				<speed>0.000000</speed>
				<ele>40.000000</ele>
				<time>2026-08-17T06:05:38Z</time>
			</trkpt>
			<trkpt lat="30.260354" lon="120.119031">
				<speed>0.000000</speed>
				<ele>40.000000</ele>
				<time>2026-08-17T06:05:39Z</time>
			</trkpt>
			<trkpt lat="30.260366" lon="120.119054">
				<speed>0.000000</speed>
				<ele>40.000000</ele>
				<time>2026-08-17T06:05:40Z</time>
			</trkpt>
			<trkpt lat="30.260370" lon="120.119062">
				<speed>0.000000</speed>
				<ele>40.000000</ele>
				<time>2026-08-17T06:05:41Z</time>
			</trkpt>
			<trkpt lat="30.260373" lon="120.119070">
				<speed>0.000000</speed>
				<ele>40.000000</ele>
				<time>2026-08-17T06:05:42Z</time>
			</trkpt>
			<trkpt lat="30.260377" lon="120.119079">
				<speed>0.000000</speed>
				<ele>40.000000</ele>
				<time>2026-08-17T06:05:43Z</time>
			</trkpt>
			<trkpt lat="30.260384" lon="120.119105">
				<speed>0.000000</speed>
				<ele>40.000000</ele>
				<time>2026-08-17T06:05:44Z</time>
			</trkpt>
			<trkpt lat="30.260384" lon="120.119114">
				<speed>0.000000</speed>
				<ele>40.000000</ele>
				<time>2026-08-17T06:05:45Z</time>
			</trkpt>
			<trkpt lat="30.260384" lon="120.119122">
				<speed>0.000000</speed>
				<ele>40.000000</ele>
				<time>2026-08-17T06:05:46Z</time>
			</trkpt>
			<trkpt lat="30.260385" lon="120.119131">
				<speed>0.000000</speed>
				<ele>40.000000</ele>
				<time>2026-08-17T06:05:47Z</time>
			</trkpt>
			<trkpt lat="30.260382" lon="120.119160">
				<speed>0.000000</speed>
				<ele>40.000000</ele>
				<time>2026-08-17T06:05:48Z</time>
			</trkpt>
			<trkpt lat="30.260380" lon="120.119170">
				<speed>0.000000</speed>
				<ele>40.000000</ele>
				<time>2026-08-17T06:05:49Z</time>
			</trkpt>
			<trkpt lat="30.260378" lon="120.119180">
				<speed>0.000000</speed>
				<ele>40.000000</ele>
				<time>2026-08-17T06:05:50Z</time>
			</trkpt>
			<trkpt lat="30.260377" lon="120.119190">
				<speed>0.000000</speed>
				<ele>40.000000</ele>
				<time>2026-08-17T06:05:51Z</time>
			</trkpt>
			<trkpt lat="30.260373" lon="120.119223">
				<speed>0.000000</speed>
				<ele>40.000000</ele>
				<time>2026-08-17T06:05:52Z</time>
			</trkpt>
			<trkpt lat="30.260373" lon="120.119234">
				<speed>0.000000</speed>
				<ele>40.000000</ele>
				<time>2026-08-17T06:05:53Z</time>
			</trkpt>
			<trkpt lat="30.260373" lon="120.119245">
				<speed>0.000000</speed>
				<ele>39.000000</ele>
				<time>2026-08-17T06:05:54Z</time>
			</trkpt>
			<trkpt lat="30.260373" lon="120.119255">
				<speed>0.000000</speed>
				<ele>39.000000</ele>
				<time>2026-08-17T06:05:55Z</time>
			</trkpt>
			<trkpt lat="30.260374" lon="120.119286">
				<speed>0.000000</speed>
				<ele>39.000000</ele>
				<time>2026-08-17T06:05:56Z</time>
			</trkpt>
			<trkpt lat="30.260375" lon="120.119297">
				<speed>0.000000</speed>
				<ele>39.000000</ele>
				<time>2026-08-17T06:05:57Z</time>
			</trkpt>
			<trkpt lat="30.260376" lon="120.119308">
				<speed>0.000000</speed>
				<ele>39.000000</ele>
				<time>2026-08-17T06:05:58Z</time>
			</trkpt>
			<trkpt lat="30.260378" lon="120.119318">
				<speed>0.000000</speed>
				<ele>39.000000</ele>
				<time>2026-08-17T06:05:59Z</time>
			</trkpt>
			<trkpt lat="30.260380" lon="120.119351">
				<speed>0.000000</speed>
				<ele>39.000000</ele>
				<time>2026-08-17T06:06:00Z</time>
			</trkpt>
			<trkpt lat="30.260381" lon="120.119360">
				<speed>0.000000</speed>
				<ele>39.000000</ele>
				<time>2026-08-17T06:06:01Z</time>
			</trkpt>
			<trkpt lat="30.260382" lon="120.119370">
				<speed>0.000000</speed>
				<ele>39.000000</ele>
				<time>2026-08-17T06:06:02Z</time>
			</trkpt>
			<trkpt lat="30.260383" lon="120.119380">
				<speed>0.000000</speed>
				<ele>39.000000</ele>
				<time>2026-08-17T06:06:03Z</time>
			</trkpt>
		</trkseg>
	</trk>
	<extensions>
		<name><![CDATA[天狼越野恭喜发财（更新版）]]></name>
		<TrackId>88471403</TrackId>
		<TrackTypeId>0</TrackTypeId>
		<TrackTags><![CDATA[外部导入]]></TrackTags>
		<BeginTime>1786932813000</BeginTime>
		<EndTime>1786946763000</EndTime>
		<PauseTime>1678</PauseTime>
		<PosStartName><![CDATA[青芝坞桥]]></PosStartName>
		<PosEndName><![CDATA[浙江省杭州市西湖区灵隐街道玉泉社区玉古路兰家湾65号楼]]></PosEndName>
		<StartDistrictId>7728</StartDistrictId>
		<EndDistrictId>7728</EndDistrictId>
		<CreaterId>1700521</CreaterId>
		<CreaterName>Airwolf</CreaterName>
		<Distance>17413.679582</Distance>
		<ElevationGain>894.000000</ElevationGain>
		<ElevationLoss>885.000000</ElevationLoss>
		<SportAvgSpeed>1.418976</SportAvgSpeed>
	</extensions>
</gpx>
